<?xml version="1.0" encoding="UTF-8" standalone="no" ?>
<gpx xmlns="http://www.topografix.com/GPX/1/1" xmlns:xsi="http://www.w3.org/2001/XMLSchema-instance" xsi:schemaLocation="http://www.topografix.com/GPX/1/1 http://www.topografix.com/GPX/1/1/gpx.xsd" version="1.1" creator="VisuGPX - https://www.visugpx.com">
  <metadata>
    <name>Trail du Tignet - 8,3 km</name>
    <desc><![CDATA[Dimanche 17 novembre 2019
Parcours de 8 km 
Renseignements sur www.running06.com]]></desc>
  </metadata>
  <trk>
    <name><![CDATA[Trail du Tignet - 8,3 km_1]]></name>
    <trkseg>
      <trkpt lat="43.62776" lon="6.8456">
        <ele>254</ele>
        <time>2017-10-14T06:23:13.000Z</time>
      </trkpt>
      <trkpt lat="43.62776" lon="6.8456">
        <ele>254</ele>
        <time>2017-10-14T06:23:14.000Z</time>
      </trkpt>
      <trkpt lat="43.62775" lon="6.8456">
        <ele>254</ele>
        <time>2017-10-14T06:23:15.000Z</time>
      </trkpt>
      <trkpt lat="43.62775" lon="6.84561">
        <ele>254</ele>
        <time>2017-10-14T06:23:16.000Z</time>
      </trkpt>
      <trkpt lat="43.62774" lon="6.84562">
        <ele>254</ele>
        <time>2017-10-14T06:23:17.000Z</time>
      </trkpt>
      <trkpt lat="43.62774" lon="6.84563">
        <ele>254</ele>
        <time>2017-10-14T06:23:18.000Z</time>
      </trkpt>
      <trkpt lat="43.62773" lon="6.84564">
        <ele>254</ele>
        <time>2017-10-14T06:23:19.000Z</time>
      </trkpt>
      <trkpt lat="43.62773" lon="6.84565">
        <ele>254</ele>
        <time>2017-10-14T06:23:20.000Z</time>
      </trkpt>
      <trkpt lat="43.62773" lon="6.84566">
        <ele>254</ele>
        <time>2017-10-14T06:23:21.000Z</time>
      </trkpt>
      <trkpt lat="43.62773" lon="6.84568">
        <ele>254</ele>
        <time>2017-10-14T06:23:22.000Z</time>
      </trkpt>
      <trkpt lat="43.62773" lon="6.84569">
        <ele>254</ele>
        <time>2017-10-14T06:23:23.000Z</time>
      </trkpt>
      <trkpt lat="43.62772" lon="6.8457">
        <ele>254</ele>
        <time>2017-10-14T06:23:24.000Z</time>
      </trkpt>
      <trkpt lat="43.62772" lon="6.84571">
        <ele>254</ele>
        <time>2017-10-14T06:23:25.000Z</time>
      </trkpt>
      <trkpt lat="43.62772" lon="6.84573">
        <ele>253</ele>
        <time>2017-10-14T06:23:26.000Z</time>
      </trkpt>
      <trkpt lat="43.62772" lon="6.84574">
        <ele>253</ele>
        <time>2017-10-14T06:23:27.000Z</time>
      </trkpt>
      <trkpt lat="43.62772" lon="6.84576">
        <ele>253</ele>
        <time>2017-10-14T06:23:28.000Z</time>
      </trkpt>
      <trkpt lat="43.62772" lon="6.84578">
        <ele>254</ele>
        <time>2017-10-14T06:23:29.000Z</time>
      </trkpt>
      <trkpt lat="43.62772" lon="6.84579">
        <ele>254</ele>
        <time>2017-10-14T06:23:30.000Z</time>
      </trkpt>
      <trkpt lat="43.62772" lon="6.84581">
        <ele>253</ele>
        <time>2017-10-14T06:23:31.000Z</time>
      </trkpt>
      <trkpt lat="43.62772" lon="6.84582">
        <ele>253</ele>
        <time>2017-10-14T06:23:32.000Z</time>
      </trkpt>
      <trkpt lat="43.62772" lon="6.84584">
        <ele>253</ele>
        <time>2017-10-14T06:23:33.000Z</time>
      </trkpt>
      <trkpt lat="43.62772" lon="6.84586">
        <ele>253</ele>
        <time>2017-10-14T06:23:34.000Z</time>
      </trkpt>
      <trkpt lat="43.62772" lon="6.84588">
        <ele>253</ele>
        <time>2017-10-14T06:23:35.000Z</time>
      </trkpt>
      <trkpt lat="43.62773" lon="6.84589">
        <ele>253</ele>
        <time>2017-10-14T06:23:36.000Z</time>
      </trkpt>
      <trkpt lat="43.62773" lon="6.84591">
        <ele>252</ele>
        <time>2017-10-14T06:23:37.000Z</time>
      </trkpt>
      <trkpt lat="43.62773" lon="6.84593">
        <ele>252</ele>
        <time>2017-10-14T06:23:38.000Z</time>
      </trkpt>
      <trkpt lat="43.62774" lon="6.84594">
        <ele>252</ele>
        <time>2017-10-14T06:23:39.000Z</time>
      </trkpt>
      <trkpt lat="43.62775" lon="6.84596">
        <ele>252</ele>
        <time>2017-10-14T06:23:40.000Z</time>
      </trkpt>
      <trkpt lat="43.62776" lon="6.84597">
        <ele>251</ele>
        <time>2017-10-14T06:23:41.000Z</time>
      </trkpt>
      <trkpt lat="43.62776" lon="6.84599">
        <ele>251</ele>
        <time>2017-10-14T06:23:42.000Z</time>
      </trkpt>
      <trkpt lat="43.62777" lon="6.846">
        <ele>251</ele>
        <time>2017-10-14T06:23:43.000Z</time>
      </trkpt>
      <trkpt lat="43.62778" lon="6.84602">
        <ele>251</ele>
        <time>2017-10-14T06:23:44.000Z</time>
      </trkpt>
      <trkpt lat="43.62779" lon="6.84603">
        <ele>251</ele>
        <time>2017-10-14T06:23:45.000Z</time>
      </trkpt>
      <trkpt lat="43.6278" lon="6.84605">
        <ele>250</ele>
        <time>2017-10-14T06:23:46.000Z</time>
      </trkpt>
      <trkpt lat="43.62781" lon="6.84606">
        <ele>250</ele>
        <time>2017-10-14T06:23:47.000Z</time>
      </trkpt>
      <trkpt lat="43.62783" lon="6.84607">
        <ele>249</ele>
        <time>2017-10-14T06:23:48.000Z</time>
      </trkpt>
      <trkpt lat="43.62784" lon="6.84608">
        <ele>249</ele>
        <time>2017-10-14T06:23:49.000Z</time>
      </trkpt>
      <trkpt lat="43.62785" lon="6.84609">
        <ele>249</ele>
        <time>2017-10-14T06:23:50.000Z</time>
      </trkpt>
      <trkpt lat="43.62786" lon="6.84611">
        <ele>249</ele>
        <time>2017-10-14T06:23:51.000Z</time>
      </trkpt>
      <trkpt lat="43.62788" lon="6.84612">
        <ele>248</ele>
        <time>2017-10-14T06:23:52.000Z</time>
      </trkpt>
      <trkpt lat="43.62789" lon="6.84613">
        <ele>248</ele>
        <time>2017-10-14T06:23:53.000Z</time>
      </trkpt>
      <trkpt lat="43.62791" lon="6.84614">
        <ele>248</ele>
        <time>2017-10-14T06:23:54.000Z</time>
      </trkpt>
      <trkpt lat="43.62792" lon="6.84615">
        <ele>247</ele>
        <time>2017-10-14T06:23:55.000Z</time>
      </trkpt>
      <trkpt lat="43.62793" lon="6.84616">
        <ele>247</ele>
        <time>2017-10-14T06:23:56.000Z</time>
      </trkpt>
      <trkpt lat="43.62794" lon="6.84617">
        <ele>247</ele>
        <time>2017-10-14T06:23:57.000Z</time>
      </trkpt>
      <trkpt lat="43.62794" lon="6.84619">
        <ele>247</ele>
        <time>2017-10-14T06:23:58.000Z</time>
      </trkpt>
      <trkpt lat="43.62794" lon="6.8462">
        <ele>246</ele>
        <time>2017-10-14T06:23:59.000Z</time>
      </trkpt>
      <trkpt lat="43.62792" lon="6.84622">
        <ele>246</ele>
        <time>2017-10-14T06:24:00.000Z</time>
      </trkpt>
      <trkpt lat="43.62791" lon="6.84622">
        <ele>245</ele>
        <time>2017-10-14T06:24:01.000Z</time>
      </trkpt>
      <trkpt lat="43.62789" lon="6.84622">
        <ele>245</ele>
        <time>2017-10-14T06:24:02.000Z</time>
      </trkpt>
      <trkpt lat="43.62787" lon="6.84621">
        <ele>245</ele>
        <time>2017-10-14T06:24:03.000Z</time>
      </trkpt>
      <trkpt lat="43.62785" lon="6.84621">
        <ele>245</ele>
        <time>2017-10-14T06:24:04.000Z</time>
      </trkpt>
      <trkpt lat="43.62783" lon="6.84621">
        <ele>244</ele>
        <time>2017-10-14T06:24:05.000Z</time>
      </trkpt>
      <trkpt lat="43.62781" lon="6.84621">
        <ele>244</ele>
        <time>2017-10-14T06:24:06.000Z</time>
      </trkpt>
      <trkpt lat="43.62779" lon="6.84621">
        <ele>244</ele>
        <time>2017-10-14T06:24:07.000Z</time>
      </trkpt>
      <trkpt lat="43.62777" lon="6.84621">
        <ele>244</ele>
        <time>2017-10-14T06:24:08.000Z</time>
      </trkpt>
      <trkpt lat="43.62775" lon="6.8462">
        <ele>243</ele>
        <time>2017-10-14T06:24:09.000Z</time>
      </trkpt>
      <trkpt lat="43.62773" lon="6.8462">
        <ele>243</ele>
        <time>2017-10-14T06:24:10.000Z</time>
      </trkpt>
      <trkpt lat="43.62771" lon="6.8462">
        <ele>244</ele>
        <time>2017-10-14T06:24:11.000Z</time>
      </trkpt>
      <trkpt lat="43.62769" lon="6.84619">
        <ele>244</ele>
        <time>2017-10-14T06:24:12.000Z</time>
      </trkpt>
      <trkpt lat="43.62767" lon="6.84619">
        <ele>244</ele>
        <time>2017-10-14T06:24:13.000Z</time>
      </trkpt>
      <trkpt lat="43.62765" lon="6.84618">
        <ele>244</ele>
        <time>2017-10-14T06:24:14.000Z</time>
      </trkpt>
      <trkpt lat="43.62763" lon="6.84617">
        <ele>244</ele>
        <time>2017-10-14T06:24:15.000Z</time>
      </trkpt>
      <trkpt lat="43.6276" lon="6.84617">
        <ele>244</ele>
        <time>2017-10-14T06:24:16.000Z</time>
      </trkpt>
      <trkpt lat="43.62758" lon="6.84616">
        <ele>243</ele>
        <time>2017-10-14T06:24:17.000Z</time>
      </trkpt>
      <trkpt lat="43.62756" lon="6.84616">
        <ele>244</ele>
        <time>2017-10-14T06:24:18.000Z</time>
      </trkpt>
      <trkpt lat="43.62755" lon="6.84615">
        <ele>243</ele>
        <time>2017-10-14T06:24:19.000Z</time>
      </trkpt>
      <trkpt lat="43.62753" lon="6.84615">
        <ele>243</ele>
        <time>2017-10-14T06:24:20.000Z</time>
      </trkpt>
      <trkpt lat="43.62751" lon="6.84615">
        <ele>243</ele>
        <time>2017-10-14T06:24:21.000Z</time>
      </trkpt>
      <trkpt lat="43.62749" lon="6.84615">
        <ele>243</ele>
        <time>2017-10-14T06:24:22.000Z</time>
      </trkpt>
      <trkpt lat="43.62747" lon="6.84615">
        <ele>244</ele>
        <time>2017-10-14T06:24:23.000Z</time>
      </trkpt>
      <trkpt lat="43.62745" lon="6.84615">
        <ele>244</ele>
        <time>2017-10-14T06:24:24.000Z</time>
      </trkpt>
      <trkpt lat="43.62743" lon="6.84615">
        <ele>244</ele>
        <time>2017-10-14T06:24:25.000Z</time>
      </trkpt>
      <trkpt lat="43.62741" lon="6.84616">
        <ele>244</ele>
        <time>2017-10-14T06:24:26.000Z</time>
      </trkpt>
      <trkpt lat="43.62739" lon="6.84616">
        <ele>244</ele>
        <time>2017-10-14T06:24:27.000Z</time>
      </trkpt>
      <trkpt lat="43.62737" lon="6.84617">
        <ele>244</ele>
        <time>2017-10-14T06:24:28.000Z</time>
      </trkpt>
      <trkpt lat="43.62734" lon="6.84618">
        <ele>244</ele>
        <time>2017-10-14T06:24:29.000Z</time>
      </trkpt>
      <trkpt lat="43.62732" lon="6.84619">
        <ele>243</ele>
        <time>2017-10-14T06:24:30.000Z</time>
      </trkpt>
      <trkpt lat="43.6273" lon="6.8462">
        <ele>244</ele>
        <time>2017-10-14T06:24:31.000Z</time>
      </trkpt>
      <trkpt lat="43.62728" lon="6.84621">
        <ele>244</ele>
        <time>2017-10-14T06:24:32.000Z</time>
      </trkpt>
      <trkpt lat="43.62726" lon="6.84622">
        <ele>244</ele>
        <time>2017-10-14T06:24:33.000Z</time>
      </trkpt>
      <trkpt lat="43.62724" lon="6.84623">
        <ele>244</ele>
        <time>2017-10-14T06:24:34.000Z</time>
      </trkpt>
      <trkpt lat="43.62722" lon="6.84624">
        <ele>244</ele>
        <time>2017-10-14T06:24:35.000Z</time>
      </trkpt>
      <trkpt lat="43.6272" lon="6.84625">
        <ele>244</ele>
        <time>2017-10-14T06:24:36.000Z</time>
      </trkpt>
      <trkpt lat="43.62717" lon="6.84626">
        <ele>244</ele>
        <time>2017-10-14T06:24:37.000Z</time>
      </trkpt>
      <trkpt lat="43.62716" lon="6.84627">
        <ele>244</ele>
        <time>2017-10-14T06:24:38.000Z</time>
      </trkpt>
      <trkpt lat="43.62714" lon="6.84628">
        <ele>244</ele>
        <time>2017-10-14T06:24:39.000Z</time>
      </trkpt>
      <trkpt lat="43.62712" lon="6.84629">
        <ele>245</ele>
        <time>2017-10-14T06:24:40.000Z</time>
      </trkpt>
      <trkpt lat="43.6271" lon="6.84629">
        <ele>245</ele>
        <time>2017-10-14T06:24:41.000Z</time>
      </trkpt>
      <trkpt lat="43.62708" lon="6.8463">
        <ele>244</ele>
        <time>2017-10-14T06:24:42.000Z</time>
      </trkpt>
      <trkpt lat="43.62706" lon="6.8463">
        <ele>244</ele>
        <time>2017-10-14T06:24:43.000Z</time>
      </trkpt>
      <trkpt lat="43.62704" lon="6.8463">
        <ele>244</ele>
        <time>2017-10-14T06:24:44.000Z</time>
      </trkpt>
      <trkpt lat="43.62702" lon="6.8463">
        <ele>244</ele>
        <time>2017-10-14T06:24:45.000Z</time>
      </trkpt>
      <trkpt lat="43.62699" lon="6.8463">
        <ele>244</ele>
        <time>2017-10-14T06:24:46.000Z</time>
      </trkpt>
      <trkpt lat="43.62697" lon="6.8463">
        <ele>244</ele>
        <time>2017-10-14T06:24:47.000Z</time>
      </trkpt>
      <trkpt lat="43.62695" lon="6.8463">
        <ele>244</ele>
        <time>2017-10-14T06:24:48.000Z</time>
      </trkpt>
      <trkpt lat="43.62693" lon="6.8463">
        <ele>244</ele>
        <time>2017-10-14T06:24:49.000Z</time>
      </trkpt>
      <trkpt lat="43.62691" lon="6.84629">
        <ele>244</ele>
        <time>2017-10-14T06:24:50.000Z</time>
      </trkpt>
      <trkpt lat="43.62689" lon="6.84629">
        <ele>244</ele>
        <time>2017-10-14T06:24:51.000Z</time>
      </trkpt>
      <trkpt lat="43.62687" lon="6.84629">
        <ele>244</ele>
        <time>2017-10-14T06:24:52.000Z</time>
      </trkpt>
      <trkpt lat="43.62685" lon="6.84629">
        <ele>244</ele>
        <time>2017-10-14T06:24:53.000Z</time>
      </trkpt>
      <trkpt lat="43.62683" lon="6.84628">
        <ele>244</ele>
        <time>2017-10-14T06:24:54.000Z</time>
      </trkpt>
      <trkpt lat="43.62681" lon="6.84628">
        <ele>244</ele>
        <time>2017-10-14T06:24:55.000Z</time>
      </trkpt>
      <trkpt lat="43.62679" lon="6.84628">
        <ele>243</ele>
        <time>2017-10-14T06:24:56.000Z</time>
      </trkpt>
      <trkpt lat="43.62677" lon="6.84628">
        <ele>243</ele>
        <time>2017-10-14T06:24:57.000Z</time>
      </trkpt>
      <trkpt lat="43.62675" lon="6.84627">
        <ele>243</ele>
        <time>2017-10-14T06:24:58.000Z</time>
      </trkpt>
      <trkpt lat="43.62673" lon="6.84627">
        <ele>243</ele>
        <time>2017-10-14T06:24:59.000Z</time>
      </trkpt>
      <trkpt lat="43.62671" lon="6.84627">
        <ele>243</ele>
        <time>2017-10-14T06:25:00.000Z</time>
      </trkpt>
      <trkpt lat="43.62669" lon="6.84626">
        <ele>243</ele>
        <time>2017-10-14T06:25:01.000Z</time>
      </trkpt>
      <trkpt lat="43.62667" lon="6.84626">
        <ele>242</ele>
        <time>2017-10-14T06:25:02.000Z</time>
      </trkpt>
      <trkpt lat="43.62665" lon="6.84625">
        <ele>242</ele>
        <time>2017-10-14T06:25:03.000Z</time>
      </trkpt>
      <trkpt lat="43.62663" lon="6.84625">
        <ele>242</ele>
        <time>2017-10-14T06:25:04.000Z</time>
      </trkpt>
      <trkpt lat="43.62661" lon="6.84624">
        <ele>242</ele>
        <time>2017-10-14T06:25:05.000Z</time>
      </trkpt>
      <trkpt lat="43.62659" lon="6.84624">
        <ele>242</ele>
        <time>2017-10-14T06:25:06.000Z</time>
      </trkpt>
      <trkpt lat="43.62657" lon="6.84623">
        <ele>241</ele>
        <time>2017-10-14T06:25:07.000Z</time>
      </trkpt>
      <trkpt lat="43.62655" lon="6.84623">
        <ele>241</ele>
        <time>2017-10-14T06:25:08.000Z</time>
      </trkpt>
      <trkpt lat="43.62653" lon="6.84622">
        <ele>241</ele>
        <time>2017-10-14T06:25:09.000Z</time>
      </trkpt>
      <trkpt lat="43.62651" lon="6.84622">
        <ele>241</ele>
        <time>2017-10-14T06:25:10.000Z</time>
      </trkpt>
      <trkpt lat="43.62649" lon="6.84622">
        <ele>241</ele>
        <time>2017-10-14T06:25:11.000Z</time>
      </trkpt>
      <trkpt lat="43.62647" lon="6.84621">
        <ele>241</ele>
        <time>2017-10-14T06:25:12.000Z</time>
      </trkpt>
      <trkpt lat="43.62645" lon="6.84621">
        <ele>242</ele>
        <time>2017-10-14T06:25:13.000Z</time>
      </trkpt>
      <trkpt lat="43.62643" lon="6.8462">
        <ele>243</ele>
        <time>2017-10-14T06:25:14.000Z</time>
      </trkpt>
      <trkpt lat="43.62641" lon="6.8462">
        <ele>242</ele>
        <time>2017-10-14T06:25:15.000Z</time>
      </trkpt>
      <trkpt lat="43.62639" lon="6.84619">
        <ele>242</ele>
        <time>2017-10-14T06:25:16.000Z</time>
      </trkpt>
      <trkpt lat="43.62637" lon="6.84618">
        <ele>242</ele>
        <time>2017-10-14T06:25:17.000Z</time>
      </trkpt>
      <trkpt lat="43.62636" lon="6.84616">
        <ele>242</ele>
        <time>2017-10-14T06:25:18.000Z</time>
      </trkpt>
      <trkpt lat="43.62634" lon="6.84615">
        <ele>242</ele>
        <time>2017-10-14T06:25:19.000Z</time>
      </trkpt>
      <trkpt lat="43.62632" lon="6.84613">
        <ele>243</ele>
        <time>2017-10-14T06:25:20.000Z</time>
      </trkpt>
      <trkpt lat="43.6263" lon="6.84611">
        <ele>243</ele>
        <time>2017-10-14T06:25:21.000Z</time>
      </trkpt>
      <trkpt lat="43.62628" lon="6.84609">
        <ele>243</ele>
        <time>2017-10-14T06:25:22.000Z</time>
      </trkpt>
      <trkpt lat="43.62627" lon="6.84608">
        <ele>242</ele>
        <time>2017-10-14T06:25:23.000Z</time>
      </trkpt>
      <trkpt lat="43.62625" lon="6.84606">
        <ele>241</ele>
        <time>2017-10-14T06:25:24.000Z</time>
      </trkpt>
      <trkpt lat="43.62624" lon="6.84604">
        <ele>241</ele>
        <time>2017-10-14T06:25:25.000Z</time>
      </trkpt>
      <trkpt lat="43.62622" lon="6.84602">
        <ele>240</ele>
        <time>2017-10-14T06:25:26.000Z</time>
      </trkpt>
      <trkpt lat="43.6262" lon="6.846">
        <ele>240</ele>
        <time>2017-10-14T06:25:27.000Z</time>
      </trkpt>
      <trkpt lat="43.62619" lon="6.84598">
        <ele>240</ele>
        <time>2017-10-14T06:25:28.000Z</time>
      </trkpt>
      <trkpt lat="43.62617" lon="6.84597">
        <ele>240</ele>
        <time>2017-10-14T06:25:29.000Z</time>
      </trkpt>
      <trkpt lat="43.62616" lon="6.84595">
        <ele>241</ele>
        <time>2017-10-14T06:25:30.000Z</time>
      </trkpt>
      <trkpt lat="43.62614" lon="6.84594">
        <ele>241</ele>
        <time>2017-10-14T06:25:31.000Z</time>
      </trkpt>
      <trkpt lat="43.62613" lon="6.84592">
        <ele>240</ele>
        <time>2017-10-14T06:25:32.000Z</time>
      </trkpt>
      <trkpt lat="43.62611" lon="6.84591">
        <ele>240</ele>
        <time>2017-10-14T06:25:33.000Z</time>
      </trkpt>
      <trkpt lat="43.6261" lon="6.84589">
        <ele>240</ele>
        <time>2017-10-14T06:25:34.000Z</time>
      </trkpt>
      <trkpt lat="43.62608" lon="6.84587">
        <ele>241</ele>
        <time>2017-10-14T06:25:35.000Z</time>
      </trkpt>
      <trkpt lat="43.62606" lon="6.84586">
        <ele>241</ele>
        <time>2017-10-14T06:25:36.000Z</time>
      </trkpt>
      <trkpt lat="43.62605" lon="6.84584">
        <ele>241</ele>
        <time>2017-10-14T06:25:37.000Z</time>
      </trkpt>
      <trkpt lat="43.62603" lon="6.84583">
        <ele>242</ele>
        <time>2017-10-14T06:25:38.000Z</time>
      </trkpt>
      <trkpt lat="43.62601" lon="6.84581">
        <ele>241</ele>
        <time>2017-10-14T06:25:39.000Z</time>
      </trkpt>
      <trkpt lat="43.62599" lon="6.84579">
        <ele>242</ele>
        <time>2017-10-14T06:25:40.000Z</time>
      </trkpt>
      <trkpt lat="43.62598" lon="6.84577">
        <ele>241</ele>
        <time>2017-10-14T06:25:41.000Z</time>
      </trkpt>
      <trkpt lat="43.62596" lon="6.84575">
        <ele>241</ele>
        <time>2017-10-14T06:25:42.000Z</time>
      </trkpt>
      <trkpt lat="43.62594" lon="6.84573">
        <ele>241</ele>
        <time>2017-10-14T06:25:43.000Z</time>
      </trkpt>
      <trkpt lat="43.62593" lon="6.84571">
        <ele>239</ele>
        <time>2017-10-14T06:25:44.000Z</time>
      </trkpt>
      <trkpt lat="43.62592" lon="6.84568">
        <ele>239</ele>
        <time>2017-10-14T06:25:45.000Z</time>
      </trkpt>
      <trkpt lat="43.62591" lon="6.84565">
        <ele>239</ele>
        <time>2017-10-14T06:25:46.000Z</time>
      </trkpt>
      <trkpt lat="43.62589" lon="6.84563">
        <ele>238</ele>
        <time>2017-10-14T06:25:47.000Z</time>
      </trkpt>
      <trkpt lat="43.62588" lon="6.84561">
        <ele>238</ele>
        <time>2017-10-14T06:25:48.000Z</time>
      </trkpt>
      <trkpt lat="43.62587" lon="6.84559">
        <ele>238</ele>
        <time>2017-10-14T06:25:49.000Z</time>
      </trkpt>
      <trkpt lat="43.62586" lon="6.84557">
        <ele>238</ele>
        <time>2017-10-14T06:25:50.000Z</time>
      </trkpt>
      <trkpt lat="43.62585" lon="6.84554">
        <ele>238</ele>
        <time>2017-10-14T06:25:51.000Z</time>
      </trkpt>
      <trkpt lat="43.62584" lon="6.84552">
        <ele>238</ele>
        <time>2017-10-14T06:25:52.000Z</time>
      </trkpt>
      <trkpt lat="43.62583" lon="6.8455">
        <ele>238</ele>
        <time>2017-10-14T06:25:53.000Z</time>
      </trkpt>
      <trkpt lat="43.62582" lon="6.84547">
        <ele>238</ele>
        <time>2017-10-14T06:25:54.000Z</time>
      </trkpt>
      <trkpt lat="43.62581" lon="6.84545">
        <ele>238</ele>
        <time>2017-10-14T06:25:55.000Z</time>
      </trkpt>
      <trkpt lat="43.6258" lon="6.84543">
        <ele>237</ele>
        <time>2017-10-14T06:25:56.000Z</time>
      </trkpt>
      <trkpt lat="43.62579" lon="6.8454">
        <ele>236</ele>
        <time>2017-10-14T06:25:57.000Z</time>
      </trkpt>
      <trkpt lat="43.62577" lon="6.84538">
        <ele>237</ele>
        <time>2017-10-14T06:25:58.000Z</time>
      </trkpt>
      <trkpt lat="43.62577" lon="6.84536">
        <ele>236</ele>
        <time>2017-10-14T06:25:59.000Z</time>
      </trkpt>
      <trkpt lat="43.62576" lon="6.84534">
        <ele>236</ele>
        <time>2017-10-14T06:26:00.000Z</time>
      </trkpt>
      <trkpt lat="43.62575" lon="6.84531">
        <ele>236</ele>
        <time>2017-10-14T06:26:01.000Z</time>
      </trkpt>
      <trkpt lat="43.62573" lon="6.84529">
        <ele>236</ele>
        <time>2017-10-14T06:26:02.000Z</time>
      </trkpt>
      <trkpt lat="43.62572" lon="6.84527">
        <ele>237</ele>
        <time>2017-10-14T06:26:03.000Z</time>
      </trkpt>
      <trkpt lat="43.6257" lon="6.84524">
        <ele>237</ele>
        <time>2017-10-14T06:26:04.000Z</time>
      </trkpt>
      <trkpt lat="43.62568" lon="6.84522">
        <ele>237</ele>
        <time>2017-10-14T06:26:05.000Z</time>
      </trkpt>
      <trkpt lat="43.62567" lon="6.84519">
        <ele>236</ele>
        <time>2017-10-14T06:26:06.000Z</time>
      </trkpt>
      <trkpt lat="43.62566" lon="6.84517">
        <ele>237</ele>
        <time>2017-10-14T06:26:07.000Z</time>
      </trkpt>
      <trkpt lat="43.62565" lon="6.84514">
        <ele>237</ele>
        <time>2017-10-14T06:26:08.000Z</time>
      </trkpt>
      <trkpt lat="43.62563" lon="6.84511">
        <ele>237</ele>
        <time>2017-10-14T06:26:09.000Z</time>
      </trkpt>
      <trkpt lat="43.62562" lon="6.84509">
        <ele>237</ele>
        <time>2017-10-14T06:26:10.000Z</time>
      </trkpt>
      <trkpt lat="43.6256" lon="6.84507">
        <ele>237</ele>
        <time>2017-10-14T06:26:11.000Z</time>
      </trkpt>
      <trkpt lat="43.62559" lon="6.84505">
        <ele>238</ele>
        <time>2017-10-14T06:26:12.000Z</time>
      </trkpt>
      <trkpt lat="43.62558" lon="6.84502">
        <ele>238</ele>
        <time>2017-10-14T06:26:13.000Z</time>
      </trkpt>
      <trkpt lat="43.62557" lon="6.845">
        <ele>238</ele>
        <time>2017-10-14T06:26:14.000Z</time>
      </trkpt>
      <trkpt lat="43.62557" lon="6.84497">
        <ele>238</ele>
        <time>2017-10-14T06:26:15.000Z</time>
      </trkpt>
      <trkpt lat="43.62556" lon="6.84494">
        <ele>238</ele>
        <time>2017-10-14T06:26:16.000Z</time>
      </trkpt>
      <trkpt lat="43.62556" lon="6.84492">
        <ele>238</ele>
        <time>2017-10-14T06:26:17.000Z</time>
      </trkpt>
      <trkpt lat="43.62555" lon="6.8449">
        <ele>238</ele>
        <time>2017-10-14T06:26:18.000Z</time>
      </trkpt>
      <trkpt lat="43.62555" lon="6.84487">
        <ele>239</ele>
        <time>2017-10-14T06:26:19.000Z</time>
      </trkpt>
      <trkpt lat="43.62554" lon="6.84485">
        <ele>239</ele>
        <time>2017-10-14T06:26:20.000Z</time>
      </trkpt>
      <trkpt lat="43.62553" lon="6.84482">
        <ele>240</ele>
        <time>2017-10-14T06:26:21.000Z</time>
      </trkpt>
      <trkpt lat="43.62553" lon="6.8448">
        <ele>241</ele>
        <time>2017-10-14T06:26:22.000Z</time>
      </trkpt>
      <trkpt lat="43.62552" lon="6.84477">
        <ele>240</ele>
        <time>2017-10-14T06:26:23.000Z</time>
      </trkpt>
      <trkpt lat="43.62551" lon="6.84474">
        <ele>241</ele>
        <time>2017-10-14T06:26:24.000Z</time>
      </trkpt>
      <trkpt lat="43.62551" lon="6.84471">
        <ele>241</ele>
        <time>2017-10-14T06:26:25.000Z</time>
      </trkpt>
      <trkpt lat="43.6255" lon="6.84468">
        <ele>240</ele>
        <time>2017-10-14T06:26:26.000Z</time>
      </trkpt>
      <trkpt lat="43.6255" lon="6.84464">
        <ele>239</ele>
        <time>2017-10-14T06:26:27.000Z</time>
      </trkpt>
      <trkpt lat="43.62549" lon="6.84461">
        <ele>238</ele>
        <time>2017-10-14T06:26:28.000Z</time>
      </trkpt>
      <trkpt lat="43.62549" lon="6.84458">
        <ele>239</ele>
        <time>2017-10-14T06:26:29.000Z</time>
      </trkpt>
      <trkpt lat="43.62548" lon="6.84455">
        <ele>239</ele>
        <time>2017-10-14T06:26:30.000Z</time>
      </trkpt>
      <trkpt lat="43.62547" lon="6.84452">
        <ele>239</ele>
        <time>2017-10-14T06:26:31.000Z</time>
      </trkpt>
      <trkpt lat="43.62547" lon="6.84449">
        <ele>239</ele>
        <time>2017-10-14T06:26:32.000Z</time>
      </trkpt>
      <trkpt lat="43.62546" lon="6.84446">
        <ele>238</ele>
        <time>2017-10-14T06:26:33.000Z</time>
      </trkpt>
      <trkpt lat="43.62545" lon="6.84443">
        <ele>238</ele>
        <time>2017-10-14T06:26:34.000Z</time>
      </trkpt>
      <trkpt lat="43.62544" lon="6.84441">
        <ele>237</ele>
        <time>2017-10-14T06:26:35.000Z</time>
      </trkpt>
      <trkpt lat="43.62543" lon="6.84439">
        <ele>237</ele>
        <time>2017-10-14T06:26:36.000Z</time>
      </trkpt>
      <trkpt lat="43.62542" lon="6.84437">
        <ele>237</ele>
        <time>2017-10-14T06:26:37.000Z</time>
      </trkpt>
      <trkpt lat="43.62541" lon="6.84434">
        <ele>236</ele>
        <time>2017-10-14T06:26:38.000Z</time>
      </trkpt>
      <trkpt lat="43.62539" lon="6.84432">
        <ele>236</ele>
        <time>2017-10-14T06:26:39.000Z</time>
      </trkpt>
      <trkpt lat="43.62538" lon="6.84431">
        <ele>236</ele>
        <time>2017-10-14T06:26:40.000Z</time>
      </trkpt>
      <trkpt lat="43.62536" lon="6.84429">
        <ele>236</ele>
        <time>2017-10-14T06:26:41.000Z</time>
      </trkpt>
      <trkpt lat="43.62535" lon="6.84428">
        <ele>235</ele>
        <time>2017-10-14T06:26:42.000Z</time>
      </trkpt>
      <trkpt lat="43.62533" lon="6.84427">
        <ele>235</ele>
        <time>2017-10-14T06:26:43.000Z</time>
      </trkpt>
      <trkpt lat="43.62531" lon="6.84425">
        <ele>234</ele>
        <time>2017-10-14T06:26:44.000Z</time>
      </trkpt>
      <trkpt lat="43.62529" lon="6.84425">
        <ele>234</ele>
        <time>2017-10-14T06:26:45.000Z</time>
      </trkpt>
      <trkpt lat="43.62527" lon="6.84424">
        <ele>234</ele>
        <time>2017-10-14T06:26:46.000Z</time>
      </trkpt>
      <trkpt lat="43.62525" lon="6.84423">
        <ele>233</ele>
        <time>2017-10-14T06:26:47.000Z</time>
      </trkpt>
      <trkpt lat="43.62523" lon="6.84423">
        <ele>233</ele>
        <time>2017-10-14T06:26:48.000Z</time>
      </trkpt>
      <trkpt lat="43.62521" lon="6.84422">
        <ele>233</ele>
        <time>2017-10-14T06:26:49.000Z</time>
      </trkpt>
      <trkpt lat="43.62519" lon="6.84422">
        <ele>233</ele>
        <time>2017-10-14T06:26:50.000Z</time>
      </trkpt>
      <trkpt lat="43.62517" lon="6.84421">
        <ele>233</ele>
        <time>2017-10-14T06:26:51.000Z</time>
      </trkpt>
      <trkpt lat="43.62515" lon="6.8442">
        <ele>234</ele>
        <time>2017-10-14T06:26:52.000Z</time>
      </trkpt>
      <trkpt lat="43.62513" lon="6.84418">
        <ele>234</ele>
        <time>2017-10-14T06:26:53.000Z</time>
      </trkpt>
      <trkpt lat="43.62511" lon="6.84417">
        <ele>234</ele>
        <time>2017-10-14T06:26:54.000Z</time>
      </trkpt>
      <trkpt lat="43.62509" lon="6.84415">
        <ele>233</ele>
        <time>2017-10-14T06:26:55.000Z</time>
      </trkpt>
      <trkpt lat="43.62508" lon="6.84413">
        <ele>232</ele>
        <time>2017-10-14T06:26:56.000Z</time>
      </trkpt>
      <trkpt lat="43.62507" lon="6.84411">
        <ele>233</ele>
        <time>2017-10-14T06:26:57.000Z</time>
      </trkpt>
      <trkpt lat="43.62506" lon="6.84408">
        <ele>234</ele>
        <time>2017-10-14T06:26:58.000Z</time>
      </trkpt>
      <trkpt lat="43.62506" lon="6.84406">
        <ele>234</ele>
        <time>2017-10-14T06:26:59.000Z</time>
      </trkpt>
      <trkpt lat="43.62505" lon="6.84404">
        <ele>234</ele>
        <time>2017-10-14T06:27:00.000Z</time>
      </trkpt>
      <trkpt lat="43.62504" lon="6.84402">
        <ele>234</ele>
        <time>2017-10-14T06:27:01.000Z</time>
      </trkpt>
      <trkpt lat="43.62503" lon="6.84399">
        <ele>234</ele>
        <time>2017-10-14T06:27:02.000Z</time>
      </trkpt>
      <trkpt lat="43.62503" lon="6.84396">
        <ele>235</ele>
        <time>2017-10-14T06:27:03.000Z</time>
      </trkpt>
      <trkpt lat="43.62503" lon="6.84393">
        <ele>235</ele>
        <time>2017-10-14T06:27:04.000Z</time>
      </trkpt>
      <trkpt lat="43.62502" lon="6.8439">
        <ele>235</ele>
        <time>2017-10-14T06:27:05.000Z</time>
      </trkpt>
      <trkpt lat="43.62501" lon="6.84387">
        <ele>235</ele>
        <time>2017-10-14T06:27:06.000Z</time>
      </trkpt>
      <trkpt lat="43.62501" lon="6.84384">
        <ele>234</ele>
        <time>2017-10-14T06:27:07.000Z</time>
      </trkpt>
      <trkpt lat="43.625" lon="6.8438">
        <ele>234</ele>
        <time>2017-10-14T06:27:08.000Z</time>
      </trkpt>
      <trkpt lat="43.625" lon="6.84378">
        <ele>234</ele>
        <time>2017-10-14T06:27:09.000Z</time>
      </trkpt>
      <trkpt lat="43.62499" lon="6.84375">
        <ele>234</ele>
        <time>2017-10-14T06:27:10.000Z</time>
      </trkpt>
      <trkpt lat="43.62499" lon="6.84373">
        <ele>233</ele>
        <time>2017-10-14T06:27:11.000Z</time>
      </trkpt>
      <trkpt lat="43.62498" lon="6.8437">
        <ele>233</ele>
        <time>2017-10-14T06:27:12.000Z</time>
      </trkpt>
      <trkpt lat="43.62498" lon="6.84367">
        <ele>233</ele>
        <time>2017-10-14T06:27:13.000Z</time>
      </trkpt>
      <trkpt lat="43.62498" lon="6.84365">
        <ele>232</ele>
        <time>2017-10-14T06:27:14.000Z</time>
      </trkpt>
      <trkpt lat="43.62498" lon="6.84362">
        <ele>231</ele>
        <time>2017-10-14T06:27:15.000Z</time>
      </trkpt>
      <trkpt lat="43.62497" lon="6.8436">
        <ele>231</ele>
        <time>2017-10-14T06:27:16.000Z</time>
      </trkpt>
      <trkpt lat="43.62497" lon="6.84357">
        <ele>231</ele>
        <time>2017-10-14T06:27:17.000Z</time>
      </trkpt>
      <trkpt lat="43.62497" lon="6.84355">
        <ele>230</ele>
        <time>2017-10-14T06:27:18.000Z</time>
      </trkpt>
      <trkpt lat="43.62497" lon="6.84352">
        <ele>230</ele>
        <time>2017-10-14T06:27:19.000Z</time>
      </trkpt>
      <trkpt lat="43.62497" lon="6.8435">
        <ele>230</ele>
        <time>2017-10-14T06:27:20.000Z</time>
      </trkpt>
      <trkpt lat="43.62497" lon="6.84347">
        <ele>229</ele>
        <time>2017-10-14T06:27:21.000Z</time>
      </trkpt>
      <trkpt lat="43.62497" lon="6.84344">
        <ele>228</ele>
        <time>2017-10-14T06:27:22.000Z</time>
      </trkpt>
      <trkpt lat="43.62496" lon="6.84342">
        <ele>228</ele>
        <time>2017-10-14T06:27:23.000Z</time>
      </trkpt>
      <trkpt lat="43.62496" lon="6.84339">
        <ele>228</ele>
        <time>2017-10-14T06:27:24.000Z</time>
      </trkpt>
      <trkpt lat="43.62495" lon="6.84337">
        <ele>227</ele>
        <time>2017-10-14T06:27:25.000Z</time>
      </trkpt>
      <trkpt lat="43.62495" lon="6.84334">
        <ele>227</ele>
        <time>2017-10-14T06:27:26.000Z</time>
      </trkpt>
      <trkpt lat="43.62494" lon="6.84332">
        <ele>227</ele>
        <time>2017-10-14T06:27:27.000Z</time>
      </trkpt>
      <trkpt lat="43.62493" lon="6.84329">
        <ele>227</ele>
        <time>2017-10-14T06:27:28.000Z</time>
      </trkpt>
      <trkpt lat="43.62493" lon="6.84327">
        <ele>226</ele>
        <time>2017-10-14T06:27:29.000Z</time>
      </trkpt>
      <trkpt lat="43.62492" lon="6.84324">
        <ele>225</ele>
        <time>2017-10-14T06:27:30.000Z</time>
      </trkpt>
      <trkpt lat="43.62491" lon="6.84321">
        <ele>225</ele>
        <time>2017-10-14T06:27:31.000Z</time>
      </trkpt>
      <trkpt lat="43.6249" lon="6.84319">
        <ele>225</ele>
        <time>2017-10-14T06:27:32.000Z</time>
      </trkpt>
      <trkpt lat="43.6249" lon="6.84316">
        <ele>224</ele>
        <time>2017-10-14T06:27:33.000Z</time>
      </trkpt>
      <trkpt lat="43.62489" lon="6.84314">
        <ele>224</ele>
        <time>2017-10-14T06:27:34.000Z</time>
      </trkpt>
      <trkpt lat="43.62489" lon="6.84311">
        <ele>223</ele>
        <time>2017-10-14T06:27:35.000Z</time>
      </trkpt>
      <trkpt lat="43.62488" lon="6.84309">
        <ele>223</ele>
        <time>2017-10-14T06:27:36.000Z</time>
      </trkpt>
      <trkpt lat="43.62487" lon="6.84306">
        <ele>221</ele>
        <time>2017-10-14T06:27:37.000Z</time>
      </trkpt>
      <trkpt lat="43.62487" lon="6.84304">
        <ele>220</ele>
        <time>2017-10-14T06:27:38.000Z</time>
      </trkpt>
      <trkpt lat="43.62486" lon="6.84301">
        <ele>220</ele>
        <time>2017-10-14T06:27:39.000Z</time>
      </trkpt>
      <trkpt lat="43.62485" lon="6.84298">
        <ele>219</ele>
        <time>2017-10-14T06:27:40.000Z</time>
      </trkpt>
      <trkpt lat="43.62484" lon="6.84296">
        <ele>219</ele>
        <time>2017-10-14T06:27:41.000Z</time>
      </trkpt>
      <trkpt lat="43.62483" lon="6.84293">
        <ele>219</ele>
        <time>2017-10-14T06:27:42.000Z</time>
      </trkpt>
      <trkpt lat="43.62483" lon="6.8429">
        <ele>218</ele>
        <time>2017-10-14T06:27:43.000Z</time>
      </trkpt>
      <trkpt lat="43.62482" lon="6.84288">
        <ele>217</ele>
        <time>2017-10-14T06:27:44.000Z</time>
      </trkpt>
      <trkpt lat="43.62481" lon="6.84285">
        <ele>217</ele>
        <time>2017-10-14T06:27:45.000Z</time>
      </trkpt>
      <trkpt lat="43.6248" lon="6.84282">
        <ele>216</ele>
        <time>2017-10-14T06:27:46.000Z</time>
      </trkpt>
      <trkpt lat="43.6248" lon="6.84279">
        <ele>216</ele>
        <time>2017-10-14T06:27:47.000Z</time>
      </trkpt>
      <trkpt lat="43.62481" lon="6.84277">
        <ele>215</ele>
        <time>2017-10-14T06:27:48.000Z</time>
      </trkpt>
      <trkpt lat="43.6248" lon="6.84274">
        <ele>214</ele>
        <time>2017-10-14T06:27:49.000Z</time>
      </trkpt>
      <trkpt lat="43.62481" lon="6.84272">
        <ele>213</ele>
        <time>2017-10-14T06:27:50.000Z</time>
      </trkpt>
      <trkpt lat="43.6248" lon="6.84269">
        <ele>212</ele>
        <time>2017-10-14T06:27:51.000Z</time>
      </trkpt>
      <trkpt lat="43.62481" lon="6.84267">
        <ele>211</ele>
        <time>2017-10-14T06:27:52.000Z</time>
      </trkpt>
      <trkpt lat="43.6248" lon="6.84264">
        <ele>211</ele>
        <time>2017-10-14T06:27:53.000Z</time>
      </trkpt>
      <trkpt lat="43.6248" lon="6.84261">
        <ele>211</ele>
        <time>2017-10-14T06:27:54.000Z</time>
      </trkpt>
      <trkpt lat="43.6248" lon="6.84258">
        <ele>211</ele>
        <time>2017-10-14T06:27:55.000Z</time>
      </trkpt>
      <trkpt lat="43.6248" lon="6.84255">
        <ele>211</ele>
        <time>2017-10-14T06:27:56.000Z</time>
      </trkpt>
      <trkpt lat="43.6248" lon="6.84252">
        <ele>211</ele>
        <time>2017-10-14T06:27:57.000Z</time>
      </trkpt>
      <trkpt lat="43.6248" lon="6.84248">
        <ele>211</ele>
        <time>2017-10-14T06:27:58.000Z</time>
      </trkpt>
      <trkpt lat="43.62479" lon="6.84245">
        <ele>211</ele>
        <time>2017-10-14T06:27:59.000Z</time>
      </trkpt>
      <trkpt lat="43.62479" lon="6.84242">
        <ele>212</ele>
        <time>2017-10-14T06:28:00.000Z</time>
      </trkpt>
      <trkpt lat="43.62479" lon="6.84239">
        <ele>212</ele>
        <time>2017-10-14T06:28:01.000Z</time>
      </trkpt>
      <trkpt lat="43.62478" lon="6.84236">
        <ele>211</ele>
        <time>2017-10-14T06:28:02.000Z</time>
      </trkpt>
      <trkpt lat="43.62478" lon="6.84233">
        <ele>211</ele>
        <time>2017-10-14T06:28:03.000Z</time>
      </trkpt>
      <trkpt lat="43.62478" lon="6.8423">
        <ele>211</ele>
        <time>2017-10-14T06:28:04.000Z</time>
      </trkpt>
      <trkpt lat="43.62478" lon="6.84227">
        <ele>211</ele>
        <time>2017-10-14T06:28:05.000Z</time>
      </trkpt>
      <trkpt lat="43.62477" lon="6.84224">
        <ele>212</ele>
        <time>2017-10-14T06:28:06.000Z</time>
      </trkpt>
      <trkpt lat="43.62477" lon="6.84221">
        <ele>212</ele>
        <time>2017-10-14T06:28:07.000Z</time>
      </trkpt>
      <trkpt lat="43.62476" lon="6.84218">
        <ele>212</ele>
        <time>2017-10-14T06:28:08.000Z</time>
      </trkpt>
      <trkpt lat="43.62475" lon="6.84215">
        <ele>211</ele>
        <time>2017-10-14T06:28:09.000Z</time>
      </trkpt>
      <trkpt lat="43.62474" lon="6.84213">
        <ele>212</ele>
        <time>2017-10-14T06:28:10.000Z</time>
      </trkpt>
      <trkpt lat="43.62474" lon="6.8421">
        <ele>211</ele>
        <time>2017-10-14T06:28:11.000Z</time>
      </trkpt>
      <trkpt lat="43.62473" lon="6.84207">
        <ele>211</ele>
        <time>2017-10-14T06:28:12.000Z</time>
      </trkpt>
      <trkpt lat="43.62472" lon="6.84204">
        <ele>212</ele>
        <time>2017-10-14T06:28:13.000Z</time>
      </trkpt>
      <trkpt lat="43.6247" lon="6.84202">
        <ele>212</ele>
        <time>2017-10-14T06:28:14.000Z</time>
      </trkpt>
      <trkpt lat="43.62469" lon="6.84199">
        <ele>212</ele>
        <time>2017-10-14T06:28:15.000Z</time>
      </trkpt>
      <trkpt lat="43.62468" lon="6.84196">
        <ele>212</ele>
        <time>2017-10-14T06:28:16.000Z</time>
      </trkpt>
      <trkpt lat="43.62467" lon="6.84194">
        <ele>212</ele>
        <time>2017-10-14T06:28:17.000Z</time>
      </trkpt>
      <trkpt lat="43.62466" lon="6.84192">
        <ele>211</ele>
        <time>2017-10-14T06:28:18.000Z</time>
      </trkpt>
      <trkpt lat="43.62464" lon="6.8419">
        <ele>211</ele>
        <time>2017-10-14T06:28:19.000Z</time>
      </trkpt>
      <trkpt lat="43.62463" lon="6.84188">
        <ele>211</ele>
        <time>2017-10-14T06:28:20.000Z</time>
      </trkpt>
      <trkpt lat="43.62462" lon="6.84186">
        <ele>211</ele>
        <time>2017-10-14T06:28:21.000Z</time>
      </trkpt>
      <trkpt lat="43.62461" lon="6.84184">
        <ele>211</ele>
        <time>2017-10-14T06:28:22.000Z</time>
      </trkpt>
      <trkpt lat="43.62459" lon="6.84181">
        <ele>210</ele>
        <time>2017-10-14T06:28:23.000Z</time>
      </trkpt>
      <trkpt lat="43.62457" lon="6.84179">
        <ele>209</ele>
        <time>2017-10-14T06:28:24.000Z</time>
      </trkpt>
      <trkpt lat="43.62456" lon="6.84177">
        <ele>209</ele>
        <time>2017-10-14T06:28:25.000Z</time>
      </trkpt>
      <trkpt lat="43.62455" lon="6.84175">
        <ele>208</ele>
        <time>2017-10-14T06:28:26.000Z</time>
      </trkpt>
      <trkpt lat="43.62454" lon="6.84173">
        <ele>207</ele>
        <time>2017-10-14T06:28:27.000Z</time>
      </trkpt>
      <trkpt lat="43.62452" lon="6.84171">
        <ele>207</ele>
        <time>2017-10-14T06:28:28.000Z</time>
      </trkpt>
      <trkpt lat="43.62451" lon="6.84169">
        <ele>206</ele>
        <time>2017-10-14T06:28:29.000Z</time>
      </trkpt>
      <trkpt lat="43.6245" lon="6.84168">
        <ele>206</ele>
        <time>2017-10-14T06:28:30.000Z</time>
      </trkpt>
      <trkpt lat="43.62449" lon="6.84166">
        <ele>205</ele>
        <time>2017-10-14T06:28:31.000Z</time>
      </trkpt>
      <trkpt lat="43.62447" lon="6.84163">
        <ele>205</ele>
        <time>2017-10-14T06:28:32.000Z</time>
      </trkpt>
      <trkpt lat="43.62445" lon="6.84161">
        <ele>206</ele>
        <time>2017-10-14T06:28:33.000Z</time>
      </trkpt>
      <trkpt lat="43.62443" lon="6.84158">
        <ele>206</ele>
        <time>2017-10-14T06:28:34.000Z</time>
      </trkpt>
      <trkpt lat="43.62442" lon="6.84156">
        <ele>206</ele>
        <time>2017-10-14T06:28:35.000Z</time>
      </trkpt>
      <trkpt lat="43.6244" lon="6.84154">
        <ele>206</ele>
        <time>2017-10-14T06:28:36.000Z</time>
      </trkpt>
      <trkpt lat="43.62438" lon="6.84152">
        <ele>206</ele>
        <time>2017-10-14T06:28:37.000Z</time>
      </trkpt>
      <trkpt lat="43.62436" lon="6.84149">
        <ele>206</ele>
        <time>2017-10-14T06:28:38.000Z</time>
      </trkpt>
      <trkpt lat="43.62434" lon="6.84147">
        <ele>206</ele>
        <time>2017-10-14T06:28:39.000Z</time>
      </trkpt>
      <trkpt lat="43.62432" lon="6.84145">
        <ele>206</ele>
        <time>2017-10-14T06:28:40.000Z</time>
      </trkpt>
      <trkpt lat="43.62431" lon="6.84143">
        <ele>205</ele>
        <time>2017-10-14T06:28:41.000Z</time>
      </trkpt>
      <trkpt lat="43.62429" lon="6.84142">
        <ele>204</ele>
        <time>2017-10-14T06:28:42.000Z</time>
      </trkpt>
      <trkpt lat="43.62427" lon="6.8414">
        <ele>204</ele>
        <time>2017-10-14T06:28:43.000Z</time>
      </trkpt>
      <trkpt lat="43.62425" lon="6.84138">
        <ele>204</ele>
        <time>2017-10-14T06:28:44.000Z</time>
      </trkpt>
      <trkpt lat="43.62424" lon="6.84136">
        <ele>203</ele>
        <time>2017-10-14T06:28:45.000Z</time>
      </trkpt>
      <trkpt lat="43.62422" lon="6.84134">
        <ele>204</ele>
        <time>2017-10-14T06:28:46.000Z</time>
      </trkpt>
      <trkpt lat="43.62421" lon="6.84132">
        <ele>205</ele>
        <time>2017-10-14T06:28:47.000Z</time>
      </trkpt>
      <trkpt lat="43.62419" lon="6.84129">
        <ele>205</ele>
        <time>2017-10-14T06:28:48.000Z</time>
      </trkpt>
      <trkpt lat="43.62417" lon="6.84127">
        <ele>205</ele>
        <time>2017-10-14T06:28:49.000Z</time>
      </trkpt>
      <trkpt lat="43.62415" lon="6.84125">
        <ele>205</ele>
        <time>2017-10-14T06:28:50.000Z</time>
      </trkpt>
      <trkpt lat="43.62414" lon="6.84122">
        <ele>205</ele>
        <time>2017-10-14T06:28:51.000Z</time>
      </trkpt>
      <trkpt lat="43.62412" lon="6.8412">
        <ele>204</ele>
        <time>2017-10-14T06:28:52.000Z</time>
      </trkpt>
      <trkpt lat="43.62411" lon="6.84118">
        <ele>203</ele>
        <time>2017-10-14T06:28:53.000Z</time>
      </trkpt>
      <trkpt lat="43.6241" lon="6.84116">
        <ele>203</ele>
        <time>2017-10-14T06:28:54.000Z</time>
      </trkpt>
      <trkpt lat="43.62408" lon="6.84114">
        <ele>203</ele>
        <time>2017-10-14T06:28:55.000Z</time>
      </trkpt>
      <trkpt lat="43.62407" lon="6.84112">
        <ele>203</ele>
        <time>2017-10-14T06:28:56.000Z</time>
      </trkpt>
      <trkpt lat="43.62405" lon="6.8411">
        <ele>203</ele>
        <time>2017-10-14T06:28:57.000Z</time>
      </trkpt>
      <trkpt lat="43.62403" lon="6.84108">
        <ele>202</ele>
        <time>2017-10-14T06:28:58.000Z</time>
      </trkpt>
      <trkpt lat="43.62401" lon="6.84107">
        <ele>202</ele>
        <time>2017-10-14T06:28:59.000Z</time>
      </trkpt>
      <trkpt lat="43.62399" lon="6.84106">
        <ele>201</ele>
        <time>2017-10-14T06:29:00.000Z</time>
      </trkpt>
      <trkpt lat="43.62397" lon="6.84105">
        <ele>201</ele>
        <time>2017-10-14T06:29:01.000Z</time>
      </trkpt>
      <trkpt lat="43.62395" lon="6.84104">
        <ele>201</ele>
        <time>2017-10-14T06:29:02.000Z</time>
      </trkpt>
      <trkpt lat="43.62393" lon="6.84104">
        <ele>201</ele>
        <time>2017-10-14T06:29:03.000Z</time>
      </trkpt>
      <trkpt lat="43.62391" lon="6.84103">
        <ele>201</ele>
        <time>2017-10-14T06:29:04.000Z</time>
      </trkpt>
      <trkpt lat="43.62389" lon="6.84103">
        <ele>200</ele>
        <time>2017-10-14T06:29:05.000Z</time>
      </trkpt>
      <trkpt lat="43.62387" lon="6.84101">
        <ele>200</ele>
        <time>2017-10-14T06:29:06.000Z</time>
      </trkpt>
      <trkpt lat="43.62385" lon="6.841">
        <ele>200</ele>
        <time>2017-10-14T06:29:07.000Z</time>
      </trkpt>
      <trkpt lat="43.62384" lon="6.84098">
        <ele>199</ele>
        <time>2017-10-14T06:29:08.000Z</time>
      </trkpt>
      <trkpt lat="43.62383" lon="6.84095">
        <ele>198</ele>
        <time>2017-10-14T06:29:09.000Z</time>
      </trkpt>
      <trkpt lat="43.62382" lon="6.84092">
        <ele>197</ele>
        <time>2017-10-14T06:29:10.000Z</time>
      </trkpt>
      <trkpt lat="43.62382" lon="6.84089">
        <ele>197</ele>
        <time>2017-10-14T06:29:11.000Z</time>
      </trkpt>
      <trkpt lat="43.62382" lon="6.84086">
        <ele>196</ele>
        <time>2017-10-14T06:29:12.000Z</time>
      </trkpt>
      <trkpt lat="43.62381" lon="6.84083">
        <ele>196</ele>
        <time>2017-10-14T06:29:13.000Z</time>
      </trkpt>
      <trkpt lat="43.62382" lon="6.8408">
        <ele>196</ele>
        <time>2017-10-14T06:29:14.000Z</time>
      </trkpt>
      <trkpt lat="43.62382" lon="6.84077">
        <ele>195</ele>
        <time>2017-10-14T06:29:15.000Z</time>
      </trkpt>
      <trkpt lat="43.62382" lon="6.84074">
        <ele>195</ele>
        <time>2017-10-14T06:29:16.000Z</time>
      </trkpt>
      <trkpt lat="43.62383" lon="6.84071">
        <ele>195</ele>
        <time>2017-10-14T06:29:17.000Z</time>
      </trkpt>
      <trkpt lat="43.62384" lon="6.84068">
        <ele>194</ele>
        <time>2017-10-14T06:29:18.000Z</time>
      </trkpt>
      <trkpt lat="43.62385" lon="6.84066">
        <ele>195</ele>
        <time>2017-10-14T06:29:19.000Z</time>
      </trkpt>
      <trkpt lat="43.62386" lon="6.84063">
        <ele>194</ele>
        <time>2017-10-14T06:29:20.000Z</time>
      </trkpt>
      <trkpt lat="43.62387" lon="6.84061">
        <ele>194</ele>
        <time>2017-10-14T06:29:21.000Z</time>
      </trkpt>
      <trkpt lat="43.62388" lon="6.84059">
        <ele>193</ele>
        <time>2017-10-14T06:29:22.000Z</time>
      </trkpt>
      <trkpt lat="43.62389" lon="6.84057">
        <ele>193</ele>
        <time>2017-10-14T06:29:23.000Z</time>
      </trkpt>
      <trkpt lat="43.62391" lon="6.84055">
        <ele>193</ele>
        <time>2017-10-14T06:29:24.000Z</time>
      </trkpt>
      <trkpt lat="43.62392" lon="6.84053">
        <ele>192</ele>
        <time>2017-10-14T06:29:25.000Z</time>
      </trkpt>
      <trkpt lat="43.62394" lon="6.84051">
        <ele>191</ele>
        <time>2017-10-14T06:29:26.000Z</time>
      </trkpt>
      <trkpt lat="43.62396" lon="6.84049">
        <ele>191</ele>
        <time>2017-10-14T06:29:27.000Z</time>
      </trkpt>
      <trkpt lat="43.62397" lon="6.84047">
        <ele>190</ele>
        <time>2017-10-14T06:29:28.000Z</time>
      </trkpt>
      <trkpt lat="43.62399" lon="6.84045">
        <ele>190</ele>
        <time>2017-10-14T06:29:29.000Z</time>
      </trkpt>
      <trkpt lat="43.624" lon="6.84043">
        <ele>190</ele>
        <time>2017-10-14T06:29:30.000Z</time>
      </trkpt>
      <trkpt lat="43.62402" lon="6.8404">
        <ele>189</ele>
        <time>2017-10-14T06:29:31.000Z</time>
      </trkpt>
      <trkpt lat="43.62403" lon="6.84038">
        <ele>189</ele>
        <time>2017-10-14T06:29:32.000Z</time>
      </trkpt>
      <trkpt lat="43.62404" lon="6.84035">
        <ele>189</ele>
        <time>2017-10-14T06:29:33.000Z</time>
      </trkpt>
      <trkpt lat="43.62405" lon="6.84033">
        <ele>188</ele>
        <time>2017-10-14T06:29:34.000Z</time>
      </trkpt>
      <trkpt lat="43.62405" lon="6.8403">
        <ele>188</ele>
        <time>2017-10-14T06:29:35.000Z</time>
      </trkpt>
      <trkpt lat="43.62406" lon="6.84027">
        <ele>187</ele>
        <time>2017-10-14T06:29:36.000Z</time>
      </trkpt>
      <trkpt lat="43.62406" lon="6.84024">
        <ele>187</ele>
        <time>2017-10-14T06:29:37.000Z</time>
      </trkpt>
      <trkpt lat="43.62405" lon="6.8402">
        <ele>187</ele>
        <time>2017-10-14T06:29:38.000Z</time>
      </trkpt>
      <trkpt lat="43.62404" lon="6.84017">
        <ele>187</ele>
        <time>2017-10-14T06:29:39.000Z</time>
      </trkpt>
      <trkpt lat="43.62403" lon="6.84014">
        <ele>187</ele>
        <time>2017-10-14T06:29:40.000Z</time>
      </trkpt>
      <trkpt lat="43.62403" lon="6.84011">
        <ele>187</ele>
        <time>2017-10-14T06:29:41.000Z</time>
      </trkpt>
      <trkpt lat="43.62402" lon="6.84008">
        <ele>187</ele>
        <time>2017-10-14T06:29:42.000Z</time>
      </trkpt>
      <trkpt lat="43.62401" lon="6.84005">
        <ele>186</ele>
        <time>2017-10-14T06:29:43.000Z</time>
      </trkpt>
      <trkpt lat="43.62401" lon="6.84001">
        <ele>186</ele>
        <time>2017-10-14T06:29:44.000Z</time>
      </trkpt>
      <trkpt lat="43.624" lon="6.83998">
        <ele>186</ele>
        <time>2017-10-14T06:29:45.000Z</time>
      </trkpt>
      <trkpt lat="43.624" lon="6.83995">
        <ele>185</ele>
        <time>2017-10-14T06:29:46.000Z</time>
      </trkpt>
      <trkpt lat="43.62399" lon="6.83992">
        <ele>185</ele>
        <time>2017-10-14T06:29:47.000Z</time>
      </trkpt>
      <trkpt lat="43.62399" lon="6.83989">
        <ele>184</ele>
        <time>2017-10-14T06:29:48.000Z</time>
      </trkpt>
      <trkpt lat="43.62398" lon="6.83986">
        <ele>184</ele>
        <time>2017-10-14T06:29:49.000Z</time>
      </trkpt>
      <trkpt lat="43.62397" lon="6.83983">
        <ele>184</ele>
        <time>2017-10-14T06:29:50.000Z</time>
      </trkpt>
      <trkpt lat="43.62397" lon="6.8398">
        <ele>183</ele>
        <time>2017-10-14T06:29:51.000Z</time>
      </trkpt>
      <trkpt lat="43.62396" lon="6.83977">
        <ele>183</ele>
        <time>2017-10-14T06:29:52.000Z</time>
      </trkpt>
      <trkpt lat="43.62395" lon="6.83974">
        <ele>183</ele>
        <time>2017-10-14T06:29:53.000Z</time>
      </trkpt>
      <trkpt lat="43.62394" lon="6.83971">
        <ele>183</ele>
        <time>2017-10-14T06:29:54.000Z</time>
      </trkpt>
      <trkpt lat="43.62393" lon="6.83968">
        <ele>183</ele>
        <time>2017-10-14T06:29:55.000Z</time>
      </trkpt>
      <trkpt lat="43.62392" lon="6.83965">
        <ele>183</ele>
        <time>2017-10-14T06:29:56.000Z</time>
      </trkpt>
      <trkpt lat="43.62391" lon="6.83963">
        <ele>184</ele>
        <time>2017-10-14T06:29:57.000Z</time>
      </trkpt>
      <trkpt lat="43.6239" lon="6.8396">
        <ele>184</ele>
        <time>2017-10-14T06:29:58.000Z</time>
      </trkpt>
      <trkpt lat="43.62389" lon="6.83957">
        <ele>184</ele>
        <time>2017-10-14T06:29:59.000Z</time>
      </trkpt>
      <trkpt lat="43.62389" lon="6.83954">
        <ele>184</ele>
        <time>2017-10-14T06:30:00.000Z</time>
      </trkpt>
      <trkpt lat="43.62388" lon="6.83952">
        <ele>184</ele>
        <time>2017-10-14T06:30:01.000Z</time>
      </trkpt>
      <trkpt lat="43.62387" lon="6.83949">
        <ele>184</ele>
        <time>2017-10-14T06:30:02.000Z</time>
      </trkpt>
      <trkpt lat="43.62386" lon="6.83947">
        <ele>185</ele>
        <time>2017-10-14T06:30:03.000Z</time>
      </trkpt>
      <trkpt lat="43.62385" lon="6.83945">
        <ele>185</ele>
        <time>2017-10-14T06:30:04.000Z</time>
      </trkpt>
      <trkpt lat="43.62384" lon="6.83943">
        <ele>185</ele>
        <time>2017-10-14T06:30:05.000Z</time>
      </trkpt>
      <trkpt lat="43.62383" lon="6.8394">
        <ele>185</ele>
        <time>2017-10-14T06:30:06.000Z</time>
      </trkpt>
      <trkpt lat="43.62382" lon="6.83938">
        <ele>185</ele>
        <time>2017-10-14T06:30:07.000Z</time>
      </trkpt>
      <trkpt lat="43.62381" lon="6.83936">
        <ele>185</ele>
        <time>2017-10-14T06:30:08.000Z</time>
      </trkpt>
      <trkpt lat="43.6238" lon="6.83934">
        <ele>185</ele>
        <time>2017-10-14T06:30:09.000Z</time>
      </trkpt>
      <trkpt lat="43.62379" lon="6.83932">
        <ele>185</ele>
        <time>2017-10-14T06:30:10.000Z</time>
      </trkpt>
      <trkpt lat="43.62378" lon="6.83929">
        <ele>184</ele>
        <time>2017-10-14T06:30:11.000Z</time>
      </trkpt>
      <trkpt lat="43.62377" lon="6.83927">
        <ele>184</ele>
        <time>2017-10-14T06:30:12.000Z</time>
      </trkpt>
      <trkpt lat="43.62376" lon="6.83924">
        <ele>184</ele>
        <time>2017-10-14T06:30:13.000Z</time>
      </trkpt>
      <trkpt lat="43.62375" lon="6.83922">
        <ele>184</ele>
        <time>2017-10-14T06:30:14.000Z</time>
      </trkpt>
      <trkpt lat="43.62374" lon="6.83919">
        <ele>185</ele>
        <time>2017-10-14T06:30:15.000Z</time>
      </trkpt>
      <trkpt lat="43.62373" lon="6.83917">
        <ele>185</ele>
        <time>2017-10-14T06:30:16.000Z</time>
      </trkpt>
      <trkpt lat="43.62372" lon="6.83915">
        <ele>185</ele>
        <time>2017-10-14T06:30:17.000Z</time>
      </trkpt>
      <trkpt lat="43.62371" lon="6.83913">
        <ele>184</ele>
        <time>2017-10-14T06:30:18.000Z</time>
      </trkpt>
      <trkpt lat="43.6237" lon="6.83911">
        <ele>184</ele>
        <time>2017-10-14T06:30:19.000Z</time>
      </trkpt>
      <trkpt lat="43.62368" lon="6.83909">
        <ele>184</ele>
        <time>2017-10-14T06:30:20.000Z</time>
      </trkpt>
      <trkpt lat="43.62367" lon="6.83906">
        <ele>184</ele>
        <time>2017-10-14T06:30:21.000Z</time>
      </trkpt>
      <trkpt lat="43.62365" lon="6.83904">
        <ele>184</ele>
        <time>2017-10-14T06:30:22.000Z</time>
      </trkpt>
      <trkpt lat="43.62364" lon="6.83902">
        <ele>184</ele>
        <time>2017-10-14T06:30:23.000Z</time>
      </trkpt>
      <trkpt lat="43.62362" lon="6.839">
        <ele>184</ele>
        <time>2017-10-14T06:30:24.000Z</time>
      </trkpt>
      <trkpt lat="43.62361" lon="6.83897">
        <ele>183</ele>
        <time>2017-10-14T06:30:25.000Z</time>
      </trkpt>
      <trkpt lat="43.6236" lon="6.83895">
        <ele>183</ele>
        <time>2017-10-14T06:30:26.000Z</time>
      </trkpt>
      <trkpt lat="43.62359" lon="6.83893">
        <ele>183</ele>
        <time>2017-10-14T06:30:27.000Z</time>
      </trkpt>
      <trkpt lat="43.62358" lon="6.83891">
        <ele>182</ele>
        <time>2017-10-14T06:30:28.000Z</time>
      </trkpt>
      <trkpt lat="43.62357" lon="6.8389">
        <ele>181</ele>
        <time>2017-10-14T06:30:29.000Z</time>
      </trkpt>
      <trkpt lat="43.62357" lon="6.83888">
        <ele>181</ele>
        <time>2017-10-14T06:30:30.000Z</time>
      </trkpt>
      <trkpt lat="43.62356" lon="6.83886">
        <ele>181</ele>
        <time>2017-10-14T06:30:31.000Z</time>
      </trkpt>
      <trkpt lat="43.62355" lon="6.83884">
        <ele>181</ele>
        <time>2017-10-14T06:30:32.000Z</time>
      </trkpt>
      <trkpt lat="43.62354" lon="6.83882">
        <ele>180</ele>
        <time>2017-10-14T06:30:33.000Z</time>
      </trkpt>
      <trkpt lat="43.62353" lon="6.8388">
        <ele>180</ele>
        <time>2017-10-14T06:30:34.000Z</time>
      </trkpt>
      <trkpt lat="43.62353" lon="6.83878">
        <ele>179</ele>
        <time>2017-10-14T06:30:35.000Z</time>
      </trkpt>
      <trkpt lat="43.62352" lon="6.83876">
        <ele>180</ele>
        <time>2017-10-14T06:30:36.000Z</time>
      </trkpt>
      <trkpt lat="43.62352" lon="6.83874">
        <ele>179</ele>
        <time>2017-10-14T06:30:37.000Z</time>
      </trkpt>
      <trkpt lat="43.62351" lon="6.83872">
        <ele>179</ele>
        <time>2017-10-14T06:30:38.000Z</time>
      </trkpt>
      <trkpt lat="43.62351" lon="6.83871">
        <ele>178</ele>
        <time>2017-10-14T06:30:39.000Z</time>
      </trkpt>
      <trkpt lat="43.62351" lon="6.8387">
        <ele>178</ele>
        <time>2017-10-14T06:30:40.000Z</time>
      </trkpt>
      <trkpt lat="43.62351" lon="6.83868">
        <ele>177</ele>
        <time>2017-10-14T06:30:41.000Z</time>
      </trkpt>
      <trkpt lat="43.6235" lon="6.83867">
        <ele>177</ele>
        <time>2017-10-14T06:30:42.000Z</time>
      </trkpt>
      <trkpt lat="43.6235" lon="6.83865">
        <ele>176</ele>
        <time>2017-10-14T06:30:43.000Z</time>
      </trkpt>
      <trkpt lat="43.6235" lon="6.83864">
        <ele>176</ele>
        <time>2017-10-14T06:30:44.000Z</time>
      </trkpt>
      <trkpt lat="43.6235" lon="6.83862">
        <ele>176</ele>
        <time>2017-10-14T06:30:45.000Z</time>
      </trkpt>
      <trkpt lat="43.62349" lon="6.8386">
        <ele>175</ele>
        <time>2017-10-14T06:30:46.000Z</time>
      </trkpt>
      <trkpt lat="43.62349" lon="6.83858">
        <ele>175</ele>
        <time>2017-10-14T06:30:47.000Z</time>
      </trkpt>
      <trkpt lat="43.62348" lon="6.83856">
        <ele>175</ele>
        <time>2017-10-14T06:30:48.000Z</time>
      </trkpt>
      <trkpt lat="43.62347" lon="6.83854">
        <ele>175</ele>
        <time>2017-10-14T06:30:49.000Z</time>
      </trkpt>
      <trkpt lat="43.62347" lon="6.83852">
        <ele>175</ele>
        <time>2017-10-14T06:30:50.000Z</time>
      </trkpt>
      <trkpt lat="43.62346" lon="6.8385">
        <ele>174</ele>
        <time>2017-10-14T06:30:51.000Z</time>
      </trkpt>
      <trkpt lat="43.62345" lon="6.83849">
        <ele>174</ele>
        <time>2017-10-14T06:30:52.000Z</time>
      </trkpt>
      <trkpt lat="43.62344" lon="6.83847">
        <ele>174</ele>
        <time>2017-10-14T06:30:53.000Z</time>
      </trkpt>
      <trkpt lat="43.62343" lon="6.83845">
        <ele>173</ele>
        <time>2017-10-14T06:30:54.000Z</time>
      </trkpt>
      <trkpt lat="43.62343" lon="6.83844">
        <ele>173</ele>
        <time>2017-10-14T06:30:55.000Z</time>
      </trkpt>
      <trkpt lat="43.62342" lon="6.83842">
        <ele>172</ele>
        <time>2017-10-14T06:30:56.000Z</time>
      </trkpt>
      <trkpt lat="43.6234" lon="6.8384">
        <ele>172</ele>
        <time>2017-10-14T06:30:57.000Z</time>
      </trkpt>
      <trkpt lat="43.62339" lon="6.83838">
        <ele>172</ele>
        <time>2017-10-14T06:30:58.000Z</time>
      </trkpt>
      <trkpt lat="43.62338" lon="6.83836">
        <ele>171</ele>
        <time>2017-10-14T06:30:59.000Z</time>
      </trkpt>
      <trkpt lat="43.62337" lon="6.83833">
        <ele>170</ele>
        <time>2017-10-14T06:31:00.000Z</time>
      </trkpt>
      <trkpt lat="43.62335" lon="6.83831">
        <ele>170</ele>
        <time>2017-10-14T06:31:01.000Z</time>
      </trkpt>
      <trkpt lat="43.62333" lon="6.83829">
        <ele>169</ele>
        <time>2017-10-14T06:31:02.000Z</time>
      </trkpt>
      <trkpt lat="43.62332" lon="6.83827">
        <ele>169</ele>
        <time>2017-10-14T06:31:03.000Z</time>
      </trkpt>
      <trkpt lat="43.62331" lon="6.83825">
        <ele>169</ele>
        <time>2017-10-14T06:31:04.000Z</time>
      </trkpt>
      <trkpt lat="43.62329" lon="6.83822">
        <ele>169</ele>
        <time>2017-10-14T06:31:05.000Z</time>
      </trkpt>
      <trkpt lat="43.62328" lon="6.8382">
        <ele>168</ele>
        <time>2017-10-14T06:31:06.000Z</time>
      </trkpt>
      <trkpt lat="43.62327" lon="6.83818">
        <ele>168</ele>
        <time>2017-10-14T06:31:07.000Z</time>
      </trkpt>
      <trkpt lat="43.62326" lon="6.83816">
        <ele>167</ele>
        <time>2017-10-14T06:31:08.000Z</time>
      </trkpt>
      <trkpt lat="43.62325" lon="6.83815">
        <ele>167</ele>
        <time>2017-10-14T06:31:09.000Z</time>
      </trkpt>
      <trkpt lat="43.62325" lon="6.83813">
        <ele>167</ele>
        <time>2017-10-14T06:31:10.000Z</time>
      </trkpt>
      <trkpt lat="43.62324" lon="6.8381">
        <ele>166</ele>
        <time>2017-10-14T06:31:11.000Z</time>
      </trkpt>
      <trkpt lat="43.62323" lon="6.83808">
        <ele>167</ele>
        <time>2017-10-14T06:31:12.000Z</time>
      </trkpt>
      <trkpt lat="43.62322" lon="6.83805">
        <ele>166</ele>
        <time>2017-10-14T06:31:13.000Z</time>
      </trkpt>
      <trkpt lat="43.6232" lon="6.83803">
        <ele>166</ele>
        <time>2017-10-14T06:31:14.000Z</time>
      </trkpt>
      <trkpt lat="43.62319" lon="6.83801">
        <ele>166</ele>
        <time>2017-10-14T06:31:15.000Z</time>
      </trkpt>
      <trkpt lat="43.62317" lon="6.83799">
        <ele>166</ele>
        <time>2017-10-14T06:31:16.000Z</time>
      </trkpt>
      <trkpt lat="43.62316" lon="6.83797">
        <ele>166</ele>
        <time>2017-10-14T06:31:17.000Z</time>
      </trkpt>
      <trkpt lat="43.62314" lon="6.83795">
        <ele>166</ele>
        <time>2017-10-14T06:31:18.000Z</time>
      </trkpt>
      <trkpt lat="43.62313" lon="6.83793">
        <ele>166</ele>
        <time>2017-10-14T06:31:19.000Z</time>
      </trkpt>
      <trkpt lat="43.62311" lon="6.83791">
        <ele>166</ele>
        <time>2017-10-14T06:31:20.000Z</time>
      </trkpt>
      <trkpt lat="43.62309" lon="6.83789">
        <ele>165</ele>
        <time>2017-10-14T06:31:21.000Z</time>
      </trkpt>
      <trkpt lat="43.62307" lon="6.83787">
        <ele>165</ele>
        <time>2017-10-14T06:31:22.000Z</time>
      </trkpt>
      <trkpt lat="43.62305" lon="6.83785">
        <ele>165</ele>
        <time>2017-10-14T06:31:23.000Z</time>
      </trkpt>
      <trkpt lat="43.62304" lon="6.83783">
        <ele>165</ele>
        <time>2017-10-14T06:31:24.000Z</time>
      </trkpt>
      <trkpt lat="43.62302" lon="6.83782">
        <ele>164</ele>
        <time>2017-10-14T06:31:25.000Z</time>
      </trkpt>
      <trkpt lat="43.62301" lon="6.8378">
        <ele>164</ele>
        <time>2017-10-14T06:31:26.000Z</time>
      </trkpt>
      <trkpt lat="43.62299" lon="6.83778">
        <ele>163</ele>
        <time>2017-10-14T06:31:27.000Z</time>
      </trkpt>
      <trkpt lat="43.62298" lon="6.83776">
        <ele>163</ele>
        <time>2017-10-14T06:31:28.000Z</time>
      </trkpt>
      <trkpt lat="43.62296" lon="6.83775">
        <ele>163</ele>
        <time>2017-10-14T06:31:29.000Z</time>
      </trkpt>
      <trkpt lat="43.62295" lon="6.83773">
        <ele>163</ele>
        <time>2017-10-14T06:31:30.000Z</time>
      </trkpt>
      <trkpt lat="43.62293" lon="6.83771">
        <ele>162</ele>
        <time>2017-10-14T06:31:31.000Z</time>
      </trkpt>
      <trkpt lat="43.62292" lon="6.83769">
        <ele>162</ele>
        <time>2017-10-14T06:31:32.000Z</time>
      </trkpt>
      <trkpt lat="43.62291" lon="6.83767">
        <ele>163</ele>
        <time>2017-10-14T06:31:33.000Z</time>
      </trkpt>
      <trkpt lat="43.6229" lon="6.83765">
        <ele>162</ele>
        <time>2017-10-14T06:31:34.000Z</time>
      </trkpt>
      <trkpt lat="43.62289" lon="6.83763">
        <ele>162</ele>
        <time>2017-10-14T06:31:35.000Z</time>
      </trkpt>
      <trkpt lat="43.62288" lon="6.83761">
        <ele>161</ele>
        <time>2017-10-14T06:31:36.000Z</time>
      </trkpt>
      <trkpt lat="43.62288" lon="6.83758">
        <ele>160</ele>
        <time>2017-10-14T06:31:37.000Z</time>
      </trkpt>
      <trkpt lat="43.62287" lon="6.83756">
        <ele>160</ele>
        <time>2017-10-14T06:31:38.000Z</time>
      </trkpt>
      <trkpt lat="43.62286" lon="6.83754">
        <ele>159</ele>
        <time>2017-10-14T06:31:39.000Z</time>
      </trkpt>
      <trkpt lat="43.62286" lon="6.83753">
        <ele>159</ele>
        <time>2017-10-14T06:31:40.000Z</time>
      </trkpt>
      <trkpt lat="43.62285" lon="6.83751">
        <ele>159</ele>
        <time>2017-10-14T06:31:41.000Z</time>
      </trkpt>
      <trkpt lat="43.62284" lon="6.83749">
        <ele>160</ele>
        <time>2017-10-14T06:31:42.000Z</time>
      </trkpt>
      <trkpt lat="43.62283" lon="6.83746">
        <ele>160</ele>
        <time>2017-10-14T06:31:43.000Z</time>
      </trkpt>
      <trkpt lat="43.62282" lon="6.83744">
        <ele>160</ele>
        <time>2017-10-14T06:31:44.000Z</time>
      </trkpt>
      <trkpt lat="43.62281" lon="6.83742">
        <ele>159</ele>
        <time>2017-10-14T06:31:45.000Z</time>
      </trkpt>
      <trkpt lat="43.6228" lon="6.8374">
        <ele>159</ele>
        <time>2017-10-14T06:31:46.000Z</time>
      </trkpt>
      <trkpt lat="43.6228" lon="6.83738">
        <ele>159</ele>
        <time>2017-10-14T06:31:47.000Z</time>
      </trkpt>
      <trkpt lat="43.62278" lon="6.83736">
        <ele>159</ele>
        <time>2017-10-14T06:31:48.000Z</time>
      </trkpt>
      <trkpt lat="43.62277" lon="6.83734">
        <ele>158</ele>
        <time>2017-10-14T06:31:49.000Z</time>
      </trkpt>
      <trkpt lat="43.62276" lon="6.83732">
        <ele>158</ele>
        <time>2017-10-14T06:31:50.000Z</time>
      </trkpt>
      <trkpt lat="43.62274" lon="6.8373">
        <ele>158</ele>
        <time>2017-10-14T06:31:51.000Z</time>
      </trkpt>
      <trkpt lat="43.62273" lon="6.83728">
        <ele>157</ele>
        <time>2017-10-14T06:31:52.000Z</time>
      </trkpt>
      <trkpt lat="43.62272" lon="6.83726">
        <ele>156</ele>
        <time>2017-10-14T06:31:53.000Z</time>
      </trkpt>
      <trkpt lat="43.62271" lon="6.83724">
        <ele>156</ele>
        <time>2017-10-14T06:31:54.000Z</time>
      </trkpt>
      <trkpt lat="43.6227" lon="6.83723">
        <ele>156</ele>
        <time>2017-10-14T06:31:55.000Z</time>
      </trkpt>
      <trkpt lat="43.62268" lon="6.83721">
        <ele>156</ele>
        <time>2017-10-14T06:31:56.000Z</time>
      </trkpt>
      <trkpt lat="43.62267" lon="6.83719">
        <ele>156</ele>
        <time>2017-10-14T06:31:57.000Z</time>
      </trkpt>
      <trkpt lat="43.62265" lon="6.83717">
        <ele>155</ele>
        <time>2017-10-14T06:31:58.000Z</time>
      </trkpt>
      <trkpt lat="43.62263" lon="6.83716">
        <ele>154</ele>
        <time>2017-10-14T06:31:59.000Z</time>
      </trkpt>
      <trkpt lat="43.62262" lon="6.83714">
        <ele>154</ele>
        <time>2017-10-14T06:32:00.000Z</time>
      </trkpt>
      <trkpt lat="43.6226" lon="6.83712">
        <ele>153</ele>
        <time>2017-10-14T06:32:01.000Z</time>
      </trkpt>
      <trkpt lat="43.62258" lon="6.8371">
        <ele>152</ele>
        <time>2017-10-14T06:32:02.000Z</time>
      </trkpt>
      <trkpt lat="43.62257" lon="6.83708">
        <ele>151</ele>
        <time>2017-10-14T06:32:03.000Z</time>
      </trkpt>
      <trkpt lat="43.62256" lon="6.83706">
        <ele>151</ele>
        <time>2017-10-14T06:32:04.000Z</time>
      </trkpt>
      <trkpt lat="43.62255" lon="6.83704">
        <ele>150</ele>
        <time>2017-10-14T06:32:05.000Z</time>
      </trkpt>
      <trkpt lat="43.62254" lon="6.83703">
        <ele>150</ele>
        <time>2017-10-14T06:32:06.000Z</time>
      </trkpt>
      <trkpt lat="43.62253" lon="6.83701">
        <ele>150</ele>
        <time>2017-10-14T06:32:07.000Z</time>
      </trkpt>
      <trkpt lat="43.62252" lon="6.83699">
        <ele>151</ele>
        <time>2017-10-14T06:32:08.000Z</time>
      </trkpt>
      <trkpt lat="43.6225" lon="6.83697">
        <ele>151</ele>
        <time>2017-10-14T06:32:09.000Z</time>
      </trkpt>
      <trkpt lat="43.62249" lon="6.83694">
        <ele>151</ele>
        <time>2017-10-14T06:32:10.000Z</time>
      </trkpt>
      <trkpt lat="43.62247" lon="6.83692">
        <ele>152</ele>
        <time>2017-10-14T06:32:11.000Z</time>
      </trkpt>
      <trkpt lat="43.62246" lon="6.8369">
        <ele>152</ele>
        <time>2017-10-14T06:32:12.000Z</time>
      </trkpt>
      <trkpt lat="43.62245" lon="6.83688">
        <ele>151</ele>
        <time>2017-10-14T06:32:13.000Z</time>
      </trkpt>
      <trkpt lat="43.62243" lon="6.83686">
        <ele>151</ele>
        <time>2017-10-14T06:32:14.000Z</time>
      </trkpt>
      <trkpt lat="43.62242" lon="6.83684">
        <ele>151</ele>
        <time>2017-10-14T06:32:15.000Z</time>
      </trkpt>
      <trkpt lat="43.62241" lon="6.83681">
        <ele>150</ele>
        <time>2017-10-14T06:32:16.000Z</time>
      </trkpt>
      <trkpt lat="43.6224" lon="6.83679">
        <ele>149</ele>
        <time>2017-10-14T06:32:17.000Z</time>
      </trkpt>
      <trkpt lat="43.62238" lon="6.83676">
        <ele>148</ele>
        <time>2017-10-14T06:32:18.000Z</time>
      </trkpt>
      <trkpt lat="43.62237" lon="6.83674">
        <ele>148</ele>
        <time>2017-10-14T06:32:19.000Z</time>
      </trkpt>
      <trkpt lat="43.62236" lon="6.83671">
        <ele>148</ele>
        <time>2017-10-14T06:32:20.000Z</time>
      </trkpt>
      <trkpt lat="43.62234" lon="6.83668">
        <ele>148</ele>
        <time>2017-10-14T06:32:21.000Z</time>
      </trkpt>
      <trkpt lat="43.62233" lon="6.83666">
        <ele>148</ele>
        <time>2017-10-14T06:32:22.000Z</time>
      </trkpt>
      <trkpt lat="43.62231" lon="6.83663">
        <ele>148</ele>
        <time>2017-10-14T06:32:23.000Z</time>
      </trkpt>
      <trkpt lat="43.6223" lon="6.83661">
        <ele>148</ele>
        <time>2017-10-14T06:32:24.000Z</time>
      </trkpt>
      <trkpt lat="43.6223" lon="6.83659">
        <ele>148</ele>
        <time>2017-10-14T06:32:25.000Z</time>
      </trkpt>
      <trkpt lat="43.62229" lon="6.83657">
        <ele>148</ele>
        <time>2017-10-14T06:32:26.000Z</time>
      </trkpt>
      <trkpt lat="43.62228" lon="6.83654">
        <ele>148</ele>
        <time>2017-10-14T06:32:27.000Z</time>
      </trkpt>
      <trkpt lat="43.62227" lon="6.83652">
        <ele>148</ele>
        <time>2017-10-14T06:32:28.000Z</time>
      </trkpt>
      <trkpt lat="43.62225" lon="6.8365">
        <ele>148</ele>
        <time>2017-10-14T06:32:29.000Z</time>
      </trkpt>
      <trkpt lat="43.62224" lon="6.83648">
        <ele>147</ele>
        <time>2017-10-14T06:32:30.000Z</time>
      </trkpt>
      <trkpt lat="43.62224" lon="6.83646">
        <ele>147</ele>
        <time>2017-10-14T06:32:31.000Z</time>
      </trkpt>
      <trkpt lat="43.62223" lon="6.83644">
        <ele>146</ele>
        <time>2017-10-14T06:32:32.000Z</time>
      </trkpt>
      <trkpt lat="43.62222" lon="6.83642">
        <ele>146</ele>
        <time>2017-10-14T06:32:33.000Z</time>
      </trkpt>
      <trkpt lat="43.62221" lon="6.8364">
        <ele>146</ele>
        <time>2017-10-14T06:32:34.000Z</time>
      </trkpt>
      <trkpt lat="43.6222" lon="6.83638">
        <ele>146</ele>
        <time>2017-10-14T06:32:35.000Z</time>
      </trkpt>
      <trkpt lat="43.62219" lon="6.83636">
        <ele>145</ele>
        <time>2017-10-14T06:32:36.000Z</time>
      </trkpt>
      <trkpt lat="43.62218" lon="6.83635">
        <ele>145</ele>
        <time>2017-10-14T06:32:37.000Z</time>
      </trkpt>
      <trkpt lat="43.62218" lon="6.83633">
        <ele>145</ele>
        <time>2017-10-14T06:32:38.000Z</time>
      </trkpt>
      <trkpt lat="43.62217" lon="6.83631">
        <ele>144</ele>
        <time>2017-10-14T06:32:39.000Z</time>
      </trkpt>
      <trkpt lat="43.62216" lon="6.8363">
        <ele>144</ele>
        <time>2017-10-14T06:32:40.000Z</time>
      </trkpt>
      <trkpt lat="43.62216" lon="6.83628">
        <ele>143</ele>
        <time>2017-10-14T06:32:41.000Z</time>
      </trkpt>
      <trkpt lat="43.62214" lon="6.83627">
        <ele>143</ele>
        <time>2017-10-14T06:32:42.000Z</time>
      </trkpt>
      <trkpt lat="43.62213" lon="6.83625">
        <ele>142</ele>
        <time>2017-10-14T06:32:43.000Z</time>
      </trkpt>
      <trkpt lat="43.62212" lon="6.83624">
        <ele>142</ele>
        <time>2017-10-14T06:32:44.000Z</time>
      </trkpt>
      <trkpt lat="43.6221" lon="6.83622">
        <ele>141</ele>
        <time>2017-10-14T06:32:45.000Z</time>
      </trkpt>
      <trkpt lat="43.62209" lon="6.83621">
        <ele>142</ele>
        <time>2017-10-14T06:32:46.000Z</time>
      </trkpt>
      <trkpt lat="43.62207" lon="6.83619">
        <ele>141</ele>
        <time>2017-10-14T06:32:47.000Z</time>
      </trkpt>
      <trkpt lat="43.62206" lon="6.83617">
        <ele>141</ele>
        <time>2017-10-14T06:32:48.000Z</time>
      </trkpt>
      <trkpt lat="43.62205" lon="6.83615">
        <ele>140</ele>
        <time>2017-10-14T06:32:49.000Z</time>
      </trkpt>
      <trkpt lat="43.62203" lon="6.83614">
        <ele>140</ele>
        <time>2017-10-14T06:32:50.000Z</time>
      </trkpt>
      <trkpt lat="43.62202" lon="6.83613">
        <ele>140</ele>
        <time>2017-10-14T06:32:51.000Z</time>
      </trkpt>
      <trkpt lat="43.62201" lon="6.83612">
        <ele>139</ele>
        <time>2017-10-14T06:32:52.000Z</time>
      </trkpt>
      <trkpt lat="43.62199" lon="6.83611">
        <ele>139</ele>
        <time>2017-10-14T06:32:53.000Z</time>
      </trkpt>
      <trkpt lat="43.62197" lon="6.8361">
        <ele>139</ele>
        <time>2017-10-14T06:32:54.000Z</time>
      </trkpt>
      <trkpt lat="43.62196" lon="6.83608">
        <ele>138</ele>
        <time>2017-10-14T06:32:55.000Z</time>
      </trkpt>
      <trkpt lat="43.62194" lon="6.83607">
        <ele>138</ele>
        <time>2017-10-14T06:32:56.000Z</time>
      </trkpt>
      <trkpt lat="43.62193" lon="6.83606">
        <ele>138</ele>
        <time>2017-10-14T06:32:57.000Z</time>
      </trkpt>
      <trkpt lat="43.62191" lon="6.83605">
        <ele>138</ele>
        <time>2017-10-14T06:32:58.000Z</time>
      </trkpt>
      <trkpt lat="43.6219" lon="6.83604">
        <ele>137</ele>
        <time>2017-10-14T06:32:59.000Z</time>
      </trkpt>
      <trkpt lat="43.62188" lon="6.83603">
        <ele>138</ele>
        <time>2017-10-14T06:33:00.000Z</time>
      </trkpt>
      <trkpt lat="43.62187" lon="6.83602">
        <ele>137</ele>
        <time>2017-10-14T06:33:01.000Z</time>
      </trkpt>
      <trkpt lat="43.62185" lon="6.83601">
        <ele>138</ele>
        <time>2017-10-14T06:33:02.000Z</time>
      </trkpt>
      <trkpt lat="43.62183" lon="6.836">
        <ele>137</ele>
        <time>2017-10-14T06:33:03.000Z</time>
      </trkpt>
      <trkpt lat="43.62182" lon="6.83599">
        <ele>137</ele>
        <time>2017-10-14T06:33:04.000Z</time>
      </trkpt>
      <trkpt lat="43.62181" lon="6.83597">
        <ele>136</ele>
        <time>2017-10-14T06:33:05.000Z</time>
      </trkpt>
      <trkpt lat="43.6218" lon="6.83596">
        <ele>137</ele>
        <time>2017-10-14T06:33:06.000Z</time>
      </trkpt>
      <trkpt lat="43.62179" lon="6.83595">
        <ele>137</ele>
        <time>2017-10-14T06:33:07.000Z</time>
      </trkpt>
      <trkpt lat="43.62177" lon="6.83594">
        <ele>136</ele>
        <time>2017-10-14T06:33:08.000Z</time>
      </trkpt>
      <trkpt lat="43.62176" lon="6.83592">
        <ele>136</ele>
        <time>2017-10-14T06:33:09.000Z</time>
      </trkpt>
      <trkpt lat="43.62175" lon="6.83591">
        <ele>136</ele>
        <time>2017-10-14T06:33:10.000Z</time>
      </trkpt>
      <trkpt lat="43.62174" lon="6.8359">
        <ele>135</ele>
        <time>2017-10-14T06:33:11.000Z</time>
      </trkpt>
      <trkpt lat="43.62173" lon="6.83588">
        <ele>135</ele>
        <time>2017-10-14T06:33:12.000Z</time>
      </trkpt>
      <trkpt lat="43.62172" lon="6.83587">
        <ele>134</ele>
        <time>2017-10-14T06:33:13.000Z</time>
      </trkpt>
      <trkpt lat="43.62172" lon="6.83585">
        <ele>134</ele>
        <time>2017-10-14T06:33:14.000Z</time>
      </trkpt>
      <trkpt lat="43.62171" lon="6.83584">
        <ele>133</ele>
        <time>2017-10-14T06:33:15.000Z</time>
      </trkpt>
      <trkpt lat="43.6217" lon="6.83582">
        <ele>133</ele>
        <time>2017-10-14T06:33:16.000Z</time>
      </trkpt>
      <trkpt lat="43.6217" lon="6.83581">
        <ele>132</ele>
        <time>2017-10-14T06:33:17.000Z</time>
      </trkpt>
      <trkpt lat="43.62169" lon="6.83579">
        <ele>132</ele>
        <time>2017-10-14T06:33:18.000Z</time>
      </trkpt>
      <trkpt lat="43.62169" lon="6.83577">
        <ele>131</ele>
        <time>2017-10-14T06:33:19.000Z</time>
      </trkpt>
      <trkpt lat="43.62169" lon="6.83575">
        <ele>131</ele>
        <time>2017-10-14T06:33:20.000Z</time>
      </trkpt>
      <trkpt lat="43.62168" lon="6.83573">
        <ele>131</ele>
        <time>2017-10-14T06:33:21.000Z</time>
      </trkpt>
      <trkpt lat="43.62167" lon="6.83572">
        <ele>130</ele>
        <time>2017-10-14T06:33:22.000Z</time>
      </trkpt>
      <trkpt lat="43.62167" lon="6.8357">
        <ele>130</ele>
        <time>2017-10-14T06:33:23.000Z</time>
      </trkpt>
      <trkpt lat="43.62166" lon="6.83568">
        <ele>130</ele>
        <time>2017-10-14T06:33:24.000Z</time>
      </trkpt>
      <trkpt lat="43.62165" lon="6.83566">
        <ele>129</ele>
        <time>2017-10-14T06:33:25.000Z</time>
      </trkpt>
      <trkpt lat="43.62164" lon="6.83565">
        <ele>128</ele>
        <time>2017-10-14T06:33:26.000Z</time>
      </trkpt>
      <trkpt lat="43.62164" lon="6.83564">
        <ele>128</ele>
        <time>2017-10-14T06:33:27.000Z</time>
      </trkpt>
      <trkpt lat="43.62162" lon="6.83562">
        <ele>128</ele>
        <time>2017-10-14T06:33:28.000Z</time>
      </trkpt>
      <trkpt lat="43.62162" lon="6.83561">
        <ele>126</ele>
        <time>2017-10-14T06:33:29.000Z</time>
      </trkpt>
      <trkpt lat="43.62161" lon="6.8356">
        <ele>126</ele>
        <time>2017-10-14T06:33:30.000Z</time>
      </trkpt>
      <trkpt lat="43.6216" lon="6.83558">
        <ele>125</ele>
        <time>2017-10-14T06:33:31.000Z</time>
      </trkpt>
      <trkpt lat="43.62159" lon="6.83557">
        <ele>125</ele>
        <time>2017-10-14T06:33:32.000Z</time>
      </trkpt>
      <trkpt lat="43.62158" lon="6.83555">
        <ele>124</ele>
        <time>2017-10-14T06:33:33.000Z</time>
      </trkpt>
      <trkpt lat="43.62157" lon="6.83553">
        <ele>124</ele>
        <time>2017-10-14T06:33:34.000Z</time>
      </trkpt>
      <trkpt lat="43.62156" lon="6.83552">
        <ele>124</ele>
        <time>2017-10-14T06:33:35.000Z</time>
      </trkpt>
      <trkpt lat="43.62155" lon="6.8355">
        <ele>123</ele>
        <time>2017-10-14T06:33:36.000Z</time>
      </trkpt>
      <trkpt lat="43.62154" lon="6.83549">
        <ele>123</ele>
        <time>2017-10-14T06:33:37.000Z</time>
      </trkpt>
      <trkpt lat="43.62153" lon="6.83548">
        <ele>123</ele>
        <time>2017-10-14T06:33:38.000Z</time>
      </trkpt>
      <trkpt lat="43.62152" lon="6.83547">
        <ele>123</ele>
        <time>2017-10-14T06:33:39.000Z</time>
      </trkpt>
      <trkpt lat="43.62151" lon="6.83545">
        <ele>122</ele>
        <time>2017-10-14T06:33:40.000Z</time>
      </trkpt>
      <trkpt lat="43.6215" lon="6.83544">
        <ele>122</ele>
        <time>2017-10-14T06:33:41.000Z</time>
      </trkpt>
      <trkpt lat="43.62149" lon="6.83543">
        <ele>121</ele>
        <time>2017-10-14T06:33:42.000Z</time>
      </trkpt>
      <trkpt lat="43.62148" lon="6.83542">
        <ele>121</ele>
        <time>2017-10-14T06:33:43.000Z</time>
      </trkpt>
      <trkpt lat="43.62147" lon="6.83541">
        <ele>120</ele>
        <time>2017-10-14T06:33:44.000Z</time>
      </trkpt>
      <trkpt lat="43.62146" lon="6.8354">
        <ele>120</ele>
        <time>2017-10-14T06:33:45.000Z</time>
      </trkpt>
      <trkpt lat="43.62145" lon="6.83539">
        <ele>120</ele>
        <time>2017-10-14T06:33:46.000Z</time>
      </trkpt>
      <trkpt lat="43.62144" lon="6.83538">
        <ele>119</ele>
        <time>2017-10-14T06:33:47.000Z</time>
      </trkpt>
      <trkpt lat="43.62143" lon="6.83537">
        <ele>119</ele>
        <time>2017-10-14T06:33:48.000Z</time>
      </trkpt>
      <trkpt lat="43.62142" lon="6.83536">
        <ele>118</ele>
        <time>2017-10-14T06:33:49.000Z</time>
      </trkpt>
      <trkpt lat="43.62141" lon="6.83535">
        <ele>118</ele>
        <time>2017-10-14T06:33:50.000Z</time>
      </trkpt>
      <trkpt lat="43.6214" lon="6.83534">
        <ele>118</ele>
        <time>2017-10-14T06:33:51.000Z</time>
      </trkpt>
      <trkpt lat="43.62138" lon="6.83533">
        <ele>117</ele>
        <time>2017-10-14T06:33:52.000Z</time>
      </trkpt>
      <trkpt lat="43.62137" lon="6.83533">
        <ele>117</ele>
        <time>2017-10-14T06:33:53.000Z</time>
      </trkpt>
      <trkpt lat="43.62136" lon="6.83532">
        <ele>117</ele>
        <time>2017-10-14T06:33:54.000Z</time>
      </trkpt>
      <trkpt lat="43.62134" lon="6.83531">
        <ele>117</ele>
        <time>2017-10-14T06:33:55.000Z</time>
      </trkpt>
      <trkpt lat="43.62133" lon="6.83531">
        <ele>116</ele>
        <time>2017-10-14T06:33:56.000Z</time>
      </trkpt>
      <trkpt lat="43.62131" lon="6.83531">
        <ele>115</ele>
        <time>2017-10-14T06:33:57.000Z</time>
      </trkpt>
      <trkpt lat="43.6213" lon="6.8353">
        <ele>115</ele>
        <time>2017-10-14T06:33:58.000Z</time>
      </trkpt>
      <trkpt lat="43.62129" lon="6.8353">
        <ele>114</ele>
        <time>2017-10-14T06:33:59.000Z</time>
      </trkpt>
      <trkpt lat="43.62129" lon="6.83529">
        <ele>114</ele>
        <time>2017-10-14T06:34:00.000Z</time>
      </trkpt>
      <trkpt lat="43.62128" lon="6.83528">
        <ele>113</ele>
        <time>2017-10-14T06:34:01.000Z</time>
      </trkpt>
      <trkpt lat="43.62127" lon="6.83526">
        <ele>113</ele>
        <time>2017-10-14T06:34:02.000Z</time>
      </trkpt>
      <trkpt lat="43.62126" lon="6.83525">
        <ele>113</ele>
        <time>2017-10-14T06:34:03.000Z</time>
      </trkpt>
      <trkpt lat="43.62125" lon="6.83524">
        <ele>112</ele>
        <time>2017-10-14T06:34:04.000Z</time>
      </trkpt>
      <trkpt lat="43.62124" lon="6.83523">
        <ele>112</ele>
        <time>2017-10-14T06:34:05.000Z</time>
      </trkpt>
      <trkpt lat="43.62123" lon="6.83523">
        <ele>112</ele>
        <time>2017-10-14T06:34:06.000Z</time>
      </trkpt>
      <trkpt lat="43.62121" lon="6.83522">
        <ele>111</ele>
        <time>2017-10-14T06:34:07.000Z</time>
      </trkpt>
      <trkpt lat="43.6212" lon="6.83521">
        <ele>111</ele>
        <time>2017-10-14T06:34:08.000Z</time>
      </trkpt>
      <trkpt lat="43.62119" lon="6.83519">
        <ele>110</ele>
        <time>2017-10-14T06:34:09.000Z</time>
      </trkpt>
      <trkpt lat="43.62117" lon="6.83518">
        <ele>110</ele>
        <time>2017-10-14T06:34:10.000Z</time>
      </trkpt>
      <trkpt lat="43.62116" lon="6.83518">
        <ele>109</ele>
        <time>2017-10-14T06:34:11.000Z</time>
      </trkpt>
      <trkpt lat="43.62115" lon="6.83517">
        <ele>108</ele>
        <time>2017-10-14T06:34:12.000Z</time>
      </trkpt>
      <trkpt lat="43.62113" lon="6.83515">
        <ele>108</ele>
        <time>2017-10-14T06:34:13.000Z</time>
      </trkpt>
      <trkpt lat="43.62112" lon="6.83514">
        <ele>107</ele>
        <time>2017-10-14T06:34:14.000Z</time>
      </trkpt>
      <trkpt lat="43.62111" lon="6.83513">
        <ele>107</ele>
        <time>2017-10-14T06:34:15.000Z</time>
      </trkpt>
      <trkpt lat="43.62109" lon="6.83511">
        <ele>106</ele>
        <time>2017-10-14T06:34:16.000Z</time>
      </trkpt>
      <trkpt lat="43.62108" lon="6.8351">
        <ele>106</ele>
        <time>2017-10-14T06:34:17.000Z</time>
      </trkpt>
      <trkpt lat="43.62107" lon="6.83509">
        <ele>106</ele>
        <time>2017-10-14T06:34:18.000Z</time>
      </trkpt>
      <trkpt lat="43.62106" lon="6.83507">
        <ele>105</ele>
        <time>2017-10-14T06:34:19.000Z</time>
      </trkpt>
      <trkpt lat="43.62105" lon="6.83506">
        <ele>105</ele>
        <time>2017-10-14T06:34:20.000Z</time>
      </trkpt>
      <trkpt lat="43.62104" lon="6.83504">
        <ele>104</ele>
        <time>2017-10-14T06:34:21.000Z</time>
      </trkpt>
      <trkpt lat="43.62103" lon="6.83502">
        <ele>104</ele>
        <time>2017-10-14T06:34:22.000Z</time>
      </trkpt>
      <trkpt lat="43.62102" lon="6.83501">
        <ele>103</ele>
        <time>2017-10-14T06:34:23.000Z</time>
      </trkpt>
      <trkpt lat="43.62101" lon="6.83499">
        <ele>103</ele>
        <time>2017-10-14T06:34:24.000Z</time>
      </trkpt>
      <trkpt lat="43.621" lon="6.83498">
        <ele>103</ele>
        <time>2017-10-14T06:34:25.000Z</time>
      </trkpt>
      <trkpt lat="43.62098" lon="6.83497">
        <ele>102</ele>
        <time>2017-10-14T06:34:26.000Z</time>
      </trkpt>
      <trkpt lat="43.62096" lon="6.83497">
        <ele>102</ele>
        <time>2017-10-14T06:34:27.000Z</time>
      </trkpt>
      <trkpt lat="43.62095" lon="6.83496">
        <ele>101</ele>
        <time>2017-10-14T06:34:28.000Z</time>
      </trkpt>
      <trkpt lat="43.62094" lon="6.83495">
        <ele>100</ele>
        <time>2017-10-14T06:34:29.000Z</time>
      </trkpt>
      <trkpt lat="43.62093" lon="6.83493">
        <ele>99</ele>
        <time>2017-10-14T06:34:30.000Z</time>
      </trkpt>
      <trkpt lat="43.62092" lon="6.83492">
        <ele>99</ele>
        <time>2017-10-14T06:34:31.000Z</time>
      </trkpt>
      <trkpt lat="43.62091" lon="6.8349">
        <ele>98</ele>
        <time>2017-10-14T06:34:32.000Z</time>
      </trkpt>
      <trkpt lat="43.6209" lon="6.83489">
        <ele>98</ele>
        <time>2017-10-14T06:34:33.000Z</time>
      </trkpt>
      <trkpt lat="43.62089" lon="6.83488">
        <ele>97</ele>
        <time>2017-10-14T06:34:34.000Z</time>
      </trkpt>
      <trkpt lat="43.62088" lon="6.83487">
        <ele>98</ele>
        <time>2017-10-14T06:34:35.000Z</time>
      </trkpt>
      <trkpt lat="43.62087" lon="6.83486">
        <ele>98</ele>
        <time>2017-10-14T06:34:36.000Z</time>
      </trkpt>
      <trkpt lat="43.62087" lon="6.83486">
        <ele>98</ele>
        <time>2017-10-14T06:34:37.000Z</time>
      </trkpt>
      <trkpt lat="43.62086" lon="6.83485">
        <ele>98</ele>
        <time>2017-10-14T06:34:38.000Z</time>
      </trkpt>
      <trkpt lat="43.62085" lon="6.83484">
        <ele>98</ele>
        <time>2017-10-14T06:34:39.000Z</time>
      </trkpt>
      <trkpt lat="43.62084" lon="6.83482">
        <ele>97</ele>
        <time>2017-10-14T06:34:40.000Z</time>
      </trkpt>
      <trkpt lat="43.62083" lon="6.83481">
        <ele>97</ele>
        <time>2017-10-14T06:34:41.000Z</time>
      </trkpt>
      <trkpt lat="43.62082" lon="6.83479">
        <ele>96</ele>
        <time>2017-10-14T06:34:42.000Z</time>
      </trkpt>
      <trkpt lat="43.62081" lon="6.83477">
        <ele>96</ele>
        <time>2017-10-14T06:34:43.000Z</time>
      </trkpt>
      <trkpt lat="43.6208" lon="6.83475">
        <ele>96</ele>
        <time>2017-10-14T06:34:44.000Z</time>
      </trkpt>
      <trkpt lat="43.62079" lon="6.83474">
        <ele>96</ele>
        <time>2017-10-14T06:34:45.000Z</time>
      </trkpt>
      <trkpt lat="43.62078" lon="6.83472">
        <ele>95</ele>
        <time>2017-10-14T06:34:46.000Z</time>
      </trkpt>
      <trkpt lat="43.62078" lon="6.8347">
        <ele>95</ele>
        <time>2017-10-14T06:34:47.000Z</time>
      </trkpt>
      <trkpt lat="43.62078" lon="6.83468">
        <ele>94</ele>
        <time>2017-10-14T06:34:48.000Z</time>
      </trkpt>
      <trkpt lat="43.62078" lon="6.83466">
        <ele>94</ele>
        <time>2017-10-14T06:34:49.000Z</time>
      </trkpt>
      <trkpt lat="43.62078" lon="6.83465">
        <ele>93</ele>
        <time>2017-10-14T06:34:50.000Z</time>
      </trkpt>
      <trkpt lat="43.62077" lon="6.83462">
        <ele>93</ele>
        <time>2017-10-14T06:34:51.000Z</time>
      </trkpt>
      <trkpt lat="43.62077" lon="6.8346">
        <ele>92</ele>
        <time>2017-10-14T06:34:52.000Z</time>
      </trkpt>
      <trkpt lat="43.62077" lon="6.83458">
        <ele>92</ele>
        <time>2017-10-14T06:34:53.000Z</time>
      </trkpt>
      <trkpt lat="43.62077" lon="6.83455">
        <ele>92</ele>
        <time>2017-10-14T06:34:54.000Z</time>
      </trkpt>
      <trkpt lat="43.62076" lon="6.83453">
        <ele>91</ele>
        <time>2017-10-14T06:34:55.000Z</time>
      </trkpt>
      <trkpt lat="43.62076" lon="6.8345">
        <ele>91</ele>
        <time>2017-10-14T06:34:56.000Z</time>
      </trkpt>
      <trkpt lat="43.62076" lon="6.83447">
        <ele>90</ele>
        <time>2017-10-14T06:34:57.000Z</time>
      </trkpt>
      <trkpt lat="43.62076" lon="6.83445">
        <ele>89</ele>
        <time>2017-10-14T06:34:58.000Z</time>
      </trkpt>
      <trkpt lat="43.62076" lon="6.83443">
        <ele>89</ele>
        <time>2017-10-14T06:34:59.000Z</time>
      </trkpt>
      <trkpt lat="43.62075" lon="6.83441">
        <ele>89</ele>
        <time>2017-10-14T06:35:00.000Z</time>
      </trkpt>
      <trkpt lat="43.62075" lon="6.83439">
        <ele>88</ele>
        <time>2017-10-14T06:35:01.000Z</time>
      </trkpt>
      <trkpt lat="43.62076" lon="6.83437">
        <ele>87</ele>
        <time>2017-10-14T06:35:02.000Z</time>
      </trkpt>
      <trkpt lat="43.62076" lon="6.83435">
        <ele>88</ele>
        <time>2017-10-14T06:35:03.000Z</time>
      </trkpt>
      <trkpt lat="43.62077" lon="6.83434">
        <ele>87</ele>
        <time>2017-10-14T06:35:04.000Z</time>
      </trkpt>
      <trkpt lat="43.62077" lon="6.83432">
        <ele>87</ele>
        <time>2017-10-14T06:35:05.000Z</time>
      </trkpt>
      <trkpt lat="43.62078" lon="6.83431">
        <ele>87</ele>
        <time>2017-10-14T06:35:06.000Z</time>
      </trkpt>
      <trkpt lat="43.62078" lon="6.83429">
        <ele>86</ele>
        <time>2017-10-14T06:35:07.000Z</time>
      </trkpt>
      <trkpt lat="43.62079" lon="6.83428">
        <ele>86</ele>
        <time>2017-10-14T06:35:08.000Z</time>
      </trkpt>
      <trkpt lat="43.62079" lon="6.83426">
        <ele>85</ele>
        <time>2017-10-14T06:35:09.000Z</time>
      </trkpt>
      <trkpt lat="43.62079" lon="6.83424">
        <ele>85</ele>
        <time>2017-10-14T06:35:10.000Z</time>
      </trkpt>
      <trkpt lat="43.62079" lon="6.83422">
        <ele>84</ele>
        <time>2017-10-14T06:35:11.000Z</time>
      </trkpt>
      <trkpt lat="43.62079" lon="6.8342">
        <ele>84</ele>
        <time>2017-10-14T06:35:12.000Z</time>
      </trkpt>
      <trkpt lat="43.6208" lon="6.83418">
        <ele>84</ele>
        <time>2017-10-14T06:35:13.000Z</time>
      </trkpt>
      <trkpt lat="43.62081" lon="6.83416">
        <ele>83</ele>
        <time>2017-10-14T06:35:14.000Z</time>
      </trkpt>
      <trkpt lat="43.62081" lon="6.83414">
        <ele>82</ele>
        <time>2017-10-14T06:35:15.000Z</time>
      </trkpt>
      <trkpt lat="43.62082" lon="6.83412">
        <ele>81</ele>
        <time>2017-10-14T06:35:16.000Z</time>
      </trkpt>
      <trkpt lat="43.62082" lon="6.8341">
        <ele>81</ele>
        <time>2017-10-14T06:35:17.000Z</time>
      </trkpt>
      <trkpt lat="43.62083" lon="6.83408">
        <ele>80</ele>
        <time>2017-10-14T06:35:18.000Z</time>
      </trkpt>
      <trkpt lat="43.62084" lon="6.83406">
        <ele>79</ele>
        <time>2017-10-14T06:35:19.000Z</time>
      </trkpt>
      <trkpt lat="43.62085" lon="6.83404">
        <ele>78</ele>
        <time>2017-10-14T06:35:20.000Z</time>
      </trkpt>
      <trkpt lat="43.62086" lon="6.83402">
        <ele>77</ele>
        <time>2017-10-14T06:35:21.000Z</time>
      </trkpt>
      <trkpt lat="43.62086" lon="6.83401">
        <ele>76</ele>
        <time>2017-10-14T06:35:22.000Z</time>
      </trkpt>
      <trkpt lat="43.62087" lon="6.83398">
        <ele>76</ele>
        <time>2017-10-14T06:35:23.000Z</time>
      </trkpt>
      <trkpt lat="43.62087" lon="6.83396">
        <ele>75</ele>
        <time>2017-10-14T06:35:24.000Z</time>
      </trkpt>
      <trkpt lat="43.62087" lon="6.83394">
        <ele>76</ele>
        <time>2017-10-14T06:35:25.000Z</time>
      </trkpt>
      <trkpt lat="43.62087" lon="6.83392">
        <ele>77</ele>
        <time>2017-10-14T06:35:26.000Z</time>
      </trkpt>
      <trkpt lat="43.62086" lon="6.8339">
        <ele>75</ele>
        <time>2017-10-14T06:35:27.000Z</time>
      </trkpt>
      <trkpt lat="43.62085" lon="6.83388">
        <ele>75</ele>
        <time>2017-10-14T06:35:28.000Z</time>
      </trkpt>
      <trkpt lat="43.62083" lon="6.83387">
        <ele>74</ele>
        <time>2017-10-14T06:35:29.000Z</time>
      </trkpt>
      <trkpt lat="43.62082" lon="6.83386">
        <ele>73</ele>
        <time>2017-10-14T06:35:30.000Z</time>
      </trkpt>
      <trkpt lat="43.62081" lon="6.83386">
        <ele>72</ele>
        <time>2017-10-14T06:35:31.000Z</time>
      </trkpt>
      <trkpt lat="43.62079" lon="6.83387">
        <ele>71</ele>
        <time>2017-10-14T06:35:32.000Z</time>
      </trkpt>
      <trkpt lat="43.62078" lon="6.83387">
        <ele>71</ele>
        <time>2017-10-14T06:35:33.000Z</time>
      </trkpt>
      <trkpt lat="43.62076" lon="6.83388">
        <ele>71</ele>
        <time>2017-10-14T06:35:34.000Z</time>
      </trkpt>
      <trkpt lat="43.62074" lon="6.83388">
        <ele>71</ele>
        <time>2017-10-14T06:35:35.000Z</time>
      </trkpt>
      <trkpt lat="43.62072" lon="6.8339">
        <ele>72</ele>
        <time>2017-10-14T06:35:36.000Z</time>
      </trkpt>
      <trkpt lat="43.62071" lon="6.83392">
        <ele>72</ele>
        <time>2017-10-14T06:35:37.000Z</time>
      </trkpt>
      <trkpt lat="43.62069" lon="6.83393">
        <ele>72</ele>
        <time>2017-10-14T06:35:38.000Z</time>
      </trkpt>
      <trkpt lat="43.62067" lon="6.83394">
        <ele>71</ele>
        <time>2017-10-14T06:35:39.000Z</time>
      </trkpt>
      <trkpt lat="43.62066" lon="6.83395">
        <ele>71</ele>
        <time>2017-10-14T06:35:40.000Z</time>
      </trkpt>
      <trkpt lat="43.62065" lon="6.83396">
        <ele>71</ele>
        <time>2017-10-14T06:35:41.000Z</time>
      </trkpt>
      <trkpt lat="43.62063" lon="6.83396">
        <ele>71</ele>
        <time>2017-10-14T06:35:42.000Z</time>
      </trkpt>
      <trkpt lat="43.62061" lon="6.83397">
        <ele>70</ele>
        <time>2017-10-14T06:35:43.000Z</time>
      </trkpt>
      <trkpt lat="43.62059" lon="6.83397">
        <ele>70</ele>
        <time>2017-10-14T06:35:44.000Z</time>
      </trkpt>
      <trkpt lat="43.62056" lon="6.83399">
        <ele>71</ele>
        <time>2017-10-14T06:35:45.000Z</time>
      </trkpt>
      <trkpt lat="43.62053" lon="6.83402">
        <ele>71</ele>
        <time>2017-10-14T06:35:46.000Z</time>
      </trkpt>
      <trkpt lat="43.62051" lon="6.83404">
        <ele>71</ele>
        <time>2017-10-14T06:35:47.000Z</time>
      </trkpt>
      <trkpt lat="43.62049" lon="6.83406">
        <ele>71</ele>
        <time>2017-10-14T06:35:48.000Z</time>
      </trkpt>
      <trkpt lat="43.62047" lon="6.83408">
        <ele>72</ele>
        <time>2017-10-14T06:35:49.000Z</time>
      </trkpt>
      <trkpt lat="43.62045" lon="6.83409">
        <ele>72</ele>
        <time>2017-10-14T06:35:50.000Z</time>
      </trkpt>
      <trkpt lat="43.62043" lon="6.83411">
        <ele>73</ele>
        <time>2017-10-14T06:35:51.000Z</time>
      </trkpt>
      <trkpt lat="43.62041" lon="6.83413">
        <ele>73</ele>
        <time>2017-10-14T06:35:52.000Z</time>
      </trkpt>
      <trkpt lat="43.6204" lon="6.83416">
        <ele>73</ele>
        <time>2017-10-14T06:35:53.000Z</time>
      </trkpt>
      <trkpt lat="43.6204" lon="6.83418">
        <ele>74</ele>
        <time>2017-10-14T06:35:54.000Z</time>
      </trkpt>
      <trkpt lat="43.6204" lon="6.83421">
        <ele>75</ele>
        <time>2017-10-14T06:35:55.000Z</time>
      </trkpt>
      <trkpt lat="43.62039" lon="6.83423">
        <ele>76</ele>
        <time>2017-10-14T06:35:56.000Z</time>
      </trkpt>
      <trkpt lat="43.62039" lon="6.83425">
        <ele>76</ele>
        <time>2017-10-14T06:35:57.000Z</time>
      </trkpt>
      <trkpt lat="43.62038" lon="6.83427">
        <ele>77</ele>
        <time>2017-10-14T06:35:58.000Z</time>
      </trkpt>
      <trkpt lat="43.62038" lon="6.83429">
        <ele>79</ele>
        <time>2017-10-14T06:35:59.000Z</time>
      </trkpt>
      <trkpt lat="43.62038" lon="6.83431">
        <ele>79</ele>
        <time>2017-10-14T06:36:00.000Z</time>
      </trkpt>
      <trkpt lat="43.62037" lon="6.83434">
        <ele>79</ele>
        <time>2017-10-14T06:36:01.000Z</time>
      </trkpt>
      <trkpt lat="43.62036" lon="6.83437">
        <ele>78</ele>
        <time>2017-10-14T06:36:02.000Z</time>
      </trkpt>
      <trkpt lat="43.62035" lon="6.83441">
        <ele>78</ele>
        <time>2017-10-14T06:36:03.000Z</time>
      </trkpt>
      <trkpt lat="43.62035" lon="6.83444">
        <ele>78</ele>
        <time>2017-10-14T06:36:04.000Z</time>
      </trkpt>
      <trkpt lat="43.62035" lon="6.83447">
        <ele>78</ele>
        <time>2017-10-14T06:36:05.000Z</time>
      </trkpt>
      <trkpt lat="43.62034" lon="6.8345">
        <ele>78</ele>
        <time>2017-10-14T06:36:06.000Z</time>
      </trkpt>
      <trkpt lat="43.62033" lon="6.83452">
        <ele>77</ele>
        <time>2017-10-14T06:36:07.000Z</time>
      </trkpt>
      <trkpt lat="43.62032" lon="6.83455">
        <ele>77</ele>
        <time>2017-10-14T06:36:08.000Z</time>
      </trkpt>
      <trkpt lat="43.62032" lon="6.83457">
        <ele>77</ele>
        <time>2017-10-14T06:36:09.000Z</time>
      </trkpt>
      <trkpt lat="43.62031" lon="6.8346">
        <ele>77</ele>
        <time>2017-10-14T06:36:10.000Z</time>
      </trkpt>
      <trkpt lat="43.62031" lon="6.83462">
        <ele>78</ele>
        <time>2017-10-14T06:36:11.000Z</time>
      </trkpt>
      <trkpt lat="43.6203" lon="6.83465">
        <ele>79</ele>
        <time>2017-10-14T06:36:12.000Z</time>
      </trkpt>
      <trkpt lat="43.6203" lon="6.83468">
        <ele>80</ele>
        <time>2017-10-14T06:36:13.000Z</time>
      </trkpt>
      <trkpt lat="43.62029" lon="6.8347">
        <ele>79</ele>
        <time>2017-10-14T06:36:14.000Z</time>
      </trkpt>
      <trkpt lat="43.62028" lon="6.83472">
        <ele>79</ele>
        <time>2017-10-14T06:36:15.000Z</time>
      </trkpt>
      <trkpt lat="43.62027" lon="6.83474">
        <ele>79</ele>
        <time>2017-10-14T06:36:16.000Z</time>
      </trkpt>
      <trkpt lat="43.62026" lon="6.83477">
        <ele>79</ele>
        <time>2017-10-14T06:36:17.000Z</time>
      </trkpt>
      <trkpt lat="43.62025" lon="6.83479">
        <ele>79</ele>
        <time>2017-10-14T06:36:18.000Z</time>
      </trkpt>
      <trkpt lat="43.62024" lon="6.83481">
        <ele>80</ele>
        <time>2017-10-14T06:36:19.000Z</time>
      </trkpt>
      <trkpt lat="43.62023" lon="6.83484">
        <ele>80</ele>
        <time>2017-10-14T06:36:20.000Z</time>
      </trkpt>
      <trkpt lat="43.62022" lon="6.83486">
        <ele>80</ele>
        <time>2017-10-14T06:36:21.000Z</time>
      </trkpt>
      <trkpt lat="43.62021" lon="6.83487">
        <ele>81</ele>
        <time>2017-10-14T06:36:22.000Z</time>
      </trkpt>
      <trkpt lat="43.62021" lon="6.83489">
        <ele>81</ele>
        <time>2017-10-14T06:36:23.000Z</time>
      </trkpt>
      <trkpt lat="43.6202" lon="6.83491">
        <ele>81</ele>
        <time>2017-10-14T06:36:24.000Z</time>
      </trkpt>
      <trkpt lat="43.62019" lon="6.83492">
        <ele>81</ele>
        <time>2017-10-14T06:36:25.000Z</time>
      </trkpt>
      <trkpt lat="43.62018" lon="6.83494">
        <ele>81</ele>
        <time>2017-10-14T06:36:26.000Z</time>
      </trkpt>
      <trkpt lat="43.62018" lon="6.83496">
        <ele>82</ele>
        <time>2017-10-14T06:36:27.000Z</time>
      </trkpt>
      <trkpt lat="43.62018" lon="6.83498">
        <ele>82</ele>
        <time>2017-10-14T06:36:28.000Z</time>
      </trkpt>
      <trkpt lat="43.62017" lon="6.835">
        <ele>83</ele>
        <time>2017-10-14T06:36:29.000Z</time>
      </trkpt>
      <trkpt lat="43.62017" lon="6.83501">
        <ele>83</ele>
        <time>2017-10-14T06:36:30.000Z</time>
      </trkpt>
      <trkpt lat="43.62017" lon="6.83503">
        <ele>83</ele>
        <time>2017-10-14T06:36:31.000Z</time>
      </trkpt>
      <trkpt lat="43.62017" lon="6.83505">
        <ele>84</ele>
        <time>2017-10-14T06:36:32.000Z</time>
      </trkpt>
      <trkpt lat="43.62017" lon="6.83508">
        <ele>84</ele>
        <time>2017-10-14T06:36:33.000Z</time>
      </trkpt>
      <trkpt lat="43.62016" lon="6.8351">
        <ele>83</ele>
        <time>2017-10-14T06:36:34.000Z</time>
      </trkpt>
      <trkpt lat="43.62015" lon="6.83513">
        <ele>81</ele>
        <time>2017-10-14T06:36:35.000Z</time>
      </trkpt>
      <trkpt lat="43.62014" lon="6.83516">
        <ele>80</ele>
        <time>2017-10-14T06:36:36.000Z</time>
      </trkpt>
      <trkpt lat="43.62013" lon="6.83518">
        <ele>80</ele>
        <time>2017-10-14T06:36:37.000Z</time>
      </trkpt>
      <trkpt lat="43.62012" lon="6.8352">
        <ele>79</ele>
        <time>2017-10-14T06:36:38.000Z</time>
      </trkpt>
      <trkpt lat="43.62011" lon="6.83522">
        <ele>78</ele>
        <time>2017-10-14T06:36:39.000Z</time>
      </trkpt>
      <trkpt lat="43.62009" lon="6.83524">
        <ele>78</ele>
        <time>2017-10-14T06:36:40.000Z</time>
      </trkpt>
      <trkpt lat="43.62009" lon="6.83526">
        <ele>77</ele>
        <time>2017-10-14T06:36:41.000Z</time>
      </trkpt>
      <trkpt lat="43.62008" lon="6.83528">
        <ele>77</ele>
        <time>2017-10-14T06:36:42.000Z</time>
      </trkpt>
      <trkpt lat="43.62006" lon="6.83529">
        <ele>76</ele>
        <time>2017-10-14T06:36:43.000Z</time>
      </trkpt>
      <trkpt lat="43.62005" lon="6.83531">
        <ele>75</ele>
        <time>2017-10-14T06:36:44.000Z</time>
      </trkpt>
      <trkpt lat="43.62004" lon="6.83533">
        <ele>74</ele>
        <time>2017-10-14T06:36:45.000Z</time>
      </trkpt>
      <trkpt lat="43.62003" lon="6.83534">
        <ele>74</ele>
        <time>2017-10-14T06:36:46.000Z</time>
      </trkpt>
      <trkpt lat="43.62002" lon="6.83537">
        <ele>74</ele>
        <time>2017-10-14T06:36:47.000Z</time>
      </trkpt>
      <trkpt lat="43.62" lon="6.83539">
        <ele>74</ele>
        <time>2017-10-14T06:36:48.000Z</time>
      </trkpt>
      <trkpt lat="43.62" lon="6.8354">
        <ele>73</ele>
        <time>2017-10-14T06:36:49.000Z</time>
      </trkpt>
      <trkpt lat="43.61999" lon="6.83542">
        <ele>73</ele>
        <time>2017-10-14T06:36:50.000Z</time>
      </trkpt>
      <trkpt lat="43.61998" lon="6.83544">
        <ele>72</ele>
        <time>2017-10-14T06:36:51.000Z</time>
      </trkpt>
      <trkpt lat="43.61996" lon="6.83545">
        <ele>71</ele>
        <time>2017-10-14T06:36:52.000Z</time>
      </trkpt>
      <trkpt lat="43.61995" lon="6.83546">
        <ele>70</ele>
        <time>2017-10-14T06:36:53.000Z</time>
      </trkpt>
      <trkpt lat="43.61993" lon="6.83548">
        <ele>69</ele>
        <time>2017-10-14T06:36:54.000Z</time>
      </trkpt>
      <trkpt lat="43.61992" lon="6.8355">
        <ele>69</ele>
        <time>2017-10-14T06:36:55.000Z</time>
      </trkpt>
      <trkpt lat="43.6199" lon="6.83552">
        <ele>70</ele>
        <time>2017-10-14T06:36:56.000Z</time>
      </trkpt>
      <trkpt lat="43.61988" lon="6.83554">
        <ele>70</ele>
        <time>2017-10-14T06:36:57.000Z</time>
      </trkpt>
      <trkpt lat="43.61986" lon="6.83555">
        <ele>70</ele>
        <time>2017-10-14T06:36:58.000Z</time>
      </trkpt>
      <trkpt lat="43.61984" lon="6.83557">
        <ele>71</ele>
        <time>2017-10-14T06:36:59.000Z</time>
      </trkpt>
      <trkpt lat="43.61982" lon="6.83559">
        <ele>70</ele>
        <time>2017-10-14T06:37:00.000Z</time>
      </trkpt>
      <trkpt lat="43.61979" lon="6.83561">
        <ele>70</ele>
        <time>2017-10-14T06:37:01.000Z</time>
      </trkpt>
      <trkpt lat="43.61977" lon="6.83563">
        <ele>70</ele>
        <time>2017-10-14T06:37:02.000Z</time>
      </trkpt>
      <trkpt lat="43.61975" lon="6.83564">
        <ele>69</ele>
        <time>2017-10-14T06:37:03.000Z</time>
      </trkpt>
      <trkpt lat="43.61973" lon="6.83566">
        <ele>69</ele>
        <time>2017-10-14T06:37:04.000Z</time>
      </trkpt>
      <trkpt lat="43.61972" lon="6.83567">
        <ele>68</ele>
        <time>2017-10-14T06:37:05.000Z</time>
      </trkpt>
      <trkpt lat="43.61971" lon="6.83569">
        <ele>68</ele>
        <time>2017-10-14T06:37:06.000Z</time>
      </trkpt>
      <trkpt lat="43.6197" lon="6.83571">
        <ele>67</ele>
        <time>2017-10-14T06:37:07.000Z</time>
      </trkpt>
      <trkpt lat="43.61969" lon="6.83573">
        <ele>69</ele>
        <time>2017-10-14T06:37:08.000Z</time>
      </trkpt>
      <trkpt lat="43.61967" lon="6.83574">
        <ele>69</ele>
        <time>2017-10-14T06:37:09.000Z</time>
      </trkpt>
      <trkpt lat="43.61966" lon="6.83574">
        <ele>71</ele>
        <time>2017-10-14T06:37:10.000Z</time>
      </trkpt>
      <trkpt lat="43.61966" lon="6.83575">
        <ele>71</ele>
        <time>2017-10-14T06:37:11.000Z</time>
      </trkpt>
      <trkpt lat="43.61965" lon="6.83575">
        <ele>71</ele>
        <time>2017-10-14T06:37:12.000Z</time>
      </trkpt>
      <trkpt lat="43.61963" lon="6.83575">
        <ele>70</ele>
        <time>2017-10-14T06:37:13.000Z</time>
      </trkpt>
      <trkpt lat="43.61961" lon="6.83576">
        <ele>68</ele>
        <time>2017-10-14T06:37:14.000Z</time>
      </trkpt>
      <trkpt lat="43.6196" lon="6.83577">
        <ele>68</ele>
        <time>2017-10-14T06:37:15.000Z</time>
      </trkpt>
      <trkpt lat="43.61959" lon="6.83578">
        <ele>67</ele>
        <time>2017-10-14T06:37:16.000Z</time>
      </trkpt>
      <trkpt lat="43.61958" lon="6.83579">
        <ele>67</ele>
        <time>2017-10-14T06:37:17.000Z</time>
      </trkpt>
      <trkpt lat="43.61957" lon="6.83581">
        <ele>67</ele>
        <time>2017-10-14T06:37:18.000Z</time>
      </trkpt>
      <trkpt lat="43.61955" lon="6.83582">
        <ele>67</ele>
        <time>2017-10-14T06:37:19.000Z</time>
      </trkpt>
      <trkpt lat="43.61953" lon="6.83584">
        <ele>67</ele>
        <time>2017-10-14T06:37:20.000Z</time>
      </trkpt>
      <trkpt lat="43.61951" lon="6.83586">
        <ele>67</ele>
        <time>2017-10-14T06:37:21.000Z</time>
      </trkpt>
      <trkpt lat="43.61949" lon="6.83588">
        <ele>67</ele>
        <time>2017-10-14T06:37:22.000Z</time>
      </trkpt>
      <trkpt lat="43.61948" lon="6.8359">
        <ele>67</ele>
        <time>2017-10-14T06:37:23.000Z</time>
      </trkpt>
      <trkpt lat="43.61946" lon="6.83592">
        <ele>67</ele>
        <time>2017-10-14T06:37:24.000Z</time>
      </trkpt>
      <trkpt lat="43.61944" lon="6.83593">
        <ele>68</ele>
        <time>2017-10-14T06:37:25.000Z</time>
      </trkpt>
      <trkpt lat="43.61943" lon="6.83594">
        <ele>68</ele>
        <time>2017-10-14T06:37:26.000Z</time>
      </trkpt>
      <trkpt lat="43.61941" lon="6.83595">
        <ele>69</ele>
        <time>2017-10-14T06:37:27.000Z</time>
      </trkpt>
      <trkpt lat="43.61939" lon="6.83595">
        <ele>69</ele>
        <time>2017-10-14T06:37:28.000Z</time>
      </trkpt>
      <trkpt lat="43.61937" lon="6.83595">
        <ele>69</ele>
        <time>2017-10-14T06:37:29.000Z</time>
      </trkpt>
      <trkpt lat="43.61935" lon="6.83596">
        <ele>70</ele>
        <time>2017-10-14T06:37:30.000Z</time>
      </trkpt>
      <trkpt lat="43.61933" lon="6.83597">
        <ele>70</ele>
        <time>2017-10-14T06:37:31.000Z</time>
      </trkpt>
      <trkpt lat="43.61931" lon="6.83598">
        <ele>71</ele>
        <time>2017-10-14T06:37:32.000Z</time>
      </trkpt>
      <trkpt lat="43.6193" lon="6.83599">
        <ele>72</ele>
        <time>2017-10-14T06:37:33.000Z</time>
      </trkpt>
      <trkpt lat="43.61928" lon="6.836">
        <ele>71</ele>
        <time>2017-10-14T06:37:34.000Z</time>
      </trkpt>
      <trkpt lat="43.61927" lon="6.83601">
        <ele>72</ele>
        <time>2017-10-14T06:37:35.000Z</time>
      </trkpt>
      <trkpt lat="43.61926" lon="6.83602">
        <ele>72</ele>
        <time>2017-10-14T06:37:36.000Z</time>
      </trkpt>
      <trkpt lat="43.61925" lon="6.83602">
        <ele>72</ele>
        <time>2017-10-14T06:37:37.000Z</time>
      </trkpt>
      <trkpt lat="43.61924" lon="6.83603">
        <ele>73</ele>
        <time>2017-10-14T06:37:38.000Z</time>
      </trkpt>
      <trkpt lat="43.61922" lon="6.83604">
        <ele>73</ele>
        <time>2017-10-14T06:37:39.000Z</time>
      </trkpt>
      <trkpt lat="43.6192" lon="6.83605">
        <ele>74</ele>
        <time>2017-10-14T06:37:40.000Z</time>
      </trkpt>
      <trkpt lat="43.61919" lon="6.83606">
        <ele>73</ele>
        <time>2017-10-14T06:37:41.000Z</time>
      </trkpt>
      <trkpt lat="43.61919" lon="6.83607">
        <ele>73</ele>
        <time>2017-10-14T06:37:42.000Z</time>
      </trkpt>
      <trkpt lat="43.61918" lon="6.83608">
        <ele>74</ele>
        <time>2017-10-14T06:37:43.000Z</time>
      </trkpt>
      <trkpt lat="43.61917" lon="6.83608">
        <ele>75</ele>
        <time>2017-10-14T06:37:44.000Z</time>
      </trkpt>
      <trkpt lat="43.61915" lon="6.83609">
        <ele>76</ele>
        <time>2017-10-14T06:37:45.000Z</time>
      </trkpt>
      <trkpt lat="43.61914" lon="6.8361">
        <ele>76</ele>
        <time>2017-10-14T06:37:46.000Z</time>
      </trkpt>
      <trkpt lat="43.61913" lon="6.83612">
        <ele>77</ele>
        <time>2017-10-14T06:37:47.000Z</time>
      </trkpt>
      <trkpt lat="43.61911" lon="6.83613">
        <ele>79</ele>
        <time>2017-10-14T06:37:48.000Z</time>
      </trkpt>
      <trkpt lat="43.61909" lon="6.83614">
        <ele>79</ele>
        <time>2017-10-14T06:37:49.000Z</time>
      </trkpt>
      <trkpt lat="43.61908" lon="6.83616">
        <ele>79</ele>
        <time>2017-10-14T06:37:50.000Z</time>
      </trkpt>
      <trkpt lat="43.61906" lon="6.83618">
        <ele>80</ele>
        <time>2017-10-14T06:37:51.000Z</time>
      </trkpt>
      <trkpt lat="43.61905" lon="6.83619">
        <ele>80</ele>
        <time>2017-10-14T06:37:52.000Z</time>
      </trkpt>
      <trkpt lat="43.61904" lon="6.83621">
        <ele>80</ele>
        <time>2017-10-14T06:37:53.000Z</time>
      </trkpt>
      <trkpt lat="43.61902" lon="6.83623">
        <ele>80</ele>
        <time>2017-10-14T06:37:54.000Z</time>
      </trkpt>
      <trkpt lat="43.61901" lon="6.83624">
        <ele>80</ele>
        <time>2017-10-14T06:37:55.000Z</time>
      </trkpt>
      <trkpt lat="43.61899" lon="6.83626">
        <ele>80</ele>
        <time>2017-10-14T06:37:56.000Z</time>
      </trkpt>
      <trkpt lat="43.61898" lon="6.83627">
        <ele>80</ele>
        <time>2017-10-14T06:37:57.000Z</time>
      </trkpt>
      <trkpt lat="43.61896" lon="6.83629">
        <ele>81</ele>
        <time>2017-10-14T06:37:58.000Z</time>
      </trkpt>
      <trkpt lat="43.61895" lon="6.8363">
        <ele>82</ele>
        <time>2017-10-14T06:37:59.000Z</time>
      </trkpt>
      <trkpt lat="43.61893" lon="6.83632">
        <ele>81</ele>
        <time>2017-10-14T06:38:00.000Z</time>
      </trkpt>
      <trkpt lat="43.61891" lon="6.83634">
        <ele>81</ele>
        <time>2017-10-14T06:38:01.000Z</time>
      </trkpt>
      <trkpt lat="43.6189" lon="6.83636">
        <ele>81</ele>
        <time>2017-10-14T06:38:02.000Z</time>
      </trkpt>
      <trkpt lat="43.61889" lon="6.83638">
        <ele>81</ele>
        <time>2017-10-14T06:38:03.000Z</time>
      </trkpt>
      <trkpt lat="43.61888" lon="6.8364">
        <ele>81</ele>
        <time>2017-10-14T06:38:04.000Z</time>
      </trkpt>
      <trkpt lat="43.61886" lon="6.83643">
        <ele>82</ele>
        <time>2017-10-14T06:38:05.000Z</time>
      </trkpt>
      <trkpt lat="43.61885" lon="6.83644">
        <ele>82</ele>
        <time>2017-10-14T06:38:06.000Z</time>
      </trkpt>
      <trkpt lat="43.61883" lon="6.83646">
        <ele>83</ele>
        <time>2017-10-14T06:38:07.000Z</time>
      </trkpt>
      <trkpt lat="43.61882" lon="6.83647">
        <ele>83</ele>
        <time>2017-10-14T06:38:08.000Z</time>
      </trkpt>
      <trkpt lat="43.61881" lon="6.83648">
        <ele>84</ele>
        <time>2017-10-14T06:38:09.000Z</time>
      </trkpt>
      <trkpt lat="43.6188" lon="6.8365">
        <ele>84</ele>
        <time>2017-10-14T06:38:10.000Z</time>
      </trkpt>
      <trkpt lat="43.6188" lon="6.83651">
        <ele>84</ele>
        <time>2017-10-14T06:38:11.000Z</time>
      </trkpt>
      <trkpt lat="43.61878" lon="6.83652">
        <ele>85</ele>
        <time>2017-10-14T06:38:12.000Z</time>
      </trkpt>
      <trkpt lat="43.61877" lon="6.83654">
        <ele>86</ele>
        <time>2017-10-14T06:38:13.000Z</time>
      </trkpt>
      <trkpt lat="43.61876" lon="6.83655">
        <ele>87</ele>
        <time>2017-10-14T06:38:14.000Z</time>
      </trkpt>
      <trkpt lat="43.61875" lon="6.83656">
        <ele>91</ele>
        <time>2017-10-14T06:38:15.000Z</time>
      </trkpt>
      <trkpt lat="43.61873" lon="6.83656">
        <ele>91</ele>
        <time>2017-10-14T06:38:16.000Z</time>
      </trkpt>
      <trkpt lat="43.61872" lon="6.83657">
        <ele>92</ele>
        <time>2017-10-14T06:38:17.000Z</time>
      </trkpt>
      <trkpt lat="43.61871" lon="6.83658">
        <ele>93</ele>
        <time>2017-10-14T06:38:18.000Z</time>
      </trkpt>
      <trkpt lat="43.6187" lon="6.83659">
        <ele>93</ele>
        <time>2017-10-14T06:38:19.000Z</time>
      </trkpt>
      <trkpt lat="43.61869" lon="6.8366">
        <ele>94</ele>
        <time>2017-10-14T06:38:20.000Z</time>
      </trkpt>
      <trkpt lat="43.61868" lon="6.83661">
        <ele>93</ele>
        <time>2017-10-14T06:38:21.000Z</time>
      </trkpt>
      <trkpt lat="43.61867" lon="6.83662">
        <ele>95</ele>
        <time>2017-10-14T06:38:22.000Z</time>
      </trkpt>
      <trkpt lat="43.61866" lon="6.83663">
        <ele>96</ele>
        <time>2017-10-14T06:38:23.000Z</time>
      </trkpt>
      <trkpt lat="43.61865" lon="6.83664">
        <ele>97</ele>
        <time>2017-10-14T06:38:24.000Z</time>
      </trkpt>
      <trkpt lat="43.61864" lon="6.83666">
        <ele>96</ele>
        <time>2017-10-14T06:38:25.000Z</time>
      </trkpt>
      <trkpt lat="43.61863" lon="6.83667">
        <ele>95</ele>
        <time>2017-10-14T06:38:26.000Z</time>
      </trkpt>
      <trkpt lat="43.61861" lon="6.83669">
        <ele>95</ele>
        <time>2017-10-14T06:38:27.000Z</time>
      </trkpt>
      <trkpt lat="43.6186" lon="6.8367">
        <ele>94</ele>
        <time>2017-10-14T06:38:28.000Z</time>
      </trkpt>
      <trkpt lat="43.61858" lon="6.83671">
        <ele>94</ele>
        <time>2017-10-14T06:38:29.000Z</time>
      </trkpt>
      <trkpt lat="43.61856" lon="6.83672">
        <ele>93</ele>
        <time>2017-10-14T06:38:30.000Z</time>
      </trkpt>
      <trkpt lat="43.61855" lon="6.83674">
        <ele>93</ele>
        <time>2017-10-14T06:38:31.000Z</time>
      </trkpt>
      <trkpt lat="43.61853" lon="6.83676">
        <ele>93</ele>
        <time>2017-10-14T06:38:32.000Z</time>
      </trkpt>
      <trkpt lat="43.61852" lon="6.83678">
        <ele>91</ele>
        <time>2017-10-14T06:38:33.000Z</time>
      </trkpt>
      <trkpt lat="43.61851" lon="6.83679">
        <ele>92</ele>
        <time>2017-10-14T06:38:34.000Z</time>
      </trkpt>
      <trkpt lat="43.6185" lon="6.8368">
        <ele>91</ele>
        <time>2017-10-14T06:38:35.000Z</time>
      </trkpt>
      <trkpt lat="43.61848" lon="6.83681">
        <ele>88</ele>
        <time>2017-10-14T06:38:36.000Z</time>
      </trkpt>
      <trkpt lat="43.61847" lon="6.8368">
        <ele>90</ele>
        <time>2017-10-14T06:38:37.000Z</time>
      </trkpt>
      <trkpt lat="43.61845" lon="6.8368">
        <ele>90</ele>
        <time>2017-10-14T06:38:38.000Z</time>
      </trkpt>
      <trkpt lat="43.61843" lon="6.83679">
        <ele>89</ele>
        <time>2017-10-14T06:38:39.000Z</time>
      </trkpt>
      <trkpt lat="43.61841" lon="6.83678">
        <ele>90</ele>
        <time>2017-10-14T06:38:40.000Z</time>
      </trkpt>
      <trkpt lat="43.61839" lon="6.83677">
        <ele>89</ele>
        <time>2017-10-14T06:38:41.000Z</time>
      </trkpt>
      <trkpt lat="43.61837" lon="6.83675">
        <ele>89</ele>
        <time>2017-10-14T06:38:42.000Z</time>
      </trkpt>
      <trkpt lat="43.61836" lon="6.83674">
        <ele>89</ele>
        <time>2017-10-14T06:38:43.000Z</time>
      </trkpt>
      <trkpt lat="43.61835" lon="6.83673">
        <ele>89</ele>
        <time>2017-10-14T06:38:44.000Z</time>
      </trkpt>
      <trkpt lat="43.61834" lon="6.83673">
        <ele>89</ele>
        <time>2017-10-14T06:38:45.000Z</time>
      </trkpt>
      <trkpt lat="43.61833" lon="6.83672">
        <ele>88</ele>
        <time>2017-10-14T06:38:46.000Z</time>
      </trkpt>
      <trkpt lat="43.61831" lon="6.83672">
        <ele>88</ele>
        <time>2017-10-14T06:38:47.000Z</time>
      </trkpt>
      <trkpt lat="43.6183" lon="6.83673">
        <ele>87</ele>
        <time>2017-10-14T06:38:48.000Z</time>
      </trkpt>
      <trkpt lat="43.61829" lon="6.83673">
        <ele>86</ele>
        <time>2017-10-14T06:38:49.000Z</time>
      </trkpt>
      <trkpt lat="43.61828" lon="6.83674">
        <ele>86</ele>
        <time>2017-10-14T06:38:50.000Z</time>
      </trkpt>
      <trkpt lat="43.61828" lon="6.83675">
        <ele>86</ele>
        <time>2017-10-14T06:38:51.000Z</time>
      </trkpt>
      <trkpt lat="43.61827" lon="6.83677">
        <ele>86</ele>
        <time>2017-10-14T06:38:52.000Z</time>
      </trkpt>
      <trkpt lat="43.61826" lon="6.83678">
        <ele>85</ele>
        <time>2017-10-14T06:38:53.000Z</time>
      </trkpt>
      <trkpt lat="43.61825" lon="6.8368">
        <ele>84</ele>
        <time>2017-10-14T06:38:54.000Z</time>
      </trkpt>
      <trkpt lat="43.61825" lon="6.83682">
        <ele>84</ele>
        <time>2017-10-14T06:38:55.000Z</time>
      </trkpt>
      <trkpt lat="43.61824" lon="6.83684">
        <ele>84</ele>
        <time>2017-10-14T06:38:56.000Z</time>
      </trkpt>
      <trkpt lat="43.61823" lon="6.83686">
        <ele>84</ele>
        <time>2017-10-14T06:38:57.000Z</time>
      </trkpt>
      <trkpt lat="43.61823" lon="6.83689">
        <ele>83</ele>
        <time>2017-10-14T06:38:58.000Z</time>
      </trkpt>
      <trkpt lat="43.61822" lon="6.83692">
        <ele>83</ele>
        <time>2017-10-14T06:38:59.000Z</time>
      </trkpt>
      <trkpt lat="43.61822" lon="6.83695">
        <ele>83</ele>
        <time>2017-10-14T06:39:00.000Z</time>
      </trkpt>
      <trkpt lat="43.61821" lon="6.83698">
        <ele>82</ele>
        <time>2017-10-14T06:39:01.000Z</time>
      </trkpt>
      <trkpt lat="43.61821" lon="6.837">
        <ele>82</ele>
        <time>2017-10-14T06:39:02.000Z</time>
      </trkpt>
      <trkpt lat="43.61821" lon="6.83702">
        <ele>81</ele>
        <time>2017-10-14T06:39:03.000Z</time>
      </trkpt>
      <trkpt lat="43.61821" lon="6.83704">
        <ele>80</ele>
        <time>2017-10-14T06:39:04.000Z</time>
      </trkpt>
      <trkpt lat="43.61821" lon="6.83705">
        <ele>79</ele>
        <time>2017-10-14T06:39:05.000Z</time>
      </trkpt>
      <trkpt lat="43.6182" lon="6.83707">
        <ele>79</ele>
        <time>2017-10-14T06:39:06.000Z</time>
      </trkpt>
      <trkpt lat="43.6182" lon="6.83708">
        <ele>79</ele>
        <time>2017-10-14T06:39:07.000Z</time>
      </trkpt>
      <trkpt lat="43.61819" lon="6.83709">
        <ele>78</ele>
        <time>2017-10-14T06:39:08.000Z</time>
      </trkpt>
      <trkpt lat="43.61819" lon="6.8371">
        <ele>78</ele>
        <time>2017-10-14T06:39:09.000Z</time>
      </trkpt>
      <trkpt lat="43.61819" lon="6.83711">
        <ele>78</ele>
        <time>2017-10-14T06:39:10.000Z</time>
      </trkpt>
      <trkpt lat="43.61819" lon="6.83712">
        <ele>77</ele>
        <time>2017-10-14T06:39:11.000Z</time>
      </trkpt>
      <trkpt lat="43.61819" lon="6.83714">
        <ele>77</ele>
        <time>2017-10-14T06:39:12.000Z</time>
      </trkpt>
      <trkpt lat="43.61819" lon="6.83716">
        <ele>77</ele>
        <time>2017-10-14T06:39:13.000Z</time>
      </trkpt>
      <trkpt lat="43.61819" lon="6.83718">
        <ele>77</ele>
        <time>2017-10-14T06:39:14.000Z</time>
      </trkpt>
      <trkpt lat="43.61819" lon="6.83719">
        <ele>77</ele>
        <time>2017-10-14T06:39:15.000Z</time>
      </trkpt>
      <trkpt lat="43.61819" lon="6.8372">
        <ele>76</ele>
        <time>2017-10-14T06:39:16.000Z</time>
      </trkpt>
      <trkpt lat="43.61819" lon="6.83722">
        <ele>76</ele>
        <time>2017-10-14T06:39:17.000Z</time>
      </trkpt>
      <trkpt lat="43.61819" lon="6.83723">
        <ele>76</ele>
        <time>2017-10-14T06:39:18.000Z</time>
      </trkpt>
      <trkpt lat="43.6182" lon="6.83725">
        <ele>74</ele>
        <time>2017-10-14T06:39:19.000Z</time>
      </trkpt>
      <trkpt lat="43.6182" lon="6.83728">
        <ele>74</ele>
        <time>2017-10-14T06:39:20.000Z</time>
      </trkpt>
      <trkpt lat="43.61821" lon="6.83731">
        <ele>74</ele>
        <time>2017-10-14T06:39:21.000Z</time>
      </trkpt>
      <trkpt lat="43.61821" lon="6.83733">
        <ele>74</ele>
        <time>2017-10-14T06:39:22.000Z</time>
      </trkpt>
      <trkpt lat="43.61821" lon="6.83735">
        <ele>73</ele>
        <time>2017-10-14T06:39:23.000Z</time>
      </trkpt>
      <trkpt lat="43.61821" lon="6.83738">
        <ele>74</ele>
        <time>2017-10-14T06:39:24.000Z</time>
      </trkpt>
      <trkpt lat="43.6182" lon="6.8374">
        <ele>73</ele>
        <time>2017-10-14T06:39:25.000Z</time>
      </trkpt>
      <trkpt lat="43.61819" lon="6.83743">
        <ele>72</ele>
        <time>2017-10-14T06:39:26.000Z</time>
      </trkpt>
      <trkpt lat="43.61818" lon="6.83746">
        <ele>72</ele>
        <time>2017-10-14T06:39:27.000Z</time>
      </trkpt>
      <trkpt lat="43.61817" lon="6.83749">
        <ele>72</ele>
        <time>2017-10-14T06:39:28.000Z</time>
      </trkpt>
      <trkpt lat="43.61816" lon="6.83751">
        <ele>72</ele>
        <time>2017-10-14T06:39:29.000Z</time>
      </trkpt>
      <trkpt lat="43.61816" lon="6.83753">
        <ele>73</ele>
        <time>2017-10-14T06:39:30.000Z</time>
      </trkpt>
      <trkpt lat="43.61816" lon="6.83756">
        <ele>73</ele>
        <time>2017-10-14T06:39:31.000Z</time>
      </trkpt>
      <trkpt lat="43.61815" lon="6.83758">
        <ele>72</ele>
        <time>2017-10-14T06:39:32.000Z</time>
      </trkpt>
      <trkpt lat="43.61814" lon="6.83761">
        <ele>73</ele>
        <time>2017-10-14T06:39:33.000Z</time>
      </trkpt>
      <trkpt lat="43.61813" lon="6.83763">
        <ele>73</ele>
        <time>2017-10-14T06:39:34.000Z</time>
      </trkpt>
      <trkpt lat="43.61812" lon="6.83765">
        <ele>73</ele>
        <time>2017-10-14T06:39:35.000Z</time>
      </trkpt>
      <trkpt lat="43.61811" lon="6.83767">
        <ele>73</ele>
        <time>2017-10-14T06:39:36.000Z</time>
      </trkpt>
      <trkpt lat="43.61811" lon="6.83769">
        <ele>73</ele>
        <time>2017-10-14T06:39:37.000Z</time>
      </trkpt>
      <trkpt lat="43.61811" lon="6.83771">
        <ele>73</ele>
        <time>2017-10-14T06:39:38.000Z</time>
      </trkpt>
      <trkpt lat="43.6181" lon="6.83773">
        <ele>72</ele>
        <time>2017-10-14T06:39:39.000Z</time>
      </trkpt>
      <trkpt lat="43.61809" lon="6.83775">
        <ele>72</ele>
        <time>2017-10-14T06:39:40.000Z</time>
      </trkpt>
      <trkpt lat="43.61809" lon="6.83777">
        <ele>71</ele>
        <time>2017-10-14T06:39:41.000Z</time>
      </trkpt>
      <trkpt lat="43.61808" lon="6.83779">
        <ele>71</ele>
        <time>2017-10-14T06:39:42.000Z</time>
      </trkpt>
      <trkpt lat="43.61807" lon="6.83781">
        <ele>71</ele>
        <time>2017-10-14T06:39:43.000Z</time>
      </trkpt>
      <trkpt lat="43.61806" lon="6.83784">
        <ele>71</ele>
        <time>2017-10-14T06:39:44.000Z</time>
      </trkpt>
      <trkpt lat="43.61805" lon="6.83787">
        <ele>70</ele>
        <time>2017-10-14T06:39:45.000Z</time>
      </trkpt>
      <trkpt lat="43.61804" lon="6.8379">
        <ele>70</ele>
        <time>2017-10-14T06:39:46.000Z</time>
      </trkpt>
      <trkpt lat="43.61803" lon="6.83793">
        <ele>70</ele>
        <time>2017-10-14T06:39:47.000Z</time>
      </trkpt>
      <trkpt lat="43.61803" lon="6.83796">
        <ele>69</ele>
        <time>2017-10-14T06:39:48.000Z</time>
      </trkpt>
      <trkpt lat="43.61802" lon="6.838">
        <ele>69</ele>
        <time>2017-10-14T06:39:49.000Z</time>
      </trkpt>
      <trkpt lat="43.61802" lon="6.83803">
        <ele>68</ele>
        <time>2017-10-14T06:39:50.000Z</time>
      </trkpt>
      <trkpt lat="43.61802" lon="6.83805">
        <ele>69</ele>
        <time>2017-10-14T06:39:51.000Z</time>
      </trkpt>
      <trkpt lat="43.61802" lon="6.83808">
        <ele>71</ele>
        <time>2017-10-14T06:39:52.000Z</time>
      </trkpt>
      <trkpt lat="43.61802" lon="6.8381">
        <ele>71</ele>
        <time>2017-10-14T06:39:53.000Z</time>
      </trkpt>
      <trkpt lat="43.61802" lon="6.83812">
        <ele>73</ele>
        <time>2017-10-14T06:39:54.000Z</time>
      </trkpt>
      <trkpt lat="43.61802" lon="6.83814">
        <ele>73</ele>
        <time>2017-10-14T06:39:55.000Z</time>
      </trkpt>
      <trkpt lat="43.61802" lon="6.83816">
        <ele>73</ele>
        <time>2017-10-14T06:39:56.000Z</time>
      </trkpt>
      <trkpt lat="43.61801" lon="6.83818">
        <ele>72</ele>
        <time>2017-10-14T06:39:57.000Z</time>
      </trkpt>
      <trkpt lat="43.61799" lon="6.83819">
        <ele>71</ele>
        <time>2017-10-14T06:39:58.000Z</time>
      </trkpt>
      <trkpt lat="43.61797" lon="6.8382">
        <ele>71</ele>
        <time>2017-10-14T06:39:59.000Z</time>
      </trkpt>
      <trkpt lat="43.61795" lon="6.83821">
        <ele>71</ele>
        <time>2017-10-14T06:40:00.000Z</time>
      </trkpt>
      <trkpt lat="43.61793" lon="6.83822">
        <ele>72</ele>
        <time>2017-10-14T06:40:01.000Z</time>
      </trkpt>
      <trkpt lat="43.61791" lon="6.83824">
        <ele>74</ele>
        <time>2017-10-14T06:40:02.000Z</time>
      </trkpt>
      <trkpt lat="43.6179" lon="6.83826">
        <ele>75</ele>
        <time>2017-10-14T06:40:03.000Z</time>
      </trkpt>
      <trkpt lat="43.61788" lon="6.83828">
        <ele>74</ele>
        <time>2017-10-14T06:40:04.000Z</time>
      </trkpt>
      <trkpt lat="43.61787" lon="6.8383">
        <ele>74</ele>
        <time>2017-10-14T06:40:05.000Z</time>
      </trkpt>
      <trkpt lat="43.61786" lon="6.83832">
        <ele>74</ele>
        <time>2017-10-14T06:40:06.000Z</time>
      </trkpt>
      <trkpt lat="43.61785" lon="6.83835">
        <ele>74</ele>
        <time>2017-10-14T06:40:07.000Z</time>
      </trkpt>
      <trkpt lat="43.61784" lon="6.83837">
        <ele>73</ele>
        <time>2017-10-14T06:40:08.000Z</time>
      </trkpt>
      <trkpt lat="43.61783" lon="6.83839">
        <ele>73</ele>
        <time>2017-10-14T06:40:09.000Z</time>
      </trkpt>
      <trkpt lat="43.61782" lon="6.83841">
        <ele>74</ele>
        <time>2017-10-14T06:40:10.000Z</time>
      </trkpt>
      <trkpt lat="43.61781" lon="6.83843">
        <ele>74</ele>
        <time>2017-10-14T06:40:11.000Z</time>
      </trkpt>
      <trkpt lat="43.61779" lon="6.83845">
        <ele>74</ele>
        <time>2017-10-14T06:40:12.000Z</time>
      </trkpt>
      <trkpt lat="43.61778" lon="6.83847">
        <ele>74</ele>
        <time>2017-10-14T06:40:13.000Z</time>
      </trkpt>
      <trkpt lat="43.61777" lon="6.83848">
        <ele>74</ele>
        <time>2017-10-14T06:40:14.000Z</time>
      </trkpt>
      <trkpt lat="43.61777" lon="6.83849">
        <ele>71</ele>
        <time>2017-10-14T06:40:15.000Z</time>
      </trkpt>
      <trkpt lat="43.61776" lon="6.83849">
        <ele>72</ele>
        <time>2017-10-14T06:40:16.000Z</time>
      </trkpt>
      <trkpt lat="43.61775" lon="6.8385">
        <ele>72</ele>
        <time>2017-10-14T06:40:17.000Z</time>
      </trkpt>
      <trkpt lat="43.61773" lon="6.83851">
        <ele>72</ele>
        <time>2017-10-14T06:40:18.000Z</time>
      </trkpt>
      <trkpt lat="43.61772" lon="6.83852">
        <ele>74</ele>
        <time>2017-10-14T06:40:19.000Z</time>
      </trkpt>
      <trkpt lat="43.61771" lon="6.83854">
        <ele>74</ele>
        <time>2017-10-14T06:40:20.000Z</time>
      </trkpt>
      <trkpt lat="43.6177" lon="6.83857">
        <ele>75</ele>
        <time>2017-10-14T06:40:21.000Z</time>
      </trkpt>
      <trkpt lat="43.6177" lon="6.83859">
        <ele>74</ele>
        <time>2017-10-14T06:40:22.000Z</time>
      </trkpt>
      <trkpt lat="43.61769" lon="6.8386">
        <ele>74</ele>
        <time>2017-10-14T06:40:23.000Z</time>
      </trkpt>
      <trkpt lat="43.61768" lon="6.83862">
        <ele>75</ele>
        <time>2017-10-14T06:40:24.000Z</time>
      </trkpt>
      <trkpt lat="43.61767" lon="6.83862">
        <ele>76</ele>
        <time>2017-10-14T06:40:25.000Z</time>
      </trkpt>
      <trkpt lat="43.61765" lon="6.83863">
        <ele>76</ele>
        <time>2017-10-14T06:40:26.000Z</time>
      </trkpt>
      <trkpt lat="43.61764" lon="6.83864">
        <ele>76</ele>
        <time>2017-10-14T06:40:27.000Z</time>
      </trkpt>
      <trkpt lat="43.61762" lon="6.83864">
        <ele>76</ele>
        <time>2017-10-14T06:40:28.000Z</time>
      </trkpt>
      <trkpt lat="43.6176" lon="6.83865">
        <ele>77</ele>
        <time>2017-10-14T06:40:29.000Z</time>
      </trkpt>
      <trkpt lat="43.61758" lon="6.83866">
        <ele>76</ele>
        <time>2017-10-14T06:40:30.000Z</time>
      </trkpt>
      <trkpt lat="43.61757" lon="6.83866">
        <ele>77</ele>
        <time>2017-10-14T06:40:31.000Z</time>
      </trkpt>
      <trkpt lat="43.61755" lon="6.83867">
        <ele>77</ele>
        <time>2017-10-14T06:40:32.000Z</time>
      </trkpt>
      <trkpt lat="43.61753" lon="6.83868">
        <ele>77</ele>
        <time>2017-10-14T06:40:33.000Z</time>
      </trkpt>
      <trkpt lat="43.61752" lon="6.83869">
        <ele>78</ele>
        <time>2017-10-14T06:40:34.000Z</time>
      </trkpt>
      <trkpt lat="43.6175" lon="6.8387">
        <ele>78</ele>
        <time>2017-10-14T06:40:35.000Z</time>
      </trkpt>
      <trkpt lat="43.61748" lon="6.83871">
        <ele>79</ele>
        <time>2017-10-14T06:40:36.000Z</time>
      </trkpt>
      <trkpt lat="43.61746" lon="6.83872">
        <ele>80</ele>
        <time>2017-10-14T06:40:37.000Z</time>
      </trkpt>
      <trkpt lat="43.61745" lon="6.83874">
        <ele>79</ele>
        <time>2017-10-14T06:40:38.000Z</time>
      </trkpt>
      <trkpt lat="43.61744" lon="6.83875">
        <ele>79</ele>
        <time>2017-10-14T06:40:39.000Z</time>
      </trkpt>
      <trkpt lat="43.61742" lon="6.83877">
        <ele>80</ele>
        <time>2017-10-14T06:40:40.000Z</time>
      </trkpt>
      <trkpt lat="43.61741" lon="6.83878">
        <ele>81</ele>
        <time>2017-10-14T06:40:41.000Z</time>
      </trkpt>
      <trkpt lat="43.6174" lon="6.83878">
        <ele>81</ele>
        <time>2017-10-14T06:40:42.000Z</time>
      </trkpt>
      <trkpt lat="43.61739" lon="6.83879">
        <ele>81</ele>
        <time>2017-10-14T06:40:43.000Z</time>
      </trkpt>
      <trkpt lat="43.61737" lon="6.8388">
        <ele>81</ele>
        <time>2017-10-14T06:40:44.000Z</time>
      </trkpt>
      <trkpt lat="43.61736" lon="6.83881">
        <ele>81</ele>
        <time>2017-10-14T06:40:45.000Z</time>
      </trkpt>
      <trkpt lat="43.61735" lon="6.83881">
        <ele>81</ele>
        <time>2017-10-14T06:40:46.000Z</time>
      </trkpt>
      <trkpt lat="43.61733" lon="6.83881">
        <ele>81</ele>
        <time>2017-10-14T06:40:47.000Z</time>
      </trkpt>
      <trkpt lat="43.61732" lon="6.8388">
        <ele>81</ele>
        <time>2017-10-14T06:40:48.000Z</time>
      </trkpt>
      <trkpt lat="43.61731" lon="6.8388">
        <ele>81</ele>
        <time>2017-10-14T06:40:49.000Z</time>
      </trkpt>
      <trkpt lat="43.61729" lon="6.8388">
        <ele>81</ele>
        <time>2017-10-14T06:40:50.000Z</time>
      </trkpt>
      <trkpt lat="43.61727" lon="6.8388">
        <ele>81</ele>
        <time>2017-10-14T06:40:51.000Z</time>
      </trkpt>
      <trkpt lat="43.61725" lon="6.8388">
        <ele>80</ele>
        <time>2017-10-14T06:40:52.000Z</time>
      </trkpt>
      <trkpt lat="43.61723" lon="6.83881">
        <ele>80</ele>
        <time>2017-10-14T06:40:53.000Z</time>
      </trkpt>
      <trkpt lat="43.61722" lon="6.83882">
        <ele>80</ele>
        <time>2017-10-14T06:40:54.000Z</time>
      </trkpt>
      <trkpt lat="43.61721" lon="6.83882">
        <ele>80</ele>
        <time>2017-10-14T06:40:55.000Z</time>
      </trkpt>
      <trkpt lat="43.61719" lon="6.83883">
        <ele>80</ele>
        <time>2017-10-14T06:40:56.000Z</time>
      </trkpt>
      <trkpt lat="43.61718" lon="6.83884">
        <ele>79</ele>
        <time>2017-10-14T06:40:57.000Z</time>
      </trkpt>
      <trkpt lat="43.61716" lon="6.83886">
        <ele>79</ele>
        <time>2017-10-14T06:40:58.000Z</time>
      </trkpt>
      <trkpt lat="43.61715" lon="6.83887">
        <ele>78</ele>
        <time>2017-10-14T06:40:59.000Z</time>
      </trkpt>
      <trkpt lat="43.61713" lon="6.83887">
        <ele>78</ele>
        <time>2017-10-14T06:41:00.000Z</time>
      </trkpt>
      <trkpt lat="43.61712" lon="6.83888">
        <ele>78</ele>
        <time>2017-10-14T06:41:01.000Z</time>
      </trkpt>
      <trkpt lat="43.6171" lon="6.83889">
        <ele>77</ele>
        <time>2017-10-14T06:41:02.000Z</time>
      </trkpt>
      <trkpt lat="43.61708" lon="6.8389">
        <ele>76</ele>
        <time>2017-10-14T06:41:03.000Z</time>
      </trkpt>
      <trkpt lat="43.61707" lon="6.83891">
        <ele>78</ele>
        <time>2017-10-14T06:41:04.000Z</time>
      </trkpt>
      <trkpt lat="43.61705" lon="6.83892">
        <ele>78</ele>
        <time>2017-10-14T06:41:05.000Z</time>
      </trkpt>
      <trkpt lat="43.61703" lon="6.83893">
        <ele>78</ele>
        <time>2017-10-14T06:41:06.000Z</time>
      </trkpt>
      <trkpt lat="43.61701" lon="6.83894">
        <ele>77</ele>
        <time>2017-10-14T06:41:07.000Z</time>
      </trkpt>
      <trkpt lat="43.61699" lon="6.83895">
        <ele>77</ele>
        <time>2017-10-14T06:41:08.000Z</time>
      </trkpt>
      <trkpt lat="43.61698" lon="6.83896">
        <ele>77</ele>
        <time>2017-10-14T06:41:09.000Z</time>
      </trkpt>
      <trkpt lat="43.61696" lon="6.83897">
        <ele>78</ele>
        <time>2017-10-14T06:41:10.000Z</time>
      </trkpt>
      <trkpt lat="43.61695" lon="6.83898">
        <ele>78</ele>
        <time>2017-10-14T06:41:11.000Z</time>
      </trkpt>
      <trkpt lat="43.61693" lon="6.83899">
        <ele>80</ele>
        <time>2017-10-14T06:41:12.000Z</time>
      </trkpt>
      <trkpt lat="43.61692" lon="6.839">
        <ele>80</ele>
        <time>2017-10-14T06:41:13.000Z</time>
      </trkpt>
      <trkpt lat="43.6169" lon="6.839">
        <ele>79</ele>
        <time>2017-10-14T06:41:14.000Z</time>
      </trkpt>
      <trkpt lat="43.61688" lon="6.83901">
        <ele>80</ele>
        <time>2017-10-14T06:41:15.000Z</time>
      </trkpt>
      <trkpt lat="43.61686" lon="6.83901">
        <ele>80</ele>
        <time>2017-10-14T06:41:16.000Z</time>
      </trkpt>
      <trkpt lat="43.61684" lon="6.83902">
        <ele>81</ele>
        <time>2017-10-14T06:41:17.000Z</time>
      </trkpt>
      <trkpt lat="43.61681" lon="6.83903">
        <ele>81</ele>
        <time>2017-10-14T06:41:18.000Z</time>
      </trkpt>
      <trkpt lat="43.61679" lon="6.83904">
        <ele>81</ele>
        <time>2017-10-14T06:41:19.000Z</time>
      </trkpt>
      <trkpt lat="43.61677" lon="6.83904">
        <ele>80</ele>
        <time>2017-10-14T06:41:20.000Z</time>
      </trkpt>
      <trkpt lat="43.61675" lon="6.83905">
        <ele>81</ele>
        <time>2017-10-14T06:41:21.000Z</time>
      </trkpt>
      <trkpt lat="43.61673" lon="6.83906">
        <ele>80</ele>
        <time>2017-10-14T06:41:22.000Z</time>
      </trkpt>
      <trkpt lat="43.61671" lon="6.83908">
        <ele>80</ele>
        <time>2017-10-14T06:41:23.000Z</time>
      </trkpt>
      <trkpt lat="43.6167" lon="6.83909">
        <ele>79</ele>
        <time>2017-10-14T06:41:24.000Z</time>
      </trkpt>
      <trkpt lat="43.61668" lon="6.8391">
        <ele>79</ele>
        <time>2017-10-14T06:41:25.000Z</time>
      </trkpt>
      <trkpt lat="43.61666" lon="6.83911">
        <ele>79</ele>
        <time>2017-10-14T06:41:26.000Z</time>
      </trkpt>
      <trkpt lat="43.61664" lon="6.83912">
        <ele>79</ele>
        <time>2017-10-14T06:41:27.000Z</time>
      </trkpt>
      <trkpt lat="43.61663" lon="6.83913">
        <ele>80</ele>
        <time>2017-10-14T06:41:28.000Z</time>
      </trkpt>
      <trkpt lat="43.61661" lon="6.83915">
        <ele>80</ele>
        <time>2017-10-14T06:41:29.000Z</time>
      </trkpt>
      <trkpt lat="43.6166" lon="6.83917">
        <ele>80</ele>
        <time>2017-10-14T06:41:30.000Z</time>
      </trkpt>
      <trkpt lat="43.61659" lon="6.83918">
        <ele>80</ele>
        <time>2017-10-14T06:41:31.000Z</time>
      </trkpt>
      <trkpt lat="43.61658" lon="6.8392">
        <ele>80</ele>
        <time>2017-10-14T06:41:32.000Z</time>
      </trkpt>
      <trkpt lat="43.61657" lon="6.83921">
        <ele>80</ele>
        <time>2017-10-14T06:41:33.000Z</time>
      </trkpt>
      <trkpt lat="43.61655" lon="6.83923">
        <ele>80</ele>
        <time>2017-10-14T06:41:34.000Z</time>
      </trkpt>
      <trkpt lat="43.61654" lon="6.83924">
        <ele>80</ele>
        <time>2017-10-14T06:41:35.000Z</time>
      </trkpt>
      <trkpt lat="43.61653" lon="6.83925">
        <ele>80</ele>
        <time>2017-10-14T06:41:36.000Z</time>
      </trkpt>
      <trkpt lat="43.61651" lon="6.83926">
        <ele>81</ele>
        <time>2017-10-14T06:41:37.000Z</time>
      </trkpt>
      <trkpt lat="43.6165" lon="6.83928">
        <ele>81</ele>
        <time>2017-10-14T06:41:38.000Z</time>
      </trkpt>
      <trkpt lat="43.6165" lon="6.83929">
        <ele>81</ele>
        <time>2017-10-14T06:41:39.000Z</time>
      </trkpt>
      <trkpt lat="43.61649" lon="6.83931">
        <ele>81</ele>
        <time>2017-10-14T06:41:40.000Z</time>
      </trkpt>
      <trkpt lat="43.61648" lon="6.83933">
        <ele>80</ele>
        <time>2017-10-14T06:41:41.000Z</time>
      </trkpt>
      <trkpt lat="43.61647" lon="6.83934">
        <ele>80</ele>
        <time>2017-10-14T06:41:42.000Z</time>
      </trkpt>
      <trkpt lat="43.61646" lon="6.83935">
        <ele>80</ele>
        <time>2017-10-14T06:41:43.000Z</time>
      </trkpt>
      <trkpt lat="43.61645" lon="6.83935">
        <ele>80</ele>
        <time>2017-10-14T06:41:44.000Z</time>
      </trkpt>
      <trkpt lat="43.61644" lon="6.83936">
        <ele>80</ele>
        <time>2017-10-14T06:41:45.000Z</time>
      </trkpt>
      <trkpt lat="43.61642" lon="6.83937">
        <ele>79</ele>
        <time>2017-10-14T06:41:46.000Z</time>
      </trkpt>
      <trkpt lat="43.61641" lon="6.83937">
        <ele>79</ele>
        <time>2017-10-14T06:41:47.000Z</time>
      </trkpt>
      <trkpt lat="43.61639" lon="6.83938">
        <ele>79</ele>
        <time>2017-10-14T06:41:48.000Z</time>
      </trkpt>
      <trkpt lat="43.61638" lon="6.83938">
        <ele>79</ele>
        <time>2017-10-14T06:41:49.000Z</time>
      </trkpt>
      <trkpt lat="43.61637" lon="6.83938">
        <ele>80</ele>
        <time>2017-10-14T06:41:50.000Z</time>
      </trkpt>
      <trkpt lat="43.61636" lon="6.83938">
        <ele>79</ele>
        <time>2017-10-14T06:41:51.000Z</time>
      </trkpt>
      <trkpt lat="43.61635" lon="6.83938">
        <ele>79</ele>
        <time>2017-10-14T06:41:52.000Z</time>
      </trkpt>
      <trkpt lat="43.61634" lon="6.83939">
        <ele>79</ele>
        <time>2017-10-14T06:41:53.000Z</time>
      </trkpt>
      <trkpt lat="43.61633" lon="6.8394">
        <ele>79</ele>
        <time>2017-10-14T06:41:54.000Z</time>
      </trkpt>
      <trkpt lat="43.61631" lon="6.83941">
        <ele>79</ele>
        <time>2017-10-14T06:41:55.000Z</time>
      </trkpt>
      <trkpt lat="43.6163" lon="6.83942">
        <ele>79</ele>
        <time>2017-10-14T06:41:56.000Z</time>
      </trkpt>
      <trkpt lat="43.61629" lon="6.83943">
        <ele>79</ele>
        <time>2017-10-14T06:41:57.000Z</time>
      </trkpt>
      <trkpt lat="43.61628" lon="6.83944">
        <ele>79</ele>
        <time>2017-10-14T06:41:58.000Z</time>
      </trkpt>
      <trkpt lat="43.61627" lon="6.83945">
        <ele>78</ele>
        <time>2017-10-14T06:41:59.000Z</time>
      </trkpt>
      <trkpt lat="43.61627" lon="6.83946">
        <ele>78</ele>
        <time>2017-10-14T06:42:00.000Z</time>
      </trkpt>
      <trkpt lat="43.61626" lon="6.83947">
        <ele>77</ele>
        <time>2017-10-14T06:42:01.000Z</time>
      </trkpt>
      <trkpt lat="43.61625" lon="6.83947">
        <ele>77</ele>
        <time>2017-10-14T06:42:02.000Z</time>
      </trkpt>
      <trkpt lat="43.61624" lon="6.83947">
        <ele>77</ele>
        <time>2017-10-14T06:42:03.000Z</time>
      </trkpt>
      <trkpt lat="43.61623" lon="6.83947">
        <ele>76</ele>
        <time>2017-10-14T06:42:04.000Z</time>
      </trkpt>
      <trkpt lat="43.61623" lon="6.83948">
        <ele>76</ele>
        <time>2017-10-14T06:42:05.000Z</time>
      </trkpt>
      <trkpt lat="43.61622" lon="6.83947">
        <ele>76</ele>
        <time>2017-10-14T06:42:06.000Z</time>
      </trkpt>
      <trkpt lat="43.61621" lon="6.83947">
        <ele>75</ele>
        <time>2017-10-14T06:42:07.000Z</time>
      </trkpt>
      <trkpt lat="43.61621" lon="6.83946">
        <ele>75</ele>
        <time>2017-10-14T06:42:08.000Z</time>
      </trkpt>
      <trkpt lat="43.6162" lon="6.83946">
        <ele>74</ele>
        <time>2017-10-14T06:42:09.000Z</time>
      </trkpt>
      <trkpt lat="43.6162" lon="6.83945">
        <ele>74</ele>
        <time>2017-10-14T06:42:10.000Z</time>
      </trkpt>
      <trkpt lat="43.61619" lon="6.83944">
        <ele>74</ele>
        <time>2017-10-14T06:42:11.000Z</time>
      </trkpt>
      <trkpt lat="43.61619" lon="6.83943">
        <ele>73</ele>
        <time>2017-10-14T06:42:12.000Z</time>
      </trkpt>
      <trkpt lat="43.61618" lon="6.83943">
        <ele>73</ele>
        <time>2017-10-14T06:42:13.000Z</time>
      </trkpt>
      <trkpt lat="43.61617" lon="6.83943">
        <ele>72</ele>
        <time>2017-10-14T06:42:14.000Z</time>
      </trkpt>
      <trkpt lat="43.61616" lon="6.83942">
        <ele>71</ele>
        <time>2017-10-14T06:42:15.000Z</time>
      </trkpt>
      <trkpt lat="43.61616" lon="6.83942">
        <ele>71</ele>
        <time>2017-10-14T06:42:16.000Z</time>
      </trkpt>
      <trkpt lat="43.61615" lon="6.83943">
        <ele>71</ele>
        <time>2017-10-14T06:42:17.000Z</time>
      </trkpt>
      <trkpt lat="43.61614" lon="6.83943">
        <ele>70</ele>
        <time>2017-10-14T06:42:18.000Z</time>
      </trkpt>
      <trkpt lat="43.61613" lon="6.83944">
        <ele>70</ele>
        <time>2017-10-14T06:42:19.000Z</time>
      </trkpt>
      <trkpt lat="43.61612" lon="6.83944">
        <ele>70</ele>
        <time>2017-10-14T06:42:20.000Z</time>
      </trkpt>
      <trkpt lat="43.61611" lon="6.83945">
        <ele>70</ele>
        <time>2017-10-14T06:42:21.000Z</time>
      </trkpt>
      <trkpt lat="43.6161" lon="6.83946">
        <ele>70</ele>
        <time>2017-10-14T06:42:22.000Z</time>
      </trkpt>
      <trkpt lat="43.61609" lon="6.83947">
        <ele>70</ele>
        <time>2017-10-14T06:42:23.000Z</time>
      </trkpt>
      <trkpt lat="43.61608" lon="6.83948">
        <ele>70</ele>
        <time>2017-10-14T06:42:24.000Z</time>
      </trkpt>
      <trkpt lat="43.61607" lon="6.8395">
        <ele>69</ele>
        <time>2017-10-14T06:42:25.000Z</time>
      </trkpt>
      <trkpt lat="43.61606" lon="6.83951">
        <ele>69</ele>
        <time>2017-10-14T06:42:26.000Z</time>
      </trkpt>
      <trkpt lat="43.61605" lon="6.83952">
        <ele>69</ele>
        <time>2017-10-14T06:42:27.000Z</time>
      </trkpt>
      <trkpt lat="43.61604" lon="6.83953">
        <ele>69</ele>
        <time>2017-10-14T06:42:28.000Z</time>
      </trkpt>
      <trkpt lat="43.61603" lon="6.83955">
        <ele>69</ele>
        <time>2017-10-14T06:42:29.000Z</time>
      </trkpt>
      <trkpt lat="43.61602" lon="6.83956">
        <ele>70</ele>
        <time>2017-10-14T06:42:30.000Z</time>
      </trkpt>
      <trkpt lat="43.61601" lon="6.83958">
        <ele>70</ele>
        <time>2017-10-14T06:42:31.000Z</time>
      </trkpt>
      <trkpt lat="43.616" lon="6.83959">
        <ele>71</ele>
        <time>2017-10-14T06:42:32.000Z</time>
      </trkpt>
      <trkpt lat="43.616" lon="6.83962">
        <ele>73</ele>
        <time>2017-10-14T06:42:33.000Z</time>
      </trkpt>
      <trkpt lat="43.61599" lon="6.83965">
        <ele>73</ele>
        <time>2017-10-14T06:42:34.000Z</time>
      </trkpt>
      <trkpt lat="43.61598" lon="6.83968">
        <ele>73</ele>
        <time>2017-10-14T06:42:35.000Z</time>
      </trkpt>
      <trkpt lat="43.61598" lon="6.8397">
        <ele>74</ele>
        <time>2017-10-14T06:42:36.000Z</time>
      </trkpt>
      <trkpt lat="43.61597" lon="6.83973">
        <ele>74</ele>
        <time>2017-10-14T06:42:37.000Z</time>
      </trkpt>
      <trkpt lat="43.61596" lon="6.83975">
        <ele>74</ele>
        <time>2017-10-14T06:42:38.000Z</time>
      </trkpt>
      <trkpt lat="43.61594" lon="6.83977">
        <ele>74</ele>
        <time>2017-10-14T06:42:39.000Z</time>
      </trkpt>
      <trkpt lat="43.61593" lon="6.83979">
        <ele>73</ele>
        <time>2017-10-14T06:42:40.000Z</time>
      </trkpt>
      <trkpt lat="43.61591" lon="6.83981">
        <ele>73</ele>
        <time>2017-10-14T06:42:41.000Z</time>
      </trkpt>
      <trkpt lat="43.61589" lon="6.83983">
        <ele>73</ele>
        <time>2017-10-14T06:42:42.000Z</time>
      </trkpt>
      <trkpt lat="43.61587" lon="6.83986">
        <ele>73</ele>
        <time>2017-10-14T06:42:43.000Z</time>
      </trkpt>
      <trkpt lat="43.61586" lon="6.83988">
        <ele>72</ele>
        <time>2017-10-14T06:42:44.000Z</time>
      </trkpt>
      <trkpt lat="43.61585" lon="6.83991">
        <ele>72</ele>
        <time>2017-10-14T06:42:45.000Z</time>
      </trkpt>
      <trkpt lat="43.61584" lon="6.83993">
        <ele>72</ele>
        <time>2017-10-14T06:42:46.000Z</time>
      </trkpt>
      <trkpt lat="43.61582" lon="6.83995">
        <ele>71</ele>
        <time>2017-10-14T06:42:47.000Z</time>
      </trkpt>
      <trkpt lat="43.61581" lon="6.83997">
        <ele>71</ele>
        <time>2017-10-14T06:42:48.000Z</time>
      </trkpt>
      <trkpt lat="43.61579" lon="6.84">
        <ele>72</ele>
        <time>2017-10-14T06:42:49.000Z</time>
      </trkpt>
      <trkpt lat="43.61577" lon="6.84003">
        <ele>73</ele>
        <time>2017-10-14T06:42:50.000Z</time>
      </trkpt>
      <trkpt lat="43.61575" lon="6.84006">
        <ele>73</ele>
        <time>2017-10-14T06:42:51.000Z</time>
      </trkpt>
      <trkpt lat="43.61573" lon="6.84009">
        <ele>74</ele>
        <time>2017-10-14T06:42:52.000Z</time>
      </trkpt>
      <trkpt lat="43.6157" lon="6.84012">
        <ele>75</ele>
        <time>2017-10-14T06:42:53.000Z</time>
      </trkpt>
      <trkpt lat="43.61568" lon="6.84014">
        <ele>74</ele>
        <time>2017-10-14T06:42:54.000Z</time>
      </trkpt>
      <trkpt lat="43.61566" lon="6.84018">
        <ele>74</ele>
        <time>2017-10-14T06:42:55.000Z</time>
      </trkpt>
      <trkpt lat="43.61564" lon="6.8402">
        <ele>74</ele>
        <time>2017-10-14T06:42:56.000Z</time>
      </trkpt>
      <trkpt lat="43.61562" lon="6.84024">
        <ele>75</ele>
        <time>2017-10-14T06:42:57.000Z</time>
      </trkpt>
      <trkpt lat="43.6156" lon="6.84026">
        <ele>77</ele>
        <time>2017-10-14T06:42:58.000Z</time>
      </trkpt>
      <trkpt lat="43.61559" lon="6.84027">
        <ele>77</ele>
        <time>2017-10-14T06:42:59.000Z</time>
      </trkpt>
      <trkpt lat="43.61557" lon="6.84029">
        <ele>78</ele>
        <time>2017-10-14T06:43:00.000Z</time>
      </trkpt>
      <trkpt lat="43.61556" lon="6.84031">
        <ele>79</ele>
        <time>2017-10-14T06:43:01.000Z</time>
      </trkpt>
      <trkpt lat="43.61554" lon="6.84033">
        <ele>78</ele>
        <time>2017-10-14T06:43:02.000Z</time>
      </trkpt>
      <trkpt lat="43.61552" lon="6.84034">
        <ele>78</ele>
        <time>2017-10-14T06:43:03.000Z</time>
      </trkpt>
      <trkpt lat="43.61551" lon="6.84035">
        <ele>79</ele>
        <time>2017-10-14T06:43:04.000Z</time>
      </trkpt>
      <trkpt lat="43.61549" lon="6.84037">
        <ele>79</ele>
        <time>2017-10-14T06:43:05.000Z</time>
      </trkpt>
      <trkpt lat="43.61548" lon="6.84038">
        <ele>79</ele>
        <time>2017-10-14T06:43:06.000Z</time>
      </trkpt>
      <trkpt lat="43.61546" lon="6.84039">
        <ele>79</ele>
        <time>2017-10-14T06:43:07.000Z</time>
      </trkpt>
      <trkpt lat="43.61545" lon="6.8404">
        <ele>81</ele>
        <time>2017-10-14T06:43:08.000Z</time>
      </trkpt>
      <trkpt lat="43.61544" lon="6.84042">
        <ele>80</ele>
        <time>2017-10-14T06:43:09.000Z</time>
      </trkpt>
      <trkpt lat="43.61543" lon="6.84043">
        <ele>80</ele>
        <time>2017-10-14T06:43:10.000Z</time>
      </trkpt>
      <trkpt lat="43.61542" lon="6.84043">
        <ele>80</ele>
        <time>2017-10-14T06:43:11.000Z</time>
      </trkpt>
      <trkpt lat="43.61541" lon="6.84044">
        <ele>81</ele>
        <time>2017-10-14T06:43:12.000Z</time>
      </trkpt>
      <trkpt lat="43.6154" lon="6.84045">
        <ele>81</ele>
        <time>2017-10-14T06:43:13.000Z</time>
      </trkpt>
      <trkpt lat="43.61538" lon="6.84046">
        <ele>81</ele>
        <time>2017-10-14T06:43:14.000Z</time>
      </trkpt>
      <trkpt lat="43.61537" lon="6.84047">
        <ele>81</ele>
        <time>2017-10-14T06:43:15.000Z</time>
      </trkpt>
      <trkpt lat="43.61536" lon="6.84048">
        <ele>82</ele>
        <time>2017-10-14T06:43:16.000Z</time>
      </trkpt>
      <trkpt lat="43.61534" lon="6.8405">
        <ele>83</ele>
        <time>2017-10-14T06:43:17.000Z</time>
      </trkpt>
      <trkpt lat="43.61533" lon="6.84052">
        <ele>83</ele>
        <time>2017-10-14T06:43:18.000Z</time>
      </trkpt>
      <trkpt lat="43.61532" lon="6.84054">
        <ele>83</ele>
        <time>2017-10-14T06:43:19.000Z</time>
      </trkpt>
      <trkpt lat="43.61531" lon="6.84056">
        <ele>84</ele>
        <time>2017-10-14T06:43:20.000Z</time>
      </trkpt>
      <trkpt lat="43.6153" lon="6.84057">
        <ele>84</ele>
        <time>2017-10-14T06:43:21.000Z</time>
      </trkpt>
      <trkpt lat="43.61529" lon="6.84059">
        <ele>85</ele>
        <time>2017-10-14T06:43:22.000Z</time>
      </trkpt>
      <trkpt lat="43.61528" lon="6.8406">
        <ele>85</ele>
        <time>2017-10-14T06:43:23.000Z</time>
      </trkpt>
      <trkpt lat="43.61527" lon="6.84061">
        <ele>86</ele>
        <time>2017-10-14T06:43:24.000Z</time>
      </trkpt>
      <trkpt lat="43.61526" lon="6.84063">
        <ele>86</ele>
        <time>2017-10-14T06:43:25.000Z</time>
      </trkpt>
      <trkpt lat="43.61524" lon="6.84065">
        <ele>86</ele>
        <time>2017-10-14T06:43:26.000Z</time>
      </trkpt>
      <trkpt lat="43.61522" lon="6.84067">
        <ele>85</ele>
        <time>2017-10-14T06:43:27.000Z</time>
      </trkpt>
      <trkpt lat="43.6152" lon="6.84068">
        <ele>85</ele>
        <time>2017-10-14T06:43:28.000Z</time>
      </trkpt>
      <trkpt lat="43.61519" lon="6.84068">
        <ele>86</ele>
        <time>2017-10-14T06:43:29.000Z</time>
      </trkpt>
      <trkpt lat="43.61517" lon="6.84069">
        <ele>85</ele>
        <time>2017-10-14T06:43:30.000Z</time>
      </trkpt>
      <trkpt lat="43.61516" lon="6.84069">
        <ele>84</ele>
        <time>2017-10-14T06:43:31.000Z</time>
      </trkpt>
      <trkpt lat="43.61515" lon="6.84069">
        <ele>85</ele>
        <time>2017-10-14T06:43:32.000Z</time>
      </trkpt>
      <trkpt lat="43.61514" lon="6.84069">
        <ele>85</ele>
        <time>2017-10-14T06:43:33.000Z</time>
      </trkpt>
      <trkpt lat="43.61513" lon="6.84069">
        <ele>86</ele>
        <time>2017-10-14T06:43:34.000Z</time>
      </trkpt>
      <trkpt lat="43.61512" lon="6.84069">
        <ele>86</ele>
        <time>2017-10-14T06:43:35.000Z</time>
      </trkpt>
      <trkpt lat="43.6151" lon="6.84069">
        <ele>88</ele>
        <time>2017-10-14T06:43:36.000Z</time>
      </trkpt>
      <trkpt lat="43.61509" lon="6.84068">
        <ele>89</ele>
        <time>2017-10-14T06:43:37.000Z</time>
      </trkpt>
      <trkpt lat="43.61508" lon="6.84068">
        <ele>90</ele>
        <time>2017-10-14T06:43:38.000Z</time>
      </trkpt>
      <trkpt lat="43.61507" lon="6.84068">
        <ele>91</ele>
        <time>2017-10-14T06:43:39.000Z</time>
      </trkpt>
      <trkpt lat="43.61506" lon="6.84068">
        <ele>92</ele>
        <time>2017-10-14T06:43:40.000Z</time>
      </trkpt>
      <trkpt lat="43.61505" lon="6.84067">
        <ele>92</ele>
        <time>2017-10-14T06:43:41.000Z</time>
      </trkpt>
      <trkpt lat="43.61504" lon="6.84067">
        <ele>92</ele>
        <time>2017-10-14T06:43:42.000Z</time>
      </trkpt>
      <trkpt lat="43.61503" lon="6.84066">
        <ele>94</ele>
        <time>2017-10-14T06:43:43.000Z</time>
      </trkpt>
      <trkpt lat="43.61502" lon="6.84066">
        <ele>95</ele>
        <time>2017-10-14T06:43:44.000Z</time>
      </trkpt>
      <trkpt lat="43.61501" lon="6.84065">
        <ele>95</ele>
        <time>2017-10-14T06:43:45.000Z</time>
      </trkpt>
      <trkpt lat="43.615" lon="6.84065">
        <ele>97</ele>
        <time>2017-10-14T06:43:46.000Z</time>
      </trkpt>
      <trkpt lat="43.61499" lon="6.84065">
        <ele>98</ele>
        <time>2017-10-14T06:43:47.000Z</time>
      </trkpt>
      <trkpt lat="43.61498" lon="6.84065">
        <ele>99</ele>
        <time>2017-10-14T06:43:48.000Z</time>
      </trkpt>
      <trkpt lat="43.61497" lon="6.84065">
        <ele>99</ele>
        <time>2017-10-14T06:43:49.000Z</time>
      </trkpt>
      <trkpt lat="43.61495" lon="6.84064">
        <ele>100</ele>
        <time>2017-10-14T06:43:50.000Z</time>
      </trkpt>
      <trkpt lat="43.61494" lon="6.84063">
        <ele>101</ele>
        <time>2017-10-14T06:43:51.000Z</time>
      </trkpt>
      <trkpt lat="43.61493" lon="6.84062">
        <ele>101</ele>
        <time>2017-10-14T06:43:52.000Z</time>
      </trkpt>
      <trkpt lat="43.61492" lon="6.84062">
        <ele>102</ele>
        <time>2017-10-14T06:43:53.000Z</time>
      </trkpt>
      <trkpt lat="43.61491" lon="6.84062">
        <ele>102</ele>
        <time>2017-10-14T06:43:54.000Z</time>
      </trkpt>
      <trkpt lat="43.61489" lon="6.84061">
        <ele>102</ele>
        <time>2017-10-14T06:43:55.000Z</time>
      </trkpt>
      <trkpt lat="43.61488" lon="6.8406">
        <ele>102</ele>
        <time>2017-10-14T06:43:56.000Z</time>
      </trkpt>
      <trkpt lat="43.61486" lon="6.8406">
        <ele>102</ele>
        <time>2017-10-14T06:43:57.000Z</time>
      </trkpt>
      <trkpt lat="43.61485" lon="6.8406">
        <ele>101</ele>
        <time>2017-10-14T06:43:58.000Z</time>
      </trkpt>
      <trkpt lat="43.61484" lon="6.8406">
        <ele>103</ele>
        <time>2017-10-14T06:43:59.000Z</time>
      </trkpt>
      <trkpt lat="43.61483" lon="6.8406">
        <ele>102</ele>
        <time>2017-10-14T06:44:00.000Z</time>
      </trkpt>
      <trkpt lat="43.61481" lon="6.84059">
        <ele>101</ele>
        <time>2017-10-14T06:44:01.000Z</time>
      </trkpt>
      <trkpt lat="43.61479" lon="6.84058">
        <ele>101</ele>
        <time>2017-10-14T06:44:02.000Z</time>
      </trkpt>
      <trkpt lat="43.61477" lon="6.84058">
        <ele>101</ele>
        <time>2017-10-14T06:44:03.000Z</time>
      </trkpt>
      <trkpt lat="43.61476" lon="6.84057">
        <ele>101</ele>
        <time>2017-10-14T06:44:04.000Z</time>
      </trkpt>
      <trkpt lat="43.61475" lon="6.84056">
        <ele>101</ele>
        <time>2017-10-14T06:44:05.000Z</time>
      </trkpt>
      <trkpt lat="43.61473" lon="6.84056">
        <ele>98</ele>
        <time>2017-10-14T06:44:06.000Z</time>
      </trkpt>
      <trkpt lat="43.61472" lon="6.84055">
        <ele>98</ele>
        <time>2017-10-14T06:44:07.000Z</time>
      </trkpt>
      <trkpt lat="43.61471" lon="6.84055">
        <ele>98</ele>
        <time>2017-10-14T06:44:08.000Z</time>
      </trkpt>
      <trkpt lat="43.6147" lon="6.84054">
        <ele>97</ele>
        <time>2017-10-14T06:44:09.000Z</time>
      </trkpt>
      <trkpt lat="43.61469" lon="6.84053">
        <ele>97</ele>
        <time>2017-10-14T06:44:10.000Z</time>
      </trkpt>
      <trkpt lat="43.61468" lon="6.84052">
        <ele>96</ele>
        <time>2017-10-14T06:44:11.000Z</time>
      </trkpt>
      <trkpt lat="43.61466" lon="6.84051">
        <ele>93</ele>
        <time>2017-10-14T06:44:12.000Z</time>
      </trkpt>
      <trkpt lat="43.61465" lon="6.8405">
        <ele>89</ele>
        <time>2017-10-14T06:44:13.000Z</time>
      </trkpt>
      <trkpt lat="43.61463" lon="6.84049">
        <ele>90</ele>
        <time>2017-10-14T06:44:14.000Z</time>
      </trkpt>
      <trkpt lat="43.61462" lon="6.84048">
        <ele>89</ele>
        <time>2017-10-14T06:44:15.000Z</time>
      </trkpt>
      <trkpt lat="43.61461" lon="6.84048">
        <ele>89</ele>
        <time>2017-10-14T06:44:16.000Z</time>
      </trkpt>
      <trkpt lat="43.6146" lon="6.84047">
        <ele>89</ele>
        <time>2017-10-14T06:44:17.000Z</time>
      </trkpt>
      <trkpt lat="43.61459" lon="6.84046">
        <ele>88</ele>
        <time>2017-10-14T06:44:18.000Z</time>
      </trkpt>
      <trkpt lat="43.61457" lon="6.84045">
        <ele>87</ele>
        <time>2017-10-14T06:44:19.000Z</time>
      </trkpt>
      <trkpt lat="43.61456" lon="6.84044">
        <ele>88</ele>
        <time>2017-10-14T06:44:20.000Z</time>
      </trkpt>
      <trkpt lat="43.61455" lon="6.84043">
        <ele>85</ele>
        <time>2017-10-14T06:44:21.000Z</time>
      </trkpt>
      <trkpt lat="43.61454" lon="6.84042">
        <ele>82</ele>
        <time>2017-10-14T06:44:22.000Z</time>
      </trkpt>
      <trkpt lat="43.61453" lon="6.84041">
        <ele>82</ele>
        <time>2017-10-14T06:44:23.000Z</time>
      </trkpt>
      <trkpt lat="43.61452" lon="6.8404">
        <ele>81</ele>
        <time>2017-10-14T06:44:24.000Z</time>
      </trkpt>
      <trkpt lat="43.61451" lon="6.84039">
        <ele>80</ele>
        <time>2017-10-14T06:44:25.000Z</time>
      </trkpt>
      <trkpt lat="43.61451" lon="6.84038">
        <ele>78</ele>
        <time>2017-10-14T06:44:26.000Z</time>
      </trkpt>
      <trkpt lat="43.6145" lon="6.84037">
        <ele>78</ele>
        <time>2017-10-14T06:44:27.000Z</time>
      </trkpt>
      <trkpt lat="43.61449" lon="6.84036">
        <ele>78</ele>
        <time>2017-10-14T06:44:28.000Z</time>
      </trkpt>
      <trkpt lat="43.61448" lon="6.84035">
        <ele>77</ele>
        <time>2017-10-14T06:44:29.000Z</time>
      </trkpt>
      <trkpt lat="43.61448" lon="6.84034">
        <ele>77</ele>
        <time>2017-10-14T06:44:30.000Z</time>
      </trkpt>
      <trkpt lat="43.61447" lon="6.84034">
        <ele>78</ele>
        <time>2017-10-14T06:44:31.000Z</time>
      </trkpt>
      <trkpt lat="43.61447" lon="6.84033">
        <ele>77</ele>
        <time>2017-10-14T06:44:32.000Z</time>
      </trkpt>
      <trkpt lat="43.61447" lon="6.84032">
        <ele>77</ele>
        <time>2017-10-14T06:44:33.000Z</time>
      </trkpt>
      <trkpt lat="43.61447" lon="6.84032">
        <ele>77</ele>
        <time>2017-10-14T06:44:34.000Z</time>
      </trkpt>
      <trkpt lat="43.61446" lon="6.84031">
        <ele>77</ele>
        <time>2017-10-14T06:44:35.000Z</time>
      </trkpt>
      <trkpt lat="43.61446" lon="6.84031">
        <ele>78</ele>
        <time>2017-10-14T06:44:36.000Z</time>
      </trkpt>
      <trkpt lat="43.61446" lon="6.8403">
        <ele>78</ele>
        <time>2017-10-14T06:44:37.000Z</time>
      </trkpt>
      <trkpt lat="43.61445" lon="6.8403">
        <ele>78</ele>
        <time>2017-10-14T06:44:38.000Z</time>
      </trkpt>
      <trkpt lat="43.61445" lon="6.8403">
        <ele>79</ele>
        <time>2017-10-14T06:44:39.000Z</time>
      </trkpt>
      <trkpt lat="43.61444" lon="6.84029">
        <ele>79</ele>
        <time>2017-10-14T06:44:40.000Z</time>
      </trkpt>
      <trkpt lat="43.61443" lon="6.84029">
        <ele>79</ele>
        <time>2017-10-14T06:44:41.000Z</time>
      </trkpt>
      <trkpt lat="43.61443" lon="6.84029">
        <ele>78</ele>
        <time>2017-10-14T06:44:42.000Z</time>
      </trkpt>
      <trkpt lat="43.61443" lon="6.84028">
        <ele>78</ele>
        <time>2017-10-14T06:44:43.000Z</time>
      </trkpt>
      <trkpt lat="43.61442" lon="6.84026">
        <ele>78</ele>
        <time>2017-10-14T06:44:44.000Z</time>
      </trkpt>
      <trkpt lat="43.61441" lon="6.84025">
        <ele>78</ele>
        <time>2017-10-14T06:44:45.000Z</time>
      </trkpt>
      <trkpt lat="43.61441" lon="6.84023">
        <ele>78</ele>
        <time>2017-10-14T06:44:46.000Z</time>
      </trkpt>
      <trkpt lat="43.6144" lon="6.84021">
        <ele>78</ele>
        <time>2017-10-14T06:44:47.000Z</time>
      </trkpt>
      <trkpt lat="43.6144" lon="6.84019">
        <ele>78</ele>
        <time>2017-10-14T06:44:48.000Z</time>
      </trkpt>
      <trkpt lat="43.61439" lon="6.84017">
        <ele>77</ele>
        <time>2017-10-14T06:44:49.000Z</time>
      </trkpt>
      <trkpt lat="43.61439" lon="6.84015">
        <ele>77</ele>
        <time>2017-10-14T06:44:50.000Z</time>
      </trkpt>
      <trkpt lat="43.61439" lon="6.84012">
        <ele>77</ele>
        <time>2017-10-14T06:44:51.000Z</time>
      </trkpt>
      <trkpt lat="43.61439" lon="6.8401">
        <ele>77</ele>
        <time>2017-10-14T06:44:52.000Z</time>
      </trkpt>
      <trkpt lat="43.61439" lon="6.84007">
        <ele>77</ele>
        <time>2017-10-14T06:44:53.000Z</time>
      </trkpt>
      <trkpt lat="43.61439" lon="6.84005">
        <ele>76</ele>
        <time>2017-10-14T06:44:54.000Z</time>
      </trkpt>
      <trkpt lat="43.61439" lon="6.84003">
        <ele>76</ele>
        <time>2017-10-14T06:44:55.000Z</time>
      </trkpt>
      <trkpt lat="43.61438" lon="6.84001">
        <ele>76</ele>
        <time>2017-10-14T06:44:56.000Z</time>
      </trkpt>
      <trkpt lat="43.61438" lon="6.83999">
        <ele>76</ele>
        <time>2017-10-14T06:44:57.000Z</time>
      </trkpt>
      <trkpt lat="43.61437" lon="6.83997">
        <ele>76</ele>
        <time>2017-10-14T06:44:58.000Z</time>
      </trkpt>
      <trkpt lat="43.61437" lon="6.83994">
        <ele>75</ele>
        <time>2017-10-14T06:44:59.000Z</time>
      </trkpt>
      <trkpt lat="43.61437" lon="6.83991">
        <ele>77</ele>
        <time>2017-10-14T06:45:00.000Z</time>
      </trkpt>
      <trkpt lat="43.61437" lon="6.83988">
        <ele>77</ele>
        <time>2017-10-14T06:45:01.000Z</time>
      </trkpt>
      <trkpt lat="43.61438" lon="6.83985">
        <ele>77</ele>
        <time>2017-10-14T06:45:02.000Z</time>
      </trkpt>
      <trkpt lat="43.61438" lon="6.83983">
        <ele>77</ele>
        <time>2017-10-14T06:45:03.000Z</time>
      </trkpt>
      <trkpt lat="43.61438" lon="6.8398">
        <ele>77</ele>
        <time>2017-10-14T06:45:04.000Z</time>
      </trkpt>
      <trkpt lat="43.61438" lon="6.83978">
        <ele>77</ele>
        <time>2017-10-14T06:45:05.000Z</time>
      </trkpt>
      <trkpt lat="43.61438" lon="6.83976">
        <ele>75</ele>
        <time>2017-10-14T06:45:06.000Z</time>
      </trkpt>
      <trkpt lat="43.61438" lon="6.83974">
        <ele>75</ele>
        <time>2017-10-14T06:45:07.000Z</time>
      </trkpt>
      <trkpt lat="43.61437" lon="6.83971">
        <ele>75</ele>
        <time>2017-10-14T06:45:08.000Z</time>
      </trkpt>
      <trkpt lat="43.61437" lon="6.83969">
        <ele>74</ele>
        <time>2017-10-14T06:45:09.000Z</time>
      </trkpt>
      <trkpt lat="43.61437" lon="6.83967">
        <ele>73</ele>
        <time>2017-10-14T06:45:10.000Z</time>
      </trkpt>
      <trkpt lat="43.61437" lon="6.83965">
        <ele>73</ele>
        <time>2017-10-14T06:45:11.000Z</time>
      </trkpt>
      <trkpt lat="43.61436" lon="6.83964">
        <ele>73</ele>
        <time>2017-10-14T06:45:12.000Z</time>
      </trkpt>
      <trkpt lat="43.61436" lon="6.83962">
        <ele>73</ele>
        <time>2017-10-14T06:45:13.000Z</time>
      </trkpt>
      <trkpt lat="43.61436" lon="6.8396">
        <ele>73</ele>
        <time>2017-10-14T06:45:14.000Z</time>
      </trkpt>
      <trkpt lat="43.61436" lon="6.83958">
        <ele>73</ele>
        <time>2017-10-14T06:45:15.000Z</time>
      </trkpt>
      <trkpt lat="43.61435" lon="6.83956">
        <ele>73</ele>
        <time>2017-10-14T06:45:16.000Z</time>
      </trkpt>
      <trkpt lat="43.61435" lon="6.83954">
        <ele>72</ele>
        <time>2017-10-14T06:45:17.000Z</time>
      </trkpt>
      <trkpt lat="43.61434" lon="6.83952">
        <ele>72</ele>
        <time>2017-10-14T06:45:18.000Z</time>
      </trkpt>
      <trkpt lat="43.61434" lon="6.8395">
        <ele>71</ele>
        <time>2017-10-14T06:45:19.000Z</time>
      </trkpt>
      <trkpt lat="43.61434" lon="6.83949">
        <ele>71</ele>
        <time>2017-10-14T06:45:20.000Z</time>
      </trkpt>
      <trkpt lat="43.61434" lon="6.83947">
        <ele>71</ele>
        <time>2017-10-14T06:45:21.000Z</time>
      </trkpt>
      <trkpt lat="43.61434" lon="6.83944">
        <ele>71</ele>
        <time>2017-10-14T06:45:22.000Z</time>
      </trkpt>
      <trkpt lat="43.61434" lon="6.83941">
        <ele>72</ele>
        <time>2017-10-14T06:45:23.000Z</time>
      </trkpt>
      <trkpt lat="43.61434" lon="6.83938">
        <ele>72</ele>
        <time>2017-10-14T06:45:24.000Z</time>
      </trkpt>
      <trkpt lat="43.61435" lon="6.83936">
        <ele>72</ele>
        <time>2017-10-14T06:45:25.000Z</time>
      </trkpt>
      <trkpt lat="43.61435" lon="6.83934">
        <ele>71</ele>
        <time>2017-10-14T06:45:26.000Z</time>
      </trkpt>
      <trkpt lat="43.61434" lon="6.83932">
        <ele>71</ele>
        <time>2017-10-14T06:45:27.000Z</time>
      </trkpt>
      <trkpt lat="43.61435" lon="6.8393">
        <ele>71</ele>
        <time>2017-10-14T06:45:28.000Z</time>
      </trkpt>
      <trkpt lat="43.61435" lon="6.83927">
        <ele>70</ele>
        <time>2017-10-14T06:45:29.000Z</time>
      </trkpt>
      <trkpt lat="43.61435" lon="6.83925">
        <ele>69</ele>
        <time>2017-10-14T06:45:30.000Z</time>
      </trkpt>
      <trkpt lat="43.61434" lon="6.83922">
        <ele>71</ele>
        <time>2017-10-14T06:45:31.000Z</time>
      </trkpt>
      <trkpt lat="43.61434" lon="6.83919">
        <ele>71</ele>
        <time>2017-10-14T06:45:32.000Z</time>
      </trkpt>
      <trkpt lat="43.61432" lon="6.83916">
        <ele>70</ele>
        <time>2017-10-14T06:45:33.000Z</time>
      </trkpt>
      <trkpt lat="43.6143" lon="6.83913">
        <ele>71</ele>
        <time>2017-10-14T06:45:34.000Z</time>
      </trkpt>
      <trkpt lat="43.61427" lon="6.8391">
        <ele>71</ele>
        <time>2017-10-14T06:45:35.000Z</time>
      </trkpt>
      <trkpt lat="43.61424" lon="6.83908">
        <ele>72</ele>
        <time>2017-10-14T06:45:36.000Z</time>
      </trkpt>
      <trkpt lat="43.61422" lon="6.83907">
        <ele>72</ele>
        <time>2017-10-14T06:45:37.000Z</time>
      </trkpt>
      <trkpt lat="43.6142" lon="6.83906">
        <ele>71</ele>
        <time>2017-10-14T06:45:38.000Z</time>
      </trkpt>
      <trkpt lat="43.61418" lon="6.83905">
        <ele>70</ele>
        <time>2017-10-14T06:45:39.000Z</time>
      </trkpt>
      <trkpt lat="43.61416" lon="6.83905">
        <ele>71</ele>
        <time>2017-10-14T06:45:40.000Z</time>
      </trkpt>
      <trkpt lat="43.61413" lon="6.83904">
        <ele>70</ele>
        <time>2017-10-14T06:45:41.000Z</time>
      </trkpt>
      <trkpt lat="43.61412" lon="6.83904">
        <ele>70</ele>
        <time>2017-10-14T06:45:42.000Z</time>
      </trkpt>
      <trkpt lat="43.6141" lon="6.83905">
        <ele>69</ele>
        <time>2017-10-14T06:45:43.000Z</time>
      </trkpt>
      <trkpt lat="43.61408" lon="6.83905">
        <ele>70</ele>
        <time>2017-10-14T06:45:44.000Z</time>
      </trkpt>
      <trkpt lat="43.61406" lon="6.83905">
        <ele>69</ele>
        <time>2017-10-14T06:45:45.000Z</time>
      </trkpt>
      <trkpt lat="43.61404" lon="6.83905">
        <ele>69</ele>
        <time>2017-10-14T06:45:46.000Z</time>
      </trkpt>
      <trkpt lat="43.61402" lon="6.83906">
        <ele>69</ele>
        <time>2017-10-14T06:45:47.000Z</time>
      </trkpt>
      <trkpt lat="43.614" lon="6.83907">
        <ele>68</ele>
        <time>2017-10-14T06:45:48.000Z</time>
      </trkpt>
      <trkpt lat="43.61398" lon="6.83908">
        <ele>68</ele>
        <time>2017-10-14T06:45:49.000Z</time>
      </trkpt>
      <trkpt lat="43.61396" lon="6.8391">
        <ele>68</ele>
        <time>2017-10-14T06:45:50.000Z</time>
      </trkpt>
      <trkpt lat="43.61394" lon="6.83912">
        <ele>68</ele>
        <time>2017-10-14T06:45:51.000Z</time>
      </trkpt>
      <trkpt lat="43.61393" lon="6.83913">
        <ele>68</ele>
        <time>2017-10-14T06:45:52.000Z</time>
      </trkpt>
      <trkpt lat="43.61392" lon="6.83915">
        <ele>68</ele>
        <time>2017-10-14T06:45:53.000Z</time>
      </trkpt>
      <trkpt lat="43.61391" lon="6.83916">
        <ele>68</ele>
        <time>2017-10-14T06:45:54.000Z</time>
      </trkpt>
      <trkpt lat="43.61389" lon="6.83918">
        <ele>68</ele>
        <time>2017-10-14T06:45:55.000Z</time>
      </trkpt>
      <trkpt lat="43.61388" lon="6.8392">
        <ele>69</ele>
        <time>2017-10-14T06:45:56.000Z</time>
      </trkpt>
      <trkpt lat="43.61386" lon="6.83922">
        <ele>70</ele>
        <time>2017-10-14T06:45:57.000Z</time>
      </trkpt>
      <trkpt lat="43.61385" lon="6.83924">
        <ele>71</ele>
        <time>2017-10-14T06:45:58.000Z</time>
      </trkpt>
      <trkpt lat="43.61384" lon="6.83927">
        <ele>71</ele>
        <time>2017-10-14T06:45:59.000Z</time>
      </trkpt>
      <trkpt lat="43.61383" lon="6.83929">
        <ele>73</ele>
        <time>2017-10-14T06:46:00.000Z</time>
      </trkpt>
      <trkpt lat="43.61382" lon="6.83932">
        <ele>74</ele>
        <time>2017-10-14T06:46:01.000Z</time>
      </trkpt>
      <trkpt lat="43.61382" lon="6.83935">
        <ele>75</ele>
        <time>2017-10-14T06:46:02.000Z</time>
      </trkpt>
      <trkpt lat="43.61381" lon="6.83938">
        <ele>75</ele>
        <time>2017-10-14T06:46:03.000Z</time>
      </trkpt>
      <trkpt lat="43.61379" lon="6.8394">
        <ele>75</ele>
        <time>2017-10-14T06:46:04.000Z</time>
      </trkpt>
      <trkpt lat="43.61378" lon="6.83943">
        <ele>75</ele>
        <time>2017-10-14T06:46:05.000Z</time>
      </trkpt>
      <trkpt lat="43.61376" lon="6.83944">
        <ele>74</ele>
        <time>2017-10-14T06:46:06.000Z</time>
      </trkpt>
      <trkpt lat="43.61375" lon="6.83946">
        <ele>75</ele>
        <time>2017-10-14T06:46:07.000Z</time>
      </trkpt>
      <trkpt lat="43.61374" lon="6.83949">
        <ele>75</ele>
        <time>2017-10-14T06:46:08.000Z</time>
      </trkpt>
      <trkpt lat="43.61373" lon="6.83951">
        <ele>74</ele>
        <time>2017-10-14T06:46:09.000Z</time>
      </trkpt>
      <trkpt lat="43.61372" lon="6.83953">
        <ele>74</ele>
        <time>2017-10-14T06:46:10.000Z</time>
      </trkpt>
      <trkpt lat="43.6137" lon="6.83955">
        <ele>73</ele>
        <time>2017-10-14T06:46:11.000Z</time>
      </trkpt>
      <trkpt lat="43.61369" lon="6.83957">
        <ele>73</ele>
        <time>2017-10-14T06:46:12.000Z</time>
      </trkpt>
      <trkpt lat="43.61368" lon="6.83959">
        <ele>73</ele>
        <time>2017-10-14T06:46:13.000Z</time>
      </trkpt>
      <trkpt lat="43.61367" lon="6.83961">
        <ele>73</ele>
        <time>2017-10-14T06:46:14.000Z</time>
      </trkpt>
      <trkpt lat="43.61366" lon="6.83962">
        <ele>73</ele>
        <time>2017-10-14T06:46:15.000Z</time>
      </trkpt>
      <trkpt lat="43.61364" lon="6.83963">
        <ele>73</ele>
        <time>2017-10-14T06:46:16.000Z</time>
      </trkpt>
      <trkpt lat="43.61363" lon="6.83965">
        <ele>72</ele>
        <time>2017-10-14T06:46:17.000Z</time>
      </trkpt>
      <trkpt lat="43.61362" lon="6.83967">
        <ele>72</ele>
        <time>2017-10-14T06:46:18.000Z</time>
      </trkpt>
      <trkpt lat="43.6136" lon="6.8397">
        <ele>72</ele>
        <time>2017-10-14T06:46:19.000Z</time>
      </trkpt>
      <trkpt lat="43.61359" lon="6.83973">
        <ele>73</ele>
        <time>2017-10-14T06:46:20.000Z</time>
      </trkpt>
      <trkpt lat="43.61357" lon="6.83975">
        <ele>73</ele>
        <time>2017-10-14T06:46:21.000Z</time>
      </trkpt>
      <trkpt lat="43.61355" lon="6.83976">
        <ele>71</ele>
        <time>2017-10-14T06:46:22.000Z</time>
      </trkpt>
      <trkpt lat="43.61352" lon="6.83977">
        <ele>72</ele>
        <time>2017-10-14T06:46:23.000Z</time>
      </trkpt>
      <trkpt lat="43.6135" lon="6.83977">
        <ele>71</ele>
        <time>2017-10-14T06:46:24.000Z</time>
      </trkpt>
      <trkpt lat="43.61348" lon="6.83978">
        <ele>71</ele>
        <time>2017-10-14T06:46:25.000Z</time>
      </trkpt>
      <trkpt lat="43.61347" lon="6.8398">
        <ele>72</ele>
        <time>2017-10-14T06:46:26.000Z</time>
      </trkpt>
      <trkpt lat="43.61346" lon="6.83981">
        <ele>72</ele>
        <time>2017-10-14T06:46:27.000Z</time>
      </trkpt>
      <trkpt lat="43.61345" lon="6.83983">
        <ele>71</ele>
        <time>2017-10-14T06:46:28.000Z</time>
      </trkpt>
      <trkpt lat="43.61344" lon="6.83985">
        <ele>71</ele>
        <time>2017-10-14T06:46:29.000Z</time>
      </trkpt>
      <trkpt lat="43.61344" lon="6.83986">
        <ele>71</ele>
        <time>2017-10-14T06:46:30.000Z</time>
      </trkpt>
      <trkpt lat="43.61343" lon="6.83986">
        <ele>73</ele>
        <time>2017-10-14T06:46:31.000Z</time>
      </trkpt>
      <trkpt lat="43.61343" lon="6.83987">
        <ele>71</ele>
        <time>2017-10-14T06:46:32.000Z</time>
      </trkpt>
      <trkpt lat="43.61342" lon="6.83987">
        <ele>71</ele>
        <time>2017-10-14T06:46:33.000Z</time>
      </trkpt>
      <trkpt lat="43.61342" lon="6.83987">
        <ele>72</ele>
        <time>2017-10-14T06:46:34.000Z</time>
      </trkpt>
      <trkpt lat="43.61342" lon="6.83987">
        <ele>73</ele>
        <time>2017-10-14T06:46:35.000Z</time>
      </trkpt>
      <trkpt lat="43.61342" lon="6.83987">
        <ele>74</ele>
        <time>2017-10-14T06:46:36.000Z</time>
      </trkpt>
      <trkpt lat="43.61341" lon="6.83987">
        <ele>75</ele>
        <time>2017-10-14T06:46:37.000Z</time>
      </trkpt>
      <trkpt lat="43.61341" lon="6.83988">
        <ele>76</ele>
        <time>2017-10-14T06:46:38.000Z</time>
      </trkpt>
      <trkpt lat="43.61341" lon="6.83988">
        <ele>77</ele>
        <time>2017-10-14T06:46:39.000Z</time>
      </trkpt>
      <trkpt lat="43.6134" lon="6.83988">
        <ele>78</ele>
        <time>2017-10-14T06:46:40.000Z</time>
      </trkpt>
      <trkpt lat="43.6134" lon="6.83988">
        <ele>79</ele>
        <time>2017-10-14T06:46:41.000Z</time>
      </trkpt>
      <trkpt lat="43.6134" lon="6.83988">
        <ele>79</ele>
        <time>2017-10-14T06:46:42.000Z</time>
      </trkpt>
      <trkpt lat="43.61339" lon="6.83989">
        <ele>80</ele>
        <time>2017-10-14T06:46:43.000Z</time>
      </trkpt>
      <trkpt lat="43.61339" lon="6.83989">
        <ele>81</ele>
        <time>2017-10-14T06:46:44.000Z</time>
      </trkpt>
      <trkpt lat="43.61339" lon="6.83989">
        <ele>81</ele>
        <time>2017-10-14T06:46:45.000Z</time>
      </trkpt>
      <trkpt lat="43.61338" lon="6.83989">
        <ele>82</ele>
        <time>2017-10-14T06:46:46.000Z</time>
      </trkpt>
      <trkpt lat="43.61338" lon="6.83989">
        <ele>81</ele>
        <time>2017-10-14T06:46:47.000Z</time>
      </trkpt>
      <trkpt lat="43.61338" lon="6.83989">
        <ele>81</ele>
        <time>2017-10-14T06:46:48.000Z</time>
      </trkpt>
      <trkpt lat="43.61338" lon="6.83989">
        <ele>82</ele>
        <time>2017-10-14T06:46:49.000Z</time>
      </trkpt>
      <trkpt lat="43.61338" lon="6.83989">
        <ele>82</ele>
        <time>2017-10-14T06:46:50.000Z</time>
      </trkpt>
      <trkpt lat="43.61338" lon="6.83989">
        <ele>81</ele>
        <time>2017-10-14T06:46:51.000Z</time>
      </trkpt>
      <trkpt lat="43.61338" lon="6.83989">
        <ele>80</ele>
        <time>2017-10-14T06:46:52.000Z</time>
      </trkpt>
      <trkpt lat="43.61337" lon="6.8399">
        <ele>80</ele>
        <time>2017-10-14T06:46:53.000Z</time>
      </trkpt>
      <trkpt lat="43.61338" lon="6.8399">
        <ele>80</ele>
        <time>2017-10-14T06:46:54.000Z</time>
      </trkpt>
      <trkpt lat="43.61338" lon="6.8399">
        <ele>80</ele>
        <time>2017-10-14T06:46:55.000Z</time>
      </trkpt>
      <trkpt lat="43.61338" lon="6.83991">
        <ele>79</ele>
        <time>2017-10-14T06:46:56.000Z</time>
      </trkpt>
      <trkpt lat="43.61338" lon="6.83991">
        <ele>79</ele>
        <time>2017-10-14T06:46:57.000Z</time>
      </trkpt>
      <trkpt lat="43.61338" lon="6.83991">
        <ele>79</ele>
        <time>2017-10-14T06:46:58.000Z</time>
      </trkpt>
      <trkpt lat="43.61338" lon="6.83991">
        <ele>78</ele>
        <time>2017-10-14T06:46:59.000Z</time>
      </trkpt>
      <trkpt lat="43.61338" lon="6.8399">
        <ele>78</ele>
        <time>2017-10-14T06:47:00.000Z</time>
      </trkpt>
      <trkpt lat="43.61338" lon="6.83991">
        <ele>78</ele>
        <time>2017-10-14T06:47:01.000Z</time>
      </trkpt>
      <trkpt lat="43.61337" lon="6.83991">
        <ele>77</ele>
        <time>2017-10-14T06:47:02.000Z</time>
      </trkpt>
      <trkpt lat="43.61336" lon="6.83992">
        <ele>77</ele>
        <time>2017-10-14T06:47:03.000Z</time>
      </trkpt>
      <trkpt lat="43.61335" lon="6.83992">
        <ele>77</ele>
        <time>2017-10-14T06:47:04.000Z</time>
      </trkpt>
      <trkpt lat="43.61334" lon="6.83993">
        <ele>77</ele>
        <time>2017-10-14T06:47:05.000Z</time>
      </trkpt>
      <trkpt lat="43.61334" lon="6.83993">
        <ele>77</ele>
        <time>2017-10-14T06:47:06.000Z</time>
      </trkpt>
      <trkpt lat="43.61333" lon="6.83993">
        <ele>77</ele>
        <time>2017-10-14T06:47:07.000Z</time>
      </trkpt>
      <trkpt lat="43.61332" lon="6.83993">
        <ele>77</ele>
        <time>2017-10-14T06:47:08.000Z</time>
      </trkpt>
      <trkpt lat="43.61332" lon="6.83993">
        <ele>77</ele>
        <time>2017-10-14T06:47:09.000Z</time>
      </trkpt>
      <trkpt lat="43.61331" lon="6.83994">
        <ele>77</ele>
        <time>2017-10-14T06:47:10.000Z</time>
      </trkpt>
      <trkpt lat="43.61331" lon="6.83994">
        <ele>76</ele>
        <time>2017-10-14T06:47:11.000Z</time>
      </trkpt>
      <trkpt lat="43.6133" lon="6.83994">
        <ele>76</ele>
        <time>2017-10-14T06:47:12.000Z</time>
      </trkpt>
      <trkpt lat="43.6133" lon="6.83994">
        <ele>76</ele>
        <time>2017-10-14T06:47:13.000Z</time>
      </trkpt>
      <trkpt lat="43.6133" lon="6.83993">
        <ele>72</ele>
        <time>2017-10-14T06:47:14.000Z</time>
      </trkpt>
      <trkpt lat="43.6133" lon="6.83992">
        <ele>71</ele>
        <time>2017-10-14T06:47:15.000Z</time>
      </trkpt>
      <trkpt lat="43.6133" lon="6.83992">
        <ele>70</ele>
        <time>2017-10-14T06:47:16.000Z</time>
      </trkpt>
      <trkpt lat="43.6133" lon="6.83991">
        <ele>70</ele>
        <time>2017-10-14T06:47:17.000Z</time>
      </trkpt>
      <trkpt lat="43.6133" lon="6.83991">
        <ele>71</ele>
        <time>2017-10-14T06:47:18.000Z</time>
      </trkpt>
      <trkpt lat="43.6133" lon="6.83991">
        <ele>71</ele>
        <time>2017-10-14T06:47:19.000Z</time>
      </trkpt>
      <trkpt lat="43.6133" lon="6.8399">
        <ele>71</ele>
        <time>2017-10-14T06:47:20.000Z</time>
      </trkpt>
      <trkpt lat="43.6133" lon="6.8399">
        <ele>70</ele>
        <time>2017-10-14T06:47:21.000Z</time>
      </trkpt>
      <trkpt lat="43.6133" lon="6.83989">
        <ele>70</ele>
        <time>2017-10-14T06:47:22.000Z</time>
      </trkpt>
      <trkpt lat="43.6133" lon="6.83989">
        <ele>70</ele>
        <time>2017-10-14T06:47:23.000Z</time>
      </trkpt>
      <trkpt lat="43.6133" lon="6.83989">
        <ele>70</ele>
        <time>2017-10-14T06:47:24.000Z</time>
      </trkpt>
      <trkpt lat="43.6133" lon="6.83989">
        <ele>70</ele>
        <time>2017-10-14T06:47:25.000Z</time>
      </trkpt>
      <trkpt lat="43.6133" lon="6.83989">
        <ele>70</ele>
        <time>2017-10-14T06:47:26.000Z</time>
      </trkpt>
      <trkpt lat="43.6133" lon="6.83989">
        <ele>70</ele>
        <time>2017-10-14T06:47:27.000Z</time>
      </trkpt>
      <trkpt lat="43.61331" lon="6.83989">
        <ele>70</ele>
        <time>2017-10-14T06:47:28.000Z</time>
      </trkpt>
      <trkpt lat="43.61331" lon="6.83989">
        <ele>71</ele>
        <time>2017-10-14T06:47:29.000Z</time>
      </trkpt>
      <trkpt lat="43.61331" lon="6.83989">
        <ele>72</ele>
        <time>2017-10-14T06:47:30.000Z</time>
      </trkpt>
      <trkpt lat="43.61332" lon="6.83989">
        <ele>72</ele>
        <time>2017-10-14T06:47:31.000Z</time>
      </trkpt>
      <trkpt lat="43.61332" lon="6.83989">
        <ele>73</ele>
        <time>2017-10-14T06:47:32.000Z</time>
      </trkpt>
      <trkpt lat="43.61332" lon="6.83989">
        <ele>74</ele>
        <time>2017-10-14T06:47:33.000Z</time>
      </trkpt>
      <trkpt lat="43.61332" lon="6.83989">
        <ele>74</ele>
        <time>2017-10-14T06:47:34.000Z</time>
      </trkpt>
      <trkpt lat="43.61332" lon="6.83989">
        <ele>75</ele>
        <time>2017-10-14T06:47:35.000Z</time>
      </trkpt>
      <trkpt lat="43.61332" lon="6.83989">
        <ele>74</ele>
        <time>2017-10-14T06:47:36.000Z</time>
      </trkpt>
      <trkpt lat="43.61332" lon="6.8399">
        <ele>75</ele>
        <time>2017-10-14T06:47:37.000Z</time>
      </trkpt>
      <trkpt lat="43.61331" lon="6.8399">
        <ele>75</ele>
        <time>2017-10-14T06:47:38.000Z</time>
      </trkpt>
      <trkpt lat="43.61331" lon="6.8399">
        <ele>75</ele>
        <time>2017-10-14T06:47:39.000Z</time>
      </trkpt>
      <trkpt lat="43.61331" lon="6.8399">
        <ele>75</ele>
        <time>2017-10-14T06:47:40.000Z</time>
      </trkpt>
      <trkpt lat="43.61331" lon="6.8399">
        <ele>75</ele>
        <time>2017-10-14T06:47:41.000Z</time>
      </trkpt>
      <trkpt lat="43.61331" lon="6.8399">
        <ele>74</ele>
        <time>2017-10-14T06:47:42.000Z</time>
      </trkpt>
      <trkpt lat="43.6133" lon="6.8399">
        <ele>75</ele>
        <time>2017-10-14T06:47:43.000Z</time>
      </trkpt>
      <trkpt lat="43.6133" lon="6.8399">
        <ele>75</ele>
        <time>2017-10-14T06:47:44.000Z</time>
      </trkpt>
      <trkpt lat="43.6133" lon="6.8399">
        <ele>75</ele>
        <time>2017-10-14T06:47:45.000Z</time>
      </trkpt>
      <trkpt lat="43.6133" lon="6.8399">
        <ele>75</ele>
        <time>2017-10-14T06:47:46.000Z</time>
      </trkpt>
      <trkpt lat="43.6133" lon="6.8399">
        <ele>75</ele>
        <time>2017-10-14T06:47:47.000Z</time>
      </trkpt>
      <trkpt lat="43.6133" lon="6.8399">
        <ele>76</ele>
        <time>2017-10-14T06:47:48.000Z</time>
      </trkpt>
      <trkpt lat="43.6133" lon="6.8399">
        <ele>75</ele>
        <time>2017-10-14T06:47:49.000Z</time>
      </trkpt>
      <trkpt lat="43.6133" lon="6.8399">
        <ele>76</ele>
        <time>2017-10-14T06:47:50.000Z</time>
      </trkpt>
      <trkpt lat="43.6133" lon="6.8399">
        <ele>76</ele>
        <time>2017-10-14T06:47:51.000Z</time>
      </trkpt>
      <trkpt lat="43.61329" lon="6.8399">
        <ele>76</ele>
        <time>2017-10-14T06:47:52.000Z</time>
      </trkpt>
      <trkpt lat="43.61329" lon="6.8399">
        <ele>76</ele>
        <time>2017-10-14T06:47:53.000Z</time>
      </trkpt>
      <trkpt lat="43.61329" lon="6.8399">
        <ele>77</ele>
        <time>2017-10-14T06:47:54.000Z</time>
      </trkpt>
      <trkpt lat="43.61329" lon="6.8399">
        <ele>76</ele>
        <time>2017-10-14T06:47:55.000Z</time>
      </trkpt>
      <trkpt lat="43.61329" lon="6.8399">
        <ele>76</ele>
        <time>2017-10-14T06:47:56.000Z</time>
      </trkpt>
      <trkpt lat="43.6133" lon="6.8399">
        <ele>76</ele>
        <time>2017-10-14T06:47:57.000Z</time>
      </trkpt>
      <trkpt lat="43.6133" lon="6.83991">
        <ele>76</ele>
        <time>2017-10-14T06:47:58.000Z</time>
      </trkpt>
      <trkpt lat="43.61331" lon="6.83991">
        <ele>77</ele>
        <time>2017-10-14T06:47:59.000Z</time>
      </trkpt>
      <trkpt lat="43.61331" lon="6.83991">
        <ele>77</ele>
        <time>2017-10-14T06:48:00.000Z</time>
      </trkpt>
      <trkpt lat="43.61331" lon="6.83991">
        <ele>77</ele>
        <time>2017-10-14T06:48:01.000Z</time>
      </trkpt>
      <trkpt lat="43.61331" lon="6.83991">
        <ele>76</ele>
        <time>2017-10-14T06:48:02.000Z</time>
      </trkpt>
      <trkpt lat="43.61331" lon="6.83992">
        <ele>76</ele>
        <time>2017-10-14T06:48:03.000Z</time>
      </trkpt>
      <trkpt lat="43.61331" lon="6.83992">
        <ele>77</ele>
        <time>2017-10-14T06:48:04.000Z</time>
      </trkpt>
      <trkpt lat="43.61331" lon="6.83992">
        <ele>77</ele>
        <time>2017-10-14T06:48:05.000Z</time>
      </trkpt>
      <trkpt lat="43.61332" lon="6.83992">
        <ele>77</ele>
        <time>2017-10-14T06:48:06.000Z</time>
      </trkpt>
      <trkpt lat="43.61332" lon="6.83992">
        <ele>77</ele>
        <time>2017-10-14T06:48:07.000Z</time>
      </trkpt>
      <trkpt lat="43.61332" lon="6.83992">
        <ele>78</ele>
        <time>2017-10-14T06:48:08.000Z</time>
      </trkpt>
      <trkpt lat="43.61332" lon="6.83992">
        <ele>78</ele>
        <time>2017-10-14T06:48:09.000Z</time>
      </trkpt>
      <trkpt lat="43.61332" lon="6.83992">
        <ele>78</ele>
        <time>2017-10-14T06:48:10.000Z</time>
      </trkpt>
      <trkpt lat="43.61332" lon="6.83992">
        <ele>79</ele>
        <time>2017-10-14T06:48:11.000Z</time>
      </trkpt>
      <trkpt lat="43.61331" lon="6.83992">
        <ele>79</ele>
        <time>2017-10-14T06:48:12.000Z</time>
      </trkpt>
      <trkpt lat="43.61331" lon="6.83992">
        <ele>78</ele>
        <time>2017-10-14T06:48:13.000Z</time>
      </trkpt>
      <trkpt lat="43.61331" lon="6.83992">
        <ele>78</ele>
        <time>2017-10-14T06:48:14.000Z</time>
      </trkpt>
      <trkpt lat="43.61331" lon="6.83991">
        <ele>78</ele>
        <time>2017-10-14T06:48:15.000Z</time>
      </trkpt>
      <trkpt lat="43.61331" lon="6.83992">
        <ele>79</ele>
        <time>2017-10-14T06:48:16.000Z</time>
      </trkpt>
      <trkpt lat="43.61331" lon="6.83992">
        <ele>79</ele>
        <time>2017-10-14T06:48:17.000Z</time>
      </trkpt>
      <trkpt lat="43.61331" lon="6.83992">
        <ele>79</ele>
        <time>2017-10-14T06:48:18.000Z</time>
      </trkpt>
      <trkpt lat="43.61331" lon="6.83992">
        <ele>79</ele>
        <time>2017-10-14T06:48:19.000Z</time>
      </trkpt>
      <trkpt lat="43.61331" lon="6.83992">
        <ele>79</ele>
        <time>2017-10-14T06:48:20.000Z</time>
      </trkpt>
      <trkpt lat="43.61331" lon="6.83992">
        <ele>79</ele>
        <time>2017-10-14T06:48:21.000Z</time>
      </trkpt>
      <trkpt lat="43.61331" lon="6.83993">
        <ele>78</ele>
        <time>2017-10-14T06:48:22.000Z</time>
      </trkpt>
      <trkpt lat="43.61331" lon="6.83993">
        <ele>78</ele>
        <time>2017-10-14T06:48:23.000Z</time>
      </trkpt>
      <trkpt lat="43.61331" lon="6.83993">
        <ele>78</ele>
        <time>2017-10-14T06:48:24.000Z</time>
      </trkpt>
      <trkpt lat="43.61331" lon="6.83993">
        <ele>78</ele>
        <time>2017-10-14T06:48:25.000Z</time>
      </trkpt>
      <trkpt lat="43.61331" lon="6.83994">
        <ele>79</ele>
        <time>2017-10-14T06:48:26.000Z</time>
      </trkpt>
      <trkpt lat="43.61331" lon="6.83994">
        <ele>79</ele>
        <time>2017-10-14T06:48:27.000Z</time>
      </trkpt>
      <trkpt lat="43.61331" lon="6.83994">
        <ele>80</ele>
        <time>2017-10-14T06:48:28.000Z</time>
      </trkpt>
      <trkpt lat="43.61331" lon="6.83994">
        <ele>80</ele>
        <time>2017-10-14T06:48:29.000Z</time>
      </trkpt>
      <trkpt lat="43.61331" lon="6.83994">
        <ele>80</ele>
        <time>2017-10-14T06:48:30.000Z</time>
      </trkpt>
      <trkpt lat="43.61331" lon="6.83994">
        <ele>81</ele>
        <time>2017-10-14T06:48:31.000Z</time>
      </trkpt>
      <trkpt lat="43.61331" lon="6.83994">
        <ele>82</ele>
        <time>2017-10-14T06:48:32.000Z</time>
      </trkpt>
      <trkpt lat="43.61331" lon="6.83994">
        <ele>82</ele>
        <time>2017-10-14T06:48:33.000Z</time>
      </trkpt>
      <trkpt lat="43.61331" lon="6.83994">
        <ele>82</ele>
        <time>2017-10-14T06:48:34.000Z</time>
      </trkpt>
      <trkpt lat="43.61331" lon="6.83995">
        <ele>80</ele>
        <time>2017-10-14T06:48:35.000Z</time>
      </trkpt>
      <trkpt lat="43.61331" lon="6.83995">
        <ele>78</ele>
        <time>2017-10-14T06:48:36.000Z</time>
      </trkpt>
      <trkpt lat="43.61332" lon="6.83996">
        <ele>78</ele>
        <time>2017-10-14T06:48:37.000Z</time>
      </trkpt>
      <trkpt lat="43.61332" lon="6.83996">
        <ele>78</ele>
        <time>2017-10-14T06:48:38.000Z</time>
      </trkpt>
      <trkpt lat="43.61332" lon="6.83996">
        <ele>78</ele>
        <time>2017-10-14T06:48:39.000Z</time>
      </trkpt>
      <trkpt lat="43.61332" lon="6.83996">
        <ele>78</ele>
        <time>2017-10-14T06:48:40.000Z</time>
      </trkpt>
      <trkpt lat="43.61332" lon="6.83996">
        <ele>77</ele>
        <time>2017-10-14T06:48:41.000Z</time>
      </trkpt>
      <trkpt lat="43.61332" lon="6.83996">
        <ele>77</ele>
        <time>2017-10-14T06:48:42.000Z</time>
      </trkpt>
      <trkpt lat="43.61332" lon="6.83996">
        <ele>78</ele>
        <time>2017-10-14T06:48:43.000Z</time>
      </trkpt>
      <trkpt lat="43.61332" lon="6.83996">
        <ele>78</ele>
        <time>2017-10-14T06:48:44.000Z</time>
      </trkpt>
      <trkpt lat="43.61332" lon="6.83996">
        <ele>78</ele>
        <time>2017-10-14T06:48:45.000Z</time>
      </trkpt>
      <trkpt lat="43.61332" lon="6.83996">
        <ele>78</ele>
        <time>2017-10-14T06:48:46.000Z</time>
      </trkpt>
      <trkpt lat="43.61332" lon="6.83996">
        <ele>78</ele>
        <time>2017-10-14T06:48:47.000Z</time>
      </trkpt>
      <trkpt lat="43.61332" lon="6.83996">
        <ele>78</ele>
        <time>2017-10-14T06:48:48.000Z</time>
      </trkpt>
      <trkpt lat="43.61332" lon="6.83996">
        <ele>77</ele>
        <time>2017-10-14T06:48:49.000Z</time>
      </trkpt>
      <trkpt lat="43.61332" lon="6.83996">
        <ele>77</ele>
        <time>2017-10-14T06:48:50.000Z</time>
      </trkpt>
      <trkpt lat="43.61332" lon="6.83996">
        <ele>77</ele>
        <time>2017-10-14T06:48:51.000Z</time>
      </trkpt>
      <trkpt lat="43.61332" lon="6.83996">
        <ele>77</ele>
        <time>2017-10-14T06:48:52.000Z</time>
      </trkpt>
      <trkpt lat="43.61332" lon="6.83996">
        <ele>78</ele>
        <time>2017-10-14T06:48:53.000Z</time>
      </trkpt>
      <trkpt lat="43.61332" lon="6.83996">
        <ele>78</ele>
        <time>2017-10-14T06:48:54.000Z</time>
      </trkpt>
      <trkpt lat="43.61332" lon="6.83996">
        <ele>78</ele>
        <time>2017-10-14T06:48:55.000Z</time>
      </trkpt>
      <trkpt lat="43.61331" lon="6.83996">
        <ele>78</ele>
        <time>2017-10-14T06:48:56.000Z</time>
      </trkpt>
      <trkpt lat="43.61331" lon="6.83996">
        <ele>79</ele>
        <time>2017-10-14T06:48:57.000Z</time>
      </trkpt>
      <trkpt lat="43.61331" lon="6.83996">
        <ele>79</ele>
        <time>2017-10-14T06:48:58.000Z</time>
      </trkpt>
      <trkpt lat="43.61331" lon="6.83996">
        <ele>79</ele>
        <time>2017-10-14T06:48:59.000Z</time>
      </trkpt>
      <trkpt lat="43.6133" lon="6.83996">
        <ele>79</ele>
        <time>2017-10-14T06:49:00.000Z</time>
      </trkpt>
      <trkpt lat="43.6133" lon="6.83997">
        <ele>80</ele>
        <time>2017-10-14T06:49:01.000Z</time>
      </trkpt>
      <trkpt lat="43.6133" lon="6.83997">
        <ele>81</ele>
        <time>2017-10-14T06:49:02.000Z</time>
      </trkpt>
      <trkpt lat="43.6133" lon="6.83997">
        <ele>81</ele>
        <time>2017-10-14T06:49:03.000Z</time>
      </trkpt>
      <trkpt lat="43.6133" lon="6.83997">
        <ele>81</ele>
        <time>2017-10-14T06:49:04.000Z</time>
      </trkpt>
      <trkpt lat="43.6133" lon="6.83997">
        <ele>81</ele>
        <time>2017-10-14T06:49:05.000Z</time>
      </trkpt>
      <trkpt lat="43.6133" lon="6.83997">
        <ele>82</ele>
        <time>2017-10-14T06:49:06.000Z</time>
      </trkpt>
      <trkpt lat="43.6133" lon="6.83997">
        <ele>82</ele>
        <time>2017-10-14T06:49:07.000Z</time>
      </trkpt>
      <trkpt lat="43.61331" lon="6.83997">
        <ele>82</ele>
        <time>2017-10-14T06:49:08.000Z</time>
      </trkpt>
      <trkpt lat="43.61331" lon="6.83997">
        <ele>82</ele>
        <time>2017-10-14T06:49:09.000Z</time>
      </trkpt>
      <trkpt lat="43.61331" lon="6.83996">
        <ele>82</ele>
        <time>2017-10-14T06:49:10.000Z</time>
      </trkpt>
      <trkpt lat="43.61331" lon="6.83996">
        <ele>82</ele>
        <time>2017-10-14T06:49:11.000Z</time>
      </trkpt>
      <trkpt lat="43.61331" lon="6.83996">
        <ele>82</ele>
        <time>2017-10-14T06:49:12.000Z</time>
      </trkpt>
      <trkpt lat="43.61331" lon="6.83996">
        <ele>82</ele>
        <time>2017-10-14T06:49:13.000Z</time>
      </trkpt>
      <trkpt lat="43.61331" lon="6.83996">
        <ele>83</ele>
        <time>2017-10-14T06:49:14.000Z</time>
      </trkpt>
      <trkpt lat="43.61331" lon="6.83996">
        <ele>83</ele>
        <time>2017-10-14T06:49:15.000Z</time>
      </trkpt>
      <trkpt lat="43.61331" lon="6.83995">
        <ele>83</ele>
        <time>2017-10-14T06:49:16.000Z</time>
      </trkpt>
      <trkpt lat="43.61331" lon="6.83995">
        <ele>83</ele>
        <time>2017-10-14T06:49:17.000Z</time>
      </trkpt>
      <trkpt lat="43.61332" lon="6.83995">
        <ele>83</ele>
        <time>2017-10-14T06:49:18.000Z</time>
      </trkpt>
      <trkpt lat="43.61332" lon="6.83996">
        <ele>84</ele>
        <time>2017-10-14T06:49:19.000Z</time>
      </trkpt>
      <trkpt lat="43.61332" lon="6.83996">
        <ele>84</ele>
        <time>2017-10-14T06:49:20.000Z</time>
      </trkpt>
      <trkpt lat="43.61332" lon="6.83997">
        <ele>84</ele>
        <time>2017-10-14T06:49:21.000Z</time>
      </trkpt>
      <trkpt lat="43.61332" lon="6.83997">
        <ele>85</ele>
        <time>2017-10-14T06:49:22.000Z</time>
      </trkpt>
      <trkpt lat="43.61332" lon="6.83997">
        <ele>85</ele>
        <time>2017-10-14T06:49:23.000Z</time>
      </trkpt>
      <trkpt lat="43.61333" lon="6.83998">
        <ele>85</ele>
        <time>2017-10-14T06:49:24.000Z</time>
      </trkpt>
      <trkpt lat="43.61333" lon="6.83998">
        <ele>85</ele>
        <time>2017-10-14T06:49:25.000Z</time>
      </trkpt>
      <trkpt lat="43.61333" lon="6.83998">
        <ele>84</ele>
        <time>2017-10-14T06:49:26.000Z</time>
      </trkpt>
      <trkpt lat="43.61333" lon="6.83998">
        <ele>85</ele>
        <time>2017-10-14T06:49:27.000Z</time>
      </trkpt>
      <trkpt lat="43.61333" lon="6.83999">
        <ele>85</ele>
        <time>2017-10-14T06:49:28.000Z</time>
      </trkpt>
      <trkpt lat="43.61333" lon="6.83999">
        <ele>84</ele>
        <time>2017-10-14T06:49:29.000Z</time>
      </trkpt>
      <trkpt lat="43.61333" lon="6.83999">
        <ele>84</ele>
        <time>2017-10-14T06:49:30.000Z</time>
      </trkpt>
      <trkpt lat="43.61333" lon="6.83999">
        <ele>84</ele>
        <time>2017-10-14T06:49:31.000Z</time>
      </trkpt>
      <trkpt lat="43.61333" lon="6.83999">
        <ele>84</ele>
        <time>2017-10-14T06:49:32.000Z</time>
      </trkpt>
      <trkpt lat="43.61333" lon="6.83999">
        <ele>84</ele>
        <time>2017-10-14T06:49:33.000Z</time>
      </trkpt>
      <trkpt lat="43.61333" lon="6.83999">
        <ele>84</ele>
        <time>2017-10-14T06:49:34.000Z</time>
      </trkpt>
      <trkpt lat="43.61333" lon="6.83999">
        <ele>85</ele>
        <time>2017-10-14T06:49:35.000Z</time>
      </trkpt>
      <trkpt lat="43.61332" lon="6.83999">
        <ele>85</ele>
        <time>2017-10-14T06:49:36.000Z</time>
      </trkpt>
      <trkpt lat="43.61332" lon="6.83999">
        <ele>85</ele>
        <time>2017-10-14T06:49:37.000Z</time>
      </trkpt>
      <trkpt lat="43.61332" lon="6.83999">
        <ele>85</ele>
        <time>2017-10-14T06:49:38.000Z</time>
      </trkpt>
      <trkpt lat="43.61332" lon="6.83999">
        <ele>86</ele>
        <time>2017-10-14T06:49:39.000Z</time>
      </trkpt>
      <trkpt lat="43.61331" lon="6.83999">
        <ele>87</ele>
        <time>2017-10-14T06:49:40.000Z</time>
      </trkpt>
      <trkpt lat="43.61331" lon="6.83999">
        <ele>87</ele>
        <time>2017-10-14T06:49:41.000Z</time>
      </trkpt>
      <trkpt lat="43.61331" lon="6.83999">
        <ele>87</ele>
        <time>2017-10-14T06:49:42.000Z</time>
      </trkpt>
      <trkpt lat="43.61331" lon="6.83999">
        <ele>87</ele>
        <time>2017-10-14T06:49:43.000Z</time>
      </trkpt>
      <trkpt lat="43.61331" lon="6.83999">
        <ele>87</ele>
        <time>2017-10-14T06:49:44.000Z</time>
      </trkpt>
      <trkpt lat="43.61331" lon="6.83999">
        <ele>87</ele>
        <time>2017-10-14T06:49:45.000Z</time>
      </trkpt>
      <trkpt lat="43.61331" lon="6.83999">
        <ele>87</ele>
        <time>2017-10-14T06:49:46.000Z</time>
      </trkpt>
      <trkpt lat="43.61331" lon="6.83999">
        <ele>87</ele>
        <time>2017-10-14T06:49:47.000Z</time>
      </trkpt>
      <trkpt lat="43.61331" lon="6.83998">
        <ele>86</ele>
        <time>2017-10-14T06:49:48.000Z</time>
      </trkpt>
      <trkpt lat="43.61331" lon="6.83998">
        <ele>86</ele>
        <time>2017-10-14T06:49:49.000Z</time>
      </trkpt>
      <trkpt lat="43.61331" lon="6.83998">
        <ele>86</ele>
        <time>2017-10-14T06:49:50.000Z</time>
      </trkpt>
      <trkpt lat="43.61331" lon="6.83998">
        <ele>86</ele>
        <time>2017-10-14T06:49:51.000Z</time>
      </trkpt>
      <trkpt lat="43.6133" lon="6.83998">
        <ele>86</ele>
        <time>2017-10-14T06:49:52.000Z</time>
      </trkpt>
      <trkpt lat="43.6133" lon="6.83998">
        <ele>87</ele>
        <time>2017-10-14T06:49:53.000Z</time>
      </trkpt>
      <trkpt lat="43.6133" lon="6.83998">
        <ele>87</ele>
        <time>2017-10-14T06:49:54.000Z</time>
      </trkpt>
      <trkpt lat="43.6133" lon="6.83998">
        <ele>87</ele>
        <time>2017-10-14T06:49:55.000Z</time>
      </trkpt>
      <trkpt lat="43.6133" lon="6.83998">
        <ele>86</ele>
        <time>2017-10-14T06:49:56.000Z</time>
      </trkpt>
      <trkpt lat="43.6133" lon="6.83998">
        <ele>86</ele>
        <time>2017-10-14T06:49:57.000Z</time>
      </trkpt>
      <trkpt lat="43.6133" lon="6.83998">
        <ele>87</ele>
        <time>2017-10-14T06:49:58.000Z</time>
      </trkpt>
      <trkpt lat="43.6133" lon="6.83998">
        <ele>87</ele>
        <time>2017-10-14T06:49:59.000Z</time>
      </trkpt>
      <trkpt lat="43.6133" lon="6.83999">
        <ele>86</ele>
        <time>2017-10-14T06:50:00.000Z</time>
      </trkpt>
      <trkpt lat="43.61331" lon="6.83999">
        <ele>86</ele>
        <time>2017-10-14T06:50:01.000Z</time>
      </trkpt>
      <trkpt lat="43.61331" lon="6.83999">
        <ele>87</ele>
        <time>2017-10-14T06:50:02.000Z</time>
      </trkpt>
      <trkpt lat="43.61331" lon="6.83999">
        <ele>87</ele>
        <time>2017-10-14T06:50:03.000Z</time>
      </trkpt>
      <trkpt lat="43.61331" lon="6.83999">
        <ele>87</ele>
        <time>2017-10-14T06:50:04.000Z</time>
      </trkpt>
      <trkpt lat="43.61331" lon="6.83999">
        <ele>87</ele>
        <time>2017-10-14T06:50:05.000Z</time>
      </trkpt>
      <trkpt lat="43.61331" lon="6.83999">
        <ele>87</ele>
        <time>2017-10-14T06:50:06.000Z</time>
      </trkpt>
      <trkpt lat="43.61331" lon="6.83999">
        <ele>87</ele>
        <time>2017-10-14T06:50:07.000Z</time>
      </trkpt>
      <trkpt lat="43.61331" lon="6.83999">
        <ele>87</ele>
        <time>2017-10-14T06:50:08.000Z</time>
      </trkpt>
      <trkpt lat="43.61331" lon="6.83999">
        <ele>87</ele>
        <time>2017-10-14T06:50:09.000Z</time>
      </trkpt>
      <trkpt lat="43.61331" lon="6.83999">
        <ele>87</ele>
        <time>2017-10-14T06:50:10.000Z</time>
      </trkpt>
      <trkpt lat="43.61331" lon="6.83999">
        <ele>87</ele>
        <time>2017-10-14T06:50:11.000Z</time>
      </trkpt>
      <trkpt lat="43.61331" lon="6.84">
        <ele>87</ele>
        <time>2017-10-14T06:50:12.000Z</time>
      </trkpt>
      <trkpt lat="43.61331" lon="6.84">
        <ele>87</ele>
        <time>2017-10-14T06:50:13.000Z</time>
      </trkpt>
      <trkpt lat="43.61331" lon="6.84">
        <ele>87</ele>
        <time>2017-10-14T06:50:14.000Z</time>
      </trkpt>
      <trkpt lat="43.61331" lon="6.84">
        <ele>87</ele>
        <time>2017-10-14T06:50:15.000Z</time>
      </trkpt>
      <trkpt lat="43.61331" lon="6.84">
        <ele>86</ele>
        <time>2017-10-14T06:50:16.000Z</time>
      </trkpt>
      <trkpt lat="43.61331" lon="6.84">
        <ele>86</ele>
        <time>2017-10-14T06:50:17.000Z</time>
      </trkpt>
      <trkpt lat="43.61331" lon="6.84">
        <ele>86</ele>
        <time>2017-10-14T06:50:18.000Z</time>
      </trkpt>
      <trkpt lat="43.61331" lon="6.84">
        <ele>86</ele>
        <time>2017-10-14T06:50:19.000Z</time>
      </trkpt>
      <trkpt lat="43.61331" lon="6.84">
        <ele>86</ele>
        <time>2017-10-14T06:50:20.000Z</time>
      </trkpt>
      <trkpt lat="43.61331" lon="6.84">
        <ele>86</ele>
        <time>2017-10-14T06:50:21.000Z</time>
      </trkpt>
      <trkpt lat="43.61331" lon="6.84">
        <ele>86</ele>
        <time>2017-10-14T06:50:22.000Z</time>
      </trkpt>
      <trkpt lat="43.61331" lon="6.84">
        <ele>86</ele>
        <time>2017-10-14T06:50:23.000Z</time>
      </trkpt>
      <trkpt lat="43.61331" lon="6.84">
        <ele>87</ele>
        <time>2017-10-14T06:50:24.000Z</time>
      </trkpt>
      <trkpt lat="43.6133" lon="6.84">
        <ele>87</ele>
        <time>2017-10-14T06:50:25.000Z</time>
      </trkpt>
      <trkpt lat="43.6133" lon="6.84">
        <ele>86</ele>
        <time>2017-10-14T06:50:26.000Z</time>
      </trkpt>
      <trkpt lat="43.6133" lon="6.84">
        <ele>86</ele>
        <time>2017-10-14T06:50:27.000Z</time>
      </trkpt>
      <trkpt lat="43.6133" lon="6.84">
        <ele>86</ele>
        <time>2017-10-14T06:50:28.000Z</time>
      </trkpt>
      <trkpt lat="43.61331" lon="6.84">
        <ele>85</ele>
        <time>2017-10-14T06:50:29.000Z</time>
      </trkpt>
      <trkpt lat="43.61331" lon="6.84">
        <ele>84</ele>
        <time>2017-10-14T06:50:30.000Z</time>
      </trkpt>
      <trkpt lat="43.61331" lon="6.84">
        <ele>84</ele>
        <time>2017-10-14T06:50:31.000Z</time>
      </trkpt>
      <trkpt lat="43.61331" lon="6.84">
        <ele>84</ele>
        <time>2017-10-14T06:50:32.000Z</time>
      </trkpt>
      <trkpt lat="43.61331" lon="6.84">
        <ele>83</ele>
        <time>2017-10-14T06:50:33.000Z</time>
      </trkpt>
      <trkpt lat="43.61331" lon="6.84">
        <ele>83</ele>
        <time>2017-10-14T06:50:34.000Z</time>
      </trkpt>
      <trkpt lat="43.61331" lon="6.84">
        <ele>82</ele>
        <time>2017-10-14T06:50:35.000Z</time>
      </trkpt>
      <trkpt lat="43.61331" lon="6.83999">
        <ele>82</ele>
        <time>2017-10-14T06:50:36.000Z</time>
      </trkpt>
      <trkpt lat="43.61331" lon="6.83999">
        <ele>82</ele>
        <time>2017-10-14T06:50:37.000Z</time>
      </trkpt>
      <trkpt lat="43.61331" lon="6.83999">
        <ele>81</ele>
        <time>2017-10-14T06:50:38.000Z</time>
      </trkpt>
      <trkpt lat="43.61331" lon="6.83999">
        <ele>81</ele>
        <time>2017-10-14T06:50:39.000Z</time>
      </trkpt>
      <trkpt lat="43.61331" lon="6.83999">
        <ele>81</ele>
        <time>2017-10-14T06:50:40.000Z</time>
      </trkpt>
      <trkpt lat="43.61331" lon="6.83999">
        <ele>81</ele>
        <time>2017-10-14T06:50:41.000Z</time>
      </trkpt>
      <trkpt lat="43.61331" lon="6.84">
        <ele>80</ele>
        <time>2017-10-14T06:50:42.000Z</time>
      </trkpt>
      <trkpt lat="43.61331" lon="6.84">
        <ele>80</ele>
        <time>2017-10-14T06:50:43.000Z</time>
      </trkpt>
      <trkpt lat="43.61331" lon="6.84">
        <ele>80</ele>
        <time>2017-10-14T06:50:44.000Z</time>
      </trkpt>
      <trkpt lat="43.61332" lon="6.84">
        <ele>80</ele>
        <time>2017-10-14T06:50:45.000Z</time>
      </trkpt>
      <trkpt lat="43.61332" lon="6.84">
        <ele>79</ele>
        <time>2017-10-14T06:50:46.000Z</time>
      </trkpt>
      <trkpt lat="43.61332" lon="6.84">
        <ele>79</ele>
        <time>2017-10-14T06:50:47.000Z</time>
      </trkpt>
      <trkpt lat="43.61332" lon="6.84">
        <ele>79</ele>
        <time>2017-10-14T06:50:48.000Z</time>
      </trkpt>
      <trkpt lat="43.61332" lon="6.83999">
        <ele>80</ele>
        <time>2017-10-14T06:50:49.000Z</time>
      </trkpt>
      <trkpt lat="43.61332" lon="6.83999">
        <ele>80</ele>
        <time>2017-10-14T06:50:50.000Z</time>
      </trkpt>
      <trkpt lat="43.61331" lon="6.83999">
        <ele>81</ele>
        <time>2017-10-14T06:50:51.000Z</time>
      </trkpt>
      <trkpt lat="43.61331" lon="6.83998">
        <ele>82</ele>
        <time>2017-10-14T06:50:52.000Z</time>
      </trkpt>
      <trkpt lat="43.61331" lon="6.83998">
        <ele>82</ele>
        <time>2017-10-14T06:50:53.000Z</time>
      </trkpt>
      <trkpt lat="43.61331" lon="6.83997">
        <ele>82</ele>
        <time>2017-10-14T06:50:54.000Z</time>
      </trkpt>
      <trkpt lat="43.61331" lon="6.83997">
        <ele>83</ele>
        <time>2017-10-14T06:50:55.000Z</time>
      </trkpt>
      <trkpt lat="43.61331" lon="6.83997">
        <ele>83</ele>
        <time>2017-10-14T06:50:56.000Z</time>
      </trkpt>
      <trkpt lat="43.61331" lon="6.83997">
        <ele>81</ele>
        <time>2017-10-14T06:50:57.000Z</time>
      </trkpt>
      <trkpt lat="43.61331" lon="6.83996">
        <ele>82</ele>
        <time>2017-10-14T06:50:58.000Z</time>
      </trkpt>
      <trkpt lat="43.61331" lon="6.83996">
        <ele>82</ele>
        <time>2017-10-14T06:50:59.000Z</time>
      </trkpt>
      <trkpt lat="43.61331" lon="6.83996">
        <ele>82</ele>
        <time>2017-10-14T06:51:00.000Z</time>
      </trkpt>
      <trkpt lat="43.61331" lon="6.83996">
        <ele>82</ele>
        <time>2017-10-14T06:51:01.000Z</time>
      </trkpt>
      <trkpt lat="43.6133" lon="6.83995">
        <ele>82</ele>
        <time>2017-10-14T06:51:02.000Z</time>
      </trkpt>
      <trkpt lat="43.6133" lon="6.83995">
        <ele>83</ele>
        <time>2017-10-14T06:51:03.000Z</time>
      </trkpt>
      <trkpt lat="43.6133" lon="6.83995">
        <ele>80</ele>
        <time>2017-10-14T06:51:04.000Z</time>
      </trkpt>
      <trkpt lat="43.61331" lon="6.83994">
        <ele>79</ele>
        <time>2017-10-14T06:51:05.000Z</time>
      </trkpt>
      <trkpt lat="43.61331" lon="6.83993">
        <ele>78</ele>
        <time>2017-10-14T06:51:06.000Z</time>
      </trkpt>
      <trkpt lat="43.61331" lon="6.83993">
        <ele>78</ele>
        <time>2017-10-14T06:51:07.000Z</time>
      </trkpt>
      <trkpt lat="43.61331" lon="6.83993">
        <ele>78</ele>
        <time>2017-10-14T06:51:08.000Z</time>
      </trkpt>
      <trkpt lat="43.61331" lon="6.83993">
        <ele>78</ele>
        <time>2017-10-14T06:51:09.000Z</time>
      </trkpt>
      <trkpt lat="43.61331" lon="6.83993">
        <ele>77</ele>
        <time>2017-10-14T06:51:10.000Z</time>
      </trkpt>
      <trkpt lat="43.61331" lon="6.83993">
        <ele>77</ele>
        <time>2017-10-14T06:51:11.000Z</time>
      </trkpt>
      <trkpt lat="43.61331" lon="6.83994">
        <ele>78</ele>
        <time>2017-10-14T06:51:12.000Z</time>
      </trkpt>
      <trkpt lat="43.61331" lon="6.83993">
        <ele>77</ele>
        <time>2017-10-14T06:51:13.000Z</time>
      </trkpt>
      <trkpt lat="43.61331" lon="6.83993">
        <ele>78</ele>
        <time>2017-10-14T06:51:14.000Z</time>
      </trkpt>
      <trkpt lat="43.6133" lon="6.83993">
        <ele>78</ele>
        <time>2017-10-14T06:51:15.000Z</time>
      </trkpt>
      <trkpt lat="43.6133" lon="6.83993">
        <ele>78</ele>
        <time>2017-10-14T06:51:16.000Z</time>
      </trkpt>
      <trkpt lat="43.6133" lon="6.83993">
        <ele>78</ele>
        <time>2017-10-14T06:51:17.000Z</time>
      </trkpt>
      <trkpt lat="43.6133" lon="6.83992">
        <ele>78</ele>
        <time>2017-10-14T06:51:18.000Z</time>
      </trkpt>
      <trkpt lat="43.6133" lon="6.83992">
        <ele>79</ele>
        <time>2017-10-14T06:51:19.000Z</time>
      </trkpt>
      <trkpt lat="43.6133" lon="6.83993">
        <ele>78</ele>
        <time>2017-10-14T06:51:20.000Z</time>
      </trkpt>
      <trkpt lat="43.6133" lon="6.83993">
        <ele>78</ele>
        <time>2017-10-14T06:51:21.000Z</time>
      </trkpt>
      <trkpt lat="43.6133" lon="6.83993">
        <ele>79</ele>
        <time>2017-10-14T06:51:22.000Z</time>
      </trkpt>
      <trkpt lat="43.61331" lon="6.83993">
        <ele>79</ele>
        <time>2017-10-14T06:51:23.000Z</time>
      </trkpt>
      <trkpt lat="43.61331" lon="6.83993">
        <ele>79</ele>
        <time>2017-10-14T06:51:24.000Z</time>
      </trkpt>
      <trkpt lat="43.61331" lon="6.83993">
        <ele>79</ele>
        <time>2017-10-14T06:51:25.000Z</time>
      </trkpt>
      <trkpt lat="43.61331" lon="6.83993">
        <ele>79</ele>
        <time>2017-10-14T06:51:26.000Z</time>
      </trkpt>
      <trkpt lat="43.61331" lon="6.83993">
        <ele>79</ele>
        <time>2017-10-14T06:51:27.000Z</time>
      </trkpt>
      <trkpt lat="43.61331" lon="6.83993">
        <ele>79</ele>
        <time>2017-10-14T06:51:28.000Z</time>
      </trkpt>
      <trkpt lat="43.61331" lon="6.83994">
        <ele>79</ele>
        <time>2017-10-14T06:51:29.000Z</time>
      </trkpt>
      <trkpt lat="43.61331" lon="6.83994">
        <ele>79</ele>
        <time>2017-10-14T06:51:30.000Z</time>
      </trkpt>
      <trkpt lat="43.61331" lon="6.83994">
        <ele>79</ele>
        <time>2017-10-14T06:51:31.000Z</time>
      </trkpt>
      <trkpt lat="43.6133" lon="6.83994">
        <ele>79</ele>
        <time>2017-10-14T06:51:32.000Z</time>
      </trkpt>
      <trkpt lat="43.6133" lon="6.83994">
        <ele>79</ele>
        <time>2017-10-14T06:51:33.000Z</time>
      </trkpt>
      <trkpt lat="43.6133" lon="6.83994">
        <ele>79</ele>
        <time>2017-10-14T06:51:34.000Z</time>
      </trkpt>
      <trkpt lat="43.61329" lon="6.83994">
        <ele>79</ele>
        <time>2017-10-14T06:51:35.000Z</time>
      </trkpt>
      <trkpt lat="43.61329" lon="6.83994">
        <ele>79</ele>
        <time>2017-10-14T06:51:36.000Z</time>
      </trkpt>
      <trkpt lat="43.61329" lon="6.83994">
        <ele>79</ele>
        <time>2017-10-14T06:51:37.000Z</time>
      </trkpt>
      <trkpt lat="43.61329" lon="6.83994">
        <ele>79</ele>
        <time>2017-10-14T06:51:38.000Z</time>
      </trkpt>
      <trkpt lat="43.61329" lon="6.83994">
        <ele>78</ele>
        <time>2017-10-14T06:51:39.000Z</time>
      </trkpt>
      <trkpt lat="43.61329" lon="6.83994">
        <ele>78</ele>
        <time>2017-10-14T06:51:40.000Z</time>
      </trkpt>
      <trkpt lat="43.61329" lon="6.83994">
        <ele>78</ele>
        <time>2017-10-14T06:51:41.000Z</time>
      </trkpt>
      <trkpt lat="43.61329" lon="6.83994">
        <ele>78</ele>
        <time>2017-10-14T06:51:42.000Z</time>
      </trkpt>
      <trkpt lat="43.61329" lon="6.83994">
        <ele>77</ele>
        <time>2017-10-14T06:51:43.000Z</time>
      </trkpt>
      <trkpt lat="43.61329" lon="6.83994">
        <ele>77</ele>
        <time>2017-10-14T06:51:44.000Z</time>
      </trkpt>
      <trkpt lat="43.61328" lon="6.83994">
        <ele>77</ele>
        <time>2017-10-14T06:51:45.000Z</time>
      </trkpt>
      <trkpt lat="43.61328" lon="6.83994">
        <ele>77</ele>
        <time>2017-10-14T06:51:46.000Z</time>
      </trkpt>
      <trkpt lat="43.61328" lon="6.83994">
        <ele>77</ele>
        <time>2017-10-14T06:51:47.000Z</time>
      </trkpt>
      <trkpt lat="43.61329" lon="6.83995">
        <ele>77</ele>
        <time>2017-10-14T06:51:48.000Z</time>
      </trkpt>
      <trkpt lat="43.61329" lon="6.83995">
        <ele>78</ele>
        <time>2017-10-14T06:51:49.000Z</time>
      </trkpt>
      <trkpt lat="43.61329" lon="6.83995">
        <ele>78</ele>
        <time>2017-10-14T06:51:50.000Z</time>
      </trkpt>
      <trkpt lat="43.61329" lon="6.83995">
        <ele>79</ele>
        <time>2017-10-14T06:51:51.000Z</time>
      </trkpt>
      <trkpt lat="43.6133" lon="6.83995">
        <ele>80</ele>
        <time>2017-10-14T06:51:52.000Z</time>
      </trkpt>
      <trkpt lat="43.6133" lon="6.83995">
        <ele>81</ele>
        <time>2017-10-14T06:51:53.000Z</time>
      </trkpt>
      <trkpt lat="43.6133" lon="6.83995">
        <ele>81</ele>
        <time>2017-10-14T06:51:54.000Z</time>
      </trkpt>
      <trkpt lat="43.6133" lon="6.83995">
        <ele>82</ele>
        <time>2017-10-14T06:51:55.000Z</time>
      </trkpt>
      <trkpt lat="43.6133" lon="6.83995">
        <ele>83</ele>
        <time>2017-10-14T06:51:56.000Z</time>
      </trkpt>
      <trkpt lat="43.6133" lon="6.83995">
        <ele>84</ele>
        <time>2017-10-14T06:51:57.000Z</time>
      </trkpt>
      <trkpt lat="43.61331" lon="6.83994">
        <ele>85</ele>
        <time>2017-10-14T06:51:58.000Z</time>
      </trkpt>
      <trkpt lat="43.61331" lon="6.83994">
        <ele>86</ele>
        <time>2017-10-14T06:51:59.000Z</time>
      </trkpt>
      <trkpt lat="43.61331" lon="6.83994">
        <ele>87</ele>
        <time>2017-10-14T06:52:00.000Z</time>
      </trkpt>
      <trkpt lat="43.61331" lon="6.83994">
        <ele>88</ele>
        <time>2017-10-14T06:52:01.000Z</time>
      </trkpt>
      <trkpt lat="43.61331" lon="6.83994">
        <ele>90</ele>
        <time>2017-10-14T06:52:02.000Z</time>
      </trkpt>
      <trkpt lat="43.61332" lon="6.83994">
        <ele>91</ele>
        <time>2017-10-14T06:52:03.000Z</time>
      </trkpt>
      <trkpt lat="43.61332" lon="6.83993">
        <ele>91</ele>
        <time>2017-10-14T06:52:04.000Z</time>
      </trkpt>
      <trkpt lat="43.61332" lon="6.83994">
        <ele>92</ele>
        <time>2017-10-14T06:52:05.000Z</time>
      </trkpt>
      <trkpt lat="43.61332" lon="6.83994">
        <ele>93</ele>
        <time>2017-10-14T06:52:06.000Z</time>
      </trkpt>
      <trkpt lat="43.61332" lon="6.83994">
        <ele>93</ele>
        <time>2017-10-14T06:52:07.000Z</time>
      </trkpt>
      <trkpt lat="43.61332" lon="6.83995">
        <ele>94</ele>
        <time>2017-10-14T06:52:08.000Z</time>
      </trkpt>
      <trkpt lat="43.61332" lon="6.83995">
        <ele>96</ele>
        <time>2017-10-14T06:52:09.000Z</time>
      </trkpt>
      <trkpt lat="43.61332" lon="6.83995">
        <ele>97</ele>
        <time>2017-10-14T06:52:10.000Z</time>
      </trkpt>
      <trkpt lat="43.61332" lon="6.83996">
        <ele>97</ele>
        <time>2017-10-14T06:52:11.000Z</time>
      </trkpt>
      <trkpt lat="43.61332" lon="6.83996">
        <ele>97</ele>
        <time>2017-10-14T06:52:12.000Z</time>
      </trkpt>
      <trkpt lat="43.61332" lon="6.83997">
        <ele>98</ele>
        <time>2017-10-14T06:52:13.000Z</time>
      </trkpt>
      <trkpt lat="43.61332" lon="6.83997">
        <ele>98</ele>
        <time>2017-10-14T06:52:14.000Z</time>
      </trkpt>
      <trkpt lat="43.61332" lon="6.83997">
        <ele>99</ele>
        <time>2017-10-14T06:52:15.000Z</time>
      </trkpt>
      <trkpt lat="43.61332" lon="6.83998">
        <ele>98</ele>
        <time>2017-10-14T06:52:16.000Z</time>
      </trkpt>
      <trkpt lat="43.61332" lon="6.83998">
        <ele>99</ele>
        <time>2017-10-14T06:52:17.000Z</time>
      </trkpt>
      <trkpt lat="43.61332" lon="6.83998">
        <ele>100</ele>
        <time>2017-10-14T06:52:18.000Z</time>
      </trkpt>
      <trkpt lat="43.61332" lon="6.83997">
        <ele>99</ele>
        <time>2017-10-14T06:52:19.000Z</time>
      </trkpt>
      <trkpt lat="43.61332" lon="6.83997">
        <ele>97</ele>
        <time>2017-10-14T06:52:20.000Z</time>
      </trkpt>
      <trkpt lat="43.61332" lon="6.83996">
        <ele>97</ele>
        <time>2017-10-14T06:52:21.000Z</time>
      </trkpt>
      <trkpt lat="43.61332" lon="6.83996">
        <ele>97</ele>
        <time>2017-10-14T06:52:22.000Z</time>
      </trkpt>
      <trkpt lat="43.61333" lon="6.83996">
        <ele>97</ele>
        <time>2017-10-14T06:52:23.000Z</time>
      </trkpt>
      <trkpt lat="43.61333" lon="6.83995">
        <ele>97</ele>
        <time>2017-10-14T06:52:24.000Z</time>
      </trkpt>
      <trkpt lat="43.61333" lon="6.83995">
        <ele>97</ele>
        <time>2017-10-14T06:52:25.000Z</time>
      </trkpt>
      <trkpt lat="43.61332" lon="6.83995">
        <ele>98</ele>
        <time>2017-10-14T06:52:26.000Z</time>
      </trkpt>
      <trkpt lat="43.61332" lon="6.83995">
        <ele>99</ele>
        <time>2017-10-14T06:52:27.000Z</time>
      </trkpt>
      <trkpt lat="43.61332" lon="6.83995">
        <ele>99</ele>
        <time>2017-10-14T06:52:28.000Z</time>
      </trkpt>
      <trkpt lat="43.61332" lon="6.83995">
        <ele>99</ele>
        <time>2017-10-14T06:52:29.000Z</time>
      </trkpt>
      <trkpt lat="43.61332" lon="6.83995">
        <ele>99</ele>
        <time>2017-10-14T06:52:30.000Z</time>
      </trkpt>
      <trkpt lat="43.61332" lon="6.83995">
        <ele>99</ele>
        <time>2017-10-14T06:52:31.000Z</time>
      </trkpt>
      <trkpt lat="43.61331" lon="6.83995">
        <ele>98</ele>
        <time>2017-10-14T06:52:32.000Z</time>
      </trkpt>
      <trkpt lat="43.61332" lon="6.83993">
        <ele>93</ele>
        <time>2017-10-14T06:52:33.000Z</time>
      </trkpt>
      <trkpt lat="43.61332" lon="6.83992">
        <ele>92</ele>
        <time>2017-10-14T06:52:34.000Z</time>
      </trkpt>
      <trkpt lat="43.61333" lon="6.83991">
        <ele>92</ele>
        <time>2017-10-14T06:52:35.000Z</time>
      </trkpt>
      <trkpt lat="43.61333" lon="6.8399">
        <ele>91</ele>
        <time>2017-10-14T06:52:36.000Z</time>
      </trkpt>
      <trkpt lat="43.61333" lon="6.8399">
        <ele>91</ele>
        <time>2017-10-14T06:52:37.000Z</time>
      </trkpt>
      <trkpt lat="43.61334" lon="6.83989">
        <ele>91</ele>
        <time>2017-10-14T06:52:38.000Z</time>
      </trkpt>
      <trkpt lat="43.61334" lon="6.83989">
        <ele>89</ele>
        <time>2017-10-14T06:52:39.000Z</time>
      </trkpt>
      <trkpt lat="43.61334" lon="6.83988">
        <ele>89</ele>
        <time>2017-10-14T06:52:40.000Z</time>
      </trkpt>
      <trkpt lat="43.61334" lon="6.83988">
        <ele>89</ele>
        <time>2017-10-14T06:52:41.000Z</time>
      </trkpt>
      <trkpt lat="43.61334" lon="6.83988">
        <ele>88</ele>
        <time>2017-10-14T06:52:42.000Z</time>
      </trkpt>
      <trkpt lat="43.61335" lon="6.83987">
        <ele>87</ele>
        <time>2017-10-14T06:52:43.000Z</time>
      </trkpt>
      <trkpt lat="43.61335" lon="6.83987">
        <ele>85</ele>
        <time>2017-10-14T06:52:44.000Z</time>
      </trkpt>
      <trkpt lat="43.61335" lon="6.83987">
        <ele>85</ele>
        <time>2017-10-14T06:52:45.000Z</time>
      </trkpt>
      <trkpt lat="43.61336" lon="6.83986">
        <ele>85</ele>
        <time>2017-10-14T06:52:46.000Z</time>
      </trkpt>
      <trkpt lat="43.61336" lon="6.83986">
        <ele>84</ele>
        <time>2017-10-14T06:52:47.000Z</time>
      </trkpt>
      <trkpt lat="43.61337" lon="6.83987">
        <ele>83</ele>
        <time>2017-10-14T06:52:48.000Z</time>
      </trkpt>
      <trkpt lat="43.61336" lon="6.83987">
        <ele>80</ele>
        <time>2017-10-14T06:52:49.000Z</time>
      </trkpt>
      <trkpt lat="43.61336" lon="6.83988">
        <ele>79</ele>
        <time>2017-10-14T06:52:50.000Z</time>
      </trkpt>
      <trkpt lat="43.61336" lon="6.83989">
        <ele>77</ele>
        <time>2017-10-14T06:52:51.000Z</time>
      </trkpt>
      <trkpt lat="43.61336" lon="6.83989">
        <ele>77</ele>
        <time>2017-10-14T06:52:52.000Z</time>
      </trkpt>
      <trkpt lat="43.61336" lon="6.83989">
        <ele>77</ele>
        <time>2017-10-14T06:52:53.000Z</time>
      </trkpt>
      <trkpt lat="43.61336" lon="6.83989">
        <ele>78</ele>
        <time>2017-10-14T06:52:54.000Z</time>
      </trkpt>
      <trkpt lat="43.61336" lon="6.8399">
        <ele>77</ele>
        <time>2017-10-14T06:52:55.000Z</time>
      </trkpt>
      <trkpt lat="43.61337" lon="6.8399">
        <ele>77</ele>
        <time>2017-10-14T06:52:56.000Z</time>
      </trkpt>
      <trkpt lat="43.61337" lon="6.83989">
        <ele>77</ele>
        <time>2017-10-14T06:52:57.000Z</time>
      </trkpt>
      <trkpt lat="43.61337" lon="6.83989">
        <ele>77</ele>
        <time>2017-10-14T06:52:58.000Z</time>
      </trkpt>
      <trkpt lat="43.61337" lon="6.83989">
        <ele>77</ele>
        <time>2017-10-14T06:52:59.000Z</time>
      </trkpt>
      <trkpt lat="43.61337" lon="6.83989">
        <ele>76</ele>
        <time>2017-10-14T06:53:00.000Z</time>
      </trkpt>
      <trkpt lat="43.61337" lon="6.8399">
        <ele>76</ele>
        <time>2017-10-14T06:53:01.000Z</time>
      </trkpt>
      <trkpt lat="43.61337" lon="6.8399">
        <ele>76</ele>
        <time>2017-10-14T06:53:02.000Z</time>
      </trkpt>
      <trkpt lat="43.61337" lon="6.8399">
        <ele>75</ele>
        <time>2017-10-14T06:53:03.000Z</time>
      </trkpt>
      <trkpt lat="43.61337" lon="6.8399">
        <ele>74</ele>
        <time>2017-10-14T06:53:04.000Z</time>
      </trkpt>
      <trkpt lat="43.61338" lon="6.8399">
        <ele>73</ele>
        <time>2017-10-14T06:53:05.000Z</time>
      </trkpt>
      <trkpt lat="43.61338" lon="6.83991">
        <ele>73</ele>
        <time>2017-10-14T06:53:06.000Z</time>
      </trkpt>
      <trkpt lat="43.61338" lon="6.83991">
        <ele>73</ele>
        <time>2017-10-14T06:53:07.000Z</time>
      </trkpt>
      <trkpt lat="43.61338" lon="6.83991">
        <ele>73</ele>
        <time>2017-10-14T06:53:08.000Z</time>
      </trkpt>
      <trkpt lat="43.61338" lon="6.83991">
        <ele>73</ele>
        <time>2017-10-14T06:53:09.000Z</time>
      </trkpt>
      <trkpt lat="43.61338" lon="6.83991">
        <ele>73</ele>
        <time>2017-10-14T06:53:10.000Z</time>
      </trkpt>
      <trkpt lat="43.61337" lon="6.8399">
        <ele>74</ele>
        <time>2017-10-14T06:53:11.000Z</time>
      </trkpt>
      <trkpt lat="43.61336" lon="6.8399">
        <ele>75</ele>
        <time>2017-10-14T06:53:12.000Z</time>
      </trkpt>
      <trkpt lat="43.61336" lon="6.8399">
        <ele>75</ele>
        <time>2017-10-14T06:53:13.000Z</time>
      </trkpt>
      <trkpt lat="43.61335" lon="6.8399">
        <ele>75</ele>
        <time>2017-10-14T06:53:14.000Z</time>
      </trkpt>
      <trkpt lat="43.61334" lon="6.83991">
        <ele>74</ele>
        <time>2017-10-14T06:53:15.000Z</time>
      </trkpt>
      <trkpt lat="43.61333" lon="6.83991">
        <ele>74</ele>
        <time>2017-10-14T06:53:16.000Z</time>
      </trkpt>
      <trkpt lat="43.61333" lon="6.83992">
        <ele>72</ele>
        <time>2017-10-14T06:53:17.000Z</time>
      </trkpt>
      <trkpt lat="43.61333" lon="6.83992">
        <ele>71</ele>
        <time>2017-10-14T06:53:18.000Z</time>
      </trkpt>
      <trkpt lat="43.61333" lon="6.83992">
        <ele>71</ele>
        <time>2017-10-14T06:53:19.000Z</time>
      </trkpt>
      <trkpt lat="43.61332" lon="6.83992">
        <ele>71</ele>
        <time>2017-10-14T06:53:20.000Z</time>
      </trkpt>
      <trkpt lat="43.61332" lon="6.83992">
        <ele>71</ele>
        <time>2017-10-14T06:53:21.000Z</time>
      </trkpt>
      <trkpt lat="43.61331" lon="6.83992">
        <ele>71</ele>
        <time>2017-10-14T06:53:22.000Z</time>
      </trkpt>
      <trkpt lat="43.61331" lon="6.83993">
        <ele>71</ele>
        <time>2017-10-14T06:53:23.000Z</time>
      </trkpt>
      <trkpt lat="43.61332" lon="6.83993">
        <ele>71</ele>
        <time>2017-10-14T06:53:24.000Z</time>
      </trkpt>
      <trkpt lat="43.61332" lon="6.83993">
        <ele>71</ele>
        <time>2017-10-14T06:53:25.000Z</time>
      </trkpt>
      <trkpt lat="43.61332" lon="6.83994">
        <ele>72</ele>
        <time>2017-10-14T06:53:26.000Z</time>
      </trkpt>
      <trkpt lat="43.61331" lon="6.83994">
        <ele>72</ele>
        <time>2017-10-14T06:53:27.000Z</time>
      </trkpt>
      <trkpt lat="43.61331" lon="6.83994">
        <ele>72</ele>
        <time>2017-10-14T06:53:28.000Z</time>
      </trkpt>
      <trkpt lat="43.61331" lon="6.83993">
        <ele>73</ele>
        <time>2017-10-14T06:53:29.000Z</time>
      </trkpt>
      <trkpt lat="43.61331" lon="6.83993">
        <ele>73</ele>
        <time>2017-10-14T06:53:30.000Z</time>
      </trkpt>
      <trkpt lat="43.61331" lon="6.83993">
        <ele>73</ele>
        <time>2017-10-14T06:53:31.000Z</time>
      </trkpt>
      <trkpt lat="43.61331" lon="6.83993">
        <ele>74</ele>
        <time>2017-10-14T06:53:32.000Z</time>
      </trkpt>
      <trkpt lat="43.61331" lon="6.83993">
        <ele>74</ele>
        <time>2017-10-14T06:53:33.000Z</time>
      </trkpt>
      <trkpt lat="43.61331" lon="6.83993">
        <ele>74</ele>
        <time>2017-10-14T06:53:34.000Z</time>
      </trkpt>
      <trkpt lat="43.61331" lon="6.83993">
        <ele>74</ele>
        <time>2017-10-14T06:53:35.000Z</time>
      </trkpt>
      <trkpt lat="43.61331" lon="6.83993">
        <ele>75</ele>
        <time>2017-10-14T06:53:36.000Z</time>
      </trkpt>
      <trkpt lat="43.61331" lon="6.83993">
        <ele>75</ele>
        <time>2017-10-14T06:53:37.000Z</time>
      </trkpt>
      <trkpt lat="43.61331" lon="6.83993">
        <ele>75</ele>
        <time>2017-10-14T06:53:38.000Z</time>
      </trkpt>
      <trkpt lat="43.61331" lon="6.83993">
        <ele>75</ele>
        <time>2017-10-14T06:53:39.000Z</time>
      </trkpt>
      <trkpt lat="43.6133" lon="6.83993">
        <ele>76</ele>
        <time>2017-10-14T06:53:40.000Z</time>
      </trkpt>
      <trkpt lat="43.6133" lon="6.83993">
        <ele>76</ele>
        <time>2017-10-14T06:53:41.000Z</time>
      </trkpt>
      <trkpt lat="43.6133" lon="6.83993">
        <ele>76</ele>
        <time>2017-10-14T06:53:42.000Z</time>
      </trkpt>
      <trkpt lat="43.6133" lon="6.83993">
        <ele>76</ele>
        <time>2017-10-14T06:53:43.000Z</time>
      </trkpt>
      <trkpt lat="43.61331" lon="6.83993">
        <ele>75</ele>
        <time>2017-10-14T06:53:44.000Z</time>
      </trkpt>
      <trkpt lat="43.61331" lon="6.83993">
        <ele>75</ele>
        <time>2017-10-14T06:53:45.000Z</time>
      </trkpt>
      <trkpt lat="43.61331" lon="6.83994">
        <ele>75</ele>
        <time>2017-10-14T06:53:46.000Z</time>
      </trkpt>
      <trkpt lat="43.61331" lon="6.83994">
        <ele>75</ele>
        <time>2017-10-14T06:53:47.000Z</time>
      </trkpt>
      <trkpt lat="43.61331" lon="6.83994">
        <ele>76</ele>
        <time>2017-10-14T06:53:48.000Z</time>
      </trkpt>
      <trkpt lat="43.61331" lon="6.83994">
        <ele>76</ele>
        <time>2017-10-14T06:53:49.000Z</time>
      </trkpt>
      <trkpt lat="43.61331" lon="6.83994">
        <ele>76</ele>
        <time>2017-10-14T06:53:50.000Z</time>
      </trkpt>
      <trkpt lat="43.61331" lon="6.83994">
        <ele>76</ele>
        <time>2017-10-14T06:53:51.000Z</time>
      </trkpt>
      <trkpt lat="43.61331" lon="6.83994">
        <ele>76</ele>
        <time>2017-10-14T06:53:52.000Z</time>
      </trkpt>
      <trkpt lat="43.6133" lon="6.83995">
        <ele>76</ele>
        <time>2017-10-14T06:53:53.000Z</time>
      </trkpt>
      <trkpt lat="43.6133" lon="6.83995">
        <ele>76</ele>
        <time>2017-10-14T06:53:54.000Z</time>
      </trkpt>
      <trkpt lat="43.6133" lon="6.83995">
        <ele>76</ele>
        <time>2017-10-14T06:53:55.000Z</time>
      </trkpt>
      <trkpt lat="43.6133" lon="6.83995">
        <ele>77</ele>
        <time>2017-10-14T06:53:56.000Z</time>
      </trkpt>
      <trkpt lat="43.6133" lon="6.83996">
        <ele>77</ele>
        <time>2017-10-14T06:53:57.000Z</time>
      </trkpt>
      <trkpt lat="43.61329" lon="6.83996">
        <ele>77</ele>
        <time>2017-10-14T06:53:58.000Z</time>
      </trkpt>
      <trkpt lat="43.61329" lon="6.83996">
        <ele>78</ele>
        <time>2017-10-14T06:53:59.000Z</time>
      </trkpt>
      <trkpt lat="43.61329" lon="6.83996">
        <ele>79</ele>
        <time>2017-10-14T06:54:00.000Z</time>
      </trkpt>
      <trkpt lat="43.61328" lon="6.83996">
        <ele>80</ele>
        <time>2017-10-14T06:54:01.000Z</time>
      </trkpt>
      <trkpt lat="43.61328" lon="6.83997">
        <ele>80</ele>
        <time>2017-10-14T06:54:02.000Z</time>
      </trkpt>
      <trkpt lat="43.61328" lon="6.83997">
        <ele>80</ele>
        <time>2017-10-14T06:54:03.000Z</time>
      </trkpt>
      <trkpt lat="43.61328" lon="6.83997">
        <ele>80</ele>
        <time>2017-10-14T06:54:04.000Z</time>
      </trkpt>
      <trkpt lat="43.61327" lon="6.83997">
        <ele>80</ele>
        <time>2017-10-14T06:54:05.000Z</time>
      </trkpt>
      <trkpt lat="43.61327" lon="6.83997">
        <ele>80</ele>
        <time>2017-10-14T06:54:06.000Z</time>
      </trkpt>
      <trkpt lat="43.61327" lon="6.83998">
        <ele>80</ele>
        <time>2017-10-14T06:54:07.000Z</time>
      </trkpt>
      <trkpt lat="43.61326" lon="6.83999">
        <ele>80</ele>
        <time>2017-10-14T06:54:08.000Z</time>
      </trkpt>
      <trkpt lat="43.61325" lon="6.83999">
        <ele>79</ele>
        <time>2017-10-14T06:54:09.000Z</time>
      </trkpt>
      <trkpt lat="43.61324" lon="6.84">
        <ele>79</ele>
        <time>2017-10-14T06:54:10.000Z</time>
      </trkpt>
      <trkpt lat="43.61324" lon="6.84001">
        <ele>79</ele>
        <time>2017-10-14T06:54:11.000Z</time>
      </trkpt>
      <trkpt lat="43.61324" lon="6.84003">
        <ele>79</ele>
        <time>2017-10-14T06:54:12.000Z</time>
      </trkpt>
      <trkpt lat="43.61323" lon="6.84004">
        <ele>79</ele>
        <time>2017-10-14T06:54:13.000Z</time>
      </trkpt>
      <trkpt lat="43.61323" lon="6.84005">
        <ele>79</ele>
        <time>2017-10-14T06:54:14.000Z</time>
      </trkpt>
      <trkpt lat="43.61323" lon="6.84006">
        <ele>79</ele>
        <time>2017-10-14T06:54:15.000Z</time>
      </trkpt>
      <trkpt lat="43.61323" lon="6.84008">
        <ele>79</ele>
        <time>2017-10-14T06:54:16.000Z</time>
      </trkpt>
      <trkpt lat="43.61322" lon="6.8401">
        <ele>78</ele>
        <time>2017-10-14T06:54:17.000Z</time>
      </trkpt>
      <trkpt lat="43.61321" lon="6.84012">
        <ele>77</ele>
        <time>2017-10-14T06:54:18.000Z</time>
      </trkpt>
      <trkpt lat="43.6132" lon="6.84014">
        <ele>76</ele>
        <time>2017-10-14T06:54:19.000Z</time>
      </trkpt>
      <trkpt lat="43.61319" lon="6.84016">
        <ele>76</ele>
        <time>2017-10-14T06:54:20.000Z</time>
      </trkpt>
      <trkpt lat="43.61318" lon="6.84018">
        <ele>75</ele>
        <time>2017-10-14T06:54:21.000Z</time>
      </trkpt>
      <trkpt lat="43.61317" lon="6.84019">
        <ele>75</ele>
        <time>2017-10-14T06:54:22.000Z</time>
      </trkpt>
      <trkpt lat="43.61316" lon="6.84021">
        <ele>75</ele>
        <time>2017-10-14T06:54:23.000Z</time>
      </trkpt>
      <trkpt lat="43.61315" lon="6.84023">
        <ele>74</ele>
        <time>2017-10-14T06:54:24.000Z</time>
      </trkpt>
      <trkpt lat="43.61315" lon="6.84024">
        <ele>74</ele>
        <time>2017-10-14T06:54:25.000Z</time>
      </trkpt>
      <trkpt lat="43.61314" lon="6.84026">
        <ele>75</ele>
        <time>2017-10-14T06:54:26.000Z</time>
      </trkpt>
      <trkpt lat="43.61314" lon="6.84028">
        <ele>76</ele>
        <time>2017-10-14T06:54:27.000Z</time>
      </trkpt>
      <trkpt lat="43.61314" lon="6.8403">
        <ele>75</ele>
        <time>2017-10-14T06:54:28.000Z</time>
      </trkpt>
      <trkpt lat="43.61313" lon="6.84033">
        <ele>76</ele>
        <time>2017-10-14T06:54:29.000Z</time>
      </trkpt>
      <trkpt lat="43.61313" lon="6.84036">
        <ele>78</ele>
        <time>2017-10-14T06:54:30.000Z</time>
      </trkpt>
      <trkpt lat="43.61313" lon="6.84039">
        <ele>79</ele>
        <time>2017-10-14T06:54:31.000Z</time>
      </trkpt>
      <trkpt lat="43.61313" lon="6.84041">
        <ele>79</ele>
        <time>2017-10-14T06:54:32.000Z</time>
      </trkpt>
      <trkpt lat="43.61314" lon="6.84044">
        <ele>80</ele>
        <time>2017-10-14T06:54:33.000Z</time>
      </trkpt>
      <trkpt lat="43.61314" lon="6.84046">
        <ele>79</ele>
        <time>2017-10-14T06:54:34.000Z</time>
      </trkpt>
      <trkpt lat="43.61314" lon="6.84047">
        <ele>80</ele>
        <time>2017-10-14T06:54:35.000Z</time>
      </trkpt>
      <trkpt lat="43.61313" lon="6.84049">
        <ele>80</ele>
        <time>2017-10-14T06:54:36.000Z</time>
      </trkpt>
      <trkpt lat="43.61313" lon="6.84049">
        <ele>80</ele>
        <time>2017-10-14T06:54:37.000Z</time>
      </trkpt>
      <trkpt lat="43.61313" lon="6.8405">
        <ele>80</ele>
        <time>2017-10-14T06:54:38.000Z</time>
      </trkpt>
      <trkpt lat="43.61313" lon="6.8405">
        <ele>79</ele>
        <time>2017-10-14T06:54:39.000Z</time>
      </trkpt>
      <trkpt lat="43.61313" lon="6.84051">
        <ele>79</ele>
        <time>2017-10-14T06:54:40.000Z</time>
      </trkpt>
      <trkpt lat="43.61313" lon="6.84052">
        <ele>80</ele>
        <time>2017-10-14T06:54:41.000Z</time>
      </trkpt>
      <trkpt lat="43.61313" lon="6.84054">
        <ele>79</ele>
        <time>2017-10-14T06:54:42.000Z</time>
      </trkpt>
      <trkpt lat="43.61313" lon="6.84055">
        <ele>79</ele>
        <time>2017-10-14T06:54:43.000Z</time>
      </trkpt>
      <trkpt lat="43.61312" lon="6.84057">
        <ele>79</ele>
        <time>2017-10-14T06:54:44.000Z</time>
      </trkpt>
      <trkpt lat="43.61312" lon="6.84058">
        <ele>79</ele>
        <time>2017-10-14T06:54:45.000Z</time>
      </trkpt>
      <trkpt lat="43.61312" lon="6.84059">
        <ele>80</ele>
        <time>2017-10-14T06:54:46.000Z</time>
      </trkpt>
      <trkpt lat="43.61312" lon="6.84061">
        <ele>80</ele>
        <time>2017-10-14T06:54:47.000Z</time>
      </trkpt>
      <trkpt lat="43.61312" lon="6.84062">
        <ele>79</ele>
        <time>2017-10-14T06:54:48.000Z</time>
      </trkpt>
      <trkpt lat="43.61312" lon="6.84064">
        <ele>79</ele>
        <time>2017-10-14T06:54:49.000Z</time>
      </trkpt>
      <trkpt lat="43.61312" lon="6.84066">
        <ele>79</ele>
        <time>2017-10-14T06:54:50.000Z</time>
      </trkpt>
      <trkpt lat="43.61312" lon="6.84068">
        <ele>79</ele>
        <time>2017-10-14T06:54:51.000Z</time>
      </trkpt>
      <trkpt lat="43.61312" lon="6.8407">
        <ele>79</ele>
        <time>2017-10-14T06:54:52.000Z</time>
      </trkpt>
      <trkpt lat="43.61312" lon="6.84072">
        <ele>78</ele>
        <time>2017-10-14T06:54:53.000Z</time>
      </trkpt>
      <trkpt lat="43.61312" lon="6.84074">
        <ele>79</ele>
        <time>2017-10-14T06:54:54.000Z</time>
      </trkpt>
      <trkpt lat="43.61312" lon="6.84076">
        <ele>78</ele>
        <time>2017-10-14T06:54:55.000Z</time>
      </trkpt>
      <trkpt lat="43.61311" lon="6.84078">
        <ele>77</ele>
        <time>2017-10-14T06:54:56.000Z</time>
      </trkpt>
      <trkpt lat="43.6131" lon="6.84081">
        <ele>77</ele>
        <time>2017-10-14T06:54:57.000Z</time>
      </trkpt>
      <trkpt lat="43.6131" lon="6.84084">
        <ele>77</ele>
        <time>2017-10-14T06:54:58.000Z</time>
      </trkpt>
      <trkpt lat="43.6131" lon="6.84086">
        <ele>77</ele>
        <time>2017-10-14T06:54:59.000Z</time>
      </trkpt>
      <trkpt lat="43.61309" lon="6.84088">
        <ele>76</ele>
        <time>2017-10-14T06:55:00.000Z</time>
      </trkpt>
      <trkpt lat="43.61309" lon="6.84091">
        <ele>77</ele>
        <time>2017-10-14T06:55:01.000Z</time>
      </trkpt>
      <trkpt lat="43.61308" lon="6.84094">
        <ele>77</ele>
        <time>2017-10-14T06:55:02.000Z</time>
      </trkpt>
      <trkpt lat="43.61308" lon="6.84096">
        <ele>76</ele>
        <time>2017-10-14T06:55:03.000Z</time>
      </trkpt>
      <trkpt lat="43.61308" lon="6.84099">
        <ele>77</ele>
        <time>2017-10-14T06:55:04.000Z</time>
      </trkpt>
      <trkpt lat="43.61307" lon="6.84101">
        <ele>76</ele>
        <time>2017-10-14T06:55:05.000Z</time>
      </trkpt>
      <trkpt lat="43.61307" lon="6.84104">
        <ele>77</ele>
        <time>2017-10-14T06:55:06.000Z</time>
      </trkpt>
      <trkpt lat="43.61307" lon="6.84107">
        <ele>77</ele>
        <time>2017-10-14T06:55:07.000Z</time>
      </trkpt>
      <trkpt lat="43.61307" lon="6.84109">
        <ele>77</ele>
        <time>2017-10-14T06:55:08.000Z</time>
      </trkpt>
      <trkpt lat="43.61307" lon="6.84112">
        <ele>79</ele>
        <time>2017-10-14T06:55:09.000Z</time>
      </trkpt>
      <trkpt lat="43.61307" lon="6.84114">
        <ele>78</ele>
        <time>2017-10-14T06:55:10.000Z</time>
      </trkpt>
      <trkpt lat="43.61307" lon="6.84117">
        <ele>77</ele>
        <time>2017-10-14T06:55:11.000Z</time>
      </trkpt>
      <trkpt lat="43.61307" lon="6.8412">
        <ele>77</ele>
        <time>2017-10-14T06:55:12.000Z</time>
      </trkpt>
      <trkpt lat="43.61307" lon="6.84122">
        <ele>77</ele>
        <time>2017-10-14T06:55:13.000Z</time>
      </trkpt>
      <trkpt lat="43.61307" lon="6.84124">
        <ele>77</ele>
        <time>2017-10-14T06:55:14.000Z</time>
      </trkpt>
      <trkpt lat="43.61306" lon="6.84127">
        <ele>77</ele>
        <time>2017-10-14T06:55:15.000Z</time>
      </trkpt>
      <trkpt lat="43.61306" lon="6.8413">
        <ele>76</ele>
        <time>2017-10-14T06:55:16.000Z</time>
      </trkpt>
      <trkpt lat="43.61305" lon="6.84132">
        <ele>76</ele>
        <time>2017-10-14T06:55:17.000Z</time>
      </trkpt>
      <trkpt lat="43.61304" lon="6.84134">
        <ele>76</ele>
        <time>2017-10-14T06:55:18.000Z</time>
      </trkpt>
      <trkpt lat="43.61304" lon="6.84137">
        <ele>75</ele>
        <time>2017-10-14T06:55:19.000Z</time>
      </trkpt>
      <trkpt lat="43.61303" lon="6.8414">
        <ele>76</ele>
        <time>2017-10-14T06:55:20.000Z</time>
      </trkpt>
      <trkpt lat="43.61303" lon="6.84142">
        <ele>76</ele>
        <time>2017-10-14T06:55:21.000Z</time>
      </trkpt>
      <trkpt lat="43.61303" lon="6.84144">
        <ele>76</ele>
        <time>2017-10-14T06:55:22.000Z</time>
      </trkpt>
      <trkpt lat="43.61303" lon="6.84147">
        <ele>77</ele>
        <time>2017-10-14T06:55:23.000Z</time>
      </trkpt>
      <trkpt lat="43.61303" lon="6.84149">
        <ele>78</ele>
        <time>2017-10-14T06:55:24.000Z</time>
      </trkpt>
      <trkpt lat="43.61303" lon="6.84151">
        <ele>78</ele>
        <time>2017-10-14T06:55:25.000Z</time>
      </trkpt>
      <trkpt lat="43.61303" lon="6.84153">
        <ele>77</ele>
        <time>2017-10-14T06:55:26.000Z</time>
      </trkpt>
      <trkpt lat="43.61302" lon="6.84156">
        <ele>76</ele>
        <time>2017-10-14T06:55:27.000Z</time>
      </trkpt>
      <trkpt lat="43.61302" lon="6.84158">
        <ele>76</ele>
        <time>2017-10-14T06:55:28.000Z</time>
      </trkpt>
      <trkpt lat="43.61301" lon="6.8416">
        <ele>77</ele>
        <time>2017-10-14T06:55:29.000Z</time>
      </trkpt>
      <trkpt lat="43.613" lon="6.84163">
        <ele>77</ele>
        <time>2017-10-14T06:55:30.000Z</time>
      </trkpt>
      <trkpt lat="43.613" lon="6.84165">
        <ele>77</ele>
        <time>2017-10-14T06:55:31.000Z</time>
      </trkpt>
      <trkpt lat="43.61299" lon="6.84167">
        <ele>77</ele>
        <time>2017-10-14T06:55:32.000Z</time>
      </trkpt>
      <trkpt lat="43.61299" lon="6.8417">
        <ele>78</ele>
        <time>2017-10-14T06:55:33.000Z</time>
      </trkpt>
      <trkpt lat="43.613" lon="6.84174">
        <ele>77</ele>
        <time>2017-10-14T06:55:34.000Z</time>
      </trkpt>
      <trkpt lat="43.613" lon="6.84177">
        <ele>77</ele>
        <time>2017-10-14T06:55:35.000Z</time>
      </trkpt>
      <trkpt lat="43.61301" lon="6.84179">
        <ele>78</ele>
        <time>2017-10-14T06:55:36.000Z</time>
      </trkpt>
      <trkpt lat="43.61301" lon="6.84182">
        <ele>79</ele>
        <time>2017-10-14T06:55:37.000Z</time>
      </trkpt>
      <trkpt lat="43.61301" lon="6.84185">
        <ele>78</ele>
        <time>2017-10-14T06:55:38.000Z</time>
      </trkpt>
      <trkpt lat="43.61301" lon="6.84187">
        <ele>78</ele>
        <time>2017-10-14T06:55:39.000Z</time>
      </trkpt>
      <trkpt lat="43.61301" lon="6.8419">
        <ele>78</ele>
        <time>2017-10-14T06:55:40.000Z</time>
      </trkpt>
      <trkpt lat="43.613" lon="6.84193">
        <ele>78</ele>
        <time>2017-10-14T06:55:41.000Z</time>
      </trkpt>
      <trkpt lat="43.61299" lon="6.84196">
        <ele>77</ele>
        <time>2017-10-14T06:55:42.000Z</time>
      </trkpt>
      <trkpt lat="43.61299" lon="6.84199">
        <ele>77</ele>
        <time>2017-10-14T06:55:43.000Z</time>
      </trkpt>
      <trkpt lat="43.61299" lon="6.84201">
        <ele>77</ele>
        <time>2017-10-14T06:55:44.000Z</time>
      </trkpt>
      <trkpt lat="43.61299" lon="6.84204">
        <ele>77</ele>
        <time>2017-10-14T06:55:45.000Z</time>
      </trkpt>
      <trkpt lat="43.61299" lon="6.84206">
        <ele>77</ele>
        <time>2017-10-14T06:55:46.000Z</time>
      </trkpt>
      <trkpt lat="43.61299" lon="6.84209">
        <ele>76</ele>
        <time>2017-10-14T06:55:47.000Z</time>
      </trkpt>
      <trkpt lat="43.61299" lon="6.84211">
        <ele>76</ele>
        <time>2017-10-14T06:55:48.000Z</time>
      </trkpt>
      <trkpt lat="43.61298" lon="6.84214">
        <ele>77</ele>
        <time>2017-10-14T06:55:49.000Z</time>
      </trkpt>
      <trkpt lat="43.61298" lon="6.84216">
        <ele>76</ele>
        <time>2017-10-14T06:55:50.000Z</time>
      </trkpt>
      <trkpt lat="43.61298" lon="6.84218">
        <ele>77</ele>
        <time>2017-10-14T06:55:51.000Z</time>
      </trkpt>
      <trkpt lat="43.61299" lon="6.8422">
        <ele>77</ele>
        <time>2017-10-14T06:55:52.000Z</time>
      </trkpt>
      <trkpt lat="43.61299" lon="6.84222">
        <ele>78</ele>
        <time>2017-10-14T06:55:53.000Z</time>
      </trkpt>
      <trkpt lat="43.613" lon="6.84224">
        <ele>78</ele>
        <time>2017-10-14T06:55:54.000Z</time>
      </trkpt>
      <trkpt lat="43.613" lon="6.84227">
        <ele>78</ele>
        <time>2017-10-14T06:55:55.000Z</time>
      </trkpt>
      <trkpt lat="43.613" lon="6.84229">
        <ele>78</ele>
        <time>2017-10-14T06:55:56.000Z</time>
      </trkpt>
      <trkpt lat="43.613" lon="6.84231">
        <ele>79</ele>
        <time>2017-10-14T06:55:57.000Z</time>
      </trkpt>
      <trkpt lat="43.613" lon="6.84234">
        <ele>79</ele>
        <time>2017-10-14T06:55:58.000Z</time>
      </trkpt>
      <trkpt lat="43.613" lon="6.84237">
        <ele>79</ele>
        <time>2017-10-14T06:55:59.000Z</time>
      </trkpt>
      <trkpt lat="43.613" lon="6.84239">
        <ele>80</ele>
        <time>2017-10-14T06:56:00.000Z</time>
      </trkpt>
      <trkpt lat="43.613" lon="6.84241">
        <ele>80</ele>
        <time>2017-10-14T06:56:01.000Z</time>
      </trkpt>
      <trkpt lat="43.613" lon="6.84244">
        <ele>80</ele>
        <time>2017-10-14T06:56:02.000Z</time>
      </trkpt>
      <trkpt lat="43.613" lon="6.84246">
        <ele>81</ele>
        <time>2017-10-14T06:56:03.000Z</time>
      </trkpt>
      <trkpt lat="43.613" lon="6.84248">
        <ele>82</ele>
        <time>2017-10-14T06:56:04.000Z</time>
      </trkpt>
      <trkpt lat="43.613" lon="6.8425">
        <ele>82</ele>
        <time>2017-10-14T06:56:05.000Z</time>
      </trkpt>
      <trkpt lat="43.613" lon="6.84253">
        <ele>81</ele>
        <time>2017-10-14T06:56:06.000Z</time>
      </trkpt>
      <trkpt lat="43.613" lon="6.84256">
        <ele>80</ele>
        <time>2017-10-14T06:56:07.000Z</time>
      </trkpt>
      <trkpt lat="43.613" lon="6.84259">
        <ele>79</ele>
        <time>2017-10-14T06:56:08.000Z</time>
      </trkpt>
      <trkpt lat="43.613" lon="6.84262">
        <ele>77</ele>
        <time>2017-10-14T06:56:09.000Z</time>
      </trkpt>
      <trkpt lat="43.613" lon="6.84266">
        <ele>77</ele>
        <time>2017-10-14T06:56:10.000Z</time>
      </trkpt>
      <trkpt lat="43.613" lon="6.84269">
        <ele>76</ele>
        <time>2017-10-14T06:56:11.000Z</time>
      </trkpt>
      <trkpt lat="43.61299" lon="6.84272">
        <ele>76</ele>
        <time>2017-10-14T06:56:12.000Z</time>
      </trkpt>
      <trkpt lat="43.61298" lon="6.84275">
        <ele>76</ele>
        <time>2017-10-14T06:56:13.000Z</time>
      </trkpt>
      <trkpt lat="43.61298" lon="6.84277">
        <ele>75</ele>
        <time>2017-10-14T06:56:14.000Z</time>
      </trkpt>
      <trkpt lat="43.61298" lon="6.8428">
        <ele>76</ele>
        <time>2017-10-14T06:56:15.000Z</time>
      </trkpt>
      <trkpt lat="43.61298" lon="6.84282">
        <ele>76</ele>
        <time>2017-10-14T06:56:16.000Z</time>
      </trkpt>
      <trkpt lat="43.61298" lon="6.84285">
        <ele>77</ele>
        <time>2017-10-14T06:56:17.000Z</time>
      </trkpt>
      <trkpt lat="43.61299" lon="6.84288">
        <ele>77</ele>
        <time>2017-10-14T06:56:18.000Z</time>
      </trkpt>
      <trkpt lat="43.61299" lon="6.84292">
        <ele>76</ele>
        <time>2017-10-14T06:56:19.000Z</time>
      </trkpt>
      <trkpt lat="43.613" lon="6.84296">
        <ele>76</ele>
        <time>2017-10-14T06:56:20.000Z</time>
      </trkpt>
      <trkpt lat="43.61301" lon="6.84299">
        <ele>76</ele>
        <time>2017-10-14T06:56:21.000Z</time>
      </trkpt>
      <trkpt lat="43.61301" lon="6.84302">
        <ele>75</ele>
        <time>2017-10-14T06:56:22.000Z</time>
      </trkpt>
      <trkpt lat="43.61301" lon="6.84305">
        <ele>75</ele>
        <time>2017-10-14T06:56:23.000Z</time>
      </trkpt>
      <trkpt lat="43.61301" lon="6.84307">
        <ele>75</ele>
        <time>2017-10-14T06:56:24.000Z</time>
      </trkpt>
      <trkpt lat="43.61301" lon="6.8431">
        <ele>75</ele>
        <time>2017-10-14T06:56:25.000Z</time>
      </trkpt>
      <trkpt lat="43.61301" lon="6.84313">
        <ele>74</ele>
        <time>2017-10-14T06:56:26.000Z</time>
      </trkpt>
      <trkpt lat="43.61301" lon="6.84316">
        <ele>74</ele>
        <time>2017-10-14T06:56:27.000Z</time>
      </trkpt>
      <trkpt lat="43.61301" lon="6.84318">
        <ele>74</ele>
        <time>2017-10-14T06:56:28.000Z</time>
      </trkpt>
      <trkpt lat="43.61301" lon="6.84321">
        <ele>73</ele>
        <time>2017-10-14T06:56:29.000Z</time>
      </trkpt>
      <trkpt lat="43.61302" lon="6.84323">
        <ele>73</ele>
        <time>2017-10-14T06:56:30.000Z</time>
      </trkpt>
      <trkpt lat="43.61301" lon="6.84325">
        <ele>73</ele>
        <time>2017-10-14T06:56:31.000Z</time>
      </trkpt>
      <trkpt lat="43.61301" lon="6.84327">
        <ele>74</ele>
        <time>2017-10-14T06:56:32.000Z</time>
      </trkpt>
      <trkpt lat="43.61301" lon="6.84329">
        <ele>73</ele>
        <time>2017-10-14T06:56:33.000Z</time>
      </trkpt>
      <trkpt lat="43.61302" lon="6.84332">
        <ele>72</ele>
        <time>2017-10-14T06:56:34.000Z</time>
      </trkpt>
      <trkpt lat="43.61302" lon="6.84335">
        <ele>71</ele>
        <time>2017-10-14T06:56:35.000Z</time>
      </trkpt>
      <trkpt lat="43.61302" lon="6.84338">
        <ele>71</ele>
        <time>2017-10-14T06:56:36.000Z</time>
      </trkpt>
      <trkpt lat="43.61302" lon="6.84341">
        <ele>72</ele>
        <time>2017-10-14T06:56:37.000Z</time>
      </trkpt>
      <trkpt lat="43.61302" lon="6.84344">
        <ele>71</ele>
        <time>2017-10-14T06:56:38.000Z</time>
      </trkpt>
      <trkpt lat="43.61302" lon="6.84347">
        <ele>71</ele>
        <time>2017-10-14T06:56:39.000Z</time>
      </trkpt>
      <trkpt lat="43.61302" lon="6.8435">
        <ele>70</ele>
        <time>2017-10-14T06:56:40.000Z</time>
      </trkpt>
      <trkpt lat="43.61303" lon="6.84352">
        <ele>70</ele>
        <time>2017-10-14T06:56:41.000Z</time>
      </trkpt>
      <trkpt lat="43.61303" lon="6.84355">
        <ele>70</ele>
        <time>2017-10-14T06:56:42.000Z</time>
      </trkpt>
      <trkpt lat="43.61304" lon="6.84357">
        <ele>70</ele>
        <time>2017-10-14T06:56:43.000Z</time>
      </trkpt>
      <trkpt lat="43.61304" lon="6.8436">
        <ele>72</ele>
        <time>2017-10-14T06:56:44.000Z</time>
      </trkpt>
      <trkpt lat="43.61304" lon="6.84364">
        <ele>72</ele>
        <time>2017-10-14T06:56:45.000Z</time>
      </trkpt>
      <trkpt lat="43.61304" lon="6.84367">
        <ele>71</ele>
        <time>2017-10-14T06:56:46.000Z</time>
      </trkpt>
      <trkpt lat="43.61304" lon="6.8437">
        <ele>72</ele>
        <time>2017-10-14T06:56:47.000Z</time>
      </trkpt>
      <trkpt lat="43.61304" lon="6.84373">
        <ele>72</ele>
        <time>2017-10-14T06:56:48.000Z</time>
      </trkpt>
      <trkpt lat="43.61304" lon="6.84376">
        <ele>73</ele>
        <time>2017-10-14T06:56:49.000Z</time>
      </trkpt>
      <trkpt lat="43.61304" lon="6.84379">
        <ele>73</ele>
        <time>2017-10-14T06:56:50.000Z</time>
      </trkpt>
      <trkpt lat="43.61304" lon="6.84381">
        <ele>72</ele>
        <time>2017-10-14T06:56:51.000Z</time>
      </trkpt>
      <trkpt lat="43.61305" lon="6.84383">
        <ele>71</ele>
        <time>2017-10-14T06:56:52.000Z</time>
      </trkpt>
      <trkpt lat="43.61305" lon="6.84385">
        <ele>72</ele>
        <time>2017-10-14T06:56:53.000Z</time>
      </trkpt>
      <trkpt lat="43.61305" lon="6.84387">
        <ele>73</ele>
        <time>2017-10-14T06:56:54.000Z</time>
      </trkpt>
      <trkpt lat="43.61306" lon="6.84388">
        <ele>72</ele>
        <time>2017-10-14T06:56:55.000Z</time>
      </trkpt>
      <trkpt lat="43.61306" lon="6.84389">
        <ele>73</ele>
        <time>2017-10-14T06:56:56.000Z</time>
      </trkpt>
      <trkpt lat="43.61307" lon="6.84391">
        <ele>72</ele>
        <time>2017-10-14T06:56:57.000Z</time>
      </trkpt>
      <trkpt lat="43.61306" lon="6.84394">
        <ele>72</ele>
        <time>2017-10-14T06:56:58.000Z</time>
      </trkpt>
      <trkpt lat="43.61306" lon="6.84396">
        <ele>72</ele>
        <time>2017-10-14T06:56:59.000Z</time>
      </trkpt>
      <trkpt lat="43.61306" lon="6.84397">
        <ele>71</ele>
        <time>2017-10-14T06:57:00.000Z</time>
      </trkpt>
      <trkpt lat="43.61305" lon="6.84399">
        <ele>70</ele>
        <time>2017-10-14T06:57:01.000Z</time>
      </trkpt>
      <trkpt lat="43.61305" lon="6.84401">
        <ele>70</ele>
        <time>2017-10-14T06:57:02.000Z</time>
      </trkpt>
      <trkpt lat="43.61305" lon="6.84403">
        <ele>69</ele>
        <time>2017-10-14T06:57:03.000Z</time>
      </trkpt>
      <trkpt lat="43.61305" lon="6.84405">
        <ele>69</ele>
        <time>2017-10-14T06:57:04.000Z</time>
      </trkpt>
      <trkpt lat="43.61305" lon="6.84406">
        <ele>68</ele>
        <time>2017-10-14T06:57:05.000Z</time>
      </trkpt>
      <trkpt lat="43.61306" lon="6.84408">
        <ele>69</ele>
        <time>2017-10-14T06:57:06.000Z</time>
      </trkpt>
      <trkpt lat="43.61305" lon="6.84409">
        <ele>69</ele>
        <time>2017-10-14T06:57:07.000Z</time>
      </trkpt>
      <trkpt lat="43.61305" lon="6.8441">
        <ele>69</ele>
        <time>2017-10-14T06:57:08.000Z</time>
      </trkpt>
      <trkpt lat="43.61305" lon="6.84411">
        <ele>70</ele>
        <time>2017-10-14T06:57:09.000Z</time>
      </trkpt>
      <trkpt lat="43.61304" lon="6.84412">
        <ele>69</ele>
        <time>2017-10-14T06:57:10.000Z</time>
      </trkpt>
      <trkpt lat="43.61304" lon="6.84413">
        <ele>69</ele>
        <time>2017-10-14T06:57:11.000Z</time>
      </trkpt>
      <trkpt lat="43.61303" lon="6.84414">
        <ele>69</ele>
        <time>2017-10-14T06:57:12.000Z</time>
      </trkpt>
      <trkpt lat="43.61303" lon="6.84415">
        <ele>68</ele>
        <time>2017-10-14T06:57:13.000Z</time>
      </trkpt>
      <trkpt lat="43.61303" lon="6.84416">
        <ele>68</ele>
        <time>2017-10-14T06:57:14.000Z</time>
      </trkpt>
      <trkpt lat="43.61303" lon="6.84416">
        <ele>68</ele>
        <time>2017-10-14T06:57:15.000Z</time>
      </trkpt>
      <trkpt lat="43.61303" lon="6.84416">
        <ele>69</ele>
        <time>2017-10-14T06:57:16.000Z</time>
      </trkpt>
      <trkpt lat="43.61303" lon="6.84416">
        <ele>68</ele>
        <time>2017-10-14T06:57:17.000Z</time>
      </trkpt>
      <trkpt lat="43.61302" lon="6.84417">
        <ele>68</ele>
        <time>2017-10-14T06:57:18.000Z</time>
      </trkpt>
      <trkpt lat="43.61302" lon="6.84418">
        <ele>68</ele>
        <time>2017-10-14T06:57:19.000Z</time>
      </trkpt>
      <trkpt lat="43.61302" lon="6.84419">
        <ele>68</ele>
        <time>2017-10-14T06:57:20.000Z</time>
      </trkpt>
      <trkpt lat="43.61302" lon="6.8442">
        <ele>69</ele>
        <time>2017-10-14T06:57:21.000Z</time>
      </trkpt>
      <trkpt lat="43.61302" lon="6.84422">
        <ele>69</ele>
        <time>2017-10-14T06:57:22.000Z</time>
      </trkpt>
      <trkpt lat="43.61302" lon="6.84423">
        <ele>69</ele>
        <time>2017-10-14T06:57:23.000Z</time>
      </trkpt>
      <trkpt lat="43.61303" lon="6.84424">
        <ele>69</ele>
        <time>2017-10-14T06:57:24.000Z</time>
      </trkpt>
      <trkpt lat="43.61303" lon="6.84426">
        <ele>69</ele>
        <time>2017-10-14T06:57:25.000Z</time>
      </trkpt>
      <trkpt lat="43.61303" lon="6.84428">
        <ele>69</ele>
        <time>2017-10-14T06:57:26.000Z</time>
      </trkpt>
      <trkpt lat="43.61303" lon="6.84429">
        <ele>69</ele>
        <time>2017-10-14T06:57:27.000Z</time>
      </trkpt>
      <trkpt lat="43.61303" lon="6.8443">
        <ele>69</ele>
        <time>2017-10-14T06:57:28.000Z</time>
      </trkpt>
      <trkpt lat="43.61303" lon="6.84432">
        <ele>68</ele>
        <time>2017-10-14T06:57:29.000Z</time>
      </trkpt>
      <trkpt lat="43.61304" lon="6.84433">
        <ele>69</ele>
        <time>2017-10-14T06:57:30.000Z</time>
      </trkpt>
      <trkpt lat="43.61303" lon="6.84435">
        <ele>68</ele>
        <time>2017-10-14T06:57:31.000Z</time>
      </trkpt>
      <trkpt lat="43.61303" lon="6.84436">
        <ele>68</ele>
        <time>2017-10-14T06:57:32.000Z</time>
      </trkpt>
      <trkpt lat="43.61303" lon="6.84437">
        <ele>68</ele>
        <time>2017-10-14T06:57:33.000Z</time>
      </trkpt>
      <trkpt lat="43.61303" lon="6.84439">
        <ele>68</ele>
        <time>2017-10-14T06:57:34.000Z</time>
      </trkpt>
      <trkpt lat="43.61302" lon="6.8444">
        <ele>68</ele>
        <time>2017-10-14T06:57:35.000Z</time>
      </trkpt>
      <trkpt lat="43.61302" lon="6.84441">
        <ele>68</ele>
        <time>2017-10-14T06:57:36.000Z</time>
      </trkpt>
      <trkpt lat="43.61302" lon="6.84443">
        <ele>68</ele>
        <time>2017-10-14T06:57:37.000Z</time>
      </trkpt>
      <trkpt lat="43.61302" lon="6.84444">
        <ele>68</ele>
        <time>2017-10-14T06:57:38.000Z</time>
      </trkpt>
      <trkpt lat="43.61302" lon="6.84445">
        <ele>69</ele>
        <time>2017-10-14T06:57:39.000Z</time>
      </trkpt>
      <trkpt lat="43.61302" lon="6.84446">
        <ele>69</ele>
        <time>2017-10-14T06:57:40.000Z</time>
      </trkpt>
      <trkpt lat="43.61302" lon="6.84448">
        <ele>69</ele>
        <time>2017-10-14T06:57:41.000Z</time>
      </trkpt>
      <trkpt lat="43.61303" lon="6.84449">
        <ele>69</ele>
        <time>2017-10-14T06:57:42.000Z</time>
      </trkpt>
      <trkpt lat="43.61303" lon="6.84451">
        <ele>68</ele>
        <time>2017-10-14T06:57:43.000Z</time>
      </trkpt>
      <trkpt lat="43.61304" lon="6.84452">
        <ele>69</ele>
        <time>2017-10-14T06:57:44.000Z</time>
      </trkpt>
      <trkpt lat="43.61305" lon="6.84453">
        <ele>68</ele>
        <time>2017-10-14T06:57:45.000Z</time>
      </trkpt>
      <trkpt lat="43.61306" lon="6.84454">
        <ele>68</ele>
        <time>2017-10-14T06:57:46.000Z</time>
      </trkpt>
      <trkpt lat="43.61307" lon="6.84455">
        <ele>69</ele>
        <time>2017-10-14T06:57:47.000Z</time>
      </trkpt>
      <trkpt lat="43.61308" lon="6.84456">
        <ele>69</ele>
        <time>2017-10-14T06:57:48.000Z</time>
      </trkpt>
      <trkpt lat="43.61308" lon="6.84457">
        <ele>70</ele>
        <time>2017-10-14T06:57:49.000Z</time>
      </trkpt>
      <trkpt lat="43.61309" lon="6.84458">
        <ele>70</ele>
        <time>2017-10-14T06:57:50.000Z</time>
      </trkpt>
      <trkpt lat="43.61309" lon="6.84459">
        <ele>70</ele>
        <time>2017-10-14T06:57:51.000Z</time>
      </trkpt>
      <trkpt lat="43.6131" lon="6.8446">
        <ele>71</ele>
        <time>2017-10-14T06:57:52.000Z</time>
      </trkpt>
      <trkpt lat="43.6131" lon="6.84461">
        <ele>71</ele>
        <time>2017-10-14T06:57:53.000Z</time>
      </trkpt>
      <trkpt lat="43.61311" lon="6.84462">
        <ele>72</ele>
        <time>2017-10-14T06:57:54.000Z</time>
      </trkpt>
      <trkpt lat="43.61312" lon="6.84463">
        <ele>72</ele>
        <time>2017-10-14T06:57:55.000Z</time>
      </trkpt>
      <trkpt lat="43.61312" lon="6.84464">
        <ele>72</ele>
        <time>2017-10-14T06:57:56.000Z</time>
      </trkpt>
      <trkpt lat="43.61312" lon="6.84465">
        <ele>72</ele>
        <time>2017-10-14T06:57:57.000Z</time>
      </trkpt>
      <trkpt lat="43.61312" lon="6.84466">
        <ele>73</ele>
        <time>2017-10-14T06:57:58.000Z</time>
      </trkpt>
      <trkpt lat="43.61311" lon="6.84468">
        <ele>73</ele>
        <time>2017-10-14T06:57:59.000Z</time>
      </trkpt>
      <trkpt lat="43.61311" lon="6.84469">
        <ele>73</ele>
        <time>2017-10-14T06:58:00.000Z</time>
      </trkpt>
      <trkpt lat="43.61311" lon="6.84471">
        <ele>74</ele>
        <time>2017-10-14T06:58:01.000Z</time>
      </trkpt>
      <trkpt lat="43.61311" lon="6.84472">
        <ele>75</ele>
        <time>2017-10-14T06:58:02.000Z</time>
      </trkpt>
      <trkpt lat="43.61311" lon="6.84474">
        <ele>76</ele>
        <time>2017-10-14T06:58:03.000Z</time>
      </trkpt>
      <trkpt lat="43.61311" lon="6.84476">
        <ele>76</ele>
        <time>2017-10-14T06:58:04.000Z</time>
      </trkpt>
      <trkpt lat="43.61312" lon="6.84477">
        <ele>76</ele>
        <time>2017-10-14T06:58:05.000Z</time>
      </trkpt>
      <trkpt lat="43.61312" lon="6.84479">
        <ele>76</ele>
        <time>2017-10-14T06:58:06.000Z</time>
      </trkpt>
      <trkpt lat="43.61313" lon="6.8448">
        <ele>76</ele>
        <time>2017-10-14T06:58:07.000Z</time>
      </trkpt>
      <trkpt lat="43.61314" lon="6.84482">
        <ele>77</ele>
        <time>2017-10-14T06:58:08.000Z</time>
      </trkpt>
      <trkpt lat="43.61315" lon="6.84483">
        <ele>77</ele>
        <time>2017-10-14T06:58:09.000Z</time>
      </trkpt>
      <trkpt lat="43.61316" lon="6.84485">
        <ele>78</ele>
        <time>2017-10-14T06:58:10.000Z</time>
      </trkpt>
      <trkpt lat="43.61317" lon="6.84486">
        <ele>78</ele>
        <time>2017-10-14T06:58:11.000Z</time>
      </trkpt>
      <trkpt lat="43.61318" lon="6.84488">
        <ele>80</ele>
        <time>2017-10-14T06:58:12.000Z</time>
      </trkpt>
      <trkpt lat="43.61318" lon="6.84489">
        <ele>80</ele>
        <time>2017-10-14T06:58:13.000Z</time>
      </trkpt>
      <trkpt lat="43.61319" lon="6.8449">
        <ele>81</ele>
        <time>2017-10-14T06:58:14.000Z</time>
      </trkpt>
      <trkpt lat="43.6132" lon="6.84491">
        <ele>81</ele>
        <time>2017-10-14T06:58:15.000Z</time>
      </trkpt>
      <trkpt lat="43.6132" lon="6.84492">
        <ele>82</ele>
        <time>2017-10-14T06:58:16.000Z</time>
      </trkpt>
      <trkpt lat="43.61321" lon="6.84493">
        <ele>82</ele>
        <time>2017-10-14T06:58:17.000Z</time>
      </trkpt>
      <trkpt lat="43.61322" lon="6.84494">
        <ele>82</ele>
        <time>2017-10-14T06:58:18.000Z</time>
      </trkpt>
      <trkpt lat="43.61323" lon="6.84495">
        <ele>83</ele>
        <time>2017-10-14T06:58:19.000Z</time>
      </trkpt>
      <trkpt lat="43.61324" lon="6.84496">
        <ele>83</ele>
        <time>2017-10-14T06:58:20.000Z</time>
      </trkpt>
      <trkpt lat="43.61325" lon="6.84497">
        <ele>83</ele>
        <time>2017-10-14T06:58:21.000Z</time>
      </trkpt>
      <trkpt lat="43.61325" lon="6.84498">
        <ele>83</ele>
        <time>2017-10-14T06:58:22.000Z</time>
      </trkpt>
      <trkpt lat="43.61326" lon="6.84499">
        <ele>83</ele>
        <time>2017-10-14T06:58:23.000Z</time>
      </trkpt>
      <trkpt lat="43.61327" lon="6.84499">
        <ele>83</ele>
        <time>2017-10-14T06:58:24.000Z</time>
      </trkpt>
      <trkpt lat="43.61327" lon="6.845">
        <ele>82</ele>
        <time>2017-10-14T06:58:25.000Z</time>
      </trkpt>
      <trkpt lat="43.61327" lon="6.845">
        <ele>83</ele>
        <time>2017-10-14T06:58:26.000Z</time>
      </trkpt>
      <trkpt lat="43.61328" lon="6.84501">
        <ele>83</ele>
        <time>2017-10-14T06:58:27.000Z</time>
      </trkpt>
      <trkpt lat="43.61328" lon="6.84501">
        <ele>83</ele>
        <time>2017-10-14T06:58:28.000Z</time>
      </trkpt>
      <trkpt lat="43.61329" lon="6.84502">
        <ele>83</ele>
        <time>2017-10-14T06:58:29.000Z</time>
      </trkpt>
      <trkpt lat="43.6133" lon="6.84503">
        <ele>83</ele>
        <time>2017-10-14T06:58:30.000Z</time>
      </trkpt>
      <trkpt lat="43.61331" lon="6.84505">
        <ele>83</ele>
        <time>2017-10-14T06:58:31.000Z</time>
      </trkpt>
      <trkpt lat="43.61332" lon="6.84506">
        <ele>84</ele>
        <time>2017-10-14T06:58:32.000Z</time>
      </trkpt>
      <trkpt lat="43.61333" lon="6.84506">
        <ele>84</ele>
        <time>2017-10-14T06:58:33.000Z</time>
      </trkpt>
      <trkpt lat="43.61334" lon="6.84507">
        <ele>84</ele>
        <time>2017-10-14T06:58:34.000Z</time>
      </trkpt>
      <trkpt lat="43.61335" lon="6.84507">
        <ele>84</ele>
        <time>2017-10-14T06:58:35.000Z</time>
      </trkpt>
      <trkpt lat="43.61336" lon="6.84508">
        <ele>83</ele>
        <time>2017-10-14T06:58:36.000Z</time>
      </trkpt>
      <trkpt lat="43.61337" lon="6.84508">
        <ele>83</ele>
        <time>2017-10-14T06:58:37.000Z</time>
      </trkpt>
      <trkpt lat="43.61338" lon="6.84509">
        <ele>83</ele>
        <time>2017-10-14T06:58:38.000Z</time>
      </trkpt>
      <trkpt lat="43.61339" lon="6.8451">
        <ele>84</ele>
        <time>2017-10-14T06:58:39.000Z</time>
      </trkpt>
      <trkpt lat="43.6134" lon="6.84511">
        <ele>84</ele>
        <time>2017-10-14T06:58:40.000Z</time>
      </trkpt>
      <trkpt lat="43.61341" lon="6.84511">
        <ele>84</ele>
        <time>2017-10-14T06:58:41.000Z</time>
      </trkpt>
      <trkpt lat="43.61341" lon="6.84512">
        <ele>84</ele>
        <time>2017-10-14T06:58:42.000Z</time>
      </trkpt>
      <trkpt lat="43.61342" lon="6.84513">
        <ele>85</ele>
        <time>2017-10-14T06:58:43.000Z</time>
      </trkpt>
      <trkpt lat="43.61343" lon="6.84514">
        <ele>84</ele>
        <time>2017-10-14T06:58:44.000Z</time>
      </trkpt>
      <trkpt lat="43.61344" lon="6.84515">
        <ele>85</ele>
        <time>2017-10-14T06:58:45.000Z</time>
      </trkpt>
      <trkpt lat="43.61345" lon="6.84515">
        <ele>85</ele>
        <time>2017-10-14T06:58:46.000Z</time>
      </trkpt>
      <trkpt lat="43.61346" lon="6.84516">
        <ele>84</ele>
        <time>2017-10-14T06:58:47.000Z</time>
      </trkpt>
      <trkpt lat="43.61346" lon="6.84517">
        <ele>85</ele>
        <time>2017-10-14T06:58:48.000Z</time>
      </trkpt>
      <trkpt lat="43.61347" lon="6.84518">
        <ele>86</ele>
        <time>2017-10-14T06:58:49.000Z</time>
      </trkpt>
      <trkpt lat="43.61348" lon="6.84519">
        <ele>86</ele>
        <time>2017-10-14T06:58:50.000Z</time>
      </trkpt>
      <trkpt lat="43.61348" lon="6.84519">
        <ele>86</ele>
        <time>2017-10-14T06:58:51.000Z</time>
      </trkpt>
      <trkpt lat="43.61349" lon="6.8452">
        <ele>86</ele>
        <time>2017-10-14T06:58:52.000Z</time>
      </trkpt>
      <trkpt lat="43.6135" lon="6.84521">
        <ele>85</ele>
        <time>2017-10-14T06:58:53.000Z</time>
      </trkpt>
      <trkpt lat="43.61351" lon="6.84522">
        <ele>85</ele>
        <time>2017-10-14T06:58:54.000Z</time>
      </trkpt>
      <trkpt lat="43.61352" lon="6.84523">
        <ele>84</ele>
        <time>2017-10-14T06:58:55.000Z</time>
      </trkpt>
      <trkpt lat="43.61353" lon="6.84525">
        <ele>84</ele>
        <time>2017-10-14T06:58:56.000Z</time>
      </trkpt>
      <trkpt lat="43.61353" lon="6.84526">
        <ele>84</ele>
        <time>2017-10-14T06:58:57.000Z</time>
      </trkpt>
      <trkpt lat="43.61354" lon="6.84527">
        <ele>84</ele>
        <time>2017-10-14T06:58:58.000Z</time>
      </trkpt>
      <trkpt lat="43.61355" lon="6.84528">
        <ele>83</ele>
        <time>2017-10-14T06:58:59.000Z</time>
      </trkpt>
      <trkpt lat="43.61355" lon="6.84529">
        <ele>84</ele>
        <time>2017-10-14T06:59:00.000Z</time>
      </trkpt>
      <trkpt lat="43.61356" lon="6.8453">
        <ele>84</ele>
        <time>2017-10-14T06:59:01.000Z</time>
      </trkpt>
      <trkpt lat="43.61357" lon="6.84531">
        <ele>84</ele>
        <time>2017-10-14T06:59:02.000Z</time>
      </trkpt>
      <trkpt lat="43.61357" lon="6.84532">
        <ele>84</ele>
        <time>2017-10-14T06:59:03.000Z</time>
      </trkpt>
      <trkpt lat="43.61358" lon="6.84533">
        <ele>84</ele>
        <time>2017-10-14T06:59:04.000Z</time>
      </trkpt>
      <trkpt lat="43.61359" lon="6.84534">
        <ele>84</ele>
        <time>2017-10-14T06:59:05.000Z</time>
      </trkpt>
      <trkpt lat="43.61359" lon="6.84535">
        <ele>85</ele>
        <time>2017-10-14T06:59:06.000Z</time>
      </trkpt>
      <trkpt lat="43.6136" lon="6.84536">
        <ele>85</ele>
        <time>2017-10-14T06:59:07.000Z</time>
      </trkpt>
      <trkpt lat="43.61361" lon="6.84538">
        <ele>85</ele>
        <time>2017-10-14T06:59:08.000Z</time>
      </trkpt>
      <trkpt lat="43.61362" lon="6.84539">
        <ele>85</ele>
        <time>2017-10-14T06:59:09.000Z</time>
      </trkpt>
      <trkpt lat="43.61363" lon="6.8454">
        <ele>85</ele>
        <time>2017-10-14T06:59:10.000Z</time>
      </trkpt>
      <trkpt lat="43.61363" lon="6.84542">
        <ele>86</ele>
        <time>2017-10-14T06:59:11.000Z</time>
      </trkpt>
      <trkpt lat="43.61363" lon="6.84543">
        <ele>86</ele>
        <time>2017-10-14T06:59:12.000Z</time>
      </trkpt>
      <trkpt lat="43.61364" lon="6.84544">
        <ele>87</ele>
        <time>2017-10-14T06:59:13.000Z</time>
      </trkpt>
      <trkpt lat="43.61365" lon="6.84545">
        <ele>87</ele>
        <time>2017-10-14T06:59:14.000Z</time>
      </trkpt>
      <trkpt lat="43.61365" lon="6.84546">
        <ele>87</ele>
        <time>2017-10-14T06:59:15.000Z</time>
      </trkpt>
      <trkpt lat="43.61365" lon="6.84547">
        <ele>87</ele>
        <time>2017-10-14T06:59:16.000Z</time>
      </trkpt>
      <trkpt lat="43.61365" lon="6.84548">
        <ele>88</ele>
        <time>2017-10-14T06:59:17.000Z</time>
      </trkpt>
      <trkpt lat="43.61365" lon="6.84549">
        <ele>88</ele>
        <time>2017-10-14T06:59:18.000Z</time>
      </trkpt>
      <trkpt lat="43.61366" lon="6.8455">
        <ele>88</ele>
        <time>2017-10-14T06:59:19.000Z</time>
      </trkpt>
      <trkpt lat="43.61366" lon="6.84552">
        <ele>88</ele>
        <time>2017-10-14T06:59:20.000Z</time>
      </trkpt>
      <trkpt lat="43.61367" lon="6.84553">
        <ele>88</ele>
        <time>2017-10-14T06:59:21.000Z</time>
      </trkpt>
      <trkpt lat="43.61367" lon="6.84554">
        <ele>88</ele>
        <time>2017-10-14T06:59:22.000Z</time>
      </trkpt>
      <trkpt lat="43.61367" lon="6.84556">
        <ele>88</ele>
        <time>2017-10-14T06:59:23.000Z</time>
      </trkpt>
      <trkpt lat="43.61367" lon="6.84557">
        <ele>88</ele>
        <time>2017-10-14T06:59:24.000Z</time>
      </trkpt>
      <trkpt lat="43.61368" lon="6.84559">
        <ele>88</ele>
        <time>2017-10-14T06:59:25.000Z</time>
      </trkpt>
      <trkpt lat="43.61368" lon="6.8456">
        <ele>88</ele>
        <time>2017-10-14T06:59:26.000Z</time>
      </trkpt>
      <trkpt lat="43.61369" lon="6.84561">
        <ele>89</ele>
        <time>2017-10-14T06:59:27.000Z</time>
      </trkpt>
      <trkpt lat="43.61369" lon="6.84563">
        <ele>89</ele>
        <time>2017-10-14T06:59:28.000Z</time>
      </trkpt>
      <trkpt lat="43.61369" lon="6.84564">
        <ele>89</ele>
        <time>2017-10-14T06:59:29.000Z</time>
      </trkpt>
      <trkpt lat="43.6137" lon="6.84565">
        <ele>89</ele>
        <time>2017-10-14T06:59:30.000Z</time>
      </trkpt>
      <trkpt lat="43.6137" lon="6.84566">
        <ele>89</ele>
        <time>2017-10-14T06:59:31.000Z</time>
      </trkpt>
      <trkpt lat="43.6137" lon="6.84567">
        <ele>90</ele>
        <time>2017-10-14T06:59:32.000Z</time>
      </trkpt>
      <trkpt lat="43.6137" lon="6.84568">
        <ele>90</ele>
        <time>2017-10-14T06:59:33.000Z</time>
      </trkpt>
      <trkpt lat="43.6137" lon="6.84569">
        <ele>91</ele>
        <time>2017-10-14T06:59:34.000Z</time>
      </trkpt>
      <trkpt lat="43.6137" lon="6.8457">
        <ele>92</ele>
        <time>2017-10-14T06:59:35.000Z</time>
      </trkpt>
      <trkpt lat="43.61371" lon="6.84571">
        <ele>92</ele>
        <time>2017-10-14T06:59:36.000Z</time>
      </trkpt>
      <trkpt lat="43.61371" lon="6.84572">
        <ele>92</ele>
        <time>2017-10-14T06:59:37.000Z</time>
      </trkpt>
      <trkpt lat="43.61371" lon="6.84573">
        <ele>92</ele>
        <time>2017-10-14T06:59:38.000Z</time>
      </trkpt>
      <trkpt lat="43.61371" lon="6.84574">
        <ele>92</ele>
        <time>2017-10-14T06:59:39.000Z</time>
      </trkpt>
      <trkpt lat="43.61372" lon="6.84574">
        <ele>92</ele>
        <time>2017-10-14T06:59:40.000Z</time>
      </trkpt>
      <trkpt lat="43.61372" lon="6.84575">
        <ele>92</ele>
        <time>2017-10-14T06:59:41.000Z</time>
      </trkpt>
      <trkpt lat="43.61372" lon="6.84576">
        <ele>92</ele>
        <time>2017-10-14T06:59:42.000Z</time>
      </trkpt>
      <trkpt lat="43.61372" lon="6.84578">
        <ele>93</ele>
        <time>2017-10-14T06:59:43.000Z</time>
      </trkpt>
      <trkpt lat="43.61372" lon="6.84579">
        <ele>94</ele>
        <time>2017-10-14T06:59:44.000Z</time>
      </trkpt>
      <trkpt lat="43.61373" lon="6.8458">
        <ele>94</ele>
        <time>2017-10-14T06:59:45.000Z</time>
      </trkpt>
      <trkpt lat="43.61374" lon="6.84581">
        <ele>95</ele>
        <time>2017-10-14T06:59:46.000Z</time>
      </trkpt>
      <trkpt lat="43.61374" lon="6.84583">
        <ele>95</ele>
        <time>2017-10-14T06:59:47.000Z</time>
      </trkpt>
      <trkpt lat="43.61375" lon="6.84584">
        <ele>95</ele>
        <time>2017-10-14T06:59:48.000Z</time>
      </trkpt>
      <trkpt lat="43.61376" lon="6.84585">
        <ele>95</ele>
        <time>2017-10-14T06:59:49.000Z</time>
      </trkpt>
      <trkpt lat="43.61376" lon="6.84585">
        <ele>96</ele>
        <time>2017-10-14T06:59:50.000Z</time>
      </trkpt>
      <trkpt lat="43.61376" lon="6.84586">
        <ele>95</ele>
        <time>2017-10-14T06:59:51.000Z</time>
      </trkpt>
      <trkpt lat="43.61376" lon="6.84588">
        <ele>95</ele>
        <time>2017-10-14T06:59:52.000Z</time>
      </trkpt>
      <trkpt lat="43.61376" lon="6.84589">
        <ele>95</ele>
        <time>2017-10-14T06:59:53.000Z</time>
      </trkpt>
      <trkpt lat="43.61377" lon="6.8459">
        <ele>95</ele>
        <time>2017-10-14T06:59:54.000Z</time>
      </trkpt>
      <trkpt lat="43.61378" lon="6.84592">
        <ele>95</ele>
        <time>2017-10-14T06:59:55.000Z</time>
      </trkpt>
      <trkpt lat="43.61378" lon="6.84593">
        <ele>95</ele>
        <time>2017-10-14T06:59:56.000Z</time>
      </trkpt>
      <trkpt lat="43.61379" lon="6.84595">
        <ele>95</ele>
        <time>2017-10-14T06:59:57.000Z</time>
      </trkpt>
      <trkpt lat="43.6138" lon="6.84596">
        <ele>96</ele>
        <time>2017-10-14T06:59:58.000Z</time>
      </trkpt>
      <trkpt lat="43.61381" lon="6.84597">
        <ele>97</ele>
        <time>2017-10-14T06:59:59.000Z</time>
      </trkpt>
      <trkpt lat="43.61381" lon="6.84598">
        <ele>97</ele>
        <time>2017-10-14T07:00:00.000Z</time>
      </trkpt>
      <trkpt lat="43.61382" lon="6.84599">
        <ele>97</ele>
        <time>2017-10-14T07:00:01.000Z</time>
      </trkpt>
      <trkpt lat="43.61382" lon="6.846">
        <ele>98</ele>
        <time>2017-10-14T07:00:02.000Z</time>
      </trkpt>
      <trkpt lat="43.61383" lon="6.846">
        <ele>98</ele>
        <time>2017-10-14T07:00:03.000Z</time>
      </trkpt>
      <trkpt lat="43.61384" lon="6.84601">
        <ele>99</ele>
        <time>2017-10-14T07:00:04.000Z</time>
      </trkpt>
      <trkpt lat="43.61384" lon="6.84602">
        <ele>100</ele>
        <time>2017-10-14T07:00:05.000Z</time>
      </trkpt>
      <trkpt lat="43.61385" lon="6.84602">
        <ele>101</ele>
        <time>2017-10-14T07:00:06.000Z</time>
      </trkpt>
      <trkpt lat="43.61387" lon="6.84603">
        <ele>102</ele>
        <time>2017-10-14T07:00:07.000Z</time>
      </trkpt>
      <trkpt lat="43.61389" lon="6.84605">
        <ele>103</ele>
        <time>2017-10-14T07:00:08.000Z</time>
      </trkpt>
      <trkpt lat="43.61391" lon="6.84606">
        <ele>102</ele>
        <time>2017-10-14T07:00:09.000Z</time>
      </trkpt>
      <trkpt lat="43.61392" lon="6.84607">
        <ele>103</ele>
        <time>2017-10-14T07:00:10.000Z</time>
      </trkpt>
      <trkpt lat="43.61393" lon="6.84608">
        <ele>104</ele>
        <time>2017-10-14T07:00:11.000Z</time>
      </trkpt>
      <trkpt lat="43.61394" lon="6.84609">
        <ele>104</ele>
        <time>2017-10-14T07:00:12.000Z</time>
      </trkpt>
      <trkpt lat="43.61396" lon="6.84609">
        <ele>106</ele>
        <time>2017-10-14T07:00:13.000Z</time>
      </trkpt>
      <trkpt lat="43.61398" lon="6.8461">
        <ele>106</ele>
        <time>2017-10-14T07:00:14.000Z</time>
      </trkpt>
      <trkpt lat="43.61399" lon="6.84612">
        <ele>105</ele>
        <time>2017-10-14T07:00:15.000Z</time>
      </trkpt>
      <trkpt lat="43.61401" lon="6.84613">
        <ele>105</ele>
        <time>2017-10-14T07:00:16.000Z</time>
      </trkpt>
      <trkpt lat="43.61402" lon="6.84614">
        <ele>105</ele>
        <time>2017-10-14T07:00:17.000Z</time>
      </trkpt>
      <trkpt lat="43.61402" lon="6.84615">
        <ele>106</ele>
        <time>2017-10-14T07:00:18.000Z</time>
      </trkpt>
      <trkpt lat="43.61404" lon="6.84616">
        <ele>106</ele>
        <time>2017-10-14T07:00:19.000Z</time>
      </trkpt>
      <trkpt lat="43.61405" lon="6.84617">
        <ele>106</ele>
        <time>2017-10-14T07:00:20.000Z</time>
      </trkpt>
      <trkpt lat="43.61407" lon="6.84619">
        <ele>107</ele>
        <time>2017-10-14T07:00:21.000Z</time>
      </trkpt>
      <trkpt lat="43.61409" lon="6.8462">
        <ele>108</ele>
        <time>2017-10-14T07:00:22.000Z</time>
      </trkpt>
      <trkpt lat="43.6141" lon="6.84621">
        <ele>108</ele>
        <time>2017-10-14T07:00:23.000Z</time>
      </trkpt>
      <trkpt lat="43.61411" lon="6.84622">
        <ele>109</ele>
        <time>2017-10-14T07:00:24.000Z</time>
      </trkpt>
      <trkpt lat="43.61412" lon="6.84623">
        <ele>109</ele>
        <time>2017-10-14T07:00:25.000Z</time>
      </trkpt>
      <trkpt lat="43.61413" lon="6.84624">
        <ele>109</ele>
        <time>2017-10-14T07:00:26.000Z</time>
      </trkpt>
      <trkpt lat="43.61414" lon="6.84624">
        <ele>108</ele>
        <time>2017-10-14T07:00:27.000Z</time>
      </trkpt>
      <trkpt lat="43.61415" lon="6.84625">
        <ele>106</ele>
        <time>2017-10-14T07:00:28.000Z</time>
      </trkpt>
      <trkpt lat="43.61417" lon="6.84626">
        <ele>107</ele>
        <time>2017-10-14T07:00:29.000Z</time>
      </trkpt>
      <trkpt lat="43.61418" lon="6.84627">
        <ele>107</ele>
        <time>2017-10-14T07:00:30.000Z</time>
      </trkpt>
      <trkpt lat="43.61419" lon="6.84628">
        <ele>108</ele>
        <time>2017-10-14T07:00:31.000Z</time>
      </trkpt>
      <trkpt lat="43.6142" lon="6.84629">
        <ele>108</ele>
        <time>2017-10-14T07:00:32.000Z</time>
      </trkpt>
      <trkpt lat="43.61421" lon="6.8463">
        <ele>107</ele>
        <time>2017-10-14T07:00:33.000Z</time>
      </trkpt>
      <trkpt lat="43.61422" lon="6.8463">
        <ele>107</ele>
        <time>2017-10-14T07:00:34.000Z</time>
      </trkpt>
      <trkpt lat="43.61423" lon="6.84631">
        <ele>107</ele>
        <time>2017-10-14T07:00:35.000Z</time>
      </trkpt>
      <trkpt lat="43.61423" lon="6.84632">
        <ele>108</ele>
        <time>2017-10-14T07:00:36.000Z</time>
      </trkpt>
      <trkpt lat="43.61424" lon="6.84632">
        <ele>109</ele>
        <time>2017-10-14T07:00:37.000Z</time>
      </trkpt>
      <trkpt lat="43.61425" lon="6.84633">
        <ele>108</ele>
        <time>2017-10-14T07:00:38.000Z</time>
      </trkpt>
      <trkpt lat="43.61426" lon="6.84634">
        <ele>109</ele>
        <time>2017-10-14T07:00:39.000Z</time>
      </trkpt>
      <trkpt lat="43.61427" lon="6.84634">
        <ele>108</ele>
        <time>2017-10-14T07:00:40.000Z</time>
      </trkpt>
      <trkpt lat="43.61427" lon="6.84635">
        <ele>107</ele>
        <time>2017-10-14T07:00:41.000Z</time>
      </trkpt>
      <trkpt lat="43.61427" lon="6.84636">
        <ele>107</ele>
        <time>2017-10-14T07:00:42.000Z</time>
      </trkpt>
      <trkpt lat="43.61428" lon="6.84637">
        <ele>107</ele>
        <time>2017-10-14T07:00:43.000Z</time>
      </trkpt>
      <trkpt lat="43.61428" lon="6.84637">
        <ele>108</ele>
        <time>2017-10-14T07:00:44.000Z</time>
      </trkpt>
      <trkpt lat="43.61429" lon="6.84638">
        <ele>108</ele>
        <time>2017-10-14T07:00:45.000Z</time>
      </trkpt>
      <trkpt lat="43.6143" lon="6.84638">
        <ele>108</ele>
        <time>2017-10-14T07:00:46.000Z</time>
      </trkpt>
      <trkpt lat="43.6143" lon="6.84639">
        <ele>108</ele>
        <time>2017-10-14T07:00:47.000Z</time>
      </trkpt>
      <trkpt lat="43.61431" lon="6.8464">
        <ele>108</ele>
        <time>2017-10-14T07:00:48.000Z</time>
      </trkpt>
      <trkpt lat="43.61432" lon="6.8464">
        <ele>108</ele>
        <time>2017-10-14T07:00:49.000Z</time>
      </trkpt>
      <trkpt lat="43.61433" lon="6.84641">
        <ele>108</ele>
        <time>2017-10-14T07:00:50.000Z</time>
      </trkpt>
      <trkpt lat="43.61434" lon="6.84642">
        <ele>108</ele>
        <time>2017-10-14T07:00:51.000Z</time>
      </trkpt>
      <trkpt lat="43.61434" lon="6.84643">
        <ele>108</ele>
        <time>2017-10-14T07:00:52.000Z</time>
      </trkpt>
      <trkpt lat="43.61435" lon="6.84644">
        <ele>108</ele>
        <time>2017-10-14T07:00:53.000Z</time>
      </trkpt>
      <trkpt lat="43.61436" lon="6.84644">
        <ele>108</ele>
        <time>2017-10-14T07:00:54.000Z</time>
      </trkpt>
      <trkpt lat="43.61436" lon="6.84645">
        <ele>108</ele>
        <time>2017-10-14T07:00:55.000Z</time>
      </trkpt>
      <trkpt lat="43.61437" lon="6.84645">
        <ele>109</ele>
        <time>2017-10-14T07:00:56.000Z</time>
      </trkpt>
      <trkpt lat="43.61438" lon="6.84645">
        <ele>109</ele>
        <time>2017-10-14T07:00:57.000Z</time>
      </trkpt>
      <trkpt lat="43.61439" lon="6.84645">
        <ele>108</ele>
        <time>2017-10-14T07:00:58.000Z</time>
      </trkpt>
      <trkpt lat="43.61439" lon="6.84646">
        <ele>108</ele>
        <time>2017-10-14T07:00:59.000Z</time>
      </trkpt>
      <trkpt lat="43.6144" lon="6.84646">
        <ele>108</ele>
        <time>2017-10-14T07:01:00.000Z</time>
      </trkpt>
      <trkpt lat="43.61441" lon="6.84647">
        <ele>108</ele>
        <time>2017-10-14T07:01:01.000Z</time>
      </trkpt>
      <trkpt lat="43.61442" lon="6.84648">
        <ele>108</ele>
        <time>2017-10-14T07:01:02.000Z</time>
      </trkpt>
      <trkpt lat="43.61443" lon="6.84648">
        <ele>107</ele>
        <time>2017-10-14T07:01:03.000Z</time>
      </trkpt>
      <trkpt lat="43.61444" lon="6.84649">
        <ele>107</ele>
        <time>2017-10-14T07:01:04.000Z</time>
      </trkpt>
      <trkpt lat="43.61446" lon="6.8465">
        <ele>108</ele>
        <time>2017-10-14T07:01:05.000Z</time>
      </trkpt>
      <trkpt lat="43.61447" lon="6.84651">
        <ele>108</ele>
        <time>2017-10-14T07:01:06.000Z</time>
      </trkpt>
      <trkpt lat="43.61448" lon="6.84651">
        <ele>107</ele>
        <time>2017-10-14T07:01:07.000Z</time>
      </trkpt>
      <trkpt lat="43.6145" lon="6.84652">
        <ele>107</ele>
        <time>2017-10-14T07:01:08.000Z</time>
      </trkpt>
      <trkpt lat="43.61451" lon="6.84652">
        <ele>108</ele>
        <time>2017-10-14T07:01:09.000Z</time>
      </trkpt>
      <trkpt lat="43.61452" lon="6.84652">
        <ele>107</ele>
        <time>2017-10-14T07:01:10.000Z</time>
      </trkpt>
      <trkpt lat="43.61453" lon="6.84653">
        <ele>107</ele>
        <time>2017-10-14T07:01:11.000Z</time>
      </trkpt>
      <trkpt lat="43.61454" lon="6.84653">
        <ele>107</ele>
        <time>2017-10-14T07:01:12.000Z</time>
      </trkpt>
      <trkpt lat="43.61454" lon="6.84654">
        <ele>107</ele>
        <time>2017-10-14T07:01:13.000Z</time>
      </trkpt>
      <trkpt lat="43.61455" lon="6.84655">
        <ele>107</ele>
        <time>2017-10-14T07:01:14.000Z</time>
      </trkpt>
      <trkpt lat="43.61456" lon="6.84656">
        <ele>108</ele>
        <time>2017-10-14T07:01:15.000Z</time>
      </trkpt>
      <trkpt lat="43.61458" lon="6.84658">
        <ele>108</ele>
        <time>2017-10-14T07:01:16.000Z</time>
      </trkpt>
      <trkpt lat="43.61459" lon="6.84659">
        <ele>108</ele>
        <time>2017-10-14T07:01:17.000Z</time>
      </trkpt>
      <trkpt lat="43.6146" lon="6.8466">
        <ele>109</ele>
        <time>2017-10-14T07:01:18.000Z</time>
      </trkpt>
      <trkpt lat="43.61461" lon="6.84661">
        <ele>109</ele>
        <time>2017-10-14T07:01:19.000Z</time>
      </trkpt>
      <trkpt lat="43.61462" lon="6.84663">
        <ele>109</ele>
        <time>2017-10-14T07:01:20.000Z</time>
      </trkpt>
      <trkpt lat="43.61463" lon="6.84664">
        <ele>109</ele>
        <time>2017-10-14T07:01:21.000Z</time>
      </trkpt>
      <trkpt lat="43.61464" lon="6.84666">
        <ele>108</ele>
        <time>2017-10-14T07:01:22.000Z</time>
      </trkpt>
      <trkpt lat="43.61465" lon="6.84668">
        <ele>109</ele>
        <time>2017-10-14T07:01:23.000Z</time>
      </trkpt>
      <trkpt lat="43.61466" lon="6.84669">
        <ele>109</ele>
        <time>2017-10-14T07:01:24.000Z</time>
      </trkpt>
      <trkpt lat="43.61467" lon="6.84671">
        <ele>109</ele>
        <time>2017-10-14T07:01:25.000Z</time>
      </trkpt>
      <trkpt lat="43.61468" lon="6.84673">
        <ele>109</ele>
        <time>2017-10-14T07:01:26.000Z</time>
      </trkpt>
      <trkpt lat="43.61469" lon="6.84675">
        <ele>110</ele>
        <time>2017-10-14T07:01:27.000Z</time>
      </trkpt>
      <trkpt lat="43.61469" lon="6.84677">
        <ele>110</ele>
        <time>2017-10-14T07:01:28.000Z</time>
      </trkpt>
      <trkpt lat="43.6147" lon="6.84679">
        <ele>111</ele>
        <time>2017-10-14T07:01:29.000Z</time>
      </trkpt>
      <trkpt lat="43.6147" lon="6.84681">
        <ele>112</ele>
        <time>2017-10-14T07:01:30.000Z</time>
      </trkpt>
      <trkpt lat="43.61471" lon="6.84683">
        <ele>112</ele>
        <time>2017-10-14T07:01:31.000Z</time>
      </trkpt>
      <trkpt lat="43.61471" lon="6.84685">
        <ele>113</ele>
        <time>2017-10-14T07:01:32.000Z</time>
      </trkpt>
      <trkpt lat="43.61472" lon="6.84686">
        <ele>113</ele>
        <time>2017-10-14T07:01:33.000Z</time>
      </trkpt>
      <trkpt lat="43.61472" lon="6.84687">
        <ele>114</ele>
        <time>2017-10-14T07:01:34.000Z</time>
      </trkpt>
      <trkpt lat="43.61472" lon="6.84689">
        <ele>115</ele>
        <time>2017-10-14T07:01:35.000Z</time>
      </trkpt>
      <trkpt lat="43.61473" lon="6.8469">
        <ele>115</ele>
        <time>2017-10-14T07:01:36.000Z</time>
      </trkpt>
      <trkpt lat="43.61473" lon="6.84691">
        <ele>115</ele>
        <time>2017-10-14T07:01:37.000Z</time>
      </trkpt>
      <trkpt lat="43.61474" lon="6.84692">
        <ele>115</ele>
        <time>2017-10-14T07:01:38.000Z</time>
      </trkpt>
      <trkpt lat="43.61474" lon="6.84694">
        <ele>116</ele>
        <time>2017-10-14T07:01:39.000Z</time>
      </trkpt>
      <trkpt lat="43.61474" lon="6.84695">
        <ele>117</ele>
        <time>2017-10-14T07:01:40.000Z</time>
      </trkpt>
      <trkpt lat="43.61475" lon="6.84696">
        <ele>118</ele>
        <time>2017-10-14T07:01:41.000Z</time>
      </trkpt>
      <trkpt lat="43.61476" lon="6.84698">
        <ele>119</ele>
        <time>2017-10-14T07:01:42.000Z</time>
      </trkpt>
      <trkpt lat="43.61476" lon="6.84699">
        <ele>119</ele>
        <time>2017-10-14T07:01:43.000Z</time>
      </trkpt>
      <trkpt lat="43.61477" lon="6.847">
        <ele>120</ele>
        <time>2017-10-14T07:01:44.000Z</time>
      </trkpt>
      <trkpt lat="43.61477" lon="6.84701">
        <ele>120</ele>
        <time>2017-10-14T07:01:45.000Z</time>
      </trkpt>
      <trkpt lat="43.61477" lon="6.84703">
        <ele>120</ele>
        <time>2017-10-14T07:01:46.000Z</time>
      </trkpt>
      <trkpt lat="43.61478" lon="6.84704">
        <ele>120</ele>
        <time>2017-10-14T07:01:47.000Z</time>
      </trkpt>
      <trkpt lat="43.61478" lon="6.84706">
        <ele>121</ele>
        <time>2017-10-14T07:01:48.000Z</time>
      </trkpt>
      <trkpt lat="43.61479" lon="6.84707">
        <ele>122</ele>
        <time>2017-10-14T07:01:49.000Z</time>
      </trkpt>
      <trkpt lat="43.61479" lon="6.84708">
        <ele>123</ele>
        <time>2017-10-14T07:01:50.000Z</time>
      </trkpt>
      <trkpt lat="43.61479" lon="6.84709">
        <ele>122</ele>
        <time>2017-10-14T07:01:51.000Z</time>
      </trkpt>
      <trkpt lat="43.6148" lon="6.84711">
        <ele>122</ele>
        <time>2017-10-14T07:01:52.000Z</time>
      </trkpt>
      <trkpt lat="43.6148" lon="6.84712">
        <ele>123</ele>
        <time>2017-10-14T07:01:53.000Z</time>
      </trkpt>
      <trkpt lat="43.6148" lon="6.84713">
        <ele>122</ele>
        <time>2017-10-14T07:01:54.000Z</time>
      </trkpt>
      <trkpt lat="43.61481" lon="6.84714">
        <ele>123</ele>
        <time>2017-10-14T07:01:55.000Z</time>
      </trkpt>
      <trkpt lat="43.61481" lon="6.84715">
        <ele>123</ele>
        <time>2017-10-14T07:01:56.000Z</time>
      </trkpt>
      <trkpt lat="43.61482" lon="6.84716">
        <ele>124</ele>
        <time>2017-10-14T07:01:57.000Z</time>
      </trkpt>
      <trkpt lat="43.61482" lon="6.84718">
        <ele>125</ele>
        <time>2017-10-14T07:01:58.000Z</time>
      </trkpt>
      <trkpt lat="43.61482" lon="6.84719">
        <ele>125</ele>
        <time>2017-10-14T07:01:59.000Z</time>
      </trkpt>
      <trkpt lat="43.61482" lon="6.8472">
        <ele>124</ele>
        <time>2017-10-14T07:02:00.000Z</time>
      </trkpt>
      <trkpt lat="43.61482" lon="6.84721">
        <ele>124</ele>
        <time>2017-10-14T07:02:01.000Z</time>
      </trkpt>
      <trkpt lat="43.61482" lon="6.84722">
        <ele>124</ele>
        <time>2017-10-14T07:02:02.000Z</time>
      </trkpt>
      <trkpt lat="43.61481" lon="6.84723">
        <ele>124</ele>
        <time>2017-10-14T07:02:03.000Z</time>
      </trkpt>
      <trkpt lat="43.61481" lon="6.84724">
        <ele>125</ele>
        <time>2017-10-14T07:02:04.000Z</time>
      </trkpt>
      <trkpt lat="43.61481" lon="6.84726">
        <ele>124</ele>
        <time>2017-10-14T07:02:05.000Z</time>
      </trkpt>
      <trkpt lat="43.6148" lon="6.84727">
        <ele>124</ele>
        <time>2017-10-14T07:02:06.000Z</time>
      </trkpt>
      <trkpt lat="43.6148" lon="6.84728">
        <ele>124</ele>
        <time>2017-10-14T07:02:07.000Z</time>
      </trkpt>
      <trkpt lat="43.61479" lon="6.84729">
        <ele>124</ele>
        <time>2017-10-14T07:02:08.000Z</time>
      </trkpt>
      <trkpt lat="43.61479" lon="6.8473">
        <ele>124</ele>
        <time>2017-10-14T07:02:09.000Z</time>
      </trkpt>
      <trkpt lat="43.61478" lon="6.84731">
        <ele>122</ele>
        <time>2017-10-14T07:02:10.000Z</time>
      </trkpt>
      <trkpt lat="43.61477" lon="6.84732">
        <ele>123</ele>
        <time>2017-10-14T07:02:11.000Z</time>
      </trkpt>
      <trkpt lat="43.61476" lon="6.84733">
        <ele>123</ele>
        <time>2017-10-14T07:02:12.000Z</time>
      </trkpt>
      <trkpt lat="43.61476" lon="6.84734">
        <ele>124</ele>
        <time>2017-10-14T07:02:13.000Z</time>
      </trkpt>
      <trkpt lat="43.61475" lon="6.84735">
        <ele>124</ele>
        <time>2017-10-14T07:02:14.000Z</time>
      </trkpt>
      <trkpt lat="43.61474" lon="6.84736">
        <ele>122</ele>
        <time>2017-10-14T07:02:15.000Z</time>
      </trkpt>
      <trkpt lat="43.61473" lon="6.84737">
        <ele>122</ele>
        <time>2017-10-14T07:02:16.000Z</time>
      </trkpt>
      <trkpt lat="43.61471" lon="6.84738">
        <ele>122</ele>
        <time>2017-10-14T07:02:17.000Z</time>
      </trkpt>
      <trkpt lat="43.61471" lon="6.84739">
        <ele>123</ele>
        <time>2017-10-14T07:02:18.000Z</time>
      </trkpt>
      <trkpt lat="43.6147" lon="6.84741">
        <ele>124</ele>
        <time>2017-10-14T07:02:19.000Z</time>
      </trkpt>
      <trkpt lat="43.6147" lon="6.84742">
        <ele>125</ele>
        <time>2017-10-14T07:02:20.000Z</time>
      </trkpt>
      <trkpt lat="43.6147" lon="6.84743">
        <ele>126</ele>
        <time>2017-10-14T07:02:21.000Z</time>
      </trkpt>
      <trkpt lat="43.61469" lon="6.84744">
        <ele>126</ele>
        <time>2017-10-14T07:02:22.000Z</time>
      </trkpt>
      <trkpt lat="43.61469" lon="6.84745">
        <ele>126</ele>
        <time>2017-10-14T07:02:23.000Z</time>
      </trkpt>
      <trkpt lat="43.61468" lon="6.84746">
        <ele>126</ele>
        <time>2017-10-14T07:02:24.000Z</time>
      </trkpt>
      <trkpt lat="43.61468" lon="6.84747">
        <ele>126</ele>
        <time>2017-10-14T07:02:25.000Z</time>
      </trkpt>
      <trkpt lat="43.61467" lon="6.84748">
        <ele>126</ele>
        <time>2017-10-14T07:02:26.000Z</time>
      </trkpt>
      <trkpt lat="43.61467" lon="6.84749">
        <ele>127</ele>
        <time>2017-10-14T07:02:27.000Z</time>
      </trkpt>
      <trkpt lat="43.61466" lon="6.84749">
        <ele>126</ele>
        <time>2017-10-14T07:02:28.000Z</time>
      </trkpt>
      <trkpt lat="43.61466" lon="6.8475">
        <ele>127</ele>
        <time>2017-10-14T07:02:29.000Z</time>
      </trkpt>
      <trkpt lat="43.61466" lon="6.84752">
        <ele>126</ele>
        <time>2017-10-14T07:02:30.000Z</time>
      </trkpt>
      <trkpt lat="43.61465" lon="6.84753">
        <ele>127</ele>
        <time>2017-10-14T07:02:31.000Z</time>
      </trkpt>
      <trkpt lat="43.61465" lon="6.84753">
        <ele>128</ele>
        <time>2017-10-14T07:02:32.000Z</time>
      </trkpt>
      <trkpt lat="43.61464" lon="6.84754">
        <ele>127</ele>
        <time>2017-10-14T07:02:33.000Z</time>
      </trkpt>
      <trkpt lat="43.61464" lon="6.84755">
        <ele>127</ele>
        <time>2017-10-14T07:02:34.000Z</time>
      </trkpt>
      <trkpt lat="43.61463" lon="6.84756">
        <ele>127</ele>
        <time>2017-10-14T07:02:35.000Z</time>
      </trkpt>
      <trkpt lat="43.61462" lon="6.84757">
        <ele>126</ele>
        <time>2017-10-14T07:02:36.000Z</time>
      </trkpt>
      <trkpt lat="43.61461" lon="6.84759">
        <ele>127</ele>
        <time>2017-10-14T07:02:37.000Z</time>
      </trkpt>
      <trkpt lat="43.61461" lon="6.8476">
        <ele>127</ele>
        <time>2017-10-14T07:02:38.000Z</time>
      </trkpt>
      <trkpt lat="43.61461" lon="6.84761">
        <ele>127</ele>
        <time>2017-10-14T07:02:39.000Z</time>
      </trkpt>
      <trkpt lat="43.6146" lon="6.84762">
        <ele>127</ele>
        <time>2017-10-14T07:02:40.000Z</time>
      </trkpt>
      <trkpt lat="43.61459" lon="6.84764">
        <ele>127</ele>
        <time>2017-10-14T07:02:41.000Z</time>
      </trkpt>
      <trkpt lat="43.61459" lon="6.84765">
        <ele>129</ele>
        <time>2017-10-14T07:02:42.000Z</time>
      </trkpt>
      <trkpt lat="43.61458" lon="6.84767">
        <ele>128</ele>
        <time>2017-10-14T07:02:43.000Z</time>
      </trkpt>
      <trkpt lat="43.61458" lon="6.84768">
        <ele>128</ele>
        <time>2017-10-14T07:02:44.000Z</time>
      </trkpt>
      <trkpt lat="43.61458" lon="6.84769">
        <ele>129</ele>
        <time>2017-10-14T07:02:45.000Z</time>
      </trkpt>
      <trkpt lat="43.61458" lon="6.84771">
        <ele>130</ele>
        <time>2017-10-14T07:02:46.000Z</time>
      </trkpt>
      <trkpt lat="43.61457" lon="6.84772">
        <ele>131</ele>
        <time>2017-10-14T07:02:47.000Z</time>
      </trkpt>
      <trkpt lat="43.61457" lon="6.84773">
        <ele>132</ele>
        <time>2017-10-14T07:02:48.000Z</time>
      </trkpt>
      <trkpt lat="43.61457" lon="6.84775">
        <ele>132</ele>
        <time>2017-10-14T07:02:49.000Z</time>
      </trkpt>
      <trkpt lat="43.61456" lon="6.84776">
        <ele>132</ele>
        <time>2017-10-14T07:02:50.000Z</time>
      </trkpt>
      <trkpt lat="43.61455" lon="6.84778">
        <ele>132</ele>
        <time>2017-10-14T07:02:51.000Z</time>
      </trkpt>
      <trkpt lat="43.61455" lon="6.8478">
        <ele>133</ele>
        <time>2017-10-14T07:02:52.000Z</time>
      </trkpt>
      <trkpt lat="43.61454" lon="6.84781">
        <ele>133</ele>
        <time>2017-10-14T07:02:53.000Z</time>
      </trkpt>
      <trkpt lat="43.61454" lon="6.84783">
        <ele>132</ele>
        <time>2017-10-14T07:02:54.000Z</time>
      </trkpt>
      <trkpt lat="43.61454" lon="6.84784">
        <ele>133</ele>
        <time>2017-10-14T07:02:55.000Z</time>
      </trkpt>
      <trkpt lat="43.61453" lon="6.84785">
        <ele>132</ele>
        <time>2017-10-14T07:02:56.000Z</time>
      </trkpt>
      <trkpt lat="43.61453" lon="6.84786">
        <ele>132</ele>
        <time>2017-10-14T07:02:57.000Z</time>
      </trkpt>
      <trkpt lat="43.61453" lon="6.84787">
        <ele>133</ele>
        <time>2017-10-14T07:02:58.000Z</time>
      </trkpt>
      <trkpt lat="43.61453" lon="6.84788">
        <ele>133</ele>
        <time>2017-10-14T07:02:59.000Z</time>
      </trkpt>
      <trkpt lat="43.61453" lon="6.8479">
        <ele>134</ele>
        <time>2017-10-14T07:03:00.000Z</time>
      </trkpt>
      <trkpt lat="43.61453" lon="6.84791">
        <ele>134</ele>
        <time>2017-10-14T07:03:01.000Z</time>
      </trkpt>
      <trkpt lat="43.61453" lon="6.84792">
        <ele>134</ele>
        <time>2017-10-14T07:03:02.000Z</time>
      </trkpt>
      <trkpt lat="43.61452" lon="6.84794">
        <ele>135</ele>
        <time>2017-10-14T07:03:03.000Z</time>
      </trkpt>
      <trkpt lat="43.61452" lon="6.84795">
        <ele>136</ele>
        <time>2017-10-14T07:03:04.000Z</time>
      </trkpt>
      <trkpt lat="43.61452" lon="6.84797">
        <ele>135</ele>
        <time>2017-10-14T07:03:05.000Z</time>
      </trkpt>
      <trkpt lat="43.61451" lon="6.84798">
        <ele>134</ele>
        <time>2017-10-14T07:03:06.000Z</time>
      </trkpt>
      <trkpt lat="43.6145" lon="6.84799">
        <ele>135</ele>
        <time>2017-10-14T07:03:07.000Z</time>
      </trkpt>
      <trkpt lat="43.61449" lon="6.848">
        <ele>134</ele>
        <time>2017-10-14T07:03:08.000Z</time>
      </trkpt>
      <trkpt lat="43.61449" lon="6.84801">
        <ele>135</ele>
        <time>2017-10-14T07:03:09.000Z</time>
      </trkpt>
      <trkpt lat="43.61449" lon="6.84802">
        <ele>134</ele>
        <time>2017-10-14T07:03:10.000Z</time>
      </trkpt>
      <trkpt lat="43.61448" lon="6.84803">
        <ele>134</ele>
        <time>2017-10-14T07:03:11.000Z</time>
      </trkpt>
      <trkpt lat="43.61448" lon="6.84804">
        <ele>134</ele>
        <time>2017-10-14T07:03:12.000Z</time>
      </trkpt>
      <trkpt lat="43.61447" lon="6.84805">
        <ele>135</ele>
        <time>2017-10-14T07:03:13.000Z</time>
      </trkpt>
      <trkpt lat="43.61447" lon="6.84806">
        <ele>136</ele>
        <time>2017-10-14T07:03:14.000Z</time>
      </trkpt>
      <trkpt lat="43.61447" lon="6.84807">
        <ele>136</ele>
        <time>2017-10-14T07:03:15.000Z</time>
      </trkpt>
      <trkpt lat="43.61446" lon="6.84809">
        <ele>137</ele>
        <time>2017-10-14T07:03:16.000Z</time>
      </trkpt>
      <trkpt lat="43.61445" lon="6.84811">
        <ele>137</ele>
        <time>2017-10-14T07:03:17.000Z</time>
      </trkpt>
      <trkpt lat="43.61445" lon="6.84813">
        <ele>137</ele>
        <time>2017-10-14T07:03:18.000Z</time>
      </trkpt>
      <trkpt lat="43.61445" lon="6.84815">
        <ele>137</ele>
        <time>2017-10-14T07:03:19.000Z</time>
      </trkpt>
      <trkpt lat="43.61444" lon="6.84817">
        <ele>137</ele>
        <time>2017-10-14T07:03:20.000Z</time>
      </trkpt>
      <trkpt lat="43.61444" lon="6.84819">
        <ele>137</ele>
        <time>2017-10-14T07:03:21.000Z</time>
      </trkpt>
      <trkpt lat="43.61443" lon="6.84822">
        <ele>137</ele>
        <time>2017-10-14T07:03:22.000Z</time>
      </trkpt>
      <trkpt lat="43.61443" lon="6.84824">
        <ele>138</ele>
        <time>2017-10-14T07:03:23.000Z</time>
      </trkpt>
      <trkpt lat="43.61443" lon="6.84826">
        <ele>138</ele>
        <time>2017-10-14T07:03:24.000Z</time>
      </trkpt>
      <trkpt lat="43.61443" lon="6.84828">
        <ele>139</ele>
        <time>2017-10-14T07:03:25.000Z</time>
      </trkpt>
      <trkpt lat="43.61443" lon="6.84831">
        <ele>138</ele>
        <time>2017-10-14T07:03:26.000Z</time>
      </trkpt>
      <trkpt lat="43.61443" lon="6.84834">
        <ele>139</ele>
        <time>2017-10-14T07:03:27.000Z</time>
      </trkpt>
      <trkpt lat="43.61443" lon="6.84837">
        <ele>139</ele>
        <time>2017-10-14T07:03:28.000Z</time>
      </trkpt>
      <trkpt lat="43.61443" lon="6.84839">
        <ele>140</ele>
        <time>2017-10-14T07:03:29.000Z</time>
      </trkpt>
      <trkpt lat="43.61443" lon="6.84841">
        <ele>141</ele>
        <time>2017-10-14T07:03:30.000Z</time>
      </trkpt>
      <trkpt lat="43.61443" lon="6.84843">
        <ele>142</ele>
        <time>2017-10-14T07:03:31.000Z</time>
      </trkpt>
      <trkpt lat="43.61443" lon="6.84845">
        <ele>143</ele>
        <time>2017-10-14T07:03:32.000Z</time>
      </trkpt>
      <trkpt lat="43.61444" lon="6.84847">
        <ele>142</ele>
        <time>2017-10-14T07:03:33.000Z</time>
      </trkpt>
      <trkpt lat="43.61444" lon="6.8485">
        <ele>143</ele>
        <time>2017-10-14T07:03:34.000Z</time>
      </trkpt>
      <trkpt lat="43.61444" lon="6.84852">
        <ele>144</ele>
        <time>2017-10-14T07:03:35.000Z</time>
      </trkpt>
      <trkpt lat="43.61445" lon="6.84854">
        <ele>145</ele>
        <time>2017-10-14T07:03:36.000Z</time>
      </trkpt>
      <trkpt lat="43.61445" lon="6.84856">
        <ele>145</ele>
        <time>2017-10-14T07:03:37.000Z</time>
      </trkpt>
      <trkpt lat="43.61445" lon="6.84858">
        <ele>145</ele>
        <time>2017-10-14T07:03:38.000Z</time>
      </trkpt>
      <trkpt lat="43.61445" lon="6.8486">
        <ele>144</ele>
        <time>2017-10-14T07:03:39.000Z</time>
      </trkpt>
      <trkpt lat="43.61446" lon="6.84861">
        <ele>143</ele>
        <time>2017-10-14T07:03:40.000Z</time>
      </trkpt>
      <trkpt lat="43.61446" lon="6.84863">
        <ele>143</ele>
        <time>2017-10-14T07:03:41.000Z</time>
      </trkpt>
      <trkpt lat="43.61446" lon="6.84864">
        <ele>143</ele>
        <time>2017-10-14T07:03:42.000Z</time>
      </trkpt>
      <trkpt lat="43.61446" lon="6.84866">
        <ele>143</ele>
        <time>2017-10-14T07:03:43.000Z</time>
      </trkpt>
      <trkpt lat="43.61446" lon="6.84867">
        <ele>144</ele>
        <time>2017-10-14T07:03:44.000Z</time>
      </trkpt>
      <trkpt lat="43.61446" lon="6.84869">
        <ele>144</ele>
        <time>2017-10-14T07:03:45.000Z</time>
      </trkpt>
      <trkpt lat="43.61446" lon="6.8487">
        <ele>144</ele>
        <time>2017-10-14T07:03:46.000Z</time>
      </trkpt>
      <trkpt lat="43.61445" lon="6.84871">
        <ele>144</ele>
        <time>2017-10-14T07:03:47.000Z</time>
      </trkpt>
      <trkpt lat="43.61445" lon="6.84872">
        <ele>144</ele>
        <time>2017-10-14T07:03:48.000Z</time>
      </trkpt>
      <trkpt lat="43.61445" lon="6.84874">
        <ele>144</ele>
        <time>2017-10-14T07:03:49.000Z</time>
      </trkpt>
      <trkpt lat="43.61445" lon="6.84875">
        <ele>144</ele>
        <time>2017-10-14T07:03:50.000Z</time>
      </trkpt>
      <trkpt lat="43.61445" lon="6.84876">
        <ele>145</ele>
        <time>2017-10-14T07:03:51.000Z</time>
      </trkpt>
      <trkpt lat="43.61445" lon="6.84876">
        <ele>145</ele>
        <time>2017-10-14T07:03:52.000Z</time>
      </trkpt>
      <trkpt lat="43.61444" lon="6.84877">
        <ele>145</ele>
        <time>2017-10-14T07:03:53.000Z</time>
      </trkpt>
      <trkpt lat="43.61444" lon="6.84879">
        <ele>146</ele>
        <time>2017-10-14T07:03:54.000Z</time>
      </trkpt>
      <trkpt lat="43.61444" lon="6.8488">
        <ele>147</ele>
        <time>2017-10-14T07:03:55.000Z</time>
      </trkpt>
      <trkpt lat="43.61445" lon="6.84881">
        <ele>147</ele>
        <time>2017-10-14T07:03:56.000Z</time>
      </trkpt>
      <trkpt lat="43.61445" lon="6.84882">
        <ele>147</ele>
        <time>2017-10-14T07:03:57.000Z</time>
      </trkpt>
      <trkpt lat="43.61445" lon="6.84883">
        <ele>148</ele>
        <time>2017-10-14T07:03:58.000Z</time>
      </trkpt>
      <trkpt lat="43.61445" lon="6.84884">
        <ele>149</ele>
        <time>2017-10-14T07:03:59.000Z</time>
      </trkpt>
      <trkpt lat="43.61445" lon="6.84886">
        <ele>149</ele>
        <time>2017-10-14T07:04:00.000Z</time>
      </trkpt>
      <trkpt lat="43.61445" lon="6.84887">
        <ele>149</ele>
        <time>2017-10-14T07:04:01.000Z</time>
      </trkpt>
      <trkpt lat="43.61445" lon="6.84888">
        <ele>149</ele>
        <time>2017-10-14T07:04:02.000Z</time>
      </trkpt>
      <trkpt lat="43.61445" lon="6.84889">
        <ele>149</ele>
        <time>2017-10-14T07:04:03.000Z</time>
      </trkpt>
      <trkpt lat="43.61445" lon="6.8489">
        <ele>149</ele>
        <time>2017-10-14T07:04:04.000Z</time>
      </trkpt>
      <trkpt lat="43.61445" lon="6.84891">
        <ele>150</ele>
        <time>2017-10-14T07:04:05.000Z</time>
      </trkpt>
      <trkpt lat="43.61445" lon="6.84892">
        <ele>150</ele>
        <time>2017-10-14T07:04:06.000Z</time>
      </trkpt>
      <trkpt lat="43.61445" lon="6.84892">
        <ele>151</ele>
        <time>2017-10-14T07:04:07.000Z</time>
      </trkpt>
      <trkpt lat="43.61445" lon="6.84893">
        <ele>151</ele>
        <time>2017-10-14T07:04:08.000Z</time>
      </trkpt>
      <trkpt lat="43.61445" lon="6.84894">
        <ele>152</ele>
        <time>2017-10-14T07:04:09.000Z</time>
      </trkpt>
      <trkpt lat="43.61445" lon="6.84894">
        <ele>152</ele>
        <time>2017-10-14T07:04:10.000Z</time>
      </trkpt>
      <trkpt lat="43.61445" lon="6.84895">
        <ele>151</ele>
        <time>2017-10-14T07:04:11.000Z</time>
      </trkpt>
      <trkpt lat="43.61444" lon="6.84896">
        <ele>151</ele>
        <time>2017-10-14T07:04:12.000Z</time>
      </trkpt>
      <trkpt lat="43.61444" lon="6.84897">
        <ele>151</ele>
        <time>2017-10-14T07:04:13.000Z</time>
      </trkpt>
      <trkpt lat="43.61444" lon="6.84898">
        <ele>151</ele>
        <time>2017-10-14T07:04:14.000Z</time>
      </trkpt>
      <trkpt lat="43.61444" lon="6.84899">
        <ele>151</ele>
        <time>2017-10-14T07:04:15.000Z</time>
      </trkpt>
      <trkpt lat="43.61443" lon="6.849">
        <ele>151</ele>
        <time>2017-10-14T07:04:16.000Z</time>
      </trkpt>
      <trkpt lat="43.61442" lon="6.849">
        <ele>151</ele>
        <time>2017-10-14T07:04:17.000Z</time>
      </trkpt>
      <trkpt lat="43.61442" lon="6.84901">
        <ele>152</ele>
        <time>2017-10-14T07:04:18.000Z</time>
      </trkpt>
      <trkpt lat="43.61441" lon="6.84901">
        <ele>152</ele>
        <time>2017-10-14T07:04:19.000Z</time>
      </trkpt>
      <trkpt lat="43.61441" lon="6.84901">
        <ele>152</ele>
        <time>2017-10-14T07:04:20.000Z</time>
      </trkpt>
      <trkpt lat="43.61441" lon="6.84901">
        <ele>151</ele>
        <time>2017-10-14T07:04:21.000Z</time>
      </trkpt>
      <trkpt lat="43.61441" lon="6.84901">
        <ele>152</ele>
        <time>2017-10-14T07:04:22.000Z</time>
      </trkpt>
      <trkpt lat="43.6144" lon="6.84901">
        <ele>152</ele>
        <time>2017-10-14T07:04:23.000Z</time>
      </trkpt>
      <trkpt lat="43.6144" lon="6.84901">
        <ele>152</ele>
        <time>2017-10-14T07:04:24.000Z</time>
      </trkpt>
      <trkpt lat="43.61439" lon="6.84901">
        <ele>152</ele>
        <time>2017-10-14T07:04:25.000Z</time>
      </trkpt>
      <trkpt lat="43.61438" lon="6.84901">
        <ele>153</ele>
        <time>2017-10-14T07:04:26.000Z</time>
      </trkpt>
      <trkpt lat="43.61437" lon="6.849">
        <ele>153</ele>
        <time>2017-10-14T07:04:27.000Z</time>
      </trkpt>
      <trkpt lat="43.61436" lon="6.849">
        <ele>153</ele>
        <time>2017-10-14T07:04:28.000Z</time>
      </trkpt>
      <trkpt lat="43.61436" lon="6.849">
        <ele>154</ele>
        <time>2017-10-14T07:04:29.000Z</time>
      </trkpt>
      <trkpt lat="43.61435" lon="6.849">
        <ele>155</ele>
        <time>2017-10-14T07:04:30.000Z</time>
      </trkpt>
      <trkpt lat="43.61435" lon="6.84899">
        <ele>155</ele>
        <time>2017-10-14T07:04:31.000Z</time>
      </trkpt>
      <trkpt lat="43.61434" lon="6.84899">
        <ele>155</ele>
        <time>2017-10-14T07:04:32.000Z</time>
      </trkpt>
      <trkpt lat="43.61433" lon="6.84898">
        <ele>155</ele>
        <time>2017-10-14T07:04:33.000Z</time>
      </trkpt>
      <trkpt lat="43.61432" lon="6.84898">
        <ele>156</ele>
        <time>2017-10-14T07:04:34.000Z</time>
      </trkpt>
      <trkpt lat="43.61431" lon="6.84897">
        <ele>156</ele>
        <time>2017-10-14T07:04:35.000Z</time>
      </trkpt>
      <trkpt lat="43.61431" lon="6.84897">
        <ele>157</ele>
        <time>2017-10-14T07:04:36.000Z</time>
      </trkpt>
      <trkpt lat="43.6143" lon="6.84896">
        <ele>157</ele>
        <time>2017-10-14T07:04:37.000Z</time>
      </trkpt>
      <trkpt lat="43.61429" lon="6.84895">
        <ele>157</ele>
        <time>2017-10-14T07:04:38.000Z</time>
      </trkpt>
      <trkpt lat="43.61428" lon="6.84894">
        <ele>157</ele>
        <time>2017-10-14T07:04:39.000Z</time>
      </trkpt>
      <trkpt lat="43.61428" lon="6.84894">
        <ele>157</ele>
        <time>2017-10-14T07:04:40.000Z</time>
      </trkpt>
      <trkpt lat="43.61427" lon="6.84893">
        <ele>157</ele>
        <time>2017-10-14T07:04:41.000Z</time>
      </trkpt>
      <trkpt lat="43.61427" lon="6.84893">
        <ele>157</ele>
        <time>2017-10-14T07:04:42.000Z</time>
      </trkpt>
      <trkpt lat="43.61427" lon="6.84893">
        <ele>157</ele>
        <time>2017-10-14T07:04:43.000Z</time>
      </trkpt>
      <trkpt lat="43.61426" lon="6.84892">
        <ele>157</ele>
        <time>2017-10-14T07:04:44.000Z</time>
      </trkpt>
      <trkpt lat="43.61426" lon="6.84892">
        <ele>157</ele>
        <time>2017-10-14T07:04:45.000Z</time>
      </trkpt>
      <trkpt lat="43.61425" lon="6.84892">
        <ele>157</ele>
        <time>2017-10-14T07:04:46.000Z</time>
      </trkpt>
      <trkpt lat="43.61425" lon="6.84892">
        <ele>156</ele>
        <time>2017-10-14T07:04:47.000Z</time>
      </trkpt>
      <trkpt lat="43.61425" lon="6.84891">
        <ele>156</ele>
        <time>2017-10-14T07:04:48.000Z</time>
      </trkpt>
      <trkpt lat="43.61424" lon="6.8489">
        <ele>156</ele>
        <time>2017-10-14T07:04:49.000Z</time>
      </trkpt>
      <trkpt lat="43.61424" lon="6.8489">
        <ele>156</ele>
        <time>2017-10-14T07:04:50.000Z</time>
      </trkpt>
      <trkpt lat="43.61423" lon="6.8489">
        <ele>156</ele>
        <time>2017-10-14T07:04:51.000Z</time>
      </trkpt>
      <trkpt lat="43.61422" lon="6.84889">
        <ele>156</ele>
        <time>2017-10-14T07:04:52.000Z</time>
      </trkpt>
      <trkpt lat="43.61422" lon="6.84889">
        <ele>157</ele>
        <time>2017-10-14T07:04:53.000Z</time>
      </trkpt>
      <trkpt lat="43.61422" lon="6.84889">
        <ele>157</ele>
        <time>2017-10-14T07:04:54.000Z</time>
      </trkpt>
      <trkpt lat="43.61422" lon="6.84888">
        <ele>157</ele>
        <time>2017-10-14T07:04:55.000Z</time>
      </trkpt>
      <trkpt lat="43.61421" lon="6.84888">
        <ele>158</ele>
        <time>2017-10-14T07:04:56.000Z</time>
      </trkpt>
      <trkpt lat="43.61421" lon="6.84888">
        <ele>158</ele>
        <time>2017-10-14T07:04:57.000Z</time>
      </trkpt>
      <trkpt lat="43.61421" lon="6.84888">
        <ele>158</ele>
        <time>2017-10-14T07:04:58.000Z</time>
      </trkpt>
      <trkpt lat="43.61421" lon="6.84888">
        <ele>158</ele>
        <time>2017-10-14T07:04:59.000Z</time>
      </trkpt>
      <trkpt lat="43.6142" lon="6.84888">
        <ele>159</ele>
        <time>2017-10-14T07:05:00.000Z</time>
      </trkpt>
      <trkpt lat="43.6142" lon="6.84887">
        <ele>159</ele>
        <time>2017-10-14T07:05:01.000Z</time>
      </trkpt>
      <trkpt lat="43.61419" lon="6.84887">
        <ele>160</ele>
        <time>2017-10-14T07:05:02.000Z</time>
      </trkpt>
      <trkpt lat="43.61419" lon="6.84887">
        <ele>160</ele>
        <time>2017-10-14T07:05:03.000Z</time>
      </trkpt>
      <trkpt lat="43.61418" lon="6.84887">
        <ele>160</ele>
        <time>2017-10-14T07:05:04.000Z</time>
      </trkpt>
      <trkpt lat="43.61417" lon="6.84887">
        <ele>161</ele>
        <time>2017-10-14T07:05:05.000Z</time>
      </trkpt>
      <trkpt lat="43.61417" lon="6.84887">
        <ele>161</ele>
        <time>2017-10-14T07:05:06.000Z</time>
      </trkpt>
      <trkpt lat="43.61416" lon="6.84886">
        <ele>161</ele>
        <time>2017-10-14T07:05:07.000Z</time>
      </trkpt>
      <trkpt lat="43.61416" lon="6.84886">
        <ele>162</ele>
        <time>2017-10-14T07:05:08.000Z</time>
      </trkpt>
      <trkpt lat="43.61416" lon="6.84885">
        <ele>161</ele>
        <time>2017-10-14T07:05:09.000Z</time>
      </trkpt>
      <trkpt lat="43.61415" lon="6.84885">
        <ele>162</ele>
        <time>2017-10-14T07:05:10.000Z</time>
      </trkpt>
      <trkpt lat="43.61415" lon="6.84884">
        <ele>162</ele>
        <time>2017-10-14T07:05:11.000Z</time>
      </trkpt>
      <trkpt lat="43.61414" lon="6.84884">
        <ele>163</ele>
        <time>2017-10-14T07:05:12.000Z</time>
      </trkpt>
      <trkpt lat="43.61414" lon="6.84883">
        <ele>163</ele>
        <time>2017-10-14T07:05:13.000Z</time>
      </trkpt>
      <trkpt lat="43.61414" lon="6.84883">
        <ele>163</ele>
        <time>2017-10-14T07:05:14.000Z</time>
      </trkpt>
      <trkpt lat="43.61413" lon="6.84882">
        <ele>164</ele>
        <time>2017-10-14T07:05:15.000Z</time>
      </trkpt>
      <trkpt lat="43.61412" lon="6.84882">
        <ele>163</ele>
        <time>2017-10-14T07:05:16.000Z</time>
      </trkpt>
      <trkpt lat="43.61411" lon="6.84881">
        <ele>163</ele>
        <time>2017-10-14T07:05:17.000Z</time>
      </trkpt>
      <trkpt lat="43.6141" lon="6.84881">
        <ele>164</ele>
        <time>2017-10-14T07:05:18.000Z</time>
      </trkpt>
      <trkpt lat="43.6141" lon="6.84881">
        <ele>164</ele>
        <time>2017-10-14T07:05:19.000Z</time>
      </trkpt>
      <trkpt lat="43.61409" lon="6.8488">
        <ele>164</ele>
        <time>2017-10-14T07:05:20.000Z</time>
      </trkpt>
      <trkpt lat="43.61409" lon="6.8488">
        <ele>165</ele>
        <time>2017-10-14T07:05:21.000Z</time>
      </trkpt>
      <trkpt lat="43.61409" lon="6.8488">
        <ele>165</ele>
        <time>2017-10-14T07:05:22.000Z</time>
      </trkpt>
      <trkpt lat="43.61408" lon="6.84879">
        <ele>165</ele>
        <time>2017-10-14T07:05:23.000Z</time>
      </trkpt>
      <trkpt lat="43.61407" lon="6.84879">
        <ele>166</ele>
        <time>2017-10-14T07:05:24.000Z</time>
      </trkpt>
      <trkpt lat="43.61407" lon="6.84879">
        <ele>166</ele>
        <time>2017-10-14T07:05:25.000Z</time>
      </trkpt>
      <trkpt lat="43.61406" lon="6.84878">
        <ele>165</ele>
        <time>2017-10-14T07:05:26.000Z</time>
      </trkpt>
      <trkpt lat="43.61405" lon="6.84878">
        <ele>165</ele>
        <time>2017-10-14T07:05:27.000Z</time>
      </trkpt>
      <trkpt lat="43.61405" lon="6.84878">
        <ele>165</ele>
        <time>2017-10-14T07:05:28.000Z</time>
      </trkpt>
      <trkpt lat="43.61405" lon="6.84878">
        <ele>166</ele>
        <time>2017-10-14T07:05:29.000Z</time>
      </trkpt>
      <trkpt lat="43.61404" lon="6.84878">
        <ele>166</ele>
        <time>2017-10-14T07:05:30.000Z</time>
      </trkpt>
      <trkpt lat="43.61404" lon="6.84877">
        <ele>166</ele>
        <time>2017-10-14T07:05:31.000Z</time>
      </trkpt>
      <trkpt lat="43.61404" lon="6.84877">
        <ele>167</ele>
        <time>2017-10-14T07:05:32.000Z</time>
      </trkpt>
      <trkpt lat="43.61403" lon="6.84876">
        <ele>167</ele>
        <time>2017-10-14T07:05:33.000Z</time>
      </trkpt>
      <trkpt lat="43.61403" lon="6.84876">
        <ele>168</ele>
        <time>2017-10-14T07:05:34.000Z</time>
      </trkpt>
      <trkpt lat="43.61403" lon="6.84876">
        <ele>168</ele>
        <time>2017-10-14T07:05:35.000Z</time>
      </trkpt>
      <trkpt lat="43.61402" lon="6.84875">
        <ele>169</ele>
        <time>2017-10-14T07:05:36.000Z</time>
      </trkpt>
      <trkpt lat="43.61401" lon="6.84875">
        <ele>169</ele>
        <time>2017-10-14T07:05:37.000Z</time>
      </trkpt>
      <trkpt lat="43.61401" lon="6.84875">
        <ele>169</ele>
        <time>2017-10-14T07:05:38.000Z</time>
      </trkpt>
      <trkpt lat="43.61401" lon="6.84874">
        <ele>170</ele>
        <time>2017-10-14T07:05:39.000Z</time>
      </trkpt>
      <trkpt lat="43.614" lon="6.84874">
        <ele>170</ele>
        <time>2017-10-14T07:05:40.000Z</time>
      </trkpt>
      <trkpt lat="43.614" lon="6.84873">
        <ele>171</ele>
        <time>2017-10-14T07:05:41.000Z</time>
      </trkpt>
      <trkpt lat="43.61399" lon="6.84873">
        <ele>171</ele>
        <time>2017-10-14T07:05:42.000Z</time>
      </trkpt>
      <trkpt lat="43.61399" lon="6.84872">
        <ele>171</ele>
        <time>2017-10-14T07:05:43.000Z</time>
      </trkpt>
      <trkpt lat="43.61399" lon="6.84872">
        <ele>171</ele>
        <time>2017-10-14T07:05:44.000Z</time>
      </trkpt>
      <trkpt lat="43.61398" lon="6.84871">
        <ele>171</ele>
        <time>2017-10-14T07:05:45.000Z</time>
      </trkpt>
      <trkpt lat="43.61398" lon="6.8487">
        <ele>171</ele>
        <time>2017-10-14T07:05:46.000Z</time>
      </trkpt>
      <trkpt lat="43.61397" lon="6.84868">
        <ele>171</ele>
        <time>2017-10-14T07:05:47.000Z</time>
      </trkpt>
      <trkpt lat="43.61397" lon="6.84867">
        <ele>172</ele>
        <time>2017-10-14T07:05:48.000Z</time>
      </trkpt>
      <trkpt lat="43.61397" lon="6.84866">
        <ele>172</ele>
        <time>2017-10-14T07:05:49.000Z</time>
      </trkpt>
      <trkpt lat="43.61396" lon="6.84864">
        <ele>171</ele>
        <time>2017-10-14T07:05:50.000Z</time>
      </trkpt>
      <trkpt lat="43.61396" lon="6.84863">
        <ele>171</ele>
        <time>2017-10-14T07:05:51.000Z</time>
      </trkpt>
      <trkpt lat="43.61395" lon="6.84862">
        <ele>171</ele>
        <time>2017-10-14T07:05:52.000Z</time>
      </trkpt>
      <trkpt lat="43.61395" lon="6.84861">
        <ele>171</ele>
        <time>2017-10-14T07:05:53.000Z</time>
      </trkpt>
      <trkpt lat="43.61394" lon="6.8486">
        <ele>172</ele>
        <time>2017-10-14T07:05:54.000Z</time>
      </trkpt>
      <trkpt lat="43.61394" lon="6.84859">
        <ele>172</ele>
        <time>2017-10-14T07:05:55.000Z</time>
      </trkpt>
      <trkpt lat="43.61393" lon="6.84858">
        <ele>173</ele>
        <time>2017-10-14T07:05:56.000Z</time>
      </trkpt>
      <trkpt lat="43.61393" lon="6.84857">
        <ele>172</ele>
        <time>2017-10-14T07:05:57.000Z</time>
      </trkpt>
      <trkpt lat="43.61393" lon="6.84856">
        <ele>172</ele>
        <time>2017-10-14T07:05:58.000Z</time>
      </trkpt>
      <trkpt lat="43.61393" lon="6.84855">
        <ele>172</ele>
        <time>2017-10-14T07:05:59.000Z</time>
      </trkpt>
      <trkpt lat="43.61393" lon="6.84854">
        <ele>171</ele>
        <time>2017-10-14T07:06:00.000Z</time>
      </trkpt>
      <trkpt lat="43.61392" lon="6.84852">
        <ele>171</ele>
        <time>2017-10-14T07:06:01.000Z</time>
      </trkpt>
      <trkpt lat="43.61392" lon="6.84851">
        <ele>171</ele>
        <time>2017-10-14T07:06:02.000Z</time>
      </trkpt>
      <trkpt lat="43.61391" lon="6.8485">
        <ele>171</ele>
        <time>2017-10-14T07:06:03.000Z</time>
      </trkpt>
      <trkpt lat="43.61391" lon="6.84849">
        <ele>171</ele>
        <time>2017-10-14T07:06:04.000Z</time>
      </trkpt>
      <trkpt lat="43.61391" lon="6.84848">
        <ele>171</ele>
        <time>2017-10-14T07:06:05.000Z</time>
      </trkpt>
      <trkpt lat="43.61391" lon="6.84847">
        <ele>170</ele>
        <time>2017-10-14T07:06:06.000Z</time>
      </trkpt>
      <trkpt lat="43.61391" lon="6.84846">
        <ele>171</ele>
        <time>2017-10-14T07:06:07.000Z</time>
      </trkpt>
      <trkpt lat="43.61391" lon="6.84845">
        <ele>170</ele>
        <time>2017-10-14T07:06:08.000Z</time>
      </trkpt>
      <trkpt lat="43.61391" lon="6.84845">
        <ele>170</ele>
        <time>2017-10-14T07:06:09.000Z</time>
      </trkpt>
      <trkpt lat="43.61391" lon="6.84845">
        <ele>170</ele>
        <time>2017-10-14T07:06:10.000Z</time>
      </trkpt>
      <trkpt lat="43.61391" lon="6.84844">
        <ele>170</ele>
        <time>2017-10-14T07:06:11.000Z</time>
      </trkpt>
      <trkpt lat="43.61391" lon="6.84844">
        <ele>170</ele>
        <time>2017-10-14T07:06:12.000Z</time>
      </trkpt>
      <trkpt lat="43.61391" lon="6.84843">
        <ele>170</ele>
        <time>2017-10-14T07:06:13.000Z</time>
      </trkpt>
      <trkpt lat="43.61391" lon="6.84843">
        <ele>170</ele>
        <time>2017-10-14T07:06:14.000Z</time>
      </trkpt>
      <trkpt lat="43.61391" lon="6.84843">
        <ele>170</ele>
        <time>2017-10-14T07:06:15.000Z</time>
      </trkpt>
      <trkpt lat="43.61391" lon="6.84843">
        <ele>170</ele>
        <time>2017-10-14T07:06:16.000Z</time>
      </trkpt>
      <trkpt lat="43.6139" lon="6.84842">
        <ele>170</ele>
        <time>2017-10-14T07:06:17.000Z</time>
      </trkpt>
      <trkpt lat="43.6139" lon="6.84842">
        <ele>169</ele>
        <time>2017-10-14T07:06:18.000Z</time>
      </trkpt>
      <trkpt lat="43.6139" lon="6.84842">
        <ele>168</ele>
        <time>2017-10-14T07:06:19.000Z</time>
      </trkpt>
      <trkpt lat="43.6139" lon="6.84842">
        <ele>168</ele>
        <time>2017-10-14T07:06:20.000Z</time>
      </trkpt>
      <trkpt lat="43.6139" lon="6.84842">
        <ele>168</ele>
        <time>2017-10-14T07:06:21.000Z</time>
      </trkpt>
      <trkpt lat="43.6139" lon="6.84842">
        <ele>168</ele>
        <time>2017-10-14T07:06:22.000Z</time>
      </trkpt>
      <trkpt lat="43.6139" lon="6.84842">
        <ele>167</ele>
        <time>2017-10-14T07:06:23.000Z</time>
      </trkpt>
      <trkpt lat="43.6139" lon="6.84842">
        <ele>167</ele>
        <time>2017-10-14T07:06:24.000Z</time>
      </trkpt>
      <trkpt lat="43.6139" lon="6.84842">
        <ele>167</ele>
        <time>2017-10-14T07:06:25.000Z</time>
      </trkpt>
      <trkpt lat="43.6139" lon="6.84842">
        <ele>168</ele>
        <time>2017-10-14T07:06:26.000Z</time>
      </trkpt>
      <trkpt lat="43.6139" lon="6.84842">
        <ele>168</ele>
        <time>2017-10-14T07:06:27.000Z</time>
      </trkpt>
      <trkpt lat="43.61391" lon="6.84841">
        <ele>168</ele>
        <time>2017-10-14T07:06:28.000Z</time>
      </trkpt>
      <trkpt lat="43.61391" lon="6.84841">
        <ele>168</ele>
        <time>2017-10-14T07:06:29.000Z</time>
      </trkpt>
      <trkpt lat="43.61391" lon="6.84841">
        <ele>168</ele>
        <time>2017-10-14T07:06:30.000Z</time>
      </trkpt>
      <trkpt lat="43.61391" lon="6.84841">
        <ele>168</ele>
        <time>2017-10-14T07:06:31.000Z</time>
      </trkpt>
      <trkpt lat="43.61391" lon="6.84841">
        <ele>168</ele>
        <time>2017-10-14T07:06:32.000Z</time>
      </trkpt>
      <trkpt lat="43.61391" lon="6.84841">
        <ele>169</ele>
        <time>2017-10-14T07:06:33.000Z</time>
      </trkpt>
      <trkpt lat="43.61392" lon="6.84841">
        <ele>169</ele>
        <time>2017-10-14T07:06:34.000Z</time>
      </trkpt>
      <trkpt lat="43.61392" lon="6.84841">
        <ele>168</ele>
        <time>2017-10-14T07:06:35.000Z</time>
      </trkpt>
      <trkpt lat="43.61391" lon="6.84841">
        <ele>167</ele>
        <time>2017-10-14T07:06:36.000Z</time>
      </trkpt>
      <trkpt lat="43.61391" lon="6.84841">
        <ele>166</ele>
        <time>2017-10-14T07:06:37.000Z</time>
      </trkpt>
      <trkpt lat="43.6139" lon="6.84841">
        <ele>166</ele>
        <time>2017-10-14T07:06:38.000Z</time>
      </trkpt>
      <trkpt lat="43.6139" lon="6.84841">
        <ele>165</ele>
        <time>2017-10-14T07:06:39.000Z</time>
      </trkpt>
      <trkpt lat="43.61389" lon="6.84841">
        <ele>164</ele>
        <time>2017-10-14T07:06:40.000Z</time>
      </trkpt>
      <trkpt lat="43.61389" lon="6.84841">
        <ele>164</ele>
        <time>2017-10-14T07:06:41.000Z</time>
      </trkpt>
      <trkpt lat="43.61389" lon="6.84841">
        <ele>164</ele>
        <time>2017-10-14T07:06:42.000Z</time>
      </trkpt>
      <trkpt lat="43.61389" lon="6.84841">
        <ele>163</ele>
        <time>2017-10-14T07:06:43.000Z</time>
      </trkpt>
      <trkpt lat="43.61389" lon="6.84841">
        <ele>163</ele>
        <time>2017-10-14T07:06:44.000Z</time>
      </trkpt>
      <trkpt lat="43.61389" lon="6.84841">
        <ele>163</ele>
        <time>2017-10-14T07:06:45.000Z</time>
      </trkpt>
      <trkpt lat="43.61388" lon="6.8484">
        <ele>163</ele>
        <time>2017-10-14T07:06:46.000Z</time>
      </trkpt>
      <trkpt lat="43.61388" lon="6.8484">
        <ele>163</ele>
        <time>2017-10-14T07:06:47.000Z</time>
      </trkpt>
      <trkpt lat="43.61388" lon="6.84839">
        <ele>163</ele>
        <time>2017-10-14T07:06:48.000Z</time>
      </trkpt>
      <trkpt lat="43.61388" lon="6.84838">
        <ele>163</ele>
        <time>2017-10-14T07:06:49.000Z</time>
      </trkpt>
      <trkpt lat="43.61388" lon="6.84838">
        <ele>163</ele>
        <time>2017-10-14T07:06:50.000Z</time>
      </trkpt>
      <trkpt lat="43.61388" lon="6.84838">
        <ele>163</ele>
        <time>2017-10-14T07:06:51.000Z</time>
      </trkpt>
      <trkpt lat="43.61388" lon="6.84837">
        <ele>163</ele>
        <time>2017-10-14T07:06:52.000Z</time>
      </trkpt>
      <trkpt lat="43.61388" lon="6.84837">
        <ele>163</ele>
        <time>2017-10-14T07:06:53.000Z</time>
      </trkpt>
      <trkpt lat="43.61388" lon="6.84837">
        <ele>163</ele>
        <time>2017-10-14T07:06:54.000Z</time>
      </trkpt>
      <trkpt lat="43.61387" lon="6.84837">
        <ele>163</ele>
        <time>2017-10-14T07:06:55.000Z</time>
      </trkpt>
      <trkpt lat="43.61387" lon="6.84836">
        <ele>164</ele>
        <time>2017-10-14T07:06:56.000Z</time>
      </trkpt>
      <trkpt lat="43.61387" lon="6.84836">
        <ele>163</ele>
        <time>2017-10-14T07:06:57.000Z</time>
      </trkpt>
      <trkpt lat="43.61387" lon="6.84836">
        <ele>163</ele>
        <time>2017-10-14T07:06:58.000Z</time>
      </trkpt>
      <trkpt lat="43.61387" lon="6.84835">
        <ele>164</ele>
        <time>2017-10-14T07:06:59.000Z</time>
      </trkpt>
      <trkpt lat="43.61387" lon="6.84834">
        <ele>164</ele>
        <time>2017-10-14T07:07:00.000Z</time>
      </trkpt>
      <trkpt lat="43.61387" lon="6.84834">
        <ele>164</ele>
        <time>2017-10-14T07:07:01.000Z</time>
      </trkpt>
      <trkpt lat="43.61387" lon="6.84834">
        <ele>164</ele>
        <time>2017-10-14T07:07:02.000Z</time>
      </trkpt>
      <trkpt lat="43.61387" lon="6.84833">
        <ele>163</ele>
        <time>2017-10-14T07:07:03.000Z</time>
      </trkpt>
      <trkpt lat="43.61387" lon="6.84833">
        <ele>164</ele>
        <time>2017-10-14T07:07:04.000Z</time>
      </trkpt>
      <trkpt lat="43.61388" lon="6.84833">
        <ele>164</ele>
        <time>2017-10-14T07:07:05.000Z</time>
      </trkpt>
      <trkpt lat="43.61388" lon="6.84833">
        <ele>164</ele>
        <time>2017-10-14T07:07:06.000Z</time>
      </trkpt>
      <trkpt lat="43.61388" lon="6.84833">
        <ele>164</ele>
        <time>2017-10-14T07:07:07.000Z</time>
      </trkpt>
      <trkpt lat="43.61388" lon="6.84833">
        <ele>165</ele>
        <time>2017-10-14T07:07:08.000Z</time>
      </trkpt>
      <trkpt lat="43.61389" lon="6.84833">
        <ele>165</ele>
        <time>2017-10-14T07:07:09.000Z</time>
      </trkpt>
      <trkpt lat="43.61389" lon="6.84833">
        <ele>166</ele>
        <time>2017-10-14T07:07:10.000Z</time>
      </trkpt>
      <trkpt lat="43.61389" lon="6.84833">
        <ele>166</ele>
        <time>2017-10-14T07:07:11.000Z</time>
      </trkpt>
      <trkpt lat="43.61389" lon="6.84833">
        <ele>166</ele>
        <time>2017-10-14T07:07:12.000Z</time>
      </trkpt>
      <trkpt lat="43.61389" lon="6.84833">
        <ele>166</ele>
        <time>2017-10-14T07:07:13.000Z</time>
      </trkpt>
      <trkpt lat="43.61389" lon="6.84833">
        <ele>166</ele>
        <time>2017-10-14T07:07:14.000Z</time>
      </trkpt>
      <trkpt lat="43.61389" lon="6.84833">
        <ele>166</ele>
        <time>2017-10-14T07:07:15.000Z</time>
      </trkpt>
      <trkpt lat="43.61389" lon="6.84832">
        <ele>166</ele>
        <time>2017-10-14T07:07:16.000Z</time>
      </trkpt>
      <trkpt lat="43.6139" lon="6.84832">
        <ele>166</ele>
        <time>2017-10-14T07:07:17.000Z</time>
      </trkpt>
      <trkpt lat="43.61389" lon="6.84832">
        <ele>166</ele>
        <time>2017-10-14T07:07:18.000Z</time>
      </trkpt>
      <trkpt lat="43.61389" lon="6.84831">
        <ele>166</ele>
        <time>2017-10-14T07:07:19.000Z</time>
      </trkpt>
      <trkpt lat="43.61389" lon="6.84831">
        <ele>166</ele>
        <time>2017-10-14T07:07:20.000Z</time>
      </trkpt>
      <trkpt lat="43.61388" lon="6.8483">
        <ele>165</ele>
        <time>2017-10-14T07:07:21.000Z</time>
      </trkpt>
      <trkpt lat="43.61388" lon="6.8483">
        <ele>165</ele>
        <time>2017-10-14T07:07:22.000Z</time>
      </trkpt>
      <trkpt lat="43.61388" lon="6.84829">
        <ele>166</ele>
        <time>2017-10-14T07:07:23.000Z</time>
      </trkpt>
      <trkpt lat="43.61388" lon="6.84828">
        <ele>166</ele>
        <time>2017-10-14T07:07:24.000Z</time>
      </trkpt>
      <trkpt lat="43.61388" lon="6.84827">
        <ele>166</ele>
        <time>2017-10-14T07:07:25.000Z</time>
      </trkpt>
      <trkpt lat="43.61388" lon="6.84826">
        <ele>165</ele>
        <time>2017-10-14T07:07:26.000Z</time>
      </trkpt>
      <trkpt lat="43.61387" lon="6.84825">
        <ele>165</ele>
        <time>2017-10-14T07:07:27.000Z</time>
      </trkpt>
      <trkpt lat="43.61387" lon="6.84824">
        <ele>165</ele>
        <time>2017-10-14T07:07:28.000Z</time>
      </trkpt>
      <trkpt lat="43.61387" lon="6.84823">
        <ele>165</ele>
        <time>2017-10-14T07:07:29.000Z</time>
      </trkpt>
      <trkpt lat="43.61387" lon="6.84821">
        <ele>165</ele>
        <time>2017-10-14T07:07:30.000Z</time>
      </trkpt>
      <trkpt lat="43.61386" lon="6.8482">
        <ele>165</ele>
        <time>2017-10-14T07:07:31.000Z</time>
      </trkpt>
      <trkpt lat="43.61386" lon="6.84819">
        <ele>166</ele>
        <time>2017-10-14T07:07:32.000Z</time>
      </trkpt>
      <trkpt lat="43.61386" lon="6.84817">
        <ele>166</ele>
        <time>2017-10-14T07:07:33.000Z</time>
      </trkpt>
      <trkpt lat="43.61385" lon="6.84815">
        <ele>166</ele>
        <time>2017-10-14T07:07:34.000Z</time>
      </trkpt>
      <trkpt lat="43.61385" lon="6.84814">
        <ele>166</ele>
        <time>2017-10-14T07:07:35.000Z</time>
      </trkpt>
      <trkpt lat="43.61385" lon="6.84812">
        <ele>166</ele>
        <time>2017-10-14T07:07:36.000Z</time>
      </trkpt>
      <trkpt lat="43.61385" lon="6.84811">
        <ele>166</ele>
        <time>2017-10-14T07:07:37.000Z</time>
      </trkpt>
      <trkpt lat="43.61385" lon="6.8481">
        <ele>166</ele>
        <time>2017-10-14T07:07:38.000Z</time>
      </trkpt>
      <trkpt lat="43.61385" lon="6.84809">
        <ele>166</ele>
        <time>2017-10-14T07:07:39.000Z</time>
      </trkpt>
      <trkpt lat="43.61385" lon="6.84808">
        <ele>167</ele>
        <time>2017-10-14T07:07:40.000Z</time>
      </trkpt>
      <trkpt lat="43.61384" lon="6.84807">
        <ele>167</ele>
        <time>2017-10-14T07:07:41.000Z</time>
      </trkpt>
      <trkpt lat="43.61384" lon="6.84806">
        <ele>167</ele>
        <time>2017-10-14T07:07:42.000Z</time>
      </trkpt>
      <trkpt lat="43.61384" lon="6.84805">
        <ele>167</ele>
        <time>2017-10-14T07:07:43.000Z</time>
      </trkpt>
      <trkpt lat="43.61384" lon="6.84804">
        <ele>168</ele>
        <time>2017-10-14T07:07:44.000Z</time>
      </trkpt>
      <trkpt lat="43.61384" lon="6.84803">
        <ele>168</ele>
        <time>2017-10-14T07:07:45.000Z</time>
      </trkpt>
      <trkpt lat="43.61383" lon="6.84801">
        <ele>168</ele>
        <time>2017-10-14T07:07:46.000Z</time>
      </trkpt>
      <trkpt lat="43.61382" lon="6.848">
        <ele>169</ele>
        <time>2017-10-14T07:07:47.000Z</time>
      </trkpt>
      <trkpt lat="43.61382" lon="6.848">
        <ele>169</ele>
        <time>2017-10-14T07:07:48.000Z</time>
      </trkpt>
      <trkpt lat="43.61381" lon="6.84799">
        <ele>169</ele>
        <time>2017-10-14T07:07:49.000Z</time>
      </trkpt>
      <trkpt lat="43.6138" lon="6.84799">
        <ele>170</ele>
        <time>2017-10-14T07:07:50.000Z</time>
      </trkpt>
      <trkpt lat="43.6138" lon="6.84799">
        <ele>170</ele>
        <time>2017-10-14T07:07:51.000Z</time>
      </trkpt>
      <trkpt lat="43.61379" lon="6.84799">
        <ele>170</ele>
        <time>2017-10-14T07:07:52.000Z</time>
      </trkpt>
      <trkpt lat="43.61378" lon="6.84799">
        <ele>171</ele>
        <time>2017-10-14T07:07:53.000Z</time>
      </trkpt>
      <trkpt lat="43.61378" lon="6.848">
        <ele>171</ele>
        <time>2017-10-14T07:07:54.000Z</time>
      </trkpt>
      <trkpt lat="43.61378" lon="6.84801">
        <ele>171</ele>
        <time>2017-10-14T07:07:55.000Z</time>
      </trkpt>
      <trkpt lat="43.61377" lon="6.84801">
        <ele>171</ele>
        <time>2017-10-14T07:07:56.000Z</time>
      </trkpt>
      <trkpt lat="43.61376" lon="6.84801">
        <ele>171</ele>
        <time>2017-10-14T07:07:57.000Z</time>
      </trkpt>
      <trkpt lat="43.61375" lon="6.84801">
        <ele>172</ele>
        <time>2017-10-14T07:07:58.000Z</time>
      </trkpt>
      <trkpt lat="43.61374" lon="6.84801">
        <ele>172</ele>
        <time>2017-10-14T07:07:59.000Z</time>
      </trkpt>
      <trkpt lat="43.61373" lon="6.84801">
        <ele>173</ele>
        <time>2017-10-14T07:08:00.000Z</time>
      </trkpt>
      <trkpt lat="43.61373" lon="6.84801">
        <ele>173</ele>
        <time>2017-10-14T07:08:01.000Z</time>
      </trkpt>
      <trkpt lat="43.61372" lon="6.84802">
        <ele>174</ele>
        <time>2017-10-14T07:08:02.000Z</time>
      </trkpt>
      <trkpt lat="43.61372" lon="6.84802">
        <ele>173</ele>
        <time>2017-10-14T07:08:03.000Z</time>
      </trkpt>
      <trkpt lat="43.61371" lon="6.84802">
        <ele>173</ele>
        <time>2017-10-14T07:08:04.000Z</time>
      </trkpt>
      <trkpt lat="43.61371" lon="6.84803">
        <ele>173</ele>
        <time>2017-10-14T07:08:05.000Z</time>
      </trkpt>
      <trkpt lat="43.61371" lon="6.84804">
        <ele>173</ele>
        <time>2017-10-14T07:08:06.000Z</time>
      </trkpt>
      <trkpt lat="43.6137" lon="6.84805">
        <ele>173</ele>
        <time>2017-10-14T07:08:07.000Z</time>
      </trkpt>
      <trkpt lat="43.6137" lon="6.84806">
        <ele>173</ele>
        <time>2017-10-14T07:08:08.000Z</time>
      </trkpt>
      <trkpt lat="43.6137" lon="6.84807">
        <ele>173</ele>
        <time>2017-10-14T07:08:09.000Z</time>
      </trkpt>
      <trkpt lat="43.6137" lon="6.84807">
        <ele>174</ele>
        <time>2017-10-14T07:08:10.000Z</time>
      </trkpt>
      <trkpt lat="43.61369" lon="6.84808">
        <ele>174</ele>
        <time>2017-10-14T07:08:11.000Z</time>
      </trkpt>
      <trkpt lat="43.61369" lon="6.84809">
        <ele>174</ele>
        <time>2017-10-14T07:08:12.000Z</time>
      </trkpt>
      <trkpt lat="43.61369" lon="6.84809">
        <ele>175</ele>
        <time>2017-10-14T07:08:13.000Z</time>
      </trkpt>
      <trkpt lat="43.61368" lon="6.8481">
        <ele>175</ele>
        <time>2017-10-14T07:08:14.000Z</time>
      </trkpt>
      <trkpt lat="43.61368" lon="6.8481">
        <ele>175</ele>
        <time>2017-10-14T07:08:15.000Z</time>
      </trkpt>
      <trkpt lat="43.61368" lon="6.84811">
        <ele>175</ele>
        <time>2017-10-14T07:08:16.000Z</time>
      </trkpt>
      <trkpt lat="43.61368" lon="6.84811">
        <ele>175</ele>
        <time>2017-10-14T07:08:17.000Z</time>
      </trkpt>
      <trkpt lat="43.61367" lon="6.84811">
        <ele>176</ele>
        <time>2017-10-14T07:08:18.000Z</time>
      </trkpt>
      <trkpt lat="43.61367" lon="6.84812">
        <ele>177</ele>
        <time>2017-10-14T07:08:19.000Z</time>
      </trkpt>
      <trkpt lat="43.61366" lon="6.84813">
        <ele>177</ele>
        <time>2017-10-14T07:08:20.000Z</time>
      </trkpt>
      <trkpt lat="43.61366" lon="6.84814">
        <ele>178</ele>
        <time>2017-10-14T07:08:21.000Z</time>
      </trkpt>
      <trkpt lat="43.61365" lon="6.84814">
        <ele>177</ele>
        <time>2017-10-14T07:08:22.000Z</time>
      </trkpt>
      <trkpt lat="43.61364" lon="6.84815">
        <ele>177</ele>
        <time>2017-10-14T07:08:23.000Z</time>
      </trkpt>
      <trkpt lat="43.61364" lon="6.84815">
        <ele>177</ele>
        <time>2017-10-14T07:08:24.000Z</time>
      </trkpt>
      <trkpt lat="43.61364" lon="6.84816">
        <ele>178</ele>
        <time>2017-10-14T07:08:25.000Z</time>
      </trkpt>
      <trkpt lat="43.61363" lon="6.84817">
        <ele>179</ele>
        <time>2017-10-14T07:08:26.000Z</time>
      </trkpt>
      <trkpt lat="43.61363" lon="6.84817">
        <ele>179</ele>
        <time>2017-10-14T07:08:27.000Z</time>
      </trkpt>
      <trkpt lat="43.61363" lon="6.84818">
        <ele>179</ele>
        <time>2017-10-14T07:08:28.000Z</time>
      </trkpt>
      <trkpt lat="43.61362" lon="6.84819">
        <ele>180</ele>
        <time>2017-10-14T07:08:29.000Z</time>
      </trkpt>
      <trkpt lat="43.61362" lon="6.8482">
        <ele>181</ele>
        <time>2017-10-14T07:08:30.000Z</time>
      </trkpt>
      <trkpt lat="43.61361" lon="6.8482">
        <ele>181</ele>
        <time>2017-10-14T07:08:31.000Z</time>
      </trkpt>
      <trkpt lat="43.61361" lon="6.84821">
        <ele>181</ele>
        <time>2017-10-14T07:08:32.000Z</time>
      </trkpt>
      <trkpt lat="43.61361" lon="6.84822">
        <ele>181</ele>
        <time>2017-10-14T07:08:33.000Z</time>
      </trkpt>
      <trkpt lat="43.6136" lon="6.84822">
        <ele>182</ele>
        <time>2017-10-14T07:08:34.000Z</time>
      </trkpt>
      <trkpt lat="43.6136" lon="6.84822">
        <ele>182</ele>
        <time>2017-10-14T07:08:35.000Z</time>
      </trkpt>
      <trkpt lat="43.61359" lon="6.84823">
        <ele>183</ele>
        <time>2017-10-14T07:08:36.000Z</time>
      </trkpt>
      <trkpt lat="43.61359" lon="6.84823">
        <ele>183</ele>
        <time>2017-10-14T07:08:37.000Z</time>
      </trkpt>
      <trkpt lat="43.61359" lon="6.84824">
        <ele>184</ele>
        <time>2017-10-14T07:08:38.000Z</time>
      </trkpt>
      <trkpt lat="43.61359" lon="6.84825">
        <ele>185</ele>
        <time>2017-10-14T07:08:39.000Z</time>
      </trkpt>
      <trkpt lat="43.61358" lon="6.84825">
        <ele>185</ele>
        <time>2017-10-14T07:08:40.000Z</time>
      </trkpt>
      <trkpt lat="43.61358" lon="6.84826">
        <ele>185</ele>
        <time>2017-10-14T07:08:41.000Z</time>
      </trkpt>
      <trkpt lat="43.61358" lon="6.84826">
        <ele>185</ele>
        <time>2017-10-14T07:08:42.000Z</time>
      </trkpt>
      <trkpt lat="43.61357" lon="6.84827">
        <ele>185</ele>
        <time>2017-10-14T07:08:43.000Z</time>
      </trkpt>
      <trkpt lat="43.61357" lon="6.84827">
        <ele>185</ele>
        <time>2017-10-14T07:08:44.000Z</time>
      </trkpt>
      <trkpt lat="43.61356" lon="6.84827">
        <ele>184</ele>
        <time>2017-10-14T07:08:45.000Z</time>
      </trkpt>
      <trkpt lat="43.61356" lon="6.84828">
        <ele>184</ele>
        <time>2017-10-14T07:08:46.000Z</time>
      </trkpt>
      <trkpt lat="43.61355" lon="6.84828">
        <ele>184</ele>
        <time>2017-10-14T07:08:47.000Z</time>
      </trkpt>
      <trkpt lat="43.61355" lon="6.84829">
        <ele>184</ele>
        <time>2017-10-14T07:08:48.000Z</time>
      </trkpt>
      <trkpt lat="43.61355" lon="6.84829">
        <ele>184</ele>
        <time>2017-10-14T07:08:49.000Z</time>
      </trkpt>
      <trkpt lat="43.61354" lon="6.8483">
        <ele>184</ele>
        <time>2017-10-14T07:08:50.000Z</time>
      </trkpt>
      <trkpt lat="43.61354" lon="6.84831">
        <ele>185</ele>
        <time>2017-10-14T07:08:51.000Z</time>
      </trkpt>
      <trkpt lat="43.61353" lon="6.84831">
        <ele>185</ele>
        <time>2017-10-14T07:08:52.000Z</time>
      </trkpt>
      <trkpt lat="43.61353" lon="6.84832">
        <ele>185</ele>
        <time>2017-10-14T07:08:53.000Z</time>
      </trkpt>
      <trkpt lat="43.61353" lon="6.84833">
        <ele>185</ele>
        <time>2017-10-14T07:08:54.000Z</time>
      </trkpt>
      <trkpt lat="43.61353" lon="6.84833">
        <ele>186</ele>
        <time>2017-10-14T07:08:55.000Z</time>
      </trkpt>
      <trkpt lat="43.61353" lon="6.84834">
        <ele>186</ele>
        <time>2017-10-14T07:08:56.000Z</time>
      </trkpt>
      <trkpt lat="43.61352" lon="6.84834">
        <ele>186</ele>
        <time>2017-10-14T07:08:57.000Z</time>
      </trkpt>
      <trkpt lat="43.61352" lon="6.84835">
        <ele>186</ele>
        <time>2017-10-14T07:08:58.000Z</time>
      </trkpt>
      <trkpt lat="43.61352" lon="6.84835">
        <ele>187</ele>
        <time>2017-10-14T07:08:59.000Z</time>
      </trkpt>
      <trkpt lat="43.61351" lon="6.84836">
        <ele>188</ele>
        <time>2017-10-14T07:09:00.000Z</time>
      </trkpt>
      <trkpt lat="43.61351" lon="6.84836">
        <ele>188</ele>
        <time>2017-10-14T07:09:01.000Z</time>
      </trkpt>
      <trkpt lat="43.6135" lon="6.84837">
        <ele>188</ele>
        <time>2017-10-14T07:09:02.000Z</time>
      </trkpt>
      <trkpt lat="43.6135" lon="6.84838">
        <ele>188</ele>
        <time>2017-10-14T07:09:03.000Z</time>
      </trkpt>
      <trkpt lat="43.61349" lon="6.84838">
        <ele>188</ele>
        <time>2017-10-14T07:09:04.000Z</time>
      </trkpt>
      <trkpt lat="43.61349" lon="6.84839">
        <ele>189</ele>
        <time>2017-10-14T07:09:05.000Z</time>
      </trkpt>
      <trkpt lat="43.61348" lon="6.8484">
        <ele>189</ele>
        <time>2017-10-14T07:09:06.000Z</time>
      </trkpt>
      <trkpt lat="43.61348" lon="6.84841">
        <ele>188</ele>
        <time>2017-10-14T07:09:07.000Z</time>
      </trkpt>
      <trkpt lat="43.61347" lon="6.84842">
        <ele>189</ele>
        <time>2017-10-14T07:09:08.000Z</time>
      </trkpt>
      <trkpt lat="43.61347" lon="6.84842">
        <ele>189</ele>
        <time>2017-10-14T07:09:09.000Z</time>
      </trkpt>
      <trkpt lat="43.61347" lon="6.84843">
        <ele>189</ele>
        <time>2017-10-14T07:09:10.000Z</time>
      </trkpt>
      <trkpt lat="43.61347" lon="6.84843">
        <ele>189</ele>
        <time>2017-10-14T07:09:11.000Z</time>
      </trkpt>
      <trkpt lat="43.61346" lon="6.84844">
        <ele>189</ele>
        <time>2017-10-14T07:09:12.000Z</time>
      </trkpt>
      <trkpt lat="43.61346" lon="6.84845">
        <ele>189</ele>
        <time>2017-10-14T07:09:13.000Z</time>
      </trkpt>
      <trkpt lat="43.61346" lon="6.84845">
        <ele>189</ele>
        <time>2017-10-14T07:09:14.000Z</time>
      </trkpt>
      <trkpt lat="43.61346" lon="6.84846">
        <ele>189</ele>
        <time>2017-10-14T07:09:15.000Z</time>
      </trkpt>
      <trkpt lat="43.61346" lon="6.84847">
        <ele>189</ele>
        <time>2017-10-14T07:09:16.000Z</time>
      </trkpt>
      <trkpt lat="43.61346" lon="6.84847">
        <ele>189</ele>
        <time>2017-10-14T07:09:17.000Z</time>
      </trkpt>
      <trkpt lat="43.61346" lon="6.84848">
        <ele>189</ele>
        <time>2017-10-14T07:09:18.000Z</time>
      </trkpt>
      <trkpt lat="43.61346" lon="6.84849">
        <ele>189</ele>
        <time>2017-10-14T07:09:19.000Z</time>
      </trkpt>
      <trkpt lat="43.61346" lon="6.84849">
        <ele>189</ele>
        <time>2017-10-14T07:09:20.000Z</time>
      </trkpt>
      <trkpt lat="43.61345" lon="6.8485">
        <ele>189</ele>
        <time>2017-10-14T07:09:21.000Z</time>
      </trkpt>
      <trkpt lat="43.61345" lon="6.84851">
        <ele>190</ele>
        <time>2017-10-14T07:09:22.000Z</time>
      </trkpt>
      <trkpt lat="43.61345" lon="6.84852">
        <ele>190</ele>
        <time>2017-10-14T07:09:23.000Z</time>
      </trkpt>
      <trkpt lat="43.61344" lon="6.84853">
        <ele>190</ele>
        <time>2017-10-14T07:09:24.000Z</time>
      </trkpt>
      <trkpt lat="43.61344" lon="6.84854">
        <ele>191</ele>
        <time>2017-10-14T07:09:25.000Z</time>
      </trkpt>
      <trkpt lat="43.61344" lon="6.84855">
        <ele>191</ele>
        <time>2017-10-14T07:09:26.000Z</time>
      </trkpt>
      <trkpt lat="43.61344" lon="6.84856">
        <ele>192</ele>
        <time>2017-10-14T07:09:27.000Z</time>
      </trkpt>
      <trkpt lat="43.61344" lon="6.84857">
        <ele>192</ele>
        <time>2017-10-14T07:09:28.000Z</time>
      </trkpt>
      <trkpt lat="43.61344" lon="6.84858">
        <ele>193</ele>
        <time>2017-10-14T07:09:29.000Z</time>
      </trkpt>
      <trkpt lat="43.61344" lon="6.84859">
        <ele>193</ele>
        <time>2017-10-14T07:09:30.000Z</time>
      </trkpt>
      <trkpt lat="43.61344" lon="6.84859">
        <ele>193</ele>
        <time>2017-10-14T07:09:31.000Z</time>
      </trkpt>
      <trkpt lat="43.61344" lon="6.8486">
        <ele>193</ele>
        <time>2017-10-14T07:09:32.000Z</time>
      </trkpt>
      <trkpt lat="43.61344" lon="6.84861">
        <ele>193</ele>
        <time>2017-10-14T07:09:33.000Z</time>
      </trkpt>
      <trkpt lat="43.61343" lon="6.84862">
        <ele>193</ele>
        <time>2017-10-14T07:09:34.000Z</time>
      </trkpt>
      <trkpt lat="43.61343" lon="6.84863">
        <ele>194</ele>
        <time>2017-10-14T07:09:35.000Z</time>
      </trkpt>
      <trkpt lat="43.61342" lon="6.84864">
        <ele>194</ele>
        <time>2017-10-14T07:09:36.000Z</time>
      </trkpt>
      <trkpt lat="43.61342" lon="6.84865">
        <ele>194</ele>
        <time>2017-10-14T07:09:37.000Z</time>
      </trkpt>
      <trkpt lat="43.61342" lon="6.84866">
        <ele>194</ele>
        <time>2017-10-14T07:09:38.000Z</time>
      </trkpt>
      <trkpt lat="43.61342" lon="6.84867">
        <ele>194</ele>
        <time>2017-10-14T07:09:39.000Z</time>
      </trkpt>
      <trkpt lat="43.61342" lon="6.84868">
        <ele>195</ele>
        <time>2017-10-14T07:09:40.000Z</time>
      </trkpt>
      <trkpt lat="43.61342" lon="6.8487">
        <ele>195</ele>
        <time>2017-10-14T07:09:41.000Z</time>
      </trkpt>
      <trkpt lat="43.61342" lon="6.84871">
        <ele>195</ele>
        <time>2017-10-14T07:09:42.000Z</time>
      </trkpt>
      <trkpt lat="43.61342" lon="6.84872">
        <ele>195</ele>
        <time>2017-10-14T07:09:43.000Z</time>
      </trkpt>
      <trkpt lat="43.61343" lon="6.84873">
        <ele>195</ele>
        <time>2017-10-14T07:09:44.000Z</time>
      </trkpt>
      <trkpt lat="43.61343" lon="6.84875">
        <ele>196</ele>
        <time>2017-10-14T07:09:45.000Z</time>
      </trkpt>
      <trkpt lat="43.61343" lon="6.84876">
        <ele>196</ele>
        <time>2017-10-14T07:09:46.000Z</time>
      </trkpt>
      <trkpt lat="43.61343" lon="6.84876">
        <ele>196</ele>
        <time>2017-10-14T07:09:47.000Z</time>
      </trkpt>
      <trkpt lat="43.61343" lon="6.84878">
        <ele>196</ele>
        <time>2017-10-14T07:09:48.000Z</time>
      </trkpt>
      <trkpt lat="43.61343" lon="6.84879">
        <ele>197</ele>
        <time>2017-10-14T07:09:49.000Z</time>
      </trkpt>
      <trkpt lat="43.61343" lon="6.84881">
        <ele>197</ele>
        <time>2017-10-14T07:09:50.000Z</time>
      </trkpt>
      <trkpt lat="43.61343" lon="6.84881">
        <ele>197</ele>
        <time>2017-10-14T07:09:51.000Z</time>
      </trkpt>
      <trkpt lat="43.61343" lon="6.84882">
        <ele>197</ele>
        <time>2017-10-14T07:09:52.000Z</time>
      </trkpt>
      <trkpt lat="43.61343" lon="6.84883">
        <ele>197</ele>
        <time>2017-10-14T07:09:53.000Z</time>
      </trkpt>
      <trkpt lat="43.61343" lon="6.84883">
        <ele>196</ele>
        <time>2017-10-14T07:09:54.000Z</time>
      </trkpt>
      <trkpt lat="43.61343" lon="6.84884">
        <ele>196</ele>
        <time>2017-10-14T07:09:55.000Z</time>
      </trkpt>
      <trkpt lat="43.61344" lon="6.84885">
        <ele>196</ele>
        <time>2017-10-14T07:09:56.000Z</time>
      </trkpt>
      <trkpt lat="43.61344" lon="6.84886">
        <ele>196</ele>
        <time>2017-10-14T07:09:57.000Z</time>
      </trkpt>
      <trkpt lat="43.61344" lon="6.84887">
        <ele>196</ele>
        <time>2017-10-14T07:09:58.000Z</time>
      </trkpt>
      <trkpt lat="43.61344" lon="6.84888">
        <ele>197</ele>
        <time>2017-10-14T07:09:59.000Z</time>
      </trkpt>
      <trkpt lat="43.61344" lon="6.84889">
        <ele>197</ele>
        <time>2017-10-14T07:10:00.000Z</time>
      </trkpt>
      <trkpt lat="43.61344" lon="6.8489">
        <ele>197</ele>
        <time>2017-10-14T07:10:01.000Z</time>
      </trkpt>
      <trkpt lat="43.61344" lon="6.84891">
        <ele>196</ele>
        <time>2017-10-14T07:10:02.000Z</time>
      </trkpt>
      <trkpt lat="43.61344" lon="6.84892">
        <ele>197</ele>
        <time>2017-10-14T07:10:03.000Z</time>
      </trkpt>
      <trkpt lat="43.61344" lon="6.84892">
        <ele>197</ele>
        <time>2017-10-14T07:10:04.000Z</time>
      </trkpt>
      <trkpt lat="43.61344" lon="6.84893">
        <ele>197</ele>
        <time>2017-10-14T07:10:05.000Z</time>
      </trkpt>
      <trkpt lat="43.61344" lon="6.84894">
        <ele>197</ele>
        <time>2017-10-14T07:10:06.000Z</time>
      </trkpt>
      <trkpt lat="43.61345" lon="6.84895">
        <ele>198</ele>
        <time>2017-10-14T07:10:07.000Z</time>
      </trkpt>
      <trkpt lat="43.61345" lon="6.84896">
        <ele>198</ele>
        <time>2017-10-14T07:10:08.000Z</time>
      </trkpt>
      <trkpt lat="43.61345" lon="6.84897">
        <ele>199</ele>
        <time>2017-10-14T07:10:09.000Z</time>
      </trkpt>
      <trkpt lat="43.61345" lon="6.84897">
        <ele>199</ele>
        <time>2017-10-14T07:10:10.000Z</time>
      </trkpt>
      <trkpt lat="43.61345" lon="6.84898">
        <ele>199</ele>
        <time>2017-10-14T07:10:11.000Z</time>
      </trkpt>
      <trkpt lat="43.61345" lon="6.84899">
        <ele>199</ele>
        <time>2017-10-14T07:10:12.000Z</time>
      </trkpt>
      <trkpt lat="43.61345" lon="6.849">
        <ele>199</ele>
        <time>2017-10-14T07:10:13.000Z</time>
      </trkpt>
      <trkpt lat="43.61345" lon="6.84901">
        <ele>200</ele>
        <time>2017-10-14T07:10:14.000Z</time>
      </trkpt>
      <trkpt lat="43.61344" lon="6.84902">
        <ele>200</ele>
        <time>2017-10-14T07:10:15.000Z</time>
      </trkpt>
      <trkpt lat="43.61344" lon="6.84903">
        <ele>200</ele>
        <time>2017-10-14T07:10:16.000Z</time>
      </trkpt>
      <trkpt lat="43.61344" lon="6.84904">
        <ele>200</ele>
        <time>2017-10-14T07:10:17.000Z</time>
      </trkpt>
      <trkpt lat="43.61344" lon="6.84905">
        <ele>200</ele>
        <time>2017-10-14T07:10:18.000Z</time>
      </trkpt>
      <trkpt lat="43.61344" lon="6.84906">
        <ele>200</ele>
        <time>2017-10-14T07:10:19.000Z</time>
      </trkpt>
      <trkpt lat="43.61344" lon="6.84907">
        <ele>201</ele>
        <time>2017-10-14T07:10:20.000Z</time>
      </trkpt>
      <trkpt lat="43.61344" lon="6.84908">
        <ele>202</ele>
        <time>2017-10-14T07:10:21.000Z</time>
      </trkpt>
      <trkpt lat="43.61343" lon="6.84909">
        <ele>202</ele>
        <time>2017-10-14T07:10:22.000Z</time>
      </trkpt>
      <trkpt lat="43.61343" lon="6.84911">
        <ele>201</ele>
        <time>2017-10-14T07:10:23.000Z</time>
      </trkpt>
      <trkpt lat="43.61344" lon="6.84912">
        <ele>202</ele>
        <time>2017-10-14T07:10:24.000Z</time>
      </trkpt>
      <trkpt lat="43.61344" lon="6.84913">
        <ele>203</ele>
        <time>2017-10-14T07:10:25.000Z</time>
      </trkpt>
      <trkpt lat="43.61344" lon="6.84914">
        <ele>203</ele>
        <time>2017-10-14T07:10:26.000Z</time>
      </trkpt>
      <trkpt lat="43.61344" lon="6.84915">
        <ele>203</ele>
        <time>2017-10-14T07:10:27.000Z</time>
      </trkpt>
      <trkpt lat="43.61344" lon="6.84916">
        <ele>204</ele>
        <time>2017-10-14T07:10:28.000Z</time>
      </trkpt>
      <trkpt lat="43.61344" lon="6.84917">
        <ele>204</ele>
        <time>2017-10-14T07:10:29.000Z</time>
      </trkpt>
      <trkpt lat="43.61344" lon="6.84918">
        <ele>204</ele>
        <time>2017-10-14T07:10:30.000Z</time>
      </trkpt>
      <trkpt lat="43.61344" lon="6.84918">
        <ele>205</ele>
        <time>2017-10-14T07:10:31.000Z</time>
      </trkpt>
      <trkpt lat="43.61344" lon="6.84919">
        <ele>205</ele>
        <time>2017-10-14T07:10:32.000Z</time>
      </trkpt>
      <trkpt lat="43.61344" lon="6.84919">
        <ele>207</ele>
        <time>2017-10-14T07:10:33.000Z</time>
      </trkpt>
      <trkpt lat="43.61344" lon="6.8492">
        <ele>207</ele>
        <time>2017-10-14T07:10:34.000Z</time>
      </trkpt>
      <trkpt lat="43.61345" lon="6.84921">
        <ele>208</ele>
        <time>2017-10-14T07:10:35.000Z</time>
      </trkpt>
      <trkpt lat="43.61344" lon="6.84922">
        <ele>207</ele>
        <time>2017-10-14T07:10:36.000Z</time>
      </trkpt>
      <trkpt lat="43.61344" lon="6.84923">
        <ele>208</ele>
        <time>2017-10-14T07:10:37.000Z</time>
      </trkpt>
      <trkpt lat="43.61344" lon="6.84924">
        <ele>207</ele>
        <time>2017-10-14T07:10:38.000Z</time>
      </trkpt>
      <trkpt lat="43.61344" lon="6.84924">
        <ele>208</ele>
        <time>2017-10-14T07:10:39.000Z</time>
      </trkpt>
      <trkpt lat="43.61345" lon="6.84925">
        <ele>208</ele>
        <time>2017-10-14T07:10:40.000Z</time>
      </trkpt>
      <trkpt lat="43.61345" lon="6.84927">
        <ele>209</ele>
        <time>2017-10-14T07:10:41.000Z</time>
      </trkpt>
      <trkpt lat="43.61345" lon="6.84928">
        <ele>209</ele>
        <time>2017-10-14T07:10:42.000Z</time>
      </trkpt>
      <trkpt lat="43.61345" lon="6.84929">
        <ele>210</ele>
        <time>2017-10-14T07:10:43.000Z</time>
      </trkpt>
      <trkpt lat="43.61345" lon="6.8493">
        <ele>210</ele>
        <time>2017-10-14T07:10:44.000Z</time>
      </trkpt>
      <trkpt lat="43.61345" lon="6.84931">
        <ele>209</ele>
        <time>2017-10-14T07:10:45.000Z</time>
      </trkpt>
      <trkpt lat="43.61345" lon="6.84933">
        <ele>209</ele>
        <time>2017-10-14T07:10:46.000Z</time>
      </trkpt>
      <trkpt lat="43.61345" lon="6.84934">
        <ele>209</ele>
        <time>2017-10-14T07:10:47.000Z</time>
      </trkpt>
      <trkpt lat="43.61345" lon="6.84935">
        <ele>209</ele>
        <time>2017-10-14T07:10:48.000Z</time>
      </trkpt>
      <trkpt lat="43.61344" lon="6.84936">
        <ele>209</ele>
        <time>2017-10-14T07:10:49.000Z</time>
      </trkpt>
      <trkpt lat="43.61344" lon="6.84937">
        <ele>209</ele>
        <time>2017-10-14T07:10:50.000Z</time>
      </trkpt>
      <trkpt lat="43.61344" lon="6.84938">
        <ele>210</ele>
        <time>2017-10-14T07:10:51.000Z</time>
      </trkpt>
      <trkpt lat="43.61344" lon="6.84939">
        <ele>210</ele>
        <time>2017-10-14T07:10:52.000Z</time>
      </trkpt>
      <trkpt lat="43.61344" lon="6.8494">
        <ele>210</ele>
        <time>2017-10-14T07:10:53.000Z</time>
      </trkpt>
      <trkpt lat="43.61344" lon="6.84941">
        <ele>210</ele>
        <time>2017-10-14T07:10:54.000Z</time>
      </trkpt>
      <trkpt lat="43.61344" lon="6.84942">
        <ele>211</ele>
        <time>2017-10-14T07:10:55.000Z</time>
      </trkpt>
      <trkpt lat="43.61344" lon="6.84942">
        <ele>210</ele>
        <time>2017-10-14T07:10:56.000Z</time>
      </trkpt>
      <trkpt lat="43.61344" lon="6.84943">
        <ele>211</ele>
        <time>2017-10-14T07:10:57.000Z</time>
      </trkpt>
      <trkpt lat="43.61344" lon="6.84943">
        <ele>211</ele>
        <time>2017-10-14T07:10:58.000Z</time>
      </trkpt>
      <trkpt lat="43.61344" lon="6.84943">
        <ele>211</ele>
        <time>2017-10-14T07:10:59.000Z</time>
      </trkpt>
      <trkpt lat="43.61344" lon="6.84944">
        <ele>211</ele>
        <time>2017-10-14T07:11:00.000Z</time>
      </trkpt>
      <trkpt lat="43.61343" lon="6.84944">
        <ele>212</ele>
        <time>2017-10-14T07:11:01.000Z</time>
      </trkpt>
      <trkpt lat="43.61343" lon="6.84944">
        <ele>213</ele>
        <time>2017-10-14T07:11:02.000Z</time>
      </trkpt>
      <trkpt lat="43.61344" lon="6.84945">
        <ele>212</ele>
        <time>2017-10-14T07:11:03.000Z</time>
      </trkpt>
      <trkpt lat="43.61344" lon="6.84945">
        <ele>213</ele>
        <time>2017-10-14T07:11:04.000Z</time>
      </trkpt>
      <trkpt lat="43.61345" lon="6.84946">
        <ele>214</ele>
        <time>2017-10-14T07:11:05.000Z</time>
      </trkpt>
      <trkpt lat="43.61345" lon="6.84946">
        <ele>213</ele>
        <time>2017-10-14T07:11:06.000Z</time>
      </trkpt>
      <trkpt lat="43.61345" lon="6.84946">
        <ele>214</ele>
        <time>2017-10-14T07:11:07.000Z</time>
      </trkpt>
      <trkpt lat="43.61345" lon="6.84946">
        <ele>213</ele>
        <time>2017-10-14T07:11:08.000Z</time>
      </trkpt>
      <trkpt lat="43.61345" lon="6.84946">
        <ele>213</ele>
        <time>2017-10-14T07:11:09.000Z</time>
      </trkpt>
      <trkpt lat="43.61345" lon="6.84946">
        <ele>213</ele>
        <time>2017-10-14T07:11:10.000Z</time>
      </trkpt>
      <trkpt lat="43.61344" lon="6.84946">
        <ele>213</ele>
        <time>2017-10-14T07:11:11.000Z</time>
      </trkpt>
      <trkpt lat="43.61344" lon="6.84946">
        <ele>213</ele>
        <time>2017-10-14T07:11:12.000Z</time>
      </trkpt>
      <trkpt lat="43.61344" lon="6.84946">
        <ele>213</ele>
        <time>2017-10-14T07:11:13.000Z</time>
      </trkpt>
      <trkpt lat="43.61344" lon="6.84946">
        <ele>213</ele>
        <time>2017-10-14T07:11:14.000Z</time>
      </trkpt>
      <trkpt lat="43.61344" lon="6.84946">
        <ele>213</ele>
        <time>2017-10-14T07:11:15.000Z</time>
      </trkpt>
      <trkpt lat="43.61344" lon="6.84946">
        <ele>213</ele>
        <time>2017-10-14T07:11:16.000Z</time>
      </trkpt>
      <trkpt lat="43.61344" lon="6.84946">
        <ele>212</ele>
        <time>2017-10-14T07:11:17.000Z</time>
      </trkpt>
      <trkpt lat="43.61344" lon="6.84946">
        <ele>212</ele>
        <time>2017-10-14T07:11:18.000Z</time>
      </trkpt>
      <trkpt lat="43.61344" lon="6.84946">
        <ele>214</ele>
        <time>2017-10-14T07:11:19.000Z</time>
      </trkpt>
      <trkpt lat="43.61344" lon="6.84946">
        <ele>214</ele>
        <time>2017-10-14T07:11:20.000Z</time>
      </trkpt>
      <trkpt lat="43.61344" lon="6.84946">
        <ele>214</ele>
        <time>2017-10-14T07:11:21.000Z</time>
      </trkpt>
      <trkpt lat="43.61344" lon="6.84946">
        <ele>213</ele>
        <time>2017-10-14T07:11:22.000Z</time>
      </trkpt>
      <trkpt lat="43.61344" lon="6.84946">
        <ele>213</ele>
        <time>2017-10-14T07:11:23.000Z</time>
      </trkpt>
      <trkpt lat="43.61343" lon="6.84946">
        <ele>213</ele>
        <time>2017-10-14T07:11:24.000Z</time>
      </trkpt>
      <trkpt lat="43.61343" lon="6.84945">
        <ele>212</ele>
        <time>2017-10-14T07:11:25.000Z</time>
      </trkpt>
      <trkpt lat="43.61343" lon="6.84945">
        <ele>212</ele>
        <time>2017-10-14T07:11:26.000Z</time>
      </trkpt>
      <trkpt lat="43.61343" lon="6.84945">
        <ele>212</ele>
        <time>2017-10-14T07:11:27.000Z</time>
      </trkpt>
      <trkpt lat="43.61343" lon="6.84945">
        <ele>212</ele>
        <time>2017-10-14T07:11:28.000Z</time>
      </trkpt>
      <trkpt lat="43.61343" lon="6.84945">
        <ele>212</ele>
        <time>2017-10-14T07:11:29.000Z</time>
      </trkpt>
      <trkpt lat="43.61344" lon="6.84945">
        <ele>211</ele>
        <time>2017-10-14T07:11:30.000Z</time>
      </trkpt>
      <trkpt lat="43.61344" lon="6.84945">
        <ele>211</ele>
        <time>2017-10-14T07:11:31.000Z</time>
      </trkpt>
      <trkpt lat="43.61344" lon="6.84945">
        <ele>211</ele>
        <time>2017-10-14T07:11:32.000Z</time>
      </trkpt>
      <trkpt lat="43.61344" lon="6.84945">
        <ele>211</ele>
        <time>2017-10-14T07:11:33.000Z</time>
      </trkpt>
      <trkpt lat="43.61344" lon="6.84945">
        <ele>211</ele>
        <time>2017-10-14T07:11:34.000Z</time>
      </trkpt>
      <trkpt lat="43.61344" lon="6.84945">
        <ele>211</ele>
        <time>2017-10-14T07:11:35.000Z</time>
      </trkpt>
      <trkpt lat="43.61344" lon="6.84945">
        <ele>211</ele>
        <time>2017-10-14T07:11:36.000Z</time>
      </trkpt>
      <trkpt lat="43.61344" lon="6.84945">
        <ele>211</ele>
        <time>2017-10-14T07:11:37.000Z</time>
      </trkpt>
      <trkpt lat="43.61344" lon="6.84945">
        <ele>211</ele>
        <time>2017-10-14T07:11:38.000Z</time>
      </trkpt>
      <trkpt lat="43.61344" lon="6.84945">
        <ele>211</ele>
        <time>2017-10-14T07:11:39.000Z</time>
      </trkpt>
      <trkpt lat="43.61344" lon="6.84945">
        <ele>210</ele>
        <time>2017-10-14T07:11:40.000Z</time>
      </trkpt>
      <trkpt lat="43.61345" lon="6.84945">
        <ele>211</ele>
        <time>2017-10-14T07:11:41.000Z</time>
      </trkpt>
      <trkpt lat="43.61345" lon="6.84945">
        <ele>210</ele>
        <time>2017-10-14T07:11:42.000Z</time>
      </trkpt>
      <trkpt lat="43.61345" lon="6.84945">
        <ele>210</ele>
        <time>2017-10-14T07:11:43.000Z</time>
      </trkpt>
      <trkpt lat="43.61345" lon="6.84945">
        <ele>211</ele>
        <time>2017-10-14T07:11:44.000Z</time>
      </trkpt>
      <trkpt lat="43.61345" lon="6.84945">
        <ele>211</ele>
        <time>2017-10-14T07:11:45.000Z</time>
      </trkpt>
      <trkpt lat="43.61344" lon="6.84945">
        <ele>211</ele>
        <time>2017-10-14T07:11:46.000Z</time>
      </trkpt>
      <trkpt lat="43.61344" lon="6.84945">
        <ele>212</ele>
        <time>2017-10-14T07:11:47.000Z</time>
      </trkpt>
      <trkpt lat="43.61343" lon="6.84945">
        <ele>212</ele>
        <time>2017-10-14T07:11:48.000Z</time>
      </trkpt>
      <trkpt lat="43.61343" lon="6.84944">
        <ele>212</ele>
        <time>2017-10-14T07:11:49.000Z</time>
      </trkpt>
      <trkpt lat="43.61343" lon="6.84943">
        <ele>212</ele>
        <time>2017-10-14T07:11:50.000Z</time>
      </trkpt>
      <trkpt lat="43.61342" lon="6.84943">
        <ele>212</ele>
        <time>2017-10-14T07:11:51.000Z</time>
      </trkpt>
      <trkpt lat="43.61342" lon="6.84942">
        <ele>212</ele>
        <time>2017-10-14T07:11:52.000Z</time>
      </trkpt>
      <trkpt lat="43.61342" lon="6.84941">
        <ele>213</ele>
        <time>2017-10-14T07:11:53.000Z</time>
      </trkpt>
      <trkpt lat="43.61341" lon="6.84941">
        <ele>213</ele>
        <time>2017-10-14T07:11:54.000Z</time>
      </trkpt>
      <trkpt lat="43.61341" lon="6.8494">
        <ele>213</ele>
        <time>2017-10-14T07:11:55.000Z</time>
      </trkpt>
      <trkpt lat="43.6134" lon="6.84938">
        <ele>213</ele>
        <time>2017-10-14T07:11:56.000Z</time>
      </trkpt>
      <trkpt lat="43.6134" lon="6.84937">
        <ele>213</ele>
        <time>2017-10-14T07:11:57.000Z</time>
      </trkpt>
      <trkpt lat="43.61339" lon="6.84935">
        <ele>211</ele>
        <time>2017-10-14T07:11:58.000Z</time>
      </trkpt>
      <trkpt lat="43.61339" lon="6.84933">
        <ele>211</ele>
        <time>2017-10-14T07:11:59.000Z</time>
      </trkpt>
      <trkpt lat="43.61338" lon="6.84931">
        <ele>210</ele>
        <time>2017-10-14T07:12:00.000Z</time>
      </trkpt>
      <trkpt lat="43.61338" lon="6.84929">
        <ele>210</ele>
        <time>2017-10-14T07:12:01.000Z</time>
      </trkpt>
      <trkpt lat="43.61337" lon="6.84927">
        <ele>209</ele>
        <time>2017-10-14T07:12:02.000Z</time>
      </trkpt>
      <trkpt lat="43.61336" lon="6.84925">
        <ele>209</ele>
        <time>2017-10-14T07:12:03.000Z</time>
      </trkpt>
      <trkpt lat="43.61336" lon="6.84924">
        <ele>208</ele>
        <time>2017-10-14T07:12:04.000Z</time>
      </trkpt>
      <trkpt lat="43.61335" lon="6.84922">
        <ele>208</ele>
        <time>2017-10-14T07:12:05.000Z</time>
      </trkpt>
      <trkpt lat="43.61335" lon="6.84921">
        <ele>208</ele>
        <time>2017-10-14T07:12:06.000Z</time>
      </trkpt>
      <trkpt lat="43.61335" lon="6.84919">
        <ele>207</ele>
        <time>2017-10-14T07:12:07.000Z</time>
      </trkpt>
      <trkpt lat="43.61334" lon="6.84917">
        <ele>206</ele>
        <time>2017-10-14T07:12:08.000Z</time>
      </trkpt>
      <trkpt lat="43.61334" lon="6.84915">
        <ele>206</ele>
        <time>2017-10-14T07:12:09.000Z</time>
      </trkpt>
      <trkpt lat="43.61334" lon="6.84913">
        <ele>205</ele>
        <time>2017-10-14T07:12:10.000Z</time>
      </trkpt>
      <trkpt lat="43.61334" lon="6.84911">
        <ele>205</ele>
        <time>2017-10-14T07:12:11.000Z</time>
      </trkpt>
      <trkpt lat="43.61333" lon="6.84909">
        <ele>204</ele>
        <time>2017-10-14T07:12:12.000Z</time>
      </trkpt>
      <trkpt lat="43.61333" lon="6.84907">
        <ele>204</ele>
        <time>2017-10-14T07:12:13.000Z</time>
      </trkpt>
      <trkpt lat="43.61333" lon="6.84905">
        <ele>204</ele>
        <time>2017-10-14T07:12:14.000Z</time>
      </trkpt>
      <trkpt lat="43.61333" lon="6.84903">
        <ele>203</ele>
        <time>2017-10-14T07:12:15.000Z</time>
      </trkpt>
      <trkpt lat="43.61333" lon="6.84902">
        <ele>203</ele>
        <time>2017-10-14T07:12:16.000Z</time>
      </trkpt>
      <trkpt lat="43.61333" lon="6.849">
        <ele>203</ele>
        <time>2017-10-14T07:12:17.000Z</time>
      </trkpt>
      <trkpt lat="43.61332" lon="6.84898">
        <ele>202</ele>
        <time>2017-10-14T07:12:18.000Z</time>
      </trkpt>
      <trkpt lat="43.61332" lon="6.84896">
        <ele>202</ele>
        <time>2017-10-14T07:12:19.000Z</time>
      </trkpt>
      <trkpt lat="43.61332" lon="6.84894">
        <ele>201</ele>
        <time>2017-10-14T07:12:20.000Z</time>
      </trkpt>
      <trkpt lat="43.61333" lon="6.84892">
        <ele>200</ele>
        <time>2017-10-14T07:12:21.000Z</time>
      </trkpt>
      <trkpt lat="43.61333" lon="6.84891">
        <ele>200</ele>
        <time>2017-10-14T07:12:22.000Z</time>
      </trkpt>
      <trkpt lat="43.61333" lon="6.84889">
        <ele>200</ele>
        <time>2017-10-14T07:12:23.000Z</time>
      </trkpt>
      <trkpt lat="43.61333" lon="6.84887">
        <ele>200</ele>
        <time>2017-10-14T07:12:24.000Z</time>
      </trkpt>
      <trkpt lat="43.61333" lon="6.84886">
        <ele>198</ele>
        <time>2017-10-14T07:12:25.000Z</time>
      </trkpt>
      <trkpt lat="43.61333" lon="6.84885">
        <ele>198</ele>
        <time>2017-10-14T07:12:26.000Z</time>
      </trkpt>
      <trkpt lat="43.61333" lon="6.84884">
        <ele>198</ele>
        <time>2017-10-14T07:12:27.000Z</time>
      </trkpt>
      <trkpt lat="43.61333" lon="6.84882">
        <ele>198</ele>
        <time>2017-10-14T07:12:28.000Z</time>
      </trkpt>
      <trkpt lat="43.61333" lon="6.84881">
        <ele>198</ele>
        <time>2017-10-14T07:12:29.000Z</time>
      </trkpt>
      <trkpt lat="43.61333" lon="6.84879">
        <ele>197</ele>
        <time>2017-10-14T07:12:30.000Z</time>
      </trkpt>
      <trkpt lat="43.61333" lon="6.84878">
        <ele>197</ele>
        <time>2017-10-14T07:12:31.000Z</time>
      </trkpt>
      <trkpt lat="43.61334" lon="6.84877">
        <ele>197</ele>
        <time>2017-10-14T07:12:32.000Z</time>
      </trkpt>
      <trkpt lat="43.61334" lon="6.84875">
        <ele>197</ele>
        <time>2017-10-14T07:12:33.000Z</time>
      </trkpt>
      <trkpt lat="43.61335" lon="6.84874">
        <ele>196</ele>
        <time>2017-10-14T07:12:34.000Z</time>
      </trkpt>
      <trkpt lat="43.61335" lon="6.84874">
        <ele>196</ele>
        <time>2017-10-14T07:12:35.000Z</time>
      </trkpt>
      <trkpt lat="43.61335" lon="6.84873">
        <ele>196</ele>
        <time>2017-10-14T07:12:36.000Z</time>
      </trkpt>
      <trkpt lat="43.61335" lon="6.84872">
        <ele>195</ele>
        <time>2017-10-14T07:12:37.000Z</time>
      </trkpt>
      <trkpt lat="43.61335" lon="6.8487">
        <ele>195</ele>
        <time>2017-10-14T07:12:38.000Z</time>
      </trkpt>
      <trkpt lat="43.61335" lon="6.84869">
        <ele>194</ele>
        <time>2017-10-14T07:12:39.000Z</time>
      </trkpt>
      <trkpt lat="43.61335" lon="6.84867">
        <ele>193</ele>
        <time>2017-10-14T07:12:40.000Z</time>
      </trkpt>
      <trkpt lat="43.61335" lon="6.84865">
        <ele>193</ele>
        <time>2017-10-14T07:12:41.000Z</time>
      </trkpt>
      <trkpt lat="43.61336" lon="6.84863">
        <ele>192</ele>
        <time>2017-10-14T07:12:42.000Z</time>
      </trkpt>
      <trkpt lat="43.61336" lon="6.84862">
        <ele>192</ele>
        <time>2017-10-14T07:12:43.000Z</time>
      </trkpt>
      <trkpt lat="43.61336" lon="6.8486">
        <ele>192</ele>
        <time>2017-10-14T07:12:44.000Z</time>
      </trkpt>
      <trkpt lat="43.61336" lon="6.84858">
        <ele>191</ele>
        <time>2017-10-14T07:12:45.000Z</time>
      </trkpt>
      <trkpt lat="43.61336" lon="6.84856">
        <ele>191</ele>
        <time>2017-10-14T07:12:46.000Z</time>
      </trkpt>
      <trkpt lat="43.61336" lon="6.84854">
        <ele>191</ele>
        <time>2017-10-14T07:12:47.000Z</time>
      </trkpt>
      <trkpt lat="43.61336" lon="6.84852">
        <ele>191</ele>
        <time>2017-10-14T07:12:48.000Z</time>
      </trkpt>
      <trkpt lat="43.61336" lon="6.84851">
        <ele>190</ele>
        <time>2017-10-14T07:12:49.000Z</time>
      </trkpt>
      <trkpt lat="43.61336" lon="6.84849">
        <ele>190</ele>
        <time>2017-10-14T07:12:50.000Z</time>
      </trkpt>
      <trkpt lat="43.61335" lon="6.84847">
        <ele>190</ele>
        <time>2017-10-14T07:12:51.000Z</time>
      </trkpt>
      <trkpt lat="43.61335" lon="6.84846">
        <ele>190</ele>
        <time>2017-10-14T07:12:52.000Z</time>
      </trkpt>
      <trkpt lat="43.61335" lon="6.84845">
        <ele>190</ele>
        <time>2017-10-14T07:12:53.000Z</time>
      </trkpt>
      <trkpt lat="43.61335" lon="6.84844">
        <ele>190</ele>
        <time>2017-10-14T07:12:54.000Z</time>
      </trkpt>
      <trkpt lat="43.61335" lon="6.84842">
        <ele>189</ele>
        <time>2017-10-14T07:12:55.000Z</time>
      </trkpt>
      <trkpt lat="43.61334" lon="6.84841">
        <ele>189</ele>
        <time>2017-10-14T07:12:56.000Z</time>
      </trkpt>
      <trkpt lat="43.61334" lon="6.8484">
        <ele>189</ele>
        <time>2017-10-14T07:12:57.000Z</time>
      </trkpt>
      <trkpt lat="43.61334" lon="6.84839">
        <ele>188</ele>
        <time>2017-10-14T07:12:58.000Z</time>
      </trkpt>
      <trkpt lat="43.61334" lon="6.84838">
        <ele>187</ele>
        <time>2017-10-14T07:12:59.000Z</time>
      </trkpt>
      <trkpt lat="43.61334" lon="6.84837">
        <ele>187</ele>
        <time>2017-10-14T07:13:00.000Z</time>
      </trkpt>
      <trkpt lat="43.61334" lon="6.84836">
        <ele>187</ele>
        <time>2017-10-14T07:13:01.000Z</time>
      </trkpt>
      <trkpt lat="43.61333" lon="6.84835">
        <ele>187</ele>
        <time>2017-10-14T07:13:02.000Z</time>
      </trkpt>
      <trkpt lat="43.61333" lon="6.84834">
        <ele>187</ele>
        <time>2017-10-14T07:13:03.000Z</time>
      </trkpt>
      <trkpt lat="43.61333" lon="6.84833">
        <ele>186</ele>
        <time>2017-10-14T07:13:04.000Z</time>
      </trkpt>
      <trkpt lat="43.61333" lon="6.84832">
        <ele>186</ele>
        <time>2017-10-14T07:13:05.000Z</time>
      </trkpt>
      <trkpt lat="43.61333" lon="6.84831">
        <ele>186</ele>
        <time>2017-10-14T07:13:06.000Z</time>
      </trkpt>
      <trkpt lat="43.61333" lon="6.8483">
        <ele>185</ele>
        <time>2017-10-14T07:13:07.000Z</time>
      </trkpt>
      <trkpt lat="43.61332" lon="6.84829">
        <ele>185</ele>
        <time>2017-10-14T07:13:08.000Z</time>
      </trkpt>
      <trkpt lat="43.61332" lon="6.84828">
        <ele>184</ele>
        <time>2017-10-14T07:13:09.000Z</time>
      </trkpt>
      <trkpt lat="43.61332" lon="6.84827">
        <ele>183</ele>
        <time>2017-10-14T07:13:10.000Z</time>
      </trkpt>
      <trkpt lat="43.61331" lon="6.84826">
        <ele>183</ele>
        <time>2017-10-14T07:13:11.000Z</time>
      </trkpt>
      <trkpt lat="43.61331" lon="6.84825">
        <ele>183</ele>
        <time>2017-10-14T07:13:12.000Z</time>
      </trkpt>
      <trkpt lat="43.61331" lon="6.84824">
        <ele>182</ele>
        <time>2017-10-14T07:13:13.000Z</time>
      </trkpt>
      <trkpt lat="43.6133" lon="6.84823">
        <ele>182</ele>
        <time>2017-10-14T07:13:14.000Z</time>
      </trkpt>
      <trkpt lat="43.6133" lon="6.84822">
        <ele>181</ele>
        <time>2017-10-14T07:13:15.000Z</time>
      </trkpt>
      <trkpt lat="43.6133" lon="6.84821">
        <ele>180</ele>
        <time>2017-10-14T07:13:16.000Z</time>
      </trkpt>
      <trkpt lat="43.6133" lon="6.8482">
        <ele>180</ele>
        <time>2017-10-14T07:13:17.000Z</time>
      </trkpt>
      <trkpt lat="43.6133" lon="6.84819">
        <ele>180</ele>
        <time>2017-10-14T07:13:18.000Z</time>
      </trkpt>
      <trkpt lat="43.6133" lon="6.84818">
        <ele>180</ele>
        <time>2017-10-14T07:13:19.000Z</time>
      </trkpt>
      <trkpt lat="43.6133" lon="6.84817">
        <ele>180</ele>
        <time>2017-10-14T07:13:20.000Z</time>
      </trkpt>
      <trkpt lat="43.61329" lon="6.84816">
        <ele>180</ele>
        <time>2017-10-14T07:13:21.000Z</time>
      </trkpt>
      <trkpt lat="43.61329" lon="6.84815">
        <ele>179</ele>
        <time>2017-10-14T07:13:22.000Z</time>
      </trkpt>
      <trkpt lat="43.61329" lon="6.84814">
        <ele>179</ele>
        <time>2017-10-14T07:13:23.000Z</time>
      </trkpt>
      <trkpt lat="43.61329" lon="6.84813">
        <ele>179</ele>
        <time>2017-10-14T07:13:24.000Z</time>
      </trkpt>
      <trkpt lat="43.61328" lon="6.84812">
        <ele>178</ele>
        <time>2017-10-14T07:13:25.000Z</time>
      </trkpt>
      <trkpt lat="43.61328" lon="6.84811">
        <ele>178</ele>
        <time>2017-10-14T07:13:26.000Z</time>
      </trkpt>
      <trkpt lat="43.61328" lon="6.8481">
        <ele>178</ele>
        <time>2017-10-14T07:13:27.000Z</time>
      </trkpt>
      <trkpt lat="43.61328" lon="6.84809">
        <ele>177</ele>
        <time>2017-10-14T07:13:28.000Z</time>
      </trkpt>
      <trkpt lat="43.61327" lon="6.84808">
        <ele>177</ele>
        <time>2017-10-14T07:13:29.000Z</time>
      </trkpt>
      <trkpt lat="43.61327" lon="6.84807">
        <ele>176</ele>
        <time>2017-10-14T07:13:30.000Z</time>
      </trkpt>
      <trkpt lat="43.61327" lon="6.84806">
        <ele>176</ele>
        <time>2017-10-14T07:13:31.000Z</time>
      </trkpt>
      <trkpt lat="43.61326" lon="6.84806">
        <ele>176</ele>
        <time>2017-10-14T07:13:32.000Z</time>
      </trkpt>
      <trkpt lat="43.61326" lon="6.84805">
        <ele>175</ele>
        <time>2017-10-14T07:13:33.000Z</time>
      </trkpt>
      <trkpt lat="43.61326" lon="6.84804">
        <ele>175</ele>
        <time>2017-10-14T07:13:34.000Z</time>
      </trkpt>
      <trkpt lat="43.61326" lon="6.84804">
        <ele>175</ele>
        <time>2017-10-14T07:13:35.000Z</time>
      </trkpt>
      <trkpt lat="43.61326" lon="6.84803">
        <ele>175</ele>
        <time>2017-10-14T07:13:36.000Z</time>
      </trkpt>
      <trkpt lat="43.61326" lon="6.84803">
        <ele>174</ele>
        <time>2017-10-14T07:13:37.000Z</time>
      </trkpt>
      <trkpt lat="43.61326" lon="6.84802">
        <ele>174</ele>
        <time>2017-10-14T07:13:38.000Z</time>
      </trkpt>
      <trkpt lat="43.61325" lon="6.84802">
        <ele>175</ele>
        <time>2017-10-14T07:13:39.000Z</time>
      </trkpt>
      <trkpt lat="43.61325" lon="6.84801">
        <ele>175</ele>
        <time>2017-10-14T07:13:40.000Z</time>
      </trkpt>
      <trkpt lat="43.61325" lon="6.848">
        <ele>174</ele>
        <time>2017-10-14T07:13:41.000Z</time>
      </trkpt>
      <trkpt lat="43.61325" lon="6.84799">
        <ele>175</ele>
        <time>2017-10-14T07:13:42.000Z</time>
      </trkpt>
      <trkpt lat="43.61325" lon="6.84798">
        <ele>175</ele>
        <time>2017-10-14T07:13:43.000Z</time>
      </trkpt>
      <trkpt lat="43.61325" lon="6.84797">
        <ele>175</ele>
        <time>2017-10-14T07:13:44.000Z</time>
      </trkpt>
      <trkpt lat="43.61325" lon="6.84796">
        <ele>174</ele>
        <time>2017-10-14T07:13:45.000Z</time>
      </trkpt>
      <trkpt lat="43.61325" lon="6.84795">
        <ele>174</ele>
        <time>2017-10-14T07:13:46.000Z</time>
      </trkpt>
      <trkpt lat="43.61325" lon="6.84794">
        <ele>173</ele>
        <time>2017-10-14T07:13:47.000Z</time>
      </trkpt>
      <trkpt lat="43.61325" lon="6.84793">
        <ele>173</ele>
        <time>2017-10-14T07:13:48.000Z</time>
      </trkpt>
      <trkpt lat="43.61325" lon="6.84792">
        <ele>173</ele>
        <time>2017-10-14T07:13:49.000Z</time>
      </trkpt>
      <trkpt lat="43.61325" lon="6.84791">
        <ele>172</ele>
        <time>2017-10-14T07:13:50.000Z</time>
      </trkpt>
      <trkpt lat="43.61325" lon="6.8479">
        <ele>171</ele>
        <time>2017-10-14T07:13:51.000Z</time>
      </trkpt>
      <trkpt lat="43.61324" lon="6.84789">
        <ele>171</ele>
        <time>2017-10-14T07:13:52.000Z</time>
      </trkpt>
      <trkpt lat="43.61324" lon="6.84788">
        <ele>170</ele>
        <time>2017-10-14T07:13:53.000Z</time>
      </trkpt>
      <trkpt lat="43.61324" lon="6.84787">
        <ele>169</ele>
        <time>2017-10-14T07:13:54.000Z</time>
      </trkpt>
      <trkpt lat="43.61323" lon="6.84786">
        <ele>169</ele>
        <time>2017-10-14T07:13:55.000Z</time>
      </trkpt>
      <trkpt lat="43.61323" lon="6.84786">
        <ele>168</ele>
        <time>2017-10-14T07:13:56.000Z</time>
      </trkpt>
      <trkpt lat="43.61323" lon="6.84785">
        <ele>167</ele>
        <time>2017-10-14T07:13:57.000Z</time>
      </trkpt>
      <trkpt lat="43.61322" lon="6.84784">
        <ele>167</ele>
        <time>2017-10-14T07:13:58.000Z</time>
      </trkpt>
      <trkpt lat="43.61322" lon="6.84782">
        <ele>167</ele>
        <time>2017-10-14T07:13:59.000Z</time>
      </trkpt>
      <trkpt lat="43.61322" lon="6.84781">
        <ele>166</ele>
        <time>2017-10-14T07:14:00.000Z</time>
      </trkpt>
      <trkpt lat="43.61322" lon="6.8478">
        <ele>166</ele>
        <time>2017-10-14T07:14:01.000Z</time>
      </trkpt>
      <trkpt lat="43.61323" lon="6.84779">
        <ele>166</ele>
        <time>2017-10-14T07:14:02.000Z</time>
      </trkpt>
      <trkpt lat="43.61323" lon="6.84777">
        <ele>165</ele>
        <time>2017-10-14T07:14:03.000Z</time>
      </trkpt>
      <trkpt lat="43.61323" lon="6.84776">
        <ele>165</ele>
        <time>2017-10-14T07:14:04.000Z</time>
      </trkpt>
      <trkpt lat="43.61324" lon="6.84775">
        <ele>164</ele>
        <time>2017-10-14T07:14:05.000Z</time>
      </trkpt>
      <trkpt lat="43.61324" lon="6.84774">
        <ele>164</ele>
        <time>2017-10-14T07:14:06.000Z</time>
      </trkpt>
      <trkpt lat="43.61325" lon="6.84772">
        <ele>164</ele>
        <time>2017-10-14T07:14:07.000Z</time>
      </trkpt>
      <trkpt lat="43.61325" lon="6.84771">
        <ele>164</ele>
        <time>2017-10-14T07:14:08.000Z</time>
      </trkpt>
      <trkpt lat="43.61325" lon="6.84769">
        <ele>163</ele>
        <time>2017-10-14T07:14:09.000Z</time>
      </trkpt>
      <trkpt lat="43.61325" lon="6.84768">
        <ele>163</ele>
        <time>2017-10-14T07:14:10.000Z</time>
      </trkpt>
      <trkpt lat="43.61324" lon="6.84767">
        <ele>163</ele>
        <time>2017-10-14T07:14:11.000Z</time>
      </trkpt>
      <trkpt lat="43.61323" lon="6.84766">
        <ele>162</ele>
        <time>2017-10-14T07:14:12.000Z</time>
      </trkpt>
      <trkpt lat="43.61322" lon="6.84765">
        <ele>162</ele>
        <time>2017-10-14T07:14:13.000Z</time>
      </trkpt>
      <trkpt lat="43.61321" lon="6.84765">
        <ele>162</ele>
        <time>2017-10-14T07:14:14.000Z</time>
      </trkpt>
      <trkpt lat="43.61319" lon="6.84765">
        <ele>162</ele>
        <time>2017-10-14T07:14:15.000Z</time>
      </trkpt>
      <trkpt lat="43.61317" lon="6.84765">
        <ele>162</ele>
        <time>2017-10-14T07:14:16.000Z</time>
      </trkpt>
      <trkpt lat="43.61316" lon="6.84765">
        <ele>162</ele>
        <time>2017-10-14T07:14:17.000Z</time>
      </trkpt>
      <trkpt lat="43.61314" lon="6.84765">
        <ele>161</ele>
        <time>2017-10-14T07:14:18.000Z</time>
      </trkpt>
      <trkpt lat="43.61312" lon="6.84766">
        <ele>161</ele>
        <time>2017-10-14T07:14:19.000Z</time>
      </trkpt>
      <trkpt lat="43.6131" lon="6.84767">
        <ele>161</ele>
        <time>2017-10-14T07:14:20.000Z</time>
      </trkpt>
      <trkpt lat="43.61308" lon="6.84768">
        <ele>161</ele>
        <time>2017-10-14T07:14:21.000Z</time>
      </trkpt>
      <trkpt lat="43.61306" lon="6.84769">
        <ele>160</ele>
        <time>2017-10-14T07:14:22.000Z</time>
      </trkpt>
      <trkpt lat="43.61304" lon="6.8477">
        <ele>160</ele>
        <time>2017-10-14T07:14:23.000Z</time>
      </trkpt>
      <trkpt lat="43.61302" lon="6.84771">
        <ele>158</ele>
        <time>2017-10-14T07:14:24.000Z</time>
      </trkpt>
      <trkpt lat="43.61301" lon="6.84772">
        <ele>157</ele>
        <time>2017-10-14T07:14:25.000Z</time>
      </trkpt>
      <trkpt lat="43.61299" lon="6.84774">
        <ele>157</ele>
        <time>2017-10-14T07:14:26.000Z</time>
      </trkpt>
      <trkpt lat="43.61297" lon="6.84775">
        <ele>156</ele>
        <time>2017-10-14T07:14:27.000Z</time>
      </trkpt>
      <trkpt lat="43.61295" lon="6.84776">
        <ele>156</ele>
        <time>2017-10-14T07:14:28.000Z</time>
      </trkpt>
      <trkpt lat="43.61293" lon="6.84777">
        <ele>155</ele>
        <time>2017-10-14T07:14:29.000Z</time>
      </trkpt>
      <trkpt lat="43.61291" lon="6.84778">
        <ele>155</ele>
        <time>2017-10-14T07:14:30.000Z</time>
      </trkpt>
      <trkpt lat="43.61288" lon="6.8478">
        <ele>155</ele>
        <time>2017-10-14T07:14:31.000Z</time>
      </trkpt>
      <trkpt lat="43.61286" lon="6.84781">
        <ele>155</ele>
        <time>2017-10-14T07:14:32.000Z</time>
      </trkpt>
      <trkpt lat="43.61284" lon="6.84782">
        <ele>155</ele>
        <time>2017-10-14T07:14:33.000Z</time>
      </trkpt>
      <trkpt lat="43.61282" lon="6.84783">
        <ele>156</ele>
        <time>2017-10-14T07:14:34.000Z</time>
      </trkpt>
      <trkpt lat="43.61279" lon="6.84784">
        <ele>156</ele>
        <time>2017-10-14T07:14:35.000Z</time>
      </trkpt>
      <trkpt lat="43.61277" lon="6.84786">
        <ele>155</ele>
        <time>2017-10-14T07:14:36.000Z</time>
      </trkpt>
      <trkpt lat="43.61276" lon="6.84787">
        <ele>155</ele>
        <time>2017-10-14T07:14:37.000Z</time>
      </trkpt>
      <trkpt lat="43.61273" lon="6.84788">
        <ele>156</ele>
        <time>2017-10-14T07:14:38.000Z</time>
      </trkpt>
      <trkpt lat="43.61271" lon="6.84789">
        <ele>156</ele>
        <time>2017-10-14T07:14:39.000Z</time>
      </trkpt>
      <trkpt lat="43.61269" lon="6.84791">
        <ele>156</ele>
        <time>2017-10-14T07:14:40.000Z</time>
      </trkpt>
      <trkpt lat="43.61268" lon="6.84793">
        <ele>157</ele>
        <time>2017-10-14T07:14:41.000Z</time>
      </trkpt>
      <trkpt lat="43.61266" lon="6.84795">
        <ele>157</ele>
        <time>2017-10-14T07:14:42.000Z</time>
      </trkpt>
      <trkpt lat="43.61265" lon="6.84797">
        <ele>157</ele>
        <time>2017-10-14T07:14:43.000Z</time>
      </trkpt>
      <trkpt lat="43.61263" lon="6.84798">
        <ele>158</ele>
        <time>2017-10-14T07:14:44.000Z</time>
      </trkpt>
      <trkpt lat="43.61261" lon="6.84799">
        <ele>159</ele>
        <time>2017-10-14T07:14:45.000Z</time>
      </trkpt>
      <trkpt lat="43.61259" lon="6.848">
        <ele>160</ele>
        <time>2017-10-14T07:14:46.000Z</time>
      </trkpt>
      <trkpt lat="43.61257" lon="6.84802">
        <ele>160</ele>
        <time>2017-10-14T07:14:47.000Z</time>
      </trkpt>
      <trkpt lat="43.61256" lon="6.84803">
        <ele>161</ele>
        <time>2017-10-14T07:14:48.000Z</time>
      </trkpt>
      <trkpt lat="43.61254" lon="6.84805">
        <ele>161</ele>
        <time>2017-10-14T07:14:49.000Z</time>
      </trkpt>
      <trkpt lat="43.61253" lon="6.84806">
        <ele>161</ele>
        <time>2017-10-14T07:14:50.000Z</time>
      </trkpt>
      <trkpt lat="43.61251" lon="6.84807">
        <ele>162</ele>
        <time>2017-10-14T07:14:51.000Z</time>
      </trkpt>
      <trkpt lat="43.6125" lon="6.84808">
        <ele>162</ele>
        <time>2017-10-14T07:14:52.000Z</time>
      </trkpt>
      <trkpt lat="43.61249" lon="6.8481">
        <ele>162</ele>
        <time>2017-10-14T07:14:53.000Z</time>
      </trkpt>
      <trkpt lat="43.61248" lon="6.84812">
        <ele>163</ele>
        <time>2017-10-14T07:14:54.000Z</time>
      </trkpt>
      <trkpt lat="43.61246" lon="6.84814">
        <ele>163</ele>
        <time>2017-10-14T07:14:55.000Z</time>
      </trkpt>
      <trkpt lat="43.61245" lon="6.84816">
        <ele>163</ele>
        <time>2017-10-14T07:14:56.000Z</time>
      </trkpt>
      <trkpt lat="43.61243" lon="6.84818">
        <ele>164</ele>
        <time>2017-10-14T07:14:57.000Z</time>
      </trkpt>
      <trkpt lat="43.61242" lon="6.8482">
        <ele>164</ele>
        <time>2017-10-14T07:14:58.000Z</time>
      </trkpt>
      <trkpt lat="43.61241" lon="6.84822">
        <ele>164</ele>
        <time>2017-10-14T07:14:59.000Z</time>
      </trkpt>
      <trkpt lat="43.6124" lon="6.84824">
        <ele>164</ele>
        <time>2017-10-14T07:15:00.000Z</time>
      </trkpt>
      <trkpt lat="43.61238" lon="6.84826">
        <ele>164</ele>
        <time>2017-10-14T07:15:01.000Z</time>
      </trkpt>
      <trkpt lat="43.61237" lon="6.84828">
        <ele>164</ele>
        <time>2017-10-14T07:15:02.000Z</time>
      </trkpt>
      <trkpt lat="43.61236" lon="6.8483">
        <ele>165</ele>
        <time>2017-10-14T07:15:03.000Z</time>
      </trkpt>
      <trkpt lat="43.61235" lon="6.84832">
        <ele>164</ele>
        <time>2017-10-14T07:15:04.000Z</time>
      </trkpt>
      <trkpt lat="43.61233" lon="6.84834">
        <ele>164</ele>
        <time>2017-10-14T07:15:05.000Z</time>
      </trkpt>
      <trkpt lat="43.61232" lon="6.84837">
        <ele>165</ele>
        <time>2017-10-14T07:15:06.000Z</time>
      </trkpt>
      <trkpt lat="43.61231" lon="6.84839">
        <ele>165</ele>
        <time>2017-10-14T07:15:07.000Z</time>
      </trkpt>
      <trkpt lat="43.61231" lon="6.84842">
        <ele>165</ele>
        <time>2017-10-14T07:15:08.000Z</time>
      </trkpt>
      <trkpt lat="43.6123" lon="6.84844">
        <ele>165</ele>
        <time>2017-10-14T07:15:09.000Z</time>
      </trkpt>
      <trkpt lat="43.61229" lon="6.84847">
        <ele>165</ele>
        <time>2017-10-14T07:15:10.000Z</time>
      </trkpt>
      <trkpt lat="43.61228" lon="6.8485">
        <ele>165</ele>
        <time>2017-10-14T07:15:11.000Z</time>
      </trkpt>
      <trkpt lat="43.61227" lon="6.84853">
        <ele>166</ele>
        <time>2017-10-14T07:15:12.000Z</time>
      </trkpt>
      <trkpt lat="43.61226" lon="6.84855">
        <ele>167</ele>
        <time>2017-10-14T07:15:13.000Z</time>
      </trkpt>
      <trkpt lat="43.61225" lon="6.84857">
        <ele>166</ele>
        <time>2017-10-14T07:15:14.000Z</time>
      </trkpt>
      <trkpt lat="43.61223" lon="6.84859">
        <ele>166</ele>
        <time>2017-10-14T07:15:15.000Z</time>
      </trkpt>
      <trkpt lat="43.61222" lon="6.84861">
        <ele>167</ele>
        <time>2017-10-14T07:15:16.000Z</time>
      </trkpt>
      <trkpt lat="43.61221" lon="6.84862">
        <ele>166</ele>
        <time>2017-10-14T07:15:17.000Z</time>
      </trkpt>
      <trkpt lat="43.61219" lon="6.84864">
        <ele>165</ele>
        <time>2017-10-14T07:15:18.000Z</time>
      </trkpt>
      <trkpt lat="43.61217" lon="6.84866">
        <ele>165</ele>
        <time>2017-10-14T07:15:19.000Z</time>
      </trkpt>
      <trkpt lat="43.61215" lon="6.84868">
        <ele>165</ele>
        <time>2017-10-14T07:15:20.000Z</time>
      </trkpt>
      <trkpt lat="43.61213" lon="6.84869">
        <ele>164</ele>
        <time>2017-10-14T07:15:21.000Z</time>
      </trkpt>
      <trkpt lat="43.61211" lon="6.8487">
        <ele>164</ele>
        <time>2017-10-14T07:15:22.000Z</time>
      </trkpt>
      <trkpt lat="43.6121" lon="6.84871">
        <ele>164</ele>
        <time>2017-10-14T07:15:23.000Z</time>
      </trkpt>
      <trkpt lat="43.61208" lon="6.84872">
        <ele>165</ele>
        <time>2017-10-14T07:15:24.000Z</time>
      </trkpt>
      <trkpt lat="43.61206" lon="6.84873">
        <ele>165</ele>
        <time>2017-10-14T07:15:25.000Z</time>
      </trkpt>
      <trkpt lat="43.61204" lon="6.84874">
        <ele>166</ele>
        <time>2017-10-14T07:15:26.000Z</time>
      </trkpt>
      <trkpt lat="43.61202" lon="6.84874">
        <ele>166</ele>
        <time>2017-10-14T07:15:27.000Z</time>
      </trkpt>
      <trkpt lat="43.612" lon="6.84875">
        <ele>166</ele>
        <time>2017-10-14T07:15:28.000Z</time>
      </trkpt>
      <trkpt lat="43.61198" lon="6.84876">
        <ele>166</ele>
        <time>2017-10-14T07:15:29.000Z</time>
      </trkpt>
      <trkpt lat="43.61196" lon="6.84876">
        <ele>167</ele>
        <time>2017-10-14T07:15:30.000Z</time>
      </trkpt>
      <trkpt lat="43.61193" lon="6.84877">
        <ele>167</ele>
        <time>2017-10-14T07:15:31.000Z</time>
      </trkpt>
      <trkpt lat="43.61191" lon="6.84877">
        <ele>168</ele>
        <time>2017-10-14T07:15:32.000Z</time>
      </trkpt>
      <trkpt lat="43.61189" lon="6.84877">
        <ele>168</ele>
        <time>2017-10-14T07:15:33.000Z</time>
      </trkpt>
      <trkpt lat="43.61187" lon="6.84878">
        <ele>168</ele>
        <time>2017-10-14T07:15:34.000Z</time>
      </trkpt>
      <trkpt lat="43.61185" lon="6.84878">
        <ele>168</ele>
        <time>2017-10-14T07:15:35.000Z</time>
      </trkpt>
      <trkpt lat="43.61183" lon="6.84878">
        <ele>168</ele>
        <time>2017-10-14T07:15:36.000Z</time>
      </trkpt>
      <trkpt lat="43.61181" lon="6.84879">
        <ele>169</ele>
        <time>2017-10-14T07:15:37.000Z</time>
      </trkpt>
      <trkpt lat="43.61179" lon="6.84879">
        <ele>169</ele>
        <time>2017-10-14T07:15:38.000Z</time>
      </trkpt>
      <trkpt lat="43.61177" lon="6.84879">
        <ele>168</ele>
        <time>2017-10-14T07:15:39.000Z</time>
      </trkpt>
      <trkpt lat="43.61175" lon="6.84879">
        <ele>168</ele>
        <time>2017-10-14T07:15:40.000Z</time>
      </trkpt>
      <trkpt lat="43.61173" lon="6.84879">
        <ele>168</ele>
        <time>2017-10-14T07:15:41.000Z</time>
      </trkpt>
      <trkpt lat="43.61171" lon="6.84879">
        <ele>168</ele>
        <time>2017-10-14T07:15:42.000Z</time>
      </trkpt>
      <trkpt lat="43.61169" lon="6.8488">
        <ele>167</ele>
        <time>2017-10-14T07:15:43.000Z</time>
      </trkpt>
      <trkpt lat="43.61167" lon="6.84879">
        <ele>168</ele>
        <time>2017-10-14T07:15:44.000Z</time>
      </trkpt>
      <trkpt lat="43.61165" lon="6.84879">
        <ele>168</ele>
        <time>2017-10-14T07:15:45.000Z</time>
      </trkpt>
      <trkpt lat="43.61163" lon="6.84879">
        <ele>168</ele>
        <time>2017-10-14T07:15:46.000Z</time>
      </trkpt>
      <trkpt lat="43.61161" lon="6.84879">
        <ele>168</ele>
        <time>2017-10-14T07:15:47.000Z</time>
      </trkpt>
      <trkpt lat="43.61159" lon="6.84879">
        <ele>167</ele>
        <time>2017-10-14T07:15:48.000Z</time>
      </trkpt>
      <trkpt lat="43.61157" lon="6.84878">
        <ele>167</ele>
        <time>2017-10-14T07:15:49.000Z</time>
      </trkpt>
      <trkpt lat="43.61155" lon="6.84878">
        <ele>167</ele>
        <time>2017-10-14T07:15:50.000Z</time>
      </trkpt>
      <trkpt lat="43.61153" lon="6.84877">
        <ele>166</ele>
        <time>2017-10-14T07:15:51.000Z</time>
      </trkpt>
      <trkpt lat="43.61152" lon="6.84876">
        <ele>166</ele>
        <time>2017-10-14T07:15:52.000Z</time>
      </trkpt>
      <trkpt lat="43.6115" lon="6.84876">
        <ele>166</ele>
        <time>2017-10-14T07:15:53.000Z</time>
      </trkpt>
      <trkpt lat="43.61148" lon="6.84875">
        <ele>166</ele>
        <time>2017-10-14T07:15:54.000Z</time>
      </trkpt>
      <trkpt lat="43.61146" lon="6.84875">
        <ele>166</ele>
        <time>2017-10-14T07:15:55.000Z</time>
      </trkpt>
      <trkpt lat="43.61144" lon="6.84875">
        <ele>166</ele>
        <time>2017-10-14T07:15:56.000Z</time>
      </trkpt>
      <trkpt lat="43.61142" lon="6.84876">
        <ele>166</ele>
        <time>2017-10-14T07:15:57.000Z</time>
      </trkpt>
      <trkpt lat="43.6114" lon="6.84877">
        <ele>167</ele>
        <time>2017-10-14T07:15:58.000Z</time>
      </trkpt>
      <trkpt lat="43.61138" lon="6.84878">
        <ele>166</ele>
        <time>2017-10-14T07:15:59.000Z</time>
      </trkpt>
      <trkpt lat="43.61136" lon="6.84879">
        <ele>166</ele>
        <time>2017-10-14T07:16:00.000Z</time>
      </trkpt>
      <trkpt lat="43.61135" lon="6.84881">
        <ele>166</ele>
        <time>2017-10-14T07:16:01.000Z</time>
      </trkpt>
      <trkpt lat="43.61133" lon="6.84882">
        <ele>167</ele>
        <time>2017-10-14T07:16:02.000Z</time>
      </trkpt>
      <trkpt lat="43.61131" lon="6.84883">
        <ele>167</ele>
        <time>2017-10-14T07:16:03.000Z</time>
      </trkpt>
      <trkpt lat="43.61129" lon="6.84885">
        <ele>168</ele>
        <time>2017-10-14T07:16:04.000Z</time>
      </trkpt>
      <trkpt lat="43.61127" lon="6.84886">
        <ele>168</ele>
        <time>2017-10-14T07:16:05.000Z</time>
      </trkpt>
      <trkpt lat="43.61126" lon="6.84887">
        <ele>168</ele>
        <time>2017-10-14T07:16:06.000Z</time>
      </trkpt>
      <trkpt lat="43.61124" lon="6.84888">
        <ele>168</ele>
        <time>2017-10-14T07:16:07.000Z</time>
      </trkpt>
      <trkpt lat="43.61123" lon="6.8489">
        <ele>167</ele>
        <time>2017-10-14T07:16:08.000Z</time>
      </trkpt>
      <trkpt lat="43.61121" lon="6.84891">
        <ele>167</ele>
        <time>2017-10-14T07:16:09.000Z</time>
      </trkpt>
      <trkpt lat="43.6112" lon="6.84893">
        <ele>167</ele>
        <time>2017-10-14T07:16:10.000Z</time>
      </trkpt>
      <trkpt lat="43.61119" lon="6.84894">
        <ele>167</ele>
        <time>2017-10-14T07:16:11.000Z</time>
      </trkpt>
      <trkpt lat="43.61117" lon="6.84896">
        <ele>167</ele>
        <time>2017-10-14T07:16:12.000Z</time>
      </trkpt>
      <trkpt lat="43.61116" lon="6.84898">
        <ele>168</ele>
        <time>2017-10-14T07:16:13.000Z</time>
      </trkpt>
      <trkpt lat="43.61115" lon="6.849">
        <ele>167</ele>
        <time>2017-10-14T07:16:14.000Z</time>
      </trkpt>
      <trkpt lat="43.61114" lon="6.84902">
        <ele>167</ele>
        <time>2017-10-14T07:16:15.000Z</time>
      </trkpt>
      <trkpt lat="43.61113" lon="6.84904">
        <ele>168</ele>
        <time>2017-10-14T07:16:16.000Z</time>
      </trkpt>
      <trkpt lat="43.61112" lon="6.84906">
        <ele>169</ele>
        <time>2017-10-14T07:16:17.000Z</time>
      </trkpt>
      <trkpt lat="43.61111" lon="6.84909">
        <ele>169</ele>
        <time>2017-10-14T07:16:18.000Z</time>
      </trkpt>
      <trkpt lat="43.6111" lon="6.84911">
        <ele>170</ele>
        <time>2017-10-14T07:16:19.000Z</time>
      </trkpt>
      <trkpt lat="43.61109" lon="6.84914">
        <ele>170</ele>
        <time>2017-10-14T07:16:20.000Z</time>
      </trkpt>
      <trkpt lat="43.61109" lon="6.84917">
        <ele>170</ele>
        <time>2017-10-14T07:16:21.000Z</time>
      </trkpt>
      <trkpt lat="43.61108" lon="6.8492">
        <ele>170</ele>
        <time>2017-10-14T07:16:22.000Z</time>
      </trkpt>
      <trkpt lat="43.61108" lon="6.84922">
        <ele>171</ele>
        <time>2017-10-14T07:16:23.000Z</time>
      </trkpt>
      <trkpt lat="43.61108" lon="6.84925">
        <ele>171</ele>
        <time>2017-10-14T07:16:24.000Z</time>
      </trkpt>
      <trkpt lat="43.61108" lon="6.84927">
        <ele>171</ele>
        <time>2017-10-14T07:16:25.000Z</time>
      </trkpt>
      <trkpt lat="43.61108" lon="6.84928">
        <ele>172</ele>
        <time>2017-10-14T07:16:26.000Z</time>
      </trkpt>
      <trkpt lat="43.61109" lon="6.84929">
        <ele>172</ele>
        <time>2017-10-14T07:16:27.000Z</time>
      </trkpt>
      <trkpt lat="43.6111" lon="6.8493">
        <ele>173</ele>
        <time>2017-10-14T07:16:28.000Z</time>
      </trkpt>
      <trkpt lat="43.61111" lon="6.8493">
        <ele>173</ele>
        <time>2017-10-14T07:16:29.000Z</time>
      </trkpt>
      <trkpt lat="43.61111" lon="6.8493">
        <ele>174</ele>
        <time>2017-10-14T07:16:30.000Z</time>
      </trkpt>
      <trkpt lat="43.61112" lon="6.84929">
        <ele>174</ele>
        <time>2017-10-14T07:16:31.000Z</time>
      </trkpt>
      <trkpt lat="43.61113" lon="6.84929">
        <ele>174</ele>
        <time>2017-10-14T07:16:32.000Z</time>
      </trkpt>
      <trkpt lat="43.61114" lon="6.84929">
        <ele>175</ele>
        <time>2017-10-14T07:16:33.000Z</time>
      </trkpt>
      <trkpt lat="43.61115" lon="6.84928">
        <ele>176</ele>
        <time>2017-10-14T07:16:34.000Z</time>
      </trkpt>
      <trkpt lat="43.61116" lon="6.84928">
        <ele>176</ele>
        <time>2017-10-14T07:16:35.000Z</time>
      </trkpt>
      <trkpt lat="43.61117" lon="6.84928">
        <ele>177</ele>
        <time>2017-10-14T07:16:36.000Z</time>
      </trkpt>
      <trkpt lat="43.61118" lon="6.84928">
        <ele>177</ele>
        <time>2017-10-14T07:16:37.000Z</time>
      </trkpt>
      <trkpt lat="43.61119" lon="6.84928">
        <ele>177</ele>
        <time>2017-10-14T07:16:38.000Z</time>
      </trkpt>
      <trkpt lat="43.6112" lon="6.84929">
        <ele>177</ele>
        <time>2017-10-14T07:16:39.000Z</time>
      </trkpt>
      <trkpt lat="43.61121" lon="6.84929">
        <ele>177</ele>
        <time>2017-10-14T07:16:40.000Z</time>
      </trkpt>
      <trkpt lat="43.61122" lon="6.84929">
        <ele>178</ele>
        <time>2017-10-14T07:16:41.000Z</time>
      </trkpt>
      <trkpt lat="43.61123" lon="6.8493">
        <ele>178</ele>
        <time>2017-10-14T07:16:42.000Z</time>
      </trkpt>
      <trkpt lat="43.61124" lon="6.8493">
        <ele>178</ele>
        <time>2017-10-14T07:16:43.000Z</time>
      </trkpt>
      <trkpt lat="43.61124" lon="6.84931">
        <ele>178</ele>
        <time>2017-10-14T07:16:44.000Z</time>
      </trkpt>
      <trkpt lat="43.61125" lon="6.84931">
        <ele>179</ele>
        <time>2017-10-14T07:16:45.000Z</time>
      </trkpt>
      <trkpt lat="43.61126" lon="6.84932">
        <ele>179</ele>
        <time>2017-10-14T07:16:46.000Z</time>
      </trkpt>
      <trkpt lat="43.61127" lon="6.84933">
        <ele>179</ele>
        <time>2017-10-14T07:16:47.000Z</time>
      </trkpt>
      <trkpt lat="43.61128" lon="6.84934">
        <ele>179</ele>
        <time>2017-10-14T07:16:48.000Z</time>
      </trkpt>
      <trkpt lat="43.61129" lon="6.84934">
        <ele>179</ele>
        <time>2017-10-14T07:16:49.000Z</time>
      </trkpt>
      <trkpt lat="43.6113" lon="6.84935">
        <ele>180</ele>
        <time>2017-10-14T07:16:50.000Z</time>
      </trkpt>
      <trkpt lat="43.61131" lon="6.84936">
        <ele>181</ele>
        <time>2017-10-14T07:16:51.000Z</time>
      </trkpt>
      <trkpt lat="43.61133" lon="6.84937">
        <ele>181</ele>
        <time>2017-10-14T07:16:52.000Z</time>
      </trkpt>
      <trkpt lat="43.61133" lon="6.84937">
        <ele>181</ele>
        <time>2017-10-14T07:16:53.000Z</time>
      </trkpt>
      <trkpt lat="43.61134" lon="6.84938">
        <ele>181</ele>
        <time>2017-10-14T07:16:54.000Z</time>
      </trkpt>
      <trkpt lat="43.61135" lon="6.84939">
        <ele>182</ele>
        <time>2017-10-14T07:16:55.000Z</time>
      </trkpt>
      <trkpt lat="43.61136" lon="6.84939">
        <ele>182</ele>
        <time>2017-10-14T07:16:56.000Z</time>
      </trkpt>
      <trkpt lat="43.61137" lon="6.8494">
        <ele>183</ele>
        <time>2017-10-14T07:16:57.000Z</time>
      </trkpt>
      <trkpt lat="43.61137" lon="6.84941">
        <ele>183</ele>
        <time>2017-10-14T07:16:58.000Z</time>
      </trkpt>
      <trkpt lat="43.61138" lon="6.84942">
        <ele>184</ele>
        <time>2017-10-14T07:16:59.000Z</time>
      </trkpt>
      <trkpt lat="43.6114" lon="6.84943">
        <ele>184</ele>
        <time>2017-10-14T07:17:00.000Z</time>
      </trkpt>
      <trkpt lat="43.6114" lon="6.84944">
        <ele>184</ele>
        <time>2017-10-14T07:17:01.000Z</time>
      </trkpt>
      <trkpt lat="43.61141" lon="6.84945">
        <ele>184</ele>
        <time>2017-10-14T07:17:02.000Z</time>
      </trkpt>
      <trkpt lat="43.61142" lon="6.84945">
        <ele>185</ele>
        <time>2017-10-14T07:17:03.000Z</time>
      </trkpt>
      <trkpt lat="43.61143" lon="6.84946">
        <ele>185</ele>
        <time>2017-10-14T07:17:04.000Z</time>
      </trkpt>
      <trkpt lat="43.61144" lon="6.84947">
        <ele>185</ele>
        <time>2017-10-14T07:17:05.000Z</time>
      </trkpt>
      <trkpt lat="43.61145" lon="6.84948">
        <ele>186</ele>
        <time>2017-10-14T07:17:06.000Z</time>
      </trkpt>
      <trkpt lat="43.61146" lon="6.84949">
        <ele>186</ele>
        <time>2017-10-14T07:17:07.000Z</time>
      </trkpt>
      <trkpt lat="43.61147" lon="6.84949">
        <ele>186</ele>
        <time>2017-10-14T07:17:08.000Z</time>
      </trkpt>
      <trkpt lat="43.61147" lon="6.8495">
        <ele>187</ele>
        <time>2017-10-14T07:17:09.000Z</time>
      </trkpt>
      <trkpt lat="43.61148" lon="6.84951">
        <ele>187</ele>
        <time>2017-10-14T07:17:10.000Z</time>
      </trkpt>
      <trkpt lat="43.61149" lon="6.84951">
        <ele>187</ele>
        <time>2017-10-14T07:17:11.000Z</time>
      </trkpt>
      <trkpt lat="43.6115" lon="6.84952">
        <ele>187</ele>
        <time>2017-10-14T07:17:12.000Z</time>
      </trkpt>
      <trkpt lat="43.61151" lon="6.84953">
        <ele>187</ele>
        <time>2017-10-14T07:17:13.000Z</time>
      </trkpt>
      <trkpt lat="43.61152" lon="6.84954">
        <ele>187</ele>
        <time>2017-10-14T07:17:14.000Z</time>
      </trkpt>
      <trkpt lat="43.61153" lon="6.84955">
        <ele>187</ele>
        <time>2017-10-14T07:17:15.000Z</time>
      </trkpt>
      <trkpt lat="43.61153" lon="6.84956">
        <ele>188</ele>
        <time>2017-10-14T07:17:16.000Z</time>
      </trkpt>
      <trkpt lat="43.61154" lon="6.84956">
        <ele>188</ele>
        <time>2017-10-14T07:17:17.000Z</time>
      </trkpt>
      <trkpt lat="43.61155" lon="6.84957">
        <ele>188</ele>
        <time>2017-10-14T07:17:18.000Z</time>
      </trkpt>
      <trkpt lat="43.61156" lon="6.84958">
        <ele>189</ele>
        <time>2017-10-14T07:17:19.000Z</time>
      </trkpt>
      <trkpt lat="43.61157" lon="6.84959">
        <ele>189</ele>
        <time>2017-10-14T07:17:20.000Z</time>
      </trkpt>
      <trkpt lat="43.61158" lon="6.8496">
        <ele>190</ele>
        <time>2017-10-14T07:17:21.000Z</time>
      </trkpt>
      <trkpt lat="43.61158" lon="6.8496">
        <ele>190</ele>
        <time>2017-10-14T07:17:22.000Z</time>
      </trkpt>
      <trkpt lat="43.61159" lon="6.84961">
        <ele>190</ele>
        <time>2017-10-14T07:17:23.000Z</time>
      </trkpt>
      <trkpt lat="43.6116" lon="6.84962">
        <ele>190</ele>
        <time>2017-10-14T07:17:24.000Z</time>
      </trkpt>
      <trkpt lat="43.61161" lon="6.84962">
        <ele>190</ele>
        <time>2017-10-14T07:17:25.000Z</time>
      </trkpt>
      <trkpt lat="43.61162" lon="6.84963">
        <ele>191</ele>
        <time>2017-10-14T07:17:26.000Z</time>
      </trkpt>
      <trkpt lat="43.61162" lon="6.84964">
        <ele>191</ele>
        <time>2017-10-14T07:17:27.000Z</time>
      </trkpt>
      <trkpt lat="43.61163" lon="6.84965">
        <ele>192</ele>
        <time>2017-10-14T07:17:28.000Z</time>
      </trkpt>
      <trkpt lat="43.61165" lon="6.84965">
        <ele>192</ele>
        <time>2017-10-14T07:17:29.000Z</time>
      </trkpt>
      <trkpt lat="43.61166" lon="6.84966">
        <ele>191</ele>
        <time>2017-10-14T07:17:30.000Z</time>
      </trkpt>
      <trkpt lat="43.61166" lon="6.84967">
        <ele>191</ele>
        <time>2017-10-14T07:17:31.000Z</time>
      </trkpt>
      <trkpt lat="43.61167" lon="6.84967">
        <ele>192</ele>
        <time>2017-10-14T07:17:32.000Z</time>
      </trkpt>
      <trkpt lat="43.61168" lon="6.84968">
        <ele>192</ele>
        <time>2017-10-14T07:17:33.000Z</time>
      </trkpt>
      <trkpt lat="43.61169" lon="6.84969">
        <ele>192</ele>
        <time>2017-10-14T07:17:34.000Z</time>
      </trkpt>
      <trkpt lat="43.6117" lon="6.8497">
        <ele>192</ele>
        <time>2017-10-14T07:17:35.000Z</time>
      </trkpt>
      <trkpt lat="43.61171" lon="6.84971">
        <ele>193</ele>
        <time>2017-10-14T07:17:36.000Z</time>
      </trkpt>
      <trkpt lat="43.61172" lon="6.84972">
        <ele>193</ele>
        <time>2017-10-14T07:17:37.000Z</time>
      </trkpt>
      <trkpt lat="43.61173" lon="6.84973">
        <ele>193</ele>
        <time>2017-10-14T07:17:38.000Z</time>
      </trkpt>
      <trkpt lat="43.61174" lon="6.84974">
        <ele>193</ele>
        <time>2017-10-14T07:17:39.000Z</time>
      </trkpt>
      <trkpt lat="43.61174" lon="6.84975">
        <ele>193</ele>
        <time>2017-10-14T07:17:40.000Z</time>
      </trkpt>
      <trkpt lat="43.61175" lon="6.84976">
        <ele>193</ele>
        <time>2017-10-14T07:17:41.000Z</time>
      </trkpt>
      <trkpt lat="43.61176" lon="6.84977">
        <ele>193</ele>
        <time>2017-10-14T07:17:42.000Z</time>
      </trkpt>
      <trkpt lat="43.61177" lon="6.84978">
        <ele>193</ele>
        <time>2017-10-14T07:17:43.000Z</time>
      </trkpt>
      <trkpt lat="43.61178" lon="6.84979">
        <ele>193</ele>
        <time>2017-10-14T07:17:44.000Z</time>
      </trkpt>
      <trkpt lat="43.61178" lon="6.8498">
        <ele>193</ele>
        <time>2017-10-14T07:17:45.000Z</time>
      </trkpt>
      <trkpt lat="43.61179" lon="6.84981">
        <ele>193</ele>
        <time>2017-10-14T07:17:46.000Z</time>
      </trkpt>
      <trkpt lat="43.6118" lon="6.84982">
        <ele>193</ele>
        <time>2017-10-14T07:17:47.000Z</time>
      </trkpt>
      <trkpt lat="43.61181" lon="6.84983">
        <ele>194</ele>
        <time>2017-10-14T07:17:48.000Z</time>
      </trkpt>
      <trkpt lat="43.61181" lon="6.84984">
        <ele>194</ele>
        <time>2017-10-14T07:17:49.000Z</time>
      </trkpt>
      <trkpt lat="43.61182" lon="6.84986">
        <ele>194</ele>
        <time>2017-10-14T07:17:50.000Z</time>
      </trkpt>
      <trkpt lat="43.61182" lon="6.84987">
        <ele>194</ele>
        <time>2017-10-14T07:17:51.000Z</time>
      </trkpt>
      <trkpt lat="43.61183" lon="6.84988">
        <ele>194</ele>
        <time>2017-10-14T07:17:52.000Z</time>
      </trkpt>
      <trkpt lat="43.61183" lon="6.84989">
        <ele>195</ele>
        <time>2017-10-14T07:17:53.000Z</time>
      </trkpt>
      <trkpt lat="43.61184" lon="6.84991">
        <ele>195</ele>
        <time>2017-10-14T07:17:54.000Z</time>
      </trkpt>
      <trkpt lat="43.61185" lon="6.84992">
        <ele>195</ele>
        <time>2017-10-14T07:17:55.000Z</time>
      </trkpt>
      <trkpt lat="43.61185" lon="6.84993">
        <ele>196</ele>
        <time>2017-10-14T07:17:56.000Z</time>
      </trkpt>
      <trkpt lat="43.61186" lon="6.84994">
        <ele>196</ele>
        <time>2017-10-14T07:17:57.000Z</time>
      </trkpt>
      <trkpt lat="43.61187" lon="6.84995">
        <ele>196</ele>
        <time>2017-10-14T07:17:58.000Z</time>
      </trkpt>
      <trkpt lat="43.61188" lon="6.84996">
        <ele>197</ele>
        <time>2017-10-14T07:17:59.000Z</time>
      </trkpt>
      <trkpt lat="43.61189" lon="6.84997">
        <ele>197</ele>
        <time>2017-10-14T07:18:00.000Z</time>
      </trkpt>
      <trkpt lat="43.6119" lon="6.84998">
        <ele>198</ele>
        <time>2017-10-14T07:18:01.000Z</time>
      </trkpt>
      <trkpt lat="43.61191" lon="6.84999">
        <ele>198</ele>
        <time>2017-10-14T07:18:02.000Z</time>
      </trkpt>
      <trkpt lat="43.61193" lon="6.84999">
        <ele>198</ele>
        <time>2017-10-14T07:18:03.000Z</time>
      </trkpt>
      <trkpt lat="43.61194" lon="6.85">
        <ele>199</ele>
        <time>2017-10-14T07:18:04.000Z</time>
      </trkpt>
      <trkpt lat="43.61195" lon="6.85001">
        <ele>199</ele>
        <time>2017-10-14T07:18:05.000Z</time>
      </trkpt>
      <trkpt lat="43.61196" lon="6.85002">
        <ele>199</ele>
        <time>2017-10-14T07:18:06.000Z</time>
      </trkpt>
      <trkpt lat="43.61197" lon="6.85003">
        <ele>200</ele>
        <time>2017-10-14T07:18:07.000Z</time>
      </trkpt>
      <trkpt lat="43.61198" lon="6.85004">
        <ele>200</ele>
        <time>2017-10-14T07:18:08.000Z</time>
      </trkpt>
      <trkpt lat="43.61199" lon="6.85005">
        <ele>200</ele>
        <time>2017-10-14T07:18:09.000Z</time>
      </trkpt>
      <trkpt lat="43.612" lon="6.85006">
        <ele>200</ele>
        <time>2017-10-14T07:18:10.000Z</time>
      </trkpt>
      <trkpt lat="43.61201" lon="6.85007">
        <ele>201</ele>
        <time>2017-10-14T07:18:11.000Z</time>
      </trkpt>
      <trkpt lat="43.61202" lon="6.85008">
        <ele>201</ele>
        <time>2017-10-14T07:18:12.000Z</time>
      </trkpt>
      <trkpt lat="43.61203" lon="6.85009">
        <ele>202</ele>
        <time>2017-10-14T07:18:13.000Z</time>
      </trkpt>
      <trkpt lat="43.61204" lon="6.8501">
        <ele>202</ele>
        <time>2017-10-14T07:18:14.000Z</time>
      </trkpt>
      <trkpt lat="43.61205" lon="6.85011">
        <ele>202</ele>
        <time>2017-10-14T07:18:15.000Z</time>
      </trkpt>
      <trkpt lat="43.61206" lon="6.85012">
        <ele>203</ele>
        <time>2017-10-14T07:18:16.000Z</time>
      </trkpt>
      <trkpt lat="43.61207" lon="6.85013">
        <ele>203</ele>
        <time>2017-10-14T07:18:17.000Z</time>
      </trkpt>
      <trkpt lat="43.61208" lon="6.85014">
        <ele>203</ele>
        <time>2017-10-14T07:18:18.000Z</time>
      </trkpt>
      <trkpt lat="43.61209" lon="6.85015">
        <ele>203</ele>
        <time>2017-10-14T07:18:19.000Z</time>
      </trkpt>
      <trkpt lat="43.61209" lon="6.85016">
        <ele>203</ele>
        <time>2017-10-14T07:18:20.000Z</time>
      </trkpt>
      <trkpt lat="43.6121" lon="6.85017">
        <ele>203</ele>
        <time>2017-10-14T07:18:21.000Z</time>
      </trkpt>
      <trkpt lat="43.61211" lon="6.85018">
        <ele>204</ele>
        <time>2017-10-14T07:18:22.000Z</time>
      </trkpt>
      <trkpt lat="43.61212" lon="6.85019">
        <ele>204</ele>
        <time>2017-10-14T07:18:23.000Z</time>
      </trkpt>
      <trkpt lat="43.61213" lon="6.85019">
        <ele>204</ele>
        <time>2017-10-14T07:18:24.000Z</time>
      </trkpt>
      <trkpt lat="43.61214" lon="6.8502">
        <ele>204</ele>
        <time>2017-10-14T07:18:25.000Z</time>
      </trkpt>
      <trkpt lat="43.61215" lon="6.85021">
        <ele>205</ele>
        <time>2017-10-14T07:18:26.000Z</time>
      </trkpt>
      <trkpt lat="43.61216" lon="6.85022">
        <ele>205</ele>
        <time>2017-10-14T07:18:27.000Z</time>
      </trkpt>
      <trkpt lat="43.61217" lon="6.85023">
        <ele>205</ele>
        <time>2017-10-14T07:18:28.000Z</time>
      </trkpt>
      <trkpt lat="43.61218" lon="6.85024">
        <ele>205</ele>
        <time>2017-10-14T07:18:29.000Z</time>
      </trkpt>
      <trkpt lat="43.61218" lon="6.85025">
        <ele>206</ele>
        <time>2017-10-14T07:18:30.000Z</time>
      </trkpt>
      <trkpt lat="43.61219" lon="6.85026">
        <ele>206</ele>
        <time>2017-10-14T07:18:31.000Z</time>
      </trkpt>
      <trkpt lat="43.6122" lon="6.85027">
        <ele>206</ele>
        <time>2017-10-14T07:18:32.000Z</time>
      </trkpt>
      <trkpt lat="43.6122" lon="6.85028">
        <ele>206</ele>
        <time>2017-10-14T07:18:33.000Z</time>
      </trkpt>
      <trkpt lat="43.61221" lon="6.85029">
        <ele>207</ele>
        <time>2017-10-14T07:18:34.000Z</time>
      </trkpt>
      <trkpt lat="43.61222" lon="6.8503">
        <ele>207</ele>
        <time>2017-10-14T07:18:35.000Z</time>
      </trkpt>
      <trkpt lat="43.61223" lon="6.85031">
        <ele>207</ele>
        <time>2017-10-14T07:18:36.000Z</time>
      </trkpt>
      <trkpt lat="43.61223" lon="6.85032">
        <ele>207</ele>
        <time>2017-10-14T07:18:37.000Z</time>
      </trkpt>
      <trkpt lat="43.61224" lon="6.85033">
        <ele>208</ele>
        <time>2017-10-14T07:18:38.000Z</time>
      </trkpt>
      <trkpt lat="43.61225" lon="6.85034">
        <ele>208</ele>
        <time>2017-10-14T07:18:39.000Z</time>
      </trkpt>
      <trkpt lat="43.61226" lon="6.85035">
        <ele>208</ele>
        <time>2017-10-14T07:18:40.000Z</time>
      </trkpt>
      <trkpt lat="43.61227" lon="6.85036">
        <ele>208</ele>
        <time>2017-10-14T07:18:41.000Z</time>
      </trkpt>
      <trkpt lat="43.61228" lon="6.85037">
        <ele>209</ele>
        <time>2017-10-14T07:18:42.000Z</time>
      </trkpt>
      <trkpt lat="43.61229" lon="6.85039">
        <ele>209</ele>
        <time>2017-10-14T07:18:43.000Z</time>
      </trkpt>
      <trkpt lat="43.61229" lon="6.8504">
        <ele>209</ele>
        <time>2017-10-14T07:18:44.000Z</time>
      </trkpt>
      <trkpt lat="43.6123" lon="6.85041">
        <ele>209</ele>
        <time>2017-10-14T07:18:45.000Z</time>
      </trkpt>
      <trkpt lat="43.6123" lon="6.85042">
        <ele>209</ele>
        <time>2017-10-14T07:18:46.000Z</time>
      </trkpt>
      <trkpt lat="43.61231" lon="6.85043">
        <ele>209</ele>
        <time>2017-10-14T07:18:47.000Z</time>
      </trkpt>
      <trkpt lat="43.61232" lon="6.85044">
        <ele>209</ele>
        <time>2017-10-14T07:18:48.000Z</time>
      </trkpt>
      <trkpt lat="43.61232" lon="6.85045">
        <ele>210</ele>
        <time>2017-10-14T07:18:49.000Z</time>
      </trkpt>
      <trkpt lat="43.61233" lon="6.85045">
        <ele>210</ele>
        <time>2017-10-14T07:18:50.000Z</time>
      </trkpt>
      <trkpt lat="43.61234" lon="6.85046">
        <ele>210</ele>
        <time>2017-10-14T07:18:51.000Z</time>
      </trkpt>
      <trkpt lat="43.61235" lon="6.85047">
        <ele>211</ele>
        <time>2017-10-14T07:18:52.000Z</time>
      </trkpt>
      <trkpt lat="43.61235" lon="6.85047">
        <ele>210</ele>
        <time>2017-10-14T07:18:53.000Z</time>
      </trkpt>
      <trkpt lat="43.61236" lon="6.85048">
        <ele>211</ele>
        <time>2017-10-14T07:18:54.000Z</time>
      </trkpt>
      <trkpt lat="43.61237" lon="6.85049">
        <ele>211</ele>
        <time>2017-10-14T07:18:55.000Z</time>
      </trkpt>
      <trkpt lat="43.61237" lon="6.85049">
        <ele>211</ele>
        <time>2017-10-14T07:18:56.000Z</time>
      </trkpt>
      <trkpt lat="43.61238" lon="6.8505">
        <ele>211</ele>
        <time>2017-10-14T07:18:57.000Z</time>
      </trkpt>
      <trkpt lat="43.61239" lon="6.85051">
        <ele>211</ele>
        <time>2017-10-14T07:18:58.000Z</time>
      </trkpt>
      <trkpt lat="43.6124" lon="6.85051">
        <ele>212</ele>
        <time>2017-10-14T07:18:59.000Z</time>
      </trkpt>
      <trkpt lat="43.61241" lon="6.85051">
        <ele>212</ele>
        <time>2017-10-14T07:19:00.000Z</time>
      </trkpt>
      <trkpt lat="43.61241" lon="6.85051">
        <ele>211</ele>
        <time>2017-10-14T07:19:01.000Z</time>
      </trkpt>
      <trkpt lat="43.61242" lon="6.85051">
        <ele>210</ele>
        <time>2017-10-14T07:19:02.000Z</time>
      </trkpt>
      <trkpt lat="43.61244" lon="6.8505">
        <ele>211</ele>
        <time>2017-10-14T07:19:03.000Z</time>
      </trkpt>
      <trkpt lat="43.61245" lon="6.85049">
        <ele>211</ele>
        <time>2017-10-14T07:19:04.000Z</time>
      </trkpt>
      <trkpt lat="43.61247" lon="6.85048">
        <ele>211</ele>
        <time>2017-10-14T07:19:05.000Z</time>
      </trkpt>
      <trkpt lat="43.61248" lon="6.85047">
        <ele>211</ele>
        <time>2017-10-14T07:19:06.000Z</time>
      </trkpt>
      <trkpt lat="43.61249" lon="6.85047">
        <ele>211</ele>
        <time>2017-10-14T07:19:07.000Z</time>
      </trkpt>
      <trkpt lat="43.6125" lon="6.85046">
        <ele>210</ele>
        <time>2017-10-14T07:19:08.000Z</time>
      </trkpt>
      <trkpt lat="43.61251" lon="6.85045">
        <ele>210</ele>
        <time>2017-10-14T07:19:09.000Z</time>
      </trkpt>
      <trkpt lat="43.61252" lon="6.85044">
        <ele>210</ele>
        <time>2017-10-14T07:19:10.000Z</time>
      </trkpt>
      <trkpt lat="43.61253" lon="6.85043">
        <ele>210</ele>
        <time>2017-10-14T07:19:11.000Z</time>
      </trkpt>
      <trkpt lat="43.61254" lon="6.85042">
        <ele>210</ele>
        <time>2017-10-14T07:19:12.000Z</time>
      </trkpt>
      <trkpt lat="43.61254" lon="6.85041">
        <ele>209</ele>
        <time>2017-10-14T07:19:13.000Z</time>
      </trkpt>
      <trkpt lat="43.61255" lon="6.8504">
        <ele>209</ele>
        <time>2017-10-14T07:19:14.000Z</time>
      </trkpt>
      <trkpt lat="43.61256" lon="6.85039">
        <ele>209</ele>
        <time>2017-10-14T07:19:15.000Z</time>
      </trkpt>
      <trkpt lat="43.61257" lon="6.85038">
        <ele>210</ele>
        <time>2017-10-14T07:19:16.000Z</time>
      </trkpt>
      <trkpt lat="43.61258" lon="6.85037">
        <ele>210</ele>
        <time>2017-10-14T07:19:17.000Z</time>
      </trkpt>
      <trkpt lat="43.61259" lon="6.85036">
        <ele>210</ele>
        <time>2017-10-14T07:19:18.000Z</time>
      </trkpt>
      <trkpt lat="43.6126" lon="6.85035">
        <ele>211</ele>
        <time>2017-10-14T07:19:19.000Z</time>
      </trkpt>
      <trkpt lat="43.61261" lon="6.85033">
        <ele>211</ele>
        <time>2017-10-14T07:19:20.000Z</time>
      </trkpt>
      <trkpt lat="43.61263" lon="6.85032">
        <ele>212</ele>
        <time>2017-10-14T07:19:21.000Z</time>
      </trkpt>
      <trkpt lat="43.61264" lon="6.8503">
        <ele>211</ele>
        <time>2017-10-14T07:19:22.000Z</time>
      </trkpt>
      <trkpt lat="43.61265" lon="6.85028">
        <ele>212</ele>
        <time>2017-10-14T07:19:23.000Z</time>
      </trkpt>
      <trkpt lat="43.61266" lon="6.85027">
        <ele>212</ele>
        <time>2017-10-14T07:19:24.000Z</time>
      </trkpt>
      <trkpt lat="43.61268" lon="6.85026">
        <ele>212</ele>
        <time>2017-10-14T07:19:25.000Z</time>
      </trkpt>
      <trkpt lat="43.6127" lon="6.85024">
        <ele>213</ele>
        <time>2017-10-14T07:19:26.000Z</time>
      </trkpt>
      <trkpt lat="43.61271" lon="6.85023">
        <ele>213</ele>
        <time>2017-10-14T07:19:27.000Z</time>
      </trkpt>
      <trkpt lat="43.61273" lon="6.85021">
        <ele>214</ele>
        <time>2017-10-14T07:19:28.000Z</time>
      </trkpt>
      <trkpt lat="43.61275" lon="6.85019">
        <ele>215</ele>
        <time>2017-10-14T07:19:29.000Z</time>
      </trkpt>
      <trkpt lat="43.61277" lon="6.85018">
        <ele>215</ele>
        <time>2017-10-14T07:19:30.000Z</time>
      </trkpt>
      <trkpt lat="43.61279" lon="6.85016">
        <ele>215</ele>
        <time>2017-10-14T07:19:31.000Z</time>
      </trkpt>
      <trkpt lat="43.6128" lon="6.85015">
        <ele>215</ele>
        <time>2017-10-14T07:19:32.000Z</time>
      </trkpt>
      <trkpt lat="43.61282" lon="6.85014">
        <ele>215</ele>
        <time>2017-10-14T07:19:33.000Z</time>
      </trkpt>
      <trkpt lat="43.61284" lon="6.85013">
        <ele>215</ele>
        <time>2017-10-14T07:19:34.000Z</time>
      </trkpt>
      <trkpt lat="43.61287" lon="6.85013">
        <ele>215</ele>
        <time>2017-10-14T07:19:35.000Z</time>
      </trkpt>
      <trkpt lat="43.61289" lon="6.85012">
        <ele>215</ele>
        <time>2017-10-14T07:19:36.000Z</time>
      </trkpt>
      <trkpt lat="43.61291" lon="6.85011">
        <ele>216</ele>
        <time>2017-10-14T07:19:37.000Z</time>
      </trkpt>
      <trkpt lat="43.61293" lon="6.8501">
        <ele>216</ele>
        <time>2017-10-14T07:19:38.000Z</time>
      </trkpt>
      <trkpt lat="43.61295" lon="6.8501">
        <ele>217</ele>
        <time>2017-10-14T07:19:39.000Z</time>
      </trkpt>
      <trkpt lat="43.61297" lon="6.85009">
        <ele>216</ele>
        <time>2017-10-14T07:19:40.000Z</time>
      </trkpt>
      <trkpt lat="43.61299" lon="6.85008">
        <ele>216</ele>
        <time>2017-10-14T07:19:41.000Z</time>
      </trkpt>
      <trkpt lat="43.61301" lon="6.85007">
        <ele>217</ele>
        <time>2017-10-14T07:19:42.000Z</time>
      </trkpt>
      <trkpt lat="43.61303" lon="6.85007">
        <ele>217</ele>
        <time>2017-10-14T07:19:43.000Z</time>
      </trkpt>
      <trkpt lat="43.61305" lon="6.85006">
        <ele>217</ele>
        <time>2017-10-14T07:19:44.000Z</time>
      </trkpt>
      <trkpt lat="43.61307" lon="6.85005">
        <ele>218</ele>
        <time>2017-10-14T07:19:45.000Z</time>
      </trkpt>
      <trkpt lat="43.61309" lon="6.85005">
        <ele>218</ele>
        <time>2017-10-14T07:19:46.000Z</time>
      </trkpt>
      <trkpt lat="43.61311" lon="6.85005">
        <ele>218</ele>
        <time>2017-10-14T07:19:47.000Z</time>
      </trkpt>
      <trkpt lat="43.61313" lon="6.85005">
        <ele>218</ele>
        <time>2017-10-14T07:19:48.000Z</time>
      </trkpt>
      <trkpt lat="43.61315" lon="6.85006">
        <ele>218</ele>
        <time>2017-10-14T07:19:49.000Z</time>
      </trkpt>
      <trkpt lat="43.61317" lon="6.85006">
        <ele>219</ele>
        <time>2017-10-14T07:19:50.000Z</time>
      </trkpt>
      <trkpt lat="43.61319" lon="6.85008">
        <ele>218</ele>
        <time>2017-10-14T07:19:51.000Z</time>
      </trkpt>
      <trkpt lat="43.61321" lon="6.85009">
        <ele>218</ele>
        <time>2017-10-14T07:19:52.000Z</time>
      </trkpt>
      <trkpt lat="43.61323" lon="6.85011">
        <ele>217</ele>
        <time>2017-10-14T07:19:53.000Z</time>
      </trkpt>
      <trkpt lat="43.61325" lon="6.85013">
        <ele>217</ele>
        <time>2017-10-14T07:19:54.000Z</time>
      </trkpt>
      <trkpt lat="43.61327" lon="6.85015">
        <ele>217</ele>
        <time>2017-10-14T07:19:55.000Z</time>
      </trkpt>
      <trkpt lat="43.61328" lon="6.85017">
        <ele>217</ele>
        <time>2017-10-14T07:19:56.000Z</time>
      </trkpt>
      <trkpt lat="43.61329" lon="6.85019">
        <ele>216</ele>
        <time>2017-10-14T07:19:57.000Z</time>
      </trkpt>
      <trkpt lat="43.6133" lon="6.85021">
        <ele>216</ele>
        <time>2017-10-14T07:19:58.000Z</time>
      </trkpt>
      <trkpt lat="43.61331" lon="6.85023">
        <ele>216</ele>
        <time>2017-10-14T07:19:59.000Z</time>
      </trkpt>
      <trkpt lat="43.61332" lon="6.85025">
        <ele>216</ele>
        <time>2017-10-14T07:20:00.000Z</time>
      </trkpt>
      <trkpt lat="43.61334" lon="6.85027">
        <ele>216</ele>
        <time>2017-10-14T07:20:01.000Z</time>
      </trkpt>
      <trkpt lat="43.61335" lon="6.85029">
        <ele>216</ele>
        <time>2017-10-14T07:20:02.000Z</time>
      </trkpt>
      <trkpt lat="43.61336" lon="6.85031">
        <ele>215</ele>
        <time>2017-10-14T07:20:03.000Z</time>
      </trkpt>
      <trkpt lat="43.61337" lon="6.85033">
        <ele>215</ele>
        <time>2017-10-14T07:20:04.000Z</time>
      </trkpt>
      <trkpt lat="43.61338" lon="6.85035">
        <ele>215</ele>
        <time>2017-10-14T07:20:05.000Z</time>
      </trkpt>
      <trkpt lat="43.61339" lon="6.85037">
        <ele>215</ele>
        <time>2017-10-14T07:20:06.000Z</time>
      </trkpt>
      <trkpt lat="43.6134" lon="6.85039">
        <ele>215</ele>
        <time>2017-10-14T07:20:07.000Z</time>
      </trkpt>
      <trkpt lat="43.61341" lon="6.85041">
        <ele>215</ele>
        <time>2017-10-14T07:20:08.000Z</time>
      </trkpt>
      <trkpt lat="43.61342" lon="6.85043">
        <ele>217</ele>
        <time>2017-10-14T07:20:09.000Z</time>
      </trkpt>
      <trkpt lat="43.61343" lon="6.85046">
        <ele>216</ele>
        <time>2017-10-14T07:20:10.000Z</time>
      </trkpt>
      <trkpt lat="43.61344" lon="6.85048">
        <ele>216</ele>
        <time>2017-10-14T07:20:11.000Z</time>
      </trkpt>
      <trkpt lat="43.61345" lon="6.8505">
        <ele>216</ele>
        <time>2017-10-14T07:20:12.000Z</time>
      </trkpt>
      <trkpt lat="43.61347" lon="6.85052">
        <ele>216</ele>
        <time>2017-10-14T07:20:13.000Z</time>
      </trkpt>
      <trkpt lat="43.61348" lon="6.85054">
        <ele>217</ele>
        <time>2017-10-14T07:20:14.000Z</time>
      </trkpt>
      <trkpt lat="43.61349" lon="6.85057">
        <ele>216</ele>
        <time>2017-10-14T07:20:15.000Z</time>
      </trkpt>
      <trkpt lat="43.6135" lon="6.85059">
        <ele>216</ele>
        <time>2017-10-14T07:20:16.000Z</time>
      </trkpt>
      <trkpt lat="43.61351" lon="6.85062">
        <ele>215</ele>
        <time>2017-10-14T07:20:17.000Z</time>
      </trkpt>
      <trkpt lat="43.61352" lon="6.85064">
        <ele>216</ele>
        <time>2017-10-14T07:20:18.000Z</time>
      </trkpt>
      <trkpt lat="43.61352" lon="6.85066">
        <ele>216</ele>
        <time>2017-10-14T07:20:19.000Z</time>
      </trkpt>
      <trkpt lat="43.61353" lon="6.85069">
        <ele>216</ele>
        <time>2017-10-14T07:20:20.000Z</time>
      </trkpt>
      <trkpt lat="43.61354" lon="6.85071">
        <ele>215</ele>
        <time>2017-10-14T07:20:21.000Z</time>
      </trkpt>
      <trkpt lat="43.61354" lon="6.85073">
        <ele>216</ele>
        <time>2017-10-14T07:20:22.000Z</time>
      </trkpt>
      <trkpt lat="43.61355" lon="6.85076">
        <ele>216</ele>
        <time>2017-10-14T07:20:23.000Z</time>
      </trkpt>
      <trkpt lat="43.61356" lon="6.85078">
        <ele>217</ele>
        <time>2017-10-14T07:20:24.000Z</time>
      </trkpt>
      <trkpt lat="43.61357" lon="6.85081">
        <ele>217</ele>
        <time>2017-10-14T07:20:25.000Z</time>
      </trkpt>
      <trkpt lat="43.61358" lon="6.85083">
        <ele>217</ele>
        <time>2017-10-14T07:20:26.000Z</time>
      </trkpt>
      <trkpt lat="43.61359" lon="6.85085">
        <ele>218</ele>
        <time>2017-10-14T07:20:27.000Z</time>
      </trkpt>
      <trkpt lat="43.6136" lon="6.85087">
        <ele>218</ele>
        <time>2017-10-14T07:20:28.000Z</time>
      </trkpt>
      <trkpt lat="43.61361" lon="6.85089">
        <ele>218</ele>
        <time>2017-10-14T07:20:29.000Z</time>
      </trkpt>
      <trkpt lat="43.61362" lon="6.85092">
        <ele>219</ele>
        <time>2017-10-14T07:20:30.000Z</time>
      </trkpt>
      <trkpt lat="43.61364" lon="6.85094">
        <ele>220</ele>
        <time>2017-10-14T07:20:31.000Z</time>
      </trkpt>
      <trkpt lat="43.61365" lon="6.85095">
        <ele>220</ele>
        <time>2017-10-14T07:20:32.000Z</time>
      </trkpt>
      <trkpt lat="43.61366" lon="6.85097">
        <ele>221</ele>
        <time>2017-10-14T07:20:33.000Z</time>
      </trkpt>
      <trkpt lat="43.61367" lon="6.85099">
        <ele>222</ele>
        <time>2017-10-14T07:20:34.000Z</time>
      </trkpt>
      <trkpt lat="43.61368" lon="6.85101">
        <ele>223</ele>
        <time>2017-10-14T07:20:35.000Z</time>
      </trkpt>
      <trkpt lat="43.61369" lon="6.85104">
        <ele>223</ele>
        <time>2017-10-14T07:20:36.000Z</time>
      </trkpt>
      <trkpt lat="43.6137" lon="6.85106">
        <ele>223</ele>
        <time>2017-10-14T07:20:37.000Z</time>
      </trkpt>
      <trkpt lat="43.61371" lon="6.85108">
        <ele>224</ele>
        <time>2017-10-14T07:20:38.000Z</time>
      </trkpt>
      <trkpt lat="43.61372" lon="6.85111">
        <ele>224</ele>
        <time>2017-10-14T07:20:39.000Z</time>
      </trkpt>
      <trkpt lat="43.61373" lon="6.85113">
        <ele>224</ele>
        <time>2017-10-14T07:20:40.000Z</time>
      </trkpt>
      <trkpt lat="43.61374" lon="6.85115">
        <ele>225</ele>
        <time>2017-10-14T07:20:41.000Z</time>
      </trkpt>
      <trkpt lat="43.61375" lon="6.85118">
        <ele>225</ele>
        <time>2017-10-14T07:20:42.000Z</time>
      </trkpt>
      <trkpt lat="43.61376" lon="6.8512">
        <ele>225</ele>
        <time>2017-10-14T07:20:43.000Z</time>
      </trkpt>
      <trkpt lat="43.61377" lon="6.85122">
        <ele>226</ele>
        <time>2017-10-14T07:20:44.000Z</time>
      </trkpt>
      <trkpt lat="43.61379" lon="6.85125">
        <ele>226</ele>
        <time>2017-10-14T07:20:45.000Z</time>
      </trkpt>
      <trkpt lat="43.6138" lon="6.85127">
        <ele>227</ele>
        <time>2017-10-14T07:20:46.000Z</time>
      </trkpt>
      <trkpt lat="43.61381" lon="6.85129">
        <ele>226</ele>
        <time>2017-10-14T07:20:47.000Z</time>
      </trkpt>
      <trkpt lat="43.61382" lon="6.85131">
        <ele>226</ele>
        <time>2017-10-14T07:20:48.000Z</time>
      </trkpt>
      <trkpt lat="43.61383" lon="6.85134">
        <ele>226</ele>
        <time>2017-10-14T07:20:49.000Z</time>
      </trkpt>
      <trkpt lat="43.61384" lon="6.85136">
        <ele>226</ele>
        <time>2017-10-14T07:20:50.000Z</time>
      </trkpt>
      <trkpt lat="43.61384" lon="6.85138">
        <ele>227</ele>
        <time>2017-10-14T07:20:51.000Z</time>
      </trkpt>
      <trkpt lat="43.61385" lon="6.85141">
        <ele>227</ele>
        <time>2017-10-14T07:20:52.000Z</time>
      </trkpt>
      <trkpt lat="43.61386" lon="6.85143">
        <ele>227</ele>
        <time>2017-10-14T07:20:53.000Z</time>
      </trkpt>
      <trkpt lat="43.61386" lon="6.85145">
        <ele>227</ele>
        <time>2017-10-14T07:20:54.000Z</time>
      </trkpt>
      <trkpt lat="43.61387" lon="6.85148">
        <ele>227</ele>
        <time>2017-10-14T07:20:55.000Z</time>
      </trkpt>
      <trkpt lat="43.61388" lon="6.8515">
        <ele>227</ele>
        <time>2017-10-14T07:20:56.000Z</time>
      </trkpt>
      <trkpt lat="43.61389" lon="6.85152">
        <ele>227</ele>
        <time>2017-10-14T07:20:57.000Z</time>
      </trkpt>
      <trkpt lat="43.61389" lon="6.85154">
        <ele>227</ele>
        <time>2017-10-14T07:20:58.000Z</time>
      </trkpt>
      <trkpt lat="43.6139" lon="6.85156">
        <ele>228</ele>
        <time>2017-10-14T07:20:59.000Z</time>
      </trkpt>
      <trkpt lat="43.61391" lon="6.85157">
        <ele>228</ele>
        <time>2017-10-14T07:21:00.000Z</time>
      </trkpt>
      <trkpt lat="43.61392" lon="6.85159">
        <ele>228</ele>
        <time>2017-10-14T07:21:01.000Z</time>
      </trkpt>
      <trkpt lat="43.61393" lon="6.8516">
        <ele>227</ele>
        <time>2017-10-14T07:21:02.000Z</time>
      </trkpt>
      <trkpt lat="43.61393" lon="6.85162">
        <ele>227</ele>
        <time>2017-10-14T07:21:03.000Z</time>
      </trkpt>
      <trkpt lat="43.61394" lon="6.85163">
        <ele>227</ele>
        <time>2017-10-14T07:21:04.000Z</time>
      </trkpt>
      <trkpt lat="43.61395" lon="6.85164">
        <ele>227</ele>
        <time>2017-10-14T07:21:05.000Z</time>
      </trkpt>
      <trkpt lat="43.61396" lon="6.85166">
        <ele>226</ele>
        <time>2017-10-14T07:21:06.000Z</time>
      </trkpt>
      <trkpt lat="43.61397" lon="6.85167">
        <ele>226</ele>
        <time>2017-10-14T07:21:07.000Z</time>
      </trkpt>
      <trkpt lat="43.61398" lon="6.85168">
        <ele>226</ele>
        <time>2017-10-14T07:21:08.000Z</time>
      </trkpt>
      <trkpt lat="43.614" lon="6.8517">
        <ele>226</ele>
        <time>2017-10-14T07:21:09.000Z</time>
      </trkpt>
      <trkpt lat="43.61401" lon="6.85171">
        <ele>226</ele>
        <time>2017-10-14T07:21:10.000Z</time>
      </trkpt>
      <trkpt lat="43.61403" lon="6.85173">
        <ele>226</ele>
        <time>2017-10-14T07:21:11.000Z</time>
      </trkpt>
      <trkpt lat="43.61404" lon="6.85174">
        <ele>226</ele>
        <time>2017-10-14T07:21:12.000Z</time>
      </trkpt>
      <trkpt lat="43.61406" lon="6.85175">
        <ele>226</ele>
        <time>2017-10-14T07:21:13.000Z</time>
      </trkpt>
      <trkpt lat="43.61408" lon="6.85177">
        <ele>225</ele>
        <time>2017-10-14T07:21:14.000Z</time>
      </trkpt>
      <trkpt lat="43.61409" lon="6.85178">
        <ele>225</ele>
        <time>2017-10-14T07:21:15.000Z</time>
      </trkpt>
      <trkpt lat="43.61411" lon="6.85179">
        <ele>225</ele>
        <time>2017-10-14T07:21:16.000Z</time>
      </trkpt>
      <trkpt lat="43.61412" lon="6.8518">
        <ele>226</ele>
        <time>2017-10-14T07:21:17.000Z</time>
      </trkpt>
      <trkpt lat="43.61414" lon="6.85181">
        <ele>226</ele>
        <time>2017-10-14T07:21:18.000Z</time>
      </trkpt>
      <trkpt lat="43.61415" lon="6.85182">
        <ele>226</ele>
        <time>2017-10-14T07:21:19.000Z</time>
      </trkpt>
      <trkpt lat="43.61417" lon="6.85184">
        <ele>226</ele>
        <time>2017-10-14T07:21:20.000Z</time>
      </trkpt>
      <trkpt lat="43.61418" lon="6.85185">
        <ele>225</ele>
        <time>2017-10-14T07:21:21.000Z</time>
      </trkpt>
      <trkpt lat="43.6142" lon="6.85186">
        <ele>225</ele>
        <time>2017-10-14T07:21:22.000Z</time>
      </trkpt>
      <trkpt lat="43.61421" lon="6.85188">
        <ele>225</ele>
        <time>2017-10-14T07:21:23.000Z</time>
      </trkpt>
      <trkpt lat="43.61423" lon="6.85189">
        <ele>225</ele>
        <time>2017-10-14T07:21:24.000Z</time>
      </trkpt>
      <trkpt lat="43.61425" lon="6.85191">
        <ele>225</ele>
        <time>2017-10-14T07:21:25.000Z</time>
      </trkpt>
      <trkpt lat="43.61426" lon="6.85192">
        <ele>224</ele>
        <time>2017-10-14T07:21:26.000Z</time>
      </trkpt>
      <trkpt lat="43.61428" lon="6.85194">
        <ele>225</ele>
        <time>2017-10-14T07:21:27.000Z</time>
      </trkpt>
      <trkpt lat="43.61429" lon="6.85195">
        <ele>225</ele>
        <time>2017-10-14T07:21:28.000Z</time>
      </trkpt>
      <trkpt lat="43.61431" lon="6.85197">
        <ele>225</ele>
        <time>2017-10-14T07:21:29.000Z</time>
      </trkpt>
      <trkpt lat="43.61433" lon="6.85199">
        <ele>224</ele>
        <time>2017-10-14T07:21:30.000Z</time>
      </trkpt>
      <trkpt lat="43.61435" lon="6.85201">
        <ele>224</ele>
        <time>2017-10-14T07:21:31.000Z</time>
      </trkpt>
      <trkpt lat="43.61436" lon="6.85202">
        <ele>224</ele>
        <time>2017-10-14T07:21:32.000Z</time>
      </trkpt>
      <trkpt lat="43.61438" lon="6.85204">
        <ele>224</ele>
        <time>2017-10-14T07:21:33.000Z</time>
      </trkpt>
      <trkpt lat="43.6144" lon="6.85206">
        <ele>224</ele>
        <time>2017-10-14T07:21:34.000Z</time>
      </trkpt>
      <trkpt lat="43.61442" lon="6.85208">
        <ele>225</ele>
        <time>2017-10-14T07:21:35.000Z</time>
      </trkpt>
      <trkpt lat="43.61443" lon="6.85209">
        <ele>225</ele>
        <time>2017-10-14T07:21:36.000Z</time>
      </trkpt>
      <trkpt lat="43.61446" lon="6.85211">
        <ele>226</ele>
        <time>2017-10-14T07:21:37.000Z</time>
      </trkpt>
      <trkpt lat="43.61448" lon="6.85213">
        <ele>227</ele>
        <time>2017-10-14T07:21:38.000Z</time>
      </trkpt>
      <trkpt lat="43.6145" lon="6.85215">
        <ele>227</ele>
        <time>2017-10-14T07:21:39.000Z</time>
      </trkpt>
      <trkpt lat="43.61452" lon="6.85216">
        <ele>227</ele>
        <time>2017-10-14T07:21:40.000Z</time>
      </trkpt>
      <trkpt lat="43.61454" lon="6.85218">
        <ele>227</ele>
        <time>2017-10-14T07:21:41.000Z</time>
      </trkpt>
      <trkpt lat="43.61455" lon="6.8522">
        <ele>228</ele>
        <time>2017-10-14T07:21:42.000Z</time>
      </trkpt>
      <trkpt lat="43.61457" lon="6.85221">
        <ele>228</ele>
        <time>2017-10-14T07:21:43.000Z</time>
      </trkpt>
      <trkpt lat="43.61459" lon="6.85223">
        <ele>229</ele>
        <time>2017-10-14T07:21:44.000Z</time>
      </trkpt>
      <trkpt lat="43.61461" lon="6.85224">
        <ele>229</ele>
        <time>2017-10-14T07:21:45.000Z</time>
      </trkpt>
      <trkpt lat="43.61462" lon="6.85225">
        <ele>229</ele>
        <time>2017-10-14T07:21:46.000Z</time>
      </trkpt>
      <trkpt lat="43.61464" lon="6.85226">
        <ele>229</ele>
        <time>2017-10-14T07:21:47.000Z</time>
      </trkpt>
      <trkpt lat="43.61466" lon="6.85227">
        <ele>229</ele>
        <time>2017-10-14T07:21:48.000Z</time>
      </trkpt>
      <trkpt lat="43.61468" lon="6.85228">
        <ele>229</ele>
        <time>2017-10-14T07:21:49.000Z</time>
      </trkpt>
      <trkpt lat="43.61469" lon="6.85229">
        <ele>230</ele>
        <time>2017-10-14T07:21:50.000Z</time>
      </trkpt>
      <trkpt lat="43.61471" lon="6.8523">
        <ele>230</ele>
        <time>2017-10-14T07:21:51.000Z</time>
      </trkpt>
      <trkpt lat="43.61473" lon="6.8523">
        <ele>230</ele>
        <time>2017-10-14T07:21:52.000Z</time>
      </trkpt>
      <trkpt lat="43.61474" lon="6.85231">
        <ele>231</ele>
        <time>2017-10-14T07:21:53.000Z</time>
      </trkpt>
      <trkpt lat="43.61476" lon="6.85231">
        <ele>231</ele>
        <time>2017-10-14T07:21:54.000Z</time>
      </trkpt>
      <trkpt lat="43.61478" lon="6.85232">
        <ele>230</ele>
        <time>2017-10-14T07:21:55.000Z</time>
      </trkpt>
      <trkpt lat="43.61479" lon="6.85232">
        <ele>230</ele>
        <time>2017-10-14T07:21:56.000Z</time>
      </trkpt>
      <trkpt lat="43.61481" lon="6.85233">
        <ele>229</ele>
        <time>2017-10-14T07:21:57.000Z</time>
      </trkpt>
      <trkpt lat="43.61483" lon="6.85233">
        <ele>229</ele>
        <time>2017-10-14T07:21:58.000Z</time>
      </trkpt>
      <trkpt lat="43.61485" lon="6.85233">
        <ele>229</ele>
        <time>2017-10-14T07:21:59.000Z</time>
      </trkpt>
      <trkpt lat="43.61487" lon="6.85234">
        <ele>229</ele>
        <time>2017-10-14T07:22:00.000Z</time>
      </trkpt>
      <trkpt lat="43.61489" lon="6.85235">
        <ele>229</ele>
        <time>2017-10-14T07:22:01.000Z</time>
      </trkpt>
      <trkpt lat="43.6149" lon="6.85235">
        <ele>229</ele>
        <time>2017-10-14T07:22:02.000Z</time>
      </trkpt>
      <trkpt lat="43.61492" lon="6.85235">
        <ele>229</ele>
        <time>2017-10-14T07:22:03.000Z</time>
      </trkpt>
      <trkpt lat="43.61494" lon="6.85236">
        <ele>229</ele>
        <time>2017-10-14T07:22:04.000Z</time>
      </trkpt>
      <trkpt lat="43.61497" lon="6.85238">
        <ele>229</ele>
        <time>2017-10-14T07:22:05.000Z</time>
      </trkpt>
      <trkpt lat="43.61499" lon="6.85239">
        <ele>228</ele>
        <time>2017-10-14T07:22:06.000Z</time>
      </trkpt>
      <trkpt lat="43.61501" lon="6.8524">
        <ele>227</ele>
        <time>2017-10-14T07:22:07.000Z</time>
      </trkpt>
      <trkpt lat="43.61503" lon="6.8524">
        <ele>226</ele>
        <time>2017-10-14T07:22:08.000Z</time>
      </trkpt>
      <trkpt lat="43.61505" lon="6.85241">
        <ele>226</ele>
        <time>2017-10-14T07:22:09.000Z</time>
      </trkpt>
      <trkpt lat="43.61508" lon="6.85241">
        <ele>227</ele>
        <time>2017-10-14T07:22:10.000Z</time>
      </trkpt>
      <trkpt lat="43.6151" lon="6.85242">
        <ele>226</ele>
        <time>2017-10-14T07:22:11.000Z</time>
      </trkpt>
      <trkpt lat="43.61512" lon="6.85242">
        <ele>225</ele>
        <time>2017-10-14T07:22:12.000Z</time>
      </trkpt>
      <trkpt lat="43.61514" lon="6.85243">
        <ele>224</ele>
        <time>2017-10-14T07:22:13.000Z</time>
      </trkpt>
      <trkpt lat="43.61516" lon="6.85243">
        <ele>224</ele>
        <time>2017-10-14T07:22:14.000Z</time>
      </trkpt>
      <trkpt lat="43.61519" lon="6.85244">
        <ele>225</ele>
        <time>2017-10-14T07:22:15.000Z</time>
      </trkpt>
      <trkpt lat="43.61521" lon="6.85244">
        <ele>224</ele>
        <time>2017-10-14T07:22:16.000Z</time>
      </trkpt>
      <trkpt lat="43.61523" lon="6.85245">
        <ele>223</ele>
        <time>2017-10-14T07:22:17.000Z</time>
      </trkpt>
      <trkpt lat="43.61524" lon="6.85245">
        <ele>223</ele>
        <time>2017-10-14T07:22:18.000Z</time>
      </trkpt>
      <trkpt lat="43.61526" lon="6.85246">
        <ele>224</ele>
        <time>2017-10-14T07:22:19.000Z</time>
      </trkpt>
      <trkpt lat="43.61528" lon="6.85246">
        <ele>224</ele>
        <time>2017-10-14T07:22:20.000Z</time>
      </trkpt>
      <trkpt lat="43.6153" lon="6.85247">
        <ele>225</ele>
        <time>2017-10-14T07:22:21.000Z</time>
      </trkpt>
      <trkpt lat="43.61532" lon="6.85247">
        <ele>225</ele>
        <time>2017-10-14T07:22:22.000Z</time>
      </trkpt>
      <trkpt lat="43.61534" lon="6.85247">
        <ele>225</ele>
        <time>2017-10-14T07:22:23.000Z</time>
      </trkpt>
      <trkpt lat="43.61535" lon="6.85246">
        <ele>225</ele>
        <time>2017-10-14T07:22:24.000Z</time>
      </trkpt>
      <trkpt lat="43.61537" lon="6.85246">
        <ele>225</ele>
        <time>2017-10-14T07:22:25.000Z</time>
      </trkpt>
      <trkpt lat="43.61538" lon="6.85245">
        <ele>226</ele>
        <time>2017-10-14T07:22:26.000Z</time>
      </trkpt>
      <trkpt lat="43.61539" lon="6.85244">
        <ele>227</ele>
        <time>2017-10-14T07:22:27.000Z</time>
      </trkpt>
      <trkpt lat="43.6154" lon="6.85244">
        <ele>228</ele>
        <time>2017-10-14T07:22:28.000Z</time>
      </trkpt>
      <trkpt lat="43.61541" lon="6.85243">
        <ele>228</ele>
        <time>2017-10-14T07:22:29.000Z</time>
      </trkpt>
      <trkpt lat="43.61541" lon="6.85243">
        <ele>229</ele>
        <time>2017-10-14T07:22:30.000Z</time>
      </trkpt>
      <trkpt lat="43.61541" lon="6.85244">
        <ele>229</ele>
        <time>2017-10-14T07:22:31.000Z</time>
      </trkpt>
      <trkpt lat="43.61541" lon="6.85244">
        <ele>229</ele>
        <time>2017-10-14T07:22:32.000Z</time>
      </trkpt>
      <trkpt lat="43.61541" lon="6.85244">
        <ele>229</ele>
        <time>2017-10-14T07:22:33.000Z</time>
      </trkpt>
      <trkpt lat="43.61541" lon="6.85244">
        <ele>229</ele>
        <time>2017-10-14T07:22:34.000Z</time>
      </trkpt>
      <trkpt lat="43.6154" lon="6.85244">
        <ele>229</ele>
        <time>2017-10-14T07:22:35.000Z</time>
      </trkpt>
      <trkpt lat="43.6154" lon="6.85244">
        <ele>229</ele>
        <time>2017-10-14T07:22:36.000Z</time>
      </trkpt>
      <trkpt lat="43.6154" lon="6.85244">
        <ele>228</ele>
        <time>2017-10-14T07:22:37.000Z</time>
      </trkpt>
      <trkpt lat="43.6154" lon="6.85244">
        <ele>228</ele>
        <time>2017-10-14T07:22:38.000Z</time>
      </trkpt>
      <trkpt lat="43.6154" lon="6.85245">
        <ele>228</ele>
        <time>2017-10-14T07:22:39.000Z</time>
      </trkpt>
      <trkpt lat="43.6154" lon="6.85245">
        <ele>228</ele>
        <time>2017-10-14T07:22:40.000Z</time>
      </trkpt>
      <trkpt lat="43.6154" lon="6.85245">
        <ele>228</ele>
        <time>2017-10-14T07:22:41.000Z</time>
      </trkpt>
      <trkpt lat="43.6154" lon="6.85245">
        <ele>228</ele>
        <time>2017-10-14T07:22:42.000Z</time>
      </trkpt>
      <trkpt lat="43.6154" lon="6.85245">
        <ele>228</ele>
        <time>2017-10-14T07:22:43.000Z</time>
      </trkpt>
      <trkpt lat="43.6154" lon="6.85245">
        <ele>228</ele>
        <time>2017-10-14T07:22:44.000Z</time>
      </trkpt>
      <trkpt lat="43.61541" lon="6.85245">
        <ele>228</ele>
        <time>2017-10-14T07:22:45.000Z</time>
      </trkpt>
      <trkpt lat="43.61541" lon="6.85245">
        <ele>229</ele>
        <time>2017-10-14T07:22:46.000Z</time>
      </trkpt>
      <trkpt lat="43.61541" lon="6.85245">
        <ele>229</ele>
        <time>2017-10-14T07:22:47.000Z</time>
      </trkpt>
      <trkpt lat="43.61541" lon="6.85246">
        <ele>229</ele>
        <time>2017-10-14T07:22:48.000Z</time>
      </trkpt>
      <trkpt lat="43.61541" lon="6.85245">
        <ele>229</ele>
        <time>2017-10-14T07:22:49.000Z</time>
      </trkpt>
      <trkpt lat="43.61541" lon="6.85245">
        <ele>229</ele>
        <time>2017-10-14T07:22:50.000Z</time>
      </trkpt>
      <trkpt lat="43.61541" lon="6.85245">
        <ele>229</ele>
        <time>2017-10-14T07:22:51.000Z</time>
      </trkpt>
      <trkpt lat="43.61541" lon="6.85245">
        <ele>229</ele>
        <time>2017-10-14T07:22:52.000Z</time>
      </trkpt>
      <trkpt lat="43.61541" lon="6.85245">
        <ele>229</ele>
        <time>2017-10-14T07:22:53.000Z</time>
      </trkpt>
      <trkpt lat="43.61541" lon="6.85245">
        <ele>229</ele>
        <time>2017-10-14T07:22:54.000Z</time>
      </trkpt>
      <trkpt lat="43.61541" lon="6.85245">
        <ele>229</ele>
        <time>2017-10-14T07:22:55.000Z</time>
      </trkpt>
      <trkpt lat="43.61541" lon="6.85245">
        <ele>229</ele>
        <time>2017-10-14T07:22:56.000Z</time>
      </trkpt>
      <trkpt lat="43.61541" lon="6.85245">
        <ele>229</ele>
        <time>2017-10-14T07:22:57.000Z</time>
      </trkpt>
      <trkpt lat="43.61541" lon="6.85244">
        <ele>229</ele>
        <time>2017-10-14T07:22:58.000Z</time>
      </trkpt>
      <trkpt lat="43.61541" lon="6.85243">
        <ele>229</ele>
        <time>2017-10-14T07:22:59.000Z</time>
      </trkpt>
      <trkpt lat="43.6154" lon="6.85242">
        <ele>229</ele>
        <time>2017-10-14T07:23:00.000Z</time>
      </trkpt>
      <trkpt lat="43.6154" lon="6.85241">
        <ele>229</ele>
        <time>2017-10-14T07:23:01.000Z</time>
      </trkpt>
      <trkpt lat="43.61539" lon="6.85239">
        <ele>229</ele>
        <time>2017-10-14T07:23:02.000Z</time>
      </trkpt>
      <trkpt lat="43.61538" lon="6.85237">
        <ele>229</ele>
        <time>2017-10-14T07:23:03.000Z</time>
      </trkpt>
      <trkpt lat="43.61538" lon="6.85235">
        <ele>230</ele>
        <time>2017-10-14T07:23:04.000Z</time>
      </trkpt>
      <trkpt lat="43.61537" lon="6.85233">
        <ele>230</ele>
        <time>2017-10-14T07:23:05.000Z</time>
      </trkpt>
      <trkpt lat="43.61536" lon="6.85231">
        <ele>229</ele>
        <time>2017-10-14T07:23:06.000Z</time>
      </trkpt>
      <trkpt lat="43.61536" lon="6.85229">
        <ele>229</ele>
        <time>2017-10-14T07:23:07.000Z</time>
      </trkpt>
      <trkpt lat="43.61535" lon="6.85227">
        <ele>229</ele>
        <time>2017-10-14T07:23:08.000Z</time>
      </trkpt>
      <trkpt lat="43.61535" lon="6.85224">
        <ele>228</ele>
        <time>2017-10-14T07:23:09.000Z</time>
      </trkpt>
      <trkpt lat="43.61536" lon="6.85222">
        <ele>229</ele>
        <time>2017-10-14T07:23:10.000Z</time>
      </trkpt>
      <trkpt lat="43.61536" lon="6.8522">
        <ele>229</ele>
        <time>2017-10-14T07:23:11.000Z</time>
      </trkpt>
      <trkpt lat="43.61536" lon="6.85218">
        <ele>228</ele>
        <time>2017-10-14T07:23:12.000Z</time>
      </trkpt>
      <trkpt lat="43.61536" lon="6.85216">
        <ele>227</ele>
        <time>2017-10-14T07:23:13.000Z</time>
      </trkpt>
      <trkpt lat="43.61536" lon="6.85214">
        <ele>226</ele>
        <time>2017-10-14T07:23:14.000Z</time>
      </trkpt>
      <trkpt lat="43.61537" lon="6.85212">
        <ele>227</ele>
        <time>2017-10-14T07:23:15.000Z</time>
      </trkpt>
      <trkpt lat="43.61538" lon="6.8521">
        <ele>227</ele>
        <time>2017-10-14T07:23:16.000Z</time>
      </trkpt>
      <trkpt lat="43.61538" lon="6.85207">
        <ele>228</ele>
        <time>2017-10-14T07:23:17.000Z</time>
      </trkpt>
      <trkpt lat="43.61539" lon="6.85205">
        <ele>228</ele>
        <time>2017-10-14T07:23:18.000Z</time>
      </trkpt>
      <trkpt lat="43.61541" lon="6.85203">
        <ele>227</ele>
        <time>2017-10-14T07:23:19.000Z</time>
      </trkpt>
      <trkpt lat="43.61542" lon="6.85202">
        <ele>226</ele>
        <time>2017-10-14T07:23:20.000Z</time>
      </trkpt>
      <trkpt lat="43.61544" lon="6.85201">
        <ele>226</ele>
        <time>2017-10-14T07:23:21.000Z</time>
      </trkpt>
      <trkpt lat="43.61546" lon="6.85199">
        <ele>225</ele>
        <time>2017-10-14T07:23:22.000Z</time>
      </trkpt>
      <trkpt lat="43.61547" lon="6.85198">
        <ele>223</ele>
        <time>2017-10-14T07:23:23.000Z</time>
      </trkpt>
      <trkpt lat="43.61548" lon="6.85197">
        <ele>223</ele>
        <time>2017-10-14T07:23:24.000Z</time>
      </trkpt>
      <trkpt lat="43.61549" lon="6.85195">
        <ele>222</ele>
        <time>2017-10-14T07:23:25.000Z</time>
      </trkpt>
      <trkpt lat="43.6155" lon="6.85194">
        <ele>222</ele>
        <time>2017-10-14T07:23:26.000Z</time>
      </trkpt>
      <trkpt lat="43.6155" lon="6.85192">
        <ele>221</ele>
        <time>2017-10-14T07:23:27.000Z</time>
      </trkpt>
      <trkpt lat="43.6155" lon="6.8519">
        <ele>221</ele>
        <time>2017-10-14T07:23:28.000Z</time>
      </trkpt>
      <trkpt lat="43.6155" lon="6.85188">
        <ele>221</ele>
        <time>2017-10-14T07:23:29.000Z</time>
      </trkpt>
      <trkpt lat="43.61548" lon="6.85186">
        <ele>221</ele>
        <time>2017-10-14T07:23:30.000Z</time>
      </trkpt>
      <trkpt lat="43.61546" lon="6.85184">
        <ele>220</ele>
        <time>2017-10-14T07:23:31.000Z</time>
      </trkpt>
      <trkpt lat="43.61545" lon="6.85182">
        <ele>219</ele>
        <time>2017-10-14T07:23:32.000Z</time>
      </trkpt>
      <trkpt lat="43.61544" lon="6.85181">
        <ele>220</ele>
        <time>2017-10-14T07:23:33.000Z</time>
      </trkpt>
      <trkpt lat="43.61544" lon="6.85178">
        <ele>220</ele>
        <time>2017-10-14T07:23:34.000Z</time>
      </trkpt>
      <trkpt lat="43.61544" lon="6.85176">
        <ele>218</ele>
        <time>2017-10-14T07:23:35.000Z</time>
      </trkpt>
      <trkpt lat="43.61544" lon="6.85174">
        <ele>217</ele>
        <time>2017-10-14T07:23:36.000Z</time>
      </trkpt>
      <trkpt lat="43.61545" lon="6.85172">
        <ele>216</ele>
        <time>2017-10-14T07:23:37.000Z</time>
      </trkpt>
      <trkpt lat="43.61546" lon="6.85171">
        <ele>214</ele>
        <time>2017-10-14T07:23:38.000Z</time>
      </trkpt>
      <trkpt lat="43.61548" lon="6.85169">
        <ele>214</ele>
        <time>2017-10-14T07:23:39.000Z</time>
      </trkpt>
      <trkpt lat="43.61549" lon="6.85168">
        <ele>214</ele>
        <time>2017-10-14T07:23:40.000Z</time>
      </trkpt>
      <trkpt lat="43.6155" lon="6.85168">
        <ele>213</ele>
        <time>2017-10-14T07:23:41.000Z</time>
      </trkpt>
      <trkpt lat="43.61551" lon="6.85167">
        <ele>213</ele>
        <time>2017-10-14T07:23:42.000Z</time>
      </trkpt>
      <trkpt lat="43.61551" lon="6.85166">
        <ele>212</ele>
        <time>2017-10-14T07:23:43.000Z</time>
      </trkpt>
      <trkpt lat="43.61551" lon="6.85165">
        <ele>212</ele>
        <time>2017-10-14T07:23:44.000Z</time>
      </trkpt>
      <trkpt lat="43.6155" lon="6.85163">
        <ele>212</ele>
        <time>2017-10-14T07:23:45.000Z</time>
      </trkpt>
      <trkpt lat="43.61549" lon="6.85162">
        <ele>212</ele>
        <time>2017-10-14T07:23:46.000Z</time>
      </trkpt>
      <trkpt lat="43.61549" lon="6.85161">
        <ele>212</ele>
        <time>2017-10-14T07:23:47.000Z</time>
      </trkpt>
      <trkpt lat="43.61549" lon="6.8516">
        <ele>211</ele>
        <time>2017-10-14T07:23:48.000Z</time>
      </trkpt>
      <trkpt lat="43.61549" lon="6.85158">
        <ele>211</ele>
        <time>2017-10-14T07:23:49.000Z</time>
      </trkpt>
      <trkpt lat="43.61549" lon="6.85156">
        <ele>211</ele>
        <time>2017-10-14T07:23:50.000Z</time>
      </trkpt>
      <trkpt lat="43.61549" lon="6.85155">
        <ele>211</ele>
        <time>2017-10-14T07:23:51.000Z</time>
      </trkpt>
      <trkpt lat="43.6155" lon="6.85153">
        <ele>210</ele>
        <time>2017-10-14T07:23:52.000Z</time>
      </trkpt>
      <trkpt lat="43.61551" lon="6.85151">
        <ele>209</ele>
        <time>2017-10-14T07:23:53.000Z</time>
      </trkpt>
      <trkpt lat="43.61552" lon="6.8515">
        <ele>208</ele>
        <time>2017-10-14T07:23:54.000Z</time>
      </trkpt>
      <trkpt lat="43.61553" lon="6.85148">
        <ele>208</ele>
        <time>2017-10-14T07:23:55.000Z</time>
      </trkpt>
      <trkpt lat="43.61555" lon="6.85147">
        <ele>206</ele>
        <time>2017-10-14T07:23:56.000Z</time>
      </trkpt>
      <trkpt lat="43.61556" lon="6.85146">
        <ele>205</ele>
        <time>2017-10-14T07:23:57.000Z</time>
      </trkpt>
      <trkpt lat="43.61557" lon="6.85145">
        <ele>205</ele>
        <time>2017-10-14T07:23:58.000Z</time>
      </trkpt>
      <trkpt lat="43.61559" lon="6.85145">
        <ele>205</ele>
        <time>2017-10-14T07:23:59.000Z</time>
      </trkpt>
      <trkpt lat="43.61561" lon="6.85144">
        <ele>205</ele>
        <time>2017-10-14T07:24:00.000Z</time>
      </trkpt>
      <trkpt lat="43.61564" lon="6.85145">
        <ele>206</ele>
        <time>2017-10-14T07:24:01.000Z</time>
      </trkpt>
      <trkpt lat="43.61566" lon="6.85145">
        <ele>206</ele>
        <time>2017-10-14T07:24:02.000Z</time>
      </trkpt>
      <trkpt lat="43.61569" lon="6.85145">
        <ele>207</ele>
        <time>2017-10-14T07:24:03.000Z</time>
      </trkpt>
      <trkpt lat="43.61571" lon="6.85145">
        <ele>205</ele>
        <time>2017-10-14T07:24:04.000Z</time>
      </trkpt>
      <trkpt lat="43.61574" lon="6.85146">
        <ele>205</ele>
        <time>2017-10-14T07:24:05.000Z</time>
      </trkpt>
      <trkpt lat="43.61577" lon="6.85147">
        <ele>205</ele>
        <time>2017-10-14T07:24:06.000Z</time>
      </trkpt>
      <trkpt lat="43.61579" lon="6.85148">
        <ele>205</ele>
        <time>2017-10-14T07:24:07.000Z</time>
      </trkpt>
      <trkpt lat="43.61581" lon="6.85149">
        <ele>204</ele>
        <time>2017-10-14T07:24:08.000Z</time>
      </trkpt>
      <trkpt lat="43.61583" lon="6.8515">
        <ele>204</ele>
        <time>2017-10-14T07:24:09.000Z</time>
      </trkpt>
      <trkpt lat="43.61585" lon="6.85151">
        <ele>204</ele>
        <time>2017-10-14T07:24:10.000Z</time>
      </trkpt>
      <trkpt lat="43.61587" lon="6.85152">
        <ele>204</ele>
        <time>2017-10-14T07:24:11.000Z</time>
      </trkpt>
      <trkpt lat="43.61588" lon="6.85153">
        <ele>204</ele>
        <time>2017-10-14T07:24:12.000Z</time>
      </trkpt>
      <trkpt lat="43.6159" lon="6.85153">
        <ele>205</ele>
        <time>2017-10-14T07:24:13.000Z</time>
      </trkpt>
      <trkpt lat="43.61591" lon="6.85153">
        <ele>205</ele>
        <time>2017-10-14T07:24:14.000Z</time>
      </trkpt>
      <trkpt lat="43.61593" lon="6.85154">
        <ele>205</ele>
        <time>2017-10-14T07:24:15.000Z</time>
      </trkpt>
      <trkpt lat="43.61594" lon="6.85155">
        <ele>205</ele>
        <time>2017-10-14T07:24:16.000Z</time>
      </trkpt>
      <trkpt lat="43.61596" lon="6.85157">
        <ele>206</ele>
        <time>2017-10-14T07:24:17.000Z</time>
      </trkpt>
      <trkpt lat="43.61597" lon="6.85158">
        <ele>206</ele>
        <time>2017-10-14T07:24:18.000Z</time>
      </trkpt>
      <trkpt lat="43.61598" lon="6.85159">
        <ele>205</ele>
        <time>2017-10-14T07:24:19.000Z</time>
      </trkpt>
      <trkpt lat="43.61599" lon="6.8516">
        <ele>206</ele>
        <time>2017-10-14T07:24:20.000Z</time>
      </trkpt>
      <trkpt lat="43.616" lon="6.8516">
        <ele>205</ele>
        <time>2017-10-14T07:24:21.000Z</time>
      </trkpt>
      <trkpt lat="43.61602" lon="6.85161">
        <ele>204</ele>
        <time>2017-10-14T07:24:22.000Z</time>
      </trkpt>
      <trkpt lat="43.61604" lon="6.85162">
        <ele>204</ele>
        <time>2017-10-14T07:24:23.000Z</time>
      </trkpt>
      <trkpt lat="43.61605" lon="6.85164">
        <ele>205</ele>
        <time>2017-10-14T07:24:24.000Z</time>
      </trkpt>
      <trkpt lat="43.61607" lon="6.85165">
        <ele>206</ele>
        <time>2017-10-14T07:24:25.000Z</time>
      </trkpt>
      <trkpt lat="43.61609" lon="6.85167">
        <ele>206</ele>
        <time>2017-10-14T07:24:26.000Z</time>
      </trkpt>
      <trkpt lat="43.6161" lon="6.85168">
        <ele>206</ele>
        <time>2017-10-14T07:24:27.000Z</time>
      </trkpt>
      <trkpt lat="43.61611" lon="6.85169">
        <ele>206</ele>
        <time>2017-10-14T07:24:28.000Z</time>
      </trkpt>
      <trkpt lat="43.61613" lon="6.8517">
        <ele>206</ele>
        <time>2017-10-14T07:24:29.000Z</time>
      </trkpt>
      <trkpt lat="43.61614" lon="6.85171">
        <ele>206</ele>
        <time>2017-10-14T07:24:30.000Z</time>
      </trkpt>
      <trkpt lat="43.61616" lon="6.85172">
        <ele>206</ele>
        <time>2017-10-14T07:24:31.000Z</time>
      </trkpt>
      <trkpt lat="43.61617" lon="6.85174">
        <ele>207</ele>
        <time>2017-10-14T07:24:32.000Z</time>
      </trkpt>
      <trkpt lat="43.61618" lon="6.85175">
        <ele>207</ele>
        <time>2017-10-14T07:24:33.000Z</time>
      </trkpt>
      <trkpt lat="43.61619" lon="6.85176">
        <ele>207</ele>
        <time>2017-10-14T07:24:34.000Z</time>
      </trkpt>
      <trkpt lat="43.6162" lon="6.85177">
        <ele>207</ele>
        <time>2017-10-14T07:24:35.000Z</time>
      </trkpt>
      <trkpt lat="43.61621" lon="6.85178">
        <ele>207</ele>
        <time>2017-10-14T07:24:36.000Z</time>
      </trkpt>
      <trkpt lat="43.61622" lon="6.8518">
        <ele>207</ele>
        <time>2017-10-14T07:24:37.000Z</time>
      </trkpt>
      <trkpt lat="43.61624" lon="6.85182">
        <ele>207</ele>
        <time>2017-10-14T07:24:38.000Z</time>
      </trkpt>
      <trkpt lat="43.61625" lon="6.85183">
        <ele>206</ele>
        <time>2017-10-14T07:24:39.000Z</time>
      </trkpt>
      <trkpt lat="43.61627" lon="6.85185">
        <ele>206</ele>
        <time>2017-10-14T07:24:40.000Z</time>
      </trkpt>
      <trkpt lat="43.61629" lon="6.85186">
        <ele>206</ele>
        <time>2017-10-14T07:24:41.000Z</time>
      </trkpt>
      <trkpt lat="43.61631" lon="6.85188">
        <ele>207</ele>
        <time>2017-10-14T07:24:42.000Z</time>
      </trkpt>
      <trkpt lat="43.61632" lon="6.85189">
        <ele>207</ele>
        <time>2017-10-14T07:24:43.000Z</time>
      </trkpt>
      <trkpt lat="43.61633" lon="6.8519">
        <ele>208</ele>
        <time>2017-10-14T07:24:44.000Z</time>
      </trkpt>
      <trkpt lat="43.61635" lon="6.85191">
        <ele>207</ele>
        <time>2017-10-14T07:24:45.000Z</time>
      </trkpt>
      <trkpt lat="43.61637" lon="6.85192">
        <ele>208</ele>
        <time>2017-10-14T07:24:46.000Z</time>
      </trkpt>
      <trkpt lat="43.61638" lon="6.85193">
        <ele>207</ele>
        <time>2017-10-14T07:24:47.000Z</time>
      </trkpt>
      <trkpt lat="43.6164" lon="6.85195">
        <ele>208</ele>
        <time>2017-10-14T07:24:48.000Z</time>
      </trkpt>
      <trkpt lat="43.61641" lon="6.85196">
        <ele>208</ele>
        <time>2017-10-14T07:24:49.000Z</time>
      </trkpt>
      <trkpt lat="43.61643" lon="6.85198">
        <ele>209</ele>
        <time>2017-10-14T07:24:50.000Z</time>
      </trkpt>
      <trkpt lat="43.61644" lon="6.85199">
        <ele>210</ele>
        <time>2017-10-14T07:24:51.000Z</time>
      </trkpt>
      <trkpt lat="43.61646" lon="6.85201">
        <ele>210</ele>
        <time>2017-10-14T07:24:52.000Z</time>
      </trkpt>
      <trkpt lat="43.61647" lon="6.85203">
        <ele>210</ele>
        <time>2017-10-14T07:24:53.000Z</time>
      </trkpt>
      <trkpt lat="43.61648" lon="6.85204">
        <ele>211</ele>
        <time>2017-10-14T07:24:54.000Z</time>
      </trkpt>
      <trkpt lat="43.61648" lon="6.85205">
        <ele>212</ele>
        <time>2017-10-14T07:24:55.000Z</time>
      </trkpt>
      <trkpt lat="43.61648" lon="6.85206">
        <ele>211</ele>
        <time>2017-10-14T07:24:56.000Z</time>
      </trkpt>
      <trkpt lat="43.61648" lon="6.85207">
        <ele>212</ele>
        <time>2017-10-14T07:24:57.000Z</time>
      </trkpt>
      <trkpt lat="43.61648" lon="6.85207">
        <ele>212</ele>
        <time>2017-10-14T07:24:58.000Z</time>
      </trkpt>
      <trkpt lat="43.61649" lon="6.85208">
        <ele>212</ele>
        <time>2017-10-14T07:24:59.000Z</time>
      </trkpt>
      <trkpt lat="43.61649" lon="6.85209">
        <ele>213</ele>
        <time>2017-10-14T07:25:00.000Z</time>
      </trkpt>
      <trkpt lat="43.6165" lon="6.8521">
        <ele>213</ele>
        <time>2017-10-14T07:25:01.000Z</time>
      </trkpt>
      <trkpt lat="43.61651" lon="6.85211">
        <ele>212</ele>
        <time>2017-10-14T07:25:02.000Z</time>
      </trkpt>
      <trkpt lat="43.61651" lon="6.85212">
        <ele>212</ele>
        <time>2017-10-14T07:25:03.000Z</time>
      </trkpt>
      <trkpt lat="43.61652" lon="6.85213">
        <ele>213</ele>
        <time>2017-10-14T07:25:04.000Z</time>
      </trkpt>
      <trkpt lat="43.61653" lon="6.85215">
        <ele>213</ele>
        <time>2017-10-14T07:25:05.000Z</time>
      </trkpt>
      <trkpt lat="43.61654" lon="6.85216">
        <ele>214</ele>
        <time>2017-10-14T07:25:06.000Z</time>
      </trkpt>
      <trkpt lat="43.61654" lon="6.85218">
        <ele>213</ele>
        <time>2017-10-14T07:25:07.000Z</time>
      </trkpt>
      <trkpt lat="43.61654" lon="6.85219">
        <ele>212</ele>
        <time>2017-10-14T07:25:08.000Z</time>
      </trkpt>
      <trkpt lat="43.61655" lon="6.8522">
        <ele>213</ele>
        <time>2017-10-14T07:25:09.000Z</time>
      </trkpt>
      <trkpt lat="43.61655" lon="6.85221">
        <ele>214</ele>
        <time>2017-10-14T07:25:10.000Z</time>
      </trkpt>
      <trkpt lat="43.61656" lon="6.85222">
        <ele>215</ele>
        <time>2017-10-14T07:25:11.000Z</time>
      </trkpt>
      <trkpt lat="43.61657" lon="6.85223">
        <ele>215</ele>
        <time>2017-10-14T07:25:12.000Z</time>
      </trkpt>
      <trkpt lat="43.61658" lon="6.85224">
        <ele>215</ele>
        <time>2017-10-14T07:25:13.000Z</time>
      </trkpt>
      <trkpt lat="43.61659" lon="6.85224">
        <ele>215</ele>
        <time>2017-10-14T07:25:14.000Z</time>
      </trkpt>
      <trkpt lat="43.6166" lon="6.85225">
        <ele>214</ele>
        <time>2017-10-14T07:25:15.000Z</time>
      </trkpt>
      <trkpt lat="43.61661" lon="6.85226">
        <ele>214</ele>
        <time>2017-10-14T07:25:16.000Z</time>
      </trkpt>
      <trkpt lat="43.61662" lon="6.85226">
        <ele>214</ele>
        <time>2017-10-14T07:25:17.000Z</time>
      </trkpt>
      <trkpt lat="43.61662" lon="6.85227">
        <ele>215</ele>
        <time>2017-10-14T07:25:18.000Z</time>
      </trkpt>
      <trkpt lat="43.61663" lon="6.85227">
        <ele>215</ele>
        <time>2017-10-14T07:25:19.000Z</time>
      </trkpt>
      <trkpt lat="43.61664" lon="6.85228">
        <ele>215</ele>
        <time>2017-10-14T07:25:20.000Z</time>
      </trkpt>
      <trkpt lat="43.61666" lon="6.85228">
        <ele>215</ele>
        <time>2017-10-14T07:25:21.000Z</time>
      </trkpt>
      <trkpt lat="43.61667" lon="6.85228">
        <ele>215</ele>
        <time>2017-10-14T07:25:22.000Z</time>
      </trkpt>
      <trkpt lat="43.61668" lon="6.85229">
        <ele>216</ele>
        <time>2017-10-14T07:25:23.000Z</time>
      </trkpt>
      <trkpt lat="43.6167" lon="6.8523">
        <ele>216</ele>
        <time>2017-10-14T07:25:24.000Z</time>
      </trkpt>
      <trkpt lat="43.61671" lon="6.85231">
        <ele>216</ele>
        <time>2017-10-14T07:25:25.000Z</time>
      </trkpt>
      <trkpt lat="43.61672" lon="6.85232">
        <ele>217</ele>
        <time>2017-10-14T07:25:26.000Z</time>
      </trkpt>
      <trkpt lat="43.61673" lon="6.85234">
        <ele>217</ele>
        <time>2017-10-14T07:25:27.000Z</time>
      </trkpt>
      <trkpt lat="43.61674" lon="6.85235">
        <ele>217</ele>
        <time>2017-10-14T07:25:28.000Z</time>
      </trkpt>
      <trkpt lat="43.61675" lon="6.85236">
        <ele>217</ele>
        <time>2017-10-14T07:25:29.000Z</time>
      </trkpt>
      <trkpt lat="43.61676" lon="6.85237">
        <ele>217</ele>
        <time>2017-10-14T07:25:30.000Z</time>
      </trkpt>
      <trkpt lat="43.61676" lon="6.85238">
        <ele>218</ele>
        <time>2017-10-14T07:25:31.000Z</time>
      </trkpt>
      <trkpt lat="43.61677" lon="6.85239">
        <ele>218</ele>
        <time>2017-10-14T07:25:32.000Z</time>
      </trkpt>
      <trkpt lat="43.61678" lon="6.85239">
        <ele>218</ele>
        <time>2017-10-14T07:25:33.000Z</time>
      </trkpt>
      <trkpt lat="43.61679" lon="6.85241">
        <ele>218</ele>
        <time>2017-10-14T07:25:34.000Z</time>
      </trkpt>
      <trkpt lat="43.61679" lon="6.85241">
        <ele>219</ele>
        <time>2017-10-14T07:25:35.000Z</time>
      </trkpt>
      <trkpt lat="43.6168" lon="6.85242">
        <ele>219</ele>
        <time>2017-10-14T07:25:36.000Z</time>
      </trkpt>
      <trkpt lat="43.6168" lon="6.85243">
        <ele>219</ele>
        <time>2017-10-14T07:25:37.000Z</time>
      </trkpt>
      <trkpt lat="43.61681" lon="6.85243">
        <ele>218</ele>
        <time>2017-10-14T07:25:38.000Z</time>
      </trkpt>
      <trkpt lat="43.61682" lon="6.85244">
        <ele>219</ele>
        <time>2017-10-14T07:25:39.000Z</time>
      </trkpt>
      <trkpt lat="43.61684" lon="6.85244">
        <ele>219</ele>
        <time>2017-10-14T07:25:40.000Z</time>
      </trkpt>
      <trkpt lat="43.61685" lon="6.85244">
        <ele>220</ele>
        <time>2017-10-14T07:25:41.000Z</time>
      </trkpt>
      <trkpt lat="43.61687" lon="6.85244">
        <ele>220</ele>
        <time>2017-10-14T07:25:42.000Z</time>
      </trkpt>
      <trkpt lat="43.61689" lon="6.85245">
        <ele>220</ele>
        <time>2017-10-14T07:25:43.000Z</time>
      </trkpt>
      <trkpt lat="43.61691" lon="6.85245">
        <ele>220</ele>
        <time>2017-10-14T07:25:44.000Z</time>
      </trkpt>
      <trkpt lat="43.61692" lon="6.85246">
        <ele>220</ele>
        <time>2017-10-14T07:25:45.000Z</time>
      </trkpt>
      <trkpt lat="43.61694" lon="6.85246">
        <ele>220</ele>
        <time>2017-10-14T07:25:46.000Z</time>
      </trkpt>
      <trkpt lat="43.61695" lon="6.85247">
        <ele>221</ele>
        <time>2017-10-14T07:25:47.000Z</time>
      </trkpt>
      <trkpt lat="43.61696" lon="6.85248">
        <ele>220</ele>
        <time>2017-10-14T07:25:48.000Z</time>
      </trkpt>
      <trkpt lat="43.61697" lon="6.8525">
        <ele>221</ele>
        <time>2017-10-14T07:25:49.000Z</time>
      </trkpt>
      <trkpt lat="43.61698" lon="6.85251">
        <ele>220</ele>
        <time>2017-10-14T07:25:50.000Z</time>
      </trkpt>
      <trkpt lat="43.617" lon="6.85251">
        <ele>220</ele>
        <time>2017-10-14T07:25:51.000Z</time>
      </trkpt>
      <trkpt lat="43.61701" lon="6.85252">
        <ele>220</ele>
        <time>2017-10-14T07:25:52.000Z</time>
      </trkpt>
      <trkpt lat="43.61703" lon="6.85252">
        <ele>220</ele>
        <time>2017-10-14T07:25:53.000Z</time>
      </trkpt>
      <trkpt lat="43.61705" lon="6.85253">
        <ele>221</ele>
        <time>2017-10-14T07:25:54.000Z</time>
      </trkpt>
      <trkpt lat="43.61706" lon="6.85254">
        <ele>221</ele>
        <time>2017-10-14T07:25:55.000Z</time>
      </trkpt>
      <trkpt lat="43.61707" lon="6.85254">
        <ele>221</ele>
        <time>2017-10-14T07:25:56.000Z</time>
      </trkpt>
      <trkpt lat="43.61708" lon="6.85254">
        <ele>222</ele>
        <time>2017-10-14T07:25:57.000Z</time>
      </trkpt>
      <trkpt lat="43.6171" lon="6.85255">
        <ele>222</ele>
        <time>2017-10-14T07:25:58.000Z</time>
      </trkpt>
      <trkpt lat="43.61711" lon="6.85255">
        <ele>222</ele>
        <time>2017-10-14T07:25:59.000Z</time>
      </trkpt>
      <trkpt lat="43.61713" lon="6.85255">
        <ele>222</ele>
        <time>2017-10-14T07:26:00.000Z</time>
      </trkpt>
      <trkpt lat="43.61715" lon="6.85256">
        <ele>222</ele>
        <time>2017-10-14T07:26:01.000Z</time>
      </trkpt>
      <trkpt lat="43.61716" lon="6.85256">
        <ele>222</ele>
        <time>2017-10-14T07:26:02.000Z</time>
      </trkpt>
      <trkpt lat="43.61717" lon="6.85257">
        <ele>222</ele>
        <time>2017-10-14T07:26:03.000Z</time>
      </trkpt>
      <trkpt lat="43.61719" lon="6.85258">
        <ele>222</ele>
        <time>2017-10-14T07:26:04.000Z</time>
      </trkpt>
      <trkpt lat="43.6172" lon="6.85258">
        <ele>222</ele>
        <time>2017-10-14T07:26:05.000Z</time>
      </trkpt>
      <trkpt lat="43.61721" lon="6.85258">
        <ele>222</ele>
        <time>2017-10-14T07:26:06.000Z</time>
      </trkpt>
      <trkpt lat="43.61723" lon="6.85259">
        <ele>222</ele>
        <time>2017-10-14T07:26:07.000Z</time>
      </trkpt>
      <trkpt lat="43.61724" lon="6.85259">
        <ele>222</ele>
        <time>2017-10-14T07:26:08.000Z</time>
      </trkpt>
      <trkpt lat="43.61726" lon="6.85259">
        <ele>222</ele>
        <time>2017-10-14T07:26:09.000Z</time>
      </trkpt>
      <trkpt lat="43.61727" lon="6.8526">
        <ele>222</ele>
        <time>2017-10-14T07:26:10.000Z</time>
      </trkpt>
      <trkpt lat="43.61729" lon="6.85259">
        <ele>222</ele>
        <time>2017-10-14T07:26:11.000Z</time>
      </trkpt>
      <trkpt lat="43.61731" lon="6.8526">
        <ele>223</ele>
        <time>2017-10-14T07:26:12.000Z</time>
      </trkpt>
      <trkpt lat="43.61733" lon="6.8526">
        <ele>223</ele>
        <time>2017-10-14T07:26:13.000Z</time>
      </trkpt>
      <trkpt lat="43.61734" lon="6.8526">
        <ele>223</ele>
        <time>2017-10-14T07:26:14.000Z</time>
      </trkpt>
      <trkpt lat="43.61736" lon="6.85259">
        <ele>223</ele>
        <time>2017-10-14T07:26:15.000Z</time>
      </trkpt>
      <trkpt lat="43.61737" lon="6.85259">
        <ele>223</ele>
        <time>2017-10-14T07:26:16.000Z</time>
      </trkpt>
      <trkpt lat="43.61738" lon="6.85259">
        <ele>223</ele>
        <time>2017-10-14T07:26:17.000Z</time>
      </trkpt>
      <trkpt lat="43.61739" lon="6.85259">
        <ele>223</ele>
        <time>2017-10-14T07:26:18.000Z</time>
      </trkpt>
      <trkpt lat="43.61741" lon="6.85259">
        <ele>223</ele>
        <time>2017-10-14T07:26:19.000Z</time>
      </trkpt>
      <trkpt lat="43.61742" lon="6.85259">
        <ele>223</ele>
        <time>2017-10-14T07:26:20.000Z</time>
      </trkpt>
      <trkpt lat="43.61744" lon="6.85258">
        <ele>223</ele>
        <time>2017-10-14T07:26:21.000Z</time>
      </trkpt>
      <trkpt lat="43.61746" lon="6.85258">
        <ele>223</ele>
        <time>2017-10-14T07:26:22.000Z</time>
      </trkpt>
      <trkpt lat="43.61748" lon="6.85257">
        <ele>223</ele>
        <time>2017-10-14T07:26:23.000Z</time>
      </trkpt>
      <trkpt lat="43.61751" lon="6.85257">
        <ele>223</ele>
        <time>2017-10-14T07:26:24.000Z</time>
      </trkpt>
      <trkpt lat="43.61753" lon="6.85258">
        <ele>223</ele>
        <time>2017-10-14T07:26:25.000Z</time>
      </trkpt>
      <trkpt lat="43.61754" lon="6.85258">
        <ele>222</ele>
        <time>2017-10-14T07:26:26.000Z</time>
      </trkpt>
      <trkpt lat="43.61755" lon="6.85259">
        <ele>222</ele>
        <time>2017-10-14T07:26:27.000Z</time>
      </trkpt>
      <trkpt lat="43.61756" lon="6.85259">
        <ele>222</ele>
        <time>2017-10-14T07:26:28.000Z</time>
      </trkpt>
      <trkpt lat="43.61758" lon="6.85259">
        <ele>222</ele>
        <time>2017-10-14T07:26:29.000Z</time>
      </trkpt>
      <trkpt lat="43.61759" lon="6.85258">
        <ele>221</ele>
        <time>2017-10-14T07:26:30.000Z</time>
      </trkpt>
      <trkpt lat="43.61761" lon="6.85258">
        <ele>221</ele>
        <time>2017-10-14T07:26:31.000Z</time>
      </trkpt>
      <trkpt lat="43.61763" lon="6.85257">
        <ele>222</ele>
        <time>2017-10-14T07:26:32.000Z</time>
      </trkpt>
      <trkpt lat="43.61764" lon="6.85256">
        <ele>221</ele>
        <time>2017-10-14T07:26:33.000Z</time>
      </trkpt>
      <trkpt lat="43.61766" lon="6.85255">
        <ele>221</ele>
        <time>2017-10-14T07:26:34.000Z</time>
      </trkpt>
      <trkpt lat="43.61768" lon="6.85255">
        <ele>221</ele>
        <time>2017-10-14T07:26:35.000Z</time>
      </trkpt>
      <trkpt lat="43.61769" lon="6.85254">
        <ele>221</ele>
        <time>2017-10-14T07:26:36.000Z</time>
      </trkpt>
      <trkpt lat="43.61771" lon="6.85254">
        <ele>221</ele>
        <time>2017-10-14T07:26:37.000Z</time>
      </trkpt>
      <trkpt lat="43.61774" lon="6.85253">
        <ele>221</ele>
        <time>2017-10-14T07:26:38.000Z</time>
      </trkpt>
      <trkpt lat="43.61776" lon="6.85252">
        <ele>221</ele>
        <time>2017-10-14T07:26:39.000Z</time>
      </trkpt>
      <trkpt lat="43.61777" lon="6.85251">
        <ele>220</ele>
        <time>2017-10-14T07:26:40.000Z</time>
      </trkpt>
      <trkpt lat="43.61779" lon="6.85251">
        <ele>219</ele>
        <time>2017-10-14T07:26:41.000Z</time>
      </trkpt>
      <trkpt lat="43.6178" lon="6.8525">
        <ele>218</ele>
        <time>2017-10-14T07:26:42.000Z</time>
      </trkpt>
      <trkpt lat="43.61781" lon="6.8525">
        <ele>218</ele>
        <time>2017-10-14T07:26:43.000Z</time>
      </trkpt>
      <trkpt lat="43.61782" lon="6.85248">
        <ele>217</ele>
        <time>2017-10-14T07:26:44.000Z</time>
      </trkpt>
      <trkpt lat="43.61784" lon="6.85246">
        <ele>217</ele>
        <time>2017-10-14T07:26:45.000Z</time>
      </trkpt>
      <trkpt lat="43.61785" lon="6.85244">
        <ele>217</ele>
        <time>2017-10-14T07:26:46.000Z</time>
      </trkpt>
      <trkpt lat="43.61787" lon="6.85242">
        <ele>216</ele>
        <time>2017-10-14T07:26:47.000Z</time>
      </trkpt>
      <trkpt lat="43.6179" lon="6.8524">
        <ele>215</ele>
        <time>2017-10-14T07:26:48.000Z</time>
      </trkpt>
      <trkpt lat="43.61792" lon="6.85239">
        <ele>215</ele>
        <time>2017-10-14T07:26:49.000Z</time>
      </trkpt>
      <trkpt lat="43.61794" lon="6.85237">
        <ele>215</ele>
        <time>2017-10-14T07:26:50.000Z</time>
      </trkpt>
      <trkpt lat="43.61796" lon="6.85237">
        <ele>214</ele>
        <time>2017-10-14T07:26:51.000Z</time>
      </trkpt>
      <trkpt lat="43.61798" lon="6.85237">
        <ele>215</ele>
        <time>2017-10-14T07:26:52.000Z</time>
      </trkpt>
      <trkpt lat="43.61801" lon="6.85237">
        <ele>215</ele>
        <time>2017-10-14T07:26:53.000Z</time>
      </trkpt>
      <trkpt lat="43.61803" lon="6.85238">
        <ele>215</ele>
        <time>2017-10-14T07:26:54.000Z</time>
      </trkpt>
      <trkpt lat="43.61805" lon="6.85238">
        <ele>214</ele>
        <time>2017-10-14T07:26:55.000Z</time>
      </trkpt>
      <trkpt lat="43.61808" lon="6.85239">
        <ele>214</ele>
        <time>2017-10-14T07:26:56.000Z</time>
      </trkpt>
      <trkpt lat="43.6181" lon="6.8524">
        <ele>214</ele>
        <time>2017-10-14T07:26:57.000Z</time>
      </trkpt>
      <trkpt lat="43.61812" lon="6.8524">
        <ele>214</ele>
        <time>2017-10-14T07:26:58.000Z</time>
      </trkpt>
      <trkpt lat="43.61814" lon="6.85241">
        <ele>214</ele>
        <time>2017-10-14T07:26:59.000Z</time>
      </trkpt>
      <trkpt lat="43.61816" lon="6.85243">
        <ele>213</ele>
        <time>2017-10-14T07:27:00.000Z</time>
      </trkpt>
      <trkpt lat="43.61818" lon="6.85244">
        <ele>213</ele>
        <time>2017-10-14T07:27:01.000Z</time>
      </trkpt>
      <trkpt lat="43.6182" lon="6.85245">
        <ele>213</ele>
        <time>2017-10-14T07:27:02.000Z</time>
      </trkpt>
      <trkpt lat="43.61823" lon="6.85246">
        <ele>212</ele>
        <time>2017-10-14T07:27:03.000Z</time>
      </trkpt>
      <trkpt lat="43.61825" lon="6.85248">
        <ele>212</ele>
        <time>2017-10-14T07:27:04.000Z</time>
      </trkpt>
      <trkpt lat="43.61827" lon="6.8525">
        <ele>213</ele>
        <time>2017-10-14T07:27:05.000Z</time>
      </trkpt>
      <trkpt lat="43.61829" lon="6.85252">
        <ele>213</ele>
        <time>2017-10-14T07:27:06.000Z</time>
      </trkpt>
      <trkpt lat="43.61831" lon="6.85256">
        <ele>212</ele>
        <time>2017-10-14T07:27:07.000Z</time>
      </trkpt>
      <trkpt lat="43.61832" lon="6.85258">
        <ele>213</ele>
        <time>2017-10-14T07:27:08.000Z</time>
      </trkpt>
      <trkpt lat="43.61833" lon="6.85261">
        <ele>212</ele>
        <time>2017-10-14T07:27:09.000Z</time>
      </trkpt>
      <trkpt lat="43.61833" lon="6.85265">
        <ele>212</ele>
        <time>2017-10-14T07:27:10.000Z</time>
      </trkpt>
      <trkpt lat="43.61833" lon="6.85268">
        <ele>212</ele>
        <time>2017-10-14T07:27:11.000Z</time>
      </trkpt>
      <trkpt lat="43.61833" lon="6.85271">
        <ele>211</ele>
        <time>2017-10-14T07:27:12.000Z</time>
      </trkpt>
      <trkpt lat="43.61833" lon="6.85275">
        <ele>211</ele>
        <time>2017-10-14T07:27:13.000Z</time>
      </trkpt>
      <trkpt lat="43.61832" lon="6.85278">
        <ele>211</ele>
        <time>2017-10-14T07:27:14.000Z</time>
      </trkpt>
      <trkpt lat="43.61831" lon="6.85282">
        <ele>210</ele>
        <time>2017-10-14T07:27:15.000Z</time>
      </trkpt>
      <trkpt lat="43.61831" lon="6.85285">
        <ele>210</ele>
        <time>2017-10-14T07:27:16.000Z</time>
      </trkpt>
      <trkpt lat="43.6183" lon="6.85288">
        <ele>210</ele>
        <time>2017-10-14T07:27:17.000Z</time>
      </trkpt>
      <trkpt lat="43.61829" lon="6.85292">
        <ele>210</ele>
        <time>2017-10-14T07:27:18.000Z</time>
      </trkpt>
      <trkpt lat="43.61829" lon="6.85295">
        <ele>209</ele>
        <time>2017-10-14T07:27:19.000Z</time>
      </trkpt>
      <trkpt lat="43.61828" lon="6.85299">
        <ele>209</ele>
        <time>2017-10-14T07:27:20.000Z</time>
      </trkpt>
      <trkpt lat="43.61827" lon="6.85302">
        <ele>208</ele>
        <time>2017-10-14T07:27:21.000Z</time>
      </trkpt>
      <trkpt lat="43.61826" lon="6.85305">
        <ele>207</ele>
        <time>2017-10-14T07:27:22.000Z</time>
      </trkpt>
      <trkpt lat="43.61825" lon="6.85309">
        <ele>206</ele>
        <time>2017-10-14T07:27:23.000Z</time>
      </trkpt>
      <trkpt lat="43.61825" lon="6.85312">
        <ele>205</ele>
        <time>2017-10-14T07:27:24.000Z</time>
      </trkpt>
      <trkpt lat="43.61824" lon="6.85316">
        <ele>205</ele>
        <time>2017-10-14T07:27:25.000Z</time>
      </trkpt>
      <trkpt lat="43.61824" lon="6.85319">
        <ele>204</ele>
        <time>2017-10-14T07:27:26.000Z</time>
      </trkpt>
      <trkpt lat="43.61824" lon="6.85322">
        <ele>203</ele>
        <time>2017-10-14T07:27:27.000Z</time>
      </trkpt>
      <trkpt lat="43.61824" lon="6.85325">
        <ele>202</ele>
        <time>2017-10-14T07:27:28.000Z</time>
      </trkpt>
      <trkpt lat="43.61825" lon="6.85327">
        <ele>201</ele>
        <time>2017-10-14T07:27:29.000Z</time>
      </trkpt>
      <trkpt lat="43.61827" lon="6.85329">
        <ele>200</ele>
        <time>2017-10-14T07:27:30.000Z</time>
      </trkpt>
      <trkpt lat="43.61828" lon="6.85331">
        <ele>200</ele>
        <time>2017-10-14T07:27:31.000Z</time>
      </trkpt>
      <trkpt lat="43.6183" lon="6.85334">
        <ele>201</ele>
        <time>2017-10-14T07:27:32.000Z</time>
      </trkpt>
      <trkpt lat="43.61833" lon="6.85336">
        <ele>201</ele>
        <time>2017-10-14T07:27:33.000Z</time>
      </trkpt>
      <trkpt lat="43.61835" lon="6.85338">
        <ele>202</ele>
        <time>2017-10-14T07:27:34.000Z</time>
      </trkpt>
      <trkpt lat="43.61837" lon="6.85341">
        <ele>203</ele>
        <time>2017-10-14T07:27:35.000Z</time>
      </trkpt>
      <trkpt lat="43.61839" lon="6.85344">
        <ele>204</ele>
        <time>2017-10-14T07:27:36.000Z</time>
      </trkpt>
      <trkpt lat="43.61841" lon="6.85346">
        <ele>204</ele>
        <time>2017-10-14T07:27:37.000Z</time>
      </trkpt>
      <trkpt lat="43.61843" lon="6.85348">
        <ele>204</ele>
        <time>2017-10-14T07:27:38.000Z</time>
      </trkpt>
      <trkpt lat="43.61845" lon="6.8535">
        <ele>205</ele>
        <time>2017-10-14T07:27:39.000Z</time>
      </trkpt>
      <trkpt lat="43.61847" lon="6.85352">
        <ele>205</ele>
        <time>2017-10-14T07:27:40.000Z</time>
      </trkpt>
      <trkpt lat="43.61849" lon="6.85353">
        <ele>206</ele>
        <time>2017-10-14T07:27:41.000Z</time>
      </trkpt>
      <trkpt lat="43.6185" lon="6.85355">
        <ele>206</ele>
        <time>2017-10-14T07:27:42.000Z</time>
      </trkpt>
      <trkpt lat="43.61852" lon="6.85357">
        <ele>206</ele>
        <time>2017-10-14T07:27:43.000Z</time>
      </trkpt>
      <trkpt lat="43.61854" lon="6.85358">
        <ele>206</ele>
        <time>2017-10-14T07:27:44.000Z</time>
      </trkpt>
      <trkpt lat="43.61856" lon="6.85359">
        <ele>206</ele>
        <time>2017-10-14T07:27:45.000Z</time>
      </trkpt>
      <trkpt lat="43.61858" lon="6.85358">
        <ele>206</ele>
        <time>2017-10-14T07:27:46.000Z</time>
      </trkpt>
      <trkpt lat="43.61861" lon="6.85358">
        <ele>206</ele>
        <time>2017-10-14T07:27:47.000Z</time>
      </trkpt>
      <trkpt lat="43.61863" lon="6.85356">
        <ele>207</ele>
        <time>2017-10-14T07:27:48.000Z</time>
      </trkpt>
      <trkpt lat="43.61865" lon="6.85355">
        <ele>208</ele>
        <time>2017-10-14T07:27:49.000Z</time>
      </trkpt>
      <trkpt lat="43.61867" lon="6.85354">
        <ele>209</ele>
        <time>2017-10-14T07:27:50.000Z</time>
      </trkpt>
      <trkpt lat="43.61868" lon="6.85353">
        <ele>209</ele>
        <time>2017-10-14T07:27:51.000Z</time>
      </trkpt>
      <trkpt lat="43.6187" lon="6.85352">
        <ele>209</ele>
        <time>2017-10-14T07:27:52.000Z</time>
      </trkpt>
      <trkpt lat="43.61872" lon="6.85352">
        <ele>209</ele>
        <time>2017-10-14T07:27:53.000Z</time>
      </trkpt>
      <trkpt lat="43.61874" lon="6.85351">
        <ele>210</ele>
        <time>2017-10-14T07:27:54.000Z</time>
      </trkpt>
      <trkpt lat="43.61876" lon="6.8535">
        <ele>211</ele>
        <time>2017-10-14T07:27:55.000Z</time>
      </trkpt>
      <trkpt lat="43.61878" lon="6.85349">
        <ele>212</ele>
        <time>2017-10-14T07:27:56.000Z</time>
      </trkpt>
      <trkpt lat="43.6188" lon="6.85348">
        <ele>212</ele>
        <time>2017-10-14T07:27:57.000Z</time>
      </trkpt>
      <trkpt lat="43.61881" lon="6.85348">
        <ele>212</ele>
        <time>2017-10-14T07:27:58.000Z</time>
      </trkpt>
      <trkpt lat="43.61883" lon="6.85348">
        <ele>212</ele>
        <time>2017-10-14T07:27:59.000Z</time>
      </trkpt>
      <trkpt lat="43.61885" lon="6.85348">
        <ele>212</ele>
        <time>2017-10-14T07:28:00.000Z</time>
      </trkpt>
      <trkpt lat="43.61887" lon="6.85348">
        <ele>213</ele>
        <time>2017-10-14T07:28:01.000Z</time>
      </trkpt>
      <trkpt lat="43.61889" lon="6.85348">
        <ele>213</ele>
        <time>2017-10-14T07:28:02.000Z</time>
      </trkpt>
      <trkpt lat="43.61891" lon="6.85348">
        <ele>214</ele>
        <time>2017-10-14T07:28:03.000Z</time>
      </trkpt>
      <trkpt lat="43.61892" lon="6.85349">
        <ele>214</ele>
        <time>2017-10-14T07:28:04.000Z</time>
      </trkpt>
      <trkpt lat="43.61894" lon="6.85349">
        <ele>215</ele>
        <time>2017-10-14T07:28:05.000Z</time>
      </trkpt>
      <trkpt lat="43.61895" lon="6.85349">
        <ele>215</ele>
        <time>2017-10-14T07:28:06.000Z</time>
      </trkpt>
      <trkpt lat="43.61896" lon="6.85349">
        <ele>216</ele>
        <time>2017-10-14T07:28:07.000Z</time>
      </trkpt>
      <trkpt lat="43.61897" lon="6.85349">
        <ele>216</ele>
        <time>2017-10-14T07:28:08.000Z</time>
      </trkpt>
      <trkpt lat="43.61899" lon="6.85349">
        <ele>216</ele>
        <time>2017-10-14T07:28:09.000Z</time>
      </trkpt>
      <trkpt lat="43.61899" lon="6.85349">
        <ele>217</ele>
        <time>2017-10-14T07:28:10.000Z</time>
      </trkpt>
      <trkpt lat="43.619" lon="6.85349">
        <ele>218</ele>
        <time>2017-10-14T07:28:11.000Z</time>
      </trkpt>
      <trkpt lat="43.61902" lon="6.85349">
        <ele>218</ele>
        <time>2017-10-14T07:28:12.000Z</time>
      </trkpt>
      <trkpt lat="43.61903" lon="6.8535">
        <ele>218</ele>
        <time>2017-10-14T07:28:13.000Z</time>
      </trkpt>
      <trkpt lat="43.61905" lon="6.8535">
        <ele>219</ele>
        <time>2017-10-14T07:28:14.000Z</time>
      </trkpt>
      <trkpt lat="43.61906" lon="6.8535">
        <ele>219</ele>
        <time>2017-10-14T07:28:15.000Z</time>
      </trkpt>
      <trkpt lat="43.61907" lon="6.85351">
        <ele>220</ele>
        <time>2017-10-14T07:28:16.000Z</time>
      </trkpt>
      <trkpt lat="43.61908" lon="6.85351">
        <ele>221</ele>
        <time>2017-10-14T07:28:17.000Z</time>
      </trkpt>
      <trkpt lat="43.61909" lon="6.85351">
        <ele>221</ele>
        <time>2017-10-14T07:28:18.000Z</time>
      </trkpt>
      <trkpt lat="43.6191" lon="6.85352">
        <ele>221</ele>
        <time>2017-10-14T07:28:19.000Z</time>
      </trkpt>
      <trkpt lat="43.61912" lon="6.85352">
        <ele>221</ele>
        <time>2017-10-14T07:28:20.000Z</time>
      </trkpt>
      <trkpt lat="43.61913" lon="6.85353">
        <ele>222</ele>
        <time>2017-10-14T07:28:21.000Z</time>
      </trkpt>
      <trkpt lat="43.61914" lon="6.85353">
        <ele>222</ele>
        <time>2017-10-14T07:28:22.000Z</time>
      </trkpt>
      <trkpt lat="43.61916" lon="6.85354">
        <ele>222</ele>
        <time>2017-10-14T07:28:23.000Z</time>
      </trkpt>
      <trkpt lat="43.61917" lon="6.85355">
        <ele>223</ele>
        <time>2017-10-14T07:28:24.000Z</time>
      </trkpt>
      <trkpt lat="43.61918" lon="6.85355">
        <ele>223</ele>
        <time>2017-10-14T07:28:25.000Z</time>
      </trkpt>
      <trkpt lat="43.61919" lon="6.85356">
        <ele>223</ele>
        <time>2017-10-14T07:28:26.000Z</time>
      </trkpt>
      <trkpt lat="43.61921" lon="6.85356">
        <ele>223</ele>
        <time>2017-10-14T07:28:27.000Z</time>
      </trkpt>
      <trkpt lat="43.61922" lon="6.85357">
        <ele>223</ele>
        <time>2017-10-14T07:28:28.000Z</time>
      </trkpt>
      <trkpt lat="43.61923" lon="6.85357">
        <ele>223</ele>
        <time>2017-10-14T07:28:29.000Z</time>
      </trkpt>
      <trkpt lat="43.61925" lon="6.85357">
        <ele>223</ele>
        <time>2017-10-14T07:28:30.000Z</time>
      </trkpt>
      <trkpt lat="43.61926" lon="6.85358">
        <ele>223</ele>
        <time>2017-10-14T07:28:31.000Z</time>
      </trkpt>
      <trkpt lat="43.61927" lon="6.85358">
        <ele>222</ele>
        <time>2017-10-14T07:28:32.000Z</time>
      </trkpt>
      <trkpt lat="43.61929" lon="6.85359">
        <ele>223</ele>
        <time>2017-10-14T07:28:33.000Z</time>
      </trkpt>
      <trkpt lat="43.61931" lon="6.8536">
        <ele>223</ele>
        <time>2017-10-14T07:28:34.000Z</time>
      </trkpt>
      <trkpt lat="43.61932" lon="6.85361">
        <ele>223</ele>
        <time>2017-10-14T07:28:35.000Z</time>
      </trkpt>
      <trkpt lat="43.61934" lon="6.85362">
        <ele>223</ele>
        <time>2017-10-14T07:28:36.000Z</time>
      </trkpt>
      <trkpt lat="43.61935" lon="6.85362">
        <ele>223</ele>
        <time>2017-10-14T07:28:37.000Z</time>
      </trkpt>
      <trkpt lat="43.61937" lon="6.85362">
        <ele>223</ele>
        <time>2017-10-14T07:28:38.000Z</time>
      </trkpt>
      <trkpt lat="43.61939" lon="6.85363">
        <ele>223</ele>
        <time>2017-10-14T07:28:39.000Z</time>
      </trkpt>
      <trkpt lat="43.6194" lon="6.85363">
        <ele>223</ele>
        <time>2017-10-14T07:28:40.000Z</time>
      </trkpt>
      <trkpt lat="43.61942" lon="6.85363">
        <ele>223</ele>
        <time>2017-10-14T07:28:41.000Z</time>
      </trkpt>
      <trkpt lat="43.61943" lon="6.85363">
        <ele>223</ele>
        <time>2017-10-14T07:28:42.000Z</time>
      </trkpt>
      <trkpt lat="43.61944" lon="6.85363">
        <ele>224</ele>
        <time>2017-10-14T07:28:43.000Z</time>
      </trkpt>
      <trkpt lat="43.61946" lon="6.85363">
        <ele>224</ele>
        <time>2017-10-14T07:28:44.000Z</time>
      </trkpt>
      <trkpt lat="43.61948" lon="6.85363">
        <ele>224</ele>
        <time>2017-10-14T07:28:45.000Z</time>
      </trkpt>
      <trkpt lat="43.6195" lon="6.85363">
        <ele>224</ele>
        <time>2017-10-14T07:28:46.000Z</time>
      </trkpt>
      <trkpt lat="43.61951" lon="6.85363">
        <ele>224</ele>
        <time>2017-10-14T07:28:47.000Z</time>
      </trkpt>
      <trkpt lat="43.61953" lon="6.85363">
        <ele>224</ele>
        <time>2017-10-14T07:28:48.000Z</time>
      </trkpt>
      <trkpt lat="43.61955" lon="6.85363">
        <ele>224</ele>
        <time>2017-10-14T07:28:49.000Z</time>
      </trkpt>
      <trkpt lat="43.61957" lon="6.85363">
        <ele>224</ele>
        <time>2017-10-14T07:28:50.000Z</time>
      </trkpt>
      <trkpt lat="43.61958" lon="6.85364">
        <ele>223</ele>
        <time>2017-10-14T07:28:51.000Z</time>
      </trkpt>
      <trkpt lat="43.6196" lon="6.85365">
        <ele>224</ele>
        <time>2017-10-14T07:28:52.000Z</time>
      </trkpt>
      <trkpt lat="43.61961" lon="6.85366">
        <ele>223</ele>
        <time>2017-10-14T07:28:53.000Z</time>
      </trkpt>
      <trkpt lat="43.61963" lon="6.85367">
        <ele>224</ele>
        <time>2017-10-14T07:28:54.000Z</time>
      </trkpt>
      <trkpt lat="43.61964" lon="6.85367">
        <ele>224</ele>
        <time>2017-10-14T07:28:55.000Z</time>
      </trkpt>
      <trkpt lat="43.61965" lon="6.85368">
        <ele>225</ele>
        <time>2017-10-14T07:28:56.000Z</time>
      </trkpt>
      <trkpt lat="43.61966" lon="6.85369">
        <ele>225</ele>
        <time>2017-10-14T07:28:57.000Z</time>
      </trkpt>
      <trkpt lat="43.61968" lon="6.8537">
        <ele>226</ele>
        <time>2017-10-14T07:28:58.000Z</time>
      </trkpt>
      <trkpt lat="43.61969" lon="6.85371">
        <ele>226</ele>
        <time>2017-10-14T07:28:59.000Z</time>
      </trkpt>
      <trkpt lat="43.6197" lon="6.85372">
        <ele>226</ele>
        <time>2017-10-14T07:29:00.000Z</time>
      </trkpt>
      <trkpt lat="43.61971" lon="6.85373">
        <ele>227</ele>
        <time>2017-10-14T07:29:01.000Z</time>
      </trkpt>
      <trkpt lat="43.61972" lon="6.85374">
        <ele>227</ele>
        <time>2017-10-14T07:29:02.000Z</time>
      </trkpt>
      <trkpt lat="43.61972" lon="6.85374">
        <ele>227</ele>
        <time>2017-10-14T07:29:03.000Z</time>
      </trkpt>
      <trkpt lat="43.61973" lon="6.85375">
        <ele>227</ele>
        <time>2017-10-14T07:29:04.000Z</time>
      </trkpt>
      <trkpt lat="43.61974" lon="6.85376">
        <ele>228</ele>
        <time>2017-10-14T07:29:05.000Z</time>
      </trkpt>
      <trkpt lat="43.61976" lon="6.85377">
        <ele>228</ele>
        <time>2017-10-14T07:29:06.000Z</time>
      </trkpt>
      <trkpt lat="43.61977" lon="6.85378">
        <ele>228</ele>
        <time>2017-10-14T07:29:07.000Z</time>
      </trkpt>
      <trkpt lat="43.61978" lon="6.85378">
        <ele>229</ele>
        <time>2017-10-14T07:29:08.000Z</time>
      </trkpt>
      <trkpt lat="43.61978" lon="6.85379">
        <ele>229</ele>
        <time>2017-10-14T07:29:09.000Z</time>
      </trkpt>
      <trkpt lat="43.61979" lon="6.8538">
        <ele>229</ele>
        <time>2017-10-14T07:29:10.000Z</time>
      </trkpt>
      <trkpt lat="43.6198" lon="6.85381">
        <ele>229</ele>
        <time>2017-10-14T07:29:11.000Z</time>
      </trkpt>
      <trkpt lat="43.61981" lon="6.85382">
        <ele>229</ele>
        <time>2017-10-14T07:29:12.000Z</time>
      </trkpt>
      <trkpt lat="43.61982" lon="6.85382">
        <ele>230</ele>
        <time>2017-10-14T07:29:13.000Z</time>
      </trkpt>
      <trkpt lat="43.61983" lon="6.85383">
        <ele>230</ele>
        <time>2017-10-14T07:29:14.000Z</time>
      </trkpt>
      <trkpt lat="43.61984" lon="6.85384">
        <ele>231</ele>
        <time>2017-10-14T07:29:15.000Z</time>
      </trkpt>
      <trkpt lat="43.61985" lon="6.85385">
        <ele>231</ele>
        <time>2017-10-14T07:29:16.000Z</time>
      </trkpt>
      <trkpt lat="43.61986" lon="6.85385">
        <ele>231</ele>
        <time>2017-10-14T07:29:17.000Z</time>
      </trkpt>
      <trkpt lat="43.61987" lon="6.85386">
        <ele>231</ele>
        <time>2017-10-14T07:29:18.000Z</time>
      </trkpt>
      <trkpt lat="43.61988" lon="6.85387">
        <ele>231</ele>
        <time>2017-10-14T07:29:19.000Z</time>
      </trkpt>
      <trkpt lat="43.61989" lon="6.85389">
        <ele>231</ele>
        <time>2017-10-14T07:29:20.000Z</time>
      </trkpt>
      <trkpt lat="43.6199" lon="6.8539">
        <ele>231</ele>
        <time>2017-10-14T07:29:21.000Z</time>
      </trkpt>
      <trkpt lat="43.61991" lon="6.85391">
        <ele>232</ele>
        <time>2017-10-14T07:29:22.000Z</time>
      </trkpt>
      <trkpt lat="43.61991" lon="6.85392">
        <ele>232</ele>
        <time>2017-10-14T07:29:23.000Z</time>
      </trkpt>
      <trkpt lat="43.61992" lon="6.85394">
        <ele>232</ele>
        <time>2017-10-14T07:29:24.000Z</time>
      </trkpt>
      <trkpt lat="43.61993" lon="6.85395">
        <ele>231</ele>
        <time>2017-10-14T07:29:25.000Z</time>
      </trkpt>
      <trkpt lat="43.61994" lon="6.85396">
        <ele>232</ele>
        <time>2017-10-14T07:29:26.000Z</time>
      </trkpt>
      <trkpt lat="43.61994" lon="6.85397">
        <ele>232</ele>
        <time>2017-10-14T07:29:27.000Z</time>
      </trkpt>
      <trkpt lat="43.61995" lon="6.85398">
        <ele>232</ele>
        <time>2017-10-14T07:29:28.000Z</time>
      </trkpt>
      <trkpt lat="43.61995" lon="6.854">
        <ele>232</ele>
        <time>2017-10-14T07:29:29.000Z</time>
      </trkpt>
      <trkpt lat="43.61996" lon="6.85401">
        <ele>232</ele>
        <time>2017-10-14T07:29:30.000Z</time>
      </trkpt>
      <trkpt lat="43.61997" lon="6.85403">
        <ele>232</ele>
        <time>2017-10-14T07:29:31.000Z</time>
      </trkpt>
      <trkpt lat="43.61997" lon="6.85404">
        <ele>232</ele>
        <time>2017-10-14T07:29:32.000Z</time>
      </trkpt>
      <trkpt lat="43.61998" lon="6.85405">
        <ele>232</ele>
        <time>2017-10-14T07:29:33.000Z</time>
      </trkpt>
      <trkpt lat="43.61999" lon="6.85406">
        <ele>232</ele>
        <time>2017-10-14T07:29:34.000Z</time>
      </trkpt>
      <trkpt lat="43.62" lon="6.85407">
        <ele>232</ele>
        <time>2017-10-14T07:29:35.000Z</time>
      </trkpt>
      <trkpt lat="43.62001" lon="6.85409">
        <ele>233</ele>
        <time>2017-10-14T07:29:36.000Z</time>
      </trkpt>
      <trkpt lat="43.62002" lon="6.8541">
        <ele>234</ele>
        <time>2017-10-14T07:29:37.000Z</time>
      </trkpt>
      <trkpt lat="43.62003" lon="6.85412">
        <ele>234</ele>
        <time>2017-10-14T07:29:38.000Z</time>
      </trkpt>
      <trkpt lat="43.62004" lon="6.85413">
        <ele>234</ele>
        <time>2017-10-14T07:29:39.000Z</time>
      </trkpt>
      <trkpt lat="43.62005" lon="6.85415">
        <ele>235</ele>
        <time>2017-10-14T07:29:40.000Z</time>
      </trkpt>
      <trkpt lat="43.62007" lon="6.85416">
        <ele>235</ele>
        <time>2017-10-14T07:29:41.000Z</time>
      </trkpt>
      <trkpt lat="43.62008" lon="6.85418">
        <ele>235</ele>
        <time>2017-10-14T07:29:42.000Z</time>
      </trkpt>
      <trkpt lat="43.62009" lon="6.8542">
        <ele>234</ele>
        <time>2017-10-14T07:29:43.000Z</time>
      </trkpt>
      <trkpt lat="43.6201" lon="6.85422">
        <ele>234</ele>
        <time>2017-10-14T07:29:44.000Z</time>
      </trkpt>
      <trkpt lat="43.62011" lon="6.85424">
        <ele>235</ele>
        <time>2017-10-14T07:29:45.000Z</time>
      </trkpt>
      <trkpt lat="43.62012" lon="6.85426">
        <ele>234</ele>
        <time>2017-10-14T07:29:46.000Z</time>
      </trkpt>
      <trkpt lat="43.62013" lon="6.85428">
        <ele>234</ele>
        <time>2017-10-14T07:29:47.000Z</time>
      </trkpt>
      <trkpt lat="43.62014" lon="6.8543">
        <ele>234</ele>
        <time>2017-10-14T07:29:48.000Z</time>
      </trkpt>
      <trkpt lat="43.62015" lon="6.85433">
        <ele>234</ele>
        <time>2017-10-14T07:29:49.000Z</time>
      </trkpt>
      <trkpt lat="43.62016" lon="6.85435">
        <ele>234</ele>
        <time>2017-10-14T07:29:50.000Z</time>
      </trkpt>
      <trkpt lat="43.62017" lon="6.85437">
        <ele>235</ele>
        <time>2017-10-14T07:29:51.000Z</time>
      </trkpt>
      <trkpt lat="43.62018" lon="6.85439">
        <ele>236</ele>
        <time>2017-10-14T07:29:52.000Z</time>
      </trkpt>
      <trkpt lat="43.62018" lon="6.85441">
        <ele>236</ele>
        <time>2017-10-14T07:29:53.000Z</time>
      </trkpt>
      <trkpt lat="43.62019" lon="6.85444">
        <ele>236</ele>
        <time>2017-10-14T07:29:54.000Z</time>
      </trkpt>
      <trkpt lat="43.6202" lon="6.85445">
        <ele>236</ele>
        <time>2017-10-14T07:29:55.000Z</time>
      </trkpt>
      <trkpt lat="43.6202" lon="6.85448">
        <ele>237</ele>
        <time>2017-10-14T07:29:56.000Z</time>
      </trkpt>
      <trkpt lat="43.62021" lon="6.8545">
        <ele>237</ele>
        <time>2017-10-14T07:29:57.000Z</time>
      </trkpt>
      <trkpt lat="43.62021" lon="6.85453">
        <ele>237</ele>
        <time>2017-10-14T07:29:58.000Z</time>
      </trkpt>
      <trkpt lat="43.62021" lon="6.85456">
        <ele>237</ele>
        <time>2017-10-14T07:29:59.000Z</time>
      </trkpt>
      <trkpt lat="43.62021" lon="6.85458">
        <ele>236</ele>
        <time>2017-10-14T07:30:00.000Z</time>
      </trkpt>
      <trkpt lat="43.62021" lon="6.8546">
        <ele>236</ele>
        <time>2017-10-14T07:30:01.000Z</time>
      </trkpt>
      <trkpt lat="43.62021" lon="6.85462">
        <ele>237</ele>
        <time>2017-10-14T07:30:02.000Z</time>
      </trkpt>
      <trkpt lat="43.62021" lon="6.85464">
        <ele>236</ele>
        <time>2017-10-14T07:30:03.000Z</time>
      </trkpt>
      <trkpt lat="43.62021" lon="6.85467">
        <ele>236</ele>
        <time>2017-10-14T07:30:04.000Z</time>
      </trkpt>
      <trkpt lat="43.6202" lon="6.85468">
        <ele>236</ele>
        <time>2017-10-14T07:30:05.000Z</time>
      </trkpt>
      <trkpt lat="43.6202" lon="6.8547">
        <ele>236</ele>
        <time>2017-10-14T07:30:06.000Z</time>
      </trkpt>
      <trkpt lat="43.6202" lon="6.85472">
        <ele>237</ele>
        <time>2017-10-14T07:30:07.000Z</time>
      </trkpt>
      <trkpt lat="43.62019" lon="6.85474">
        <ele>237</ele>
        <time>2017-10-14T07:30:08.000Z</time>
      </trkpt>
      <trkpt lat="43.62019" lon="6.85476">
        <ele>236</ele>
        <time>2017-10-14T07:30:09.000Z</time>
      </trkpt>
      <trkpt lat="43.62019" lon="6.85478">
        <ele>236</ele>
        <time>2017-10-14T07:30:10.000Z</time>
      </trkpt>
      <trkpt lat="43.62019" lon="6.8548">
        <ele>236</ele>
        <time>2017-10-14T07:30:11.000Z</time>
      </trkpt>
      <trkpt lat="43.62019" lon="6.85482">
        <ele>237</ele>
        <time>2017-10-14T07:30:12.000Z</time>
      </trkpt>
      <trkpt lat="43.62018" lon="6.85483">
        <ele>236</ele>
        <time>2017-10-14T07:30:13.000Z</time>
      </trkpt>
      <trkpt lat="43.62018" lon="6.85485">
        <ele>236</ele>
        <time>2017-10-14T07:30:14.000Z</time>
      </trkpt>
      <trkpt lat="43.62017" lon="6.85486">
        <ele>236</ele>
        <time>2017-10-14T07:30:15.000Z</time>
      </trkpt>
      <trkpt lat="43.62017" lon="6.85487">
        <ele>237</ele>
        <time>2017-10-14T07:30:16.000Z</time>
      </trkpt>
      <trkpt lat="43.62016" lon="6.85488">
        <ele>237</ele>
        <time>2017-10-14T07:30:17.000Z</time>
      </trkpt>
      <trkpt lat="43.62016" lon="6.85489">
        <ele>236</ele>
        <time>2017-10-14T07:30:18.000Z</time>
      </trkpt>
      <trkpt lat="43.62015" lon="6.8549">
        <ele>237</ele>
        <time>2017-10-14T07:30:19.000Z</time>
      </trkpt>
      <trkpt lat="43.62015" lon="6.85491">
        <ele>237</ele>
        <time>2017-10-14T07:30:20.000Z</time>
      </trkpt>
      <trkpt lat="43.62014" lon="6.85492">
        <ele>237</ele>
        <time>2017-10-14T07:30:21.000Z</time>
      </trkpt>
      <trkpt lat="43.62014" lon="6.85492">
        <ele>237</ele>
        <time>2017-10-14T07:30:22.000Z</time>
      </trkpt>
      <trkpt lat="43.62014" lon="6.85492">
        <ele>237</ele>
        <time>2017-10-14T07:30:23.000Z</time>
      </trkpt>
      <trkpt lat="43.62014" lon="6.85492">
        <ele>237</ele>
        <time>2017-10-14T07:30:24.000Z</time>
      </trkpt>
      <trkpt lat="43.62014" lon="6.85492">
        <ele>238</ele>
        <time>2017-10-14T07:30:25.000Z</time>
      </trkpt>
      <trkpt lat="43.62013" lon="6.85492">
        <ele>237</ele>
        <time>2017-10-14T07:30:26.000Z</time>
      </trkpt>
      <trkpt lat="43.62013" lon="6.85493">
        <ele>237</ele>
        <time>2017-10-14T07:30:27.000Z</time>
      </trkpt>
      <trkpt lat="43.62013" lon="6.85493">
        <ele>236</ele>
        <time>2017-10-14T07:30:28.000Z</time>
      </trkpt>
      <trkpt lat="43.62013" lon="6.85494">
        <ele>237</ele>
        <time>2017-10-14T07:30:29.000Z</time>
      </trkpt>
      <trkpt lat="43.62013" lon="6.85494">
        <ele>237</ele>
        <time>2017-10-14T07:30:30.000Z</time>
      </trkpt>
      <trkpt lat="43.62013" lon="6.85494">
        <ele>237</ele>
        <time>2017-10-14T07:30:31.000Z</time>
      </trkpt>
      <trkpt lat="43.62013" lon="6.85494">
        <ele>238</ele>
        <time>2017-10-14T07:30:32.000Z</time>
      </trkpt>
      <trkpt lat="43.62013" lon="6.85494">
        <ele>238</ele>
        <time>2017-10-14T07:30:33.000Z</time>
      </trkpt>
      <trkpt lat="43.62014" lon="6.85494">
        <ele>238</ele>
        <time>2017-10-14T07:30:34.000Z</time>
      </trkpt>
      <trkpt lat="43.62014" lon="6.85495">
        <ele>238</ele>
        <time>2017-10-14T07:30:35.000Z</time>
      </trkpt>
      <trkpt lat="43.62014" lon="6.85495">
        <ele>238</ele>
        <time>2017-10-14T07:30:36.000Z</time>
      </trkpt>
      <trkpt lat="43.62014" lon="6.85495">
        <ele>238</ele>
        <time>2017-10-14T07:30:37.000Z</time>
      </trkpt>
      <trkpt lat="43.62014" lon="6.85495">
        <ele>238</ele>
        <time>2017-10-14T07:30:38.000Z</time>
      </trkpt>
      <trkpt lat="43.62014" lon="6.85495">
        <ele>238</ele>
        <time>2017-10-14T07:30:39.000Z</time>
      </trkpt>
      <trkpt lat="43.62014" lon="6.85496">
        <ele>237</ele>
        <time>2017-10-14T07:30:40.000Z</time>
      </trkpt>
      <trkpt lat="43.62014" lon="6.85496">
        <ele>238</ele>
        <time>2017-10-14T07:30:41.000Z</time>
      </trkpt>
      <trkpt lat="43.62014" lon="6.85496">
        <ele>239</ele>
        <time>2017-10-14T07:30:42.000Z</time>
      </trkpt>
      <trkpt lat="43.62014" lon="6.85496">
        <ele>239</ele>
        <time>2017-10-14T07:30:43.000Z</time>
      </trkpt>
      <trkpt lat="43.62013" lon="6.85496">
        <ele>238</ele>
        <time>2017-10-14T07:30:44.000Z</time>
      </trkpt>
      <trkpt lat="43.62013" lon="6.85496">
        <ele>238</ele>
        <time>2017-10-14T07:30:45.000Z</time>
      </trkpt>
      <trkpt lat="43.62013" lon="6.85496">
        <ele>238</ele>
        <time>2017-10-14T07:30:46.000Z</time>
      </trkpt>
      <trkpt lat="43.62013" lon="6.85496">
        <ele>238</ele>
        <time>2017-10-14T07:30:47.000Z</time>
      </trkpt>
      <trkpt lat="43.62013" lon="6.85496">
        <ele>238</ele>
        <time>2017-10-14T07:30:48.000Z</time>
      </trkpt>
      <trkpt lat="43.62013" lon="6.85496">
        <ele>238</ele>
        <time>2017-10-14T07:30:49.000Z</time>
      </trkpt>
      <trkpt lat="43.62013" lon="6.85496">
        <ele>238</ele>
        <time>2017-10-14T07:30:50.000Z</time>
      </trkpt>
      <trkpt lat="43.62013" lon="6.85496">
        <ele>238</ele>
        <time>2017-10-14T07:30:51.000Z</time>
      </trkpt>
      <trkpt lat="43.62012" lon="6.85496">
        <ele>237</ele>
        <time>2017-10-14T07:30:52.000Z</time>
      </trkpt>
      <trkpt lat="43.62012" lon="6.85496">
        <ele>237</ele>
        <time>2017-10-14T07:30:53.000Z</time>
      </trkpt>
      <trkpt lat="43.62012" lon="6.85496">
        <ele>237</ele>
        <time>2017-10-14T07:30:54.000Z</time>
      </trkpt>
      <trkpt lat="43.62013" lon="6.85496">
        <ele>237</ele>
        <time>2017-10-14T07:30:55.000Z</time>
      </trkpt>
      <trkpt lat="43.62013" lon="6.85496">
        <ele>237</ele>
        <time>2017-10-14T07:30:56.000Z</time>
      </trkpt>
      <trkpt lat="43.62013" lon="6.85496">
        <ele>238</ele>
        <time>2017-10-14T07:30:57.000Z</time>
      </trkpt>
      <trkpt lat="43.62013" lon="6.85496">
        <ele>238</ele>
        <time>2017-10-14T07:30:58.000Z</time>
      </trkpt>
      <trkpt lat="43.62013" lon="6.85496">
        <ele>238</ele>
        <time>2017-10-14T07:30:59.000Z</time>
      </trkpt>
      <trkpt lat="43.62013" lon="6.85496">
        <ele>238</ele>
        <time>2017-10-14T07:31:00.000Z</time>
      </trkpt>
      <trkpt lat="43.62013" lon="6.85496">
        <ele>239</ele>
        <time>2017-10-14T07:31:01.000Z</time>
      </trkpt>
      <trkpt lat="43.62013" lon="6.85496">
        <ele>240</ele>
        <time>2017-10-14T07:31:02.000Z</time>
      </trkpt>
      <trkpt lat="43.62013" lon="6.85496">
        <ele>240</ele>
        <time>2017-10-14T07:31:03.000Z</time>
      </trkpt>
      <trkpt lat="43.62013" lon="6.85496">
        <ele>241</ele>
        <time>2017-10-14T07:31:04.000Z</time>
      </trkpt>
      <trkpt lat="43.62013" lon="6.85496">
        <ele>241</ele>
        <time>2017-10-14T07:31:05.000Z</time>
      </trkpt>
      <trkpt lat="43.62013" lon="6.85496">
        <ele>241</ele>
        <time>2017-10-14T07:31:06.000Z</time>
      </trkpt>
      <trkpt lat="43.62013" lon="6.85496">
        <ele>242</ele>
        <time>2017-10-14T07:31:07.000Z</time>
      </trkpt>
      <trkpt lat="43.62013" lon="6.85496">
        <ele>242</ele>
        <time>2017-10-14T07:31:08.000Z</time>
      </trkpt>
      <trkpt lat="43.62013" lon="6.85496">
        <ele>242</ele>
        <time>2017-10-14T07:31:09.000Z</time>
      </trkpt>
      <trkpt lat="43.62013" lon="6.85496">
        <ele>243</ele>
        <time>2017-10-14T07:31:10.000Z</time>
      </trkpt>
      <trkpt lat="43.62013" lon="6.85495">
        <ele>243</ele>
        <time>2017-10-14T07:31:11.000Z</time>
      </trkpt>
      <trkpt lat="43.62013" lon="6.85495">
        <ele>243</ele>
        <time>2017-10-14T07:31:12.000Z</time>
      </trkpt>
      <trkpt lat="43.62013" lon="6.85494">
        <ele>243</ele>
        <time>2017-10-14T07:31:13.000Z</time>
      </trkpt>
      <trkpt lat="43.62013" lon="6.85494">
        <ele>243</ele>
        <time>2017-10-14T07:31:14.000Z</time>
      </trkpt>
      <trkpt lat="43.62013" lon="6.85494">
        <ele>243</ele>
        <time>2017-10-14T07:31:15.000Z</time>
      </trkpt>
      <trkpt lat="43.62013" lon="6.85494">
        <ele>243</ele>
        <time>2017-10-14T07:31:16.000Z</time>
      </trkpt>
      <trkpt lat="43.62013" lon="6.85494">
        <ele>243</ele>
        <time>2017-10-14T07:31:17.000Z</time>
      </trkpt>
      <trkpt lat="43.62013" lon="6.85494">
        <ele>243</ele>
        <time>2017-10-14T07:31:18.000Z</time>
      </trkpt>
      <trkpt lat="43.62014" lon="6.85494">
        <ele>243</ele>
        <time>2017-10-14T07:31:19.000Z</time>
      </trkpt>
      <trkpt lat="43.62014" lon="6.85495">
        <ele>243</ele>
        <time>2017-10-14T07:31:20.000Z</time>
      </trkpt>
      <trkpt lat="43.62013" lon="6.85495">
        <ele>243</ele>
        <time>2017-10-14T07:31:21.000Z</time>
      </trkpt>
      <trkpt lat="43.62013" lon="6.85495">
        <ele>244</ele>
        <time>2017-10-14T07:31:22.000Z</time>
      </trkpt>
      <trkpt lat="43.62013" lon="6.85496">
        <ele>244</ele>
        <time>2017-10-14T07:31:23.000Z</time>
      </trkpt>
      <trkpt lat="43.62013" lon="6.85496">
        <ele>244</ele>
        <time>2017-10-14T07:31:24.000Z</time>
      </trkpt>
      <trkpt lat="43.62013" lon="6.85496">
        <ele>244</ele>
        <time>2017-10-14T07:31:25.000Z</time>
      </trkpt>
      <trkpt lat="43.62013" lon="6.85496">
        <ele>244</ele>
        <time>2017-10-14T07:31:26.000Z</time>
      </trkpt>
      <trkpt lat="43.62013" lon="6.85496">
        <ele>244</ele>
        <time>2017-10-14T07:31:27.000Z</time>
      </trkpt>
      <trkpt lat="43.62012" lon="6.85495">
        <ele>244</ele>
        <time>2017-10-14T07:31:28.000Z</time>
      </trkpt>
      <trkpt lat="43.62012" lon="6.85495">
        <ele>244</ele>
        <time>2017-10-14T07:31:29.000Z</time>
      </trkpt>
      <trkpt lat="43.62012" lon="6.85495">
        <ele>244</ele>
        <time>2017-10-14T07:31:30.000Z</time>
      </trkpt>
      <trkpt lat="43.62012" lon="6.85495">
        <ele>243</ele>
        <time>2017-10-14T07:31:31.000Z</time>
      </trkpt>
      <trkpt lat="43.62011" lon="6.85495">
        <ele>244</ele>
        <time>2017-10-14T07:31:32.000Z</time>
      </trkpt>
      <trkpt lat="43.62011" lon="6.85495">
        <ele>244</ele>
        <time>2017-10-14T07:31:33.000Z</time>
      </trkpt>
      <trkpt lat="43.6201" lon="6.85495">
        <ele>244</ele>
        <time>2017-10-14T07:31:34.000Z</time>
      </trkpt>
      <trkpt lat="43.6201" lon="6.85494">
        <ele>244</ele>
        <time>2017-10-14T07:31:35.000Z</time>
      </trkpt>
      <trkpt lat="43.62009" lon="6.85493">
        <ele>244</ele>
        <time>2017-10-14T07:31:36.000Z</time>
      </trkpt>
      <trkpt lat="43.62009" lon="6.85492">
        <ele>245</ele>
        <time>2017-10-14T07:31:37.000Z</time>
      </trkpt>
      <trkpt lat="43.62008" lon="6.85491">
        <ele>245</ele>
        <time>2017-10-14T07:31:38.000Z</time>
      </trkpt>
      <trkpt lat="43.62007" lon="6.85491">
        <ele>245</ele>
        <time>2017-10-14T07:31:39.000Z</time>
      </trkpt>
      <trkpt lat="43.62007" lon="6.8549">
        <ele>246</ele>
        <time>2017-10-14T07:31:40.000Z</time>
      </trkpt>
      <trkpt lat="43.62006" lon="6.85489">
        <ele>246</ele>
        <time>2017-10-14T07:31:41.000Z</time>
      </trkpt>
      <trkpt lat="43.62005" lon="6.85489">
        <ele>247</ele>
        <time>2017-10-14T07:31:42.000Z</time>
      </trkpt>
      <trkpt lat="43.62004" lon="6.85489">
        <ele>247</ele>
        <time>2017-10-14T07:31:43.000Z</time>
      </trkpt>
      <trkpt lat="43.62003" lon="6.85489">
        <ele>248</ele>
        <time>2017-10-14T07:31:44.000Z</time>
      </trkpt>
      <trkpt lat="43.62002" lon="6.85488">
        <ele>248</ele>
        <time>2017-10-14T07:31:45.000Z</time>
      </trkpt>
      <trkpt lat="43.62002" lon="6.85488">
        <ele>249</ele>
        <time>2017-10-14T07:31:46.000Z</time>
      </trkpt>
      <trkpt lat="43.62001" lon="6.85488">
        <ele>249</ele>
        <time>2017-10-14T07:31:47.000Z</time>
      </trkpt>
      <trkpt lat="43.62" lon="6.85488">
        <ele>249</ele>
        <time>2017-10-14T07:31:48.000Z</time>
      </trkpt>
      <trkpt lat="43.61999" lon="6.85488">
        <ele>249</ele>
        <time>2017-10-14T07:31:49.000Z</time>
      </trkpt>
      <trkpt lat="43.61998" lon="6.85488">
        <ele>249</ele>
        <time>2017-10-14T07:31:50.000Z</time>
      </trkpt>
      <trkpt lat="43.61998" lon="6.85489">
        <ele>250</ele>
        <time>2017-10-14T07:31:51.000Z</time>
      </trkpt>
      <trkpt lat="43.61997" lon="6.85489">
        <ele>250</ele>
        <time>2017-10-14T07:31:52.000Z</time>
      </trkpt>
      <trkpt lat="43.61996" lon="6.8549">
        <ele>250</ele>
        <time>2017-10-14T07:31:53.000Z</time>
      </trkpt>
      <trkpt lat="43.61995" lon="6.8549">
        <ele>250</ele>
        <time>2017-10-14T07:31:54.000Z</time>
      </trkpt>
      <trkpt lat="43.61995" lon="6.8549">
        <ele>250</ele>
        <time>2017-10-14T07:31:55.000Z</time>
      </trkpt>
      <trkpt lat="43.61994" lon="6.85491">
        <ele>250</ele>
        <time>2017-10-14T07:31:56.000Z</time>
      </trkpt>
      <trkpt lat="43.61993" lon="6.85491">
        <ele>250</ele>
        <time>2017-10-14T07:31:57.000Z</time>
      </trkpt>
      <trkpt lat="43.61993" lon="6.85491">
        <ele>251</ele>
        <time>2017-10-14T07:31:58.000Z</time>
      </trkpt>
      <trkpt lat="43.61992" lon="6.85491">
        <ele>250</ele>
        <time>2017-10-14T07:31:59.000Z</time>
      </trkpt>
      <trkpt lat="43.61992" lon="6.85492">
        <ele>250</ele>
        <time>2017-10-14T07:32:00.000Z</time>
      </trkpt>
      <trkpt lat="43.61991" lon="6.85492">
        <ele>251</ele>
        <time>2017-10-14T07:32:01.000Z</time>
      </trkpt>
      <trkpt lat="43.6199" lon="6.85492">
        <ele>251</ele>
        <time>2017-10-14T07:32:02.000Z</time>
      </trkpt>
      <trkpt lat="43.61989" lon="6.85493">
        <ele>251</ele>
        <time>2017-10-14T07:32:03.000Z</time>
      </trkpt>
      <trkpt lat="43.61988" lon="6.85493">
        <ele>251</ele>
        <time>2017-10-14T07:32:04.000Z</time>
      </trkpt>
      <trkpt lat="43.61988" lon="6.85493">
        <ele>251</ele>
        <time>2017-10-14T07:32:05.000Z</time>
      </trkpt>
      <trkpt lat="43.61987" lon="6.85494">
        <ele>252</ele>
        <time>2017-10-14T07:32:06.000Z</time>
      </trkpt>
      <trkpt lat="43.61986" lon="6.85494">
        <ele>252</ele>
        <time>2017-10-14T07:32:07.000Z</time>
      </trkpt>
      <trkpt lat="43.61985" lon="6.85495">
        <ele>252</ele>
        <time>2017-10-14T07:32:08.000Z</time>
      </trkpt>
      <trkpt lat="43.61984" lon="6.85496">
        <ele>252</ele>
        <time>2017-10-14T07:32:09.000Z</time>
      </trkpt>
      <trkpt lat="43.61983" lon="6.85496">
        <ele>252</ele>
        <time>2017-10-14T07:32:10.000Z</time>
      </trkpt>
      <trkpt lat="43.61983" lon="6.85496">
        <ele>252</ele>
        <time>2017-10-14T07:32:11.000Z</time>
      </trkpt>
      <trkpt lat="43.61982" lon="6.85496">
        <ele>252</ele>
        <time>2017-10-14T07:32:12.000Z</time>
      </trkpt>
      <trkpt lat="43.61981" lon="6.85496">
        <ele>252</ele>
        <time>2017-10-14T07:32:13.000Z</time>
      </trkpt>
      <trkpt lat="43.6198" lon="6.85497">
        <ele>251</ele>
        <time>2017-10-14T07:32:14.000Z</time>
      </trkpt>
      <trkpt lat="43.61979" lon="6.85498">
        <ele>252</ele>
        <time>2017-10-14T07:32:15.000Z</time>
      </trkpt>
      <trkpt lat="43.61979" lon="6.85499">
        <ele>252</ele>
        <time>2017-10-14T07:32:16.000Z</time>
      </trkpt>
      <trkpt lat="43.61978" lon="6.85501">
        <ele>252</ele>
        <time>2017-10-14T07:32:17.000Z</time>
      </trkpt>
      <trkpt lat="43.61977" lon="6.85502">
        <ele>252</ele>
        <time>2017-10-14T07:32:18.000Z</time>
      </trkpt>
      <trkpt lat="43.61977" lon="6.85503">
        <ele>252</ele>
        <time>2017-10-14T07:32:19.000Z</time>
      </trkpt>
      <trkpt lat="43.61976" lon="6.85504">
        <ele>251</ele>
        <time>2017-10-14T07:32:20.000Z</time>
      </trkpt>
      <trkpt lat="43.61976" lon="6.85505">
        <ele>251</ele>
        <time>2017-10-14T07:32:21.000Z</time>
      </trkpt>
      <trkpt lat="43.61975" lon="6.85506">
        <ele>252</ele>
        <time>2017-10-14T07:32:22.000Z</time>
      </trkpt>
      <trkpt lat="43.61974" lon="6.85507">
        <ele>252</ele>
        <time>2017-10-14T07:32:23.000Z</time>
      </trkpt>
      <trkpt lat="43.61973" lon="6.85508">
        <ele>252</ele>
        <time>2017-10-14T07:32:24.000Z</time>
      </trkpt>
      <trkpt lat="43.61972" lon="6.85508">
        <ele>252</ele>
        <time>2017-10-14T07:32:25.000Z</time>
      </trkpt>
      <trkpt lat="43.61971" lon="6.85508">
        <ele>252</ele>
        <time>2017-10-14T07:32:26.000Z</time>
      </trkpt>
      <trkpt lat="43.6197" lon="6.85508">
        <ele>253</ele>
        <time>2017-10-14T07:32:27.000Z</time>
      </trkpt>
      <trkpt lat="43.6197" lon="6.85509">
        <ele>253</ele>
        <time>2017-10-14T07:32:28.000Z</time>
      </trkpt>
      <trkpt lat="43.61969" lon="6.85509">
        <ele>253</ele>
        <time>2017-10-14T07:32:29.000Z</time>
      </trkpt>
      <trkpt lat="43.61968" lon="6.85508">
        <ele>253</ele>
        <time>2017-10-14T07:32:30.000Z</time>
      </trkpt>
      <trkpt lat="43.61967" lon="6.85508">
        <ele>253</ele>
        <time>2017-10-14T07:32:31.000Z</time>
      </trkpt>
      <trkpt lat="43.61966" lon="6.85508">
        <ele>253</ele>
        <time>2017-10-14T07:32:32.000Z</time>
      </trkpt>
      <trkpt lat="43.61965" lon="6.85507">
        <ele>253</ele>
        <time>2017-10-14T07:32:33.000Z</time>
      </trkpt>
      <trkpt lat="43.61964" lon="6.85507">
        <ele>253</ele>
        <time>2017-10-14T07:32:34.000Z</time>
      </trkpt>
      <trkpt lat="43.61963" lon="6.85507">
        <ele>254</ele>
        <time>2017-10-14T07:32:35.000Z</time>
      </trkpt>
      <trkpt lat="43.61963" lon="6.85507">
        <ele>254</ele>
        <time>2017-10-14T07:32:36.000Z</time>
      </trkpt>
      <trkpt lat="43.61962" lon="6.85507">
        <ele>254</ele>
        <time>2017-10-14T07:32:37.000Z</time>
      </trkpt>
      <trkpt lat="43.61961" lon="6.85508">
        <ele>254</ele>
        <time>2017-10-14T07:32:38.000Z</time>
      </trkpt>
      <trkpt lat="43.6196" lon="6.85508">
        <ele>255</ele>
        <time>2017-10-14T07:32:39.000Z</time>
      </trkpt>
      <trkpt lat="43.61959" lon="6.85508">
        <ele>255</ele>
        <time>2017-10-14T07:32:40.000Z</time>
      </trkpt>
      <trkpt lat="43.61958" lon="6.85509">
        <ele>254</ele>
        <time>2017-10-14T07:32:41.000Z</time>
      </trkpt>
      <trkpt lat="43.61957" lon="6.85509">
        <ele>254</ele>
        <time>2017-10-14T07:32:42.000Z</time>
      </trkpt>
      <trkpt lat="43.61957" lon="6.85509">
        <ele>254</ele>
        <time>2017-10-14T07:32:43.000Z</time>
      </trkpt>
      <trkpt lat="43.61956" lon="6.85509">
        <ele>255</ele>
        <time>2017-10-14T07:32:44.000Z</time>
      </trkpt>
      <trkpt lat="43.61955" lon="6.85508">
        <ele>255</ele>
        <time>2017-10-14T07:32:45.000Z</time>
      </trkpt>
      <trkpt lat="43.61954" lon="6.85508">
        <ele>256</ele>
        <time>2017-10-14T07:32:46.000Z</time>
      </trkpt>
      <trkpt lat="43.61953" lon="6.85508">
        <ele>256</ele>
        <time>2017-10-14T07:32:47.000Z</time>
      </trkpt>
      <trkpt lat="43.61951" lon="6.85508">
        <ele>256</ele>
        <time>2017-10-14T07:32:48.000Z</time>
      </trkpt>
      <trkpt lat="43.6195" lon="6.85508">
        <ele>257</ele>
        <time>2017-10-14T07:32:49.000Z</time>
      </trkpt>
      <trkpt lat="43.61949" lon="6.85508">
        <ele>257</ele>
        <time>2017-10-14T07:32:50.000Z</time>
      </trkpt>
      <trkpt lat="43.61948" lon="6.85509">
        <ele>259</ele>
        <time>2017-10-14T07:32:51.000Z</time>
      </trkpt>
      <trkpt lat="43.61948" lon="6.85509">
        <ele>259</ele>
        <time>2017-10-14T07:32:52.000Z</time>
      </trkpt>
      <trkpt lat="43.61947" lon="6.8551">
        <ele>259</ele>
        <time>2017-10-14T07:32:53.000Z</time>
      </trkpt>
      <trkpt lat="43.61946" lon="6.8551">
        <ele>259</ele>
        <time>2017-10-14T07:32:54.000Z</time>
      </trkpt>
      <trkpt lat="43.61944" lon="6.85511">
        <ele>260</ele>
        <time>2017-10-14T07:32:55.000Z</time>
      </trkpt>
      <trkpt lat="43.61943" lon="6.85512">
        <ele>260</ele>
        <time>2017-10-14T07:32:56.000Z</time>
      </trkpt>
      <trkpt lat="43.61942" lon="6.85512">
        <ele>260</ele>
        <time>2017-10-14T07:32:57.000Z</time>
      </trkpt>
      <trkpt lat="43.61941" lon="6.85513">
        <ele>261</ele>
        <time>2017-10-14T07:32:58.000Z</time>
      </trkpt>
      <trkpt lat="43.6194" lon="6.85514">
        <ele>261</ele>
        <time>2017-10-14T07:32:59.000Z</time>
      </trkpt>
      <trkpt lat="43.61939" lon="6.85515">
        <ele>261</ele>
        <time>2017-10-14T07:33:00.000Z</time>
      </trkpt>
      <trkpt lat="43.61938" lon="6.85516">
        <ele>261</ele>
        <time>2017-10-14T07:33:01.000Z</time>
      </trkpt>
      <trkpt lat="43.61937" lon="6.85516">
        <ele>262</ele>
        <time>2017-10-14T07:33:02.000Z</time>
      </trkpt>
      <trkpt lat="43.61936" lon="6.85518">
        <ele>262</ele>
        <time>2017-10-14T07:33:03.000Z</time>
      </trkpt>
      <trkpt lat="43.61935" lon="6.85519">
        <ele>261</ele>
        <time>2017-10-14T07:33:04.000Z</time>
      </trkpt>
      <trkpt lat="43.61935" lon="6.8552">
        <ele>261</ele>
        <time>2017-10-14T07:33:05.000Z</time>
      </trkpt>
      <trkpt lat="43.61934" lon="6.85521">
        <ele>261</ele>
        <time>2017-10-14T07:33:06.000Z</time>
      </trkpt>
      <trkpt lat="43.61933" lon="6.85522">
        <ele>261</ele>
        <time>2017-10-14T07:33:07.000Z</time>
      </trkpt>
      <trkpt lat="43.61932" lon="6.85523">
        <ele>261</ele>
        <time>2017-10-14T07:33:08.000Z</time>
      </trkpt>
      <trkpt lat="43.61932" lon="6.85524">
        <ele>261</ele>
        <time>2017-10-14T07:33:09.000Z</time>
      </trkpt>
      <trkpt lat="43.61931" lon="6.85525">
        <ele>261</ele>
        <time>2017-10-14T07:33:10.000Z</time>
      </trkpt>
      <trkpt lat="43.6193" lon="6.85526">
        <ele>261</ele>
        <time>2017-10-14T07:33:11.000Z</time>
      </trkpt>
      <trkpt lat="43.61929" lon="6.85528">
        <ele>261</ele>
        <time>2017-10-14T07:33:12.000Z</time>
      </trkpt>
      <trkpt lat="43.61929" lon="6.85529">
        <ele>261</ele>
        <time>2017-10-14T07:33:13.000Z</time>
      </trkpt>
      <trkpt lat="43.61928" lon="6.8553">
        <ele>262</ele>
        <time>2017-10-14T07:33:14.000Z</time>
      </trkpt>
      <trkpt lat="43.61927" lon="6.85531">
        <ele>262</ele>
        <time>2017-10-14T07:33:15.000Z</time>
      </trkpt>
      <trkpt lat="43.61926" lon="6.85532">
        <ele>262</ele>
        <time>2017-10-14T07:33:16.000Z</time>
      </trkpt>
      <trkpt lat="43.61925" lon="6.85533">
        <ele>263</ele>
        <time>2017-10-14T07:33:17.000Z</time>
      </trkpt>
      <trkpt lat="43.61925" lon="6.85534">
        <ele>263</ele>
        <time>2017-10-14T07:33:18.000Z</time>
      </trkpt>
      <trkpt lat="43.61924" lon="6.85536">
        <ele>262</ele>
        <time>2017-10-14T07:33:19.000Z</time>
      </trkpt>
      <trkpt lat="43.61923" lon="6.85537">
        <ele>263</ele>
        <time>2017-10-14T07:33:20.000Z</time>
      </trkpt>
      <trkpt lat="43.61922" lon="6.85538">
        <ele>263</ele>
        <time>2017-10-14T07:33:21.000Z</time>
      </trkpt>
      <trkpt lat="43.61921" lon="6.85539">
        <ele>263</ele>
        <time>2017-10-14T07:33:22.000Z</time>
      </trkpt>
      <trkpt lat="43.61921" lon="6.8554">
        <ele>263</ele>
        <time>2017-10-14T07:33:23.000Z</time>
      </trkpt>
      <trkpt lat="43.6192" lon="6.85541">
        <ele>263</ele>
        <time>2017-10-14T07:33:24.000Z</time>
      </trkpt>
      <trkpt lat="43.61919" lon="6.85542">
        <ele>263</ele>
        <time>2017-10-14T07:33:25.000Z</time>
      </trkpt>
      <trkpt lat="43.61918" lon="6.85543">
        <ele>263</ele>
        <time>2017-10-14T07:33:26.000Z</time>
      </trkpt>
      <trkpt lat="43.61918" lon="6.85544">
        <ele>263</ele>
        <time>2017-10-14T07:33:27.000Z</time>
      </trkpt>
      <trkpt lat="43.61917" lon="6.85545">
        <ele>263</ele>
        <time>2017-10-14T07:33:28.000Z</time>
      </trkpt>
      <trkpt lat="43.61917" lon="6.85546">
        <ele>263</ele>
        <time>2017-10-14T07:33:29.000Z</time>
      </trkpt>
      <trkpt lat="43.61916" lon="6.85547">
        <ele>263</ele>
        <time>2017-10-14T07:33:30.000Z</time>
      </trkpt>
      <trkpt lat="43.61915" lon="6.85547">
        <ele>263</ele>
        <time>2017-10-14T07:33:31.000Z</time>
      </trkpt>
      <trkpt lat="43.61915" lon="6.85548">
        <ele>263</ele>
        <time>2017-10-14T07:33:32.000Z</time>
      </trkpt>
      <trkpt lat="43.61914" lon="6.85549">
        <ele>263</ele>
        <time>2017-10-14T07:33:33.000Z</time>
      </trkpt>
      <trkpt lat="43.61914" lon="6.85549">
        <ele>263</ele>
        <time>2017-10-14T07:33:34.000Z</time>
      </trkpt>
      <trkpt lat="43.61913" lon="6.8555">
        <ele>263</ele>
        <time>2017-10-14T07:33:35.000Z</time>
      </trkpt>
      <trkpt lat="43.61912" lon="6.8555">
        <ele>263</ele>
        <time>2017-10-14T07:33:36.000Z</time>
      </trkpt>
      <trkpt lat="43.61912" lon="6.85551">
        <ele>263</ele>
        <time>2017-10-14T07:33:37.000Z</time>
      </trkpt>
      <trkpt lat="43.61911" lon="6.85551">
        <ele>263</ele>
        <time>2017-10-14T07:33:38.000Z</time>
      </trkpt>
      <trkpt lat="43.6191" lon="6.85552">
        <ele>263</ele>
        <time>2017-10-14T07:33:39.000Z</time>
      </trkpt>
      <trkpt lat="43.61909" lon="6.85553">
        <ele>263</ele>
        <time>2017-10-14T07:33:40.000Z</time>
      </trkpt>
      <trkpt lat="43.61908" lon="6.85553">
        <ele>263</ele>
        <time>2017-10-14T07:33:41.000Z</time>
      </trkpt>
      <trkpt lat="43.61907" lon="6.85554">
        <ele>264</ele>
        <time>2017-10-14T07:33:42.000Z</time>
      </trkpt>
      <trkpt lat="43.61906" lon="6.85554">
        <ele>264</ele>
        <time>2017-10-14T07:33:43.000Z</time>
      </trkpt>
      <trkpt lat="43.61906" lon="6.85555">
        <ele>264</ele>
        <time>2017-10-14T07:33:44.000Z</time>
      </trkpt>
      <trkpt lat="43.61905" lon="6.85555">
        <ele>264</ele>
        <time>2017-10-14T07:33:45.000Z</time>
      </trkpt>
      <trkpt lat="43.61904" lon="6.85556">
        <ele>264</ele>
        <time>2017-10-14T07:33:46.000Z</time>
      </trkpt>
      <trkpt lat="43.61903" lon="6.85556">
        <ele>264</ele>
        <time>2017-10-14T07:33:47.000Z</time>
      </trkpt>
      <trkpt lat="43.61902" lon="6.85556">
        <ele>264</ele>
        <time>2017-10-14T07:33:48.000Z</time>
      </trkpt>
      <trkpt lat="43.61901" lon="6.85556">
        <ele>264</ele>
        <time>2017-10-14T07:33:49.000Z</time>
      </trkpt>
      <trkpt lat="43.61901" lon="6.85556">
        <ele>265</ele>
        <time>2017-10-14T07:33:50.000Z</time>
      </trkpt>
      <trkpt lat="43.619" lon="6.85556">
        <ele>265</ele>
        <time>2017-10-14T07:33:51.000Z</time>
      </trkpt>
      <trkpt lat="43.61899" lon="6.85556">
        <ele>265</ele>
        <time>2017-10-14T07:33:52.000Z</time>
      </trkpt>
      <trkpt lat="43.61898" lon="6.85556">
        <ele>265</ele>
        <time>2017-10-14T07:33:53.000Z</time>
      </trkpt>
      <trkpt lat="43.61897" lon="6.85556">
        <ele>265</ele>
        <time>2017-10-14T07:33:54.000Z</time>
      </trkpt>
      <trkpt lat="43.61896" lon="6.85556">
        <ele>265</ele>
        <time>2017-10-14T07:33:55.000Z</time>
      </trkpt>
      <trkpt lat="43.61896" lon="6.85556">
        <ele>265</ele>
        <time>2017-10-14T07:33:56.000Z</time>
      </trkpt>
      <trkpt lat="43.61895" lon="6.85556">
        <ele>265</ele>
        <time>2017-10-14T07:33:57.000Z</time>
      </trkpt>
      <trkpt lat="43.61894" lon="6.85557">
        <ele>265</ele>
        <time>2017-10-14T07:33:58.000Z</time>
      </trkpt>
      <trkpt lat="43.61893" lon="6.85557">
        <ele>265</ele>
        <time>2017-10-14T07:33:59.000Z</time>
      </trkpt>
      <trkpt lat="43.61892" lon="6.85557">
        <ele>265</ele>
        <time>2017-10-14T07:34:00.000Z</time>
      </trkpt>
      <trkpt lat="43.61891" lon="6.85557">
        <ele>265</ele>
        <time>2017-10-14T07:34:01.000Z</time>
      </trkpt>
      <trkpt lat="43.6189" lon="6.85557">
        <ele>265</ele>
        <time>2017-10-14T07:34:02.000Z</time>
      </trkpt>
      <trkpt lat="43.61889" lon="6.85556">
        <ele>264</ele>
        <time>2017-10-14T07:34:03.000Z</time>
      </trkpt>
      <trkpt lat="43.61888" lon="6.85556">
        <ele>264</ele>
        <time>2017-10-14T07:34:04.000Z</time>
      </trkpt>
      <trkpt lat="43.61887" lon="6.85556">
        <ele>264</ele>
        <time>2017-10-14T07:34:05.000Z</time>
      </trkpt>
      <trkpt lat="43.61886" lon="6.85556">
        <ele>264</ele>
        <time>2017-10-14T07:34:06.000Z</time>
      </trkpt>
      <trkpt lat="43.61885" lon="6.85556">
        <ele>264</ele>
        <time>2017-10-14T07:34:07.000Z</time>
      </trkpt>
      <trkpt lat="43.61884" lon="6.85556">
        <ele>263</ele>
        <time>2017-10-14T07:34:08.000Z</time>
      </trkpt>
      <trkpt lat="43.61883" lon="6.85557">
        <ele>263</ele>
        <time>2017-10-14T07:34:09.000Z</time>
      </trkpt>
      <trkpt lat="43.61882" lon="6.85557">
        <ele>263</ele>
        <time>2017-10-14T07:34:10.000Z</time>
      </trkpt>
      <trkpt lat="43.6188" lon="6.85557">
        <ele>262</ele>
        <time>2017-10-14T07:34:11.000Z</time>
      </trkpt>
      <trkpt lat="43.61879" lon="6.85557">
        <ele>261</ele>
        <time>2017-10-14T07:34:12.000Z</time>
      </trkpt>
      <trkpt lat="43.61878" lon="6.85557">
        <ele>261</ele>
        <time>2017-10-14T07:34:13.000Z</time>
      </trkpt>
      <trkpt lat="43.61877" lon="6.85557">
        <ele>261</ele>
        <time>2017-10-14T07:34:14.000Z</time>
      </trkpt>
      <trkpt lat="43.61876" lon="6.85557">
        <ele>260</ele>
        <time>2017-10-14T07:34:15.000Z</time>
      </trkpt>
      <trkpt lat="43.61875" lon="6.85557">
        <ele>260</ele>
        <time>2017-10-14T07:34:16.000Z</time>
      </trkpt>
      <trkpt lat="43.61873" lon="6.85557">
        <ele>261</ele>
        <time>2017-10-14T07:34:17.000Z</time>
      </trkpt>
      <trkpt lat="43.61872" lon="6.85558">
        <ele>262</ele>
        <time>2017-10-14T07:34:18.000Z</time>
      </trkpt>
      <trkpt lat="43.61871" lon="6.85559">
        <ele>262</ele>
        <time>2017-10-14T07:34:19.000Z</time>
      </trkpt>
      <trkpt lat="43.61869" lon="6.8556">
        <ele>262</ele>
        <time>2017-10-14T07:34:20.000Z</time>
      </trkpt>
      <trkpt lat="43.61868" lon="6.85561">
        <ele>263</ele>
        <time>2017-10-14T07:34:21.000Z</time>
      </trkpt>
      <trkpt lat="43.61867" lon="6.85562">
        <ele>263</ele>
        <time>2017-10-14T07:34:22.000Z</time>
      </trkpt>
      <trkpt lat="43.61866" lon="6.85562">
        <ele>263</ele>
        <time>2017-10-14T07:34:23.000Z</time>
      </trkpt>
      <trkpt lat="43.61865" lon="6.85563">
        <ele>263</ele>
        <time>2017-10-14T07:34:24.000Z</time>
      </trkpt>
      <trkpt lat="43.61864" lon="6.85564">
        <ele>263</ele>
        <time>2017-10-14T07:34:25.000Z</time>
      </trkpt>
      <trkpt lat="43.61863" lon="6.85565">
        <ele>264</ele>
        <time>2017-10-14T07:34:26.000Z</time>
      </trkpt>
      <trkpt lat="43.61862" lon="6.85565">
        <ele>264</ele>
        <time>2017-10-14T07:34:27.000Z</time>
      </trkpt>
      <trkpt lat="43.61861" lon="6.85566">
        <ele>264</ele>
        <time>2017-10-14T07:34:28.000Z</time>
      </trkpt>
      <trkpt lat="43.61861" lon="6.85567">
        <ele>264</ele>
        <time>2017-10-14T07:34:29.000Z</time>
      </trkpt>
      <trkpt lat="43.6186" lon="6.85568">
        <ele>263</ele>
        <time>2017-10-14T07:34:30.000Z</time>
      </trkpt>
      <trkpt lat="43.61859" lon="6.85569">
        <ele>263</ele>
        <time>2017-10-14T07:34:31.000Z</time>
      </trkpt>
      <trkpt lat="43.61858" lon="6.8557">
        <ele>263</ele>
        <time>2017-10-14T07:34:32.000Z</time>
      </trkpt>
      <trkpt lat="43.61856" lon="6.85571">
        <ele>263</ele>
        <time>2017-10-14T07:34:33.000Z</time>
      </trkpt>
      <trkpt lat="43.61854" lon="6.85572">
        <ele>263</ele>
        <time>2017-10-14T07:34:34.000Z</time>
      </trkpt>
      <trkpt lat="43.61852" lon="6.85574">
        <ele>264</ele>
        <time>2017-10-14T07:34:35.000Z</time>
      </trkpt>
      <trkpt lat="43.6185" lon="6.85574">
        <ele>264</ele>
        <time>2017-10-14T07:34:36.000Z</time>
      </trkpt>
      <trkpt lat="43.61848" lon="6.85575">
        <ele>264</ele>
        <time>2017-10-14T07:34:37.000Z</time>
      </trkpt>
      <trkpt lat="43.61846" lon="6.85576">
        <ele>264</ele>
        <time>2017-10-14T07:34:38.000Z</time>
      </trkpt>
      <trkpt lat="43.61844" lon="6.85576">
        <ele>265</ele>
        <time>2017-10-14T07:34:39.000Z</time>
      </trkpt>
      <trkpt lat="43.61843" lon="6.85577">
        <ele>265</ele>
        <time>2017-10-14T07:34:40.000Z</time>
      </trkpt>
      <trkpt lat="43.61841" lon="6.85577">
        <ele>265</ele>
        <time>2017-10-14T07:34:41.000Z</time>
      </trkpt>
      <trkpt lat="43.61839" lon="6.85577">
        <ele>266</ele>
        <time>2017-10-14T07:34:42.000Z</time>
      </trkpt>
      <trkpt lat="43.61837" lon="6.85578">
        <ele>266</ele>
        <time>2017-10-14T07:34:43.000Z</time>
      </trkpt>
      <trkpt lat="43.61835" lon="6.85578">
        <ele>267</ele>
        <time>2017-10-14T07:34:44.000Z</time>
      </trkpt>
      <trkpt lat="43.61834" lon="6.85579">
        <ele>267</ele>
        <time>2017-10-14T07:34:45.000Z</time>
      </trkpt>
      <trkpt lat="43.61832" lon="6.8558">
        <ele>268</ele>
        <time>2017-10-14T07:34:46.000Z</time>
      </trkpt>
      <trkpt lat="43.61831" lon="6.85581">
        <ele>268</ele>
        <time>2017-10-14T07:34:47.000Z</time>
      </trkpt>
      <trkpt lat="43.61829" lon="6.85583">
        <ele>269</ele>
        <time>2017-10-14T07:34:48.000Z</time>
      </trkpt>
      <trkpt lat="43.61828" lon="6.85584">
        <ele>269</ele>
        <time>2017-10-14T07:34:49.000Z</time>
      </trkpt>
      <trkpt lat="43.61826" lon="6.85585">
        <ele>270</ele>
        <time>2017-10-14T07:34:50.000Z</time>
      </trkpt>
      <trkpt lat="43.61825" lon="6.85587">
        <ele>270</ele>
        <time>2017-10-14T07:34:51.000Z</time>
      </trkpt>
      <trkpt lat="43.61823" lon="6.85588">
        <ele>270</ele>
        <time>2017-10-14T07:34:52.000Z</time>
      </trkpt>
      <trkpt lat="43.61822" lon="6.85589">
        <ele>271</ele>
        <time>2017-10-14T07:34:53.000Z</time>
      </trkpt>
      <trkpt lat="43.6182" lon="6.85589">
        <ele>271</ele>
        <time>2017-10-14T07:34:54.000Z</time>
      </trkpt>
      <trkpt lat="43.61819" lon="6.8559">
        <ele>271</ele>
        <time>2017-10-14T07:34:55.000Z</time>
      </trkpt>
      <trkpt lat="43.61817" lon="6.85591">
        <ele>271</ele>
        <time>2017-10-14T07:34:56.000Z</time>
      </trkpt>
      <trkpt lat="43.61816" lon="6.85592">
        <ele>271</ele>
        <time>2017-10-14T07:34:57.000Z</time>
      </trkpt>
      <trkpt lat="43.61814" lon="6.85593">
        <ele>271</ele>
        <time>2017-10-14T07:34:58.000Z</time>
      </trkpt>
      <trkpt lat="43.61813" lon="6.85595">
        <ele>271</ele>
        <time>2017-10-14T07:34:59.000Z</time>
      </trkpt>
      <trkpt lat="43.61811" lon="6.85596">
        <ele>271</ele>
        <time>2017-10-14T07:35:00.000Z</time>
      </trkpt>
      <trkpt lat="43.61809" lon="6.85597">
        <ele>271</ele>
        <time>2017-10-14T07:35:01.000Z</time>
      </trkpt>
      <trkpt lat="43.61807" lon="6.85598">
        <ele>270</ele>
        <time>2017-10-14T07:35:02.000Z</time>
      </trkpt>
      <trkpt lat="43.61805" lon="6.85599">
        <ele>270</ele>
        <time>2017-10-14T07:35:03.000Z</time>
      </trkpt>
      <trkpt lat="43.61803" lon="6.856">
        <ele>270</ele>
        <time>2017-10-14T07:35:04.000Z</time>
      </trkpt>
      <trkpt lat="43.61801" lon="6.85601">
        <ele>270</ele>
        <time>2017-10-14T07:35:05.000Z</time>
      </trkpt>
      <trkpt lat="43.61799" lon="6.85602">
        <ele>270</ele>
        <time>2017-10-14T07:35:06.000Z</time>
      </trkpt>
      <trkpt lat="43.61797" lon="6.85602">
        <ele>271</ele>
        <time>2017-10-14T07:35:07.000Z</time>
      </trkpt>
      <trkpt lat="43.61795" lon="6.85603">
        <ele>271</ele>
        <time>2017-10-14T07:35:08.000Z</time>
      </trkpt>
      <trkpt lat="43.61793" lon="6.85603">
        <ele>271</ele>
        <time>2017-10-14T07:35:09.000Z</time>
      </trkpt>
      <trkpt lat="43.61791" lon="6.85604">
        <ele>271</ele>
        <time>2017-10-14T07:35:10.000Z</time>
      </trkpt>
      <trkpt lat="43.61789" lon="6.85604">
        <ele>271</ele>
        <time>2017-10-14T07:35:11.000Z</time>
      </trkpt>
      <trkpt lat="43.61787" lon="6.85605">
        <ele>271</ele>
        <time>2017-10-14T07:35:12.000Z</time>
      </trkpt>
      <trkpt lat="43.61785" lon="6.85606">
        <ele>271</ele>
        <time>2017-10-14T07:35:13.000Z</time>
      </trkpt>
      <trkpt lat="43.61783" lon="6.85607">
        <ele>271</ele>
        <time>2017-10-14T07:35:14.000Z</time>
      </trkpt>
      <trkpt lat="43.61781" lon="6.85608">
        <ele>271</ele>
        <time>2017-10-14T07:35:15.000Z</time>
      </trkpt>
      <trkpt lat="43.61779" lon="6.85609">
        <ele>270</ele>
        <time>2017-10-14T07:35:16.000Z</time>
      </trkpt>
      <trkpt lat="43.61777" lon="6.85609">
        <ele>270</ele>
        <time>2017-10-14T07:35:17.000Z</time>
      </trkpt>
      <trkpt lat="43.61775" lon="6.8561">
        <ele>270</ele>
        <time>2017-10-14T07:35:18.000Z</time>
      </trkpt>
      <trkpt lat="43.61773" lon="6.8561">
        <ele>270</ele>
        <time>2017-10-14T07:35:19.000Z</time>
      </trkpt>
      <trkpt lat="43.61771" lon="6.8561">
        <ele>270</ele>
        <time>2017-10-14T07:35:20.000Z</time>
      </trkpt>
      <trkpt lat="43.61769" lon="6.8561">
        <ele>270</ele>
        <time>2017-10-14T07:35:21.000Z</time>
      </trkpt>
      <trkpt lat="43.61767" lon="6.8561">
        <ele>270</ele>
        <time>2017-10-14T07:35:22.000Z</time>
      </trkpt>
      <trkpt lat="43.61765" lon="6.8561">
        <ele>269</ele>
        <time>2017-10-14T07:35:23.000Z</time>
      </trkpt>
      <trkpt lat="43.61763" lon="6.8561">
        <ele>269</ele>
        <time>2017-10-14T07:35:24.000Z</time>
      </trkpt>
      <trkpt lat="43.61761" lon="6.8561">
        <ele>269</ele>
        <time>2017-10-14T07:35:25.000Z</time>
      </trkpt>
      <trkpt lat="43.61759" lon="6.8561">
        <ele>269</ele>
        <time>2017-10-14T07:35:26.000Z</time>
      </trkpt>
      <trkpt lat="43.61757" lon="6.85611">
        <ele>268</ele>
        <time>2017-10-14T07:35:27.000Z</time>
      </trkpt>
      <trkpt lat="43.61755" lon="6.85611">
        <ele>268</ele>
        <time>2017-10-14T07:35:28.000Z</time>
      </trkpt>
      <trkpt lat="43.61753" lon="6.85611">
        <ele>268</ele>
        <time>2017-10-14T07:35:29.000Z</time>
      </trkpt>
      <trkpt lat="43.61751" lon="6.85611">
        <ele>267</ele>
        <time>2017-10-14T07:35:30.000Z</time>
      </trkpt>
      <trkpt lat="43.61749" lon="6.85611">
        <ele>267</ele>
        <time>2017-10-14T07:35:31.000Z</time>
      </trkpt>
      <trkpt lat="43.61747" lon="6.85611">
        <ele>267</ele>
        <time>2017-10-14T07:35:32.000Z</time>
      </trkpt>
      <trkpt lat="43.61745" lon="6.85611">
        <ele>267</ele>
        <time>2017-10-14T07:35:33.000Z</time>
      </trkpt>
      <trkpt lat="43.61743" lon="6.85612">
        <ele>266</ele>
        <time>2017-10-14T07:35:34.000Z</time>
      </trkpt>
      <trkpt lat="43.61741" lon="6.85612">
        <ele>266</ele>
        <time>2017-10-14T07:35:35.000Z</time>
      </trkpt>
      <trkpt lat="43.61739" lon="6.85612">
        <ele>266</ele>
        <time>2017-10-14T07:35:36.000Z</time>
      </trkpt>
      <trkpt lat="43.61737" lon="6.85613">
        <ele>266</ele>
        <time>2017-10-14T07:35:37.000Z</time>
      </trkpt>
      <trkpt lat="43.61735" lon="6.85613">
        <ele>266</ele>
        <time>2017-10-14T07:35:38.000Z</time>
      </trkpt>
      <trkpt lat="43.61733" lon="6.85614">
        <ele>266</ele>
        <time>2017-10-14T07:35:39.000Z</time>
      </trkpt>
      <trkpt lat="43.6173" lon="6.85614">
        <ele>265</ele>
        <time>2017-10-14T07:35:40.000Z</time>
      </trkpt>
      <trkpt lat="43.61728" lon="6.85614">
        <ele>265</ele>
        <time>2017-10-14T07:35:41.000Z</time>
      </trkpt>
      <trkpt lat="43.61726" lon="6.85615">
        <ele>265</ele>
        <time>2017-10-14T07:35:42.000Z</time>
      </trkpt>
      <trkpt lat="43.61724" lon="6.85615">
        <ele>265</ele>
        <time>2017-10-14T07:35:43.000Z</time>
      </trkpt>
      <trkpt lat="43.61722" lon="6.85616">
        <ele>264</ele>
        <time>2017-10-14T07:35:44.000Z</time>
      </trkpt>
      <trkpt lat="43.6172" lon="6.85617">
        <ele>264</ele>
        <time>2017-10-14T07:35:45.000Z</time>
      </trkpt>
      <trkpt lat="43.61718" lon="6.85617">
        <ele>264</ele>
        <time>2017-10-14T07:35:46.000Z</time>
      </trkpt>
      <trkpt lat="43.61716" lon="6.85618">
        <ele>264</ele>
        <time>2017-10-14T07:35:47.000Z</time>
      </trkpt>
      <trkpt lat="43.61714" lon="6.85619">
        <ele>264</ele>
        <time>2017-10-14T07:35:48.000Z</time>
      </trkpt>
      <trkpt lat="43.61712" lon="6.85619">
        <ele>264</ele>
        <time>2017-10-14T07:35:49.000Z</time>
      </trkpt>
      <trkpt lat="43.6171" lon="6.8562">
        <ele>264</ele>
        <time>2017-10-14T07:35:50.000Z</time>
      </trkpt>
      <trkpt lat="43.61708" lon="6.8562">
        <ele>264</ele>
        <time>2017-10-14T07:35:51.000Z</time>
      </trkpt>
      <trkpt lat="43.61706" lon="6.8562">
        <ele>263</ele>
        <time>2017-10-14T07:35:52.000Z</time>
      </trkpt>
      <trkpt lat="43.61704" lon="6.8562">
        <ele>264</ele>
        <time>2017-10-14T07:35:53.000Z</time>
      </trkpt>
      <trkpt lat="43.61702" lon="6.85621">
        <ele>264</ele>
        <time>2017-10-14T07:35:54.000Z</time>
      </trkpt>
      <trkpt lat="43.617" lon="6.8562">
        <ele>263</ele>
        <time>2017-10-14T07:35:55.000Z</time>
      </trkpt>
      <trkpt lat="43.61698" lon="6.8562">
        <ele>263</ele>
        <time>2017-10-14T07:35:56.000Z</time>
      </trkpt>
      <trkpt lat="43.61696" lon="6.85619">
        <ele>263</ele>
        <time>2017-10-14T07:35:57.000Z</time>
      </trkpt>
      <trkpt lat="43.61694" lon="6.85619">
        <ele>263</ele>
        <time>2017-10-14T07:35:58.000Z</time>
      </trkpt>
      <trkpt lat="43.61692" lon="6.85618">
        <ele>263</ele>
        <time>2017-10-14T07:35:59.000Z</time>
      </trkpt>
      <trkpt lat="43.6169" lon="6.85617">
        <ele>262</ele>
        <time>2017-10-14T07:36:00.000Z</time>
      </trkpt>
      <trkpt lat="43.61688" lon="6.85617">
        <ele>261</ele>
        <time>2017-10-14T07:36:01.000Z</time>
      </trkpt>
      <trkpt lat="43.61686" lon="6.85617">
        <ele>261</ele>
        <time>2017-10-14T07:36:02.000Z</time>
      </trkpt>
      <trkpt lat="43.61684" lon="6.85619">
        <ele>260</ele>
        <time>2017-10-14T07:36:03.000Z</time>
      </trkpt>
      <trkpt lat="43.61683" lon="6.85622">
        <ele>261</ele>
        <time>2017-10-14T07:36:04.000Z</time>
      </trkpt>
      <trkpt lat="43.61682" lon="6.85625">
        <ele>260</ele>
        <time>2017-10-14T07:36:05.000Z</time>
      </trkpt>
      <trkpt lat="43.61682" lon="6.85628">
        <ele>259</ele>
        <time>2017-10-14T07:36:06.000Z</time>
      </trkpt>
      <trkpt lat="43.61682" lon="6.85631">
        <ele>258</ele>
        <time>2017-10-14T07:36:07.000Z</time>
      </trkpt>
      <trkpt lat="43.61682" lon="6.85634">
        <ele>258</ele>
        <time>2017-10-14T07:36:08.000Z</time>
      </trkpt>
      <trkpt lat="43.61682" lon="6.85636">
        <ele>257</ele>
        <time>2017-10-14T07:36:09.000Z</time>
      </trkpt>
      <trkpt lat="43.61683" lon="6.85638">
        <ele>258</ele>
        <time>2017-10-14T07:36:10.000Z</time>
      </trkpt>
      <trkpt lat="43.61684" lon="6.85641">
        <ele>256</ele>
        <time>2017-10-14T07:36:11.000Z</time>
      </trkpt>
      <trkpt lat="43.61685" lon="6.85643">
        <ele>256</ele>
        <time>2017-10-14T07:36:12.000Z</time>
      </trkpt>
      <trkpt lat="43.61686" lon="6.85646">
        <ele>255</ele>
        <time>2017-10-14T07:36:13.000Z</time>
      </trkpt>
      <trkpt lat="43.61687" lon="6.85648">
        <ele>254</ele>
        <time>2017-10-14T07:36:14.000Z</time>
      </trkpt>
      <trkpt lat="43.61689" lon="6.8565">
        <ele>253</ele>
        <time>2017-10-14T07:36:15.000Z</time>
      </trkpt>
      <trkpt lat="43.61691" lon="6.85652">
        <ele>253</ele>
        <time>2017-10-14T07:36:16.000Z</time>
      </trkpt>
      <trkpt lat="43.61692" lon="6.85654">
        <ele>252</ele>
        <time>2017-10-14T07:36:17.000Z</time>
      </trkpt>
      <trkpt lat="43.61694" lon="6.85656">
        <ele>252</ele>
        <time>2017-10-14T07:36:18.000Z</time>
      </trkpt>
      <trkpt lat="43.61696" lon="6.85658">
        <ele>252</ele>
        <time>2017-10-14T07:36:19.000Z</time>
      </trkpt>
      <trkpt lat="43.61698" lon="6.8566">
        <ele>252</ele>
        <time>2017-10-14T07:36:20.000Z</time>
      </trkpt>
      <trkpt lat="43.61699" lon="6.85662">
        <ele>252</ele>
        <time>2017-10-14T07:36:21.000Z</time>
      </trkpt>
      <trkpt lat="43.61701" lon="6.85664">
        <ele>252</ele>
        <time>2017-10-14T07:36:22.000Z</time>
      </trkpt>
      <trkpt lat="43.61703" lon="6.85666">
        <ele>252</ele>
        <time>2017-10-14T07:36:23.000Z</time>
      </trkpt>
      <trkpt lat="43.61705" lon="6.85668">
        <ele>252</ele>
        <time>2017-10-14T07:36:24.000Z</time>
      </trkpt>
      <trkpt lat="43.61707" lon="6.8567">
        <ele>251</ele>
        <time>2017-10-14T07:36:25.000Z</time>
      </trkpt>
      <trkpt lat="43.6171" lon="6.85672">
        <ele>251</ele>
        <time>2017-10-14T07:36:26.000Z</time>
      </trkpt>
      <trkpt lat="43.61712" lon="6.85674">
        <ele>251</ele>
        <time>2017-10-14T07:36:27.000Z</time>
      </trkpt>
      <trkpt lat="43.61714" lon="6.85675">
        <ele>250</ele>
        <time>2017-10-14T07:36:28.000Z</time>
      </trkpt>
      <trkpt lat="43.61716" lon="6.85677">
        <ele>251</ele>
        <time>2017-10-14T07:36:29.000Z</time>
      </trkpt>
      <trkpt lat="43.61718" lon="6.85679">
        <ele>251</ele>
        <time>2017-10-14T07:36:30.000Z</time>
      </trkpt>
      <trkpt lat="43.61721" lon="6.8568">
        <ele>251</ele>
        <time>2017-10-14T07:36:31.000Z</time>
      </trkpt>
      <trkpt lat="43.61723" lon="6.85682">
        <ele>251</ele>
        <time>2017-10-14T07:36:32.000Z</time>
      </trkpt>
      <trkpt lat="43.61725" lon="6.85683">
        <ele>250</ele>
        <time>2017-10-14T07:36:33.000Z</time>
      </trkpt>
      <trkpt lat="43.61728" lon="6.85684">
        <ele>251</ele>
        <time>2017-10-14T07:36:34.000Z</time>
      </trkpt>
      <trkpt lat="43.6173" lon="6.85685">
        <ele>251</ele>
        <time>2017-10-14T07:36:35.000Z</time>
      </trkpt>
      <trkpt lat="43.61733" lon="6.85686">
        <ele>252</ele>
        <time>2017-10-14T07:36:36.000Z</time>
      </trkpt>
      <trkpt lat="43.61736" lon="6.85687">
        <ele>253</ele>
        <time>2017-10-14T07:36:37.000Z</time>
      </trkpt>
      <trkpt lat="43.61738" lon="6.85687">
        <ele>253</ele>
        <time>2017-10-14T07:36:38.000Z</time>
      </trkpt>
      <trkpt lat="43.61741" lon="6.85688">
        <ele>253</ele>
        <time>2017-10-14T07:36:39.000Z</time>
      </trkpt>
      <trkpt lat="43.61744" lon="6.85688">
        <ele>254</ele>
        <time>2017-10-14T07:36:40.000Z</time>
      </trkpt>
      <trkpt lat="43.61746" lon="6.85688">
        <ele>254</ele>
        <time>2017-10-14T07:36:41.000Z</time>
      </trkpt>
      <trkpt lat="43.61748" lon="6.85688">
        <ele>254</ele>
        <time>2017-10-14T07:36:42.000Z</time>
      </trkpt>
      <trkpt lat="43.6175" lon="6.85688">
        <ele>254</ele>
        <time>2017-10-14T07:36:43.000Z</time>
      </trkpt>
      <trkpt lat="43.61753" lon="6.85689">
        <ele>255</ele>
        <time>2017-10-14T07:36:44.000Z</time>
      </trkpt>
      <trkpt lat="43.61755" lon="6.85688">
        <ele>254</ele>
        <time>2017-10-14T07:36:45.000Z</time>
      </trkpt>
      <trkpt lat="43.61757" lon="6.85687">
        <ele>255</ele>
        <time>2017-10-14T07:36:46.000Z</time>
      </trkpt>
      <trkpt lat="43.61759" lon="6.85685">
        <ele>256</ele>
        <time>2017-10-14T07:36:47.000Z</time>
      </trkpt>
      <trkpt lat="43.61761" lon="6.85684">
        <ele>256</ele>
        <time>2017-10-14T07:36:48.000Z</time>
      </trkpt>
      <trkpt lat="43.61763" lon="6.85683">
        <ele>257</ele>
        <time>2017-10-14T07:36:49.000Z</time>
      </trkpt>
      <trkpt lat="43.61765" lon="6.85682">
        <ele>258</ele>
        <time>2017-10-14T07:36:50.000Z</time>
      </trkpt>
      <trkpt lat="43.61767" lon="6.85681">
        <ele>258</ele>
        <time>2017-10-14T07:36:51.000Z</time>
      </trkpt>
      <trkpt lat="43.61769" lon="6.85681">
        <ele>258</ele>
        <time>2017-10-14T07:36:52.000Z</time>
      </trkpt>
      <trkpt lat="43.6177" lon="6.8568">
        <ele>258</ele>
        <time>2017-10-14T07:36:53.000Z</time>
      </trkpt>
      <trkpt lat="43.61772" lon="6.8568">
        <ele>259</ele>
        <time>2017-10-14T07:36:54.000Z</time>
      </trkpt>
      <trkpt lat="43.61775" lon="6.8568">
        <ele>259</ele>
        <time>2017-10-14T07:36:55.000Z</time>
      </trkpt>
      <trkpt lat="43.61777" lon="6.8568">
        <ele>260</ele>
        <time>2017-10-14T07:36:56.000Z</time>
      </trkpt>
      <trkpt lat="43.61779" lon="6.8568">
        <ele>260</ele>
        <time>2017-10-14T07:36:57.000Z</time>
      </trkpt>
      <trkpt lat="43.61781" lon="6.8568">
        <ele>260</ele>
        <time>2017-10-14T07:36:58.000Z</time>
      </trkpt>
      <trkpt lat="43.61783" lon="6.8568">
        <ele>260</ele>
        <time>2017-10-14T07:36:59.000Z</time>
      </trkpt>
      <trkpt lat="43.61786" lon="6.85681">
        <ele>261</ele>
        <time>2017-10-14T07:37:00.000Z</time>
      </trkpt>
      <trkpt lat="43.61788" lon="6.85681">
        <ele>260</ele>
        <time>2017-10-14T07:37:01.000Z</time>
      </trkpt>
      <trkpt lat="43.6179" lon="6.85681">
        <ele>261</ele>
        <time>2017-10-14T07:37:02.000Z</time>
      </trkpt>
      <trkpt lat="43.61792" lon="6.8568">
        <ele>261</ele>
        <time>2017-10-14T07:37:03.000Z</time>
      </trkpt>
      <trkpt lat="43.61795" lon="6.8568">
        <ele>260</ele>
        <time>2017-10-14T07:37:04.000Z</time>
      </trkpt>
      <trkpt lat="43.61797" lon="6.85679">
        <ele>259</ele>
        <time>2017-10-14T07:37:05.000Z</time>
      </trkpt>
      <trkpt lat="43.61799" lon="6.85679">
        <ele>260</ele>
        <time>2017-10-14T07:37:06.000Z</time>
      </trkpt>
      <trkpt lat="43.61801" lon="6.85678">
        <ele>259</ele>
        <time>2017-10-14T07:37:07.000Z</time>
      </trkpt>
      <trkpt lat="43.61804" lon="6.85678">
        <ele>259</ele>
        <time>2017-10-14T07:37:08.000Z</time>
      </trkpt>
      <trkpt lat="43.61806" lon="6.85677">
        <ele>259</ele>
        <time>2017-10-14T07:37:09.000Z</time>
      </trkpt>
      <trkpt lat="43.61808" lon="6.85678">
        <ele>258</ele>
        <time>2017-10-14T07:37:10.000Z</time>
      </trkpt>
      <trkpt lat="43.6181" lon="6.85678">
        <ele>258</ele>
        <time>2017-10-14T07:37:11.000Z</time>
      </trkpt>
      <trkpt lat="43.61813" lon="6.85678">
        <ele>257</ele>
        <time>2017-10-14T07:37:12.000Z</time>
      </trkpt>
      <trkpt lat="43.61815" lon="6.85679">
        <ele>256</ele>
        <time>2017-10-14T07:37:13.000Z</time>
      </trkpt>
      <trkpt lat="43.61817" lon="6.8568">
        <ele>256</ele>
        <time>2017-10-14T07:37:14.000Z</time>
      </trkpt>
      <trkpt lat="43.61819" lon="6.85681">
        <ele>254</ele>
        <time>2017-10-14T07:37:15.000Z</time>
      </trkpt>
      <trkpt lat="43.61821" lon="6.85682">
        <ele>253</ele>
        <time>2017-10-14T07:37:16.000Z</time>
      </trkpt>
      <trkpt lat="43.61823" lon="6.85683">
        <ele>252</ele>
        <time>2017-10-14T07:37:17.000Z</time>
      </trkpt>
      <trkpt lat="43.61825" lon="6.85684">
        <ele>253</ele>
        <time>2017-10-14T07:37:18.000Z</time>
      </trkpt>
      <trkpt lat="43.61827" lon="6.85685">
        <ele>252</ele>
        <time>2017-10-14T07:37:19.000Z</time>
      </trkpt>
      <trkpt lat="43.61829" lon="6.85686">
        <ele>252</ele>
        <time>2017-10-14T07:37:20.000Z</time>
      </trkpt>
      <trkpt lat="43.61831" lon="6.85688">
        <ele>252</ele>
        <time>2017-10-14T07:37:21.000Z</time>
      </trkpt>
      <trkpt lat="43.61833" lon="6.85689">
        <ele>251</ele>
        <time>2017-10-14T07:37:22.000Z</time>
      </trkpt>
      <trkpt lat="43.61835" lon="6.85691">
        <ele>251</ele>
        <time>2017-10-14T07:37:23.000Z</time>
      </trkpt>
      <trkpt lat="43.61838" lon="6.85692">
        <ele>250</ele>
        <time>2017-10-14T07:37:24.000Z</time>
      </trkpt>
      <trkpt lat="43.6184" lon="6.85693">
        <ele>250</ele>
        <time>2017-10-14T07:37:25.000Z</time>
      </trkpt>
      <trkpt lat="43.61842" lon="6.85694">
        <ele>250</ele>
        <time>2017-10-14T07:37:26.000Z</time>
      </trkpt>
      <trkpt lat="43.61844" lon="6.85695">
        <ele>250</ele>
        <time>2017-10-14T07:37:27.000Z</time>
      </trkpt>
      <trkpt lat="43.61846" lon="6.85696">
        <ele>250</ele>
        <time>2017-10-14T07:37:28.000Z</time>
      </trkpt>
      <trkpt lat="43.61848" lon="6.85697">
        <ele>250</ele>
        <time>2017-10-14T07:37:29.000Z</time>
      </trkpt>
      <trkpt lat="43.6185" lon="6.85698">
        <ele>250</ele>
        <time>2017-10-14T07:37:30.000Z</time>
      </trkpt>
      <trkpt lat="43.61852" lon="6.85698">
        <ele>250</ele>
        <time>2017-10-14T07:37:31.000Z</time>
      </trkpt>
      <trkpt lat="43.61855" lon="6.85698">
        <ele>251</ele>
        <time>2017-10-14T07:37:32.000Z</time>
      </trkpt>
      <trkpt lat="43.61857" lon="6.85698">
        <ele>251</ele>
        <time>2017-10-14T07:37:33.000Z</time>
      </trkpt>
      <trkpt lat="43.6186" lon="6.85698">
        <ele>252</ele>
        <time>2017-10-14T07:37:34.000Z</time>
      </trkpt>
      <trkpt lat="43.61863" lon="6.85697">
        <ele>252</ele>
        <time>2017-10-14T07:37:35.000Z</time>
      </trkpt>
      <trkpt lat="43.61865" lon="6.85697">
        <ele>252</ele>
        <time>2017-10-14T07:37:36.000Z</time>
      </trkpt>
      <trkpt lat="43.61867" lon="6.85696">
        <ele>252</ele>
        <time>2017-10-14T07:37:37.000Z</time>
      </trkpt>
      <trkpt lat="43.6187" lon="6.85696">
        <ele>252</ele>
        <time>2017-10-14T07:37:38.000Z</time>
      </trkpt>
      <trkpt lat="43.61872" lon="6.85696">
        <ele>253</ele>
        <time>2017-10-14T07:37:39.000Z</time>
      </trkpt>
      <trkpt lat="43.61875" lon="6.85696">
        <ele>254</ele>
        <time>2017-10-14T07:37:40.000Z</time>
      </trkpt>
      <trkpt lat="43.61878" lon="6.85696">
        <ele>253</ele>
        <time>2017-10-14T07:37:41.000Z</time>
      </trkpt>
      <trkpt lat="43.61881" lon="6.85696">
        <ele>253</ele>
        <time>2017-10-14T07:37:42.000Z</time>
      </trkpt>
      <trkpt lat="43.61883" lon="6.85697">
        <ele>252</ele>
        <time>2017-10-14T07:37:43.000Z</time>
      </trkpt>
      <trkpt lat="43.61886" lon="6.85697">
        <ele>251</ele>
        <time>2017-10-14T07:37:44.000Z</time>
      </trkpt>
      <trkpt lat="43.61888" lon="6.85697">
        <ele>251</ele>
        <time>2017-10-14T07:37:45.000Z</time>
      </trkpt>
      <trkpt lat="43.61891" lon="6.85698">
        <ele>250</ele>
        <time>2017-10-14T07:37:46.000Z</time>
      </trkpt>
      <trkpt lat="43.61893" lon="6.85698">
        <ele>249</ele>
        <time>2017-10-14T07:37:47.000Z</time>
      </trkpt>
      <trkpt lat="43.61895" lon="6.85699">
        <ele>249</ele>
        <time>2017-10-14T07:37:48.000Z</time>
      </trkpt>
      <trkpt lat="43.61898" lon="6.85699">
        <ele>249</ele>
        <time>2017-10-14T07:37:49.000Z</time>
      </trkpt>
      <trkpt lat="43.619" lon="6.857">
        <ele>249</ele>
        <time>2017-10-14T07:37:50.000Z</time>
      </trkpt>
      <trkpt lat="43.61902" lon="6.85701">
        <ele>249</ele>
        <time>2017-10-14T07:37:51.000Z</time>
      </trkpt>
      <trkpt lat="43.61905" lon="6.85701">
        <ele>248</ele>
        <time>2017-10-14T07:37:52.000Z</time>
      </trkpt>
      <trkpt lat="43.61907" lon="6.85701">
        <ele>247</ele>
        <time>2017-10-14T07:37:53.000Z</time>
      </trkpt>
      <trkpt lat="43.61909" lon="6.85701">
        <ele>247</ele>
        <time>2017-10-14T07:37:54.000Z</time>
      </trkpt>
      <trkpt lat="43.61912" lon="6.85701">
        <ele>247</ele>
        <time>2017-10-14T07:37:55.000Z</time>
      </trkpt>
      <trkpt lat="43.61915" lon="6.85701">
        <ele>247</ele>
        <time>2017-10-14T07:37:56.000Z</time>
      </trkpt>
      <trkpt lat="43.61917" lon="6.85702">
        <ele>247</ele>
        <time>2017-10-14T07:37:57.000Z</time>
      </trkpt>
      <trkpt lat="43.6192" lon="6.85702">
        <ele>247</ele>
        <time>2017-10-14T07:37:58.000Z</time>
      </trkpt>
      <trkpt lat="43.61922" lon="6.85702">
        <ele>247</ele>
        <time>2017-10-14T07:37:59.000Z</time>
      </trkpt>
      <trkpt lat="43.61924" lon="6.85702">
        <ele>246</ele>
        <time>2017-10-14T07:38:00.000Z</time>
      </trkpt>
      <trkpt lat="43.61926" lon="6.85702">
        <ele>245</ele>
        <time>2017-10-14T07:38:01.000Z</time>
      </trkpt>
      <trkpt lat="43.61928" lon="6.85702">
        <ele>245</ele>
        <time>2017-10-14T07:38:02.000Z</time>
      </trkpt>
      <trkpt lat="43.61931" lon="6.85703">
        <ele>245</ele>
        <time>2017-10-14T07:38:03.000Z</time>
      </trkpt>
      <trkpt lat="43.61933" lon="6.85704">
        <ele>246</ele>
        <time>2017-10-14T07:38:04.000Z</time>
      </trkpt>
      <trkpt lat="43.61936" lon="6.85705">
        <ele>246</ele>
        <time>2017-10-14T07:38:05.000Z</time>
      </trkpt>
      <trkpt lat="43.61939" lon="6.85705">
        <ele>246</ele>
        <time>2017-10-14T07:38:06.000Z</time>
      </trkpt>
      <trkpt lat="43.61941" lon="6.85705">
        <ele>246</ele>
        <time>2017-10-14T07:38:07.000Z</time>
      </trkpt>
      <trkpt lat="43.61943" lon="6.85706">
        <ele>245</ele>
        <time>2017-10-14T07:38:08.000Z</time>
      </trkpt>
      <trkpt lat="43.61946" lon="6.85706">
        <ele>245</ele>
        <time>2017-10-14T07:38:09.000Z</time>
      </trkpt>
      <trkpt lat="43.61948" lon="6.85706">
        <ele>245</ele>
        <time>2017-10-14T07:38:10.000Z</time>
      </trkpt>
      <trkpt lat="43.61951" lon="6.85707">
        <ele>244</ele>
        <time>2017-10-14T07:38:11.000Z</time>
      </trkpt>
      <trkpt lat="43.61953" lon="6.85707">
        <ele>244</ele>
        <time>2017-10-14T07:38:12.000Z</time>
      </trkpt>
      <trkpt lat="43.61955" lon="6.85707">
        <ele>243</ele>
        <time>2017-10-14T07:38:13.000Z</time>
      </trkpt>
      <trkpt lat="43.61957" lon="6.85707">
        <ele>243</ele>
        <time>2017-10-14T07:38:14.000Z</time>
      </trkpt>
      <trkpt lat="43.61959" lon="6.85707">
        <ele>243</ele>
        <time>2017-10-14T07:38:15.000Z</time>
      </trkpt>
      <trkpt lat="43.61961" lon="6.85706">
        <ele>243</ele>
        <time>2017-10-14T07:38:16.000Z</time>
      </trkpt>
      <trkpt lat="43.61962" lon="6.85705">
        <ele>243</ele>
        <time>2017-10-14T07:38:17.000Z</time>
      </trkpt>
      <trkpt lat="43.61964" lon="6.85704">
        <ele>243</ele>
        <time>2017-10-14T07:38:18.000Z</time>
      </trkpt>
      <trkpt lat="43.61965" lon="6.85703">
        <ele>243</ele>
        <time>2017-10-14T07:38:19.000Z</time>
      </trkpt>
      <trkpt lat="43.61966" lon="6.85702">
        <ele>243</ele>
        <time>2017-10-14T07:38:20.000Z</time>
      </trkpt>
      <trkpt lat="43.61967" lon="6.85702">
        <ele>244</ele>
        <time>2017-10-14T07:38:21.000Z</time>
      </trkpt>
      <trkpt lat="43.61969" lon="6.857">
        <ele>244</ele>
        <time>2017-10-14T07:38:22.000Z</time>
      </trkpt>
      <trkpt lat="43.6197" lon="6.85698">
        <ele>244</ele>
        <time>2017-10-14T07:38:23.000Z</time>
      </trkpt>
      <trkpt lat="43.61971" lon="6.85696">
        <ele>244</ele>
        <time>2017-10-14T07:38:24.000Z</time>
      </trkpt>
      <trkpt lat="43.61972" lon="6.85694">
        <ele>244</ele>
        <time>2017-10-14T07:38:25.000Z</time>
      </trkpt>
      <trkpt lat="43.61974" lon="6.85692">
        <ele>244</ele>
        <time>2017-10-14T07:38:26.000Z</time>
      </trkpt>
      <trkpt lat="43.61975" lon="6.85691">
        <ele>244</ele>
        <time>2017-10-14T07:38:27.000Z</time>
      </trkpt>
      <trkpt lat="43.61976" lon="6.85689">
        <ele>245</ele>
        <time>2017-10-14T07:38:28.000Z</time>
      </trkpt>
      <trkpt lat="43.61978" lon="6.85688">
        <ele>245</ele>
        <time>2017-10-14T07:38:29.000Z</time>
      </trkpt>
      <trkpt lat="43.6198" lon="6.85687">
        <ele>245</ele>
        <time>2017-10-14T07:38:30.000Z</time>
      </trkpt>
      <trkpt lat="43.61982" lon="6.85686">
        <ele>246</ele>
        <time>2017-10-14T07:38:31.000Z</time>
      </trkpt>
      <trkpt lat="43.61984" lon="6.85685">
        <ele>246</ele>
        <time>2017-10-14T07:38:32.000Z</time>
      </trkpt>
      <trkpt lat="43.61986" lon="6.85684">
        <ele>247</ele>
        <time>2017-10-14T07:38:33.000Z</time>
      </trkpt>
      <trkpt lat="43.61988" lon="6.85683">
        <ele>247</ele>
        <time>2017-10-14T07:38:34.000Z</time>
      </trkpt>
      <trkpt lat="43.6199" lon="6.85682">
        <ele>248</ele>
        <time>2017-10-14T07:38:35.000Z</time>
      </trkpt>
      <trkpt lat="43.61992" lon="6.85681">
        <ele>248</ele>
        <time>2017-10-14T07:38:36.000Z</time>
      </trkpt>
      <trkpt lat="43.61994" lon="6.85679">
        <ele>248</ele>
        <time>2017-10-14T07:38:37.000Z</time>
      </trkpt>
      <trkpt lat="43.61995" lon="6.85677">
        <ele>248</ele>
        <time>2017-10-14T07:38:38.000Z</time>
      </trkpt>
      <trkpt lat="43.61997" lon="6.85675">
        <ele>249</ele>
        <time>2017-10-14T07:38:39.000Z</time>
      </trkpt>
      <trkpt lat="43.61998" lon="6.85673">
        <ele>249</ele>
        <time>2017-10-14T07:38:40.000Z</time>
      </trkpt>
      <trkpt lat="43.62" lon="6.85671">
        <ele>249</ele>
        <time>2017-10-14T07:38:41.000Z</time>
      </trkpt>
      <trkpt lat="43.62002" lon="6.85669">
        <ele>250</ele>
        <time>2017-10-14T07:38:42.000Z</time>
      </trkpt>
      <trkpt lat="43.62003" lon="6.85666">
        <ele>250</ele>
        <time>2017-10-14T07:38:43.000Z</time>
      </trkpt>
      <trkpt lat="43.62004" lon="6.85664">
        <ele>250</ele>
        <time>2017-10-14T07:38:44.000Z</time>
      </trkpt>
      <trkpt lat="43.62006" lon="6.85661">
        <ele>250</ele>
        <time>2017-10-14T07:38:45.000Z</time>
      </trkpt>
      <trkpt lat="43.62007" lon="6.85658">
        <ele>250</ele>
        <time>2017-10-14T07:38:46.000Z</time>
      </trkpt>
      <trkpt lat="43.62008" lon="6.85655">
        <ele>250</ele>
        <time>2017-10-14T07:38:47.000Z</time>
      </trkpt>
      <trkpt lat="43.62009" lon="6.85653">
        <ele>250</ele>
        <time>2017-10-14T07:38:48.000Z</time>
      </trkpt>
      <trkpt lat="43.6201" lon="6.8565">
        <ele>250</ele>
        <time>2017-10-14T07:38:49.000Z</time>
      </trkpt>
      <trkpt lat="43.62012" lon="6.85648">
        <ele>250</ele>
        <time>2017-10-14T07:38:50.000Z</time>
      </trkpt>
      <trkpt lat="43.62013" lon="6.85645">
        <ele>250</ele>
        <time>2017-10-14T07:38:51.000Z</time>
      </trkpt>
      <trkpt lat="43.62014" lon="6.85643">
        <ele>249</ele>
        <time>2017-10-14T07:38:52.000Z</time>
      </trkpt>
      <trkpt lat="43.62014" lon="6.8564">
        <ele>249</ele>
        <time>2017-10-14T07:38:53.000Z</time>
      </trkpt>
      <trkpt lat="43.62015" lon="6.85638">
        <ele>249</ele>
        <time>2017-10-14T07:38:54.000Z</time>
      </trkpt>
      <trkpt lat="43.62015" lon="6.85635">
        <ele>250</ele>
        <time>2017-10-14T07:38:55.000Z</time>
      </trkpt>
      <trkpt lat="43.62016" lon="6.85633">
        <ele>250</ele>
        <time>2017-10-14T07:38:56.000Z</time>
      </trkpt>
      <trkpt lat="43.62016" lon="6.8563">
        <ele>250</ele>
        <time>2017-10-14T07:38:57.000Z</time>
      </trkpt>
      <trkpt lat="43.62017" lon="6.85627">
        <ele>251</ele>
        <time>2017-10-14T07:38:58.000Z</time>
      </trkpt>
      <trkpt lat="43.62018" lon="6.85624">
        <ele>251</ele>
        <time>2017-10-14T07:38:59.000Z</time>
      </trkpt>
      <trkpt lat="43.62019" lon="6.85621">
        <ele>251</ele>
        <time>2017-10-14T07:39:00.000Z</time>
      </trkpt>
      <trkpt lat="43.6202" lon="6.85619">
        <ele>251</ele>
        <time>2017-10-14T07:39:01.000Z</time>
      </trkpt>
      <trkpt lat="43.62021" lon="6.85616">
        <ele>250</ele>
        <time>2017-10-14T07:39:02.000Z</time>
      </trkpt>
      <trkpt lat="43.62022" lon="6.85614">
        <ele>249</ele>
        <time>2017-10-14T07:39:03.000Z</time>
      </trkpt>
      <trkpt lat="43.62023" lon="6.85612">
        <ele>249</ele>
        <time>2017-10-14T07:39:04.000Z</time>
      </trkpt>
      <trkpt lat="43.62024" lon="6.8561">
        <ele>249</ele>
        <time>2017-10-14T07:39:05.000Z</time>
      </trkpt>
      <trkpt lat="43.62026" lon="6.85607">
        <ele>249</ele>
        <time>2017-10-14T07:39:06.000Z</time>
      </trkpt>
      <trkpt lat="43.62027" lon="6.85605">
        <ele>248</ele>
        <time>2017-10-14T07:39:07.000Z</time>
      </trkpt>
      <trkpt lat="43.62028" lon="6.85603">
        <ele>248</ele>
        <time>2017-10-14T07:39:08.000Z</time>
      </trkpt>
      <trkpt lat="43.6203" lon="6.85601">
        <ele>248</ele>
        <time>2017-10-14T07:39:09.000Z</time>
      </trkpt>
      <trkpt lat="43.62031" lon="6.85599">
        <ele>247</ele>
        <time>2017-10-14T07:39:10.000Z</time>
      </trkpt>
      <trkpt lat="43.62033" lon="6.85597">
        <ele>247</ele>
        <time>2017-10-14T07:39:11.000Z</time>
      </trkpt>
      <trkpt lat="43.62034" lon="6.85595">
        <ele>247</ele>
        <time>2017-10-14T07:39:12.000Z</time>
      </trkpt>
      <trkpt lat="43.62036" lon="6.85593">
        <ele>246</ele>
        <time>2017-10-14T07:39:13.000Z</time>
      </trkpt>
      <trkpt lat="43.62037" lon="6.85591">
        <ele>246</ele>
        <time>2017-10-14T07:39:14.000Z</time>
      </trkpt>
      <trkpt lat="43.62038" lon="6.85589">
        <ele>245</ele>
        <time>2017-10-14T07:39:15.000Z</time>
      </trkpt>
      <trkpt lat="43.62039" lon="6.85587">
        <ele>245</ele>
        <time>2017-10-14T07:39:16.000Z</time>
      </trkpt>
      <trkpt lat="43.62041" lon="6.85585">
        <ele>245</ele>
        <time>2017-10-14T07:39:17.000Z</time>
      </trkpt>
      <trkpt lat="43.62041" lon="6.85583">
        <ele>245</ele>
        <time>2017-10-14T07:39:18.000Z</time>
      </trkpt>
      <trkpt lat="43.62042" lon="6.85582">
        <ele>245</ele>
        <time>2017-10-14T07:39:19.000Z</time>
      </trkpt>
      <trkpt lat="43.62043" lon="6.85581">
        <ele>245</ele>
        <time>2017-10-14T07:39:20.000Z</time>
      </trkpt>
      <trkpt lat="43.62044" lon="6.85579">
        <ele>245</ele>
        <time>2017-10-14T07:39:21.000Z</time>
      </trkpt>
      <trkpt lat="43.62045" lon="6.85578">
        <ele>245</ele>
        <time>2017-10-14T07:39:22.000Z</time>
      </trkpt>
      <trkpt lat="43.62045" lon="6.85576">
        <ele>244</ele>
        <time>2017-10-14T07:39:23.000Z</time>
      </trkpt>
      <trkpt lat="43.62046" lon="6.85575">
        <ele>244</ele>
        <time>2017-10-14T07:39:24.000Z</time>
      </trkpt>
      <trkpt lat="43.62046" lon="6.85574">
        <ele>243</ele>
        <time>2017-10-14T07:39:25.000Z</time>
      </trkpt>
      <trkpt lat="43.62046" lon="6.85573">
        <ele>243</ele>
        <time>2017-10-14T07:39:26.000Z</time>
      </trkpt>
      <trkpt lat="43.62046" lon="6.85572">
        <ele>242</ele>
        <time>2017-10-14T07:39:27.000Z</time>
      </trkpt>
      <trkpt lat="43.62046" lon="6.85571">
        <ele>242</ele>
        <time>2017-10-14T07:39:28.000Z</time>
      </trkpt>
      <trkpt lat="43.62046" lon="6.85569">
        <ele>241</ele>
        <time>2017-10-14T07:39:29.000Z</time>
      </trkpt>
      <trkpt lat="43.62046" lon="6.85567">
        <ele>241</ele>
        <time>2017-10-14T07:39:30.000Z</time>
      </trkpt>
      <trkpt lat="43.62047" lon="6.85564">
        <ele>240</ele>
        <time>2017-10-14T07:39:31.000Z</time>
      </trkpt>
      <trkpt lat="43.62048" lon="6.85562">
        <ele>239</ele>
        <time>2017-10-14T07:39:32.000Z</time>
      </trkpt>
      <trkpt lat="43.62049" lon="6.8556">
        <ele>239</ele>
        <time>2017-10-14T07:39:33.000Z</time>
      </trkpt>
      <trkpt lat="43.6205" lon="6.85558">
        <ele>239</ele>
        <time>2017-10-14T07:39:34.000Z</time>
      </trkpt>
      <trkpt lat="43.6205" lon="6.85556">
        <ele>238</ele>
        <time>2017-10-14T07:39:35.000Z</time>
      </trkpt>
      <trkpt lat="43.62051" lon="6.85555">
        <ele>238</ele>
        <time>2017-10-14T07:39:36.000Z</time>
      </trkpt>
      <trkpt lat="43.62052" lon="6.85553">
        <ele>237</ele>
        <time>2017-10-14T07:39:37.000Z</time>
      </trkpt>
      <trkpt lat="43.62053" lon="6.85551">
        <ele>237</ele>
        <time>2017-10-14T07:39:38.000Z</time>
      </trkpt>
      <trkpt lat="43.62054" lon="6.8555">
        <ele>236</ele>
        <time>2017-10-14T07:39:39.000Z</time>
      </trkpt>
      <trkpt lat="43.62056" lon="6.85548">
        <ele>235</ele>
        <time>2017-10-14T07:39:40.000Z</time>
      </trkpt>
      <trkpt lat="43.62057" lon="6.85546">
        <ele>235</ele>
        <time>2017-10-14T07:39:41.000Z</time>
      </trkpt>
      <trkpt lat="43.62058" lon="6.85544">
        <ele>235</ele>
        <time>2017-10-14T07:39:42.000Z</time>
      </trkpt>
      <trkpt lat="43.6206" lon="6.85542">
        <ele>234</ele>
        <time>2017-10-14T07:39:43.000Z</time>
      </trkpt>
      <trkpt lat="43.62061" lon="6.85541">
        <ele>234</ele>
        <time>2017-10-14T07:39:44.000Z</time>
      </trkpt>
      <trkpt lat="43.62062" lon="6.85539">
        <ele>233</ele>
        <time>2017-10-14T07:39:45.000Z</time>
      </trkpt>
      <trkpt lat="43.62062" lon="6.85537">
        <ele>233</ele>
        <time>2017-10-14T07:39:46.000Z</time>
      </trkpt>
      <trkpt lat="43.62063" lon="6.85535">
        <ele>232</ele>
        <time>2017-10-14T07:39:47.000Z</time>
      </trkpt>
      <trkpt lat="43.62063" lon="6.85534">
        <ele>232</ele>
        <time>2017-10-14T07:39:48.000Z</time>
      </trkpt>
      <trkpt lat="43.62064" lon="6.85532">
        <ele>231</ele>
        <time>2017-10-14T07:39:49.000Z</time>
      </trkpt>
      <trkpt lat="43.62064" lon="6.85531">
        <ele>231</ele>
        <time>2017-10-14T07:39:50.000Z</time>
      </trkpt>
      <trkpt lat="43.62065" lon="6.85529">
        <ele>231</ele>
        <time>2017-10-14T07:39:51.000Z</time>
      </trkpt>
      <trkpt lat="43.62066" lon="6.85528">
        <ele>230</ele>
        <time>2017-10-14T07:39:52.000Z</time>
      </trkpt>
      <trkpt lat="43.62067" lon="6.85527">
        <ele>229</ele>
        <time>2017-10-14T07:39:53.000Z</time>
      </trkpt>
      <trkpt lat="43.62068" lon="6.85525">
        <ele>229</ele>
        <time>2017-10-14T07:39:54.000Z</time>
      </trkpt>
      <trkpt lat="43.62069" lon="6.85524">
        <ele>229</ele>
        <time>2017-10-14T07:39:55.000Z</time>
      </trkpt>
      <trkpt lat="43.6207" lon="6.85523">
        <ele>228</ele>
        <time>2017-10-14T07:39:56.000Z</time>
      </trkpt>
      <trkpt lat="43.62071" lon="6.85522">
        <ele>228</ele>
        <time>2017-10-14T07:39:57.000Z</time>
      </trkpt>
      <trkpt lat="43.62072" lon="6.85521">
        <ele>228</ele>
        <time>2017-10-14T07:39:58.000Z</time>
      </trkpt>
      <trkpt lat="43.62072" lon="6.8552">
        <ele>227</ele>
        <time>2017-10-14T07:39:59.000Z</time>
      </trkpt>
      <trkpt lat="43.62073" lon="6.85519">
        <ele>227</ele>
        <time>2017-10-14T07:40:00.000Z</time>
      </trkpt>
      <trkpt lat="43.62074" lon="6.85517">
        <ele>226</ele>
        <time>2017-10-14T07:40:01.000Z</time>
      </trkpt>
      <trkpt lat="43.62075" lon="6.85515">
        <ele>225</ele>
        <time>2017-10-14T07:40:02.000Z</time>
      </trkpt>
      <trkpt lat="43.62076" lon="6.85514">
        <ele>225</ele>
        <time>2017-10-14T07:40:03.000Z</time>
      </trkpt>
      <trkpt lat="43.62076" lon="6.85512">
        <ele>224</ele>
        <time>2017-10-14T07:40:04.000Z</time>
      </trkpt>
      <trkpt lat="43.62077" lon="6.85511">
        <ele>224</ele>
        <time>2017-10-14T07:40:05.000Z</time>
      </trkpt>
      <trkpt lat="43.62078" lon="6.85509">
        <ele>224</ele>
        <time>2017-10-14T07:40:06.000Z</time>
      </trkpt>
      <trkpt lat="43.62078" lon="6.85508">
        <ele>224</ele>
        <time>2017-10-14T07:40:07.000Z</time>
      </trkpt>
      <trkpt lat="43.62079" lon="6.85507">
        <ele>223</ele>
        <time>2017-10-14T07:40:08.000Z</time>
      </trkpt>
      <trkpt lat="43.6208" lon="6.85505">
        <ele>223</ele>
        <time>2017-10-14T07:40:09.000Z</time>
      </trkpt>
      <trkpt lat="43.6208" lon="6.85504">
        <ele>222</ele>
        <time>2017-10-14T07:40:10.000Z</time>
      </trkpt>
      <trkpt lat="43.62081" lon="6.85502">
        <ele>222</ele>
        <time>2017-10-14T07:40:11.000Z</time>
      </trkpt>
      <trkpt lat="43.62081" lon="6.85501">
        <ele>222</ele>
        <time>2017-10-14T07:40:12.000Z</time>
      </trkpt>
      <trkpt lat="43.62081" lon="6.85499">
        <ele>221</ele>
        <time>2017-10-14T07:40:13.000Z</time>
      </trkpt>
      <trkpt lat="43.62082" lon="6.85498">
        <ele>221</ele>
        <time>2017-10-14T07:40:14.000Z</time>
      </trkpt>
      <trkpt lat="43.62082" lon="6.85496">
        <ele>220</ele>
        <time>2017-10-14T07:40:15.000Z</time>
      </trkpt>
      <trkpt lat="43.62083" lon="6.85495">
        <ele>220</ele>
        <time>2017-10-14T07:40:16.000Z</time>
      </trkpt>
      <trkpt lat="43.62084" lon="6.85493">
        <ele>219</ele>
        <time>2017-10-14T07:40:17.000Z</time>
      </trkpt>
      <trkpt lat="43.62085" lon="6.85491">
        <ele>219</ele>
        <time>2017-10-14T07:40:18.000Z</time>
      </trkpt>
      <trkpt lat="43.62086" lon="6.85489">
        <ele>218</ele>
        <time>2017-10-14T07:40:19.000Z</time>
      </trkpt>
      <trkpt lat="43.62086" lon="6.85487">
        <ele>218</ele>
        <time>2017-10-14T07:40:20.000Z</time>
      </trkpt>
      <trkpt lat="43.62087" lon="6.85486">
        <ele>218</ele>
        <time>2017-10-14T07:40:21.000Z</time>
      </trkpt>
      <trkpt lat="43.62087" lon="6.85484">
        <ele>217</ele>
        <time>2017-10-14T07:40:22.000Z</time>
      </trkpt>
      <trkpt lat="43.62088" lon="6.85482">
        <ele>217</ele>
        <time>2017-10-14T07:40:23.000Z</time>
      </trkpt>
      <trkpt lat="43.62089" lon="6.85481">
        <ele>216</ele>
        <time>2017-10-14T07:40:24.000Z</time>
      </trkpt>
      <trkpt lat="43.6209" lon="6.85479">
        <ele>216</ele>
        <time>2017-10-14T07:40:25.000Z</time>
      </trkpt>
      <trkpt lat="43.6209" lon="6.85478">
        <ele>215</ele>
        <time>2017-10-14T07:40:26.000Z</time>
      </trkpt>
      <trkpt lat="43.62091" lon="6.85476">
        <ele>215</ele>
        <time>2017-10-14T07:40:27.000Z</time>
      </trkpt>
      <trkpt lat="43.62092" lon="6.85475">
        <ele>214</ele>
        <time>2017-10-14T07:40:28.000Z</time>
      </trkpt>
      <trkpt lat="43.62092" lon="6.85473">
        <ele>214</ele>
        <time>2017-10-14T07:40:29.000Z</time>
      </trkpt>
      <trkpt lat="43.62093" lon="6.85472">
        <ele>213</ele>
        <time>2017-10-14T07:40:30.000Z</time>
      </trkpt>
      <trkpt lat="43.62094" lon="6.85471">
        <ele>213</ele>
        <time>2017-10-14T07:40:31.000Z</time>
      </trkpt>
      <trkpt lat="43.62094" lon="6.85469">
        <ele>212</ele>
        <time>2017-10-14T07:40:32.000Z</time>
      </trkpt>
      <trkpt lat="43.62095" lon="6.85468">
        <ele>212</ele>
        <time>2017-10-14T07:40:33.000Z</time>
      </trkpt>
      <trkpt lat="43.62095" lon="6.85467">
        <ele>212</ele>
        <time>2017-10-14T07:40:34.000Z</time>
      </trkpt>
      <trkpt lat="43.62096" lon="6.85465">
        <ele>211</ele>
        <time>2017-10-14T07:40:35.000Z</time>
      </trkpt>
      <trkpt lat="43.62096" lon="6.85464">
        <ele>211</ele>
        <time>2017-10-14T07:40:36.000Z</time>
      </trkpt>
      <trkpt lat="43.62097" lon="6.85463">
        <ele>210</ele>
        <time>2017-10-14T07:40:37.000Z</time>
      </trkpt>
      <trkpt lat="43.62097" lon="6.85462">
        <ele>210</ele>
        <time>2017-10-14T07:40:38.000Z</time>
      </trkpt>
      <trkpt lat="43.62098" lon="6.8546">
        <ele>209</ele>
        <time>2017-10-14T07:40:39.000Z</time>
      </trkpt>
      <trkpt lat="43.62098" lon="6.85459">
        <ele>209</ele>
        <time>2017-10-14T07:40:40.000Z</time>
      </trkpt>
      <trkpt lat="43.62099" lon="6.85458">
        <ele>208</ele>
        <time>2017-10-14T07:40:41.000Z</time>
      </trkpt>
      <trkpt lat="43.621" lon="6.85456">
        <ele>207</ele>
        <time>2017-10-14T07:40:42.000Z</time>
      </trkpt>
      <trkpt lat="43.62101" lon="6.85454">
        <ele>207</ele>
        <time>2017-10-14T07:40:43.000Z</time>
      </trkpt>
      <trkpt lat="43.62102" lon="6.85452">
        <ele>206</ele>
        <time>2017-10-14T07:40:44.000Z</time>
      </trkpt>
      <trkpt lat="43.62103" lon="6.8545">
        <ele>205</ele>
        <time>2017-10-14T07:40:45.000Z</time>
      </trkpt>
      <trkpt lat="43.62104" lon="6.85448">
        <ele>205</ele>
        <time>2017-10-14T07:40:46.000Z</time>
      </trkpt>
      <trkpt lat="43.62105" lon="6.85446">
        <ele>204</ele>
        <time>2017-10-14T07:40:47.000Z</time>
      </trkpt>
      <trkpt lat="43.62106" lon="6.85444">
        <ele>204</ele>
        <time>2017-10-14T07:40:48.000Z</time>
      </trkpt>
      <trkpt lat="43.62108" lon="6.85442">
        <ele>203</ele>
        <time>2017-10-14T07:40:49.000Z</time>
      </trkpt>
      <trkpt lat="43.62109" lon="6.8544">
        <ele>203</ele>
        <time>2017-10-14T07:40:50.000Z</time>
      </trkpt>
      <trkpt lat="43.6211" lon="6.85438">
        <ele>202</ele>
        <time>2017-10-14T07:40:51.000Z</time>
      </trkpt>
      <trkpt lat="43.62111" lon="6.85436">
        <ele>202</ele>
        <time>2017-10-14T07:40:52.000Z</time>
      </trkpt>
      <trkpt lat="43.62113" lon="6.85434">
        <ele>201</ele>
        <time>2017-10-14T07:40:53.000Z</time>
      </trkpt>
      <trkpt lat="43.62114" lon="6.85432">
        <ele>201</ele>
        <time>2017-10-14T07:40:54.000Z</time>
      </trkpt>
      <trkpt lat="43.62115" lon="6.8543">
        <ele>201</ele>
        <time>2017-10-14T07:40:55.000Z</time>
      </trkpt>
      <trkpt lat="43.62116" lon="6.85429">
        <ele>200</ele>
        <time>2017-10-14T07:40:56.000Z</time>
      </trkpt>
      <trkpt lat="43.62117" lon="6.85427">
        <ele>200</ele>
        <time>2017-10-14T07:40:57.000Z</time>
      </trkpt>
      <trkpt lat="43.62118" lon="6.85425">
        <ele>199</ele>
        <time>2017-10-14T07:40:58.000Z</time>
      </trkpt>
      <trkpt lat="43.6212" lon="6.85423">
        <ele>199</ele>
        <time>2017-10-14T07:40:59.000Z</time>
      </trkpt>
      <trkpt lat="43.62121" lon="6.85422">
        <ele>198</ele>
        <time>2017-10-14T07:41:00.000Z</time>
      </trkpt>
      <trkpt lat="43.62122" lon="6.8542">
        <ele>198</ele>
        <time>2017-10-14T07:41:01.000Z</time>
      </trkpt>
      <trkpt lat="43.62123" lon="6.85418">
        <ele>198</ele>
        <time>2017-10-14T07:41:02.000Z</time>
      </trkpt>
      <trkpt lat="43.62124" lon="6.85417">
        <ele>197</ele>
        <time>2017-10-14T07:41:03.000Z</time>
      </trkpt>
      <trkpt lat="43.62124" lon="6.85415">
        <ele>197</ele>
        <time>2017-10-14T07:41:04.000Z</time>
      </trkpt>
      <trkpt lat="43.62125" lon="6.85413">
        <ele>196</ele>
        <time>2017-10-14T07:41:05.000Z</time>
      </trkpt>
      <trkpt lat="43.62125" lon="6.85411">
        <ele>196</ele>
        <time>2017-10-14T07:41:06.000Z</time>
      </trkpt>
      <trkpt lat="43.62126" lon="6.85409">
        <ele>195</ele>
        <time>2017-10-14T07:41:07.000Z</time>
      </trkpt>
      <trkpt lat="43.62127" lon="6.85407">
        <ele>196</ele>
        <time>2017-10-14T07:41:08.000Z</time>
      </trkpt>
      <trkpt lat="43.62128" lon="6.85405">
        <ele>195</ele>
        <time>2017-10-14T07:41:09.000Z</time>
      </trkpt>
      <trkpt lat="43.62129" lon="6.85403">
        <ele>194</ele>
        <time>2017-10-14T07:41:10.000Z</time>
      </trkpt>
      <trkpt lat="43.6213" lon="6.85401">
        <ele>194</ele>
        <time>2017-10-14T07:41:11.000Z</time>
      </trkpt>
      <trkpt lat="43.62131" lon="6.85398">
        <ele>194</ele>
        <time>2017-10-14T07:41:12.000Z</time>
      </trkpt>
      <trkpt lat="43.62131" lon="6.85396">
        <ele>193</ele>
        <time>2017-10-14T07:41:13.000Z</time>
      </trkpt>
      <trkpt lat="43.62132" lon="6.85395">
        <ele>193</ele>
        <time>2017-10-14T07:41:14.000Z</time>
      </trkpt>
      <trkpt lat="43.62133" lon="6.85393">
        <ele>193</ele>
        <time>2017-10-14T07:41:15.000Z</time>
      </trkpt>
      <trkpt lat="43.62134" lon="6.85391">
        <ele>192</ele>
        <time>2017-10-14T07:41:16.000Z</time>
      </trkpt>
      <trkpt lat="43.62134" lon="6.85389">
        <ele>192</ele>
        <time>2017-10-14T07:41:17.000Z</time>
      </trkpt>
      <trkpt lat="43.62135" lon="6.85387">
        <ele>192</ele>
        <time>2017-10-14T07:41:18.000Z</time>
      </trkpt>
      <trkpt lat="43.62136" lon="6.85385">
        <ele>191</ele>
        <time>2017-10-14T07:41:19.000Z</time>
      </trkpt>
      <trkpt lat="43.62137" lon="6.85383">
        <ele>191</ele>
        <time>2017-10-14T07:41:20.000Z</time>
      </trkpt>
      <trkpt lat="43.62138" lon="6.85381">
        <ele>190</ele>
        <time>2017-10-14T07:41:21.000Z</time>
      </trkpt>
      <trkpt lat="43.62139" lon="6.8538">
        <ele>190</ele>
        <time>2017-10-14T07:41:22.000Z</time>
      </trkpt>
      <trkpt lat="43.6214" lon="6.85378">
        <ele>189</ele>
        <time>2017-10-14T07:41:23.000Z</time>
      </trkpt>
      <trkpt lat="43.62141" lon="6.85377">
        <ele>189</ele>
        <time>2017-10-14T07:41:24.000Z</time>
      </trkpt>
      <trkpt lat="43.62142" lon="6.85375">
        <ele>188</ele>
        <time>2017-10-14T07:41:25.000Z</time>
      </trkpt>
      <trkpt lat="43.62143" lon="6.85373">
        <ele>188</ele>
        <time>2017-10-14T07:41:26.000Z</time>
      </trkpt>
      <trkpt lat="43.62144" lon="6.85372">
        <ele>187</ele>
        <time>2017-10-14T07:41:27.000Z</time>
      </trkpt>
      <trkpt lat="43.62145" lon="6.8537">
        <ele>186</ele>
        <time>2017-10-14T07:41:28.000Z</time>
      </trkpt>
      <trkpt lat="43.62146" lon="6.85368">
        <ele>186</ele>
        <time>2017-10-14T07:41:29.000Z</time>
      </trkpt>
      <trkpt lat="43.62147" lon="6.85367">
        <ele>186</ele>
        <time>2017-10-14T07:41:30.000Z</time>
      </trkpt>
      <trkpt lat="43.62148" lon="6.85365">
        <ele>185</ele>
        <time>2017-10-14T07:41:31.000Z</time>
      </trkpt>
      <trkpt lat="43.62149" lon="6.85363">
        <ele>185</ele>
        <time>2017-10-14T07:41:32.000Z</time>
      </trkpt>
      <trkpt lat="43.6215" lon="6.85362">
        <ele>185</ele>
        <time>2017-10-14T07:41:33.000Z</time>
      </trkpt>
      <trkpt lat="43.62151" lon="6.8536">
        <ele>185</ele>
        <time>2017-10-14T07:41:34.000Z</time>
      </trkpt>
      <trkpt lat="43.62152" lon="6.85358">
        <ele>185</ele>
        <time>2017-10-14T07:41:35.000Z</time>
      </trkpt>
      <trkpt lat="43.62153" lon="6.85356">
        <ele>184</ele>
        <time>2017-10-14T07:41:36.000Z</time>
      </trkpt>
      <trkpt lat="43.62154" lon="6.85353">
        <ele>184</ele>
        <time>2017-10-14T07:41:37.000Z</time>
      </trkpt>
      <trkpt lat="43.62154" lon="6.85351">
        <ele>184</ele>
        <time>2017-10-14T07:41:38.000Z</time>
      </trkpt>
      <trkpt lat="43.62155" lon="6.85349">
        <ele>184</ele>
        <time>2017-10-14T07:41:39.000Z</time>
      </trkpt>
      <trkpt lat="43.62155" lon="6.85348">
        <ele>183</ele>
        <time>2017-10-14T07:41:40.000Z</time>
      </trkpt>
      <trkpt lat="43.62155" lon="6.85346">
        <ele>183</ele>
        <time>2017-10-14T07:41:41.000Z</time>
      </trkpt>
      <trkpt lat="43.62156" lon="6.85344">
        <ele>183</ele>
        <time>2017-10-14T07:41:42.000Z</time>
      </trkpt>
      <trkpt lat="43.62156" lon="6.85341">
        <ele>182</ele>
        <time>2017-10-14T07:41:43.000Z</time>
      </trkpt>
      <trkpt lat="43.62157" lon="6.85338">
        <ele>182</ele>
        <time>2017-10-14T07:41:44.000Z</time>
      </trkpt>
      <trkpt lat="43.62158" lon="6.85335">
        <ele>182</ele>
        <time>2017-10-14T07:41:45.000Z</time>
      </trkpt>
      <trkpt lat="43.62159" lon="6.85332">
        <ele>182</ele>
        <time>2017-10-14T07:41:46.000Z</time>
      </trkpt>
      <trkpt lat="43.6216" lon="6.85329">
        <ele>182</ele>
        <time>2017-10-14T07:41:47.000Z</time>
      </trkpt>
      <trkpt lat="43.62161" lon="6.85326">
        <ele>183</ele>
        <time>2017-10-14T07:41:48.000Z</time>
      </trkpt>
      <trkpt lat="43.62163" lon="6.85323">
        <ele>183</ele>
        <time>2017-10-14T07:41:49.000Z</time>
      </trkpt>
      <trkpt lat="43.62164" lon="6.8532">
        <ele>183</ele>
        <time>2017-10-14T07:41:50.000Z</time>
      </trkpt>
      <trkpt lat="43.62165" lon="6.85317">
        <ele>183</ele>
        <time>2017-10-14T07:41:51.000Z</time>
      </trkpt>
      <trkpt lat="43.62167" lon="6.85314">
        <ele>182</ele>
        <time>2017-10-14T07:41:52.000Z</time>
      </trkpt>
      <trkpt lat="43.62168" lon="6.85312">
        <ele>182</ele>
        <time>2017-10-14T07:41:53.000Z</time>
      </trkpt>
      <trkpt lat="43.6217" lon="6.85309">
        <ele>182</ele>
        <time>2017-10-14T07:41:54.000Z</time>
      </trkpt>
      <trkpt lat="43.62171" lon="6.85307">
        <ele>182</ele>
        <time>2017-10-14T07:41:55.000Z</time>
      </trkpt>
      <trkpt lat="43.62173" lon="6.85304">
        <ele>182</ele>
        <time>2017-10-14T07:41:56.000Z</time>
      </trkpt>
      <trkpt lat="43.62174" lon="6.85301">
        <ele>183</ele>
        <time>2017-10-14T07:41:57.000Z</time>
      </trkpt>
      <trkpt lat="43.62175" lon="6.85299">
        <ele>183</ele>
        <time>2017-10-14T07:41:58.000Z</time>
      </trkpt>
      <trkpt lat="43.62176" lon="6.85297">
        <ele>183</ele>
        <time>2017-10-14T07:41:59.000Z</time>
      </trkpt>
      <trkpt lat="43.62177" lon="6.85295">
        <ele>183</ele>
        <time>2017-10-14T07:42:00.000Z</time>
      </trkpt>
      <trkpt lat="43.62177" lon="6.85293">
        <ele>183</ele>
        <time>2017-10-14T07:42:01.000Z</time>
      </trkpt>
      <trkpt lat="43.62178" lon="6.85291">
        <ele>183</ele>
        <time>2017-10-14T07:42:02.000Z</time>
      </trkpt>
      <trkpt lat="43.62179" lon="6.85289">
        <ele>183</ele>
        <time>2017-10-14T07:42:03.000Z</time>
      </trkpt>
      <trkpt lat="43.6218" lon="6.85288">
        <ele>184</ele>
        <time>2017-10-14T07:42:04.000Z</time>
      </trkpt>
      <trkpt lat="43.6218" lon="6.85286">
        <ele>183</ele>
        <time>2017-10-14T07:42:05.000Z</time>
      </trkpt>
      <trkpt lat="43.62181" lon="6.85285">
        <ele>183</ele>
        <time>2017-10-14T07:42:06.000Z</time>
      </trkpt>
      <trkpt lat="43.62182" lon="6.85284">
        <ele>183</ele>
        <time>2017-10-14T07:42:07.000Z</time>
      </trkpt>
      <trkpt lat="43.62182" lon="6.85284">
        <ele>183</ele>
        <time>2017-10-14T07:42:08.000Z</time>
      </trkpt>
      <trkpt lat="43.62182" lon="6.85283">
        <ele>182</ele>
        <time>2017-10-14T07:42:09.000Z</time>
      </trkpt>
      <trkpt lat="43.62183" lon="6.85282">
        <ele>181</ele>
        <time>2017-10-14T07:42:10.000Z</time>
      </trkpt>
      <trkpt lat="43.62183" lon="6.85281">
        <ele>181</ele>
        <time>2017-10-14T07:42:11.000Z</time>
      </trkpt>
      <trkpt lat="43.62184" lon="6.8528">
        <ele>181</ele>
        <time>2017-10-14T07:42:12.000Z</time>
      </trkpt>
      <trkpt lat="43.62185" lon="6.85279">
        <ele>180</ele>
        <time>2017-10-14T07:42:13.000Z</time>
      </trkpt>
      <trkpt lat="43.62186" lon="6.85278">
        <ele>180</ele>
        <time>2017-10-14T07:42:14.000Z</time>
      </trkpt>
      <trkpt lat="43.62186" lon="6.85277">
        <ele>179</ele>
        <time>2017-10-14T07:42:15.000Z</time>
      </trkpt>
      <trkpt lat="43.62187" lon="6.85276">
        <ele>179</ele>
        <time>2017-10-14T07:42:16.000Z</time>
      </trkpt>
      <trkpt lat="43.62187" lon="6.85275">
        <ele>178</ele>
        <time>2017-10-14T07:42:17.000Z</time>
      </trkpt>
      <trkpt lat="43.62187" lon="6.85274">
        <ele>177</ele>
        <time>2017-10-14T07:42:18.000Z</time>
      </trkpt>
      <trkpt lat="43.62188" lon="6.85272">
        <ele>176</ele>
        <time>2017-10-14T07:42:19.000Z</time>
      </trkpt>
      <trkpt lat="43.62188" lon="6.85271">
        <ele>176</ele>
        <time>2017-10-14T07:42:20.000Z</time>
      </trkpt>
      <trkpt lat="43.62189" lon="6.85271">
        <ele>175</ele>
        <time>2017-10-14T07:42:21.000Z</time>
      </trkpt>
      <trkpt lat="43.62189" lon="6.8527">
        <ele>175</ele>
        <time>2017-10-14T07:42:22.000Z</time>
      </trkpt>
      <trkpt lat="43.62189" lon="6.85269">
        <ele>174</ele>
        <time>2017-10-14T07:42:23.000Z</time>
      </trkpt>
      <trkpt lat="43.6219" lon="6.85268">
        <ele>174</ele>
        <time>2017-10-14T07:42:24.000Z</time>
      </trkpt>
      <trkpt lat="43.6219" lon="6.85267">
        <ele>174</ele>
        <time>2017-10-14T07:42:25.000Z</time>
      </trkpt>
      <trkpt lat="43.62191" lon="6.85267">
        <ele>173</ele>
        <time>2017-10-14T07:42:26.000Z</time>
      </trkpt>
      <trkpt lat="43.62191" lon="6.85266">
        <ele>173</ele>
        <time>2017-10-14T07:42:27.000Z</time>
      </trkpt>
      <trkpt lat="43.62192" lon="6.85265">
        <ele>173</ele>
        <time>2017-10-14T07:42:28.000Z</time>
      </trkpt>
      <trkpt lat="43.62192" lon="6.85263">
        <ele>173</ele>
        <time>2017-10-14T07:42:29.000Z</time>
      </trkpt>
      <trkpt lat="43.62193" lon="6.85263">
        <ele>172</ele>
        <time>2017-10-14T07:42:30.000Z</time>
      </trkpt>
      <trkpt lat="43.62193" lon="6.85262">
        <ele>172</ele>
        <time>2017-10-14T07:42:31.000Z</time>
      </trkpt>
      <trkpt lat="43.62194" lon="6.85261">
        <ele>173</ele>
        <time>2017-10-14T07:42:32.000Z</time>
      </trkpt>
      <trkpt lat="43.62194" lon="6.85259">
        <ele>172</ele>
        <time>2017-10-14T07:42:33.000Z</time>
      </trkpt>
      <trkpt lat="43.62194" lon="6.85258">
        <ele>172</ele>
        <time>2017-10-14T07:42:34.000Z</time>
      </trkpt>
      <trkpt lat="43.62194" lon="6.85257">
        <ele>171</ele>
        <time>2017-10-14T07:42:35.000Z</time>
      </trkpt>
      <trkpt lat="43.62195" lon="6.85255">
        <ele>171</ele>
        <time>2017-10-14T07:42:36.000Z</time>
      </trkpt>
      <trkpt lat="43.62195" lon="6.85254">
        <ele>171</ele>
        <time>2017-10-14T07:42:37.000Z</time>
      </trkpt>
      <trkpt lat="43.62196" lon="6.85253">
        <ele>171</ele>
        <time>2017-10-14T07:42:38.000Z</time>
      </trkpt>
      <trkpt lat="43.62197" lon="6.85252">
        <ele>170</ele>
        <time>2017-10-14T07:42:39.000Z</time>
      </trkpt>
      <trkpt lat="43.62197" lon="6.85251">
        <ele>169</ele>
        <time>2017-10-14T07:42:40.000Z</time>
      </trkpt>
      <trkpt lat="43.62198" lon="6.8525">
        <ele>169</ele>
        <time>2017-10-14T07:42:41.000Z</time>
      </trkpt>
      <trkpt lat="43.62198" lon="6.85248">
        <ele>168</ele>
        <time>2017-10-14T07:42:42.000Z</time>
      </trkpt>
      <trkpt lat="43.62199" lon="6.85247">
        <ele>168</ele>
        <time>2017-10-14T07:42:43.000Z</time>
      </trkpt>
      <trkpt lat="43.62199" lon="6.85246">
        <ele>167</ele>
        <time>2017-10-14T07:42:44.000Z</time>
      </trkpt>
      <trkpt lat="43.622" lon="6.85245">
        <ele>166</ele>
        <time>2017-10-14T07:42:45.000Z</time>
      </trkpt>
      <trkpt lat="43.622" lon="6.85244">
        <ele>165</ele>
        <time>2017-10-14T07:42:46.000Z</time>
      </trkpt>
      <trkpt lat="43.62201" lon="6.85243">
        <ele>165</ele>
        <time>2017-10-14T07:42:47.000Z</time>
      </trkpt>
      <trkpt lat="43.62201" lon="6.85242">
        <ele>164</ele>
        <time>2017-10-14T07:42:48.000Z</time>
      </trkpt>
      <trkpt lat="43.62201" lon="6.85241">
        <ele>164</ele>
        <time>2017-10-14T07:42:49.000Z</time>
      </trkpt>
      <trkpt lat="43.62202" lon="6.8524">
        <ele>163</ele>
        <time>2017-10-14T07:42:50.000Z</time>
      </trkpt>
      <trkpt lat="43.62202" lon="6.85239">
        <ele>164</ele>
        <time>2017-10-14T07:42:51.000Z</time>
      </trkpt>
      <trkpt lat="43.62202" lon="6.85239">
        <ele>164</ele>
        <time>2017-10-14T07:42:52.000Z</time>
      </trkpt>
      <trkpt lat="43.62203" lon="6.85239">
        <ele>166</ele>
        <time>2017-10-14T07:42:53.000Z</time>
      </trkpt>
      <trkpt lat="43.62203" lon="6.85238">
        <ele>165</ele>
        <time>2017-10-14T07:42:54.000Z</time>
      </trkpt>
      <trkpt lat="43.62203" lon="6.85238">
        <ele>165</ele>
        <time>2017-10-14T07:42:55.000Z</time>
      </trkpt>
      <trkpt lat="43.62203" lon="6.85238">
        <ele>165</ele>
        <time>2017-10-14T07:42:56.000Z</time>
      </trkpt>
      <trkpt lat="43.62203" lon="6.85238">
        <ele>165</ele>
        <time>2017-10-14T07:42:57.000Z</time>
      </trkpt>
      <trkpt lat="43.62203" lon="6.85238">
        <ele>165</ele>
        <time>2017-10-14T07:42:58.000Z</time>
      </trkpt>
      <trkpt lat="43.62203" lon="6.85238">
        <ele>165</ele>
        <time>2017-10-14T07:42:59.000Z</time>
      </trkpt>
      <trkpt lat="43.62203" lon="6.85238">
        <ele>165</ele>
        <time>2017-10-14T07:43:00.000Z</time>
      </trkpt>
      <trkpt lat="43.62203" lon="6.85238">
        <ele>165</ele>
        <time>2017-10-14T07:43:01.000Z</time>
      </trkpt>
      <trkpt lat="43.62204" lon="6.85238">
        <ele>164</ele>
        <time>2017-10-14T07:43:02.000Z</time>
      </trkpt>
      <trkpt lat="43.62204" lon="6.85238">
        <ele>164</ele>
        <time>2017-10-14T07:43:03.000Z</time>
      </trkpt>
      <trkpt lat="43.62204" lon="6.85238">
        <ele>164</ele>
        <time>2017-10-14T07:43:04.000Z</time>
      </trkpt>
      <trkpt lat="43.62204" lon="6.85238">
        <ele>164</ele>
        <time>2017-10-14T07:43:05.000Z</time>
      </trkpt>
      <trkpt lat="43.62203" lon="6.85238">
        <ele>164</ele>
        <time>2017-10-14T07:43:06.000Z</time>
      </trkpt>
      <trkpt lat="43.62203" lon="6.85238">
        <ele>164</ele>
        <time>2017-10-14T07:43:07.000Z</time>
      </trkpt>
      <trkpt lat="43.62203" lon="6.85238">
        <ele>164</ele>
        <time>2017-10-14T07:43:08.000Z</time>
      </trkpt>
      <trkpt lat="43.62203" lon="6.85238">
        <ele>164</ele>
        <time>2017-10-14T07:43:09.000Z</time>
      </trkpt>
      <trkpt lat="43.62203" lon="6.85238">
        <ele>164</ele>
        <time>2017-10-14T07:43:10.000Z</time>
      </trkpt>
      <trkpt lat="43.62203" lon="6.85238">
        <ele>164</ele>
        <time>2017-10-14T07:43:11.000Z</time>
      </trkpt>
      <trkpt lat="43.62203" lon="6.85237">
        <ele>164</ele>
        <time>2017-10-14T07:43:12.000Z</time>
      </trkpt>
      <trkpt lat="43.62203" lon="6.85237">
        <ele>165</ele>
        <time>2017-10-14T07:43:13.000Z</time>
      </trkpt>
      <trkpt lat="43.62203" lon="6.85237">
        <ele>165</ele>
        <time>2017-10-14T07:43:14.000Z</time>
      </trkpt>
      <trkpt lat="43.62204" lon="6.85237">
        <ele>165</ele>
        <time>2017-10-14T07:43:15.000Z</time>
      </trkpt>
      <trkpt lat="43.62204" lon="6.85237">
        <ele>166</ele>
        <time>2017-10-14T07:43:16.000Z</time>
      </trkpt>
      <trkpt lat="43.62204" lon="6.85237">
        <ele>166</ele>
        <time>2017-10-14T07:43:17.000Z</time>
      </trkpt>
      <trkpt lat="43.62204" lon="6.85237">
        <ele>166</ele>
        <time>2017-10-14T07:43:18.000Z</time>
      </trkpt>
      <trkpt lat="43.62204" lon="6.85237">
        <ele>166</ele>
        <time>2017-10-14T07:43:19.000Z</time>
      </trkpt>
      <trkpt lat="43.62204" lon="6.85237">
        <ele>165</ele>
        <time>2017-10-14T07:43:20.000Z</time>
      </trkpt>
      <trkpt lat="43.62204" lon="6.85237">
        <ele>166</ele>
        <time>2017-10-14T07:43:21.000Z</time>
      </trkpt>
      <trkpt lat="43.62204" lon="6.85237">
        <ele>166</ele>
        <time>2017-10-14T07:43:22.000Z</time>
      </trkpt>
      <trkpt lat="43.62204" lon="6.85237">
        <ele>166</ele>
        <time>2017-10-14T07:43:23.000Z</time>
      </trkpt>
      <trkpt lat="43.62204" lon="6.85236">
        <ele>166</ele>
        <time>2017-10-14T07:43:24.000Z</time>
      </trkpt>
      <trkpt lat="43.62204" lon="6.85236">
        <ele>166</ele>
        <time>2017-10-14T07:43:25.000Z</time>
      </trkpt>
      <trkpt lat="43.62204" lon="6.85236">
        <ele>167</ele>
        <time>2017-10-14T07:43:26.000Z</time>
      </trkpt>
      <trkpt lat="43.62204" lon="6.85236">
        <ele>167</ele>
        <time>2017-10-14T07:43:27.000Z</time>
      </trkpt>
      <trkpt lat="43.62204" lon="6.85236">
        <ele>167</ele>
        <time>2017-10-14T07:43:28.000Z</time>
      </trkpt>
      <trkpt lat="43.62204" lon="6.85236">
        <ele>168</ele>
        <time>2017-10-14T07:43:29.000Z</time>
      </trkpt>
      <trkpt lat="43.62204" lon="6.85236">
        <ele>168</ele>
        <time>2017-10-14T07:43:30.000Z</time>
      </trkpt>
      <trkpt lat="43.62203" lon="6.85236">
        <ele>168</ele>
        <time>2017-10-14T07:43:31.000Z</time>
      </trkpt>
      <trkpt lat="43.62203" lon="6.85236">
        <ele>168</ele>
        <time>2017-10-14T07:43:32.000Z</time>
      </trkpt>
      <trkpt lat="43.62203" lon="6.85236">
        <ele>168</ele>
        <time>2017-10-14T07:43:33.000Z</time>
      </trkpt>
      <trkpt lat="43.62203" lon="6.85236">
        <ele>168</ele>
        <time>2017-10-14T07:43:34.000Z</time>
      </trkpt>
      <trkpt lat="43.62203" lon="6.85237">
        <ele>168</ele>
        <time>2017-10-14T07:43:35.000Z</time>
      </trkpt>
      <trkpt lat="43.62203" lon="6.85237">
        <ele>168</ele>
        <time>2017-10-14T07:43:36.000Z</time>
      </trkpt>
      <trkpt lat="43.62203" lon="6.85237">
        <ele>167</ele>
        <time>2017-10-14T07:43:37.000Z</time>
      </trkpt>
      <trkpt lat="43.62203" lon="6.85237">
        <ele>167</ele>
        <time>2017-10-14T07:43:38.000Z</time>
      </trkpt>
      <trkpt lat="43.62203" lon="6.85237">
        <ele>167</ele>
        <time>2017-10-14T07:43:39.000Z</time>
      </trkpt>
      <trkpt lat="43.62203" lon="6.85237">
        <ele>167</ele>
        <time>2017-10-14T07:43:40.000Z</time>
      </trkpt>
      <trkpt lat="43.62203" lon="6.85237">
        <ele>167</ele>
        <time>2017-10-14T07:43:41.000Z</time>
      </trkpt>
      <trkpt lat="43.62203" lon="6.85237">
        <ele>168</ele>
        <time>2017-10-14T07:43:42.000Z</time>
      </trkpt>
      <trkpt lat="43.62203" lon="6.85238">
        <ele>168</ele>
        <time>2017-10-14T07:43:43.000Z</time>
      </trkpt>
      <trkpt lat="43.62203" lon="6.85238">
        <ele>168</ele>
        <time>2017-10-14T07:43:44.000Z</time>
      </trkpt>
      <trkpt lat="43.62203" lon="6.85238">
        <ele>168</ele>
        <time>2017-10-14T07:43:45.000Z</time>
      </trkpt>
      <trkpt lat="43.62203" lon="6.85238">
        <ele>168</ele>
        <time>2017-10-14T07:43:46.000Z</time>
      </trkpt>
      <trkpt lat="43.62203" lon="6.85239">
        <ele>168</ele>
        <time>2017-10-14T07:43:47.000Z</time>
      </trkpt>
      <trkpt lat="43.62203" lon="6.85239">
        <ele>169</ele>
        <time>2017-10-14T07:43:48.000Z</time>
      </trkpt>
      <trkpt lat="43.62203" lon="6.85239">
        <ele>169</ele>
        <time>2017-10-14T07:43:49.000Z</time>
      </trkpt>
      <trkpt lat="43.62203" lon="6.85239">
        <ele>169</ele>
        <time>2017-10-14T07:43:50.000Z</time>
      </trkpt>
      <trkpt lat="43.62204" lon="6.8524">
        <ele>170</ele>
        <time>2017-10-14T07:43:51.000Z</time>
      </trkpt>
      <trkpt lat="43.62204" lon="6.8524">
        <ele>171</ele>
        <time>2017-10-14T07:43:52.000Z</time>
      </trkpt>
      <trkpt lat="43.62204" lon="6.8524">
        <ele>171</ele>
        <time>2017-10-14T07:43:53.000Z</time>
      </trkpt>
      <trkpt lat="43.62204" lon="6.8524">
        <ele>172</ele>
        <time>2017-10-14T07:43:54.000Z</time>
      </trkpt>
      <trkpt lat="43.62205" lon="6.8524">
        <ele>172</ele>
        <time>2017-10-14T07:43:55.000Z</time>
      </trkpt>
      <trkpt lat="43.62205" lon="6.8524">
        <ele>173</ele>
        <time>2017-10-14T07:43:56.000Z</time>
      </trkpt>
      <trkpt lat="43.62205" lon="6.8524">
        <ele>173</ele>
        <time>2017-10-14T07:43:57.000Z</time>
      </trkpt>
      <trkpt lat="43.62206" lon="6.8524">
        <ele>174</ele>
        <time>2017-10-14T07:43:58.000Z</time>
      </trkpt>
      <trkpt lat="43.62206" lon="6.8524">
        <ele>175</ele>
        <time>2017-10-14T07:43:59.000Z</time>
      </trkpt>
      <trkpt lat="43.62206" lon="6.8524">
        <ele>175</ele>
        <time>2017-10-14T07:44:00.000Z</time>
      </trkpt>
      <trkpt lat="43.62207" lon="6.8524">
        <ele>176</ele>
        <time>2017-10-14T07:44:01.000Z</time>
      </trkpt>
      <trkpt lat="43.62207" lon="6.8524">
        <ele>176</ele>
        <time>2017-10-14T07:44:02.000Z</time>
      </trkpt>
      <trkpt lat="43.62207" lon="6.8524">
        <ele>177</ele>
        <time>2017-10-14T07:44:03.000Z</time>
      </trkpt>
      <trkpt lat="43.62207" lon="6.8524">
        <ele>176</ele>
        <time>2017-10-14T07:44:04.000Z</time>
      </trkpt>
      <trkpt lat="43.62207" lon="6.8524">
        <ele>175</ele>
        <time>2017-10-14T07:44:05.000Z</time>
      </trkpt>
      <trkpt lat="43.62207" lon="6.8524">
        <ele>173</ele>
        <time>2017-10-14T07:44:06.000Z</time>
      </trkpt>
      <trkpt lat="43.62207" lon="6.85239">
        <ele>171</ele>
        <time>2017-10-14T07:44:07.000Z</time>
      </trkpt>
      <trkpt lat="43.62206" lon="6.85238">
        <ele>171</ele>
        <time>2017-10-14T07:44:08.000Z</time>
      </trkpt>
      <trkpt lat="43.62206" lon="6.85238">
        <ele>170</ele>
        <time>2017-10-14T07:44:09.000Z</time>
      </trkpt>
      <trkpt lat="43.62205" lon="6.85237">
        <ele>168</ele>
        <time>2017-10-14T07:44:10.000Z</time>
      </trkpt>
      <trkpt lat="43.62205" lon="6.85236">
        <ele>168</ele>
        <time>2017-10-14T07:44:11.000Z</time>
      </trkpt>
      <trkpt lat="43.62204" lon="6.85236">
        <ele>168</ele>
        <time>2017-10-14T07:44:12.000Z</time>
      </trkpt>
      <trkpt lat="43.62204" lon="6.85235">
        <ele>168</ele>
        <time>2017-10-14T07:44:13.000Z</time>
      </trkpt>
      <trkpt lat="43.62203" lon="6.85234">
        <ele>168</ele>
        <time>2017-10-14T07:44:14.000Z</time>
      </trkpt>
      <trkpt lat="43.62203" lon="6.85233">
        <ele>168</ele>
        <time>2017-10-14T07:44:15.000Z</time>
      </trkpt>
      <trkpt lat="43.62202" lon="6.85232">
        <ele>168</ele>
        <time>2017-10-14T07:44:16.000Z</time>
      </trkpt>
      <trkpt lat="43.62201" lon="6.85231">
        <ele>168</ele>
        <time>2017-10-14T07:44:17.000Z</time>
      </trkpt>
      <trkpt lat="43.622" lon="6.8523">
        <ele>168</ele>
        <time>2017-10-14T07:44:18.000Z</time>
      </trkpt>
      <trkpt lat="43.62198" lon="6.85228">
        <ele>167</ele>
        <time>2017-10-14T07:44:19.000Z</time>
      </trkpt>
      <trkpt lat="43.62196" lon="6.85227">
        <ele>167</ele>
        <time>2017-10-14T07:44:20.000Z</time>
      </trkpt>
      <trkpt lat="43.62194" lon="6.85226">
        <ele>166</ele>
        <time>2017-10-14T07:44:21.000Z</time>
      </trkpt>
      <trkpt lat="43.62193" lon="6.85225">
        <ele>166</ele>
        <time>2017-10-14T07:44:22.000Z</time>
      </trkpt>
      <trkpt lat="43.62191" lon="6.85224">
        <ele>166</ele>
        <time>2017-10-14T07:44:23.000Z</time>
      </trkpt>
      <trkpt lat="43.6219" lon="6.85223">
        <ele>165</ele>
        <time>2017-10-14T07:44:24.000Z</time>
      </trkpt>
      <trkpt lat="43.62188" lon="6.85222">
        <ele>165</ele>
        <time>2017-10-14T07:44:25.000Z</time>
      </trkpt>
      <trkpt lat="43.62187" lon="6.8522">
        <ele>167</ele>
        <time>2017-10-14T07:44:26.000Z</time>
      </trkpt>
      <trkpt lat="43.62186" lon="6.85219">
        <ele>166</ele>
        <time>2017-10-14T07:44:27.000Z</time>
      </trkpt>
      <trkpt lat="43.62185" lon="6.85218">
        <ele>166</ele>
        <time>2017-10-14T07:44:28.000Z</time>
      </trkpt>
      <trkpt lat="43.62184" lon="6.85216">
        <ele>166</ele>
        <time>2017-10-14T07:44:29.000Z</time>
      </trkpt>
      <trkpt lat="43.62183" lon="6.85214">
        <ele>166</ele>
        <time>2017-10-14T07:44:30.000Z</time>
      </trkpt>
      <trkpt lat="43.62182" lon="6.85213">
        <ele>166</ele>
        <time>2017-10-14T07:44:31.000Z</time>
      </trkpt>
      <trkpt lat="43.62181" lon="6.85211">
        <ele>166</ele>
        <time>2017-10-14T07:44:32.000Z</time>
      </trkpt>
      <trkpt lat="43.62179" lon="6.85209">
        <ele>166</ele>
        <time>2017-10-14T07:44:33.000Z</time>
      </trkpt>
      <trkpt lat="43.62178" lon="6.85207">
        <ele>165</ele>
        <time>2017-10-14T07:44:34.000Z</time>
      </trkpt>
      <trkpt lat="43.62176" lon="6.85205">
        <ele>165</ele>
        <time>2017-10-14T07:44:35.000Z</time>
      </trkpt>
      <trkpt lat="43.62174" lon="6.85204">
        <ele>165</ele>
        <time>2017-10-14T07:44:36.000Z</time>
      </trkpt>
      <trkpt lat="43.62172" lon="6.85203">
        <ele>165</ele>
        <time>2017-10-14T07:44:37.000Z</time>
      </trkpt>
      <trkpt lat="43.6217" lon="6.85202">
        <ele>164</ele>
        <time>2017-10-14T07:44:38.000Z</time>
      </trkpt>
      <trkpt lat="43.62169" lon="6.85201">
        <ele>163</ele>
        <time>2017-10-14T07:44:39.000Z</time>
      </trkpt>
      <trkpt lat="43.62167" lon="6.852">
        <ele>162</ele>
        <time>2017-10-14T07:44:40.000Z</time>
      </trkpt>
      <trkpt lat="43.62166" lon="6.85199">
        <ele>162</ele>
        <time>2017-10-14T07:44:41.000Z</time>
      </trkpt>
      <trkpt lat="43.62165" lon="6.85198">
        <ele>162</ele>
        <time>2017-10-14T07:44:42.000Z</time>
      </trkpt>
      <trkpt lat="43.62165" lon="6.85197">
        <ele>161</ele>
        <time>2017-10-14T07:44:43.000Z</time>
      </trkpt>
      <trkpt lat="43.62165" lon="6.85196">
        <ele>161</ele>
        <time>2017-10-14T07:44:44.000Z</time>
      </trkpt>
      <trkpt lat="43.62165" lon="6.85196">
        <ele>161</ele>
        <time>2017-10-14T07:44:45.000Z</time>
      </trkpt>
      <trkpt lat="43.62165" lon="6.85196">
        <ele>161</ele>
        <time>2017-10-14T07:44:46.000Z</time>
      </trkpt>
      <trkpt lat="43.62165" lon="6.85195">
        <ele>162</ele>
        <time>2017-10-14T07:44:47.000Z</time>
      </trkpt>
      <trkpt lat="43.62164" lon="6.85194">
        <ele>162</ele>
        <time>2017-10-14T07:44:48.000Z</time>
      </trkpt>
      <trkpt lat="43.62164" lon="6.85194">
        <ele>162</ele>
        <time>2017-10-14T07:44:49.000Z</time>
      </trkpt>
      <trkpt lat="43.62164" lon="6.85192">
        <ele>162</ele>
        <time>2017-10-14T07:44:50.000Z</time>
      </trkpt>
      <trkpt lat="43.62163" lon="6.85191">
        <ele>161</ele>
        <time>2017-10-14T07:44:51.000Z</time>
      </trkpt>
      <trkpt lat="43.62163" lon="6.8519">
        <ele>161</ele>
        <time>2017-10-14T07:44:52.000Z</time>
      </trkpt>
      <trkpt lat="43.62162" lon="6.85188">
        <ele>161</ele>
        <time>2017-10-14T07:44:53.000Z</time>
      </trkpt>
      <trkpt lat="43.62162" lon="6.85187">
        <ele>161</ele>
        <time>2017-10-14T07:44:54.000Z</time>
      </trkpt>
      <trkpt lat="43.62162" lon="6.85185">
        <ele>161</ele>
        <time>2017-10-14T07:44:55.000Z</time>
      </trkpt>
      <trkpt lat="43.62162" lon="6.85184">
        <ele>160</ele>
        <time>2017-10-14T07:44:56.000Z</time>
      </trkpt>
      <trkpt lat="43.62162" lon="6.85184">
        <ele>160</ele>
        <time>2017-10-14T07:44:57.000Z</time>
      </trkpt>
      <trkpt lat="43.62161" lon="6.85183">
        <ele>159</ele>
        <time>2017-10-14T07:44:58.000Z</time>
      </trkpt>
      <trkpt lat="43.62161" lon="6.85181">
        <ele>157</ele>
        <time>2017-10-14T07:44:59.000Z</time>
      </trkpt>
      <trkpt lat="43.62161" lon="6.8518">
        <ele>157</ele>
        <time>2017-10-14T07:45:00.000Z</time>
      </trkpt>
      <trkpt lat="43.62161" lon="6.85178">
        <ele>157</ele>
        <time>2017-10-14T07:45:01.000Z</time>
      </trkpt>
      <trkpt lat="43.62161" lon="6.85177">
        <ele>157</ele>
        <time>2017-10-14T07:45:02.000Z</time>
      </trkpt>
      <trkpt lat="43.62159" lon="6.85175">
        <ele>156</ele>
        <time>2017-10-14T07:45:03.000Z</time>
      </trkpt>
      <trkpt lat="43.62158" lon="6.85174">
        <ele>155</ele>
        <time>2017-10-14T07:45:04.000Z</time>
      </trkpt>
      <trkpt lat="43.62157" lon="6.85172">
        <ele>154</ele>
        <time>2017-10-14T07:45:05.000Z</time>
      </trkpt>
      <trkpt lat="43.62157" lon="6.8517">
        <ele>154</ele>
        <time>2017-10-14T07:45:06.000Z</time>
      </trkpt>
      <trkpt lat="43.62156" lon="6.85169">
        <ele>153</ele>
        <time>2017-10-14T07:45:07.000Z</time>
      </trkpt>
      <trkpt lat="43.62156" lon="6.85168">
        <ele>152</ele>
        <time>2017-10-14T07:45:08.000Z</time>
      </trkpt>
      <trkpt lat="43.62155" lon="6.85168">
        <ele>152</ele>
        <time>2017-10-14T07:45:09.000Z</time>
      </trkpt>
      <trkpt lat="43.62154" lon="6.85167">
        <ele>151</ele>
        <time>2017-10-14T07:45:10.000Z</time>
      </trkpt>
      <trkpt lat="43.62154" lon="6.85167">
        <ele>151</ele>
        <time>2017-10-14T07:45:11.000Z</time>
      </trkpt>
      <trkpt lat="43.62153" lon="6.85166">
        <ele>150</ele>
        <time>2017-10-14T07:45:12.000Z</time>
      </trkpt>
      <trkpt lat="43.62153" lon="6.85166">
        <ele>151</ele>
        <time>2017-10-14T07:45:13.000Z</time>
      </trkpt>
      <trkpt lat="43.62152" lon="6.85165">
        <ele>151</ele>
        <time>2017-10-14T07:45:14.000Z</time>
      </trkpt>
      <trkpt lat="43.62152" lon="6.85165">
        <ele>151</ele>
        <time>2017-10-14T07:45:15.000Z</time>
      </trkpt>
      <trkpt lat="43.62153" lon="6.85164">
        <ele>150</ele>
        <time>2017-10-14T07:45:16.000Z</time>
      </trkpt>
      <trkpt lat="43.62153" lon="6.85163">
        <ele>150</ele>
        <time>2017-10-14T07:45:17.000Z</time>
      </trkpt>
      <trkpt lat="43.62153" lon="6.85163">
        <ele>150</ele>
        <time>2017-10-14T07:45:18.000Z</time>
      </trkpt>
      <trkpt lat="43.62154" lon="6.85162">
        <ele>150</ele>
        <time>2017-10-14T07:45:19.000Z</time>
      </trkpt>
      <trkpt lat="43.62154" lon="6.85162">
        <ele>150</ele>
        <time>2017-10-14T07:45:20.000Z</time>
      </trkpt>
      <trkpt lat="43.62154" lon="6.85161">
        <ele>149</ele>
        <time>2017-10-14T07:45:21.000Z</time>
      </trkpt>
      <trkpt lat="43.62154" lon="6.8516">
        <ele>150</ele>
        <time>2017-10-14T07:45:22.000Z</time>
      </trkpt>
      <trkpt lat="43.62154" lon="6.85158">
        <ele>150</ele>
        <time>2017-10-14T07:45:23.000Z</time>
      </trkpt>
      <trkpt lat="43.62154" lon="6.85156">
        <ele>150</ele>
        <time>2017-10-14T07:45:24.000Z</time>
      </trkpt>
      <trkpt lat="43.62155" lon="6.85154">
        <ele>150</ele>
        <time>2017-10-14T07:45:25.000Z</time>
      </trkpt>
      <trkpt lat="43.62156" lon="6.85153">
        <ele>150</ele>
        <time>2017-10-14T07:45:26.000Z</time>
      </trkpt>
      <trkpt lat="43.62157" lon="6.85152">
        <ele>150</ele>
        <time>2017-10-14T07:45:27.000Z</time>
      </trkpt>
      <trkpt lat="43.62157" lon="6.85151">
        <ele>149</ele>
        <time>2017-10-14T07:45:28.000Z</time>
      </trkpt>
      <trkpt lat="43.62157" lon="6.8515">
        <ele>149</ele>
        <time>2017-10-14T07:45:29.000Z</time>
      </trkpt>
      <trkpt lat="43.62157" lon="6.85149">
        <ele>149</ele>
        <time>2017-10-14T07:45:30.000Z</time>
      </trkpt>
      <trkpt lat="43.62157" lon="6.85148">
        <ele>149</ele>
        <time>2017-10-14T07:45:31.000Z</time>
      </trkpt>
      <trkpt lat="43.62157" lon="6.85148">
        <ele>148</ele>
        <time>2017-10-14T07:45:32.000Z</time>
      </trkpt>
      <trkpt lat="43.62157" lon="6.85147">
        <ele>148</ele>
        <time>2017-10-14T07:45:33.000Z</time>
      </trkpt>
      <trkpt lat="43.62157" lon="6.85147">
        <ele>147</ele>
        <time>2017-10-14T07:45:34.000Z</time>
      </trkpt>
      <trkpt lat="43.62158" lon="6.85146">
        <ele>147</ele>
        <time>2017-10-14T07:45:35.000Z</time>
      </trkpt>
      <trkpt lat="43.62158" lon="6.85146">
        <ele>146</ele>
        <time>2017-10-14T07:45:36.000Z</time>
      </trkpt>
      <trkpt lat="43.62159" lon="6.85146">
        <ele>147</ele>
        <time>2017-10-14T07:45:37.000Z</time>
      </trkpt>
      <trkpt lat="43.6216" lon="6.85145">
        <ele>147</ele>
        <time>2017-10-14T07:45:38.000Z</time>
      </trkpt>
      <trkpt lat="43.62161" lon="6.85145">
        <ele>147</ele>
        <time>2017-10-14T07:45:39.000Z</time>
      </trkpt>
      <trkpt lat="43.62162" lon="6.85144">
        <ele>147</ele>
        <time>2017-10-14T07:45:40.000Z</time>
      </trkpt>
      <trkpt lat="43.62163" lon="6.85144">
        <ele>147</ele>
        <time>2017-10-14T07:45:41.000Z</time>
      </trkpt>
      <trkpt lat="43.62163" lon="6.85143">
        <ele>148</ele>
        <time>2017-10-14T07:45:42.000Z</time>
      </trkpt>
      <trkpt lat="43.62164" lon="6.85144">
        <ele>148</ele>
        <time>2017-10-14T07:45:43.000Z</time>
      </trkpt>
      <trkpt lat="43.62166" lon="6.85144">
        <ele>149</ele>
        <time>2017-10-14T07:45:44.000Z</time>
      </trkpt>
      <trkpt lat="43.62167" lon="6.85145">
        <ele>150</ele>
        <time>2017-10-14T07:45:45.000Z</time>
      </trkpt>
      <trkpt lat="43.62168" lon="6.85146">
        <ele>150</ele>
        <time>2017-10-14T07:45:46.000Z</time>
      </trkpt>
      <trkpt lat="43.62169" lon="6.85147">
        <ele>150</ele>
        <time>2017-10-14T07:45:47.000Z</time>
      </trkpt>
      <trkpt lat="43.62171" lon="6.85148">
        <ele>151</ele>
        <time>2017-10-14T07:45:48.000Z</time>
      </trkpt>
      <trkpt lat="43.62172" lon="6.8515">
        <ele>150</ele>
        <time>2017-10-14T07:45:49.000Z</time>
      </trkpt>
      <trkpt lat="43.62174" lon="6.85152">
        <ele>151</ele>
        <time>2017-10-14T07:45:50.000Z</time>
      </trkpt>
      <trkpt lat="43.62175" lon="6.85154">
        <ele>151</ele>
        <time>2017-10-14T07:45:51.000Z</time>
      </trkpt>
      <trkpt lat="43.62176" lon="6.85157">
        <ele>151</ele>
        <time>2017-10-14T07:45:52.000Z</time>
      </trkpt>
      <trkpt lat="43.62177" lon="6.85158">
        <ele>151</ele>
        <time>2017-10-14T07:45:53.000Z</time>
      </trkpt>
      <trkpt lat="43.62179" lon="6.85159">
        <ele>152</ele>
        <time>2017-10-14T07:45:54.000Z</time>
      </trkpt>
      <trkpt lat="43.6218" lon="6.8516">
        <ele>153</ele>
        <time>2017-10-14T07:45:55.000Z</time>
      </trkpt>
      <trkpt lat="43.62182" lon="6.85161">
        <ele>153</ele>
        <time>2017-10-14T07:45:56.000Z</time>
      </trkpt>
      <trkpt lat="43.62183" lon="6.85162">
        <ele>153</ele>
        <time>2017-10-14T07:45:57.000Z</time>
      </trkpt>
      <trkpt lat="43.62185" lon="6.85163">
        <ele>153</ele>
        <time>2017-10-14T07:45:58.000Z</time>
      </trkpt>
      <trkpt lat="43.62186" lon="6.85165">
        <ele>154</ele>
        <time>2017-10-14T07:45:59.000Z</time>
      </trkpt>
      <trkpt lat="43.62187" lon="6.85166">
        <ele>155</ele>
        <time>2017-10-14T07:46:00.000Z</time>
      </trkpt>
      <trkpt lat="43.62188" lon="6.85168">
        <ele>156</ele>
        <time>2017-10-14T07:46:01.000Z</time>
      </trkpt>
      <trkpt lat="43.62189" lon="6.8517">
        <ele>156</ele>
        <time>2017-10-14T07:46:02.000Z</time>
      </trkpt>
      <trkpt lat="43.6219" lon="6.85171">
        <ele>156</ele>
        <time>2017-10-14T07:46:03.000Z</time>
      </trkpt>
      <trkpt lat="43.62191" lon="6.85172">
        <ele>156</ele>
        <time>2017-10-14T07:46:04.000Z</time>
      </trkpt>
      <trkpt lat="43.62192" lon="6.85172">
        <ele>157</ele>
        <time>2017-10-14T07:46:05.000Z</time>
      </trkpt>
      <trkpt lat="43.62193" lon="6.85173">
        <ele>157</ele>
        <time>2017-10-14T07:46:06.000Z</time>
      </trkpt>
      <trkpt lat="43.62194" lon="6.85173">
        <ele>156</ele>
        <time>2017-10-14T07:46:07.000Z</time>
      </trkpt>
      <trkpt lat="43.62195" lon="6.85174">
        <ele>157</ele>
        <time>2017-10-14T07:46:08.000Z</time>
      </trkpt>
      <trkpt lat="43.62196" lon="6.85174">
        <ele>158</ele>
        <time>2017-10-14T07:46:09.000Z</time>
      </trkpt>
      <trkpt lat="43.62196" lon="6.85174">
        <ele>154</ele>
        <time>2017-10-14T07:46:10.000Z</time>
      </trkpt>
      <trkpt lat="43.62196" lon="6.85173">
        <ele>152</ele>
        <time>2017-10-14T07:46:11.000Z</time>
      </trkpt>
      <trkpt lat="43.62195" lon="6.85171">
        <ele>151</ele>
        <time>2017-10-14T07:46:12.000Z</time>
      </trkpt>
      <trkpt lat="43.62195" lon="6.8517">
        <ele>153</ele>
        <time>2017-10-14T07:46:13.000Z</time>
      </trkpt>
      <trkpt lat="43.62195" lon="6.85169">
        <ele>154</ele>
        <time>2017-10-14T07:46:14.000Z</time>
      </trkpt>
      <trkpt lat="43.62194" lon="6.85168">
        <ele>155</ele>
        <time>2017-10-14T07:46:15.000Z</time>
      </trkpt>
      <trkpt lat="43.62194" lon="6.85168">
        <ele>155</ele>
        <time>2017-10-14T07:46:16.000Z</time>
      </trkpt>
      <trkpt lat="43.62194" lon="6.85167">
        <ele>156</ele>
        <time>2017-10-14T07:46:17.000Z</time>
      </trkpt>
      <trkpt lat="43.62194" lon="6.85167">
        <ele>157</ele>
        <time>2017-10-14T07:46:18.000Z</time>
      </trkpt>
      <trkpt lat="43.62194" lon="6.85166">
        <ele>158</ele>
        <time>2017-10-14T07:46:19.000Z</time>
      </trkpt>
      <trkpt lat="43.62193" lon="6.85166">
        <ele>159</ele>
        <time>2017-10-14T07:46:20.000Z</time>
      </trkpt>
      <trkpt lat="43.62193" lon="6.85165">
        <ele>159</ele>
        <time>2017-10-14T07:46:21.000Z</time>
      </trkpt>
      <trkpt lat="43.62193" lon="6.85165">
        <ele>160</ele>
        <time>2017-10-14T07:46:22.000Z</time>
      </trkpt>
      <trkpt lat="43.62193" lon="6.85165">
        <ele>160</ele>
        <time>2017-10-14T07:46:23.000Z</time>
      </trkpt>
      <trkpt lat="43.62193" lon="6.85164">
        <ele>160</ele>
        <time>2017-10-14T07:46:24.000Z</time>
      </trkpt>
      <trkpt lat="43.62194" lon="6.85163">
        <ele>161</ele>
        <time>2017-10-14T07:46:25.000Z</time>
      </trkpt>
      <trkpt lat="43.62194" lon="6.85163">
        <ele>161</ele>
        <time>2017-10-14T07:46:26.000Z</time>
      </trkpt>
      <trkpt lat="43.62194" lon="6.85162">
        <ele>161</ele>
        <time>2017-10-14T07:46:27.000Z</time>
      </trkpt>
      <trkpt lat="43.62195" lon="6.85161">
        <ele>161</ele>
        <time>2017-10-14T07:46:28.000Z</time>
      </trkpt>
      <trkpt lat="43.62195" lon="6.85161">
        <ele>162</ele>
        <time>2017-10-14T07:46:29.000Z</time>
      </trkpt>
      <trkpt lat="43.62196" lon="6.85161">
        <ele>162</ele>
        <time>2017-10-14T07:46:30.000Z</time>
      </trkpt>
      <trkpt lat="43.62196" lon="6.8516">
        <ele>162</ele>
        <time>2017-10-14T07:46:31.000Z</time>
      </trkpt>
      <trkpt lat="43.62197" lon="6.8516">
        <ele>163</ele>
        <time>2017-10-14T07:46:32.000Z</time>
      </trkpt>
      <trkpt lat="43.62197" lon="6.85159">
        <ele>163</ele>
        <time>2017-10-14T07:46:33.000Z</time>
      </trkpt>
      <trkpt lat="43.62198" lon="6.85159">
        <ele>163</ele>
        <time>2017-10-14T07:46:34.000Z</time>
      </trkpt>
      <trkpt lat="43.62198" lon="6.85158">
        <ele>164</ele>
        <time>2017-10-14T07:46:35.000Z</time>
      </trkpt>
      <trkpt lat="43.62199" lon="6.85158">
        <ele>164</ele>
        <time>2017-10-14T07:46:36.000Z</time>
      </trkpt>
      <trkpt lat="43.62199" lon="6.85158">
        <ele>165</ele>
        <time>2017-10-14T07:46:37.000Z</time>
      </trkpt>
      <trkpt lat="43.62199" lon="6.85158">
        <ele>165</ele>
        <time>2017-10-14T07:46:38.000Z</time>
      </trkpt>
      <trkpt lat="43.622" lon="6.85158">
        <ele>164</ele>
        <time>2017-10-14T07:46:39.000Z</time>
      </trkpt>
      <trkpt lat="43.622" lon="6.85158">
        <ele>165</ele>
        <time>2017-10-14T07:46:40.000Z</time>
      </trkpt>
      <trkpt lat="43.622" lon="6.85157">
        <ele>165</ele>
        <time>2017-10-14T07:46:41.000Z</time>
      </trkpt>
      <trkpt lat="43.622" lon="6.85157">
        <ele>165</ele>
        <time>2017-10-14T07:46:42.000Z</time>
      </trkpt>
      <trkpt lat="43.622" lon="6.85156">
        <ele>165</ele>
        <time>2017-10-14T07:46:43.000Z</time>
      </trkpt>
      <trkpt lat="43.62201" lon="6.85156">
        <ele>166</ele>
        <time>2017-10-14T07:46:44.000Z</time>
      </trkpt>
      <trkpt lat="43.62202" lon="6.85156">
        <ele>165</ele>
        <time>2017-10-14T07:46:45.000Z</time>
      </trkpt>
      <trkpt lat="43.62202" lon="6.85155">
        <ele>165</ele>
        <time>2017-10-14T07:46:46.000Z</time>
      </trkpt>
      <trkpt lat="43.62203" lon="6.85155">
        <ele>165</ele>
        <time>2017-10-14T07:46:47.000Z</time>
      </trkpt>
      <trkpt lat="43.62203" lon="6.85154">
        <ele>165</ele>
        <time>2017-10-14T07:46:48.000Z</time>
      </trkpt>
      <trkpt lat="43.62204" lon="6.85155">
        <ele>166</ele>
        <time>2017-10-14T07:46:49.000Z</time>
      </trkpt>
      <trkpt lat="43.62205" lon="6.85155">
        <ele>166</ele>
        <time>2017-10-14T07:46:50.000Z</time>
      </trkpt>
      <trkpt lat="43.62205" lon="6.85155">
        <ele>166</ele>
        <time>2017-10-14T07:46:51.000Z</time>
      </trkpt>
      <trkpt lat="43.62206" lon="6.85155">
        <ele>167</ele>
        <time>2017-10-14T07:46:52.000Z</time>
      </trkpt>
      <trkpt lat="43.62207" lon="6.85156">
        <ele>168</ele>
        <time>2017-10-14T07:46:53.000Z</time>
      </trkpt>
      <trkpt lat="43.62207" lon="6.85156">
        <ele>168</ele>
        <time>2017-10-14T07:46:54.000Z</time>
      </trkpt>
      <trkpt lat="43.62208" lon="6.85156">
        <ele>168</ele>
        <time>2017-10-14T07:46:55.000Z</time>
      </trkpt>
      <trkpt lat="43.62209" lon="6.85156">
        <ele>169</ele>
        <time>2017-10-14T07:46:56.000Z</time>
      </trkpt>
      <trkpt lat="43.6221" lon="6.85157">
        <ele>168</ele>
        <time>2017-10-14T07:46:57.000Z</time>
      </trkpt>
      <trkpt lat="43.6221" lon="6.85157">
        <ele>168</ele>
        <time>2017-10-14T07:46:58.000Z</time>
      </trkpt>
      <trkpt lat="43.62211" lon="6.85157">
        <ele>168</ele>
        <time>2017-10-14T07:46:59.000Z</time>
      </trkpt>
      <trkpt lat="43.62211" lon="6.85157">
        <ele>168</ele>
        <time>2017-10-14T07:47:00.000Z</time>
      </trkpt>
      <trkpt lat="43.62212" lon="6.85157">
        <ele>167</ele>
        <time>2017-10-14T07:47:01.000Z</time>
      </trkpt>
      <trkpt lat="43.62211" lon="6.85157">
        <ele>167</ele>
        <time>2017-10-14T07:47:02.000Z</time>
      </trkpt>
      <trkpt lat="43.62211" lon="6.85156">
        <ele>164</ele>
        <time>2017-10-14T07:47:03.000Z</time>
      </trkpt>
      <trkpt lat="43.62212" lon="6.85156">
        <ele>165</ele>
        <time>2017-10-14T07:47:04.000Z</time>
      </trkpt>
      <trkpt lat="43.62212" lon="6.85156">
        <ele>166</ele>
        <time>2017-10-14T07:47:05.000Z</time>
      </trkpt>
      <trkpt lat="43.62213" lon="6.85155">
        <ele>165</ele>
        <time>2017-10-14T07:47:06.000Z</time>
      </trkpt>
      <trkpt lat="43.62213" lon="6.85155">
        <ele>165</ele>
        <time>2017-10-14T07:47:07.000Z</time>
      </trkpt>
      <trkpt lat="43.62214" lon="6.85154">
        <ele>165</ele>
        <time>2017-10-14T07:47:08.000Z</time>
      </trkpt>
      <trkpt lat="43.62214" lon="6.85152">
        <ele>162</ele>
        <time>2017-10-14T07:47:09.000Z</time>
      </trkpt>
      <trkpt lat="43.62213" lon="6.85151">
        <ele>164</ele>
        <time>2017-10-14T07:47:10.000Z</time>
      </trkpt>
      <trkpt lat="43.62212" lon="6.8515">
        <ele>164</ele>
        <time>2017-10-14T07:47:11.000Z</time>
      </trkpt>
      <trkpt lat="43.62211" lon="6.8515">
        <ele>163</ele>
        <time>2017-10-14T07:47:12.000Z</time>
      </trkpt>
      <trkpt lat="43.6221" lon="6.85149">
        <ele>164</ele>
        <time>2017-10-14T07:47:13.000Z</time>
      </trkpt>
      <trkpt lat="43.62209" lon="6.85148">
        <ele>164</ele>
        <time>2017-10-14T07:47:14.000Z</time>
      </trkpt>
      <trkpt lat="43.62208" lon="6.85147">
        <ele>164</ele>
        <time>2017-10-14T07:47:15.000Z</time>
      </trkpt>
      <trkpt lat="43.62207" lon="6.85146">
        <ele>165</ele>
        <time>2017-10-14T07:47:16.000Z</time>
      </trkpt>
      <trkpt lat="43.62207" lon="6.85144">
        <ele>164</ele>
        <time>2017-10-14T07:47:17.000Z</time>
      </trkpt>
      <trkpt lat="43.62206" lon="6.85143">
        <ele>165</ele>
        <time>2017-10-14T07:47:18.000Z</time>
      </trkpt>
      <trkpt lat="43.62205" lon="6.85142">
        <ele>166</ele>
        <time>2017-10-14T07:47:19.000Z</time>
      </trkpt>
      <trkpt lat="43.62204" lon="6.85141">
        <ele>166</ele>
        <time>2017-10-14T07:47:20.000Z</time>
      </trkpt>
      <trkpt lat="43.62204" lon="6.8514">
        <ele>166</ele>
        <time>2017-10-14T07:47:21.000Z</time>
      </trkpt>
      <trkpt lat="43.62203" lon="6.85139">
        <ele>166</ele>
        <time>2017-10-14T07:47:22.000Z</time>
      </trkpt>
      <trkpt lat="43.62203" lon="6.85138">
        <ele>166</ele>
        <time>2017-10-14T07:47:23.000Z</time>
      </trkpt>
      <trkpt lat="43.62202" lon="6.85137">
        <ele>166</ele>
        <time>2017-10-14T07:47:24.000Z</time>
      </trkpt>
      <trkpt lat="43.62201" lon="6.85135">
        <ele>166</ele>
        <time>2017-10-14T07:47:25.000Z</time>
      </trkpt>
      <trkpt lat="43.622" lon="6.85134">
        <ele>166</ele>
        <time>2017-10-14T07:47:26.000Z</time>
      </trkpt>
      <trkpt lat="43.62198" lon="6.85133">
        <ele>165</ele>
        <time>2017-10-14T07:47:27.000Z</time>
      </trkpt>
      <trkpt lat="43.62197" lon="6.85132">
        <ele>165</ele>
        <time>2017-10-14T07:47:28.000Z</time>
      </trkpt>
      <trkpt lat="43.62197" lon="6.8513">
        <ele>165</ele>
        <time>2017-10-14T07:47:29.000Z</time>
      </trkpt>
      <trkpt lat="43.62196" lon="6.85128">
        <ele>165</ele>
        <time>2017-10-14T07:47:30.000Z</time>
      </trkpt>
      <trkpt lat="43.62197" lon="6.85126">
        <ele>165</ele>
        <time>2017-10-14T07:47:31.000Z</time>
      </trkpt>
      <trkpt lat="43.62197" lon="6.85124">
        <ele>165</ele>
        <time>2017-10-14T07:47:32.000Z</time>
      </trkpt>
      <trkpt lat="43.62197" lon="6.85123">
        <ele>165</ele>
        <time>2017-10-14T07:47:33.000Z</time>
      </trkpt>
      <trkpt lat="43.62197" lon="6.85122">
        <ele>165</ele>
        <time>2017-10-14T07:47:34.000Z</time>
      </trkpt>
      <trkpt lat="43.62197" lon="6.8512">
        <ele>165</ele>
        <time>2017-10-14T07:47:35.000Z</time>
      </trkpt>
      <trkpt lat="43.62197" lon="6.85119">
        <ele>166</ele>
        <time>2017-10-14T07:47:36.000Z</time>
      </trkpt>
      <trkpt lat="43.62196" lon="6.85118">
        <ele>166</ele>
        <time>2017-10-14T07:47:37.000Z</time>
      </trkpt>
      <trkpt lat="43.62196" lon="6.85116">
        <ele>166</ele>
        <time>2017-10-14T07:47:38.000Z</time>
      </trkpt>
      <trkpt lat="43.62196" lon="6.85115">
        <ele>166</ele>
        <time>2017-10-14T07:47:39.000Z</time>
      </trkpt>
      <trkpt lat="43.62196" lon="6.85114">
        <ele>167</ele>
        <time>2017-10-14T07:47:40.000Z</time>
      </trkpt>
      <trkpt lat="43.62196" lon="6.85112">
        <ele>168</ele>
        <time>2017-10-14T07:47:41.000Z</time>
      </trkpt>
      <trkpt lat="43.62196" lon="6.85111">
        <ele>168</ele>
        <time>2017-10-14T07:47:42.000Z</time>
      </trkpt>
      <trkpt lat="43.62196" lon="6.8511">
        <ele>168</ele>
        <time>2017-10-14T07:47:43.000Z</time>
      </trkpt>
      <trkpt lat="43.62196" lon="6.85109">
        <ele>169</ele>
        <time>2017-10-14T07:47:44.000Z</time>
      </trkpt>
      <trkpt lat="43.62196" lon="6.85108">
        <ele>170</ele>
        <time>2017-10-14T07:47:45.000Z</time>
      </trkpt>
      <trkpt lat="43.62196" lon="6.85107">
        <ele>170</ele>
        <time>2017-10-14T07:47:46.000Z</time>
      </trkpt>
      <trkpt lat="43.62196" lon="6.85105">
        <ele>170</ele>
        <time>2017-10-14T07:47:47.000Z</time>
      </trkpt>
      <trkpt lat="43.62196" lon="6.85104">
        <ele>171</ele>
        <time>2017-10-14T07:47:48.000Z</time>
      </trkpt>
      <trkpt lat="43.62196" lon="6.85102">
        <ele>172</ele>
        <time>2017-10-14T07:47:49.000Z</time>
      </trkpt>
      <trkpt lat="43.62196" lon="6.851">
        <ele>172</ele>
        <time>2017-10-14T07:47:50.000Z</time>
      </trkpt>
      <trkpt lat="43.62196" lon="6.85099">
        <ele>171</ele>
        <time>2017-10-14T07:47:51.000Z</time>
      </trkpt>
      <trkpt lat="43.62196" lon="6.85097">
        <ele>172</ele>
        <time>2017-10-14T07:47:52.000Z</time>
      </trkpt>
      <trkpt lat="43.62196" lon="6.85095">
        <ele>172</ele>
        <time>2017-10-14T07:47:53.000Z</time>
      </trkpt>
      <trkpt lat="43.62197" lon="6.85093">
        <ele>172</ele>
        <time>2017-10-14T07:47:54.000Z</time>
      </trkpt>
      <trkpt lat="43.62197" lon="6.85092">
        <ele>173</ele>
        <time>2017-10-14T07:47:55.000Z</time>
      </trkpt>
      <trkpt lat="43.62198" lon="6.85091">
        <ele>173</ele>
        <time>2017-10-14T07:47:56.000Z</time>
      </trkpt>
      <trkpt lat="43.62198" lon="6.85089">
        <ele>173</ele>
        <time>2017-10-14T07:47:57.000Z</time>
      </trkpt>
      <trkpt lat="43.62199" lon="6.85088">
        <ele>173</ele>
        <time>2017-10-14T07:47:58.000Z</time>
      </trkpt>
      <trkpt lat="43.622" lon="6.85086">
        <ele>174</ele>
        <time>2017-10-14T07:47:59.000Z</time>
      </trkpt>
      <trkpt lat="43.622" lon="6.85085">
        <ele>175</ele>
        <time>2017-10-14T07:48:00.000Z</time>
      </trkpt>
      <trkpt lat="43.622" lon="6.85084">
        <ele>175</ele>
        <time>2017-10-14T07:48:01.000Z</time>
      </trkpt>
      <trkpt lat="43.62201" lon="6.85082">
        <ele>175</ele>
        <time>2017-10-14T07:48:02.000Z</time>
      </trkpt>
      <trkpt lat="43.62201" lon="6.8508">
        <ele>175</ele>
        <time>2017-10-14T07:48:03.000Z</time>
      </trkpt>
      <trkpt lat="43.62201" lon="6.85078">
        <ele>175</ele>
        <time>2017-10-14T07:48:04.000Z</time>
      </trkpt>
      <trkpt lat="43.622" lon="6.85077">
        <ele>175</ele>
        <time>2017-10-14T07:48:05.000Z</time>
      </trkpt>
      <trkpt lat="43.622" lon="6.85075">
        <ele>175</ele>
        <time>2017-10-14T07:48:06.000Z</time>
      </trkpt>
      <trkpt lat="43.622" lon="6.85073">
        <ele>175</ele>
        <time>2017-10-14T07:48:07.000Z</time>
      </trkpt>
      <trkpt lat="43.622" lon="6.85071">
        <ele>175</ele>
        <time>2017-10-14T07:48:08.000Z</time>
      </trkpt>
      <trkpt lat="43.62199" lon="6.8507">
        <ele>176</ele>
        <time>2017-10-14T07:48:09.000Z</time>
      </trkpt>
      <trkpt lat="43.62199" lon="6.85068">
        <ele>176</ele>
        <time>2017-10-14T07:48:10.000Z</time>
      </trkpt>
      <trkpt lat="43.62199" lon="6.85066">
        <ele>176</ele>
        <time>2017-10-14T07:48:11.000Z</time>
      </trkpt>
      <trkpt lat="43.622" lon="6.85065">
        <ele>177</ele>
        <time>2017-10-14T07:48:12.000Z</time>
      </trkpt>
      <trkpt lat="43.622" lon="6.85064">
        <ele>177</ele>
        <time>2017-10-14T07:48:13.000Z</time>
      </trkpt>
      <trkpt lat="43.62201" lon="6.85063">
        <ele>178</ele>
        <time>2017-10-14T07:48:14.000Z</time>
      </trkpt>
      <trkpt lat="43.62201" lon="6.85062">
        <ele>179</ele>
        <time>2017-10-14T07:48:15.000Z</time>
      </trkpt>
      <trkpt lat="43.62202" lon="6.85061">
        <ele>179</ele>
        <time>2017-10-14T07:48:16.000Z</time>
      </trkpt>
      <trkpt lat="43.62202" lon="6.8506">
        <ele>180</ele>
        <time>2017-10-14T07:48:17.000Z</time>
      </trkpt>
      <trkpt lat="43.62202" lon="6.8506">
        <ele>181</ele>
        <time>2017-10-14T07:48:18.000Z</time>
      </trkpt>
      <trkpt lat="43.62203" lon="6.85059">
        <ele>181</ele>
        <time>2017-10-14T07:48:19.000Z</time>
      </trkpt>
      <trkpt lat="43.62203" lon="6.85059">
        <ele>182</ele>
        <time>2017-10-14T07:48:20.000Z</time>
      </trkpt>
      <trkpt lat="43.62203" lon="6.85059">
        <ele>183</ele>
        <time>2017-10-14T07:48:21.000Z</time>
      </trkpt>
      <trkpt lat="43.62204" lon="6.85058">
        <ele>182</ele>
        <time>2017-10-14T07:48:22.000Z</time>
      </trkpt>
      <trkpt lat="43.62204" lon="6.85058">
        <ele>182</ele>
        <time>2017-10-14T07:48:23.000Z</time>
      </trkpt>
      <trkpt lat="43.62205" lon="6.85057">
        <ele>182</ele>
        <time>2017-10-14T07:48:24.000Z</time>
      </trkpt>
      <trkpt lat="43.62205" lon="6.85057">
        <ele>183</ele>
        <time>2017-10-14T07:48:25.000Z</time>
      </trkpt>
      <trkpt lat="43.62205" lon="6.85056">
        <ele>183</ele>
        <time>2017-10-14T07:48:26.000Z</time>
      </trkpt>
      <trkpt lat="43.62206" lon="6.85055">
        <ele>183</ele>
        <time>2017-10-14T07:48:27.000Z</time>
      </trkpt>
      <trkpt lat="43.62206" lon="6.85055">
        <ele>183</ele>
        <time>2017-10-14T07:48:28.000Z</time>
      </trkpt>
      <trkpt lat="43.62207" lon="6.85054">
        <ele>184</ele>
        <time>2017-10-14T07:48:29.000Z</time>
      </trkpt>
      <trkpt lat="43.62207" lon="6.85054">
        <ele>183</ele>
        <time>2017-10-14T07:48:30.000Z</time>
      </trkpt>
      <trkpt lat="43.62208" lon="6.85054">
        <ele>182</ele>
        <time>2017-10-14T07:48:31.000Z</time>
      </trkpt>
      <trkpt lat="43.62209" lon="6.85053">
        <ele>182</ele>
        <time>2017-10-14T07:48:32.000Z</time>
      </trkpt>
      <trkpt lat="43.62209" lon="6.85052">
        <ele>183</ele>
        <time>2017-10-14T07:48:33.000Z</time>
      </trkpt>
      <trkpt lat="43.6221" lon="6.85051">
        <ele>183</ele>
        <time>2017-10-14T07:48:34.000Z</time>
      </trkpt>
      <trkpt lat="43.6221" lon="6.85051">
        <ele>182</ele>
        <time>2017-10-14T07:48:35.000Z</time>
      </trkpt>
      <trkpt lat="43.62211" lon="6.85049">
        <ele>182</ele>
        <time>2017-10-14T07:48:36.000Z</time>
      </trkpt>
      <trkpt lat="43.62211" lon="6.85049">
        <ele>182</ele>
        <time>2017-10-14T07:48:37.000Z</time>
      </trkpt>
      <trkpt lat="43.62212" lon="6.85048">
        <ele>183</ele>
        <time>2017-10-14T07:48:38.000Z</time>
      </trkpt>
      <trkpt lat="43.62212" lon="6.85047">
        <ele>184</ele>
        <time>2017-10-14T07:48:39.000Z</time>
      </trkpt>
      <trkpt lat="43.62213" lon="6.85046">
        <ele>184</ele>
        <time>2017-10-14T07:48:40.000Z</time>
      </trkpt>
      <trkpt lat="43.62213" lon="6.85045">
        <ele>185</ele>
        <time>2017-10-14T07:48:41.000Z</time>
      </trkpt>
      <trkpt lat="43.62214" lon="6.85044">
        <ele>185</ele>
        <time>2017-10-14T07:48:42.000Z</time>
      </trkpt>
      <trkpt lat="43.62215" lon="6.85043">
        <ele>185</ele>
        <time>2017-10-14T07:48:43.000Z</time>
      </trkpt>
      <trkpt lat="43.62215" lon="6.85042">
        <ele>186</ele>
        <time>2017-10-14T07:48:44.000Z</time>
      </trkpt>
      <trkpt lat="43.62216" lon="6.85042">
        <ele>186</ele>
        <time>2017-10-14T07:48:45.000Z</time>
      </trkpt>
      <trkpt lat="43.62217" lon="6.85041">
        <ele>187</ele>
        <time>2017-10-14T07:48:46.000Z</time>
      </trkpt>
      <trkpt lat="43.62217" lon="6.8504">
        <ele>188</ele>
        <time>2017-10-14T07:48:47.000Z</time>
      </trkpt>
      <trkpt lat="43.62217" lon="6.8504">
        <ele>188</ele>
        <time>2017-10-14T07:48:48.000Z</time>
      </trkpt>
      <trkpt lat="43.62218" lon="6.8504">
        <ele>189</ele>
        <time>2017-10-14T07:48:49.000Z</time>
      </trkpt>
      <trkpt lat="43.62218" lon="6.85039">
        <ele>189</ele>
        <time>2017-10-14T07:48:50.000Z</time>
      </trkpt>
      <trkpt lat="43.62218" lon="6.85039">
        <ele>189</ele>
        <time>2017-10-14T07:48:51.000Z</time>
      </trkpt>
      <trkpt lat="43.62219" lon="6.85038">
        <ele>189</ele>
        <time>2017-10-14T07:48:52.000Z</time>
      </trkpt>
      <trkpt lat="43.62219" lon="6.85037">
        <ele>190</ele>
        <time>2017-10-14T07:48:53.000Z</time>
      </trkpt>
      <trkpt lat="43.62219" lon="6.85036">
        <ele>190</ele>
        <time>2017-10-14T07:48:54.000Z</time>
      </trkpt>
      <trkpt lat="43.62219" lon="6.85036">
        <ele>190</ele>
        <time>2017-10-14T07:48:55.000Z</time>
      </trkpt>
      <trkpt lat="43.6222" lon="6.85035">
        <ele>190</ele>
        <time>2017-10-14T07:48:56.000Z</time>
      </trkpt>
      <trkpt lat="43.6222" lon="6.85034">
        <ele>190</ele>
        <time>2017-10-14T07:48:57.000Z</time>
      </trkpt>
      <trkpt lat="43.6222" lon="6.85034">
        <ele>190</ele>
        <time>2017-10-14T07:48:58.000Z</time>
      </trkpt>
      <trkpt lat="43.62221" lon="6.85033">
        <ele>191</ele>
        <time>2017-10-14T07:48:59.000Z</time>
      </trkpt>
      <trkpt lat="43.62222" lon="6.85033">
        <ele>192</ele>
        <time>2017-10-14T07:49:00.000Z</time>
      </trkpt>
      <trkpt lat="43.62222" lon="6.85032">
        <ele>193</ele>
        <time>2017-10-14T07:49:01.000Z</time>
      </trkpt>
      <trkpt lat="43.62222" lon="6.85032">
        <ele>193</ele>
        <time>2017-10-14T07:49:02.000Z</time>
      </trkpt>
      <trkpt lat="43.62223" lon="6.85031">
        <ele>192</ele>
        <time>2017-10-14T07:49:03.000Z</time>
      </trkpt>
      <trkpt lat="43.62223" lon="6.85031">
        <ele>193</ele>
        <time>2017-10-14T07:49:04.000Z</time>
      </trkpt>
      <trkpt lat="43.62224" lon="6.8503">
        <ele>193</ele>
        <time>2017-10-14T07:49:05.000Z</time>
      </trkpt>
      <trkpt lat="43.62225" lon="6.8503">
        <ele>192</ele>
        <time>2017-10-14T07:49:06.000Z</time>
      </trkpt>
      <trkpt lat="43.62225" lon="6.85029">
        <ele>192</ele>
        <time>2017-10-14T07:49:07.000Z</time>
      </trkpt>
      <trkpt lat="43.62226" lon="6.85029">
        <ele>191</ele>
        <time>2017-10-14T07:49:08.000Z</time>
      </trkpt>
      <trkpt lat="43.62226" lon="6.85028">
        <ele>192</ele>
        <time>2017-10-14T07:49:09.000Z</time>
      </trkpt>
      <trkpt lat="43.62226" lon="6.85028">
        <ele>193</ele>
        <time>2017-10-14T07:49:10.000Z</time>
      </trkpt>
      <trkpt lat="43.62227" lon="6.85027">
        <ele>193</ele>
        <time>2017-10-14T07:49:11.000Z</time>
      </trkpt>
      <trkpt lat="43.62227" lon="6.85026">
        <ele>194</ele>
        <time>2017-10-14T07:49:12.000Z</time>
      </trkpt>
      <trkpt lat="43.62227" lon="6.85025">
        <ele>193</ele>
        <time>2017-10-14T07:49:13.000Z</time>
      </trkpt>
      <trkpt lat="43.62227" lon="6.85023">
        <ele>194</ele>
        <time>2017-10-14T07:49:14.000Z</time>
      </trkpt>
      <trkpt lat="43.62228" lon="6.85023">
        <ele>194</ele>
        <time>2017-10-14T07:49:15.000Z</time>
      </trkpt>
      <trkpt lat="43.62228" lon="6.85022">
        <ele>194</ele>
        <time>2017-10-14T07:49:16.000Z</time>
      </trkpt>
      <trkpt lat="43.62228" lon="6.85022">
        <ele>194</ele>
        <time>2017-10-14T07:49:17.000Z</time>
      </trkpt>
      <trkpt lat="43.62229" lon="6.85022">
        <ele>194</ele>
        <time>2017-10-14T07:49:18.000Z</time>
      </trkpt>
      <trkpt lat="43.62229" lon="6.85022">
        <ele>194</ele>
        <time>2017-10-14T07:49:19.000Z</time>
      </trkpt>
      <trkpt lat="43.6223" lon="6.85022">
        <ele>194</ele>
        <time>2017-10-14T07:49:20.000Z</time>
      </trkpt>
      <trkpt lat="43.62231" lon="6.85022">
        <ele>194</ele>
        <time>2017-10-14T07:49:21.000Z</time>
      </trkpt>
      <trkpt lat="43.62231" lon="6.85022">
        <ele>194</ele>
        <time>2017-10-14T07:49:22.000Z</time>
      </trkpt>
      <trkpt lat="43.62232" lon="6.85022">
        <ele>194</ele>
        <time>2017-10-14T07:49:23.000Z</time>
      </trkpt>
      <trkpt lat="43.62232" lon="6.85023">
        <ele>194</ele>
        <time>2017-10-14T07:49:24.000Z</time>
      </trkpt>
      <trkpt lat="43.62233" lon="6.85023">
        <ele>195</ele>
        <time>2017-10-14T07:49:25.000Z</time>
      </trkpt>
      <trkpt lat="43.62234" lon="6.85023">
        <ele>196</ele>
        <time>2017-10-14T07:49:26.000Z</time>
      </trkpt>
      <trkpt lat="43.62234" lon="6.85023">
        <ele>196</ele>
        <time>2017-10-14T07:49:27.000Z</time>
      </trkpt>
      <trkpt lat="43.62234" lon="6.85024">
        <ele>196</ele>
        <time>2017-10-14T07:49:28.000Z</time>
      </trkpt>
      <trkpt lat="43.62235" lon="6.85024">
        <ele>196</ele>
        <time>2017-10-14T07:49:29.000Z</time>
      </trkpt>
      <trkpt lat="43.62235" lon="6.85025">
        <ele>196</ele>
        <time>2017-10-14T07:49:30.000Z</time>
      </trkpt>
      <trkpt lat="43.62235" lon="6.85025">
        <ele>196</ele>
        <time>2017-10-14T07:49:31.000Z</time>
      </trkpt>
      <trkpt lat="43.62236" lon="6.85026">
        <ele>197</ele>
        <time>2017-10-14T07:49:32.000Z</time>
      </trkpt>
      <trkpt lat="43.62237" lon="6.85027">
        <ele>196</ele>
        <time>2017-10-14T07:49:33.000Z</time>
      </trkpt>
      <trkpt lat="43.62237" lon="6.85028">
        <ele>196</ele>
        <time>2017-10-14T07:49:34.000Z</time>
      </trkpt>
      <trkpt lat="43.62238" lon="6.8503">
        <ele>196</ele>
        <time>2017-10-14T07:49:35.000Z</time>
      </trkpt>
      <trkpt lat="43.62238" lon="6.85031">
        <ele>195</ele>
        <time>2017-10-14T07:49:36.000Z</time>
      </trkpt>
      <trkpt lat="43.62238" lon="6.85032">
        <ele>195</ele>
        <time>2017-10-14T07:49:37.000Z</time>
      </trkpt>
      <trkpt lat="43.62238" lon="6.85034">
        <ele>195</ele>
        <time>2017-10-14T07:49:38.000Z</time>
      </trkpt>
      <trkpt lat="43.62238" lon="6.85035">
        <ele>194</ele>
        <time>2017-10-14T07:49:39.000Z</time>
      </trkpt>
      <trkpt lat="43.62238" lon="6.85037">
        <ele>194</ele>
        <time>2017-10-14T07:49:40.000Z</time>
      </trkpt>
      <trkpt lat="43.62237" lon="6.85039">
        <ele>194</ele>
        <time>2017-10-14T07:49:41.000Z</time>
      </trkpt>
      <trkpt lat="43.62237" lon="6.8504">
        <ele>193</ele>
        <time>2017-10-14T07:49:42.000Z</time>
      </trkpt>
      <trkpt lat="43.62237" lon="6.85042">
        <ele>193</ele>
        <time>2017-10-14T07:49:43.000Z</time>
      </trkpt>
      <trkpt lat="43.62238" lon="6.85044">
        <ele>193</ele>
        <time>2017-10-14T07:49:44.000Z</time>
      </trkpt>
      <trkpt lat="43.62238" lon="6.85046">
        <ele>194</ele>
        <time>2017-10-14T07:49:45.000Z</time>
      </trkpt>
      <trkpt lat="43.62238" lon="6.85048">
        <ele>194</ele>
        <time>2017-10-14T07:49:46.000Z</time>
      </trkpt>
      <trkpt lat="43.62238" lon="6.8505">
        <ele>195</ele>
        <time>2017-10-14T07:49:47.000Z</time>
      </trkpt>
      <trkpt lat="43.62239" lon="6.85051">
        <ele>194</ele>
        <time>2017-10-14T07:49:48.000Z</time>
      </trkpt>
      <trkpt lat="43.62239" lon="6.85053">
        <ele>194</ele>
        <time>2017-10-14T07:49:49.000Z</time>
      </trkpt>
      <trkpt lat="43.6224" lon="6.85054">
        <ele>194</ele>
        <time>2017-10-14T07:49:50.000Z</time>
      </trkpt>
      <trkpt lat="43.62241" lon="6.85056">
        <ele>194</ele>
        <time>2017-10-14T07:49:51.000Z</time>
      </trkpt>
      <trkpt lat="43.62241" lon="6.85057">
        <ele>195</ele>
        <time>2017-10-14T07:49:52.000Z</time>
      </trkpt>
      <trkpt lat="43.62242" lon="6.85058">
        <ele>194</ele>
        <time>2017-10-14T07:49:53.000Z</time>
      </trkpt>
      <trkpt lat="43.62243" lon="6.85059">
        <ele>194</ele>
        <time>2017-10-14T07:49:54.000Z</time>
      </trkpt>
      <trkpt lat="43.62244" lon="6.8506">
        <ele>194</ele>
        <time>2017-10-14T07:49:55.000Z</time>
      </trkpt>
      <trkpt lat="43.62244" lon="6.85062">
        <ele>194</ele>
        <time>2017-10-14T07:49:56.000Z</time>
      </trkpt>
      <trkpt lat="43.62244" lon="6.85063">
        <ele>195</ele>
        <time>2017-10-14T07:49:57.000Z</time>
      </trkpt>
      <trkpt lat="43.62245" lon="6.85064">
        <ele>195</ele>
        <time>2017-10-14T07:49:58.000Z</time>
      </trkpt>
      <trkpt lat="43.62245" lon="6.85064">
        <ele>195</ele>
        <time>2017-10-14T07:49:59.000Z</time>
      </trkpt>
      <trkpt lat="43.62246" lon="6.85065">
        <ele>195</ele>
        <time>2017-10-14T07:50:00.000Z</time>
      </trkpt>
      <trkpt lat="43.62246" lon="6.85065">
        <ele>195</ele>
        <time>2017-10-14T07:50:01.000Z</time>
      </trkpt>
      <trkpt lat="43.62246" lon="6.85066">
        <ele>195</ele>
        <time>2017-10-14T07:50:02.000Z</time>
      </trkpt>
      <trkpt lat="43.62247" lon="6.85067">
        <ele>196</ele>
        <time>2017-10-14T07:50:03.000Z</time>
      </trkpt>
      <trkpt lat="43.62247" lon="6.85068">
        <ele>196</ele>
        <time>2017-10-14T07:50:04.000Z</time>
      </trkpt>
      <trkpt lat="43.62248" lon="6.85068">
        <ele>196</ele>
        <time>2017-10-14T07:50:05.000Z</time>
      </trkpt>
      <trkpt lat="43.62248" lon="6.85069">
        <ele>196</ele>
        <time>2017-10-14T07:50:06.000Z</time>
      </trkpt>
      <trkpt lat="43.62249" lon="6.8507">
        <ele>197</ele>
        <time>2017-10-14T07:50:07.000Z</time>
      </trkpt>
      <trkpt lat="43.62249" lon="6.8507">
        <ele>197</ele>
        <time>2017-10-14T07:50:08.000Z</time>
      </trkpt>
      <trkpt lat="43.6225" lon="6.85071">
        <ele>198</ele>
        <time>2017-10-14T07:50:09.000Z</time>
      </trkpt>
      <trkpt lat="43.62251" lon="6.85072">
        <ele>199</ele>
        <time>2017-10-14T07:50:10.000Z</time>
      </trkpt>
      <trkpt lat="43.62251" lon="6.85073">
        <ele>201</ele>
        <time>2017-10-14T07:50:11.000Z</time>
      </trkpt>
      <trkpt lat="43.62252" lon="6.85074">
        <ele>201</ele>
        <time>2017-10-14T07:50:12.000Z</time>
      </trkpt>
      <trkpt lat="43.62252" lon="6.85075">
        <ele>202</ele>
        <time>2017-10-14T07:50:13.000Z</time>
      </trkpt>
      <trkpt lat="43.62253" lon="6.85075">
        <ele>202</ele>
        <time>2017-10-14T07:50:14.000Z</time>
      </trkpt>
      <trkpt lat="43.62254" lon="6.85075">
        <ele>203</ele>
        <time>2017-10-14T07:50:15.000Z</time>
      </trkpt>
      <trkpt lat="43.62254" lon="6.85074">
        <ele>203</ele>
        <time>2017-10-14T07:50:16.000Z</time>
      </trkpt>
      <trkpt lat="43.62254" lon="6.85072">
        <ele>204</ele>
        <time>2017-10-14T07:50:17.000Z</time>
      </trkpt>
      <trkpt lat="43.62254" lon="6.8507">
        <ele>204</ele>
        <time>2017-10-14T07:50:18.000Z</time>
      </trkpt>
      <trkpt lat="43.62254" lon="6.85068">
        <ele>204</ele>
        <time>2017-10-14T07:50:19.000Z</time>
      </trkpt>
      <trkpt lat="43.62254" lon="6.85067">
        <ele>204</ele>
        <time>2017-10-14T07:50:20.000Z</time>
      </trkpt>
      <trkpt lat="43.62253" lon="6.85066">
        <ele>204</ele>
        <time>2017-10-14T07:50:21.000Z</time>
      </trkpt>
      <trkpt lat="43.62253" lon="6.85064">
        <ele>204</ele>
        <time>2017-10-14T07:50:22.000Z</time>
      </trkpt>
      <trkpt lat="43.62253" lon="6.85063">
        <ele>204</ele>
        <time>2017-10-14T07:50:23.000Z</time>
      </trkpt>
      <trkpt lat="43.62253" lon="6.85061">
        <ele>204</ele>
        <time>2017-10-14T07:50:24.000Z</time>
      </trkpt>
      <trkpt lat="43.62252" lon="6.85059">
        <ele>205</ele>
        <time>2017-10-14T07:50:25.000Z</time>
      </trkpt>
      <trkpt lat="43.62252" lon="6.85057">
        <ele>205</ele>
        <time>2017-10-14T07:50:26.000Z</time>
      </trkpt>
      <trkpt lat="43.62252" lon="6.85056">
        <ele>206</ele>
        <time>2017-10-14T07:50:27.000Z</time>
      </trkpt>
      <trkpt lat="43.62251" lon="6.85054">
        <ele>206</ele>
        <time>2017-10-14T07:50:28.000Z</time>
      </trkpt>
      <trkpt lat="43.62251" lon="6.85053">
        <ele>207</ele>
        <time>2017-10-14T07:50:29.000Z</time>
      </trkpt>
      <trkpt lat="43.62251" lon="6.85051">
        <ele>207</ele>
        <time>2017-10-14T07:50:30.000Z</time>
      </trkpt>
      <trkpt lat="43.62251" lon="6.85049">
        <ele>206</ele>
        <time>2017-10-14T07:50:31.000Z</time>
      </trkpt>
      <trkpt lat="43.62251" lon="6.85047">
        <ele>206</ele>
        <time>2017-10-14T07:50:32.000Z</time>
      </trkpt>
      <trkpt lat="43.62251" lon="6.85046">
        <ele>205</ele>
        <time>2017-10-14T07:50:33.000Z</time>
      </trkpt>
      <trkpt lat="43.62251" lon="6.85044">
        <ele>205</ele>
        <time>2017-10-14T07:50:34.000Z</time>
      </trkpt>
      <trkpt lat="43.62251" lon="6.85042">
        <ele>205</ele>
        <time>2017-10-14T07:50:35.000Z</time>
      </trkpt>
      <trkpt lat="43.62252" lon="6.8504">
        <ele>204</ele>
        <time>2017-10-14T07:50:36.000Z</time>
      </trkpt>
      <trkpt lat="43.62252" lon="6.85038">
        <ele>204</ele>
        <time>2017-10-14T07:50:37.000Z</time>
      </trkpt>
      <trkpt lat="43.62252" lon="6.85036">
        <ele>203</ele>
        <time>2017-10-14T07:50:38.000Z</time>
      </trkpt>
      <trkpt lat="43.62253" lon="6.85035">
        <ele>202</ele>
        <time>2017-10-14T07:50:39.000Z</time>
      </trkpt>
      <trkpt lat="43.62253" lon="6.85033">
        <ele>203</ele>
        <time>2017-10-14T07:50:40.000Z</time>
      </trkpt>
      <trkpt lat="43.62254" lon="6.85031">
        <ele>204</ele>
        <time>2017-10-14T07:50:41.000Z</time>
      </trkpt>
      <trkpt lat="43.62255" lon="6.8503">
        <ele>204</ele>
        <time>2017-10-14T07:50:42.000Z</time>
      </trkpt>
      <trkpt lat="43.62256" lon="6.85029">
        <ele>204</ele>
        <time>2017-10-14T07:50:43.000Z</time>
      </trkpt>
      <trkpt lat="43.62256" lon="6.85027">
        <ele>204</ele>
        <time>2017-10-14T07:50:44.000Z</time>
      </trkpt>
      <trkpt lat="43.62256" lon="6.85025">
        <ele>204</ele>
        <time>2017-10-14T07:50:45.000Z</time>
      </trkpt>
      <trkpt lat="43.62255" lon="6.85023">
        <ele>204</ele>
        <time>2017-10-14T07:50:46.000Z</time>
      </trkpt>
      <trkpt lat="43.62255" lon="6.85022">
        <ele>204</ele>
        <time>2017-10-14T07:50:47.000Z</time>
      </trkpt>
      <trkpt lat="43.62255" lon="6.8502">
        <ele>204</ele>
        <time>2017-10-14T07:50:48.000Z</time>
      </trkpt>
      <trkpt lat="43.62255" lon="6.85019">
        <ele>205</ele>
        <time>2017-10-14T07:50:49.000Z</time>
      </trkpt>
      <trkpt lat="43.62255" lon="6.85017">
        <ele>205</ele>
        <time>2017-10-14T07:50:50.000Z</time>
      </trkpt>
      <trkpt lat="43.62255" lon="6.85015">
        <ele>205</ele>
        <time>2017-10-14T07:50:51.000Z</time>
      </trkpt>
      <trkpt lat="43.62256" lon="6.85013">
        <ele>204</ele>
        <time>2017-10-14T07:50:52.000Z</time>
      </trkpt>
      <trkpt lat="43.62256" lon="6.85011">
        <ele>204</ele>
        <time>2017-10-14T07:50:53.000Z</time>
      </trkpt>
      <trkpt lat="43.62256" lon="6.8501">
        <ele>204</ele>
        <time>2017-10-14T07:50:54.000Z</time>
      </trkpt>
      <trkpt lat="43.62256" lon="6.85008">
        <ele>205</ele>
        <time>2017-10-14T07:50:55.000Z</time>
      </trkpt>
      <trkpt lat="43.62256" lon="6.85007">
        <ele>204</ele>
        <time>2017-10-14T07:50:56.000Z</time>
      </trkpt>
      <trkpt lat="43.62257" lon="6.85006">
        <ele>204</ele>
        <time>2017-10-14T07:50:57.000Z</time>
      </trkpt>
      <trkpt lat="43.62257" lon="6.85004">
        <ele>205</ele>
        <time>2017-10-14T07:50:58.000Z</time>
      </trkpt>
      <trkpt lat="43.62257" lon="6.85003">
        <ele>206</ele>
        <time>2017-10-14T07:50:59.000Z</time>
      </trkpt>
      <trkpt lat="43.62258" lon="6.85001">
        <ele>206</ele>
        <time>2017-10-14T07:51:00.000Z</time>
      </trkpt>
      <trkpt lat="43.62259" lon="6.85001">
        <ele>205</ele>
        <time>2017-10-14T07:51:01.000Z</time>
      </trkpt>
      <trkpt lat="43.62261" lon="6.85001">
        <ele>205</ele>
        <time>2017-10-14T07:51:02.000Z</time>
      </trkpt>
      <trkpt lat="43.62262" lon="6.85002">
        <ele>206</ele>
        <time>2017-10-14T07:51:03.000Z</time>
      </trkpt>
      <trkpt lat="43.62262" lon="6.85003">
        <ele>206</ele>
        <time>2017-10-14T07:51:04.000Z</time>
      </trkpt>
      <trkpt lat="43.62263" lon="6.85003">
        <ele>206</ele>
        <time>2017-10-14T07:51:05.000Z</time>
      </trkpt>
      <trkpt lat="43.62264" lon="6.85004">
        <ele>206</ele>
        <time>2017-10-14T07:51:06.000Z</time>
      </trkpt>
      <trkpt lat="43.62265" lon="6.85005">
        <ele>206</ele>
        <time>2017-10-14T07:51:07.000Z</time>
      </trkpt>
      <trkpt lat="43.62265" lon="6.85006">
        <ele>206</ele>
        <time>2017-10-14T07:51:08.000Z</time>
      </trkpt>
      <trkpt lat="43.62266" lon="6.85007">
        <ele>206</ele>
        <time>2017-10-14T07:51:09.000Z</time>
      </trkpt>
      <trkpt lat="43.62266" lon="6.85009">
        <ele>207</ele>
        <time>2017-10-14T07:51:10.000Z</time>
      </trkpt>
      <trkpt lat="43.62267" lon="6.8501">
        <ele>207</ele>
        <time>2017-10-14T07:51:11.000Z</time>
      </trkpt>
      <trkpt lat="43.62268" lon="6.85011">
        <ele>207</ele>
        <time>2017-10-14T07:51:12.000Z</time>
      </trkpt>
      <trkpt lat="43.62269" lon="6.85012">
        <ele>206</ele>
        <time>2017-10-14T07:51:13.000Z</time>
      </trkpt>
      <trkpt lat="43.6227" lon="6.85014">
        <ele>206</ele>
        <time>2017-10-14T07:51:14.000Z</time>
      </trkpt>
      <trkpt lat="43.6227" lon="6.85015">
        <ele>207</ele>
        <time>2017-10-14T07:51:15.000Z</time>
      </trkpt>
      <trkpt lat="43.6227" lon="6.85017">
        <ele>207</ele>
        <time>2017-10-14T07:51:16.000Z</time>
      </trkpt>
      <trkpt lat="43.62271" lon="6.85019">
        <ele>206</ele>
        <time>2017-10-14T07:51:17.000Z</time>
      </trkpt>
      <trkpt lat="43.62271" lon="6.85021">
        <ele>206</ele>
        <time>2017-10-14T07:51:18.000Z</time>
      </trkpt>
      <trkpt lat="43.62271" lon="6.85022">
        <ele>206</ele>
        <time>2017-10-14T07:51:19.000Z</time>
      </trkpt>
      <trkpt lat="43.62271" lon="6.85024">
        <ele>205</ele>
        <time>2017-10-14T07:51:20.000Z</time>
      </trkpt>
      <trkpt lat="43.62271" lon="6.85026">
        <ele>206</ele>
        <time>2017-10-14T07:51:21.000Z</time>
      </trkpt>
      <trkpt lat="43.62272" lon="6.85027">
        <ele>205</ele>
        <time>2017-10-14T07:51:22.000Z</time>
      </trkpt>
      <trkpt lat="43.62272" lon="6.85029">
        <ele>205</ele>
        <time>2017-10-14T07:51:23.000Z</time>
      </trkpt>
      <trkpt lat="43.62272" lon="6.85031">
        <ele>204</ele>
        <time>2017-10-14T07:51:24.000Z</time>
      </trkpt>
      <trkpt lat="43.62272" lon="6.85033">
        <ele>204</ele>
        <time>2017-10-14T07:51:25.000Z</time>
      </trkpt>
      <trkpt lat="43.62272" lon="6.85035">
        <ele>204</ele>
        <time>2017-10-14T07:51:26.000Z</time>
      </trkpt>
      <trkpt lat="43.62273" lon="6.85036">
        <ele>204</ele>
        <time>2017-10-14T07:51:27.000Z</time>
      </trkpt>
      <trkpt lat="43.62273" lon="6.85038">
        <ele>204</ele>
        <time>2017-10-14T07:51:28.000Z</time>
      </trkpt>
      <trkpt lat="43.62273" lon="6.8504">
        <ele>204</ele>
        <time>2017-10-14T07:51:29.000Z</time>
      </trkpt>
      <trkpt lat="43.62273" lon="6.85042">
        <ele>204</ele>
        <time>2017-10-14T07:51:30.000Z</time>
      </trkpt>
      <trkpt lat="43.62273" lon="6.85044">
        <ele>205</ele>
        <time>2017-10-14T07:51:31.000Z</time>
      </trkpt>
      <trkpt lat="43.62273" lon="6.85046">
        <ele>204</ele>
        <time>2017-10-14T07:51:32.000Z</time>
      </trkpt>
      <trkpt lat="43.62274" lon="6.85048">
        <ele>205</ele>
        <time>2017-10-14T07:51:33.000Z</time>
      </trkpt>
      <trkpt lat="43.62274" lon="6.85049">
        <ele>205</ele>
        <time>2017-10-14T07:51:34.000Z</time>
      </trkpt>
      <trkpt lat="43.62274" lon="6.85051">
        <ele>206</ele>
        <time>2017-10-14T07:51:35.000Z</time>
      </trkpt>
      <trkpt lat="43.62274" lon="6.85053">
        <ele>206</ele>
        <time>2017-10-14T07:51:36.000Z</time>
      </trkpt>
      <trkpt lat="43.62274" lon="6.85054">
        <ele>206</ele>
        <time>2017-10-14T07:51:37.000Z</time>
      </trkpt>
      <trkpt lat="43.62275" lon="6.85055">
        <ele>206</ele>
        <time>2017-10-14T07:51:38.000Z</time>
      </trkpt>
      <trkpt lat="43.62275" lon="6.85057">
        <ele>206</ele>
        <time>2017-10-14T07:51:39.000Z</time>
      </trkpt>
      <trkpt lat="43.62276" lon="6.85058">
        <ele>206</ele>
        <time>2017-10-14T07:51:40.000Z</time>
      </trkpt>
      <trkpt lat="43.62276" lon="6.8506">
        <ele>206</ele>
        <time>2017-10-14T07:51:41.000Z</time>
      </trkpt>
      <trkpt lat="43.62277" lon="6.85061">
        <ele>207</ele>
        <time>2017-10-14T07:51:42.000Z</time>
      </trkpt>
      <trkpt lat="43.62278" lon="6.85063">
        <ele>208</ele>
        <time>2017-10-14T07:51:43.000Z</time>
      </trkpt>
      <trkpt lat="43.62278" lon="6.85064">
        <ele>208</ele>
        <time>2017-10-14T07:51:44.000Z</time>
      </trkpt>
      <trkpt lat="43.62279" lon="6.85066">
        <ele>208</ele>
        <time>2017-10-14T07:51:45.000Z</time>
      </trkpt>
      <trkpt lat="43.6228" lon="6.85067">
        <ele>208</ele>
        <time>2017-10-14T07:51:46.000Z</time>
      </trkpt>
      <trkpt lat="43.62281" lon="6.85068">
        <ele>209</ele>
        <time>2017-10-14T07:51:47.000Z</time>
      </trkpt>
      <trkpt lat="43.62281" lon="6.8507">
        <ele>209</ele>
        <time>2017-10-14T07:51:48.000Z</time>
      </trkpt>
      <trkpt lat="43.62282" lon="6.85071">
        <ele>210</ele>
        <time>2017-10-14T07:51:49.000Z</time>
      </trkpt>
      <trkpt lat="43.62283" lon="6.85072">
        <ele>210</ele>
        <time>2017-10-14T07:51:50.000Z</time>
      </trkpt>
      <trkpt lat="43.62283" lon="6.85074">
        <ele>212</ele>
        <time>2017-10-14T07:51:51.000Z</time>
      </trkpt>
      <trkpt lat="43.62284" lon="6.85075">
        <ele>212</ele>
        <time>2017-10-14T07:51:52.000Z</time>
      </trkpt>
      <trkpt lat="43.62285" lon="6.85076">
        <ele>212</ele>
        <time>2017-10-14T07:51:53.000Z</time>
      </trkpt>
      <trkpt lat="43.62286" lon="6.85077">
        <ele>212</ele>
        <time>2017-10-14T07:51:54.000Z</time>
      </trkpt>
      <trkpt lat="43.62287" lon="6.85078">
        <ele>214</ele>
        <time>2017-10-14T07:51:55.000Z</time>
      </trkpt>
      <trkpt lat="43.62288" lon="6.85079">
        <ele>213</ele>
        <time>2017-10-14T07:51:56.000Z</time>
      </trkpt>
      <trkpt lat="43.62289" lon="6.85079">
        <ele>213</ele>
        <time>2017-10-14T07:51:57.000Z</time>
      </trkpt>
      <trkpt lat="43.6229" lon="6.85079">
        <ele>213</ele>
        <time>2017-10-14T07:51:58.000Z</time>
      </trkpt>
      <trkpt lat="43.62291" lon="6.85078">
        <ele>214</ele>
        <time>2017-10-14T07:51:59.000Z</time>
      </trkpt>
      <trkpt lat="43.62292" lon="6.85078">
        <ele>214</ele>
        <time>2017-10-14T07:52:00.000Z</time>
      </trkpt>
      <trkpt lat="43.62292" lon="6.85076">
        <ele>215</ele>
        <time>2017-10-14T07:52:01.000Z</time>
      </trkpt>
      <trkpt lat="43.62292" lon="6.85075">
        <ele>214</ele>
        <time>2017-10-14T07:52:02.000Z</time>
      </trkpt>
      <trkpt lat="43.62292" lon="6.85073">
        <ele>214</ele>
        <time>2017-10-14T07:52:03.000Z</time>
      </trkpt>
      <trkpt lat="43.62292" lon="6.85071">
        <ele>214</ele>
        <time>2017-10-14T07:52:04.000Z</time>
      </trkpt>
      <trkpt lat="43.62292" lon="6.8507">
        <ele>215</ele>
        <time>2017-10-14T07:52:05.000Z</time>
      </trkpt>
      <trkpt lat="43.62292" lon="6.85068">
        <ele>215</ele>
        <time>2017-10-14T07:52:06.000Z</time>
      </trkpt>
      <trkpt lat="43.62292" lon="6.85067">
        <ele>215</ele>
        <time>2017-10-14T07:52:07.000Z</time>
      </trkpt>
      <trkpt lat="43.62292" lon="6.85065">
        <ele>215</ele>
        <time>2017-10-14T07:52:08.000Z</time>
      </trkpt>
      <trkpt lat="43.62292" lon="6.85062">
        <ele>216</ele>
        <time>2017-10-14T07:52:09.000Z</time>
      </trkpt>
      <trkpt lat="43.62292" lon="6.8506">
        <ele>215</ele>
        <time>2017-10-14T07:52:10.000Z</time>
      </trkpt>
      <trkpt lat="43.62292" lon="6.85058">
        <ele>215</ele>
        <time>2017-10-14T07:52:11.000Z</time>
      </trkpt>
      <trkpt lat="43.62292" lon="6.85057">
        <ele>215</ele>
        <time>2017-10-14T07:52:12.000Z</time>
      </trkpt>
      <trkpt lat="43.62293" lon="6.85055">
        <ele>215</ele>
        <time>2017-10-14T07:52:13.000Z</time>
      </trkpt>
      <trkpt lat="43.62293" lon="6.85054">
        <ele>215</ele>
        <time>2017-10-14T07:52:14.000Z</time>
      </trkpt>
      <trkpt lat="43.62293" lon="6.85053">
        <ele>216</ele>
        <time>2017-10-14T07:52:15.000Z</time>
      </trkpt>
      <trkpt lat="43.62294" lon="6.85051">
        <ele>217</ele>
        <time>2017-10-14T07:52:16.000Z</time>
      </trkpt>
      <trkpt lat="43.62294" lon="6.8505">
        <ele>217</ele>
        <time>2017-10-14T07:52:17.000Z</time>
      </trkpt>
      <trkpt lat="43.62295" lon="6.85049">
        <ele>218</ele>
        <time>2017-10-14T07:52:18.000Z</time>
      </trkpt>
      <trkpt lat="43.62296" lon="6.85048">
        <ele>218</ele>
        <time>2017-10-14T07:52:19.000Z</time>
      </trkpt>
      <trkpt lat="43.62297" lon="6.85047">
        <ele>218</ele>
        <time>2017-10-14T07:52:20.000Z</time>
      </trkpt>
      <trkpt lat="43.62297" lon="6.85046">
        <ele>218</ele>
        <time>2017-10-14T07:52:21.000Z</time>
      </trkpt>
      <trkpt lat="43.62298" lon="6.85045">
        <ele>218</ele>
        <time>2017-10-14T07:52:22.000Z</time>
      </trkpt>
      <trkpt lat="43.62299" lon="6.85045">
        <ele>219</ele>
        <time>2017-10-14T07:52:23.000Z</time>
      </trkpt>
      <trkpt lat="43.62299" lon="6.85045">
        <ele>219</ele>
        <time>2017-10-14T07:52:24.000Z</time>
      </trkpt>
      <trkpt lat="43.623" lon="6.85045">
        <ele>219</ele>
        <time>2017-10-14T07:52:25.000Z</time>
      </trkpt>
      <trkpt lat="43.62301" lon="6.85045">
        <ele>220</ele>
        <time>2017-10-14T07:52:26.000Z</time>
      </trkpt>
      <trkpt lat="43.62301" lon="6.85045">
        <ele>220</ele>
        <time>2017-10-14T07:52:27.000Z</time>
      </trkpt>
      <trkpt lat="43.62302" lon="6.85045">
        <ele>220</ele>
        <time>2017-10-14T07:52:28.000Z</time>
      </trkpt>
      <trkpt lat="43.62302" lon="6.85045">
        <ele>220</ele>
        <time>2017-10-14T07:52:29.000Z</time>
      </trkpt>
      <trkpt lat="43.62302" lon="6.85045">
        <ele>220</ele>
        <time>2017-10-14T07:52:30.000Z</time>
      </trkpt>
      <trkpt lat="43.62303" lon="6.85046">
        <ele>220</ele>
        <time>2017-10-14T07:52:31.000Z</time>
      </trkpt>
      <trkpt lat="43.62304" lon="6.85046">
        <ele>221</ele>
        <time>2017-10-14T07:52:32.000Z</time>
      </trkpt>
      <trkpt lat="43.62305" lon="6.85047">
        <ele>221</ele>
        <time>2017-10-14T07:52:33.000Z</time>
      </trkpt>
      <trkpt lat="43.62305" lon="6.85047">
        <ele>221</ele>
        <time>2017-10-14T07:52:34.000Z</time>
      </trkpt>
      <trkpt lat="43.62306" lon="6.85047">
        <ele>222</ele>
        <time>2017-10-14T07:52:35.000Z</time>
      </trkpt>
      <trkpt lat="43.62307" lon="6.85048">
        <ele>222</ele>
        <time>2017-10-14T07:52:36.000Z</time>
      </trkpt>
      <trkpt lat="43.62308" lon="6.85048">
        <ele>222</ele>
        <time>2017-10-14T07:52:37.000Z</time>
      </trkpt>
      <trkpt lat="43.62309" lon="6.85048">
        <ele>222</ele>
        <time>2017-10-14T07:52:38.000Z</time>
      </trkpt>
      <trkpt lat="43.6231" lon="6.85049">
        <ele>223</ele>
        <time>2017-10-14T07:52:39.000Z</time>
      </trkpt>
      <trkpt lat="43.62311" lon="6.85049">
        <ele>223</ele>
        <time>2017-10-14T07:52:40.000Z</time>
      </trkpt>
      <trkpt lat="43.62311" lon="6.85049">
        <ele>223</ele>
        <time>2017-10-14T07:52:41.000Z</time>
      </trkpt>
      <trkpt lat="43.62312" lon="6.85049">
        <ele>223</ele>
        <time>2017-10-14T07:52:42.000Z</time>
      </trkpt>
      <trkpt lat="43.62312" lon="6.85048">
        <ele>224</ele>
        <time>2017-10-14T07:52:43.000Z</time>
      </trkpt>
      <trkpt lat="43.62313" lon="6.85048">
        <ele>224</ele>
        <time>2017-10-14T07:52:44.000Z</time>
      </trkpt>
      <trkpt lat="43.62313" lon="6.85048">
        <ele>224</ele>
        <time>2017-10-14T07:52:45.000Z</time>
      </trkpt>
      <trkpt lat="43.62313" lon="6.85047">
        <ele>224</ele>
        <time>2017-10-14T07:52:46.000Z</time>
      </trkpt>
      <trkpt lat="43.62313" lon="6.85047">
        <ele>224</ele>
        <time>2017-10-14T07:52:47.000Z</time>
      </trkpt>
      <trkpt lat="43.62313" lon="6.85047">
        <ele>224</ele>
        <time>2017-10-14T07:52:48.000Z</time>
      </trkpt>
      <trkpt lat="43.62313" lon="6.85047">
        <ele>224</ele>
        <time>2017-10-14T07:52:49.000Z</time>
      </trkpt>
      <trkpt lat="43.62313" lon="6.85047">
        <ele>224</ele>
        <time>2017-10-14T07:52:50.000Z</time>
      </trkpt>
      <trkpt lat="43.62313" lon="6.85047">
        <ele>224</ele>
        <time>2017-10-14T07:52:51.000Z</time>
      </trkpt>
      <trkpt lat="43.62313" lon="6.85047">
        <ele>225</ele>
        <time>2017-10-14T07:52:52.000Z</time>
      </trkpt>
      <trkpt lat="43.62313" lon="6.85047">
        <ele>225</ele>
        <time>2017-10-14T07:52:53.000Z</time>
      </trkpt>
      <trkpt lat="43.62313" lon="6.85047">
        <ele>225</ele>
        <time>2017-10-14T07:52:54.000Z</time>
      </trkpt>
      <trkpt lat="43.62314" lon="6.85047">
        <ele>225</ele>
        <time>2017-10-14T07:52:55.000Z</time>
      </trkpt>
      <trkpt lat="43.62314" lon="6.85047">
        <ele>226</ele>
        <time>2017-10-14T07:52:56.000Z</time>
      </trkpt>
      <trkpt lat="43.62314" lon="6.85047">
        <ele>225</ele>
        <time>2017-10-14T07:52:57.000Z</time>
      </trkpt>
      <trkpt lat="43.62314" lon="6.85046">
        <ele>225</ele>
        <time>2017-10-14T07:52:58.000Z</time>
      </trkpt>
      <trkpt lat="43.62315" lon="6.85046">
        <ele>225</ele>
        <time>2017-10-14T07:52:59.000Z</time>
      </trkpt>
      <trkpt lat="43.62315" lon="6.85046">
        <ele>225</ele>
        <time>2017-10-14T07:53:00.000Z</time>
      </trkpt>
      <trkpt lat="43.62316" lon="6.85045">
        <ele>226</ele>
        <time>2017-10-14T07:53:01.000Z</time>
      </trkpt>
      <trkpt lat="43.62316" lon="6.85045">
        <ele>226</ele>
        <time>2017-10-14T07:53:02.000Z</time>
      </trkpt>
      <trkpt lat="43.62317" lon="6.85044">
        <ele>227</ele>
        <time>2017-10-14T07:53:03.000Z</time>
      </trkpt>
      <trkpt lat="43.62318" lon="6.85044">
        <ele>227</ele>
        <time>2017-10-14T07:53:04.000Z</time>
      </trkpt>
      <trkpt lat="43.62319" lon="6.85043">
        <ele>227</ele>
        <time>2017-10-14T07:53:05.000Z</time>
      </trkpt>
      <trkpt lat="43.6232" lon="6.85042">
        <ele>228</ele>
        <time>2017-10-14T07:53:06.000Z</time>
      </trkpt>
      <trkpt lat="43.62321" lon="6.85041">
        <ele>227</ele>
        <time>2017-10-14T07:53:07.000Z</time>
      </trkpt>
      <trkpt lat="43.62322" lon="6.85041">
        <ele>228</ele>
        <time>2017-10-14T07:53:08.000Z</time>
      </trkpt>
      <trkpt lat="43.62323" lon="6.8504">
        <ele>228</ele>
        <time>2017-10-14T07:53:09.000Z</time>
      </trkpt>
      <trkpt lat="43.62324" lon="6.8504">
        <ele>227</ele>
        <time>2017-10-14T07:53:10.000Z</time>
      </trkpt>
      <trkpt lat="43.62324" lon="6.85039">
        <ele>227</ele>
        <time>2017-10-14T07:53:11.000Z</time>
      </trkpt>
      <trkpt lat="43.62325" lon="6.85039">
        <ele>228</ele>
        <time>2017-10-14T07:53:12.000Z</time>
      </trkpt>
      <trkpt lat="43.62326" lon="6.85038">
        <ele>227</ele>
        <time>2017-10-14T07:53:13.000Z</time>
      </trkpt>
      <trkpt lat="43.62326" lon="6.85038">
        <ele>227</ele>
        <time>2017-10-14T07:53:14.000Z</time>
      </trkpt>
      <trkpt lat="43.62327" lon="6.85037">
        <ele>227</ele>
        <time>2017-10-14T07:53:15.000Z</time>
      </trkpt>
      <trkpt lat="43.62328" lon="6.85036">
        <ele>227</ele>
        <time>2017-10-14T07:53:16.000Z</time>
      </trkpt>
      <trkpt lat="43.62329" lon="6.85036">
        <ele>227</ele>
        <time>2017-10-14T07:53:17.000Z</time>
      </trkpt>
      <trkpt lat="43.62329" lon="6.85035">
        <ele>227</ele>
        <time>2017-10-14T07:53:18.000Z</time>
      </trkpt>
      <trkpt lat="43.6233" lon="6.85035">
        <ele>228</ele>
        <time>2017-10-14T07:53:19.000Z</time>
      </trkpt>
      <trkpt lat="43.6233" lon="6.85035">
        <ele>228</ele>
        <time>2017-10-14T07:53:20.000Z</time>
      </trkpt>
      <trkpt lat="43.62331" lon="6.85035">
        <ele>228</ele>
        <time>2017-10-14T07:53:21.000Z</time>
      </trkpt>
      <trkpt lat="43.62333" lon="6.85034">
        <ele>229</ele>
        <time>2017-10-14T07:53:22.000Z</time>
      </trkpt>
      <trkpt lat="43.62334" lon="6.85033">
        <ele>230</ele>
        <time>2017-10-14T07:53:23.000Z</time>
      </trkpt>
      <trkpt lat="43.62335" lon="6.85032">
        <ele>229</ele>
        <time>2017-10-14T07:53:24.000Z</time>
      </trkpt>
      <trkpt lat="43.62335" lon="6.85031">
        <ele>229</ele>
        <time>2017-10-14T07:53:25.000Z</time>
      </trkpt>
      <trkpt lat="43.62336" lon="6.85029">
        <ele>228</ele>
        <time>2017-10-14T07:53:26.000Z</time>
      </trkpt>
      <trkpt lat="43.62336" lon="6.85028">
        <ele>228</ele>
        <time>2017-10-14T07:53:27.000Z</time>
      </trkpt>
      <trkpt lat="43.62337" lon="6.85027">
        <ele>228</ele>
        <time>2017-10-14T07:53:28.000Z</time>
      </trkpt>
      <trkpt lat="43.62337" lon="6.85025">
        <ele>228</ele>
        <time>2017-10-14T07:53:29.000Z</time>
      </trkpt>
      <trkpt lat="43.62338" lon="6.85024">
        <ele>227</ele>
        <time>2017-10-14T07:53:30.000Z</time>
      </trkpt>
      <trkpt lat="43.62338" lon="6.85023">
        <ele>227</ele>
        <time>2017-10-14T07:53:31.000Z</time>
      </trkpt>
      <trkpt lat="43.62338" lon="6.85021">
        <ele>228</ele>
        <time>2017-10-14T07:53:32.000Z</time>
      </trkpt>
      <trkpt lat="43.62339" lon="6.8502">
        <ele>228</ele>
        <time>2017-10-14T07:53:33.000Z</time>
      </trkpt>
      <trkpt lat="43.6234" lon="6.85018">
        <ele>228</ele>
        <time>2017-10-14T07:53:34.000Z</time>
      </trkpt>
      <trkpt lat="43.6234" lon="6.85017">
        <ele>228</ele>
        <time>2017-10-14T07:53:35.000Z</time>
      </trkpt>
      <trkpt lat="43.62341" lon="6.85015">
        <ele>228</ele>
        <time>2017-10-14T07:53:36.000Z</time>
      </trkpt>
      <trkpt lat="43.62342" lon="6.85014">
        <ele>229</ele>
        <time>2017-10-14T07:53:37.000Z</time>
      </trkpt>
      <trkpt lat="43.62343" lon="6.85012">
        <ele>229</ele>
        <time>2017-10-14T07:53:38.000Z</time>
      </trkpt>
      <trkpt lat="43.62344" lon="6.85011">
        <ele>228</ele>
        <time>2017-10-14T07:53:39.000Z</time>
      </trkpt>
      <trkpt lat="43.62344" lon="6.85009">
        <ele>229</ele>
        <time>2017-10-14T07:53:40.000Z</time>
      </trkpt>
      <trkpt lat="43.62345" lon="6.85008">
        <ele>229</ele>
        <time>2017-10-14T07:53:41.000Z</time>
      </trkpt>
      <trkpt lat="43.62346" lon="6.85006">
        <ele>229</ele>
        <time>2017-10-14T07:53:42.000Z</time>
      </trkpt>
      <trkpt lat="43.62346" lon="6.85005">
        <ele>229</ele>
        <time>2017-10-14T07:53:43.000Z</time>
      </trkpt>
      <trkpt lat="43.62347" lon="6.85004">
        <ele>229</ele>
        <time>2017-10-14T07:53:44.000Z</time>
      </trkpt>
      <trkpt lat="43.62348" lon="6.85002">
        <ele>229</ele>
        <time>2017-10-14T07:53:45.000Z</time>
      </trkpt>
      <trkpt lat="43.62349" lon="6.85001">
        <ele>229</ele>
        <time>2017-10-14T07:53:46.000Z</time>
      </trkpt>
      <trkpt lat="43.6235" lon="6.85">
        <ele>229</ele>
        <time>2017-10-14T07:53:47.000Z</time>
      </trkpt>
      <trkpt lat="43.62351" lon="6.84999">
        <ele>229</ele>
        <time>2017-10-14T07:53:48.000Z</time>
      </trkpt>
      <trkpt lat="43.62352" lon="6.84998">
        <ele>229</ele>
        <time>2017-10-14T07:53:49.000Z</time>
      </trkpt>
      <trkpt lat="43.62353" lon="6.84997">
        <ele>229</ele>
        <time>2017-10-14T07:53:50.000Z</time>
      </trkpt>
      <trkpt lat="43.62354" lon="6.84996">
        <ele>229</ele>
        <time>2017-10-14T07:53:51.000Z</time>
      </trkpt>
      <trkpt lat="43.62355" lon="6.84995">
        <ele>229</ele>
        <time>2017-10-14T07:53:52.000Z</time>
      </trkpt>
      <trkpt lat="43.62355" lon="6.84994">
        <ele>229</ele>
        <time>2017-10-14T07:53:53.000Z</time>
      </trkpt>
      <trkpt lat="43.62356" lon="6.84993">
        <ele>229</ele>
        <time>2017-10-14T07:53:54.000Z</time>
      </trkpt>
      <trkpt lat="43.62357" lon="6.84992">
        <ele>229</ele>
        <time>2017-10-14T07:53:55.000Z</time>
      </trkpt>
      <trkpt lat="43.62358" lon="6.84991">
        <ele>230</ele>
        <time>2017-10-14T07:53:56.000Z</time>
      </trkpt>
      <trkpt lat="43.62359" lon="6.8499">
        <ele>230</ele>
        <time>2017-10-14T07:53:57.000Z</time>
      </trkpt>
      <trkpt lat="43.6236" lon="6.84989">
        <ele>230</ele>
        <time>2017-10-14T07:53:58.000Z</time>
      </trkpt>
      <trkpt lat="43.62361" lon="6.84988">
        <ele>230</ele>
        <time>2017-10-14T07:53:59.000Z</time>
      </trkpt>
      <trkpt lat="43.62362" lon="6.84987">
        <ele>231</ele>
        <time>2017-10-14T07:54:00.000Z</time>
      </trkpt>
      <trkpt lat="43.62363" lon="6.84986">
        <ele>231</ele>
        <time>2017-10-14T07:54:01.000Z</time>
      </trkpt>
      <trkpt lat="43.62364" lon="6.84984">
        <ele>231</ele>
        <time>2017-10-14T07:54:02.000Z</time>
      </trkpt>
      <trkpt lat="43.62364" lon="6.84983">
        <ele>231</ele>
        <time>2017-10-14T07:54:03.000Z</time>
      </trkpt>
      <trkpt lat="43.62365" lon="6.84982">
        <ele>231</ele>
        <time>2017-10-14T07:54:04.000Z</time>
      </trkpt>
      <trkpt lat="43.62366" lon="6.84981">
        <ele>232</ele>
        <time>2017-10-14T07:54:05.000Z</time>
      </trkpt>
      <trkpt lat="43.62366" lon="6.84979">
        <ele>232</ele>
        <time>2017-10-14T07:54:06.000Z</time>
      </trkpt>
      <trkpt lat="43.62367" lon="6.84978">
        <ele>232</ele>
        <time>2017-10-14T07:54:07.000Z</time>
      </trkpt>
      <trkpt lat="43.62368" lon="6.84977">
        <ele>232</ele>
        <time>2017-10-14T07:54:08.000Z</time>
      </trkpt>
      <trkpt lat="43.62368" lon="6.84976">
        <ele>232</ele>
        <time>2017-10-14T07:54:09.000Z</time>
      </trkpt>
      <trkpt lat="43.62369" lon="6.84975">
        <ele>232</ele>
        <time>2017-10-14T07:54:10.000Z</time>
      </trkpt>
      <trkpt lat="43.6237" lon="6.84973">
        <ele>233</ele>
        <time>2017-10-14T07:54:11.000Z</time>
      </trkpt>
      <trkpt lat="43.6237" lon="6.84972">
        <ele>234</ele>
        <time>2017-10-14T07:54:12.000Z</time>
      </trkpt>
      <trkpt lat="43.62371" lon="6.84971">
        <ele>234</ele>
        <time>2017-10-14T07:54:13.000Z</time>
      </trkpt>
      <trkpt lat="43.62371" lon="6.84969">
        <ele>234</ele>
        <time>2017-10-14T07:54:14.000Z</time>
      </trkpt>
      <trkpt lat="43.62372" lon="6.84968">
        <ele>235</ele>
        <time>2017-10-14T07:54:15.000Z</time>
      </trkpt>
      <trkpt lat="43.62372" lon="6.84966">
        <ele>236</ele>
        <time>2017-10-14T07:54:16.000Z</time>
      </trkpt>
      <trkpt lat="43.62373" lon="6.84965">
        <ele>236</ele>
        <time>2017-10-14T07:54:17.000Z</time>
      </trkpt>
      <trkpt lat="43.62373" lon="6.84964">
        <ele>237</ele>
        <time>2017-10-14T07:54:18.000Z</time>
      </trkpt>
      <trkpt lat="43.62374" lon="6.84963">
        <ele>237</ele>
        <time>2017-10-14T07:54:19.000Z</time>
      </trkpt>
      <trkpt lat="43.62374" lon="6.84961">
        <ele>237</ele>
        <time>2017-10-14T07:54:20.000Z</time>
      </trkpt>
      <trkpt lat="43.62374" lon="6.8496">
        <ele>237</ele>
        <time>2017-10-14T07:54:21.000Z</time>
      </trkpt>
      <trkpt lat="43.62375" lon="6.84958">
        <ele>237</ele>
        <time>2017-10-14T07:54:22.000Z</time>
      </trkpt>
      <trkpt lat="43.62375" lon="6.84957">
        <ele>237</ele>
        <time>2017-10-14T07:54:23.000Z</time>
      </trkpt>
      <trkpt lat="43.62376" lon="6.84956">
        <ele>236</ele>
        <time>2017-10-14T07:54:24.000Z</time>
      </trkpt>
      <trkpt lat="43.62376" lon="6.84954">
        <ele>236</ele>
        <time>2017-10-14T07:54:25.000Z</time>
      </trkpt>
      <trkpt lat="43.62377" lon="6.84953">
        <ele>235</ele>
        <time>2017-10-14T07:54:26.000Z</time>
      </trkpt>
      <trkpt lat="43.62377" lon="6.84951">
        <ele>235</ele>
        <time>2017-10-14T07:54:27.000Z</time>
      </trkpt>
      <trkpt lat="43.62378" lon="6.8495">
        <ele>235</ele>
        <time>2017-10-14T07:54:28.000Z</time>
      </trkpt>
      <trkpt lat="43.62378" lon="6.84948">
        <ele>236</ele>
        <time>2017-10-14T07:54:29.000Z</time>
      </trkpt>
      <trkpt lat="43.62379" lon="6.84947">
        <ele>235</ele>
        <time>2017-10-14T07:54:30.000Z</time>
      </trkpt>
      <trkpt lat="43.62379" lon="6.84946">
        <ele>234</ele>
        <time>2017-10-14T07:54:31.000Z</time>
      </trkpt>
      <trkpt lat="43.62379" lon="6.84944">
        <ele>234</ele>
        <time>2017-10-14T07:54:32.000Z</time>
      </trkpt>
      <trkpt lat="43.6238" lon="6.84943">
        <ele>234</ele>
        <time>2017-10-14T07:54:33.000Z</time>
      </trkpt>
      <trkpt lat="43.6238" lon="6.84941">
        <ele>234</ele>
        <time>2017-10-14T07:54:34.000Z</time>
      </trkpt>
      <trkpt lat="43.6238" lon="6.8494">
        <ele>234</ele>
        <time>2017-10-14T07:54:35.000Z</time>
      </trkpt>
      <trkpt lat="43.62381" lon="6.84938">
        <ele>234</ele>
        <time>2017-10-14T07:54:36.000Z</time>
      </trkpt>
      <trkpt lat="43.62381" lon="6.84937">
        <ele>235</ele>
        <time>2017-10-14T07:54:37.000Z</time>
      </trkpt>
      <trkpt lat="43.62382" lon="6.84936">
        <ele>235</ele>
        <time>2017-10-14T07:54:38.000Z</time>
      </trkpt>
      <trkpt lat="43.62382" lon="6.84934">
        <ele>235</ele>
        <time>2017-10-14T07:54:39.000Z</time>
      </trkpt>
      <trkpt lat="43.62383" lon="6.84933">
        <ele>235</ele>
        <time>2017-10-14T07:54:40.000Z</time>
      </trkpt>
      <trkpt lat="43.62383" lon="6.84932">
        <ele>236</ele>
        <time>2017-10-14T07:54:41.000Z</time>
      </trkpt>
      <trkpt lat="43.62383" lon="6.8493">
        <ele>236</ele>
        <time>2017-10-14T07:54:42.000Z</time>
      </trkpt>
      <trkpt lat="43.62384" lon="6.84929">
        <ele>236</ele>
        <time>2017-10-14T07:54:43.000Z</time>
      </trkpt>
      <trkpt lat="43.62385" lon="6.84927">
        <ele>237</ele>
        <time>2017-10-14T07:54:44.000Z</time>
      </trkpt>
      <trkpt lat="43.62385" lon="6.84926">
        <ele>236</ele>
        <time>2017-10-14T07:54:45.000Z</time>
      </trkpt>
      <trkpt lat="43.62386" lon="6.84924">
        <ele>236</ele>
        <time>2017-10-14T07:54:46.000Z</time>
      </trkpt>
      <trkpt lat="43.62387" lon="6.84923">
        <ele>236</ele>
        <time>2017-10-14T07:54:47.000Z</time>
      </trkpt>
      <trkpt lat="43.62387" lon="6.84921">
        <ele>236</ele>
        <time>2017-10-14T07:54:48.000Z</time>
      </trkpt>
      <trkpt lat="43.62388" lon="6.8492">
        <ele>237</ele>
        <time>2017-10-14T07:54:49.000Z</time>
      </trkpt>
      <trkpt lat="43.62389" lon="6.84919">
        <ele>237</ele>
        <time>2017-10-14T07:54:50.000Z</time>
      </trkpt>
      <trkpt lat="43.62389" lon="6.84918">
        <ele>237</ele>
        <time>2017-10-14T07:54:51.000Z</time>
      </trkpt>
      <trkpt lat="43.6239" lon="6.84917">
        <ele>237</ele>
        <time>2017-10-14T07:54:52.000Z</time>
      </trkpt>
      <trkpt lat="43.62391" lon="6.84916">
        <ele>237</ele>
        <time>2017-10-14T07:54:53.000Z</time>
      </trkpt>
      <trkpt lat="43.62392" lon="6.84915">
        <ele>237</ele>
        <time>2017-10-14T07:54:54.000Z</time>
      </trkpt>
      <trkpt lat="43.62393" lon="6.84914">
        <ele>237</ele>
        <time>2017-10-14T07:54:55.000Z</time>
      </trkpt>
      <trkpt lat="43.62393" lon="6.84912">
        <ele>238</ele>
        <time>2017-10-14T07:54:56.000Z</time>
      </trkpt>
      <trkpt lat="43.62394" lon="6.84911">
        <ele>238</ele>
        <time>2017-10-14T07:54:57.000Z</time>
      </trkpt>
      <trkpt lat="43.62395" lon="6.8491">
        <ele>238</ele>
        <time>2017-10-14T07:54:58.000Z</time>
      </trkpt>
      <trkpt lat="43.62396" lon="6.84909">
        <ele>239</ele>
        <time>2017-10-14T07:54:59.000Z</time>
      </trkpt>
      <trkpt lat="43.62396" lon="6.84907">
        <ele>239</ele>
        <time>2017-10-14T07:55:00.000Z</time>
      </trkpt>
      <trkpt lat="43.62397" lon="6.84906">
        <ele>240</ele>
        <time>2017-10-14T07:55:01.000Z</time>
      </trkpt>
      <trkpt lat="43.62398" lon="6.84905">
        <ele>240</ele>
        <time>2017-10-14T07:55:02.000Z</time>
      </trkpt>
      <trkpt lat="43.62399" lon="6.84903">
        <ele>240</ele>
        <time>2017-10-14T07:55:03.000Z</time>
      </trkpt>
      <trkpt lat="43.62399" lon="6.84902">
        <ele>241</ele>
        <time>2017-10-14T07:55:04.000Z</time>
      </trkpt>
      <trkpt lat="43.624" lon="6.849">
        <ele>241</ele>
        <time>2017-10-14T07:55:05.000Z</time>
      </trkpt>
      <trkpt lat="43.624" lon="6.84899">
        <ele>241</ele>
        <time>2017-10-14T07:55:06.000Z</time>
      </trkpt>
      <trkpt lat="43.62401" lon="6.84898">
        <ele>241</ele>
        <time>2017-10-14T07:55:07.000Z</time>
      </trkpt>
      <trkpt lat="43.62402" lon="6.84897">
        <ele>241</ele>
        <time>2017-10-14T07:55:08.000Z</time>
      </trkpt>
      <trkpt lat="43.62403" lon="6.84895">
        <ele>241</ele>
        <time>2017-10-14T07:55:09.000Z</time>
      </trkpt>
      <trkpt lat="43.62403" lon="6.84894">
        <ele>242</ele>
        <time>2017-10-14T07:55:10.000Z</time>
      </trkpt>
      <trkpt lat="43.62404" lon="6.84893">
        <ele>242</ele>
        <time>2017-10-14T07:55:11.000Z</time>
      </trkpt>
      <trkpt lat="43.62405" lon="6.84892">
        <ele>242</ele>
        <time>2017-10-14T07:55:12.000Z</time>
      </trkpt>
      <trkpt lat="43.62406" lon="6.8489">
        <ele>242</ele>
        <time>2017-10-14T07:55:13.000Z</time>
      </trkpt>
      <trkpt lat="43.62406" lon="6.84889">
        <ele>243</ele>
        <time>2017-10-14T07:55:14.000Z</time>
      </trkpt>
      <trkpt lat="43.62407" lon="6.84889">
        <ele>243</ele>
        <time>2017-10-14T07:55:15.000Z</time>
      </trkpt>
      <trkpt lat="43.62408" lon="6.84888">
        <ele>243</ele>
        <time>2017-10-14T07:55:16.000Z</time>
      </trkpt>
      <trkpt lat="43.62409" lon="6.84887">
        <ele>243</ele>
        <time>2017-10-14T07:55:17.000Z</time>
      </trkpt>
      <trkpt lat="43.6241" lon="6.84886">
        <ele>243</ele>
        <time>2017-10-14T07:55:18.000Z</time>
      </trkpt>
      <trkpt lat="43.62411" lon="6.84885">
        <ele>243</ele>
        <time>2017-10-14T07:55:19.000Z</time>
      </trkpt>
      <trkpt lat="43.62412" lon="6.84884">
        <ele>243</ele>
        <time>2017-10-14T07:55:20.000Z</time>
      </trkpt>
      <trkpt lat="43.62413" lon="6.84883">
        <ele>244</ele>
        <time>2017-10-14T07:55:21.000Z</time>
      </trkpt>
      <trkpt lat="43.62414" lon="6.84882">
        <ele>243</ele>
        <time>2017-10-14T07:55:22.000Z</time>
      </trkpt>
      <trkpt lat="43.62415" lon="6.84881">
        <ele>243</ele>
        <time>2017-10-14T07:55:23.000Z</time>
      </trkpt>
      <trkpt lat="43.62416" lon="6.8488">
        <ele>244</ele>
        <time>2017-10-14T07:55:24.000Z</time>
      </trkpt>
      <trkpt lat="43.62417" lon="6.84878">
        <ele>244</ele>
        <time>2017-10-14T07:55:25.000Z</time>
      </trkpt>
      <trkpt lat="43.62418" lon="6.84877">
        <ele>244</ele>
        <time>2017-10-14T07:55:26.000Z</time>
      </trkpt>
      <trkpt lat="43.62419" lon="6.84876">
        <ele>244</ele>
        <time>2017-10-14T07:55:27.000Z</time>
      </trkpt>
      <trkpt lat="43.6242" lon="6.84875">
        <ele>244</ele>
        <time>2017-10-14T07:55:28.000Z</time>
      </trkpt>
      <trkpt lat="43.62421" lon="6.84873">
        <ele>245</ele>
        <time>2017-10-14T07:55:29.000Z</time>
      </trkpt>
      <trkpt lat="43.62422" lon="6.84872">
        <ele>245</ele>
        <time>2017-10-14T07:55:30.000Z</time>
      </trkpt>
      <trkpt lat="43.62424" lon="6.8487">
        <ele>245</ele>
        <time>2017-10-14T07:55:31.000Z</time>
      </trkpt>
      <trkpt lat="43.62425" lon="6.84869">
        <ele>245</ele>
        <time>2017-10-14T07:55:32.000Z</time>
      </trkpt>
      <trkpt lat="43.62426" lon="6.84867">
        <ele>245</ele>
        <time>2017-10-14T07:55:33.000Z</time>
      </trkpt>
      <trkpt lat="43.62427" lon="6.84865">
        <ele>245</ele>
        <time>2017-10-14T07:55:34.000Z</time>
      </trkpt>
      <trkpt lat="43.62428" lon="6.84864">
        <ele>245</ele>
        <time>2017-10-14T07:55:35.000Z</time>
      </trkpt>
      <trkpt lat="43.62429" lon="6.84862">
        <ele>246</ele>
        <time>2017-10-14T07:55:36.000Z</time>
      </trkpt>
      <trkpt lat="43.62431" lon="6.8486">
        <ele>245</ele>
        <time>2017-10-14T07:55:37.000Z</time>
      </trkpt>
      <trkpt lat="43.62432" lon="6.84859">
        <ele>246</ele>
        <time>2017-10-14T07:55:38.000Z</time>
      </trkpt>
      <trkpt lat="43.62433" lon="6.84857">
        <ele>246</ele>
        <time>2017-10-14T07:55:39.000Z</time>
      </trkpt>
      <trkpt lat="43.62434" lon="6.84855">
        <ele>246</ele>
        <time>2017-10-14T07:55:40.000Z</time>
      </trkpt>
      <trkpt lat="43.62436" lon="6.84854">
        <ele>246</ele>
        <time>2017-10-14T07:55:41.000Z</time>
      </trkpt>
      <trkpt lat="43.62438" lon="6.84852">
        <ele>246</ele>
        <time>2017-10-14T07:55:42.000Z</time>
      </trkpt>
      <trkpt lat="43.62439" lon="6.84851">
        <ele>246</ele>
        <time>2017-10-14T07:55:43.000Z</time>
      </trkpt>
      <trkpt lat="43.62441" lon="6.8485">
        <ele>247</ele>
        <time>2017-10-14T07:55:44.000Z</time>
      </trkpt>
      <trkpt lat="43.62443" lon="6.84848">
        <ele>247</ele>
        <time>2017-10-14T07:55:45.000Z</time>
      </trkpt>
      <trkpt lat="43.62444" lon="6.84847">
        <ele>246</ele>
        <time>2017-10-14T07:55:46.000Z</time>
      </trkpt>
      <trkpt lat="43.62446" lon="6.84845">
        <ele>246</ele>
        <time>2017-10-14T07:55:47.000Z</time>
      </trkpt>
      <trkpt lat="43.62447" lon="6.84843">
        <ele>245</ele>
        <time>2017-10-14T07:55:48.000Z</time>
      </trkpt>
      <trkpt lat="43.62448" lon="6.84841">
        <ele>245</ele>
        <time>2017-10-14T07:55:49.000Z</time>
      </trkpt>
      <trkpt lat="43.62449" lon="6.84838">
        <ele>245</ele>
        <time>2017-10-14T07:55:50.000Z</time>
      </trkpt>
      <trkpt lat="43.6245" lon="6.84836">
        <ele>245</ele>
        <time>2017-10-14T07:55:51.000Z</time>
      </trkpt>
      <trkpt lat="43.62451" lon="6.84833">
        <ele>245</ele>
        <time>2017-10-14T07:55:52.000Z</time>
      </trkpt>
      <trkpt lat="43.62453" lon="6.84831">
        <ele>245</ele>
        <time>2017-10-14T07:55:53.000Z</time>
      </trkpt>
      <trkpt lat="43.62454" lon="6.84829">
        <ele>245</ele>
        <time>2017-10-14T07:55:54.000Z</time>
      </trkpt>
      <trkpt lat="43.62455" lon="6.84827">
        <ele>245</ele>
        <time>2017-10-14T07:55:55.000Z</time>
      </trkpt>
      <trkpt lat="43.62456" lon="6.84824">
        <ele>244</ele>
        <time>2017-10-14T07:55:56.000Z</time>
      </trkpt>
      <trkpt lat="43.62457" lon="6.84822">
        <ele>244</ele>
        <time>2017-10-14T07:55:57.000Z</time>
      </trkpt>
      <trkpt lat="43.62458" lon="6.8482">
        <ele>244</ele>
        <time>2017-10-14T07:55:58.000Z</time>
      </trkpt>
      <trkpt lat="43.6246" lon="6.84818">
        <ele>244</ele>
        <time>2017-10-14T07:55:59.000Z</time>
      </trkpt>
      <trkpt lat="43.62461" lon="6.84816">
        <ele>244</ele>
        <time>2017-10-14T07:56:00.000Z</time>
      </trkpt>
      <trkpt lat="43.62462" lon="6.84814">
        <ele>244</ele>
        <time>2017-10-14T07:56:01.000Z</time>
      </trkpt>
      <trkpt lat="43.62463" lon="6.84811">
        <ele>244</ele>
        <time>2017-10-14T07:56:02.000Z</time>
      </trkpt>
      <trkpt lat="43.62465" lon="6.84809">
        <ele>244</ele>
        <time>2017-10-14T07:56:03.000Z</time>
      </trkpt>
      <trkpt lat="43.62466" lon="6.84807">
        <ele>245</ele>
        <time>2017-10-14T07:56:04.000Z</time>
      </trkpt>
      <trkpt lat="43.62467" lon="6.84804">
        <ele>245</ele>
        <time>2017-10-14T07:56:05.000Z</time>
      </trkpt>
      <trkpt lat="43.62468" lon="6.84802">
        <ele>244</ele>
        <time>2017-10-14T07:56:06.000Z</time>
      </trkpt>
      <trkpt lat="43.62469" lon="6.848">
        <ele>244</ele>
        <time>2017-10-14T07:56:07.000Z</time>
      </trkpt>
      <trkpt lat="43.62471" lon="6.84798">
        <ele>244</ele>
        <time>2017-10-14T07:56:08.000Z</time>
      </trkpt>
      <trkpt lat="43.62472" lon="6.84796">
        <ele>244</ele>
        <time>2017-10-14T07:56:09.000Z</time>
      </trkpt>
      <trkpt lat="43.62473" lon="6.84793">
        <ele>244</ele>
        <time>2017-10-14T07:56:10.000Z</time>
      </trkpt>
      <trkpt lat="43.62474" lon="6.84791">
        <ele>244</ele>
        <time>2017-10-14T07:56:11.000Z</time>
      </trkpt>
      <trkpt lat="43.62476" lon="6.84789">
        <ele>244</ele>
        <time>2017-10-14T07:56:12.000Z</time>
      </trkpt>
      <trkpt lat="43.62478" lon="6.84787">
        <ele>244</ele>
        <time>2017-10-14T07:56:13.000Z</time>
      </trkpt>
      <trkpt lat="43.62479" lon="6.84785">
        <ele>245</ele>
        <time>2017-10-14T07:56:14.000Z</time>
      </trkpt>
      <trkpt lat="43.62481" lon="6.84783">
        <ele>245</ele>
        <time>2017-10-14T07:56:15.000Z</time>
      </trkpt>
      <trkpt lat="43.62483" lon="6.84782">
        <ele>246</ele>
        <time>2017-10-14T07:56:16.000Z</time>
      </trkpt>
      <trkpt lat="43.62484" lon="6.8478">
        <ele>246</ele>
        <time>2017-10-14T07:56:17.000Z</time>
      </trkpt>
      <trkpt lat="43.62486" lon="6.84778">
        <ele>245</ele>
        <time>2017-10-14T07:56:18.000Z</time>
      </trkpt>
      <trkpt lat="43.62487" lon="6.84775">
        <ele>246</ele>
        <time>2017-10-14T07:56:19.000Z</time>
      </trkpt>
      <trkpt lat="43.62487" lon="6.84773">
        <ele>245</ele>
        <time>2017-10-14T07:56:20.000Z</time>
      </trkpt>
      <trkpt lat="43.62488" lon="6.8477">
        <ele>246</ele>
        <time>2017-10-14T07:56:21.000Z</time>
      </trkpt>
      <trkpt lat="43.62489" lon="6.84767">
        <ele>246</ele>
        <time>2017-10-14T07:56:22.000Z</time>
      </trkpt>
      <trkpt lat="43.6249" lon="6.84764">
        <ele>246</ele>
        <time>2017-10-14T07:56:23.000Z</time>
      </trkpt>
      <trkpt lat="43.62491" lon="6.84762">
        <ele>246</ele>
        <time>2017-10-14T07:56:24.000Z</time>
      </trkpt>
      <trkpt lat="43.62492" lon="6.84759">
        <ele>246</ele>
        <time>2017-10-14T07:56:25.000Z</time>
      </trkpt>
      <trkpt lat="43.62493" lon="6.84757">
        <ele>246</ele>
        <time>2017-10-14T07:56:26.000Z</time>
      </trkpt>
      <trkpt lat="43.62493" lon="6.84754">
        <ele>246</ele>
        <time>2017-10-14T07:56:27.000Z</time>
      </trkpt>
      <trkpt lat="43.62494" lon="6.84752">
        <ele>245</ele>
        <time>2017-10-14T07:56:28.000Z</time>
      </trkpt>
      <trkpt lat="43.62495" lon="6.84749">
        <ele>246</ele>
        <time>2017-10-14T07:56:29.000Z</time>
      </trkpt>
      <trkpt lat="43.62496" lon="6.84746">
        <ele>246</ele>
        <time>2017-10-14T07:56:30.000Z</time>
      </trkpt>
      <trkpt lat="43.62497" lon="6.84744">
        <ele>245</ele>
        <time>2017-10-14T07:56:31.000Z</time>
      </trkpt>
      <trkpt lat="43.62497" lon="6.84741">
        <ele>246</ele>
        <time>2017-10-14T07:56:32.000Z</time>
      </trkpt>
      <trkpt lat="43.62498" lon="6.84738">
        <ele>246</ele>
        <time>2017-10-14T07:56:33.000Z</time>
      </trkpt>
      <trkpt lat="43.62498" lon="6.84735">
        <ele>246</ele>
        <time>2017-10-14T07:56:34.000Z</time>
      </trkpt>
      <trkpt lat="43.62499" lon="6.84732">
        <ele>246</ele>
        <time>2017-10-14T07:56:35.000Z</time>
      </trkpt>
      <trkpt lat="43.625" lon="6.8473">
        <ele>246</ele>
        <time>2017-10-14T07:56:36.000Z</time>
      </trkpt>
      <trkpt lat="43.62501" lon="6.84728">
        <ele>247</ele>
        <time>2017-10-14T07:56:37.000Z</time>
      </trkpt>
      <trkpt lat="43.62502" lon="6.84725">
        <ele>247</ele>
        <time>2017-10-14T07:56:38.000Z</time>
      </trkpt>
      <trkpt lat="43.62504" lon="6.84723">
        <ele>247</ele>
        <time>2017-10-14T07:56:39.000Z</time>
      </trkpt>
      <trkpt lat="43.62505" lon="6.84721">
        <ele>247</ele>
        <time>2017-10-14T07:56:40.000Z</time>
      </trkpt>
      <trkpt lat="43.62506" lon="6.84718">
        <ele>247</ele>
        <time>2017-10-14T07:56:41.000Z</time>
      </trkpt>
      <trkpt lat="43.62508" lon="6.84716">
        <ele>247</ele>
        <time>2017-10-14T07:56:42.000Z</time>
      </trkpt>
      <trkpt lat="43.62509" lon="6.84714">
        <ele>248</ele>
        <time>2017-10-14T07:56:43.000Z</time>
      </trkpt>
      <trkpt lat="43.6251" lon="6.84712">
        <ele>248</ele>
        <time>2017-10-14T07:56:44.000Z</time>
      </trkpt>
      <trkpt lat="43.62512" lon="6.8471">
        <ele>249</ele>
        <time>2017-10-14T07:56:45.000Z</time>
      </trkpt>
      <trkpt lat="43.62513" lon="6.84708">
        <ele>249</ele>
        <time>2017-10-14T07:56:46.000Z</time>
      </trkpt>
      <trkpt lat="43.62515" lon="6.84706">
        <ele>249</ele>
        <time>2017-10-14T07:56:47.000Z</time>
      </trkpt>
      <trkpt lat="43.62516" lon="6.84704">
        <ele>249</ele>
        <time>2017-10-14T07:56:48.000Z</time>
      </trkpt>
      <trkpt lat="43.62517" lon="6.84702">
        <ele>249</ele>
        <time>2017-10-14T07:56:49.000Z</time>
      </trkpt>
      <trkpt lat="43.62519" lon="6.84701">
        <ele>250</ele>
        <time>2017-10-14T07:56:50.000Z</time>
      </trkpt>
      <trkpt lat="43.6252" lon="6.84698">
        <ele>250</ele>
        <time>2017-10-14T07:56:51.000Z</time>
      </trkpt>
      <trkpt lat="43.62521" lon="6.84696">
        <ele>250</ele>
        <time>2017-10-14T07:56:52.000Z</time>
      </trkpt>
      <trkpt lat="43.62523" lon="6.84693">
        <ele>249</ele>
        <time>2017-10-14T07:56:53.000Z</time>
      </trkpt>
      <trkpt lat="43.62524" lon="6.8469">
        <ele>249</ele>
        <time>2017-10-14T07:56:54.000Z</time>
      </trkpt>
      <trkpt lat="43.62525" lon="6.84688">
        <ele>249</ele>
        <time>2017-10-14T07:56:55.000Z</time>
      </trkpt>
      <trkpt lat="43.62527" lon="6.84686">
        <ele>249</ele>
        <time>2017-10-14T07:56:56.000Z</time>
      </trkpt>
      <trkpt lat="43.62528" lon="6.84684">
        <ele>249</ele>
        <time>2017-10-14T07:56:57.000Z</time>
      </trkpt>
      <trkpt lat="43.6253" lon="6.84682">
        <ele>250</ele>
        <time>2017-10-14T07:56:58.000Z</time>
      </trkpt>
      <trkpt lat="43.62531" lon="6.84679">
        <ele>251</ele>
        <time>2017-10-14T07:56:59.000Z</time>
      </trkpt>
      <trkpt lat="43.62533" lon="6.84677">
        <ele>251</ele>
        <time>2017-10-14T07:57:00.000Z</time>
      </trkpt>
      <trkpt lat="43.62534" lon="6.84675">
        <ele>251</ele>
        <time>2017-10-14T07:57:01.000Z</time>
      </trkpt>
      <trkpt lat="43.62536" lon="6.84673">
        <ele>252</ele>
        <time>2017-10-14T07:57:02.000Z</time>
      </trkpt>
      <trkpt lat="43.62538" lon="6.84672">
        <ele>252</ele>
        <time>2017-10-14T07:57:03.000Z</time>
      </trkpt>
      <trkpt lat="43.6254" lon="6.8467">
        <ele>252</ele>
        <time>2017-10-14T07:57:04.000Z</time>
      </trkpt>
      <trkpt lat="43.62542" lon="6.84669">
        <ele>253</ele>
        <time>2017-10-14T07:57:05.000Z</time>
      </trkpt>
      <trkpt lat="43.62544" lon="6.84667">
        <ele>252</ele>
        <time>2017-10-14T07:57:06.000Z</time>
      </trkpt>
      <trkpt lat="43.62545" lon="6.84666">
        <ele>253</ele>
        <time>2017-10-14T07:57:07.000Z</time>
      </trkpt>
      <trkpt lat="43.62547" lon="6.84664">
        <ele>253</ele>
        <time>2017-10-14T07:57:08.000Z</time>
      </trkpt>
      <trkpt lat="43.62549" lon="6.84662">
        <ele>253</ele>
        <time>2017-10-14T07:57:09.000Z</time>
      </trkpt>
      <trkpt lat="43.62551" lon="6.84661">
        <ele>253</ele>
        <time>2017-10-14T07:57:10.000Z</time>
      </trkpt>
      <trkpt lat="43.62553" lon="6.84659">
        <ele>252</ele>
        <time>2017-10-14T07:57:11.000Z</time>
      </trkpt>
      <trkpt lat="43.62554" lon="6.84658">
        <ele>252</ele>
        <time>2017-10-14T07:57:12.000Z</time>
      </trkpt>
      <trkpt lat="43.62556" lon="6.84656">
        <ele>252</ele>
        <time>2017-10-14T07:57:13.000Z</time>
      </trkpt>
      <trkpt lat="43.62558" lon="6.84655">
        <ele>252</ele>
        <time>2017-10-14T07:57:14.000Z</time>
      </trkpt>
      <trkpt lat="43.6256" lon="6.84653">
        <ele>252</ele>
        <time>2017-10-14T07:57:15.000Z</time>
      </trkpt>
      <trkpt lat="43.62562" lon="6.84652">
        <ele>252</ele>
        <time>2017-10-14T07:57:16.000Z</time>
      </trkpt>
      <trkpt lat="43.62564" lon="6.8465">
        <ele>251</ele>
        <time>2017-10-14T07:57:17.000Z</time>
      </trkpt>
      <trkpt lat="43.62566" lon="6.84649">
        <ele>251</ele>
        <time>2017-10-14T07:57:18.000Z</time>
      </trkpt>
      <trkpt lat="43.62568" lon="6.84648">
        <ele>251</ele>
        <time>2017-10-14T07:57:19.000Z</time>
      </trkpt>
      <trkpt lat="43.62569" lon="6.84646">
        <ele>251</ele>
        <time>2017-10-14T07:57:20.000Z</time>
      </trkpt>
      <trkpt lat="43.62571" lon="6.84645">
        <ele>251</ele>
        <time>2017-10-14T07:57:21.000Z</time>
      </trkpt>
      <trkpt lat="43.62573" lon="6.84643">
        <ele>252</ele>
        <time>2017-10-14T07:57:22.000Z</time>
      </trkpt>
      <trkpt lat="43.62576" lon="6.84642">
        <ele>252</ele>
        <time>2017-10-14T07:57:23.000Z</time>
      </trkpt>
      <trkpt lat="43.62577" lon="6.84641">
        <ele>253</ele>
        <time>2017-10-14T07:57:24.000Z</time>
      </trkpt>
      <trkpt lat="43.6258" lon="6.84639">
        <ele>252</ele>
        <time>2017-10-14T07:57:25.000Z</time>
      </trkpt>
      <trkpt lat="43.62582" lon="6.84638">
        <ele>251</ele>
        <time>2017-10-14T07:57:26.000Z</time>
      </trkpt>
      <trkpt lat="43.62584" lon="6.84636">
        <ele>251</ele>
        <time>2017-10-14T07:57:27.000Z</time>
      </trkpt>
      <trkpt lat="43.62586" lon="6.84635">
        <ele>250</ele>
        <time>2017-10-14T07:57:28.000Z</time>
      </trkpt>
      <trkpt lat="43.62588" lon="6.84633">
        <ele>250</ele>
        <time>2017-10-14T07:57:29.000Z</time>
      </trkpt>
      <trkpt lat="43.62591" lon="6.84632">
        <ele>250</ele>
        <time>2017-10-14T07:57:30.000Z</time>
      </trkpt>
      <trkpt lat="43.62593" lon="6.84631">
        <ele>249</ele>
        <time>2017-10-14T07:57:31.000Z</time>
      </trkpt>
      <trkpt lat="43.62596" lon="6.8463">
        <ele>249</ele>
        <time>2017-10-14T07:57:32.000Z</time>
      </trkpt>
      <trkpt lat="43.62598" lon="6.84629">
        <ele>248</ele>
        <time>2017-10-14T07:57:33.000Z</time>
      </trkpt>
      <trkpt lat="43.626" lon="6.84628">
        <ele>248</ele>
        <time>2017-10-14T07:57:34.000Z</time>
      </trkpt>
      <trkpt lat="43.62602" lon="6.84627">
        <ele>247</ele>
        <time>2017-10-14T07:57:35.000Z</time>
      </trkpt>
      <trkpt lat="43.62605" lon="6.84626">
        <ele>247</ele>
        <time>2017-10-14T07:57:36.000Z</time>
      </trkpt>
      <trkpt lat="43.62607" lon="6.84625">
        <ele>247</ele>
        <time>2017-10-14T07:57:37.000Z</time>
      </trkpt>
      <trkpt lat="43.62609" lon="6.84624">
        <ele>246</ele>
        <time>2017-10-14T07:57:38.000Z</time>
      </trkpt>
      <trkpt lat="43.62612" lon="6.84624">
        <ele>246</ele>
        <time>2017-10-14T07:57:39.000Z</time>
      </trkpt>
      <trkpt lat="43.62614" lon="6.84624">
        <ele>246</ele>
        <time>2017-10-14T07:57:40.000Z</time>
      </trkpt>
      <trkpt lat="43.62617" lon="6.84624">
        <ele>246</ele>
        <time>2017-10-14T07:57:41.000Z</time>
      </trkpt>
      <trkpt lat="43.62619" lon="6.84623">
        <ele>246</ele>
        <time>2017-10-14T07:57:42.000Z</time>
      </trkpt>
      <trkpt lat="43.62621" lon="6.84622">
        <ele>246</ele>
        <time>2017-10-14T07:57:43.000Z</time>
      </trkpt>
      <trkpt lat="43.62622" lon="6.84621">
        <ele>247</ele>
        <time>2017-10-14T07:57:44.000Z</time>
      </trkpt>
      <trkpt lat="43.62624" lon="6.8462">
        <ele>248</ele>
        <time>2017-10-14T07:57:45.000Z</time>
      </trkpt>
      <trkpt lat="43.62626" lon="6.84617">
        <ele>249</ele>
        <time>2017-10-14T07:57:46.000Z</time>
      </trkpt>
      <trkpt lat="43.62628" lon="6.84615">
        <ele>250</ele>
        <time>2017-10-14T07:57:47.000Z</time>
      </trkpt>
      <trkpt lat="43.6263" lon="6.84613">
        <ele>251</ele>
        <time>2017-10-14T07:57:48.000Z</time>
      </trkpt>
      <trkpt lat="43.62632" lon="6.84611">
        <ele>251</ele>
        <time>2017-10-14T07:57:49.000Z</time>
      </trkpt>
      <trkpt lat="43.62633" lon="6.8461">
        <ele>252</ele>
        <time>2017-10-14T07:57:50.000Z</time>
      </trkpt>
      <trkpt lat="43.62635" lon="6.84609">
        <ele>253</ele>
        <time>2017-10-14T07:57:51.000Z</time>
      </trkpt>
      <trkpt lat="43.62638" lon="6.84608">
        <ele>254</ele>
        <time>2017-10-14T07:57:52.000Z</time>
      </trkpt>
      <trkpt lat="43.6264" lon="6.84608">
        <ele>255</ele>
        <time>2017-10-14T07:57:53.000Z</time>
      </trkpt>
      <trkpt lat="43.62642" lon="6.84609">
        <ele>258</ele>
        <time>2017-10-14T07:57:54.000Z</time>
      </trkpt>
      <trkpt lat="43.62644" lon="6.84609">
        <ele>260</ele>
        <time>2017-10-14T07:57:55.000Z</time>
      </trkpt>
      <trkpt lat="43.62647" lon="6.8461">
        <ele>261</ele>
        <time>2017-10-14T07:57:56.000Z</time>
      </trkpt>
      <trkpt lat="43.62649" lon="6.84609">
        <ele>262</ele>
        <time>2017-10-14T07:57:57.000Z</time>
      </trkpt>
      <trkpt lat="43.62652" lon="6.84609">
        <ele>264</ele>
        <time>2017-10-14T07:57:58.000Z</time>
      </trkpt>
      <trkpt lat="43.62654" lon="6.84608">
        <ele>263</ele>
        <time>2017-10-14T07:57:59.000Z</time>
      </trkpt>
      <trkpt lat="43.62656" lon="6.84608">
        <ele>263</ele>
        <time>2017-10-14T07:58:00.000Z</time>
      </trkpt>
      <trkpt lat="43.62658" lon="6.84609">
        <ele>262</ele>
        <time>2017-10-14T07:58:01.000Z</time>
      </trkpt>
      <trkpt lat="43.62661" lon="6.8461">
        <ele>262</ele>
        <time>2017-10-14T07:58:02.000Z</time>
      </trkpt>
      <trkpt lat="43.62664" lon="6.84611">
        <ele>262</ele>
        <time>2017-10-14T07:58:03.000Z</time>
      </trkpt>
      <trkpt lat="43.62667" lon="6.84613">
        <ele>263</ele>
        <time>2017-10-14T07:58:04.000Z</time>
      </trkpt>
      <trkpt lat="43.62669" lon="6.84614">
        <ele>263</ele>
        <time>2017-10-14T07:58:05.000Z</time>
      </trkpt>
      <trkpt lat="43.62672" lon="6.84615">
        <ele>261</ele>
        <time>2017-10-14T07:58:06.000Z</time>
      </trkpt>
      <trkpt lat="43.62674" lon="6.84617">
        <ele>260</ele>
        <time>2017-10-14T07:58:07.000Z</time>
      </trkpt>
      <trkpt lat="43.62677" lon="6.84618">
        <ele>257</ele>
        <time>2017-10-14T07:58:08.000Z</time>
      </trkpt>
      <trkpt lat="43.6268" lon="6.84619">
        <ele>255</ele>
        <time>2017-10-14T07:58:09.000Z</time>
      </trkpt>
      <trkpt lat="43.62683" lon="6.8462">
        <ele>254</ele>
        <time>2017-10-14T07:58:10.000Z</time>
      </trkpt>
      <trkpt lat="43.62686" lon="6.84621">
        <ele>253</ele>
        <time>2017-10-14T07:58:11.000Z</time>
      </trkpt>
      <trkpt lat="43.62689" lon="6.84621">
        <ele>253</ele>
        <time>2017-10-14T07:58:12.000Z</time>
      </trkpt>
      <trkpt lat="43.62691" lon="6.84622">
        <ele>253</ele>
        <time>2017-10-14T07:58:13.000Z</time>
      </trkpt>
      <trkpt lat="43.62693" lon="6.84622">
        <ele>253</ele>
        <time>2017-10-14T07:58:14.000Z</time>
      </trkpt>
      <trkpt lat="43.62696" lon="6.84622">
        <ele>253</ele>
        <time>2017-10-14T07:58:15.000Z</time>
      </trkpt>
      <trkpt lat="43.62698" lon="6.84622">
        <ele>253</ele>
        <time>2017-10-14T07:58:16.000Z</time>
      </trkpt>
      <trkpt lat="43.62701" lon="6.84622">
        <ele>253</ele>
        <time>2017-10-14T07:58:17.000Z</time>
      </trkpt>
      <trkpt lat="43.62703" lon="6.84621">
        <ele>254</ele>
        <time>2017-10-14T07:58:18.000Z</time>
      </trkpt>
      <trkpt lat="43.62706" lon="6.84621">
        <ele>254</ele>
        <time>2017-10-14T07:58:19.000Z</time>
      </trkpt>
      <trkpt lat="43.62708" lon="6.8462">
        <ele>254</ele>
        <time>2017-10-14T07:58:20.000Z</time>
      </trkpt>
      <trkpt lat="43.6271" lon="6.84619">
        <ele>254</ele>
        <time>2017-10-14T07:58:21.000Z</time>
      </trkpt>
      <trkpt lat="43.62713" lon="6.84618">
        <ele>254</ele>
        <time>2017-10-14T07:58:22.000Z</time>
      </trkpt>
      <trkpt lat="43.62715" lon="6.84616">
        <ele>253</ele>
        <time>2017-10-14T07:58:23.000Z</time>
      </trkpt>
      <trkpt lat="43.62717" lon="6.84615">
        <ele>253</ele>
        <time>2017-10-14T07:58:24.000Z</time>
      </trkpt>
      <trkpt lat="43.6272" lon="6.84613">
        <ele>253</ele>
        <time>2017-10-14T07:58:25.000Z</time>
      </trkpt>
      <trkpt lat="43.62723" lon="6.84613">
        <ele>253</ele>
        <time>2017-10-14T07:58:26.000Z</time>
      </trkpt>
      <trkpt lat="43.62725" lon="6.84612">
        <ele>253</ele>
        <time>2017-10-14T07:58:27.000Z</time>
      </trkpt>
      <trkpt lat="43.62727" lon="6.84611">
        <ele>254</ele>
        <time>2017-10-14T07:58:28.000Z</time>
      </trkpt>
      <trkpt lat="43.62729" lon="6.84609">
        <ele>255</ele>
        <time>2017-10-14T07:58:29.000Z</time>
      </trkpt>
      <trkpt lat="43.62731" lon="6.84607">
        <ele>255</ele>
        <time>2017-10-14T07:58:30.000Z</time>
      </trkpt>
      <trkpt lat="43.62733" lon="6.84606">
        <ele>256</ele>
        <time>2017-10-14T07:58:31.000Z</time>
      </trkpt>
      <trkpt lat="43.62735" lon="6.84604">
        <ele>256</ele>
        <time>2017-10-14T07:58:32.000Z</time>
      </trkpt>
      <trkpt lat="43.62737" lon="6.84603">
        <ele>256</ele>
        <time>2017-10-14T07:58:33.000Z</time>
      </trkpt>
      <trkpt lat="43.62739" lon="6.84602">
        <ele>256</ele>
        <time>2017-10-14T07:58:34.000Z</time>
      </trkpt>
      <trkpt lat="43.62741" lon="6.84602">
        <ele>256</ele>
        <time>2017-10-14T07:58:35.000Z</time>
      </trkpt>
      <trkpt lat="43.62743" lon="6.84603">
        <ele>256</ele>
        <time>2017-10-14T07:58:36.000Z</time>
      </trkpt>
      <trkpt lat="43.62745" lon="6.84603">
        <ele>255</ele>
        <time>2017-10-14T07:58:37.000Z</time>
      </trkpt>
      <trkpt lat="43.62747" lon="6.84603">
        <ele>256</ele>
        <time>2017-10-14T07:58:38.000Z</time>
      </trkpt>
      <trkpt lat="43.62749" lon="6.84604">
        <ele>255</ele>
        <time>2017-10-14T07:58:39.000Z</time>
      </trkpt>
      <trkpt lat="43.62752" lon="6.84604">
        <ele>255</ele>
        <time>2017-10-14T07:58:40.000Z</time>
      </trkpt>
      <trkpt lat="43.62754" lon="6.84605">
        <ele>254</ele>
        <time>2017-10-14T07:58:41.000Z</time>
      </trkpt>
      <trkpt lat="43.62756" lon="6.84606">
        <ele>254</ele>
        <time>2017-10-14T07:58:42.000Z</time>
      </trkpt>
      <trkpt lat="43.62758" lon="6.84607">
        <ele>255</ele>
        <time>2017-10-14T07:58:43.000Z</time>
      </trkpt>
      <trkpt lat="43.62761" lon="6.84608">
        <ele>254</ele>
        <time>2017-10-14T07:58:44.000Z</time>
      </trkpt>
      <trkpt lat="43.62764" lon="6.84609">
        <ele>253</ele>
        <time>2017-10-14T07:58:45.000Z</time>
      </trkpt>
      <trkpt lat="43.62766" lon="6.8461">
        <ele>252</ele>
        <time>2017-10-14T07:58:46.000Z</time>
      </trkpt>
      <trkpt lat="43.62768" lon="6.84612">
        <ele>251</ele>
        <time>2017-10-14T07:58:47.000Z</time>
      </trkpt>
      <trkpt lat="43.62771" lon="6.84613">
        <ele>251</ele>
        <time>2017-10-14T07:58:48.000Z</time>
      </trkpt>
      <trkpt lat="43.62773" lon="6.84614">
        <ele>251</ele>
        <time>2017-10-14T07:58:49.000Z</time>
      </trkpt>
      <trkpt lat="43.62775" lon="6.84615">
        <ele>250</ele>
        <time>2017-10-14T07:58:50.000Z</time>
      </trkpt>
      <trkpt lat="43.62778" lon="6.84616">
        <ele>250</ele>
        <time>2017-10-14T07:58:51.000Z</time>
      </trkpt>
      <trkpt lat="43.6278" lon="6.84617">
        <ele>249</ele>
        <time>2017-10-14T07:58:52.000Z</time>
      </trkpt>
      <trkpt lat="43.62782" lon="6.84617">
        <ele>249</ele>
        <time>2017-10-14T07:58:53.000Z</time>
      </trkpt>
      <trkpt lat="43.62785" lon="6.84618">
        <ele>249</ele>
        <time>2017-10-14T07:58:54.000Z</time>
      </trkpt>
      <trkpt lat="43.62787" lon="6.84618">
        <ele>249</ele>
        <time>2017-10-14T07:58:55.000Z</time>
      </trkpt>
      <trkpt lat="43.62789" lon="6.84617">
        <ele>249</ele>
        <time>2017-10-14T07:58:56.000Z</time>
      </trkpt>
      <trkpt lat="43.6279" lon="6.84616">
        <ele>249</ele>
        <time>2017-10-14T07:58:57.000Z</time>
      </trkpt>
      <trkpt lat="43.6279" lon="6.84615">
        <ele>250</ele>
        <time>2017-10-14T07:58:58.000Z</time>
      </trkpt>
      <trkpt lat="43.6279" lon="6.84613">
        <ele>250</ele>
        <time>2017-10-14T07:58:59.000Z</time>
      </trkpt>
      <trkpt lat="43.62789" lon="6.84611">
        <ele>249</ele>
        <time>2017-10-14T07:59:00.000Z</time>
      </trkpt>
      <trkpt lat="43.62788" lon="6.8461">
        <ele>250</ele>
        <time>2017-10-14T07:59:01.000Z</time>
      </trkpt>
      <trkpt lat="43.62786" lon="6.84608">
        <ele>251</ele>
        <time>2017-10-14T07:59:02.000Z</time>
      </trkpt>
      <trkpt lat="43.62785" lon="6.84607">
        <ele>251</ele>
        <time>2017-10-14T07:59:03.000Z</time>
      </trkpt>
      <trkpt lat="43.62784" lon="6.84605">
        <ele>251</ele>
        <time>2017-10-14T07:59:04.000Z</time>
      </trkpt>
      <trkpt lat="43.62783" lon="6.84604">
        <ele>252</ele>
        <time>2017-10-14T07:59:05.000Z</time>
      </trkpt>
      <trkpt lat="43.62781" lon="6.84603">
        <ele>253</ele>
        <time>2017-10-14T07:59:06.000Z</time>
      </trkpt>
      <trkpt lat="43.6278" lon="6.84602">
        <ele>253</ele>
        <time>2017-10-14T07:59:07.000Z</time>
      </trkpt>
      <trkpt lat="43.62779" lon="6.84601">
        <ele>254</ele>
        <time>2017-10-14T07:59:08.000Z</time>
      </trkpt>
      <trkpt lat="43.62777" lon="6.84599">
        <ele>254</ele>
        <time>2017-10-14T07:59:09.000Z</time>
      </trkpt>
      <trkpt lat="43.62776" lon="6.84597">
        <ele>255</ele>
        <time>2017-10-14T07:59:10.000Z</time>
      </trkpt>
      <trkpt lat="43.62775" lon="6.84595">
        <ele>256</ele>
        <time>2017-10-14T07:59:11.000Z</time>
      </trkpt>
      <trkpt lat="43.62775" lon="6.84593">
        <ele>257</ele>
        <time>2017-10-14T07:59:12.000Z</time>
      </trkpt>
      <trkpt lat="43.62774" lon="6.84591">
        <ele>258</ele>
        <time>2017-10-14T07:59:13.000Z</time>
      </trkpt>
      <trkpt lat="43.62773" lon="6.8459">
        <ele>259</ele>
        <time>2017-10-14T07:59:14.000Z</time>
      </trkpt>
      <trkpt lat="43.62773" lon="6.84588">
        <ele>260</ele>
        <time>2017-10-14T07:59:15.000Z</time>
      </trkpt>
      <trkpt lat="43.62773" lon="6.84587">
        <ele>259</ele>
        <time>2017-10-14T07:59:16.000Z</time>
      </trkpt>
      <trkpt lat="43.62772" lon="6.84585">
        <ele>258</ele>
        <time>2017-10-14T07:59:17.000Z</time>
      </trkpt>
      <trkpt lat="43.62772" lon="6.84583">
        <ele>257</ele>
        <time>2017-10-14T07:59:18.000Z</time>
      </trkpt>
      <trkpt lat="43.62772" lon="6.8458">
        <ele>256</ele>
        <time>2017-10-14T07:59:19.000Z</time>
      </trkpt>
      <trkpt lat="43.62771" lon="6.84578">
        <ele>256</ele>
        <time>2017-10-14T07:59:20.000Z</time>
      </trkpt>
      <trkpt lat="43.62771" lon="6.84576">
        <ele>256</ele>
        <time>2017-10-14T07:59:21.000Z</time>
      </trkpt>
      <trkpt lat="43.62771" lon="6.84574">
        <ele>256</ele>
        <time>2017-10-14T07:59:22.000Z</time>
      </trkpt>
      <trkpt lat="43.62771" lon="6.84572">
        <ele>257</ele>
        <time>2017-10-14T07:59:23.000Z</time>
      </trkpt>
      <trkpt lat="43.62771" lon="6.84571">
        <ele>257</ele>
        <time>2017-10-14T07:59:24.000Z</time>
      </trkpt>
      <trkpt lat="43.62771" lon="6.84569">
        <ele>257</ele>
        <time>2017-10-14T07:59:25.000Z</time>
      </trkpt>
    </trkseg>
  </trk>
</gpx>